<?xml version="1.0" encoding="UTF-8" standalone="no" ?>
<gpx xmlns="http://www.topografix.com/GPX/1/1" xmlns:xsi="http://www.w3.org/2001/XMLSchema-instance" xsi:schemaLocation="http://www.topografix.com/GPX/1/1 http://www.topografix.com/GPX/1/1/gpx.xsd" version="1.1" creator="VisuGPX - https://www.visugpx.com">
  <metadata>
    <name>46Km cave aux moines</name>
  </metadata>
  <trk>
    <name><![CDATA[46 cave aux moines_1]]></name>
    <extensions>
      <line xmlns="http://www.topografix.com/GPX/gpx_style/0/2">
        <color>0000FF</color>
        <width>2</width>
          <extensions>
            <sens>1</sens>
          </extensions>
      </line>
    </extensions>
    <trkseg>
      <trkpt lat="47.32395" lon="-0.229">
        <ele>65.4</ele>
        <time>2011-04-03T09:34:32.015Z</time>
        <extensions>
          <type>
            <highway>track</highway>
            <surface>undefined</surface>
            </type>
        </extensions>
      </trkpt>
      <trkpt lat="47.32387" lon="-0.22896">
        <ele>65.8</ele>
        <time>2011-04-03T09:34:33.386Z</time>
      </trkpt>
      <trkpt lat="47.3238" lon="-0.22892">
        <ele>66</ele>
        <time>2011-04-03T09:34:34.604Z</time>
      </trkpt>
      <trkpt lat="47.32372" lon="-0.22887">
        <ele>66</ele>
        <time>2011-04-03T09:34:36.013Z</time>
      </trkpt>
      <trkpt lat="47.32364" lon="-0.22883">
        <ele>66</ele>
        <time>2011-04-03T09:34:37.382Z</time>
      </trkpt>
      <trkpt lat="47.32356" lon="-0.22879">
        <ele>66.1</ele>
        <time>2011-04-03T09:34:38.751Z</time>
      </trkpt>
      <trkpt lat="47.32349" lon="-0.22875">
        <ele>66.2</ele>
        <time>2011-04-03T09:34:39.967Z</time>
      </trkpt>
      <trkpt lat="47.32341" lon="-0.2287">
        <ele>66.2</ele>
        <time>2011-04-03T09:34:41.374Z</time>
      </trkpt>
      <trkpt lat="47.32333" lon="-0.22866">
        <ele>66.2</ele>
        <time>2011-04-03T09:34:42.741Z</time>
        <extensions>
          <type>
            <highway>track</highway>
            <surface>undefined</surface>
            </type>
        </extensions>
      </trkpt>
      <trkpt lat="47.32325" lon="-0.22864">
        <ele>66.1</ele>
        <time>2011-04-03T09:34:44.054Z</time>
      </trkpt>
      <trkpt lat="47.32317" lon="-0.22862">
        <ele>66.1</ele>
        <time>2011-04-03T09:34:45.367Z</time>
      </trkpt>
      <trkpt lat="47.32309" lon="-0.2286">
        <ele>66</ele>
        <time>2011-04-03T09:34:46.680Z</time>
      </trkpt>
      <trkpt lat="47.32302" lon="-0.22859">
        <ele>65.9</ele>
        <time>2011-04-03T09:34:47.818Z</time>
      </trkpt>
      <trkpt lat="47.32294" lon="-0.22857">
        <ele>65.8</ele>
        <time>2011-04-03T09:34:49.130Z</time>
      </trkpt>
      <trkpt lat="47.32286" lon="-0.22855">
        <ele>65.8</ele>
        <time>2011-04-03T09:34:50.442Z</time>
      </trkpt>
      <trkpt lat="47.32278" lon="-0.22853">
        <ele>65.7</ele>
        <time>2011-04-03T09:34:51.754Z</time>
      </trkpt>
      <trkpt lat="47.3227" lon="-0.22851">
        <ele>65.5</ele>
        <time>2011-04-03T09:34:53.066Z</time>
      </trkpt>
      <trkpt lat="47.32262" lon="-0.22849">
        <ele>65.3</ele>
        <time>2011-04-03T09:34:54.378Z</time>
      </trkpt>
      <trkpt lat="47.32254" lon="-0.22847">
        <ele>65.1</ele>
        <time>2011-04-03T09:34:55.690Z</time>
      </trkpt>
      <trkpt lat="47.32246" lon="-0.22845">
        <ele>64.9</ele>
        <time>2011-04-03T09:34:57.002Z</time>
      </trkpt>
      <trkpt lat="47.32239" lon="-0.22844">
        <ele>64.7</ele>
        <time>2011-04-03T09:34:58.139Z</time>
      </trkpt>
      <trkpt lat="47.32231" lon="-0.22842">
        <ele>64.6</ele>
        <time>2011-04-03T09:34:59.450Z</time>
      </trkpt>
      <trkpt lat="47.32223" lon="-0.2284">
        <ele>64.5</ele>
        <time>2011-04-03T09:35:00.761Z</time>
      </trkpt>
      <trkpt lat="47.32215" lon="-0.22838">
        <ele>64.5</ele>
        <time>2011-04-03T09:35:02.072Z</time>
      </trkpt>
      <trkpt lat="47.32207" lon="-0.22836">
        <ele>64.7</ele>
        <time>2011-04-03T09:35:03.383Z</time>
        <extensions>
          <type>
            <highway>track</highway>
            <surface>undefined</surface>
            </type>
        </extensions>
      </trkpt>
      <trkpt lat="47.322" lon="-0.22838">
        <ele>65</ele>
        <time>2011-04-03T09:35:04.535Z</time>
      </trkpt>
      <trkpt lat="47.32192" lon="-0.2284">
        <ele>65.1</ele>
        <time>2011-04-03T09:35:05.845Z</time>
      </trkpt>
      <trkpt lat="47.32185" lon="-0.22841">
        <ele>64.9</ele>
        <time>2011-04-03T09:35:06.980Z</time>
      </trkpt>
      <trkpt lat="47.32178" lon="-0.22843">
        <ele>64.7</ele>
        <time>2011-04-03T09:35:08.130Z</time>
      </trkpt>
      <trkpt lat="47.3217" lon="-0.22845">
        <ele>64.5</ele>
        <time>2011-04-03T09:35:09.438Z</time>
      </trkpt>
      <trkpt lat="47.32163" lon="-0.22847">
        <ele>64.4</ele>
        <time>2011-04-03T09:35:10.587Z</time>
      </trkpt>
      <trkpt lat="47.32155" lon="-0.22848">
        <ele>64.3</ele>
        <time>2011-04-03T09:35:11.880Z</time>
      </trkpt>
      <trkpt lat="47.32148" lon="-0.2285">
        <ele>64.2</ele>
        <time>2011-04-03T09:35:13.028Z</time>
        <extensions>
          <type>
            <highway>track</highway>
            <surface>undefined</surface>
            </type>
        </extensions>
      </trkpt>
      <trkpt lat="47.32144" lon="-0.22852">
        <ele>64.1</ele>
        <time>2011-04-03T09:35:13.708Z</time>
      </trkpt>
      <trkpt lat="47.32139" lon="-0.22855">
        <ele>64</ele>
        <time>2011-04-03T09:35:14.576Z</time>
      </trkpt>
      <trkpt lat="47.32135" lon="-0.22857">
        <ele>64</ele>
        <time>2011-04-03T09:35:15.255Z</time>
      </trkpt>
      <trkpt lat="47.3213" lon="-0.2286">
        <ele>64</ele>
        <time>2011-04-03T09:35:16.122Z</time>
      </trkpt>
      <trkpt lat="47.32126" lon="-0.22862">
        <ele>64</ele>
        <time>2011-04-03T09:35:16.800Z</time>
      </trkpt>
      <trkpt lat="47.32121" lon="-0.22864">
        <ele>64.1</ele>
        <time>2011-04-03T09:35:17.631Z</time>
      </trkpt>
      <trkpt lat="47.32117" lon="-0.22867">
        <ele>64.2</ele>
        <time>2011-04-03T09:35:18.350Z</time>
      </trkpt>
      <trkpt lat="47.32112" lon="-0.22869">
        <ele>64.3</ele>
        <time>2011-04-03T09:35:19.179Z</time>
        <extensions>
          <type>
            <highway>track</highway>
            <surface>undefined</surface>
            </type>
        </extensions>
      </trkpt>
      <trkpt lat="47.32107" lon="-0.2287">
        <ele>64.4</ele>
        <time>2011-04-03T09:35:19.986Z</time>
      </trkpt>
      <trkpt lat="47.32102" lon="-0.22872">
        <ele>64.6</ele>
        <time>2011-04-03T09:35:20.814Z</time>
      </trkpt>
      <trkpt lat="47.32096" lon="-0.22873">
        <ele>64.7</ele>
        <time>2011-04-03T09:35:21.778Z</time>
      </trkpt>
      <trkpt lat="47.32091" lon="-0.22875">
        <ele>64.9</ele>
        <time>2011-04-03T09:35:22.605Z</time>
      </trkpt>
      <trkpt lat="47.32086" lon="-0.22876">
        <ele>65</ele>
        <time>2011-04-03T09:35:23.410Z</time>
      </trkpt>
      <trkpt lat="47.32081" lon="-0.22877">
        <ele>65.1</ele>
        <time>2011-04-03T09:35:24.215Z</time>
      </trkpt>
      <trkpt lat="47.32075" lon="-0.22879">
        <ele>65.2</ele>
        <time>2011-04-03T09:35:25.196Z</time>
      </trkpt>
      <trkpt lat="47.3207" lon="-0.2288">
        <ele>65.3</ele>
        <time>2011-04-03T09:35:26Z</time>
        <extensions>
          <type>
            <highway>track</highway>
            <surface>undefined</surface>
            </type>
        </extensions>
      </trkpt>
      <trkpt lat="47.32067" lon="-0.22875">
        <ele>65.3</ele>
        <time>2011-04-03T09:35:26.721Z</time>
      </trkpt>
      <trkpt lat="47.32064" lon="-0.2287">
        <ele>65.2</ele>
        <time>2011-04-03T09:35:27.442Z</time>
      </trkpt>
      <trkpt lat="47.3206" lon="-0.22865">
        <ele>65.1</ele>
        <time>2011-04-03T09:35:28.278Z</time>
      </trkpt>
      <trkpt lat="47.32057" lon="-0.2286">
        <ele>65.2</ele>
        <time>2011-04-03T09:35:29Z</time>
        <extensions>
          <type>
            <highway>track</highway>
            <surface>undefined</surface>
            </type>
        </extensions>
      </trkpt>
      <trkpt lat="47.32053" lon="-0.22858">
        <ele>65.5</ele>
        <time>2011-04-03T09:35:29.905Z</time>
      </trkpt>
      <trkpt lat="47.32048" lon="-0.22855">
        <ele>65.9</ele>
        <time>2011-04-03T09:35:31.062Z</time>
      </trkpt>
      <trkpt lat="47.32044" lon="-0.22853">
        <ele>66.2</ele>
        <time>2011-04-03T09:35:31.967Z</time>
      </trkpt>
      <trkpt lat="47.3204" lon="-0.22851">
        <ele>66.5</ele>
        <time>2011-04-03T09:35:32.872Z</time>
      </trkpt>
      <trkpt lat="47.32035" lon="-0.22848">
        <ele>66.9</ele>
        <time>2011-04-03T09:35:34.029Z</time>
      </trkpt>
      <trkpt lat="47.32031" lon="-0.22846">
        <ele>67.2</ele>
        <time>2011-04-03T09:35:34.935Z</time>
      </trkpt>
      <trkpt lat="47.32026" lon="-0.22843">
        <ele>67.5</ele>
        <time>2011-04-03T09:35:36.093Z</time>
      </trkpt>
      <trkpt lat="47.32022" lon="-0.22841">
        <ele>67.8</ele>
        <time>2011-04-03T09:35:37Z</time>
        <extensions>
          <type>
            <highway>track</highway>
            <surface>undefined</surface>
            </type>
        </extensions>
      </trkpt>
      <trkpt lat="47.32017" lon="-0.22833">
        <ele>68.6</ele>
        <time>2011-04-03T09:35:38.809Z</time>
      </trkpt>
      <trkpt lat="47.32011" lon="-0.22825">
        <ele>69</ele>
        <time>2011-04-03T09:35:40.793Z</time>
      </trkpt>
      <trkpt lat="47.32006" lon="-0.22817">
        <ele>69.4</ele>
        <time>2011-04-03T09:35:42.602Z</time>
      </trkpt>
      <trkpt lat="47.32001" lon="-0.22809">
        <ele>69.8</ele>
        <time>2011-04-03T09:35:44.411Z</time>
      </trkpt>
      <trkpt lat="47.31995" lon="-0.22801">
        <ele>70.2</ele>
        <time>2011-04-03T09:35:46.395Z</time>
      </trkpt>
      <trkpt lat="47.3199" lon="-0.22793">
        <ele>70.5</ele>
        <time>2011-04-03T09:35:48.205Z</time>
      </trkpt>
      <trkpt lat="47.31984" lon="-0.22785">
        <ele>70.9</ele>
        <time>2011-04-03T09:35:50.189Z</time>
      </trkpt>
      <trkpt lat="47.31979" lon="-0.22777">
        <ele>71.3</ele>
        <time>2011-04-03T09:35:52Z</time>
        <extensions>
          <type>
            <highway>track</highway>
            <surface>undefined</surface>
            </type>
        </extensions>
      </trkpt>
      <trkpt lat="47.31975" lon="-0.22769">
        <ele>71.4</ele>
        <time>2011-04-03T09:35:53.785Z</time>
      </trkpt>
      <trkpt lat="47.31972" lon="-0.22761">
        <ele>71.6</ele>
        <time>2011-04-03T09:35:55.427Z</time>
      </trkpt>
      <trkpt lat="47.31968" lon="-0.22753">
        <ele>71.7</ele>
        <time>2011-04-03T09:35:57.213Z</time>
      </trkpt>
      <trkpt lat="47.31964" lon="-0.22745">
        <ele>71.9</ele>
        <time>2011-04-03T09:35:59Z</time>
        <extensions>
          <type>
            <highway>track</highway>
            <surface>undefined</surface>
            </type>
        </extensions>
      </trkpt>
      <trkpt lat="47.31963" lon="-0.22734">
        <ele>72.2</ele>
        <time>2011-04-03T09:36:00.911Z</time>
      </trkpt>
      <trkpt lat="47.31962" lon="-0.22724">
        <ele>72.6</ele>
        <time>2011-04-03T09:36:02.651Z</time>
      </trkpt>
      <trkpt lat="47.31961" lon="-0.22713">
        <ele>72.6</ele>
        <time>2011-04-03T09:36:04.562Z</time>
      </trkpt>
      <trkpt lat="47.3196" lon="-0.22702">
        <ele>72.5</ele>
        <time>2011-04-03T09:36:06.473Z</time>
      </trkpt>
      <trkpt lat="47.31958" lon="-0.22691">
        <ele>72.5</ele>
        <time>2011-04-03T09:36:08.434Z</time>
      </trkpt>
      <trkpt lat="47.31957" lon="-0.22681">
        <ele>72.5</ele>
        <time>2011-04-03T09:36:10.175Z</time>
      </trkpt>
      <trkpt lat="47.31956" lon="-0.2267">
        <ele>72.4</ele>
        <time>2011-04-03T09:36:12.087Z</time>
      </trkpt>
      <trkpt lat="47.31955" lon="-0.22659">
        <ele>72.7</ele>
        <time>2011-04-03T09:36:14Z</time>
        <extensions>
          <type>
            <highway>track</highway>
            <surface>undefined</surface>
            </type>
        </extensions>
      </trkpt>
      <trkpt lat="47.31957" lon="-0.22651">
        <ele>73</ele>
        <time>2011-04-03T09:36:15.383Z</time>
      </trkpt>
      <trkpt lat="47.31959" lon="-0.22642">
        <ele>73.4</ele>
        <time>2011-04-03T09:36:16.920Z</time>
      </trkpt>
      <trkpt lat="47.31961" lon="-0.22634">
        <ele>73.7</ele>
        <time>2011-04-03T09:36:18.304Z</time>
      </trkpt>
      <trkpt lat="47.31963" lon="-0.22626">
        <ele>73.8</ele>
        <time>2011-04-03T09:36:19.688Z</time>
      </trkpt>
      <trkpt lat="47.31965" lon="-0.22617">
        <ele>73.9</ele>
        <time>2011-04-03T09:36:21.225Z</time>
      </trkpt>
      <trkpt lat="47.31967" lon="-0.22609">
        <ele>74.1</ele>
        <time>2011-04-03T09:36:22.609Z</time>
      </trkpt>
      <trkpt lat="47.31969" lon="-0.226">
        <ele>74.3</ele>
        <time>2011-04-03T09:36:24.146Z</time>
      </trkpt>
      <trkpt lat="47.31971" lon="-0.22592">
        <ele>74.6</ele>
        <time>2011-04-03T09:36:25.530Z</time>
      </trkpt>
      <trkpt lat="47.31972" lon="-0.22584">
        <ele>75</ele>
        <time>2011-04-03T09:36:26.850Z</time>
      </trkpt>
      <trkpt lat="47.31974" lon="-0.22575">
        <ele>74.7</ele>
        <time>2011-04-03T09:36:28.387Z</time>
      </trkpt>
      <trkpt lat="47.31976" lon="-0.22567">
        <ele>74.5</ele>
        <time>2011-04-03T09:36:29.771Z</time>
      </trkpt>
      <trkpt lat="47.31978" lon="-0.22559">
        <ele>74.3</ele>
        <time>2011-04-03T09:36:31.155Z</time>
      </trkpt>
      <trkpt lat="47.3198" lon="-0.2255">
        <ele>74.4</ele>
        <time>2011-04-03T09:36:32.692Z</time>
      </trkpt>
      <trkpt lat="47.31982" lon="-0.22542">
        <ele>74.7</ele>
        <time>2011-04-03T09:36:34.076Z</time>
      </trkpt>
      <trkpt lat="47.31984" lon="-0.22533">
        <ele>74.9</ele>
        <time>2011-04-03T09:36:35.614Z</time>
      </trkpt>
      <trkpt lat="47.31986" lon="-0.22525">
        <ele>75</ele>
        <time>2011-04-03T09:36:37Z</time>
        <extensions>
          <type>
            <highway>track</highway>
            <surface>undefined</surface>
            </type>
        </extensions>
      </trkpt>
      <trkpt lat="47.3199" lon="-0.22519">
        <ele>75</ele>
        <time>2011-04-03T09:36:38.344Z</time>
      </trkpt>
      <trkpt lat="47.31995" lon="-0.22513">
        <ele>75</ele>
        <time>2011-04-03T09:36:39.863Z</time>
      </trkpt>
      <trkpt lat="47.31999" lon="-0.22507">
        <ele>75</ele>
        <time>2011-04-03T09:36:41.208Z</time>
      </trkpt>
      <trkpt lat="47.32003" lon="-0.22502">
        <ele>75</ele>
        <time>2011-04-03T09:36:42.444Z</time>
      </trkpt>
      <trkpt lat="47.32007" lon="-0.22496">
        <ele>75</ele>
        <time>2011-04-03T09:36:43.789Z</time>
      </trkpt>
      <trkpt lat="47.32012" lon="-0.2249">
        <ele>75</ele>
        <time>2011-04-03T09:36:45.309Z</time>
      </trkpt>
      <trkpt lat="47.32016" lon="-0.22484">
        <ele>75</ele>
        <time>2011-04-03T09:36:46.654Z</time>
      </trkpt>
      <trkpt lat="47.3202" lon="-0.22478">
        <ele>75</ele>
        <time>2011-04-03T09:36:48Z</time>
        <extensions>
          <type>
            <highway>track</highway>
            <surface>undefined</surface>
            </type>
        </extensions>
      </trkpt>
      <trkpt lat="47.32023" lon="-0.22467">
        <ele>75.1</ele>
        <time>2011-04-03T09:36:50.000Z</time>
      </trkpt>
      <trkpt lat="47.32026" lon="-0.22456">
        <ele>75.1</ele>
        <time>2011-04-03T09:36:52Z</time>
        <extensions>
          <type>
            <highway>track</highway>
            <surface>undefined</surface>
            </type>
        </extensions>
      </trkpt>
      <trkpt lat="47.32026" lon="-0.22449">
        <ele>75.1</ele>
        <time>2011-04-03T09:36:53.028Z</time>
      </trkpt>
      <trkpt lat="47.32025" lon="-0.22442">
        <ele>75.3</ele>
        <time>2011-04-03T09:36:54.078Z</time>
      </trkpt>
      <trkpt lat="47.32025" lon="-0.22434">
        <ele>75.5</ele>
        <time>2011-04-03T09:36:55.253Z</time>
      </trkpt>
      <trkpt lat="47.32025" lon="-0.22427">
        <ele>75.7</ele>
        <time>2011-04-03T09:36:56.281Z</time>
      </trkpt>
      <trkpt lat="47.32024" lon="-0.2242">
        <ele>75.9</ele>
        <time>2011-04-03T09:36:57.331Z</time>
      </trkpt>
      <trkpt lat="47.32024" lon="-0.22413">
        <ele>75.9</ele>
        <time>2011-04-03T09:36:58.359Z</time>
      </trkpt>
      <trkpt lat="47.32024" lon="-0.22406">
        <ele>75.6</ele>
        <time>2011-04-03T09:36:59.387Z</time>
      </trkpt>
      <trkpt lat="47.32024" lon="-0.22399">
        <ele>75.3</ele>
        <time>2011-04-03T09:37:00.415Z</time>
      </trkpt>
      <trkpt lat="47.32023" lon="-0.22391">
        <ele>75.1</ele>
        <time>2011-04-03T09:37:01.609Z</time>
      </trkpt>
      <trkpt lat="47.32023" lon="-0.22384">
        <ele>75</ele>
        <time>2011-04-03T09:37:02.637Z</time>
      </trkpt>
      <trkpt lat="47.32023" lon="-0.22377">
        <ele>75</ele>
        <time>2011-04-03T09:37:03.665Z</time>
      </trkpt>
      <trkpt lat="47.32022" lon="-0.2237">
        <ele>75</ele>
        <time>2011-04-03T09:37:04.716Z</time>
      </trkpt>
      <trkpt lat="47.32022" lon="-0.22363">
        <ele>75</ele>
        <time>2011-04-03T09:37:05.744Z</time>
      </trkpt>
      <trkpt lat="47.32022" lon="-0.22355">
        <ele>75</ele>
        <time>2011-04-03T09:37:06.919Z</time>
      </trkpt>
      <trkpt lat="47.32021" lon="-0.22348">
        <ele>75.1</ele>
        <time>2011-04-03T09:37:07.970Z</time>
      </trkpt>
      <trkpt lat="47.32021" lon="-0.22341">
        <ele>75.2</ele>
        <time>2011-04-03T09:37:09Z</time>
        <extensions>
          <type>
            <highway>track</highway>
            <surface>undefined</surface>
            </type>
        </extensions>
      </trkpt>
      <trkpt lat="47.3202" lon="-0.22332">
        <ele>75.3</ele>
        <time>2011-04-03T09:37:10.275Z</time>
      </trkpt>
      <trkpt lat="47.32018" lon="-0.22324">
        <ele>75.4</ele>
        <time>2011-04-03T09:37:11.467Z</time>
      </trkpt>
      <trkpt lat="47.32017" lon="-0.22315">
        <ele>75.4</ele>
        <time>2011-04-03T09:37:12.742Z</time>
      </trkpt>
      <trkpt lat="47.32015" lon="-0.22307">
        <ele>75.5</ele>
        <time>2011-04-03T09:37:13.934Z</time>
      </trkpt>
      <trkpt lat="47.32014" lon="-0.22298">
        <ele>75.4</ele>
        <time>2011-04-03T09:37:15.209Z</time>
      </trkpt>
      <trkpt lat="47.32012" lon="-0.22289">
        <ele>75.2</ele>
        <time>2011-04-03T09:37:16.534Z</time>
      </trkpt>
      <trkpt lat="47.32011" lon="-0.22281">
        <ele>75.1</ele>
        <time>2011-04-03T09:37:17.672Z</time>
      </trkpt>
      <trkpt lat="47.32009" lon="-0.22272">
        <ele>75</ele>
        <time>2011-04-03T09:37:18.997Z</time>
      </trkpt>
      <trkpt lat="47.32008" lon="-0.22263">
        <ele>75</ele>
        <time>2011-04-03T09:37:20.273Z</time>
      </trkpt>
      <trkpt lat="47.32006" lon="-0.22255">
        <ele>75</ele>
        <time>2011-04-03T09:37:21.466Z</time>
      </trkpt>
      <trkpt lat="47.32005" lon="-0.22246">
        <ele>75</ele>
        <time>2011-04-03T09:37:22.742Z</time>
      </trkpt>
      <trkpt lat="47.32003" lon="-0.22238">
        <ele>75</ele>
        <time>2011-04-03T09:37:23.935Z</time>
      </trkpt>
      <trkpt lat="47.32002" lon="-0.22229">
        <ele>75</ele>
        <time>2011-04-03T09:37:25.211Z</time>
      </trkpt>
      <trkpt lat="47.32" lon="-0.2222">
        <ele>75</ele>
        <time>2011-04-03T09:37:26.536Z</time>
      </trkpt>
      <trkpt lat="47.31999" lon="-0.22212">
        <ele>75</ele>
        <time>2011-04-03T09:37:27.674Z</time>
      </trkpt>
      <trkpt lat="47.31997" lon="-0.22203">
        <ele>75</ele>
        <time>2011-04-03T09:37:29Z</time>
        <extensions>
          <type>
            <highway>track</highway>
            <surface>undefined</surface>
            </type>
        </extensions>
      </trkpt>
      <trkpt lat="47.31993" lon="-0.22194">
        <ele>75</ele>
        <time>2011-04-03T09:37:30.479Z</time>
      </trkpt>
      <trkpt lat="47.31988" lon="-0.22186">
        <ele>75.3</ele>
        <time>2011-04-03T09:37:31.975Z</time>
      </trkpt>
      <trkpt lat="47.31984" lon="-0.22177">
        <ele>75.6</ele>
        <time>2011-04-03T09:37:33.455Z</time>
      </trkpt>
      <trkpt lat="47.31979" lon="-0.22169">
        <ele>75.9</ele>
        <time>2011-04-03T09:37:34.951Z</time>
      </trkpt>
      <trkpt lat="47.31975" lon="-0.2216">
        <ele>76</ele>
        <time>2011-04-03T09:37:36.431Z</time>
      </trkpt>
      <trkpt lat="47.3197" lon="-0.22151">
        <ele>76</ele>
        <time>2011-04-03T09:37:38.031Z</time>
      </trkpt>
      <trkpt lat="47.31966" lon="-0.22143">
        <ele>76</ele>
        <time>2011-04-03T09:37:39.398Z</time>
      </trkpt>
      <trkpt lat="47.31961" lon="-0.22134">
        <ele>76</ele>
        <time>2011-04-03T09:37:41Z</time>
        <extensions>
          <type>
            <highway>track</highway>
            <surface>undefined</surface>
            </type>
        </extensions>
      </trkpt>
      <trkpt lat="47.31957" lon="-0.2213">
        <ele>76</ele>
        <time>2011-04-03T09:37:42.150Z</time>
      </trkpt>
      <trkpt lat="47.31953" lon="-0.22125">
        <ele>76</ele>
        <time>2011-04-03T09:37:43.397Z</time>
      </trkpt>
      <trkpt lat="47.31948" lon="-0.22121">
        <ele>76</ele>
        <time>2011-04-03T09:37:44.751Z</time>
      </trkpt>
      <trkpt lat="47.31944" lon="-0.22116">
        <ele>76</ele>
        <time>2011-04-03T09:37:45.999Z</time>
      </trkpt>
      <trkpt lat="47.3194" lon="-0.22112">
        <ele>76</ele>
        <time>2011-04-03T09:37:47.149Z</time>
      </trkpt>
      <trkpt lat="47.31936" lon="-0.22107">
        <ele>76</ele>
        <time>2011-04-03T09:37:48.397Z</time>
      </trkpt>
      <trkpt lat="47.31931" lon="-0.22103">
        <ele>76</ele>
        <time>2011-04-03T09:37:49.751Z</time>
      </trkpt>
      <trkpt lat="47.31927" lon="-0.22098">
        <ele>76</ele>
        <time>2011-04-03T09:37:51Z</time>
        <extensions>
          <type>
            <highway>track</highway>
            <surface>undefined</surface>
            </type>
        </extensions>
      </trkpt>
      <trkpt lat="47.31922" lon="-0.22096">
        <ele>76</ele>
        <time>2011-04-03T09:37:52.349Z</time>
      </trkpt>
      <trkpt lat="47.31916" lon="-0.22093">
        <ele>76</ele>
        <time>2011-04-03T09:37:54Z</time>
        <extensions>
          <type>
            <highway>track</highway>
            <surface>dirt</surface>
            </type>
        </extensions>
      </trkpt>
      <trkpt lat="47.31909" lon="-0.22095">
        <ele>76.2</ele>
        <time>2011-04-03T09:37:55.870Z</time>
      </trkpt>
      <trkpt lat="47.31901" lon="-0.22097">
        <ele>76.3</ele>
        <time>2011-04-03T09:37:58Z</time>
        <extensions>
          <type>
            <highway>track</highway>
            <surface>dirt</surface>
            </type>
        </extensions>
      </trkpt>
      <trkpt lat="47.31897" lon="-0.221">
        <ele>76.3</ele>
        <time>2011-04-03T09:37:59.118Z</time>
      </trkpt>
      <trkpt lat="47.31892" lon="-0.22104">
        <ele>76.2</ele>
        <time>2011-04-03T09:38:00.535Z</time>
      </trkpt>
      <trkpt lat="47.31888" lon="-0.22107">
        <ele>76.2</ele>
        <time>2011-04-03T09:38:01.653Z</time>
      </trkpt>
      <trkpt lat="47.31883" lon="-0.2211">
        <ele>76.3</ele>
        <time>2011-04-03T09:38:03Z</time>
        <extensions>
          <type>
            <highway>track</highway>
            <surface>dirt</surface>
            </type>
        </extensions>
      </trkpt>
      <trkpt lat="47.31878" lon="-0.22116">
        <ele>76.4</ele>
        <time>2011-04-03T09:38:04.499Z</time>
      </trkpt>
      <trkpt lat="47.31873" lon="-0.22122">
        <ele>76.6</ele>
        <time>2011-04-03T09:38:05.999Z</time>
      </trkpt>
      <trkpt lat="47.31868" lon="-0.22128">
        <ele>76.8</ele>
        <time>2011-04-03T09:38:07.499Z</time>
      </trkpt>
      <trkpt lat="47.31863" lon="-0.22134">
        <ele>76.9</ele>
        <time>2011-04-03T09:38:09Z</time>
        <extensions>
          <type>
            <highway>track</highway>
            <surface>dirt</surface>
            </type>
        </extensions>
      </trkpt>
      <trkpt lat="47.3186" lon="-0.2214">
        <ele>77</ele>
        <time>2011-04-03T09:38:10.151Z</time>
      </trkpt>
      <trkpt lat="47.31857" lon="-0.22147">
        <ele>77.2</ele>
        <time>2011-04-03T09:38:11.430Z</time>
      </trkpt>
      <trkpt lat="47.31854" lon="-0.22153">
        <ele>77.3</ele>
        <time>2011-04-03T09:38:12.581Z</time>
      </trkpt>
      <trkpt lat="47.3185" lon="-0.22159">
        <ele>77.4</ele>
        <time>2011-04-03T09:38:13.881Z</time>
      </trkpt>
      <trkpt lat="47.31847" lon="-0.22166">
        <ele>77.5</ele>
        <time>2011-04-03T09:38:15.160Z</time>
      </trkpt>
      <trkpt lat="47.31844" lon="-0.22172">
        <ele>77.6</ele>
        <time>2011-04-03T09:38:16.311Z</time>
      </trkpt>
      <trkpt lat="47.31841" lon="-0.22178">
        <ele>77.7</ele>
        <time>2011-04-03T09:38:17.462Z</time>
      </trkpt>
      <trkpt lat="47.31838" lon="-0.22185">
        <ele>77.8</ele>
        <time>2011-04-03T09:38:18.741Z</time>
      </trkpt>
      <trkpt lat="47.31835" lon="-0.22191">
        <ele>78</ele>
        <time>2011-04-03T09:38:19.892Z</time>
      </trkpt>
      <trkpt lat="47.31831" lon="-0.22197">
        <ele>78.1</ele>
        <time>2011-04-03T09:38:21.192Z</time>
      </trkpt>
      <trkpt lat="47.31828" lon="-0.22204">
        <ele>78.3</ele>
        <time>2011-04-03T09:38:22.471Z</time>
      </trkpt>
      <trkpt lat="47.31825" lon="-0.2221">
        <ele>78.4</ele>
        <time>2011-04-03T09:38:23.622Z</time>
      </trkpt>
      <trkpt lat="47.31822" lon="-0.22217">
        <ele>78.5</ele>
        <time>2011-04-03T09:38:24.901Z</time>
      </trkpt>
      <trkpt lat="47.31819" lon="-0.22223">
        <ele>78.5</ele>
        <time>2011-04-03T09:38:26.053Z</time>
      </trkpt>
      <trkpt lat="47.31816" lon="-0.22229">
        <ele>78.6</ele>
        <time>2011-04-03T09:38:27.205Z</time>
      </trkpt>
      <trkpt lat="47.31813" lon="-0.22236">
        <ele>78.7</ele>
        <time>2011-04-03T09:38:28.484Z</time>
      </trkpt>
      <trkpt lat="47.31809" lon="-0.22242">
        <ele>78.9</ele>
        <time>2011-04-03T09:38:29.784Z</time>
      </trkpt>
      <trkpt lat="47.31806" lon="-0.22248">
        <ele>79</ele>
        <time>2011-04-03T09:38:30.936Z</time>
      </trkpt>
      <trkpt lat="47.31803" lon="-0.22255">
        <ele>78.9</ele>
        <time>2011-04-03T09:38:32.215Z</time>
      </trkpt>
      <trkpt lat="47.318" lon="-0.22261">
        <ele>78.7</ele>
        <time>2011-04-03T09:38:33.367Z</time>
      </trkpt>
      <trkpt lat="47.31797" lon="-0.22267">
        <ele>78.5</ele>
        <time>2011-04-03T09:38:34.519Z</time>
      </trkpt>
      <trkpt lat="47.31794" lon="-0.22274">
        <ele>78.2</ele>
        <time>2011-04-03T09:38:35.798Z</time>
      </trkpt>
      <trkpt lat="47.3179" lon="-0.2228">
        <ele>77.9</ele>
        <time>2011-04-03T09:38:37.098Z</time>
      </trkpt>
      <trkpt lat="47.31787" lon="-0.22286">
        <ele>77.7</ele>
        <time>2011-04-03T09:38:38.250Z</time>
      </trkpt>
      <trkpt lat="47.31784" lon="-0.22293">
        <ele>77.5</ele>
        <time>2011-04-03T09:38:39.530Z</time>
      </trkpt>
      <trkpt lat="47.31781" lon="-0.22299">
        <ele>77.2</ele>
        <time>2011-04-03T09:38:40.682Z</time>
      </trkpt>
      <trkpt lat="47.31778" lon="-0.22305">
        <ele>77</ele>
        <time>2011-04-03T09:38:41.834Z</time>
      </trkpt>
      <trkpt lat="47.31775" lon="-0.22312">
        <ele>77.1</ele>
        <time>2011-04-03T09:38:43.114Z</time>
      </trkpt>
      <trkpt lat="47.31772" lon="-0.22318">
        <ele>77.1</ele>
        <time>2011-04-03T09:38:44.266Z</time>
      </trkpt>
      <trkpt lat="47.31768" lon="-0.22324">
        <ele>77.1</ele>
        <time>2011-04-03T09:38:45.567Z</time>
      </trkpt>
      <trkpt lat="47.31765" lon="-0.22331">
        <ele>77</ele>
        <time>2011-04-03T09:38:46.847Z</time>
      </trkpt>
      <trkpt lat="47.31762" lon="-0.22337">
        <ele>77</ele>
        <time>2011-04-03T09:38:48Z</time>
        <extensions>
          <type>
            <highway>track</highway>
            <surface>dirt</surface>
            </type>
        </extensions>
      </trkpt>
      <trkpt lat="47.31758" lon="-0.22343">
        <ele>77</ele>
        <time>2011-04-03T09:38:49.185Z</time>
      </trkpt>
      <trkpt lat="47.31754" lon="-0.2235">
        <ele>77</ele>
        <time>2011-04-03T09:38:50.474Z</time>
      </trkpt>
      <trkpt lat="47.31749" lon="-0.22356">
        <ele>77</ele>
        <time>2011-04-03T09:38:51.813Z</time>
      </trkpt>
      <trkpt lat="47.31745" lon="-0.22362">
        <ele>77.2</ele>
        <time>2011-04-03T09:38:53Z</time>
        <extensions>
          <type>
            <highway>track</highway>
            <surface>dirt</surface>
            </type>
        </extensions>
      </trkpt>
      <trkpt lat="47.31742" lon="-0.22371">
        <ele>77.3</ele>
        <time>2011-04-03T09:38:54.533Z</time>
      </trkpt>
      <trkpt lat="47.31739" lon="-0.2238">
        <ele>77.4</ele>
        <time>2011-04-03T09:38:56.067Z</time>
      </trkpt>
      <trkpt lat="47.31736" lon="-0.22388">
        <ele>77.5</ele>
        <time>2011-04-03T09:38:57.465Z</time>
      </trkpt>
      <trkpt lat="47.31733" lon="-0.22397">
        <ele>77.6</ele>
        <time>2011-04-03T09:38:59Z</time>
        <extensions>
          <type>
            <highway>track</highway>
            <surface>dirt</surface>
            </type>
        </extensions>
      </trkpt>
      <trkpt lat="47.31726" lon="-0.22405">
        <ele>77.9</ele>
        <time>2011-04-03T09:39:00.975Z</time>
      </trkpt>
      <trkpt lat="47.31719" lon="-0.22414">
        <ele>78</ele>
        <time>2011-04-03T09:39:03.047Z</time>
      </trkpt>
      <trkpt lat="47.31712" lon="-0.22422">
        <ele>78</ele>
        <time>2011-04-03T09:39:05.023Z</time>
      </trkpt>
      <trkpt lat="47.31705" lon="-0.2243">
        <ele>78</ele>
        <time>2011-04-03T09:39:07Z</time>
        <extensions>
          <type>
            <highway>track</highway>
            <surface>dirt</surface>
            </type>
        </extensions>
      </trkpt>
      <trkpt lat="47.31699" lon="-0.2243">
        <ele>78</ele>
        <time>2011-04-03T09:39:08.677Z</time>
      </trkpt>
      <trkpt lat="47.31693" lon="-0.22431">
        <ele>78.1</ele>
        <time>2011-04-03T09:39:10.365Z</time>
      </trkpt>
      <trkpt lat="47.31686" lon="-0.22431">
        <ele>78.3</ele>
        <time>2011-04-03T09:39:12.322Z</time>
      </trkpt>
      <trkpt lat="47.3168" lon="-0.22431">
        <ele>78.5</ele>
        <time>2011-04-03T09:39:14Z</time>
        <extensions>
          <type>
            <highway>track</highway>
            <surface>dirt</surface>
            </type>
        </extensions>
      </trkpt>
      <trkpt lat="47.31674" lon="-0.22437">
        <ele>78.7</ele>
        <time>2011-04-03T09:39:15.677Z</time>
      </trkpt>
      <trkpt lat="47.31668" lon="-0.22444">
        <ele>79</ele>
        <time>2011-04-03T09:39:17.447Z</time>
      </trkpt>
      <trkpt lat="47.31661" lon="-0.2245">
        <ele>79</ele>
        <time>2011-04-03T09:39:19.321Z</time>
      </trkpt>
      <trkpt lat="47.31655" lon="-0.22456">
        <ele>79</ele>
        <time>2011-04-03T09:39:21Z</time>
        <extensions>
          <type>
            <highway>track</highway>
            <surface>dirt</surface>
            </type>
        </extensions>
      </trkpt>
      <trkpt lat="47.3165" lon="-0.2246">
        <ele>79</ele>
        <time>2011-04-03T09:39:22.262Z</time>
      </trkpt>
      <trkpt lat="47.31645" lon="-0.22464">
        <ele>79</ele>
        <time>2011-04-03T09:39:23.524Z</time>
      </trkpt>
      <trkpt lat="47.3164" lon="-0.22467">
        <ele>79</ele>
        <time>2011-04-03T09:39:24.721Z</time>
      </trkpt>
      <trkpt lat="47.31635" lon="-0.22471">
        <ele>79.1</ele>
        <time>2011-04-03T09:39:25.983Z</time>
      </trkpt>
      <trkpt lat="47.3163" lon="-0.22475">
        <ele>79.3</ele>
        <time>2011-04-03T09:39:27.245Z</time>
      </trkpt>
      <trkpt lat="47.31625" lon="-0.22479">
        <ele>79.4</ele>
        <time>2011-04-03T09:39:28.507Z</time>
      </trkpt>
      <trkpt lat="47.3162" lon="-0.22483">
        <ele>79.4</ele>
        <time>2011-04-03T09:39:29.769Z</time>
      </trkpt>
      <trkpt lat="47.31615" lon="-0.22487">
        <ele>79.4</ele>
        <time>2011-04-03T09:39:31.031Z</time>
      </trkpt>
      <trkpt lat="47.3161" lon="-0.2249">
        <ele>79.3</ele>
        <time>2011-04-03T09:39:32.228Z</time>
      </trkpt>
      <trkpt lat="47.31605" lon="-0.22494">
        <ele>79.2</ele>
        <time>2011-04-03T09:39:33.490Z</time>
      </trkpt>
      <trkpt lat="47.316" lon="-0.22498">
        <ele>79.1</ele>
        <time>2011-04-03T09:39:34.752Z</time>
      </trkpt>
      <trkpt lat="47.31595" lon="-0.22502">
        <ele>78.9</ele>
        <time>2011-04-03T09:39:36.014Z</time>
      </trkpt>
      <trkpt lat="47.3159" lon="-0.22506">
        <ele>78.8</ele>
        <time>2011-04-03T09:39:37.276Z</time>
      </trkpt>
      <trkpt lat="47.31585" lon="-0.22509">
        <ele>78.7</ele>
        <time>2011-04-03T09:39:38.474Z</time>
      </trkpt>
      <trkpt lat="47.3158" lon="-0.22513">
        <ele>78.2</ele>
        <time>2011-04-03T09:39:39.736Z</time>
      </trkpt>
      <trkpt lat="47.31575" lon="-0.22517">
        <ele>77.5</ele>
        <time>2011-04-03T09:39:41Z</time>
        <extensions>
          <type>
            <highway>track</highway>
            <surface>dirt</surface>
            </type>
        </extensions>
      </trkpt>
      <trkpt lat="47.31569" lon="-0.22515">
        <ele>76.9</ele>
        <time>2011-04-03T09:39:41.926Z</time>
      </trkpt>
      <trkpt lat="47.31562" lon="-0.22513">
        <ele>76.2</ele>
        <time>2011-04-03T09:39:43Z</time>
        <extensions>
          <type>
            <highway>track</highway>
            <surface>dirt</surface>
            </type>
        </extensions>
      </trkpt>
      <trkpt lat="47.31558" lon="-0.22509">
        <ele>76</ele>
        <time>2011-04-03T09:39:43.734Z</time>
      </trkpt>
      <trkpt lat="47.31554" lon="-0.22505">
        <ele>75.7</ele>
        <time>2011-04-03T09:39:44.468Z</time>
      </trkpt>
      <trkpt lat="47.3155" lon="-0.225">
        <ele>75.6</ele>
        <time>2011-04-03T09:39:45.265Z</time>
      </trkpt>
      <trkpt lat="47.31546" lon="-0.22496">
        <ele>75.4</ele>
        <time>2011-04-03T09:39:46Z</time>
        <extensions>
          <type>
            <highway>track</highway>
            <surface>dirt</surface>
            </type>
        </extensions>
      </trkpt>
      <trkpt lat="47.31543" lon="-0.22488">
        <ele>75.3</ele>
        <time>2011-04-03T09:39:47.331Z</time>
      </trkpt>
      <trkpt lat="47.31539" lon="-0.2248">
        <ele>75.1</ele>
        <time>2011-04-03T09:39:48.778Z</time>
      </trkpt>
      <trkpt lat="47.31536" lon="-0.22472">
        <ele>74.9</ele>
        <time>2011-04-03T09:39:50.109Z</time>
      </trkpt>
      <trkpt lat="47.31533" lon="-0.22464">
        <ele>74.6</ele>
        <time>2011-04-03T09:39:51.440Z</time>
      </trkpt>
      <trkpt lat="47.31529" lon="-0.22456">
        <ele>74.2</ele>
        <time>2011-04-03T09:39:52.888Z</time>
      </trkpt>
      <trkpt lat="47.31526" lon="-0.22448">
        <ele>74</ele>
        <time>2011-04-03T09:39:54.219Z</time>
      </trkpt>
      <trkpt lat="47.31522" lon="-0.2244">
        <ele>74.3</ele>
        <time>2011-04-03T09:39:55.667Z</time>
      </trkpt>
      <trkpt lat="47.31519" lon="-0.22432">
        <ele>74.8</ele>
        <time>2011-04-03T09:39:57Z</time>
        <extensions>
          <type>
            <highway>track</highway>
            <surface>dirt</surface>
            </type>
        </extensions>
      </trkpt>
      <trkpt lat="47.31514" lon="-0.22426">
        <ele>75</ele>
        <time>2011-04-03T09:39:58.499Z</time>
      </trkpt>
      <trkpt lat="47.31509" lon="-0.2242">
        <ele>75.2</ele>
        <time>2011-04-03T09:40:00Z</time>
        <extensions>
          <type>
            <highway>track</highway>
            <surface>dirt</surface>
            </type>
        </extensions>
      </trkpt>
      <trkpt lat="47.31503" lon="-0.22418">
        <ele>75.1</ele>
        <time>2011-04-03T09:40:01.512Z</time>
      </trkpt>
      <trkpt lat="47.31496" lon="-0.22415">
        <ele>74.9</ele>
        <time>2011-04-03T09:40:03.304Z</time>
      </trkpt>
      <trkpt lat="47.3149" lon="-0.22413">
        <ele>74.8</ele>
        <time>2011-04-03T09:40:04.816Z</time>
      </trkpt>
      <trkpt lat="47.31484" lon="-0.2241">
        <ele>74.6</ele>
        <time>2011-04-03T09:40:06.374Z</time>
      </trkpt>
      <trkpt lat="47.31477" lon="-0.22408">
        <ele>74.5</ele>
        <time>2011-04-03T09:40:08.127Z</time>
      </trkpt>
      <trkpt lat="47.31471" lon="-0.22405">
        <ele>74.4</ele>
        <time>2011-04-03T09:40:09.685Z</time>
      </trkpt>
      <trkpt lat="47.31464" lon="-0.22403">
        <ele>74.5</ele>
        <time>2011-04-03T09:40:11.438Z</time>
      </trkpt>
      <trkpt lat="47.31458" lon="-0.224">
        <ele>74.6</ele>
        <time>2011-04-03T09:40:12.996Z</time>
      </trkpt>
      <trkpt lat="47.31452" lon="-0.22398">
        <ele>74.7</ele>
        <time>2011-04-03T09:40:14.509Z</time>
      </trkpt>
      <trkpt lat="47.31445" lon="-0.22395">
        <ele>74.8</ele>
        <time>2011-04-03T09:40:16.302Z</time>
      </trkpt>
      <trkpt lat="47.31439" lon="-0.22393">
        <ele>74.9</ele>
        <time>2011-04-03T09:40:17.815Z</time>
      </trkpt>
      <trkpt lat="47.31433" lon="-0.2239">
        <ele>75</ele>
        <time>2011-04-03T09:40:19.373Z</time>
      </trkpt>
      <trkpt lat="47.31426" lon="-0.22388">
        <ele>75.1</ele>
        <time>2011-04-03T09:40:21.127Z</time>
      </trkpt>
      <trkpt lat="47.3142" lon="-0.22385">
        <ele>75.3</ele>
        <time>2011-04-03T09:40:22.686Z</time>
      </trkpt>
      <trkpt lat="47.31413" lon="-0.22383">
        <ele>75.6</ele>
        <time>2011-04-03T09:40:24.440Z</time>
      </trkpt>
      <trkpt lat="47.31407" lon="-0.2238">
        <ele>75.9</ele>
        <time>2011-04-03T09:40:26Z</time>
        <extensions>
          <type>
            <highway>track</highway>
            <surface>dirt</surface>
            </type>
        </extensions>
      </trkpt>
      <trkpt lat="47.31399" lon="-0.22375">
        <ele>76.3</ele>
        <time>2011-04-03T09:40:28.459Z</time>
      </trkpt>
      <trkpt lat="47.31391" lon="-0.22369">
        <ele>76.7</ele>
        <time>2011-04-03T09:40:31Z</time>
        <extensions>
          <type>
            <highway>track</highway>
            <surface>dirt</surface>
            </type>
        </extensions>
      </trkpt>
      <trkpt lat="47.31387" lon="-0.22365">
        <ele>76.9</ele>
        <time>2011-04-03T09:40:32.464Z</time>
      </trkpt>
      <trkpt lat="47.31383" lon="-0.2236">
        <ele>77.2</ele>
        <time>2011-04-03T09:40:34.053Z</time>
      </trkpt>
      <trkpt lat="47.31379" lon="-0.22356">
        <ele>77.5</ele>
        <time>2011-04-03T09:40:35.518Z</time>
      </trkpt>
      <trkpt lat="47.31376" lon="-0.22351">
        <ele>77.8</ele>
        <time>2011-04-03T09:40:36.890Z</time>
      </trkpt>
      <trkpt lat="47.31372" lon="-0.22347">
        <ele>78.1</ele>
        <time>2011-04-03T09:40:38.355Z</time>
      </trkpt>
      <trkpt lat="47.31368" lon="-0.22342">
        <ele>78.5</ele>
        <time>2011-04-03T09:40:39.944Z</time>
      </trkpt>
      <trkpt lat="47.31364" lon="-0.22338">
        <ele>78.7</ele>
        <time>2011-04-03T09:40:41.409Z</time>
      </trkpt>
      <trkpt lat="47.3136" lon="-0.22333">
        <ele>78.9</ele>
        <time>2011-04-03T09:40:43Z</time>
        <extensions>
          <type>
            <highway>track</highway>
            <surface>dirt</surface>
            </type>
        </extensions>
      </trkpt>
      <trkpt lat="47.31352" lon="-0.22328">
        <ele>78.5</ele>
        <time>2011-04-03T09:40:45.231Z</time>
      </trkpt>
      <trkpt lat="47.31344" lon="-0.22323">
        <ele>78.2</ele>
        <time>2011-04-03T09:40:47.462Z</time>
      </trkpt>
      <trkpt lat="47.31336" lon="-0.22317">
        <ele>78</ele>
        <time>2011-04-03T09:40:49.767Z</time>
      </trkpt>
      <trkpt lat="47.31328" lon="-0.22312">
        <ele>78</ele>
        <time>2011-04-03T09:40:52Z</time>
        <extensions>
          <type>
            <highway>track</highway>
            <surface>dirt</surface>
            </type>
        </extensions>
      </trkpt>
      <trkpt lat="47.31325" lon="-0.22307">
        <ele>78</ele>
        <time>2011-04-03T09:40:53.127Z</time>
      </trkpt>
      <trkpt lat="47.31321" lon="-0.22302">
        <ele>77.9</ele>
        <time>2011-04-03T09:40:54.433Z</time>
      </trkpt>
      <trkpt lat="47.31318" lon="-0.22296">
        <ele>77.8</ele>
        <time>2011-04-03T09:40:55.692Z</time>
      </trkpt>
      <trkpt lat="47.31314" lon="-0.22291">
        <ele>77.6</ele>
        <time>2011-04-03T09:40:57Z</time>
        <extensions>
          <type>
            <highway>track</highway>
            <surface>dirt</surface>
            </type>
        </extensions>
      </trkpt>
      <trkpt lat="47.31314" lon="-0.22282">
        <ele>77.4</ele>
        <time>2011-04-03T09:40:58.413Z</time>
      </trkpt>
      <trkpt lat="47.31313" lon="-0.22272">
        <ele>77.3</ele>
        <time>2011-04-03T09:41:00Z</time>
        <extensions>
          <type>
            <highway>track</highway>
            <surface>undefined</surface>
            </type>
        </extensions>
      </trkpt>
      <trkpt lat="47.31314" lon="-0.22264">
        <ele>77.3</ele>
        <time>2011-04-03T09:41:01.465Z</time>
      </trkpt>
      <trkpt lat="47.31315" lon="-0.22257">
        <ele>77.3</ele>
        <time>2011-04-03T09:41:02.754Z</time>
      </trkpt>
      <trkpt lat="47.31316" lon="-0.22249">
        <ele>77.4</ele>
        <time>2011-04-03T09:41:04.219Z</time>
      </trkpt>
      <trkpt lat="47.31317" lon="-0.22242">
        <ele>77.4</ele>
        <time>2011-04-03T09:41:05.508Z</time>
      </trkpt>
      <trkpt lat="47.31319" lon="-0.22234">
        <ele>77.5</ele>
        <time>2011-04-03T09:41:07.044Z</time>
      </trkpt>
      <trkpt lat="47.3132" lon="-0.22226">
        <ele>77.5</ele>
        <time>2011-04-03T09:41:08.510Z</time>
      </trkpt>
      <trkpt lat="47.31321" lon="-0.22219">
        <ele>77.5</ele>
        <time>2011-04-03T09:41:09.799Z</time>
      </trkpt>
      <trkpt lat="47.31322" lon="-0.22211">
        <ele>77.3</ele>
        <time>2011-04-03T09:41:11.265Z</time>
      </trkpt>
      <trkpt lat="47.31323" lon="-0.22203">
        <ele>77.2</ele>
        <time>2011-04-03T09:41:12.731Z</time>
      </trkpt>
      <trkpt lat="47.31324" lon="-0.22196">
        <ele>77</ele>
        <time>2011-04-03T09:41:14.020Z</time>
      </trkpt>
      <trkpt lat="47.31325" lon="-0.22188">
        <ele>77.2</ele>
        <time>2011-04-03T09:41:15.486Z</time>
      </trkpt>
      <trkpt lat="47.31326" lon="-0.22181">
        <ele>77.4</ele>
        <time>2011-04-03T09:41:16.775Z</time>
      </trkpt>
      <trkpt lat="47.31327" lon="-0.22173">
        <ele>77.6</ele>
        <time>2011-04-03T09:41:18.241Z</time>
      </trkpt>
      <trkpt lat="47.31328" lon="-0.22165">
        <ele>77.8</ele>
        <time>2011-04-03T09:41:19.707Z</time>
      </trkpt>
      <trkpt lat="47.31329" lon="-0.22158">
        <ele>77.9</ele>
        <time>2011-04-03T09:41:20.996Z</time>
      </trkpt>
      <trkpt lat="47.31331" lon="-0.2215">
        <ele>77.9</ele>
        <time>2011-04-03T09:41:22.532Z</time>
      </trkpt>
      <trkpt lat="47.31332" lon="-0.22142">
        <ele>77.9</ele>
        <time>2011-04-03T09:41:23.998Z</time>
      </trkpt>
      <trkpt lat="47.31333" lon="-0.22135">
        <ele>78</ele>
        <time>2011-04-03T09:41:25.287Z</time>
      </trkpt>
      <trkpt lat="47.31334" lon="-0.22127">
        <ele>78</ele>
        <time>2011-04-03T09:41:26.753Z</time>
      </trkpt>
      <trkpt lat="47.31335" lon="-0.2212">
        <ele>78</ele>
        <time>2011-04-03T09:41:28.042Z</time>
      </trkpt>
      <trkpt lat="47.31336" lon="-0.22112">
        <ele>78.1</ele>
        <time>2011-04-03T09:41:29.508Z</time>
      </trkpt>
      <trkpt lat="47.31337" lon="-0.22104">
        <ele>78.3</ele>
        <time>2011-04-03T09:41:30.974Z</time>
      </trkpt>
      <trkpt lat="47.31338" lon="-0.22097">
        <ele>78.6</ele>
        <time>2011-04-03T09:41:32.263Z</time>
      </trkpt>
      <trkpt lat="47.31339" lon="-0.22089">
        <ele>78.8</ele>
        <time>2011-04-03T09:41:33.729Z</time>
      </trkpt>
      <trkpt lat="47.3134" lon="-0.22081">
        <ele>79.1</ele>
        <time>2011-04-03T09:41:35.195Z</time>
      </trkpt>
      <trkpt lat="47.31341" lon="-0.22074">
        <ele>79.3</ele>
        <time>2011-04-03T09:41:36.484Z</time>
      </trkpt>
      <trkpt lat="47.31343" lon="-0.22066">
        <ele>79.6</ele>
        <time>2011-04-03T09:41:38.021Z</time>
      </trkpt>
      <trkpt lat="47.31344" lon="-0.22059">
        <ele>79.9</ele>
        <time>2011-04-03T09:41:39.310Z</time>
      </trkpt>
      <trkpt lat="47.31345" lon="-0.22051">
        <ele>80.1</ele>
        <time>2011-04-03T09:41:40.776Z</time>
      </trkpt>
      <trkpt lat="47.31346" lon="-0.22043">
        <ele>80.2</ele>
        <time>2011-04-03T09:41:42.242Z</time>
      </trkpt>
      <trkpt lat="47.31347" lon="-0.22036">
        <ele>80.4</ele>
        <time>2011-04-03T09:41:43.532Z</time>
      </trkpt>
      <trkpt lat="47.31348" lon="-0.22028">
        <ele>80.5</ele>
        <time>2011-04-03T09:41:45Z</time>
        <extensions>
          <type>
            <highway>track</highway>
            <surface>undefined</surface>
            </type>
        </extensions>
      </trkpt>
      <trkpt lat="47.31345" lon="-0.2202">
        <ele>80.6</ele>
        <time>2011-04-03T09:41:47.296Z</time>
      </trkpt>
      <trkpt lat="47.31341" lon="-0.22011">
        <ele>80.7</ele>
        <time>2011-04-03T09:41:50Z</time>
        <extensions>
          <type>
            <highway>track</highway>
            <surface>undefined</surface>
            </type>
        </extensions>
      </trkpt>
      <trkpt lat="47.31341" lon="-0.22002">
        <ele>80.9</ele>
        <time>2011-04-03T09:41:52.483Z</time>
      </trkpt>
      <trkpt lat="47.3134" lon="-0.21993">
        <ele>81</ele>
        <time>2011-04-03T09:41:55Z</time>
        <extensions>
          <type>
            <highway>track</highway>
            <surface>undefined</surface>
            </type>
        </extensions>
      </trkpt>
      <trkpt lat="47.31343" lon="-0.21987">
        <ele>81</ele>
        <time>2011-04-03T09:41:56.876Z</time>
      </trkpt>
      <trkpt lat="47.31345" lon="-0.21982">
        <ele>81</ele>
        <time>2011-04-03T09:41:58.337Z</time>
      </trkpt>
      <trkpt lat="47.31348" lon="-0.21976">
        <ele>81</ele>
        <time>2011-04-03T09:42:00.213Z</time>
      </trkpt>
      <trkpt lat="47.3135" lon="-0.21971">
        <ele>81</ele>
        <time>2011-04-03T09:42:01.674Z</time>
      </trkpt>
      <trkpt lat="47.31353" lon="-0.21965">
        <ele>81.2</ele>
        <time>2011-04-03T09:42:03.550Z</time>
      </trkpt>
      <trkpt lat="47.31355" lon="-0.2196">
        <ele>81.4</ele>
        <time>2011-04-03T09:42:05.011Z</time>
      </trkpt>
      <trkpt lat="47.31358" lon="-0.21954">
        <ele>81.6</ele>
        <time>2011-04-03T09:42:06.887Z</time>
      </trkpt>
      <trkpt lat="47.3136" lon="-0.21949">
        <ele>81.8</ele>
        <time>2011-04-03T09:42:08.348Z</time>
      </trkpt>
      <trkpt lat="47.31363" lon="-0.21943">
        <ele>82</ele>
        <time>2011-04-03T09:42:10.224Z</time>
      </trkpt>
      <trkpt lat="47.31365" lon="-0.21937">
        <ele>82</ele>
        <time>2011-04-03T09:42:11.907Z</time>
      </trkpt>
      <trkpt lat="47.31368" lon="-0.21932">
        <ele>82</ele>
        <time>2011-04-03T09:42:13.588Z</time>
      </trkpt>
      <trkpt lat="47.3137" lon="-0.21926">
        <ele>82</ele>
        <time>2011-04-03T09:42:15.271Z</time>
      </trkpt>
      <trkpt lat="47.31373" lon="-0.21921">
        <ele>82</ele>
        <time>2011-04-03T09:42:16.952Z</time>
      </trkpt>
      <trkpt lat="47.31375" lon="-0.21915">
        <ele>82</ele>
        <time>2011-04-03T09:42:18.635Z</time>
      </trkpt>
      <trkpt lat="47.31378" lon="-0.2191">
        <ele>82.2</ele>
        <time>2011-04-03T09:42:20.316Z</time>
      </trkpt>
      <trkpt lat="47.3138" lon="-0.21904">
        <ele>82.3</ele>
        <time>2011-04-03T09:42:22Z</time>
        <extensions>
          <type>
            <highway>track</highway>
            <surface>undefined</surface>
            </type>
        </extensions>
      </trkpt>
      <trkpt lat="47.31381" lon="-0.21897">
        <ele>82.5</ele>
        <time>2011-04-03T09:42:25.654Z</time>
      </trkpt>
      <trkpt lat="47.31382" lon="-0.2189">
        <ele>82.7</ele>
        <time>2011-04-03T09:42:29.308Z</time>
      </trkpt>
      <trkpt lat="47.31383" lon="-0.21883">
        <ele>82.8</ele>
        <time>2011-04-03T09:42:32.963Z</time>
      </trkpt>
      <trkpt lat="47.31385" lon="-0.21877">
        <ele>82.9</ele>
        <time>2011-04-03T09:42:36.379Z</time>
      </trkpt>
      <trkpt lat="47.31386" lon="-0.2187">
        <ele>83</ele>
        <time>2011-04-03T09:42:40.034Z</time>
      </trkpt>
      <trkpt lat="47.31387" lon="-0.21863">
        <ele>83</ele>
        <time>2011-04-03T09:42:43.689Z</time>
      </trkpt>
      <trkpt lat="47.31388" lon="-0.21856">
        <ele>83</ele>
        <time>2011-04-03T09:42:47.344Z</time>
      </trkpt>
      <trkpt lat="47.31389" lon="-0.21849">
        <ele>83</ele>
        <time>2011-04-03T09:42:50.999Z</time>
      </trkpt>
      <trkpt lat="47.3139" lon="-0.21842">
        <ele>83</ele>
        <time>2011-04-03T09:42:54.654Z</time>
      </trkpt>
      <trkpt lat="47.31391" lon="-0.21835">
        <ele>83</ele>
        <time>2011-04-03T09:42:58.308Z</time>
      </trkpt>
      <trkpt lat="47.31392" lon="-0.21828">
        <ele>83</ele>
        <time>2011-04-03T09:43:01.963Z</time>
      </trkpt>
      <trkpt lat="47.31394" lon="-0.21822">
        <ele>83</ele>
        <time>2011-04-03T09:43:05.379Z</time>
      </trkpt>
      <trkpt lat="47.31395" lon="-0.21815">
        <ele>83</ele>
        <time>2011-04-03T09:43:09.034Z</time>
      </trkpt>
      <trkpt lat="47.31396" lon="-0.21808">
        <ele>83</ele>
        <time>2011-04-03T09:43:12.689Z</time>
      </trkpt>
      <trkpt lat="47.31397" lon="-0.21801">
        <ele>83</ele>
        <time>2011-04-03T09:43:16.344Z</time>
      </trkpt>
      <trkpt lat="47.31398" lon="-0.21794">
        <ele>83</ele>
        <time>2011-04-03T09:43:20Z</time>
        <extensions>
          <type>
            <highway>track</highway>
            <surface>undefined</surface>
            </type>
        </extensions>
      </trkpt>
      <trkpt lat="47.31398" lon="-0.21786">
        <ele>83</ele>
        <time>2011-04-03T09:43:21.463Z</time>
      </trkpt>
      <trkpt lat="47.31399" lon="-0.21778">
        <ele>83</ele>
        <time>2011-04-03T09:43:22.951Z</time>
      </trkpt>
      <trkpt lat="47.31399" lon="-0.21771">
        <ele>83.1</ele>
        <time>2011-04-03T09:43:24.231Z</time>
      </trkpt>
      <trkpt lat="47.31399" lon="-0.21763">
        <ele>83.2</ele>
        <time>2011-04-03T09:43:25.695Z</time>
      </trkpt>
      <trkpt lat="47.314" lon="-0.21755">
        <ele>83.3</ele>
        <time>2011-04-03T09:43:27.183Z</time>
      </trkpt>
      <trkpt lat="47.314" lon="-0.21747">
        <ele>83.5</ele>
        <time>2011-04-03T09:43:28.647Z</time>
      </trkpt>
      <trkpt lat="47.314" lon="-0.21739">
        <ele>83.6</ele>
        <time>2011-04-03T09:43:30.111Z</time>
      </trkpt>
      <trkpt lat="47.31401" lon="-0.21732">
        <ele>83.8</ele>
        <time>2011-04-03T09:43:31.420Z</time>
      </trkpt>
      <trkpt lat="47.31401" lon="-0.21724">
        <ele>84</ele>
        <time>2011-04-03T09:43:32.884Z</time>
      </trkpt>
      <trkpt lat="47.31401" lon="-0.21716">
        <ele>84</ele>
        <time>2011-04-03T09:43:34.348Z</time>
      </trkpt>
      <trkpt lat="47.31401" lon="-0.21708">
        <ele>84</ele>
        <time>2011-04-03T09:43:35.812Z</time>
      </trkpt>
      <trkpt lat="47.31402" lon="-0.217">
        <ele>84</ele>
        <time>2011-04-03T09:43:37.301Z</time>
      </trkpt>
      <trkpt lat="47.31402" lon="-0.21692">
        <ele>84</ele>
        <time>2011-04-03T09:43:38.765Z</time>
      </trkpt>
      <trkpt lat="47.31402" lon="-0.21685">
        <ele>84</ele>
        <time>2011-04-03T09:43:40.046Z</time>
      </trkpt>
      <trkpt lat="47.31403" lon="-0.21677">
        <ele>84</ele>
        <time>2011-04-03T09:43:41.535Z</time>
      </trkpt>
      <trkpt lat="47.31403" lon="-0.21669">
        <ele>84</ele>
        <time>2011-04-03T09:43:43Z</time>
        <extensions>
          <type>
            <highway>track</highway>
            <surface>undefined</surface>
            </type>
        </extensions>
      </trkpt>
      <trkpt lat="47.31405" lon="-0.21659">
        <ele>84</ele>
        <time>2011-04-03T09:43:45.267Z</time>
      </trkpt>
      <trkpt lat="47.31407" lon="-0.21649">
        <ele>84</ele>
        <time>2011-04-03T09:43:47.534Z</time>
      </trkpt>
      <trkpt lat="47.31408" lon="-0.21639">
        <ele>84</ele>
        <time>2011-04-03T09:43:49.732Z</time>
      </trkpt>
      <trkpt lat="47.3141" lon="-0.21629">
        <ele>84</ele>
        <time>2011-04-03T09:43:52Z</time>
        <extensions>
          <type>
            <highway>track</highway>
            <surface>undefined</surface>
            </type>
        </extensions>
      </trkpt>
      <trkpt lat="47.31413" lon="-0.21635">
        <ele>84</ele>
        <time>2011-04-03T09:43:53.821Z</time>
      </trkpt>
      <trkpt lat="47.31416" lon="-0.2164">
        <ele>84</ele>
        <time>2011-04-03T09:43:55.452Z</time>
      </trkpt>
      <trkpt lat="47.31419" lon="-0.21646">
        <ele>84</ele>
        <time>2011-04-03T09:43:57.273Z</time>
      </trkpt>
      <trkpt lat="47.31422" lon="-0.21652">
        <ele>84</ele>
        <time>2011-04-03T09:43:59.094Z</time>
      </trkpt>
      <trkpt lat="47.31425" lon="-0.21657">
        <ele>84</ele>
        <time>2011-04-03T09:44:00.725Z</time>
      </trkpt>
      <trkpt lat="47.31428" lon="-0.21663">
        <ele>84</ele>
        <time>2011-04-03T09:44:02.546Z</time>
      </trkpt>
      <trkpt lat="47.31431" lon="-0.21668">
        <ele>84</ele>
        <time>2011-04-03T09:44:04.177Z</time>
      </trkpt>
      <trkpt lat="47.31434" lon="-0.21674">
        <ele>84</ele>
        <time>2011-04-03T09:44:06Z</time>
        <extensions>
          <type>
            <highway>track</highway>
            <surface>undefined</surface>
            </type>
        </extensions>
      </trkpt>
      <trkpt lat="47.31441" lon="-0.21676">
        <ele>84</ele>
        <time>2011-04-03T09:44:08.158Z</time>
      </trkpt>
      <trkpt lat="47.31449" lon="-0.21679">
        <ele>84</ele>
        <time>2011-04-03T09:44:10.656Z</time>
      </trkpt>
      <trkpt lat="47.31456" lon="-0.21681">
        <ele>84</ele>
        <time>2011-04-03T09:44:12.814Z</time>
      </trkpt>
      <trkpt lat="47.31463" lon="-0.21684">
        <ele>84</ele>
        <time>2011-04-03T09:44:15.020Z</time>
      </trkpt>
      <trkpt lat="47.3147" lon="-0.21686">
        <ele>84</ele>
        <time>2011-04-03T09:44:17.178Z</time>
      </trkpt>
      <trkpt lat="47.31478" lon="-0.21688">
        <ele>84</ele>
        <time>2011-04-03T09:44:19.634Z</time>
      </trkpt>
      <trkpt lat="47.31485" lon="-0.21691">
        <ele>83.9</ele>
        <time>2011-04-03T09:44:21.841Z</time>
      </trkpt>
      <trkpt lat="47.31492" lon="-0.21693">
        <ele>84</ele>
        <time>2011-04-03T09:44:24Z</time>
        <extensions>
          <type>
            <highway>track</highway>
            <surface>undefined</surface>
            </type>
        </extensions>
      </trkpt>
      <trkpt lat="47.31496" lon="-0.21697">
        <ele>84</ele>
        <time>2011-04-03T09:44:25.256Z</time>
      </trkpt>
      <trkpt lat="47.31501" lon="-0.217">
        <ele>84</ele>
        <time>2011-04-03T09:44:26.659Z</time>
      </trkpt>
      <trkpt lat="47.31505" lon="-0.21704">
        <ele>83.9</ele>
        <time>2011-04-03T09:44:27.915Z</time>
      </trkpt>
      <trkpt lat="47.3151" lon="-0.21707">
        <ele>83.8</ele>
        <time>2011-04-03T09:44:29.318Z</time>
      </trkpt>
      <trkpt lat="47.31514" lon="-0.21711">
        <ele>83.8</ele>
        <time>2011-04-03T09:44:30.574Z</time>
      </trkpt>
      <trkpt lat="47.31519" lon="-0.21714">
        <ele>83.8</ele>
        <time>2011-04-03T09:44:31.977Z</time>
      </trkpt>
      <trkpt lat="47.31523" lon="-0.21718">
        <ele>83.9</ele>
        <time>2011-04-03T09:44:33.233Z</time>
      </trkpt>
      <trkpt lat="47.31528" lon="-0.21721">
        <ele>84</ele>
        <time>2011-04-03T09:44:34.636Z</time>
      </trkpt>
      <trkpt lat="47.31532" lon="-0.21725">
        <ele>83.9</ele>
        <time>2011-04-03T09:44:35.892Z</time>
      </trkpt>
      <trkpt lat="47.31536" lon="-0.21728">
        <ele>83.7</ele>
        <time>2011-04-03T09:44:37.059Z</time>
      </trkpt>
      <trkpt lat="47.31541" lon="-0.21732">
        <ele>83.5</ele>
        <time>2011-04-03T09:44:38.538Z</time>
      </trkpt>
      <trkpt lat="47.31545" lon="-0.21735">
        <ele>83.4</ele>
        <time>2011-04-03T09:44:39.705Z</time>
      </trkpt>
      <trkpt lat="47.3155" lon="-0.21739">
        <ele>83.2</ele>
        <time>2011-04-03T09:44:41.184Z</time>
      </trkpt>
      <trkpt lat="47.31554" lon="-0.21742">
        <ele>83.1</ele>
        <time>2011-04-03T09:44:42.351Z</time>
      </trkpt>
      <trkpt lat="47.31559" lon="-0.21746">
        <ele>83</ele>
        <time>2011-04-03T09:44:43.831Z</time>
      </trkpt>
      <trkpt lat="47.31563" lon="-0.21749">
        <ele>83</ele>
        <time>2011-04-03T09:44:45Z</time>
        <extensions>
          <type>
            <highway>track</highway>
            <surface>undefined</surface>
            </type>
        </extensions>
      </trkpt>
      <trkpt lat="47.3157" lon="-0.21752">
        <ele>83</ele>
        <time>2011-04-03T09:44:47.067Z</time>
      </trkpt>
      <trkpt lat="47.31577" lon="-0.21755">
        <ele>83</ele>
        <time>2011-04-03T09:44:49.134Z</time>
      </trkpt>
      <trkpt lat="47.31583" lon="-0.21758">
        <ele>83</ele>
        <time>2011-04-03T09:44:50.931Z</time>
      </trkpt>
      <trkpt lat="47.3159" lon="-0.21761">
        <ele>83</ele>
        <time>2011-04-03T09:44:53Z</time>
        <extensions>
          <type>
            <highway>track</highway>
            <surface>undefined</surface>
            </type>
        </extensions>
      </trkpt>
      <trkpt lat="47.31597" lon="-0.21757">
        <ele>83</ele>
        <time>2011-04-03T09:44:55.250Z</time>
      </trkpt>
      <trkpt lat="47.31604" lon="-0.21753">
        <ele>83</ele>
        <time>2011-04-03T09:44:57.500Z</time>
      </trkpt>
      <trkpt lat="47.31611" lon="-0.21749">
        <ele>83</ele>
        <time>2011-04-03T09:44:59.750Z</time>
      </trkpt>
      <trkpt lat="47.31618" lon="-0.21745">
        <ele>83</ele>
        <time>2011-04-03T09:45:02Z</time>
        <extensions>
          <type>
            <highway>track</highway>
            <surface>undefined</surface>
            </type>
        </extensions>
      </trkpt>
      <trkpt lat="47.31623" lon="-0.21749">
        <ele>83</ele>
        <time>2011-04-03T09:45:03.559Z</time>
      </trkpt>
      <trkpt lat="47.31628" lon="-0.21754">
        <ele>83.1</ele>
        <time>2011-04-03T09:45:05.215Z</time>
      </trkpt>
      <trkpt lat="47.31633" lon="-0.21758">
        <ele>83.2</ele>
        <time>2011-04-03T09:45:06.774Z</time>
      </trkpt>
      <trkpt lat="47.31639" lon="-0.21763">
        <ele>83.4</ele>
        <time>2011-04-03T09:45:08.663Z</time>
      </trkpt>
      <trkpt lat="47.31644" lon="-0.21767">
        <ele>83.5</ele>
        <time>2011-04-03T09:45:10.223Z</time>
      </trkpt>
      <trkpt lat="47.31649" lon="-0.21771">
        <ele>83.5</ele>
        <time>2011-04-03T09:45:11.783Z</time>
      </trkpt>
      <trkpt lat="47.31654" lon="-0.21776">
        <ele>83.4</ele>
        <time>2011-04-03T09:45:13.439Z</time>
      </trkpt>
      <trkpt lat="47.31659" lon="-0.2178">
        <ele>83.3</ele>
        <time>2011-04-03T09:45:15Z</time>
        <extensions>
          <type>
            <highway>track</highway>
            <surface>undefined</surface>
            </type>
        </extensions>
      </trkpt>
      <trkpt lat="47.31663" lon="-0.21785">
        <ele>83.1</ele>
        <time>2011-04-03T09:45:16.986Z</time>
      </trkpt>
      <trkpt lat="47.31668" lon="-0.21791">
        <ele>83</ele>
        <time>2011-04-03T09:45:19.428Z</time>
      </trkpt>
      <trkpt lat="47.31672" lon="-0.21796">
        <ele>83</ele>
        <time>2011-04-03T09:45:21.414Z</time>
      </trkpt>
      <trkpt lat="47.31676" lon="-0.21802">
        <ele>83</ele>
        <time>2011-04-03T09:45:23.575Z</time>
      </trkpt>
      <trkpt lat="47.3168" lon="-0.21807">
        <ele>83</ele>
        <time>2011-04-03T09:45:25.561Z</time>
      </trkpt>
      <trkpt lat="47.31685" lon="-0.21812">
        <ele>83</ele>
        <time>2011-04-03T09:45:27.850Z</time>
      </trkpt>
      <trkpt lat="47.31689" lon="-0.21818">
        <ele>83</ele>
        <time>2011-04-03T09:45:30.012Z</time>
      </trkpt>
      <trkpt lat="47.31693" lon="-0.21823">
        <ele>83</ele>
        <time>2011-04-03T09:45:32Z</time>
        <extensions>
          <type>
            <highway>track</highway>
            <surface>undefined</surface>
            </type>
        </extensions>
      </trkpt>
      <trkpt lat="47.31701" lon="-0.21827">
        <ele>83</ele>
        <time>2011-04-03T09:45:34.353Z</time>
      </trkpt>
      <trkpt lat="47.31708" lon="-0.21832">
        <ele>83</ele>
        <time>2011-04-03T09:45:36.520Z</time>
      </trkpt>
      <trkpt lat="47.31716" lon="-0.21836">
        <ele>83</ele>
        <time>2011-04-03T09:45:38.873Z</time>
      </trkpt>
      <trkpt lat="47.31723" lon="-0.21841">
        <ele>83</ele>
        <time>2011-04-03T09:45:41.040Z</time>
      </trkpt>
      <trkpt lat="47.31731" lon="-0.21845">
        <ele>83</ele>
        <time>2011-04-03T09:45:43.394Z</time>
      </trkpt>
      <trkpt lat="47.31738" lon="-0.21849">
        <ele>83</ele>
        <time>2011-04-03T09:45:45.486Z</time>
      </trkpt>
      <trkpt lat="47.31746" lon="-0.21854">
        <ele>83</ele>
        <time>2011-04-03T09:45:47.907Z</time>
      </trkpt>
      <trkpt lat="47.31753" lon="-0.21858">
        <ele>83</ele>
        <time>2011-04-03T09:45:50Z</time>
        <extensions>
          <type>
            <highway>track</highway>
            <surface>undefined</surface>
            </type>
        </extensions>
      </trkpt>
      <trkpt lat="47.3176" lon="-0.2186">
        <ele>83</ele>
        <time>2011-04-03T09:45:51.819Z</time>
      </trkpt>
      <trkpt lat="47.31767" lon="-0.21862">
        <ele>83</ele>
        <time>2011-04-03T09:45:53.638Z</time>
      </trkpt>
      <trkpt lat="47.31773" lon="-0.21863">
        <ele>83</ele>
        <time>2011-04-03T09:45:55.179Z</time>
      </trkpt>
      <trkpt lat="47.3178" lon="-0.21865">
        <ele>82.9</ele>
        <time>2011-04-03T09:45:57Z</time>
        <extensions>
          <type>
            <highway>track</highway>
            <surface>undefined</surface>
            </type>
        </extensions>
      </trkpt>
      <trkpt lat="47.31787" lon="-0.21869">
        <ele>82.7</ele>
        <time>2011-04-03T09:45:58.788Z</time>
      </trkpt>
      <trkpt lat="47.31794" lon="-0.21874">
        <ele>82.4</ele>
        <time>2011-04-03T09:46:00.641Z</time>
      </trkpt>
      <trkpt lat="47.318" lon="-0.21878">
        <ele>82.2</ele>
        <time>2011-04-03T09:46:02.210Z</time>
      </trkpt>
      <trkpt lat="47.31807" lon="-0.21882">
        <ele>82</ele>
        <time>2011-04-03T09:46:04Z</time>
        <extensions>
          <type>
            <highway>track</highway>
            <surface>undefined</surface>
            </type>
        </extensions>
      </trkpt>
      <trkpt lat="47.31813" lon="-0.21883">
        <ele>81.8</ele>
        <time>2011-04-03T09:46:05.493Z</time>
      </trkpt>
      <trkpt lat="47.31819" lon="-0.21885">
        <ele>81.6</ele>
        <time>2011-04-03T09:46:07.013Z</time>
      </trkpt>
      <trkpt lat="47.31825" lon="-0.21886">
        <ele>81.4</ele>
        <time>2011-04-03T09:46:08.506Z</time>
      </trkpt>
      <trkpt lat="47.31831" lon="-0.21887">
        <ele>81.1</ele>
        <time>2011-04-03T09:46:10Z</time>
        <extensions>
          <type>
            <highway>track</highway>
            <surface>undefined</surface>
            </type>
        </extensions>
      </trkpt>
      <trkpt lat="47.31836" lon="-0.21887">
        <ele>81.1</ele>
        <time>2011-04-03T09:46:11.858Z</time>
      </trkpt>
      <trkpt lat="47.31842" lon="-0.21887">
        <ele>81.1</ele>
        <time>2011-04-03T09:46:14.088Z</time>
      </trkpt>
      <trkpt lat="47.31847" lon="-0.21887">
        <ele>81</ele>
        <time>2011-04-03T09:46:15.946Z</time>
      </trkpt>
      <trkpt lat="47.31853" lon="-0.21887">
        <ele>81</ele>
        <time>2011-04-03T09:46:18.176Z</time>
      </trkpt>
      <trkpt lat="47.31858" lon="-0.21886">
        <ele>81</ele>
        <time>2011-04-03T09:46:20.051Z</time>
      </trkpt>
      <trkpt lat="47.31863" lon="-0.21886">
        <ele>80.9</ele>
        <time>2011-04-03T09:46:21.910Z</time>
      </trkpt>
      <trkpt lat="47.31869" lon="-0.21886">
        <ele>80.8</ele>
        <time>2011-04-03T09:46:24.140Z</time>
      </trkpt>
      <trkpt lat="47.31874" lon="-0.21886">
        <ele>80.6</ele>
        <time>2011-04-03T09:46:26Z</time>
        <extensions>
          <type>
            <highway>track</highway>
            <surface>undefined</surface>
            </type>
        </extensions>
      </trkpt>
      <trkpt lat="47.31879" lon="-0.21889">
        <ele>80.3</ele>
        <time>2011-04-03T09:46:27.411Z</time>
      </trkpt>
      <trkpt lat="47.31885" lon="-0.21893">
        <ele>80.1</ele>
        <time>2011-04-03T09:46:29.132Z</time>
      </trkpt>
      <trkpt lat="47.3189" lon="-0.21896">
        <ele>80</ele>
        <time>2011-04-03T09:46:30.543Z</time>
      </trkpt>
      <trkpt lat="47.31895" lon="-0.219">
        <ele>79.9</ele>
        <time>2011-04-03T09:46:32.030Z</time>
      </trkpt>
      <trkpt lat="47.319" lon="-0.21903">
        <ele>79.8</ele>
        <time>2011-04-03T09:46:33.442Z</time>
      </trkpt>
      <trkpt lat="47.31906" lon="-0.21906">
        <ele>79.6</ele>
        <time>2011-04-03T09:46:35.099Z</time>
      </trkpt>
      <trkpt lat="47.31911" lon="-0.2191">
        <ele>79.4</ele>
        <time>2011-04-03T09:46:36.587Z</time>
      </trkpt>
      <trkpt lat="47.31916" lon="-0.21913">
        <ele>79.2</ele>
        <time>2011-04-03T09:46:38Z</time>
        <extensions>
          <type>
            <highway>track</highway>
            <surface>undefined</surface>
            </type>
        </extensions>
      </trkpt>
      <trkpt lat="47.31921" lon="-0.21912">
        <ele>79.3</ele>
        <time>2011-04-03T09:46:39.317Z</time>
      </trkpt>
      <trkpt lat="47.31926" lon="-0.21912">
        <ele>79.4</ele>
        <time>2011-04-03T09:46:40.622Z</time>
      </trkpt>
      <trkpt lat="47.3193" lon="-0.21911">
        <ele>79.6</ele>
        <time>2011-04-03T09:46:41.681Z</time>
      </trkpt>
      <trkpt lat="47.31935" lon="-0.2191">
        <ele>79.7</ele>
        <time>2011-04-03T09:46:42.998Z</time>
      </trkpt>
      <trkpt lat="47.3194" lon="-0.21909">
        <ele>79.9</ele>
        <time>2011-04-03T09:46:44.316Z</time>
      </trkpt>
      <trkpt lat="47.31945" lon="-0.21909">
        <ele>80</ele>
        <time>2011-04-03T09:46:45.622Z</time>
      </trkpt>
      <trkpt lat="47.31949" lon="-0.21908">
        <ele>80</ele>
        <time>2011-04-03T09:46:46.681Z</time>
      </trkpt>
      <trkpt lat="47.31954" lon="-0.21907">
        <ele>80</ele>
        <time>2011-04-03T09:46:48Z</time>
        <extensions>
          <type>
            <highway>track</highway>
            <surface>undefined</surface>
            </type>
        </extensions>
      </trkpt>
      <trkpt lat="47.31959" lon="-0.21909">
        <ele>80</ele>
        <time>2011-04-03T09:46:49.266Z</time>
      </trkpt>
      <trkpt lat="47.31964" lon="-0.2191">
        <ele>80</ele>
        <time>2011-04-03T09:46:50.499Z</time>
      </trkpt>
      <trkpt lat="47.31969" lon="-0.21912">
        <ele>80</ele>
        <time>2011-04-03T09:46:51.765Z</time>
      </trkpt>
      <trkpt lat="47.31974" lon="-0.21913">
        <ele>80</ele>
        <time>2011-04-03T09:46:53Z</time>
        <extensions>
          <type>
            <highway>track</highway>
            <surface>undefined</surface>
            </type>
        </extensions>
      </trkpt>
      <trkpt lat="47.31979" lon="-0.21909">
        <ele>80</ele>
        <time>2011-04-03T09:46:55.039Z</time>
      </trkpt>
      <trkpt lat="47.31984" lon="-0.21905">
        <ele>80</ele>
        <time>2011-04-03T09:46:57.079Z</time>
      </trkpt>
      <trkpt lat="47.31988" lon="-0.219">
        <ele>80</ele>
        <time>2011-04-03T09:46:58.959Z</time>
      </trkpt>
      <trkpt lat="47.31993" lon="-0.21896">
        <ele>80</ele>
        <time>2011-04-03T09:47:01Z</time>
        <extensions>
          <type>
            <highway>track</highway>
            <surface>undefined</surface>
            </type>
        </extensions>
      </trkpt>
      <trkpt lat="47.31998" lon="-0.21898">
        <ele>80</ele>
        <time>2011-04-03T09:47:02.326Z</time>
      </trkpt>
      <trkpt lat="47.32002" lon="-0.21901">
        <ele>80</ele>
        <time>2011-04-03T09:47:03.475Z</time>
      </trkpt>
      <trkpt lat="47.32007" lon="-0.21903">
        <ele>80</ele>
        <time>2011-04-03T09:47:04.801Z</time>
      </trkpt>
      <trkpt lat="47.32012" lon="-0.21905">
        <ele>80</ele>
        <time>2011-04-03T09:47:06.127Z</time>
      </trkpt>
      <trkpt lat="47.32016" lon="-0.21907">
        <ele>80</ele>
        <time>2011-04-03T09:47:07.208Z</time>
      </trkpt>
      <trkpt lat="47.32021" lon="-0.2191">
        <ele>80</ele>
        <time>2011-04-03T09:47:08.590Z</time>
      </trkpt>
      <trkpt lat="47.32025" lon="-0.21912">
        <ele>80</ele>
        <time>2011-04-03T09:47:09.672Z</time>
      </trkpt>
      <trkpt lat="47.3203" lon="-0.21914">
        <ele>80</ele>
        <time>2011-04-03T09:47:11Z</time>
        <extensions>
          <type>
            <highway>track</highway>
            <surface>undefined</surface>
            </type>
        </extensions>
      </trkpt>
      <trkpt lat="47.32038" lon="-0.21916">
        <ele>80</ele>
        <time>2011-04-03T09:47:13.010Z</time>
      </trkpt>
      <trkpt lat="47.32046" lon="-0.21917">
        <ele>80</ele>
        <time>2011-04-03T09:47:14.999Z</time>
      </trkpt>
      <trkpt lat="47.32054" lon="-0.21919">
        <ele>80</ele>
        <time>2011-04-03T09:47:17.010Z</time>
      </trkpt>
      <trkpt lat="47.32062" lon="-0.2192">
        <ele>80</ele>
        <time>2011-04-03T09:47:19Z</time>
        <extensions>
          <type>
            <highway>track</highway>
            <surface>undefined</surface>
            </type>
        </extensions>
      </trkpt>
      <trkpt lat="47.32066" lon="-0.21923">
        <ele>79.9</ele>
        <time>2011-04-03T09:47:19.951Z</time>
      </trkpt>
      <trkpt lat="47.32071" lon="-0.21926">
        <ele>79.8</ele>
        <time>2011-04-03T09:47:21.096Z</time>
      </trkpt>
      <trkpt lat="47.32075" lon="-0.21929">
        <ele>79.7</ele>
        <time>2011-04-03T09:47:22.048Z</time>
      </trkpt>
      <trkpt lat="47.32079" lon="-0.21932">
        <ele>79.5</ele>
        <time>2011-04-03T09:47:23Z</time>
        <extensions>
          <type>
            <highway>track</highway>
            <surface>undefined</surface>
            </type>
        </extensions>
      </trkpt>
      <trkpt lat="47.32086" lon="-0.21933">
        <ele>79.4</ele>
        <time>2011-04-03T09:47:24.685Z</time>
      </trkpt>
      <trkpt lat="47.32093" lon="-0.21934">
        <ele>79.4</ele>
        <time>2011-04-03T09:47:26.370Z</time>
      </trkpt>
      <trkpt lat="47.32099" lon="-0.21935">
        <ele>79.4</ele>
        <time>2011-04-03T09:47:27.817Z</time>
      </trkpt>
      <trkpt lat="47.32106" lon="-0.21936">
        <ele>79.3</ele>
        <time>2011-04-03T09:47:29.502Z</time>
      </trkpt>
      <trkpt lat="47.32113" lon="-0.21936">
        <ele>79.3</ele>
        <time>2011-04-03T09:47:31.179Z</time>
      </trkpt>
      <trkpt lat="47.3212" lon="-0.21937">
        <ele>79.3</ele>
        <time>2011-04-03T09:47:32.864Z</time>
      </trkpt>
      <trkpt lat="47.32126" lon="-0.21938">
        <ele>79.2</ele>
        <time>2011-04-03T09:47:34.311Z</time>
      </trkpt>
      <trkpt lat="47.32133" lon="-0.21939">
        <ele>79.2</ele>
        <time>2011-04-03T09:47:35.996Z</time>
      </trkpt>
      <trkpt lat="47.3214" lon="-0.2194">
        <ele>79.2</ele>
        <time>2011-04-03T09:47:37.682Z</time>
      </trkpt>
      <trkpt lat="47.32147" lon="-0.21941">
        <ele>79.1</ele>
        <time>2011-04-03T09:47:39.368Z</time>
      </trkpt>
      <trkpt lat="47.32153" lon="-0.21942">
        <ele>79</ele>
        <time>2011-04-03T09:47:40.815Z</time>
      </trkpt>
      <trkpt lat="47.3216" lon="-0.21943">
        <ele>79</ele>
        <time>2011-04-03T09:47:42.501Z</time>
      </trkpt>
      <trkpt lat="47.32167" lon="-0.21943">
        <ele>79</ele>
        <time>2011-04-03T09:47:44.179Z</time>
      </trkpt>
      <trkpt lat="47.32174" lon="-0.21944">
        <ele>79</ele>
        <time>2011-04-03T09:47:45.865Z</time>
      </trkpt>
      <trkpt lat="47.3218" lon="-0.21945">
        <ele>79</ele>
        <time>2011-04-03T09:47:47.313Z</time>
      </trkpt>
      <trkpt lat="47.32187" lon="-0.21946">
        <ele>79</ele>
        <time>2011-04-03T09:47:49Z</time>
        <extensions>
          <type>
            <highway>track</highway>
            <surface>undefined</surface>
            </type>
        </extensions>
      </trkpt>
      <trkpt lat="47.32196" lon="-0.21943">
        <ele>79</ele>
        <time>2011-04-03T09:47:51.610Z</time>
      </trkpt>
      <trkpt lat="47.32204" lon="-0.21939">
        <ele>78.7</ele>
        <time>2011-04-03T09:47:54Z</time>
        <extensions>
          <type>
            <highway>track</highway>
            <surface>undefined</surface>
            </type>
        </extensions>
      </trkpt>
      <trkpt lat="47.32209" lon="-0.21932">
        <ele>78.7</ele>
        <time>2011-04-03T09:47:55.716Z</time>
      </trkpt>
      <trkpt lat="47.32215" lon="-0.21926">
        <ele>78.8</ele>
        <time>2011-04-03T09:47:57.521Z</time>
      </trkpt>
      <trkpt lat="47.3222" lon="-0.21919">
        <ele>78.9</ele>
        <time>2011-04-03T09:47:59.237Z</time>
      </trkpt>
      <trkpt lat="47.32226" lon="-0.21913">
        <ele>79</ele>
        <time>2011-04-03T09:48:01.042Z</time>
      </trkpt>
      <trkpt lat="47.32231" lon="-0.21906">
        <ele>79</ele>
        <time>2011-04-03T09:48:02.759Z</time>
      </trkpt>
      <trkpt lat="47.32236" lon="-0.21899">
        <ele>79</ele>
        <time>2011-04-03T09:48:04.476Z</time>
      </trkpt>
      <trkpt lat="47.32242" lon="-0.21893">
        <ele>79</ele>
        <time>2011-04-03T09:48:06.282Z</time>
      </trkpt>
      <trkpt lat="47.32247" lon="-0.21886">
        <ele>79.1</ele>
        <time>2011-04-03T09:48:08Z</time>
        <extensions>
          <type>
            <highway>track</highway>
            <surface>undefined</surface>
            </type>
        </extensions>
      </trkpt>
      <trkpt lat="47.32252" lon="-0.21884">
        <ele>79.2</ele>
        <time>2011-04-03T09:48:09.521Z</time>
      </trkpt>
      <trkpt lat="47.32256" lon="-0.21882">
        <ele>79.2</ele>
        <time>2011-04-03T09:48:10.761Z</time>
      </trkpt>
      <trkpt lat="47.32261" lon="-0.2188">
        <ele>79.3</ele>
        <time>2011-04-03T09:48:12.282Z</time>
      </trkpt>
      <trkpt lat="47.32265" lon="-0.21879">
        <ele>79.4</ele>
        <time>2011-04-03T09:48:13.473Z</time>
      </trkpt>
      <trkpt lat="47.3227" lon="-0.21877">
        <ele>79.4</ele>
        <time>2011-04-03T09:48:14.995Z</time>
      </trkpt>
      <trkpt lat="47.32274" lon="-0.21875">
        <ele>79.5</ele>
        <time>2011-04-03T09:48:16.236Z</time>
      </trkpt>
      <trkpt lat="47.32279" lon="-0.21873">
        <ele>79.6</ele>
        <time>2011-04-03T09:48:17.758Z</time>
      </trkpt>
      <trkpt lat="47.32283" lon="-0.21871">
        <ele>79.5</ele>
        <time>2011-04-03T09:48:19Z</time>
        <extensions>
          <type>
            <highway>track</highway>
            <surface>undefined</surface>
            </type>
        </extensions>
      </trkpt>
      <trkpt lat="47.32285" lon="-0.21863">
        <ele>79.7</ele>
        <time>2011-04-03T09:48:20.647Z</time>
      </trkpt>
      <trkpt lat="47.32287" lon="-0.21855">
        <ele>79.7</ele>
        <time>2011-04-03T09:48:22.294Z</time>
      </trkpt>
      <trkpt lat="47.32289" lon="-0.21847">
        <ele>79.6</ele>
        <time>2011-04-03T09:48:23.941Z</time>
      </trkpt>
      <trkpt lat="47.32291" lon="-0.2184">
        <ele>79.5</ele>
        <time>2011-04-03T09:48:25.408Z</time>
      </trkpt>
      <trkpt lat="47.32293" lon="-0.21832">
        <ele>79.5</ele>
        <time>2011-04-03T09:48:27.056Z</time>
      </trkpt>
      <trkpt lat="47.32295" lon="-0.21824">
        <ele>79.4</ele>
        <time>2011-04-03T09:48:28.704Z</time>
      </trkpt>
      <trkpt lat="47.32297" lon="-0.21816">
        <ele>79.3</ele>
        <time>2011-04-03T09:48:30.352Z</time>
      </trkpt>
      <trkpt lat="47.32299" lon="-0.21808">
        <ele>79.2</ele>
        <time>2011-04-03T09:48:32Z</time>
        <extensions>
          <type>
            <highway>track</highway>
            <surface>undefined</surface>
            </type>
        </extensions>
      </trkpt>
      <trkpt lat="47.32304" lon="-0.21807">
        <ele>79.1</ele>
        <time>2011-04-03T09:48:33.336Z</time>
      </trkpt>
      <trkpt lat="47.32308" lon="-0.21807">
        <ele>79</ele>
        <time>2011-04-03T09:48:34.395Z</time>
      </trkpt>
      <trkpt lat="47.32313" lon="-0.21806">
        <ele>79</ele>
        <time>2011-04-03T09:48:35.731Z</time>
      </trkpt>
      <trkpt lat="47.32318" lon="-0.21805">
        <ele>79</ele>
        <time>2011-04-03T09:48:37.067Z</time>
      </trkpt>
      <trkpt lat="47.32322" lon="-0.21805">
        <ele>79</ele>
        <time>2011-04-03T09:48:38.126Z</time>
      </trkpt>
      <trkpt lat="47.32327" lon="-0.21804">
        <ele>79</ele>
        <time>2011-04-03T09:48:39.462Z</time>
      </trkpt>
      <trkpt lat="47.32332" lon="-0.21803">
        <ele>79.1</ele>
        <time>2011-04-03T09:48:40.798Z</time>
      </trkpt>
      <trkpt lat="47.32337" lon="-0.21803">
        <ele>79.1</ele>
        <time>2011-04-03T09:48:42.122Z</time>
      </trkpt>
      <trkpt lat="47.32341" lon="-0.21802">
        <ele>79.1</ele>
        <time>2011-04-03T09:48:43.196Z</time>
      </trkpt>
      <trkpt lat="47.32346" lon="-0.21801">
        <ele>79.2</ele>
        <time>2011-04-03T09:48:44.532Z</time>
      </trkpt>
      <trkpt lat="47.32351" lon="-0.218">
        <ele>79.2</ele>
        <time>2011-04-03T09:48:45.869Z</time>
      </trkpt>
      <trkpt lat="47.32355" lon="-0.218">
        <ele>79.2</ele>
        <time>2011-04-03T09:48:46.928Z</time>
      </trkpt>
      <trkpt lat="47.3236" lon="-0.21799">
        <ele>79.2</ele>
        <time>2011-04-03T09:48:48.265Z</time>
      </trkpt>
      <trkpt lat="47.32365" lon="-0.21798">
        <ele>79.3</ele>
        <time>2011-04-03T09:48:49.602Z</time>
      </trkpt>
      <trkpt lat="47.32369" lon="-0.21798">
        <ele>79.3</ele>
        <time>2011-04-03T09:48:50.662Z</time>
      </trkpt>
      <trkpt lat="47.32374" lon="-0.21797">
        <ele>79.3</ele>
        <time>2011-04-03T09:48:52Z</time>
        <extensions>
          <type>
            <highway>track</highway>
            <surface>undefined</surface>
            </type>
        </extensions>
      </trkpt>
      <trkpt lat="47.32379" lon="-0.21798">
        <ele>79.3</ele>
        <time>2011-04-03T09:48:53.305Z</time>
      </trkpt>
      <trkpt lat="47.32384" lon="-0.218">
        <ele>79.2</ele>
        <time>2011-04-03T09:48:54.645Z</time>
      </trkpt>
      <trkpt lat="47.32388" lon="-0.21801">
        <ele>79.2</ele>
        <time>2011-04-03T09:48:55.694Z</time>
      </trkpt>
      <trkpt lat="47.32393" lon="-0.21802">
        <ele>79.1</ele>
        <time>2011-04-03T09:48:56.999Z</time>
      </trkpt>
      <trkpt lat="47.32398" lon="-0.21803">
        <ele>79.1</ele>
        <time>2011-04-03T09:48:58.304Z</time>
      </trkpt>
      <trkpt lat="47.32403" lon="-0.21805">
        <ele>79</ele>
        <time>2011-04-03T09:48:59.644Z</time>
      </trkpt>
      <trkpt lat="47.32407" lon="-0.21806">
        <ele>79</ele>
        <time>2011-04-03T09:49:00.694Z</time>
      </trkpt>
      <trkpt lat="47.32412" lon="-0.21807">
        <ele>79</ele>
        <time>2011-04-03T09:49:02Z</time>
        <extensions>
          <type>
            <highway>track</highway>
            <surface>undefined</surface>
            </type>
        </extensions>
      </trkpt>
      <trkpt lat="47.32417" lon="-0.21805">
        <ele>79</ele>
        <time>2011-04-03T09:49:03.440Z</time>
      </trkpt>
      <trkpt lat="47.32423" lon="-0.21804">
        <ele>79.3</ele>
        <time>2011-04-03T09:49:05.118Z</time>
      </trkpt>
      <trkpt lat="47.32428" lon="-0.21802">
        <ele>79.5</ele>
        <time>2011-04-03T09:49:06.558Z</time>
      </trkpt>
      <trkpt lat="47.32433" lon="-0.218">
        <ele>79.7</ele>
        <time>2011-04-03T09:49:07.998Z</time>
      </trkpt>
      <trkpt lat="47.32438" lon="-0.21798">
        <ele>79.8</ele>
        <time>2011-04-03T09:49:09.438Z</time>
      </trkpt>
      <trkpt lat="47.32444" lon="-0.21797">
        <ele>80</ele>
        <time>2011-04-03T09:49:11.117Z</time>
      </trkpt>
      <trkpt lat="47.32449" lon="-0.21795">
        <ele>80</ele>
        <time>2011-04-03T09:49:12.558Z</time>
      </trkpt>
      <trkpt lat="47.32454" lon="-0.21793">
        <ele>80</ele>
        <time>2011-04-03T09:49:14Z</time>
        <extensions>
          <type>
            <highway>track</highway>
            <surface>undefined</surface>
            </type>
        </extensions>
      </trkpt>
      <trkpt lat="47.32462" lon="-0.21796">
        <ele>80</ele>
        <time>2011-04-03T09:49:16.235Z</time>
      </trkpt>
      <trkpt lat="47.3247" lon="-0.21798">
        <ele>80</ele>
        <time>2011-04-03T09:49:18.432Z</time>
      </trkpt>
      <trkpt lat="47.32478" lon="-0.21801">
        <ele>79.8</ele>
        <time>2011-04-03T09:49:20.667Z</time>
      </trkpt>
      <trkpt lat="47.32487" lon="-0.21803">
        <ele>79.5</ele>
        <time>2011-04-03T09:49:23.132Z</time>
      </trkpt>
      <trkpt lat="47.32495" lon="-0.21806">
        <ele>79.2</ele>
        <time>2011-04-03T09:49:25.368Z</time>
      </trkpt>
      <trkpt lat="47.32503" lon="-0.21808">
        <ele>79.1</ele>
        <time>2011-04-03T09:49:27.565Z</time>
      </trkpt>
      <trkpt lat="47.32511" lon="-0.21811">
        <ele>79.2</ele>
        <time>2011-04-03T09:49:29.801Z</time>
      </trkpt>
      <trkpt lat="47.32519" lon="-0.21813">
        <ele>79.3</ele>
        <time>2011-04-03T09:49:32Z</time>
        <extensions>
          <type>
            <highway>track</highway>
            <surface>undefined</surface>
            </type>
        </extensions>
      </trkpt>
      <trkpt lat="47.32525" lon="-0.21808">
        <ele>79.1</ele>
        <time>2011-04-03T09:49:33.826Z</time>
      </trkpt>
      <trkpt lat="47.32531" lon="-0.21804">
        <ele>79</ele>
        <time>2011-04-03T09:49:35.571Z</time>
      </trkpt>
      <trkpt lat="47.32536" lon="-0.21799">
        <ele>79</ele>
        <time>2011-04-03T09:49:37.172Z</time>
      </trkpt>
      <trkpt lat="47.32542" lon="-0.21794">
        <ele>79</ele>
        <time>2011-04-03T09:49:39Z</time>
        <extensions>
          <type>
            <highway>track</highway>
            <surface>undefined</surface>
            </type>
        </extensions>
      </trkpt>
      <trkpt lat="47.32546" lon="-0.21788">
        <ele>79</ele>
        <time>2011-04-03T09:49:40.476Z</time>
      </trkpt>
      <trkpt lat="47.3255" lon="-0.21782">
        <ele>79</ele>
        <time>2011-04-03T09:49:41.952Z</time>
      </trkpt>
      <trkpt lat="47.32554" lon="-0.21776">
        <ele>79</ele>
        <time>2011-04-03T09:49:43.428Z</time>
      </trkpt>
      <trkpt lat="47.32559" lon="-0.2177">
        <ele>79</ele>
        <time>2011-04-03T09:49:45.095Z</time>
      </trkpt>
      <trkpt lat="47.32563" lon="-0.21764">
        <ele>78.9</ele>
        <time>2011-04-03T09:49:46.571Z</time>
      </trkpt>
      <trkpt lat="47.32567" lon="-0.21758">
        <ele>78.7</ele>
        <time>2011-04-03T09:49:48.047Z</time>
      </trkpt>
      <trkpt lat="47.32571" lon="-0.21752">
        <ele>78.5</ele>
        <time>2011-04-03T09:49:49.523Z</time>
      </trkpt>
      <trkpt lat="47.32575" lon="-0.21746">
        <ele>78.3</ele>
        <time>2011-04-03T09:49:51Z</time>
        <extensions>
          <type>
            <highway>track</highway>
            <surface>undefined</surface>
            </type>
        </extensions>
      </trkpt>
      <trkpt lat="47.32579" lon="-0.21742">
        <ele>78.2</ele>
        <time>2011-04-03T09:49:52.180Z</time>
      </trkpt>
      <trkpt lat="47.32583" lon="-0.21739">
        <ele>78</ele>
        <time>2011-04-03T09:49:53.276Z</time>
      </trkpt>
      <trkpt lat="47.32587" lon="-0.21735">
        <ele>78</ele>
        <time>2011-04-03T09:49:54.456Z</time>
      </trkpt>
      <trkpt lat="47.32591" lon="-0.21732">
        <ele>78</ele>
        <time>2011-04-03T09:49:55.552Z</time>
      </trkpt>
      <trkpt lat="47.32594" lon="-0.21728">
        <ele>78</ele>
        <time>2011-04-03T09:49:56.540Z</time>
      </trkpt>
      <trkpt lat="47.32598" lon="-0.21724">
        <ele>78</ele>
        <time>2011-04-03T09:49:57.721Z</time>
      </trkpt>
      <trkpt lat="47.32602" lon="-0.21721">
        <ele>78</ele>
        <time>2011-04-03T09:49:58.818Z</time>
      </trkpt>
      <trkpt lat="47.32606" lon="-0.21717">
        <ele>78</ele>
        <time>2011-04-03T09:50:00Z</time>
        <extensions>
          <type>
            <highway>track</highway>
            <surface>undefined</surface>
            </type>
        </extensions>
      </trkpt>
      <trkpt lat="47.32613" lon="-0.21718">
        <ele>78</ele>
        <time>2011-04-03T09:50:01.744Z</time>
      </trkpt>
      <trkpt lat="47.32619" lon="-0.21719">
        <ele>78</ele>
        <time>2011-04-03T09:50:03.242Z</time>
      </trkpt>
      <trkpt lat="47.32626" lon="-0.2172">
        <ele>78</ele>
        <time>2011-04-03T09:50:04.987Z</time>
      </trkpt>
      <trkpt lat="47.32632" lon="-0.21722">
        <ele>78</ele>
        <time>2011-04-03T09:50:06.513Z</time>
      </trkpt>
      <trkpt lat="47.32639" lon="-0.21723">
        <ele>78</ele>
        <time>2011-04-03T09:50:08.258Z</time>
      </trkpt>
      <trkpt lat="47.32645" lon="-0.21724">
        <ele>77.8</ele>
        <time>2011-04-03T09:50:09.756Z</time>
      </trkpt>
      <trkpt lat="47.32652" lon="-0.21725">
        <ele>77.5</ele>
        <time>2011-04-03T09:50:11.501Z</time>
      </trkpt>
      <trkpt lat="47.32658" lon="-0.21726">
        <ele>77.3</ele>
        <time>2011-04-03T09:50:13Z</time>
        <extensions>
          <type>
            <highway>track</highway>
            <surface>undefined</surface>
            </type>
        </extensions>
      </trkpt>
      <trkpt lat="47.32662" lon="-0.21722">
        <ele>77.2</ele>
        <time>2011-04-03T09:50:14.298Z</time>
      </trkpt>
      <trkpt lat="47.32667" lon="-0.21718">
        <ele>77</ele>
        <time>2011-04-03T09:50:15.826Z</time>
      </trkpt>
      <trkpt lat="47.32671" lon="-0.21714">
        <ele>76.8</ele>
        <time>2011-04-03T09:50:17.124Z</time>
      </trkpt>
      <trkpt lat="47.32676" lon="-0.21711">
        <ele>76.7</ele>
        <time>2011-04-03T09:50:18.574Z</time>
      </trkpt>
      <trkpt lat="47.3268" lon="-0.21707">
        <ele>76.5</ele>
        <time>2011-04-03T09:50:19.873Z</time>
      </trkpt>
      <trkpt lat="47.32684" lon="-0.21703">
        <ele>76.4</ele>
        <time>2011-04-03T09:50:21.172Z</time>
      </trkpt>
      <trkpt lat="47.32689" lon="-0.21699">
        <ele>76.2</ele>
        <time>2011-04-03T09:50:22.700Z</time>
      </trkpt>
      <trkpt lat="47.32693" lon="-0.21695">
        <ele>76.1</ele>
        <time>2011-04-03T09:50:24Z</time>
        <extensions>
          <type>
            <highway>track</highway>
            <surface>undefined</surface>
            </type>
        </extensions>
      </trkpt>
      <trkpt lat="47.327" lon="-0.21691">
        <ele>76</ele>
        <time>2011-04-03T09:50:25.670Z</time>
      </trkpt>
      <trkpt lat="47.32706" lon="-0.21686">
        <ele>76</ele>
        <time>2011-04-03T09:50:27.203Z</time>
      </trkpt>
      <trkpt lat="47.32713" lon="-0.21682">
        <ele>76</ele>
        <time>2011-04-03T09:50:28.874Z</time>
      </trkpt>
      <trkpt lat="47.3272" lon="-0.21677">
        <ele>76</ele>
        <time>2011-04-03T09:50:30.605Z</time>
      </trkpt>
      <trkpt lat="47.32726" lon="-0.21673">
        <ele>76</ele>
        <time>2011-04-03T09:50:32.070Z</time>
      </trkpt>
      <trkpt lat="47.32733" lon="-0.21668">
        <ele>76</ele>
        <time>2011-04-03T09:50:33.801Z</time>
      </trkpt>
      <trkpt lat="47.32739" lon="-0.21664">
        <ele>75.9</ele>
        <time>2011-04-03T09:50:35.267Z</time>
      </trkpt>
      <trkpt lat="47.32746" lon="-0.21659">
        <ele>75.8</ele>
        <time>2011-04-03T09:50:37Z</time>
        <extensions>
          <type>
            <highway>track</highway>
            <surface>undefined</surface>
            </type>
        </extensions>
      </trkpt>
      <trkpt lat="47.3275" lon="-0.21655">
        <ele>75.6</ele>
        <time>2011-04-03T09:50:38.030Z</time>
      </trkpt>
      <trkpt lat="47.32754" lon="-0.21651">
        <ele>75.2</ele>
        <time>2011-04-03T09:50:39.060Z</time>
      </trkpt>
      <trkpt lat="47.32758" lon="-0.21647">
        <ele>74.9</ele>
        <time>2011-04-03T09:50:40.090Z</time>
      </trkpt>
      <trkpt lat="47.32762" lon="-0.21644">
        <ele>74.7</ele>
        <time>2011-04-03T09:50:41.046Z</time>
      </trkpt>
      <trkpt lat="47.32765" lon="-0.2164">
        <ele>74.5</ele>
        <time>2011-04-03T09:50:41.908Z</time>
      </trkpt>
      <trkpt lat="47.32769" lon="-0.21636">
        <ele>74.4</ele>
        <time>2011-04-03T09:50:42.938Z</time>
      </trkpt>
      <trkpt lat="47.32773" lon="-0.21632">
        <ele>74.4</ele>
        <time>2011-04-03T09:50:43.969Z</time>
      </trkpt>
      <trkpt lat="47.32777" lon="-0.21628">
        <ele>74.4</ele>
        <time>2011-04-03T09:50:45Z</time>
        <extensions>
          <type>
            <highway>track</highway>
            <surface>undefined</surface>
            </type>
        </extensions>
      </trkpt>
      <trkpt lat="47.32783" lon="-0.21629">
        <ele>74.3</ele>
        <time>2011-04-03T09:50:46.567Z</time>
      </trkpt>
      <trkpt lat="47.32789" lon="-0.2163">
        <ele>74.2</ele>
        <time>2011-04-03T09:50:48.134Z</time>
      </trkpt>
      <trkpt lat="47.32794" lon="-0.2163">
        <ele>74.1</ele>
        <time>2011-04-03T09:50:49.432Z</time>
      </trkpt>
      <trkpt lat="47.328" lon="-0.21631">
        <ele>74.1</ele>
        <time>2011-04-03T09:50:51Z</time>
        <extensions>
          <type>
            <highway>track</highway>
            <surface>undefined</surface>
            </type>
        </extensions>
      </trkpt>
      <trkpt lat="47.32804" lon="-0.21628">
        <ele>74</ele>
        <time>2011-04-03T09:50:52.203Z</time>
      </trkpt>
      <trkpt lat="47.32809" lon="-0.21626">
        <ele>73.9</ele>
        <time>2011-04-03T09:50:53.592Z</time>
      </trkpt>
      <trkpt lat="47.32813" lon="-0.21623">
        <ele>73.7</ele>
        <time>2011-04-03T09:50:54.796Z</time>
      </trkpt>
      <trkpt lat="47.32817" lon="-0.2162">
        <ele>73.6</ele>
        <time>2011-04-03T09:50:56Z</time>
        <extensions>
          <type>
            <highway>footway</highway>
            <surface>asphalt</surface>
            </type>
        </extensions>
      </trkpt>
      <trkpt lat="47.32824" lon="-0.21613">
        <ele>73.3</ele>
        <time>2011-04-03T09:51:06.172Z</time>
      </trkpt>
      <trkpt lat="47.32831" lon="-0.21606">
        <ele>73.1</ele>
        <time>2011-04-03T09:51:16.344Z</time>
      </trkpt>
      <trkpt lat="47.32838" lon="-0.21599">
        <ele>72.9</ele>
        <time>2011-04-03T09:51:26.516Z</time>
      </trkpt>
      <trkpt lat="47.32846" lon="-0.21593">
        <ele>72.9</ele>
        <time>2011-04-03T09:51:37.311Z</time>
      </trkpt>
      <trkpt lat="47.32853" lon="-0.21586">
        <ele>72.9</ele>
        <time>2011-04-03T09:51:47.483Z</time>
      </trkpt>
      <trkpt lat="47.3286" lon="-0.21579">
        <ele>73</ele>
        <time>2011-04-03T09:51:57.655Z</time>
      </trkpt>
      <trkpt lat="47.32867" lon="-0.21572">
        <ele>72.9</ele>
        <time>2011-04-03T09:52:07.827Z</time>
      </trkpt>
      <trkpt lat="47.32874" lon="-0.21565">
        <ele>72.8</ele>
        <time>2011-04-03T09:52:18Z</time>
        <extensions>
          <type>
            <highway>unclassified</highway>
            <surface>asphalt</surface>
            </type>
        </extensions>
      </trkpt>
      <trkpt lat="47.32873" lon="-0.21557">
        <ele>73</ele>
        <time>2011-04-03T09:52:21.082Z</time>
      </trkpt>
      <trkpt lat="47.32871" lon="-0.21549">
        <ele>73</ele>
        <time>2011-04-03T09:52:24.313Z</time>
      </trkpt>
      <trkpt lat="47.3287" lon="-0.2154">
        <ele>73</ele>
        <time>2011-04-03T09:52:27.768Z</time>
      </trkpt>
      <trkpt lat="47.32868" lon="-0.21532">
        <ele>73</ele>
        <time>2011-04-03T09:52:31Z</time>
        <extensions>
          <type>
            <highway>unclassified</highway>
            <surface>undefined</surface>
            </type>
        </extensions>
      </trkpt>
      <trkpt lat="47.32862" lon="-0.21524">
        <ele>73.2</ele>
        <time>2011-04-03T09:52:32.855Z</time>
      </trkpt>
      <trkpt lat="47.32856" lon="-0.21515">
        <ele>73.4</ele>
        <time>2011-04-03T09:52:34.817Z</time>
      </trkpt>
      <trkpt lat="47.3285" lon="-0.21507">
        <ele>73.5</ele>
        <time>2011-04-03T09:52:36.672Z</time>
      </trkpt>
      <trkpt lat="47.32845" lon="-0.21499">
        <ele>73.4</ele>
        <time>2011-04-03T09:52:38.363Z</time>
      </trkpt>
      <trkpt lat="47.32839" lon="-0.2149">
        <ele>73.2</ele>
        <time>2011-04-03T09:52:40.326Z</time>
      </trkpt>
      <trkpt lat="47.32833" lon="-0.21482">
        <ele>73</ele>
        <time>2011-04-03T09:52:42.181Z</time>
      </trkpt>
      <trkpt lat="47.32827" lon="-0.21473">
        <ele>73.2</ele>
        <time>2011-04-03T09:52:44.144Z</time>
      </trkpt>
      <trkpt lat="47.32821" lon="-0.21465">
        <ele>73.4</ele>
        <time>2011-04-03T09:52:46Z</time>
        <extensions>
          <type>
            <highway>unclassified</highway>
            <surface>undefined</surface>
            </type>
        </extensions>
      </trkpt>
      <trkpt lat="47.32817" lon="-0.21461">
        <ele>73.6</ele>
        <time>2011-04-03T09:52:47.032Z</time>
      </trkpt>
      <trkpt lat="47.32813" lon="-0.21457">
        <ele>73.7</ele>
        <time>2011-04-03T09:52:48.064Z</time>
      </trkpt>
      <trkpt lat="47.32809" lon="-0.21453">
        <ele>73.9</ele>
        <time>2011-04-03T09:52:49.096Z</time>
      </trkpt>
      <trkpt lat="47.32806" lon="-0.2145">
        <ele>74</ele>
        <time>2011-04-03T09:52:49.870Z</time>
      </trkpt>
      <trkpt lat="47.32802" lon="-0.21446">
        <ele>74</ele>
        <time>2011-04-03T09:52:50.902Z</time>
      </trkpt>
      <trkpt lat="47.32798" lon="-0.21442">
        <ele>73.9</ele>
        <time>2011-04-03T09:52:51.934Z</time>
      </trkpt>
      <trkpt lat="47.32794" lon="-0.21438">
        <ele>73.9</ele>
        <time>2011-04-03T09:52:52.966Z</time>
      </trkpt>
      <trkpt lat="47.3279" lon="-0.21434">
        <ele>73.8</ele>
        <time>2011-04-03T09:52:54Z</time>
        <extensions>
          <type>
            <highway>unclassified</highway>
            <surface>undefined</surface>
            </type>
        </extensions>
      </trkpt>
      <trkpt lat="47.32786" lon="-0.21431">
        <ele>73.9</ele>
        <time>2011-04-03T09:52:54.900Z</time>
      </trkpt>
      <trkpt lat="47.32781" lon="-0.21428">
        <ele>73.9</ele>
        <time>2011-04-03T09:52:55.982Z</time>
      </trkpt>
      <trkpt lat="47.32777" lon="-0.21425">
        <ele>74</ele>
        <time>2011-04-03T09:52:56.882Z</time>
      </trkpt>
      <trkpt lat="47.32772" lon="-0.21422">
        <ele>74.2</ele>
        <time>2011-04-03T09:52:57.964Z</time>
      </trkpt>
      <trkpt lat="47.32768" lon="-0.21418">
        <ele>74.3</ele>
        <time>2011-04-03T09:52:58.933Z</time>
      </trkpt>
      <trkpt lat="47.32763" lon="-0.21415">
        <ele>74.5</ele>
        <time>2011-04-03T09:53:00.016Z</time>
      </trkpt>
      <trkpt lat="47.32759" lon="-0.21412">
        <ele>74.7</ele>
        <time>2011-04-03T09:53:00.916Z</time>
      </trkpt>
      <trkpt lat="47.32754" lon="-0.21409">
        <ele>74.9</ele>
        <time>2011-04-03T09:53:02Z</time>
        <extensions>
          <type>
            <highway>unclassified</highway>
            <surface>undefined</surface>
            </type>
        </extensions>
      </trkpt>
      <trkpt lat="47.32749" lon="-0.21401">
        <ele>75</ele>
        <time>2011-04-03T09:53:03.474Z</time>
      </trkpt>
      <trkpt lat="47.32743" lon="-0.21392">
        <ele>75</ele>
        <time>2011-04-03T09:53:05.183Z</time>
      </trkpt>
      <trkpt lat="47.32738" lon="-0.21384">
        <ele>74.9</ele>
        <time>2011-04-03T09:53:06.657Z</time>
      </trkpt>
      <trkpt lat="47.32733" lon="-0.21376">
        <ele>74.8</ele>
        <time>2011-04-03T09:53:08.131Z</time>
      </trkpt>
      <trkpt lat="47.32727" lon="-0.21367">
        <ele>74.9</ele>
        <time>2011-04-03T09:53:09.841Z</time>
      </trkpt>
      <trkpt lat="47.32722" lon="-0.21359">
        <ele>74.9</ele>
        <time>2011-04-03T09:53:11.315Z</time>
      </trkpt>
      <trkpt lat="47.32716" lon="-0.2135">
        <ele>74.9</ele>
        <time>2011-04-03T09:53:13.025Z</time>
      </trkpt>
      <trkpt lat="47.32711" lon="-0.21342">
        <ele>75</ele>
        <time>2011-04-03T09:53:14.499Z</time>
      </trkpt>
      <trkpt lat="47.32706" lon="-0.21334">
        <ele>75.2</ele>
        <time>2011-04-03T09:53:15.973Z</time>
      </trkpt>
      <trkpt lat="47.327" lon="-0.21325">
        <ele>75.4</ele>
        <time>2011-04-03T09:53:17.683Z</time>
      </trkpt>
      <trkpt lat="47.32695" lon="-0.21317">
        <ele>75.4</ele>
        <time>2011-04-03T09:53:19.157Z</time>
      </trkpt>
      <trkpt lat="47.3269" lon="-0.21309">
        <ele>75.3</ele>
        <time>2011-04-03T09:53:20.631Z</time>
      </trkpt>
      <trkpt lat="47.32684" lon="-0.213">
        <ele>75.4</ele>
        <time>2011-04-03T09:53:22.341Z</time>
      </trkpt>
      <trkpt lat="47.32679" lon="-0.21292">
        <ele>75.6</ele>
        <time>2011-04-03T09:53:23.815Z</time>
      </trkpt>
      <trkpt lat="47.32673" lon="-0.21283">
        <ele>75.8</ele>
        <time>2011-04-03T09:53:25.525Z</time>
      </trkpt>
      <trkpt lat="47.32668" lon="-0.21275">
        <ele>76</ele>
        <time>2011-04-03T09:53:27Z</time>
        <extensions>
          <type>
            <highway>unclassified</highway>
            <surface>undefined</surface>
            </type>
        </extensions>
      </trkpt>
      <trkpt lat="47.32664" lon="-0.2127">
        <ele>76</ele>
        <time>2011-04-03T09:53:28.038Z</time>
      </trkpt>
      <trkpt lat="47.3266" lon="-0.21266">
        <ele>76</ele>
        <time>2011-04-03T09:53:28.994Z</time>
      </trkpt>
      <trkpt lat="47.32656" lon="-0.21261">
        <ele>76</ele>
        <time>2011-04-03T09:53:30.032Z</time>
      </trkpt>
      <trkpt lat="47.32653" lon="-0.21256">
        <ele>76</ele>
        <time>2011-04-03T09:53:30.928Z</time>
      </trkpt>
      <trkpt lat="47.32649" lon="-0.21251">
        <ele>76</ele>
        <time>2011-04-03T09:53:31.966Z</time>
      </trkpt>
      <trkpt lat="47.32645" lon="-0.21247">
        <ele>76</ele>
        <time>2011-04-03T09:53:32.923Z</time>
      </trkpt>
      <trkpt lat="47.32641" lon="-0.21242">
        <ele>76</ele>
        <time>2011-04-03T09:53:33.961Z</time>
      </trkpt>
      <trkpt lat="47.32637" lon="-0.21237">
        <ele>76</ele>
        <time>2011-04-03T09:53:35Z</time>
        <extensions>
          <type>
            <highway>unclassified</highway>
            <surface>undefined</surface>
            </type>
        </extensions>
      </trkpt>
      <trkpt lat="47.32632" lon="-0.21233">
        <ele>76</ele>
        <time>2011-04-03T09:53:36.032Z</time>
      </trkpt>
      <trkpt lat="47.32627" lon="-0.2123">
        <ele>76</ele>
        <time>2011-04-03T09:53:37.011Z</time>
      </trkpt>
      <trkpt lat="47.32622" lon="-0.21226">
        <ele>76</ele>
        <time>2011-04-03T09:53:38.043Z</time>
      </trkpt>
      <trkpt lat="47.32618" lon="-0.21222">
        <ele>76</ele>
        <time>2011-04-03T09:53:38.920Z</time>
      </trkpt>
      <trkpt lat="47.32613" lon="-0.21218">
        <ele>76</ele>
        <time>2011-04-03T09:53:39.952Z</time>
      </trkpt>
      <trkpt lat="47.32608" lon="-0.21215">
        <ele>76</ele>
        <time>2011-04-03T09:53:40.932Z</time>
      </trkpt>
      <trkpt lat="47.32603" lon="-0.21211">
        <ele>76</ele>
        <time>2011-04-03T09:53:41.964Z</time>
      </trkpt>
      <trkpt lat="47.32598" lon="-0.21207">
        <ele>76</ele>
        <time>2011-04-03T09:53:42.996Z</time>
      </trkpt>
      <trkpt lat="47.32593" lon="-0.21203">
        <ele>76</ele>
        <time>2011-04-03T09:53:44.029Z</time>
      </trkpt>
      <trkpt lat="47.32588" lon="-0.212">
        <ele>76</ele>
        <time>2011-04-03T09:53:45.009Z</time>
      </trkpt>
      <trkpt lat="47.32583" lon="-0.21196">
        <ele>76</ele>
        <time>2011-04-03T09:53:46.042Z</time>
      </trkpt>
      <trkpt lat="47.32579" lon="-0.21192">
        <ele>76</ele>
        <time>2011-04-03T09:53:46.919Z</time>
      </trkpt>
      <trkpt lat="47.32574" lon="-0.21188">
        <ele>76</ele>
        <time>2011-04-03T09:53:47.952Z</time>
      </trkpt>
      <trkpt lat="47.32569" lon="-0.21185">
        <ele>76</ele>
        <time>2011-04-03T09:53:48.932Z</time>
      </trkpt>
      <trkpt lat="47.32564" lon="-0.21181">
        <ele>76</ele>
        <time>2011-04-03T09:53:49.966Z</time>
      </trkpt>
      <trkpt lat="47.32559" lon="-0.21177">
        <ele>76</ele>
        <time>2011-04-03T09:53:51Z</time>
        <extensions>
          <type>
            <highway>unclassified</highway>
            <surface>undefined</surface>
            </type>
        </extensions>
      </trkpt>
      <trkpt lat="47.32554" lon="-0.21169">
        <ele>75.9</ele>
        <time>2011-04-03T09:53:52.228Z</time>
      </trkpt>
      <trkpt lat="47.32549" lon="-0.21161">
        <ele>75.6</ele>
        <time>2011-04-03T09:53:53.456Z</time>
      </trkpt>
      <trkpt lat="47.32544" lon="-0.21152">
        <ele>75.3</ele>
        <time>2011-04-03T09:53:54.770Z</time>
      </trkpt>
      <trkpt lat="47.32539" lon="-0.21144">
        <ele>75.1</ele>
        <time>2011-04-03T09:53:55.998Z</time>
      </trkpt>
      <trkpt lat="47.32534" lon="-0.21136">
        <ele>75</ele>
        <time>2011-04-03T09:53:57.227Z</time>
      </trkpt>
      <trkpt lat="47.32529" lon="-0.21128">
        <ele>75</ele>
        <time>2011-04-03T09:53:58.456Z</time>
      </trkpt>
      <trkpt lat="47.32524" lon="-0.21119">
        <ele>74.9</ele>
        <time>2011-04-03T09:53:59.770Z</time>
      </trkpt>
      <trkpt lat="47.32519" lon="-0.21111">
        <ele>74.7</ele>
        <time>2011-04-03T09:54:01Z</time>
        <extensions>
          <type>
            <highway>unclassified</highway>
            <surface>undefined</surface>
            </type>
        </extensions>
      </trkpt>
      <trkpt lat="47.32514" lon="-0.211">
        <ele>74.3</ele>
        <time>2011-04-03T09:54:02.379Z</time>
      </trkpt>
      <trkpt lat="47.32509" lon="-0.21089">
        <ele>74.1</ele>
        <time>2011-04-03T09:54:03.758Z</time>
      </trkpt>
      <trkpt lat="47.32504" lon="-0.21079">
        <ele>74</ele>
        <time>2011-04-03T09:54:05.052Z</time>
      </trkpt>
      <trkpt lat="47.32499" lon="-0.21068">
        <ele>73.9</ele>
        <time>2011-04-03T09:54:06.431Z</time>
      </trkpt>
      <trkpt lat="47.32493" lon="-0.21057">
        <ele>73.5</ele>
        <time>2011-04-03T09:54:07.901Z</time>
      </trkpt>
      <trkpt lat="47.32488" lon="-0.21046">
        <ele>73</ele>
        <time>2011-04-03T09:54:09.280Z</time>
      </trkpt>
      <trkpt lat="47.32483" lon="-0.21035">
        <ele>72.5</ele>
        <time>2011-04-03T09:54:10.659Z</time>
      </trkpt>
      <trkpt lat="47.32478" lon="-0.21025">
        <ele>72.1</ele>
        <time>2011-04-03T09:54:11.953Z</time>
      </trkpt>
      <trkpt lat="47.32473" lon="-0.21014">
        <ele>71.5</ele>
        <time>2011-04-03T09:54:13.333Z</time>
      </trkpt>
      <trkpt lat="47.32468" lon="-0.21003">
        <ele>70.9</ele>
        <time>2011-04-03T09:54:14.713Z</time>
      </trkpt>
      <trkpt lat="47.32463" lon="-0.20992">
        <ele>70.5</ele>
        <time>2011-04-03T09:54:16.093Z</time>
      </trkpt>
      <trkpt lat="47.32458" lon="-0.20981">
        <ele>70.2</ele>
        <time>2011-04-03T09:54:17.473Z</time>
      </trkpt>
      <trkpt lat="47.32452" lon="-0.2097">
        <ele>70</ele>
        <time>2011-04-03T09:54:18.944Z</time>
      </trkpt>
      <trkpt lat="47.32447" lon="-0.2096">
        <ele>70</ele>
        <time>2011-04-03T09:54:20.239Z</time>
      </trkpt>
      <trkpt lat="47.32442" lon="-0.20949">
        <ele>69.9</ele>
        <time>2011-04-03T09:54:21.619Z</time>
      </trkpt>
      <trkpt lat="47.32437" lon="-0.20938">
        <ele>69.6</ele>
        <time>2011-04-03T09:54:23Z</time>
        <extensions>
          <type>
            <highway>unclassified</highway>
            <surface>undefined</surface>
            </type>
        </extensions>
      </trkpt>
      <trkpt lat="47.32435" lon="-0.20931">
        <ele>69.5</ele>
        <time>2011-04-03T09:54:23.940Z</time>
      </trkpt>
      <trkpt lat="47.32432" lon="-0.20925">
        <ele>69.5</ele>
        <time>2011-04-03T09:54:24.863Z</time>
      </trkpt>
      <trkpt lat="47.3243" lon="-0.20918">
        <ele>69.5</ele>
        <time>2011-04-03T09:54:25.803Z</time>
      </trkpt>
      <trkpt lat="47.32427" lon="-0.20912">
        <ele>69.5</ele>
        <time>2011-04-03T09:54:26.726Z</time>
      </trkpt>
      <trkpt lat="47.32425" lon="-0.20905">
        <ele>69.4</ele>
        <time>2011-04-03T09:54:27.666Z</time>
      </trkpt>
      <trkpt lat="47.32422" lon="-0.20898">
        <ele>69.3</ele>
        <time>2011-04-03T09:54:28.691Z</time>
      </trkpt>
      <trkpt lat="47.3242" lon="-0.20892">
        <ele>69.1</ele>
        <time>2011-04-03T09:54:29.519Z</time>
      </trkpt>
      <trkpt lat="47.32418" lon="-0.20885">
        <ele>69</ele>
        <time>2011-04-03T09:54:30.460Z</time>
      </trkpt>
      <trkpt lat="47.32415" lon="-0.20878">
        <ele>68.9</ele>
        <time>2011-04-03T09:54:31.485Z</time>
      </trkpt>
      <trkpt lat="47.32413" lon="-0.20872">
        <ele>68.8</ele>
        <time>2011-04-03T09:54:32.313Z</time>
      </trkpt>
      <trkpt lat="47.3241" lon="-0.20865">
        <ele>68.6</ele>
        <time>2011-04-03T09:54:33.339Z</time>
      </trkpt>
      <trkpt lat="47.32408" lon="-0.20859">
        <ele>68.2</ele>
        <time>2011-04-03T09:54:34.167Z</time>
      </trkpt>
      <trkpt lat="47.32405" lon="-0.20852">
        <ele>67.7</ele>
        <time>2011-04-03T09:54:35.193Z</time>
      </trkpt>
      <trkpt lat="47.32403" lon="-0.20845">
        <ele>67.2</ele>
        <time>2011-04-03T09:54:36.134Z</time>
      </trkpt>
      <trkpt lat="47.324" lon="-0.20839">
        <ele>66.7</ele>
        <time>2011-04-03T09:54:37.058Z</time>
      </trkpt>
      <trkpt lat="47.32398" lon="-0.20832">
        <ele>66.3</ele>
        <time>2011-04-03T09:54:38Z</time>
        <extensions>
          <type>
            <highway>unclassified</highway>
            <surface>undefined</surface>
            </type>
        </extensions>
      </trkpt>
      <trkpt lat="47.32394" lon="-0.20825">
        <ele>66.1</ele>
        <time>2011-04-03T09:54:39.035Z</time>
      </trkpt>
      <trkpt lat="47.32391" lon="-0.20818">
        <ele>66</ele>
        <time>2011-04-03T09:54:39.971Z</time>
      </trkpt>
      <trkpt lat="47.32387" lon="-0.20811">
        <ele>66</ele>
        <time>2011-04-03T09:54:41.006Z</time>
      </trkpt>
      <trkpt lat="47.32383" lon="-0.20805">
        <ele>65.9</ele>
        <time>2011-04-03T09:54:41.957Z</time>
      </trkpt>
      <trkpt lat="47.32379" lon="-0.20798">
        <ele>65.6</ele>
        <time>2011-04-03T09:54:42.992Z</time>
      </trkpt>
      <trkpt lat="47.32376" lon="-0.20791">
        <ele>65.4</ele>
        <time>2011-04-03T09:54:43.928Z</time>
      </trkpt>
      <trkpt lat="47.32372" lon="-0.20784">
        <ele>65.4</ele>
        <time>2011-04-03T09:54:44.963Z</time>
      </trkpt>
      <trkpt lat="47.32368" lon="-0.20777">
        <ele>65.5</ele>
        <time>2011-04-03T09:54:46Z</time>
        <extensions>
          <type>
            <highway>unclassified</highway>
            <surface>undefined</surface>
            </type>
        </extensions>
      </trkpt>
      <trkpt lat="47.32365" lon="-0.20771">
        <ele>65.7</ele>
        <time>2011-04-03T09:54:47.549Z</time>
      </trkpt>
      <trkpt lat="47.32362" lon="-0.20764">
        <ele>65.9</ele>
        <time>2011-04-03T09:54:49.270Z</time>
      </trkpt>
      <trkpt lat="47.32359" lon="-0.20758">
        <ele>66</ele>
        <time>2011-04-03T09:54:50.819Z</time>
      </trkpt>
      <trkpt lat="47.32356" lon="-0.20751">
        <ele>66</ele>
        <time>2011-04-03T09:54:52.540Z</time>
      </trkpt>
      <trkpt lat="47.32353" lon="-0.20745">
        <ele>65.9</ele>
        <time>2011-04-03T09:54:54.089Z</time>
      </trkpt>
      <trkpt lat="47.3235" lon="-0.20738">
        <ele>65.7</ele>
        <time>2011-04-03T09:54:55.810Z</time>
      </trkpt>
      <trkpt lat="47.32347" lon="-0.20732">
        <ele>65.7</ele>
        <time>2011-04-03T09:54:57.359Z</time>
      </trkpt>
      <trkpt lat="47.32344" lon="-0.20725">
        <ele>65.7</ele>
        <time>2011-04-03T09:54:59.080Z</time>
      </trkpt>
      <trkpt lat="47.32341" lon="-0.20719">
        <ele>65.7</ele>
        <time>2011-04-03T09:55:00.629Z</time>
      </trkpt>
      <trkpt lat="47.32338" lon="-0.20712">
        <ele>65.8</ele>
        <time>2011-04-03T09:55:02.350Z</time>
      </trkpt>
      <trkpt lat="47.32335" lon="-0.20706">
        <ele>65.9</ele>
        <time>2011-04-03T09:55:03.899Z</time>
      </trkpt>
      <trkpt lat="47.32332" lon="-0.20699">
        <ele>66</ele>
        <time>2011-04-03T09:55:05.620Z</time>
      </trkpt>
      <trkpt lat="47.32329" lon="-0.20693">
        <ele>66</ele>
        <time>2011-04-03T09:55:07.169Z</time>
      </trkpt>
      <trkpt lat="47.32326" lon="-0.20686">
        <ele>66.1</ele>
        <time>2011-04-03T09:55:08.890Z</time>
      </trkpt>
      <trkpt lat="47.32324" lon="-0.2068">
        <ele>66.2</ele>
        <time>2011-04-03T09:55:10.279Z</time>
      </trkpt>
      <trkpt lat="47.32321" lon="-0.20674">
        <ele>66.3</ele>
        <time>2011-04-03T09:55:11.828Z</time>
      </trkpt>
      <trkpt lat="47.32318" lon="-0.20667">
        <ele>66.6</ele>
        <time>2011-04-03T09:55:13.549Z</time>
      </trkpt>
      <trkpt lat="47.32315" lon="-0.20661">
        <ele>66.9</ele>
        <time>2011-04-03T09:55:15.098Z</time>
      </trkpt>
      <trkpt lat="47.32312" lon="-0.20654">
        <ele>67.2</ele>
        <time>2011-04-03T09:55:16.819Z</time>
      </trkpt>
      <trkpt lat="47.32309" lon="-0.20648">
        <ele>67.6</ele>
        <time>2011-04-03T09:55:18.369Z</time>
      </trkpt>
      <trkpt lat="47.32306" lon="-0.20641">
        <ele>67.9</ele>
        <time>2011-04-03T09:55:20.090Z</time>
      </trkpt>
      <trkpt lat="47.32303" lon="-0.20635">
        <ele>68.3</ele>
        <time>2011-04-03T09:55:21.640Z</time>
      </trkpt>
      <trkpt lat="47.323" lon="-0.20628">
        <ele>68.7</ele>
        <time>2011-04-03T09:55:23.361Z</time>
      </trkpt>
      <trkpt lat="47.32297" lon="-0.20622">
        <ele>69.1</ele>
        <time>2011-04-03T09:55:24.911Z</time>
      </trkpt>
      <trkpt lat="47.32294" lon="-0.20615">
        <ele>69.6</ele>
        <time>2011-04-03T09:55:26.633Z</time>
      </trkpt>
      <trkpt lat="47.32291" lon="-0.20609">
        <ele>70.2</ele>
        <time>2011-04-03T09:55:28.183Z</time>
      </trkpt>
      <trkpt lat="47.32288" lon="-0.20602">
        <ele>70.7</ele>
        <time>2011-04-03T09:55:29.905Z</time>
      </trkpt>
      <trkpt lat="47.32285" lon="-0.20596">
        <ele>71.2</ele>
        <time>2011-04-03T09:55:31.455Z</time>
      </trkpt>
      <trkpt lat="47.32282" lon="-0.20589">
        <ele>71.6</ele>
        <time>2011-04-03T09:55:33.177Z</time>
      </trkpt>
      <trkpt lat="47.32279" lon="-0.20583">
        <ele>72</ele>
        <time>2011-04-03T09:55:34.727Z</time>
      </trkpt>
      <trkpt lat="47.32276" lon="-0.20577">
        <ele>72.3</ele>
        <time>2011-04-03T09:55:36.277Z</time>
      </trkpt>
      <trkpt lat="47.32273" lon="-0.2057">
        <ele>72.6</ele>
        <time>2011-04-03T09:55:38Z</time>
        <extensions>
          <type>
            <highway>unclassified</highway>
            <surface>undefined</surface>
            </type>
        </extensions>
      </trkpt>
      <trkpt lat="47.32268" lon="-0.20563">
        <ele>73</ele>
        <time>2011-04-03T09:55:40.376Z</time>
      </trkpt>
      <trkpt lat="47.32264" lon="-0.20555">
        <ele>73.5</ele>
        <time>2011-04-03T09:55:42.699Z</time>
      </trkpt>
      <trkpt lat="47.32259" lon="-0.20548">
        <ele>74</ele>
        <time>2011-04-03T09:55:45.075Z</time>
      </trkpt>
      <trkpt lat="47.32255" lon="-0.2054">
        <ele>74.4</ele>
        <time>2011-04-03T09:55:47.398Z</time>
      </trkpt>
      <trkpt lat="47.3225" lon="-0.20533">
        <ele>74.8</ele>
        <time>2011-04-03T09:55:49.774Z</time>
      </trkpt>
      <trkpt lat="47.32245" lon="-0.20525">
        <ele>75.3</ele>
        <time>2011-04-03T09:55:52.317Z</time>
      </trkpt>
      <trkpt lat="47.32241" lon="-0.20518">
        <ele>75.7</ele>
        <time>2011-04-03T09:55:54.456Z</time>
      </trkpt>
      <trkpt lat="47.32236" lon="-0.2051">
        <ele>76.1</ele>
        <time>2011-04-03T09:55:57Z</time>
        <extensions>
          <type>
            <highway>unclassified</highway>
            <surface>undefined</surface>
            </type>
        </extensions>
      </trkpt>
      <trkpt lat="47.3223" lon="-0.20503">
        <ele>76.6</ele>
        <time>2011-04-03T09:55:59.021Z</time>
      </trkpt>
      <trkpt lat="47.32225" lon="-0.20496">
        <ele>76.9</ele>
        <time>2011-04-03T09:56:00.842Z</time>
      </trkpt>
      <trkpt lat="47.32219" lon="-0.20488">
        <ele>76.9</ele>
        <time>2011-04-03T09:56:02.978Z</time>
      </trkpt>
      <trkpt lat="47.32213" lon="-0.20481">
        <ele>76.9</ele>
        <time>2011-04-03T09:56:04.999Z</time>
      </trkpt>
      <trkpt lat="47.32207" lon="-0.20474">
        <ele>77</ele>
        <time>2011-04-03T09:56:07.020Z</time>
      </trkpt>
      <trkpt lat="47.32202" lon="-0.20467">
        <ele>77.1</ele>
        <time>2011-04-03T09:56:08.841Z</time>
      </trkpt>
      <trkpt lat="47.32196" lon="-0.20459">
        <ele>77</ele>
        <time>2011-04-03T09:56:10.978Z</time>
      </trkpt>
      <trkpt lat="47.3219" lon="-0.20452">
        <ele>77.1</ele>
        <time>2011-04-03T09:56:13Z</time>
        <extensions>
          <type>
            <highway>unclassified</highway>
            <surface>undefined</surface>
            </type>
        </extensions>
      </trkpt>
      <trkpt lat="47.32186" lon="-0.20442">
        <ele>77.4</ele>
        <time>2011-04-03T09:56:14.707Z</time>
      </trkpt>
      <trkpt lat="47.32181" lon="-0.20431">
        <ele>77.7</ele>
        <time>2011-04-03T09:56:16.654Z</time>
      </trkpt>
      <trkpt lat="47.32177" lon="-0.20421">
        <ele>77.9</ele>
        <time>2011-04-03T09:56:18.361Z</time>
      </trkpt>
      <trkpt lat="47.32172" lon="-0.2041">
        <ele>78</ele>
        <time>2011-04-03T09:56:20.308Z</time>
      </trkpt>
      <trkpt lat="47.32168" lon="-0.204">
        <ele>78</ele>
        <time>2011-04-03T09:56:22.015Z</time>
      </trkpt>
      <trkpt lat="47.32163" lon="-0.20389">
        <ele>78.1</ele>
        <time>2011-04-03T09:56:23.962Z</time>
      </trkpt>
      <trkpt lat="47.32159" lon="-0.20379">
        <ele>78.3</ele>
        <time>2011-04-03T09:56:25.669Z</time>
      </trkpt>
      <trkpt lat="47.32155" lon="-0.20369">
        <ele>78.4</ele>
        <time>2011-04-03T09:56:27.376Z</time>
      </trkpt>
      <trkpt lat="47.3215" lon="-0.20358">
        <ele>78.6</ele>
        <time>2011-04-03T09:56:29.324Z</time>
      </trkpt>
      <trkpt lat="47.32146" lon="-0.20348">
        <ele>78.8</ele>
        <time>2011-04-03T09:56:31.031Z</time>
      </trkpt>
      <trkpt lat="47.32141" lon="-0.20337">
        <ele>78.9</ele>
        <time>2011-04-03T09:56:32.979Z</time>
      </trkpt>
      <trkpt lat="47.32137" lon="-0.20327">
        <ele>79</ele>
        <time>2011-04-03T09:56:34.687Z</time>
      </trkpt>
      <trkpt lat="47.32132" lon="-0.20316">
        <ele>79</ele>
        <time>2011-04-03T09:56:36.635Z</time>
      </trkpt>
      <trkpt lat="47.32128" lon="-0.20306">
        <ele>79</ele>
        <time>2011-04-03T09:56:38.343Z</time>
      </trkpt>
      <trkpt lat="47.32123" lon="-0.20295">
        <ele>79</ele>
        <time>2011-04-03T09:56:40.291Z</time>
      </trkpt>
      <trkpt lat="47.32119" lon="-0.20285">
        <ele>79.3</ele>
        <time>2011-04-03T09:56:42Z</time>
        <extensions>
          <type>
            <highway>unclassified</highway>
            <surface>undefined</surface>
            </type>
        </extensions>
      </trkpt>
      <trkpt lat="47.32115" lon="-0.20279">
        <ele>79.7</ele>
        <time>2011-04-03T09:56:43.154Z</time>
      </trkpt>
      <trkpt lat="47.3211" lon="-0.20272">
        <ele>79.8</ele>
        <time>2011-04-03T09:56:44.549Z</time>
      </trkpt>
      <trkpt lat="47.32106" lon="-0.20266">
        <ele>79.7</ele>
        <time>2011-04-03T09:56:45.703Z</time>
      </trkpt>
      <trkpt lat="47.32101" lon="-0.2026">
        <ele>79.6</ele>
        <time>2011-04-03T09:56:47.007Z</time>
      </trkpt>
      <trkpt lat="47.32097" lon="-0.20253">
        <ele>79.6</ele>
        <time>2011-04-03T09:56:48.263Z</time>
      </trkpt>
      <trkpt lat="47.32092" lon="-0.20247">
        <ele>79.7</ele>
        <time>2011-04-03T09:56:49.567Z</time>
      </trkpt>
      <trkpt lat="47.32088" lon="-0.20241">
        <ele>79.8</ele>
        <time>2011-04-03T09:56:50.722Z</time>
      </trkpt>
      <trkpt lat="47.32084" lon="-0.20235">
        <ele>80</ele>
        <time>2011-04-03T09:56:51.877Z</time>
      </trkpt>
      <trkpt lat="47.32079" lon="-0.20228">
        <ele>80</ele>
        <time>2011-04-03T09:56:53.272Z</time>
      </trkpt>
      <trkpt lat="47.32075" lon="-0.20222">
        <ele>80</ele>
        <time>2011-04-03T09:56:54.427Z</time>
      </trkpt>
      <trkpt lat="47.3207" lon="-0.20216">
        <ele>80</ele>
        <time>2011-04-03T09:56:55.732Z</time>
      </trkpt>
      <trkpt lat="47.32066" lon="-0.20209">
        <ele>80</ele>
        <time>2011-04-03T09:56:56.988Z</time>
      </trkpt>
      <trkpt lat="47.32061" lon="-0.20203">
        <ele>80</ele>
        <time>2011-04-03T09:56:58.293Z</time>
      </trkpt>
      <trkpt lat="47.32057" lon="-0.20197">
        <ele>80</ele>
        <time>2011-04-03T09:56:59.448Z</time>
      </trkpt>
      <trkpt lat="47.32052" lon="-0.2019">
        <ele>80</ele>
        <time>2011-04-03T09:57:00.844Z</time>
      </trkpt>
      <trkpt lat="47.32048" lon="-0.20184">
        <ele>80</ele>
        <time>2011-04-03T09:57:02Z</time>
        <extensions>
          <type>
            <highway>track</highway>
            <surface>dirt</surface>
            </type>
        </extensions>
      </trkpt>
      <trkpt lat="47.32052" lon="-0.20179">
        <ele>80</ele>
        <time>2011-04-03T09:57:03.398Z</time>
      </trkpt>
      <trkpt lat="47.32057" lon="-0.20174">
        <ele>80</ele>
        <time>2011-04-03T09:57:05.008Z</time>
      </trkpt>
      <trkpt lat="47.32061" lon="-0.20169">
        <ele>80</ele>
        <time>2011-04-03T09:57:06.406Z</time>
      </trkpt>
      <trkpt lat="47.32065" lon="-0.20165">
        <ele>80</ele>
        <time>2011-04-03T09:57:07.694Z</time>
      </trkpt>
      <trkpt lat="47.32069" lon="-0.2016">
        <ele>80</ele>
        <time>2011-04-03T09:57:09.092Z</time>
      </trkpt>
      <trkpt lat="47.32074" lon="-0.20155">
        <ele>80</ele>
        <time>2011-04-03T09:57:10.702Z</time>
      </trkpt>
      <trkpt lat="47.32078" lon="-0.2015">
        <ele>80</ele>
        <time>2011-04-03T09:57:12.100Z</time>
      </trkpt>
      <trkpt lat="47.32082" lon="-0.20145">
        <ele>80</ele>
        <time>2011-04-03T09:57:13.498Z</time>
      </trkpt>
      <trkpt lat="47.32086" lon="-0.2014">
        <ele>79.8</ele>
        <time>2011-04-03T09:57:14.896Z</time>
      </trkpt>
      <trkpt lat="47.32091" lon="-0.20135">
        <ele>79.5</ele>
        <time>2011-04-03T09:57:16.507Z</time>
      </trkpt>
      <trkpt lat="47.32095" lon="-0.2013">
        <ele>79.3</ele>
        <time>2011-04-03T09:57:17.905Z</time>
      </trkpt>
      <trkpt lat="47.32099" lon="-0.20126">
        <ele>79.1</ele>
        <time>2011-04-03T09:57:19.193Z</time>
      </trkpt>
      <trkpt lat="47.32103" lon="-0.20121">
        <ele>79</ele>
        <time>2011-04-03T09:57:20.591Z</time>
      </trkpt>
      <trkpt lat="47.32108" lon="-0.20116">
        <ele>79</ele>
        <time>2011-04-03T09:57:22.202Z</time>
      </trkpt>
      <trkpt lat="47.32112" lon="-0.20111">
        <ele>79</ele>
        <time>2011-04-03T09:57:23.601Z</time>
      </trkpt>
      <trkpt lat="47.32116" lon="-0.20106">
        <ele>78.9</ele>
        <time>2011-04-03T09:57:25Z</time>
        <extensions>
          <type>
            <highway>track</highway>
            <surface>dirt</surface>
            </type>
        </extensions>
      </trkpt>
      <trkpt lat="47.3212" lon="-0.201">
        <ele>78.8</ele>
        <time>2011-04-03T09:57:26.087Z</time>
      </trkpt>
      <trkpt lat="47.32123" lon="-0.20095">
        <ele>78.8</ele>
        <time>2011-04-03T09:57:26.949Z</time>
      </trkpt>
      <trkpt lat="47.32127" lon="-0.20089">
        <ele>78.9</ele>
        <time>2011-04-03T09:57:28.036Z</time>
      </trkpt>
      <trkpt lat="47.3213" lon="-0.20083">
        <ele>79</ele>
        <time>2011-04-03T09:57:29Z</time>
        <extensions>
          <type>
            <highway>track</highway>
            <surface>dirt</surface>
            </type>
        </extensions>
      </trkpt>
      <trkpt lat="47.32136" lon="-0.20076">
        <ele>79</ele>
        <time>2011-04-03T09:57:30.500Z</time>
      </trkpt>
      <trkpt lat="47.32142" lon="-0.20069">
        <ele>78.9</ele>
        <time>2011-04-03T09:57:32.000Z</time>
      </trkpt>
      <trkpt lat="47.32148" lon="-0.20062">
        <ele>78.7</ele>
        <time>2011-04-03T09:57:33.500Z</time>
      </trkpt>
      <trkpt lat="47.32154" lon="-0.20055">
        <ele>78.4</ele>
        <time>2011-04-03T09:57:35.000Z</time>
      </trkpt>
      <trkpt lat="47.3216" lon="-0.20048">
        <ele>78.2</ele>
        <time>2011-04-03T09:57:36.500Z</time>
      </trkpt>
      <trkpt lat="47.32166" lon="-0.20041">
        <ele>78</ele>
        <time>2011-04-03T09:57:38.000Z</time>
      </trkpt>
      <trkpt lat="47.32172" lon="-0.20034">
        <ele>78</ele>
        <time>2011-04-03T09:57:39.500Z</time>
      </trkpt>
      <trkpt lat="47.32178" lon="-0.20027">
        <ele>78</ele>
        <time>2011-04-03T09:57:41Z</time>
        <extensions>
          <type>
            <highway>track</highway>
            <surface>dirt</surface>
            </type>
        </extensions>
      </trkpt>
      <trkpt lat="47.32182" lon="-0.20021">
        <ele>77.9</ele>
        <time>2011-04-03T09:57:41.984Z</time>
      </trkpt>
      <trkpt lat="47.32186" lon="-0.20014">
        <ele>77.7</ele>
        <time>2011-04-03T09:57:43.055Z</time>
      </trkpt>
      <trkpt lat="47.32189" lon="-0.20008">
        <ele>77.4</ele>
        <time>2011-04-03T09:57:43.927Z</time>
      </trkpt>
      <trkpt lat="47.32193" lon="-0.20001">
        <ele>77.1</ele>
        <time>2011-04-03T09:57:45Z</time>
        <extensions>
          <type>
            <highway>track</highway>
            <surface>dirt</surface>
            </type>
        </extensions>
      </trkpt>
      <trkpt lat="47.32198" lon="-0.19997">
        <ele>77</ele>
        <time>2011-04-03T09:57:45.925Z</time>
      </trkpt>
      <trkpt lat="47.32204" lon="-0.19992">
        <ele>77</ele>
        <time>2011-04-03T09:57:47.046Z</time>
      </trkpt>
      <trkpt lat="47.32209" lon="-0.19988">
        <ele>77</ele>
        <time>2011-04-03T09:57:47.971Z</time>
      </trkpt>
      <trkpt lat="47.32215" lon="-0.19984">
        <ele>77</ele>
        <time>2011-04-03T09:57:49.042Z</time>
      </trkpt>
      <trkpt lat="47.3222" lon="-0.19979">
        <ele>77</ele>
        <time>2011-04-03T09:57:50.025Z</time>
      </trkpt>
      <trkpt lat="47.32225" lon="-0.19975">
        <ele>76.9</ele>
        <time>2011-04-03T09:57:50.951Z</time>
      </trkpt>
      <trkpt lat="47.32231" lon="-0.1997">
        <ele>76.7</ele>
        <time>2011-04-03T09:57:52.073Z</time>
      </trkpt>
      <trkpt lat="47.32236" lon="-0.19966">
        <ele>76.4</ele>
        <time>2011-04-03T09:57:53Z</time>
        <extensions>
          <type>
            <highway>track</highway>
            <surface>dirt</surface>
            </type>
        </extensions>
      </trkpt>
      <trkpt lat="47.32241" lon="-0.19958">
        <ele>76.2</ele>
        <time>2011-04-03T09:57:54.220Z</time>
      </trkpt>
      <trkpt lat="47.32247" lon="-0.1995">
        <ele>76</ele>
        <time>2011-04-03T09:57:55.558Z</time>
      </trkpt>
      <trkpt lat="47.32252" lon="-0.19942">
        <ele>75.9</ele>
        <time>2011-04-03T09:57:56.778Z</time>
      </trkpt>
      <trkpt lat="47.32257" lon="-0.19934">
        <ele>75.5</ele>
        <time>2011-04-03T09:57:57.998Z</time>
      </trkpt>
      <trkpt lat="47.32262" lon="-0.19926">
        <ele>75.2</ele>
        <time>2011-04-03T09:57:59.219Z</time>
      </trkpt>
      <trkpt lat="47.32268" lon="-0.19918">
        <ele>75</ele>
        <time>2011-04-03T09:58:00.557Z</time>
      </trkpt>
      <trkpt lat="47.32273" lon="-0.1991">
        <ele>75</ele>
        <time>2011-04-03T09:58:01.778Z</time>
      </trkpt>
      <trkpt lat="47.32278" lon="-0.19902">
        <ele>75</ele>
        <time>2011-04-03T09:58:03Z</time>
        <extensions>
          <type>
            <highway>track</highway>
            <surface>dirt</surface>
            </type>
        </extensions>
      </trkpt>
      <trkpt lat="47.32283" lon="-0.199">
        <ele>74.8</ele>
        <time>2011-04-03T09:58:03.769Z</time>
      </trkpt>
      <trkpt lat="47.32288" lon="-0.19897">
        <ele>74.6</ele>
        <time>2011-04-03T09:58:04.570Z</time>
      </trkpt>
      <trkpt lat="47.32292" lon="-0.19895">
        <ele>74.5</ele>
        <time>2011-04-03T09:58:05.197Z</time>
      </trkpt>
      <trkpt lat="47.32297" lon="-0.19892">
        <ele>74.3</ele>
        <time>2011-04-03T09:58:06Z</time>
        <extensions>
          <type>
            <highway>track</highway>
            <surface>dirt</surface>
            </type>
        </extensions>
      </trkpt>
      <trkpt lat="47.32304" lon="-0.19891">
        <ele>74.1</ele>
        <time>2011-04-03T09:58:07.053Z</time>
      </trkpt>
      <trkpt lat="47.3231" lon="-0.1989">
        <ele>73.8</ele>
        <time>2011-04-03T09:58:07.957Z</time>
      </trkpt>
      <trkpt lat="47.32317" lon="-0.19889">
        <ele>73.6</ele>
        <time>2011-04-03T09:58:09.011Z</time>
      </trkpt>
      <trkpt lat="47.32324" lon="-0.19888">
        <ele>73.3</ele>
        <time>2011-04-03T09:58:10.065Z</time>
      </trkpt>
      <trkpt lat="47.3233" lon="-0.19886">
        <ele>73.1</ele>
        <time>2011-04-03T09:58:10.986Z</time>
      </trkpt>
      <trkpt lat="47.32337" lon="-0.19885">
        <ele>73</ele>
        <time>2011-04-03T09:58:12.040Z</time>
      </trkpt>
      <trkpt lat="47.32343" lon="-0.19884">
        <ele>72.9</ele>
        <time>2011-04-03T09:58:12.945Z</time>
      </trkpt>
      <trkpt lat="47.3235" lon="-0.19883">
        <ele>72.9</ele>
        <time>2011-04-03T09:58:14Z</time>
        <extensions>
          <type>
            <highway>path</highway>
            <surface>grass</surface>
            </type>
        </extensions>
      </trkpt>
      <trkpt lat="47.32356" lon="-0.19881">
        <ele>72.8</ele>
        <time>2011-04-03T09:58:15.045Z</time>
      </trkpt>
      <trkpt lat="47.32361" lon="-0.19879">
        <ele>72.6</ele>
        <time>2011-04-03T09:58:15.925Z</time>
      </trkpt>
      <trkpt lat="47.32367" lon="-0.19876">
        <ele>72.4</ele>
        <time>2011-04-03T09:58:17.001Z</time>
      </trkpt>
      <trkpt lat="47.32373" lon="-0.19874">
        <ele>72.3</ele>
        <time>2011-04-03T09:58:18.046Z</time>
      </trkpt>
      <trkpt lat="47.32378" lon="-0.19872">
        <ele>72.1</ele>
        <time>2011-04-03T09:58:18.926Z</time>
      </trkpt>
      <trkpt lat="47.32384" lon="-0.1987">
        <ele>72.1</ele>
        <time>2011-04-03T09:58:19.971Z</time>
      </trkpt>
      <trkpt lat="47.3239" lon="-0.19868">
        <ele>72</ele>
        <time>2011-04-03T09:58:21.016Z</time>
      </trkpt>
      <trkpt lat="47.32396" lon="-0.19866">
        <ele>71.8</ele>
        <time>2011-04-03T09:58:22.061Z</time>
      </trkpt>
      <trkpt lat="47.32401" lon="-0.19863">
        <ele>71.6</ele>
        <time>2011-04-03T09:58:22.978Z</time>
      </trkpt>
      <trkpt lat="47.32407" lon="-0.19861">
        <ele>71.4</ele>
        <time>2011-04-03T09:58:24.023Z</time>
      </trkpt>
      <trkpt lat="47.32413" lon="-0.19859">
        <ele>71.1</ele>
        <time>2011-04-03T09:58:25.068Z</time>
      </trkpt>
      <trkpt lat="47.32418" lon="-0.19857">
        <ele>71</ele>
        <time>2011-04-03T09:58:25.949Z</time>
      </trkpt>
      <trkpt lat="47.32424" lon="-0.19855">
        <ele>70.9</ele>
        <time>2011-04-03T09:58:26.995Z</time>
      </trkpt>
      <trkpt lat="47.3243" lon="-0.19852">
        <ele>70.7</ele>
        <time>2011-04-03T09:58:28.072Z</time>
      </trkpt>
      <trkpt lat="47.32435" lon="-0.1985">
        <ele>70.5</ele>
        <time>2011-04-03T09:58:28.953Z</time>
      </trkpt>
      <trkpt lat="47.32441" lon="-0.19848">
        <ele>70.2</ele>
        <time>2011-04-03T09:58:30Z</time>
        <extensions>
          <type>
            <highway>path</highway>
            <surface>grass</surface>
            </type>
        </extensions>
      </trkpt>
      <trkpt lat="47.32445" lon="-0.19845">
        <ele>69.8</ele>
        <time>2011-04-03T09:58:30.722Z</time>
      </trkpt>
      <trkpt lat="47.3245" lon="-0.19843">
        <ele>69.4</ele>
        <time>2011-04-03T09:58:31.555Z</time>
      </trkpt>
      <trkpt lat="47.32454" lon="-0.1984">
        <ele>69.1</ele>
        <time>2011-04-03T09:58:32.277Z</time>
      </trkpt>
      <trkpt lat="47.32458" lon="-0.19837">
        <ele>68.7</ele>
        <time>2011-04-03T09:58:33Z</time>
        <extensions>
          <type>
            <highway>path</highway>
            <surface>grass</surface>
            </type>
        </extensions>
      </trkpt>
      <trkpt lat="47.32462" lon="-0.19833">
        <ele>68.3</ele>
        <time>2011-04-03T09:58:33.627Z</time>
      </trkpt>
      <trkpt lat="47.32466" lon="-0.19829">
        <ele>67.6</ele>
        <time>2011-04-03T09:58:34.254Z</time>
      </trkpt>
      <trkpt lat="47.3247" lon="-0.19825">
        <ele>66.9</ele>
        <time>2011-04-03T09:58:34.881Z</time>
      </trkpt>
      <trkpt lat="47.32474" lon="-0.19821">
        <ele>66.2</ele>
        <time>2011-04-03T09:58:35.508Z</time>
      </trkpt>
      <trkpt lat="47.32478" lon="-0.19817">
        <ele>65.7</ele>
        <time>2011-04-03T09:58:36.136Z</time>
      </trkpt>
      <trkpt lat="47.32482" lon="-0.19813">
        <ele>65.3</ele>
        <time>2011-04-03T09:58:36.764Z</time>
      </trkpt>
      <trkpt lat="47.32486" lon="-0.19809">
        <ele>64.9</ele>
        <time>2011-04-03T09:58:37.392Z</time>
      </trkpt>
      <trkpt lat="47.3249" lon="-0.19806">
        <ele>64.6</ele>
        <time>2011-04-03T09:58:37.975Z</time>
      </trkpt>
      <trkpt lat="47.32494" lon="-0.19802">
        <ele>64.4</ele>
        <time>2011-04-03T09:58:38.603Z</time>
      </trkpt>
      <trkpt lat="47.32498" lon="-0.19798">
        <ele>64.3</ele>
        <time>2011-04-03T09:58:39.231Z</time>
      </trkpt>
      <trkpt lat="47.32502" lon="-0.19794">
        <ele>64.1</ele>
        <time>2011-04-03T09:58:39.859Z</time>
      </trkpt>
      <trkpt lat="47.32506" lon="-0.1979">
        <ele>63.7</ele>
        <time>2011-04-03T09:58:40.487Z</time>
      </trkpt>
      <trkpt lat="47.3251" lon="-0.19786">
        <ele>63.3</ele>
        <time>2011-04-03T09:58:41.115Z</time>
      </trkpt>
      <trkpt lat="47.32514" lon="-0.19782">
        <ele>62.9</ele>
        <time>2011-04-03T09:58:41.743Z</time>
      </trkpt>
      <trkpt lat="47.32518" lon="-0.19778">
        <ele>62.4</ele>
        <time>2011-04-03T09:58:42.371Z</time>
      </trkpt>
      <trkpt lat="47.32522" lon="-0.19774">
        <ele>61.6</ele>
        <time>2011-04-03T09:58:43Z</time>
        <extensions>
          <type>
            <highway>path</highway>
            <surface>grass</surface>
            </type>
        </extensions>
      </trkpt>
      <trkpt lat="47.3253" lon="-0.1977">
        <ele>60.9</ele>
        <time>2011-04-03T09:58:44.221Z</time>
      </trkpt>
      <trkpt lat="47.32539" lon="-0.19767">
        <ele>60.1</ele>
        <time>2011-04-03T09:58:45.555Z</time>
      </trkpt>
      <trkpt lat="47.32547" lon="-0.19763">
        <ele>59.5</ele>
        <time>2011-04-03T09:58:46.777Z</time>
      </trkpt>
      <trkpt lat="47.32555" lon="-0.19759">
        <ele>59</ele>
        <time>2011-04-03T09:58:48Z</time>
        <extensions>
          <type>
            <highway>path</highway>
            <surface>grass</surface>
            </type>
        </extensions>
      </trkpt>
      <trkpt lat="47.3256" lon="-0.19755">
        <ele>58.4</ele>
        <time>2011-04-03T09:58:48.726Z</time>
      </trkpt>
      <trkpt lat="47.32565" lon="-0.19752">
        <ele>57.9</ele>
        <time>2011-04-03T09:58:49.415Z</time>
      </trkpt>
      <trkpt lat="47.32569" lon="-0.19748">
        <ele>57.2</ele>
        <time>2011-04-03T09:58:50.032Z</time>
      </trkpt>
      <trkpt lat="47.32574" lon="-0.19744">
        <ele>56.6</ele>
        <time>2011-04-03T09:58:50.759Z</time>
      </trkpt>
      <trkpt lat="47.32579" lon="-0.19741">
        <ele>56.1</ele>
        <time>2011-04-03T09:58:51.448Z</time>
      </trkpt>
      <trkpt lat="47.32584" lon="-0.19737">
        <ele>55.6</ele>
        <time>2011-04-03T09:58:52.175Z</time>
      </trkpt>
      <trkpt lat="47.32588" lon="-0.19733">
        <ele>55.3</ele>
        <time>2011-04-03T09:58:52.792Z</time>
      </trkpt>
      <trkpt lat="47.32593" lon="-0.1973">
        <ele>54.9</ele>
        <time>2011-04-03T09:58:53.482Z</time>
      </trkpt>
      <trkpt lat="47.32598" lon="-0.19726">
        <ele>54.5</ele>
        <time>2011-04-03T09:58:54.209Z</time>
      </trkpt>
      <trkpt lat="47.32603" lon="-0.19722">
        <ele>54</ele>
        <time>2011-04-03T09:58:54.936Z</time>
      </trkpt>
      <trkpt lat="47.32607" lon="-0.19718">
        <ele>53.6</ele>
        <time>2011-04-03T09:58:55.553Z</time>
      </trkpt>
      <trkpt lat="47.32612" lon="-0.19715">
        <ele>53.3</ele>
        <time>2011-04-03T09:58:56.243Z</time>
      </trkpt>
      <trkpt lat="47.32617" lon="-0.19711">
        <ele>53.2</ele>
        <time>2011-04-03T09:58:56.970Z</time>
      </trkpt>
      <trkpt lat="47.32622" lon="-0.19707">
        <ele>52.9</ele>
        <time>2011-04-03T09:58:57.697Z</time>
      </trkpt>
      <trkpt lat="47.32626" lon="-0.19704">
        <ele>52.5</ele>
        <time>2011-04-03T09:58:58.271Z</time>
      </trkpt>
      <trkpt lat="47.32631" lon="-0.197">
        <ele>52</ele>
        <time>2011-04-03T09:58:59Z</time>
        <extensions>
          <type>
            <highway>path</highway>
            <surface>grass</surface>
            </type>
        </extensions>
      </trkpt>
      <trkpt lat="47.32635" lon="-0.19692">
        <ele>50.7</ele>
        <time>2011-04-03T09:59:00.224Z</time>
      </trkpt>
      <trkpt lat="47.32639" lon="-0.19683">
        <ele>49.8</ele>
        <time>2011-04-03T09:59:01.549Z</time>
      </trkpt>
      <trkpt lat="47.32642" lon="-0.19675">
        <ele>49</ele>
        <time>2011-04-03T09:59:02.674Z</time>
      </trkpt>
      <trkpt lat="47.32646" lon="-0.19666">
        <ele>48.2</ele>
        <time>2011-04-03T09:59:04Z</time>
        <extensions>
          <type>
            <highway>path</highway>
            <surface>grass</surface>
            </type>
        </extensions>
      </trkpt>
      <trkpt lat="47.32644" lon="-0.19655">
        <ele>46.8</ele>
        <time>2011-04-03T09:59:05.484Z</time>
      </trkpt>
      <trkpt lat="47.32642" lon="-0.19644">
        <ele>45.5</ele>
        <time>2011-04-03T09:59:06.968Z</time>
      </trkpt>
      <trkpt lat="47.32639" lon="-0.19633">
        <ele>43.9</ele>
        <time>2011-04-03T09:59:08.514Z</time>
      </trkpt>
      <trkpt lat="47.32637" lon="-0.19622">
        <ele>41.9</ele>
        <time>2011-04-03T09:59:10Z</time>
        <extensions>
          <type>
            <highway>path</highway>
            <surface>grass</surface>
            </type>
        </extensions>
      </trkpt>
      <trkpt lat="47.3264" lon="-0.1961">
        <ele>39.7</ele>
        <time>2011-04-03T09:59:11.331Z</time>
      </trkpt>
      <trkpt lat="47.32643" lon="-0.19597">
        <ele>37.7</ele>
        <time>2011-04-03T09:59:12.760Z</time>
      </trkpt>
      <trkpt lat="47.32646" lon="-0.19585">
        <ele>35.7</ele>
        <time>2011-04-03T09:59:14.091Z</time>
      </trkpt>
      <trkpt lat="47.32649" lon="-0.19572">
        <ele>34.9</ele>
        <time>2011-04-03T09:59:15.521Z</time>
      </trkpt>
      <trkpt lat="47.32651" lon="-0.1956">
        <ele>33.9</ele>
        <time>2011-04-03T09:59:16.807Z</time>
      </trkpt>
      <trkpt lat="47.32654" lon="-0.19547">
        <ele>32.8</ele>
        <time>2011-04-03T09:59:18.237Z</time>
      </trkpt>
      <trkpt lat="47.32657" lon="-0.19535">
        <ele>31.6</ele>
        <time>2011-04-03T09:59:19.569Z</time>
      </trkpt>
      <trkpt lat="47.3266" lon="-0.19522">
        <ele>30.8</ele>
        <time>2011-04-03T09:59:21Z</time>
        <extensions>
          <type>
            <highway>path</highway>
            <surface>grass</surface>
            </type>
        </extensions>
      </trkpt>
      <trkpt lat="47.32659" lon="-0.19514">
        <ele>31</ele>
        <time>2011-04-03T09:59:22.659Z</time>
      </trkpt>
      <trkpt lat="47.32657" lon="-0.19506">
        <ele>31.3</ele>
        <time>2011-04-03T09:59:24.398Z</time>
      </trkpt>
      <trkpt lat="47.32656" lon="-0.19497">
        <ele>31.4</ele>
        <time>2011-04-03T09:59:26.259Z</time>
      </trkpt>
      <trkpt lat="47.32654" lon="-0.19489">
        <ele>31.2</ele>
        <time>2011-04-03T09:59:28Z</time>
        <extensions>
          <type>
            <highway>secondary</highway>
            <surface>asphalt</surface>
            </type>
        </extensions>
      </trkpt>
      <trkpt lat="47.3265" lon="-0.19482">
        <ele>31.4</ele>
        <time>2011-04-03T09:59:29.130Z</time>
      </trkpt>
      <trkpt lat="47.32647" lon="-0.19474">
        <ele>31.7</ele>
        <time>2011-04-03T09:59:30.259Z</time>
      </trkpt>
      <trkpt lat="47.32643" lon="-0.19467">
        <ele>31.7</ele>
        <time>2011-04-03T09:59:31.389Z</time>
      </trkpt>
      <trkpt lat="47.3264" lon="-0.1946">
        <ele>31.5</ele>
        <time>2011-04-03T09:59:32.412Z</time>
      </trkpt>
      <trkpt lat="47.32636" lon="-0.19452">
        <ele>32.3</ele>
        <time>2011-04-03T09:59:33.640Z</time>
      </trkpt>
      <trkpt lat="47.32632" lon="-0.19445">
        <ele>33.6</ele>
        <time>2011-04-03T09:59:34.771Z</time>
      </trkpt>
      <trkpt lat="47.32629" lon="-0.19438">
        <ele>34.5</ele>
        <time>2011-04-03T09:59:35.794Z</time>
      </trkpt>
      <trkpt lat="47.32625" lon="-0.1943">
        <ele>34.7</ele>
        <time>2011-04-03T09:59:37.022Z</time>
      </trkpt>
      <trkpt lat="47.32621" lon="-0.19423">
        <ele>34.3</ele>
        <time>2011-04-03T09:59:38.153Z</time>
      </trkpt>
      <trkpt lat="47.32618" lon="-0.19416">
        <ele>33.4</ele>
        <time>2011-04-03T09:59:39.176Z</time>
      </trkpt>
      <trkpt lat="47.32614" lon="-0.19408">
        <ele>32.9</ele>
        <time>2011-04-03T09:59:40.404Z</time>
      </trkpt>
      <trkpt lat="47.32611" lon="-0.19401">
        <ele>32.5</ele>
        <time>2011-04-03T09:59:41.427Z</time>
      </trkpt>
      <trkpt lat="47.32607" lon="-0.19394">
        <ele>33</ele>
        <time>2011-04-03T09:59:42.558Z</time>
      </trkpt>
      <trkpt lat="47.32603" lon="-0.19386">
        <ele>33.6</ele>
        <time>2011-04-03T09:59:43.786Z</time>
      </trkpt>
      <trkpt lat="47.326" lon="-0.19379">
        <ele>34.1</ele>
        <time>2011-04-03T09:59:44.809Z</time>
      </trkpt>
      <trkpt lat="47.32596" lon="-0.19372">
        <ele>34.4</ele>
        <time>2011-04-03T09:59:45.940Z</time>
      </trkpt>
      <trkpt lat="47.32592" lon="-0.19364">
        <ele>34.4</ele>
        <time>2011-04-03T09:59:47.168Z</time>
      </trkpt>
      <trkpt lat="47.32589" lon="-0.19357">
        <ele>34.2</ele>
        <time>2011-04-03T09:59:48.191Z</time>
      </trkpt>
      <trkpt lat="47.32585" lon="-0.1935">
        <ele>34</ele>
        <time>2011-04-03T09:59:49.322Z</time>
      </trkpt>
      <trkpt lat="47.32582" lon="-0.19342">
        <ele>33.5</ele>
        <time>2011-04-03T09:59:50.451Z</time>
      </trkpt>
      <trkpt lat="47.32578" lon="-0.19335">
        <ele>33.1</ele>
        <time>2011-04-03T09:59:51.582Z</time>
      </trkpt>
      <trkpt lat="47.32574" lon="-0.19327">
        <ele>32.9</ele>
        <time>2011-04-03T09:59:52.810Z</time>
      </trkpt>
      <trkpt lat="47.32571" lon="-0.1932">
        <ele>33</ele>
        <time>2011-04-03T09:59:53.833Z</time>
      </trkpt>
      <trkpt lat="47.32567" lon="-0.19313">
        <ele>33</ele>
        <time>2011-04-03T09:59:54.964Z</time>
      </trkpt>
      <trkpt lat="47.32563" lon="-0.19305">
        <ele>33.2</ele>
        <time>2011-04-03T09:59:56.192Z</time>
      </trkpt>
      <trkpt lat="47.3256" lon="-0.19298">
        <ele>33.3</ele>
        <time>2011-04-03T09:59:57.215Z</time>
      </trkpt>
      <trkpt lat="47.32556" lon="-0.19291">
        <ele>33.2</ele>
        <time>2011-04-03T09:59:58.346Z</time>
      </trkpt>
      <trkpt lat="47.32553" lon="-0.19283">
        <ele>33.2</ele>
        <time>2011-04-03T09:59:59.475Z</time>
      </trkpt>
      <trkpt lat="47.32549" lon="-0.19276">
        <ele>33.6</ele>
        <time>2011-04-03T10:00:00.606Z</time>
      </trkpt>
      <trkpt lat="47.32545" lon="-0.19269">
        <ele>34.6</ele>
        <time>2011-04-03T10:00:01.737Z</time>
      </trkpt>
      <trkpt lat="47.32542" lon="-0.19261">
        <ele>35.3</ele>
        <time>2011-04-03T10:00:02.867Z</time>
      </trkpt>
      <trkpt lat="47.32538" lon="-0.19254">
        <ele>35.8</ele>
        <time>2011-04-03T10:00:04Z</time>
        <extensions>
          <type>
            <highway>secondary</highway>
            <surface>asphalt</surface>
            </type>
        </extensions>
      </trkpt>
      <trkpt lat="47.32533" lon="-0.19246">
        <ele>35.6</ele>
        <time>2011-04-03T10:00:05.120Z</time>
      </trkpt>
      <trkpt lat="47.32529" lon="-0.19237">
        <ele>34.5</ele>
        <time>2011-04-03T10:00:06.228Z</time>
      </trkpt>
      <trkpt lat="47.32524" lon="-0.19229">
        <ele>34.1</ele>
        <time>2011-04-03T10:00:07.348Z</time>
      </trkpt>
      <trkpt lat="47.3252" lon="-0.1922">
        <ele>34.2</ele>
        <time>2011-04-03T10:00:08.456Z</time>
      </trkpt>
      <trkpt lat="47.32515" lon="-0.19212">
        <ele>34.2</ele>
        <time>2011-04-03T10:00:09.577Z</time>
      </trkpt>
      <trkpt lat="47.3251" lon="-0.19203">
        <ele>33.1</ele>
        <time>2011-04-03T10:00:10.776Z</time>
      </trkpt>
      <trkpt lat="47.32506" lon="-0.19195">
        <ele>30.8</ele>
        <time>2011-04-03T10:00:11.800Z</time>
      </trkpt>
      <trkpt lat="47.32501" lon="-0.19186">
        <ele>30.6</ele>
        <time>2011-04-03T10:00:13Z</time>
        <extensions>
          <type>
            <highway>secondary</highway>
            <surface>asphalt</surface>
            </type>
        </extensions>
      </trkpt>
      <trkpt lat="47.32497" lon="-0.19181">
        <ele>31.2</ele>
        <time>2011-04-03T10:00:13.783Z</time>
      </trkpt>
      <trkpt lat="47.32494" lon="-0.19176">
        <ele>31.6</ele>
        <time>2011-04-03T10:00:14.459Z</time>
      </trkpt>
      <trkpt lat="47.3249" lon="-0.1917">
        <ele>31.6</ele>
        <time>2011-04-03T10:00:15.312Z</time>
      </trkpt>
      <trkpt lat="47.32487" lon="-0.19165">
        <ele>31.3</ele>
        <time>2011-04-03T10:00:15.988Z</time>
      </trkpt>
      <trkpt lat="47.32483" lon="-0.1916">
        <ele>31.3</ele>
        <time>2011-04-03T10:00:16.772Z</time>
      </trkpt>
      <trkpt lat="47.3248" lon="-0.19155">
        <ele>31.2</ele>
        <time>2011-04-03T10:00:17.448Z</time>
      </trkpt>
      <trkpt lat="47.32476" lon="-0.1915">
        <ele>30.9</ele>
        <time>2011-04-03T10:00:18.232Z</time>
      </trkpt>
      <trkpt lat="47.32473" lon="-0.19145">
        <ele>30.6</ele>
        <time>2011-04-03T10:00:18.909Z</time>
      </trkpt>
      <trkpt lat="47.32469" lon="-0.19139">
        <ele>30.8</ele>
        <time>2011-04-03T10:00:19.762Z</time>
      </trkpt>
      <trkpt lat="47.32465" lon="-0.19134">
        <ele>31.2</ele>
        <time>2011-04-03T10:00:20.546Z</time>
      </trkpt>
      <trkpt lat="47.32462" lon="-0.19129">
        <ele>31.6</ele>
        <time>2011-04-03T10:00:21.223Z</time>
      </trkpt>
      <trkpt lat="47.32458" lon="-0.19124">
        <ele>31.9</ele>
        <time>2011-04-03T10:00:22.007Z</time>
      </trkpt>
      <trkpt lat="47.32455" lon="-0.19119">
        <ele>32.1</ele>
        <time>2011-04-03T10:00:22.684Z</time>
      </trkpt>
      <trkpt lat="47.32451" lon="-0.19113">
        <ele>32.2</ele>
        <time>2011-04-03T10:00:23.537Z</time>
      </trkpt>
      <trkpt lat="47.32448" lon="-0.19108">
        <ele>32</ele>
        <time>2011-04-03T10:00:24.214Z</time>
      </trkpt>
      <trkpt lat="47.32444" lon="-0.19103">
        <ele>31.6</ele>
        <time>2011-04-03T10:00:25Z</time>
        <extensions>
          <type>
            <highway>secondary</highway>
            <surface>asphalt</surface>
            </type>
        </extensions>
      </trkpt>
      <trkpt lat="47.32441" lon="-0.19097">
        <ele>30.8</ele>
        <time>2011-04-03T10:00:25.771Z</time>
      </trkpt>
      <trkpt lat="47.32438" lon="-0.1909">
        <ele>30.1</ele>
        <time>2011-04-03T10:00:26.627Z</time>
      </trkpt>
      <trkpt lat="47.32435" lon="-0.19084">
        <ele>29.7</ele>
        <time>2011-04-03T10:00:27.398Z</time>
      </trkpt>
      <trkpt lat="47.32432" lon="-0.19077">
        <ele>29.8</ele>
        <time>2011-04-03T10:00:28.254Z</time>
      </trkpt>
      <trkpt lat="47.32429" lon="-0.19071">
        <ele>29.8</ele>
        <time>2011-04-03T10:00:29.025Z</time>
      </trkpt>
      <trkpt lat="47.32426" lon="-0.19064">
        <ele>29.9</ele>
        <time>2011-04-03T10:00:29.881Z</time>
      </trkpt>
      <trkpt lat="47.32423" lon="-0.19058">
        <ele>30</ele>
        <time>2011-04-03T10:00:30.652Z</time>
      </trkpt>
      <trkpt lat="47.3242" lon="-0.19051">
        <ele>29.9</ele>
        <time>2011-04-03T10:00:31.508Z</time>
      </trkpt>
      <trkpt lat="47.32417" lon="-0.19045">
        <ele>29.7</ele>
        <time>2011-04-03T10:00:32.279Z</time>
      </trkpt>
      <trkpt lat="47.32414" lon="-0.19038">
        <ele>29.2</ele>
        <time>2011-04-03T10:00:33.135Z</time>
      </trkpt>
      <trkpt lat="47.32411" lon="-0.19032">
        <ele>28.6</ele>
        <time>2011-04-03T10:00:33.906Z</time>
      </trkpt>
      <trkpt lat="47.32408" lon="-0.19025">
        <ele>28.2</ele>
        <time>2011-04-03T10:00:34.762Z</time>
      </trkpt>
      <trkpt lat="47.32405" lon="-0.19019">
        <ele>28.2</ele>
        <time>2011-04-03T10:00:35.533Z</time>
      </trkpt>
      <trkpt lat="47.32402" lon="-0.19012">
        <ele>28.2</ele>
        <time>2011-04-03T10:00:36.389Z</time>
      </trkpt>
      <trkpt lat="47.32399" lon="-0.19006">
        <ele>28.3</ele>
        <time>2011-04-03T10:00:37.160Z</time>
      </trkpt>
      <trkpt lat="47.32396" lon="-0.18999">
        <ele>28.4</ele>
        <time>2011-04-03T10:00:38.016Z</time>
      </trkpt>
      <trkpt lat="47.32393" lon="-0.18993">
        <ele>28.6</ele>
        <time>2011-04-03T10:00:38.787Z</time>
      </trkpt>
      <trkpt lat="47.3239" lon="-0.18986">
        <ele>28.8</ele>
        <time>2011-04-03T10:00:39.643Z</time>
      </trkpt>
      <trkpt lat="47.32387" lon="-0.1898">
        <ele>29</ele>
        <time>2011-04-03T10:00:40.414Z</time>
      </trkpt>
      <trkpt lat="47.32384" lon="-0.18973">
        <ele>29.2</ele>
        <time>2011-04-03T10:00:41.270Z</time>
      </trkpt>
      <trkpt lat="47.32381" lon="-0.18967">
        <ele>28.8</ele>
        <time>2011-04-03T10:00:42.041Z</time>
      </trkpt>
      <trkpt lat="47.32378" lon="-0.1896">
        <ele>28.3</ele>
        <time>2011-04-03T10:00:42.897Z</time>
      </trkpt>
      <trkpt lat="47.32375" lon="-0.18954">
        <ele>27.8</ele>
        <time>2011-04-03T10:00:43.668Z</time>
      </trkpt>
      <trkpt lat="47.32372" lon="-0.18947">
        <ele>27.2</ele>
        <time>2011-04-03T10:00:44.524Z</time>
      </trkpt>
      <trkpt lat="47.32369" lon="-0.18941">
        <ele>27</ele>
        <time>2011-04-03T10:00:45.295Z</time>
      </trkpt>
      <trkpt lat="47.32366" lon="-0.18934">
        <ele>27.1</ele>
        <time>2011-04-03T10:00:46.151Z</time>
      </trkpt>
      <trkpt lat="47.32363" lon="-0.18928">
        <ele>27.4</ele>
        <time>2011-04-03T10:00:46.922Z</time>
      </trkpt>
      <trkpt lat="47.3236" lon="-0.18921">
        <ele>27.8</ele>
        <time>2011-04-03T10:00:47.778Z</time>
      </trkpt>
      <trkpt lat="47.32358" lon="-0.18915">
        <ele>27.7</ele>
        <time>2011-04-03T10:00:48.469Z</time>
      </trkpt>
      <trkpt lat="47.32355" lon="-0.18908">
        <ele>27.5</ele>
        <time>2011-04-03T10:00:49.325Z</time>
      </trkpt>
      <trkpt lat="47.32352" lon="-0.18902">
        <ele>27.3</ele>
        <time>2011-04-03T10:00:50.096Z</time>
      </trkpt>
      <trkpt lat="47.32349" lon="-0.18895">
        <ele>27.1</ele>
        <time>2011-04-03T10:00:50.952Z</time>
      </trkpt>
      <trkpt lat="47.32346" lon="-0.18889">
        <ele>26.9</ele>
        <time>2011-04-03T10:00:51.723Z</time>
      </trkpt>
      <trkpt lat="47.32343" lon="-0.18882">
        <ele>26.6</ele>
        <time>2011-04-03T10:00:52.579Z</time>
      </trkpt>
      <trkpt lat="47.3234" lon="-0.18876">
        <ele>26.5</ele>
        <time>2011-04-03T10:00:53.350Z</time>
      </trkpt>
      <trkpt lat="47.32337" lon="-0.18869">
        <ele>26.6</ele>
        <time>2011-04-03T10:00:54.206Z</time>
      </trkpt>
      <trkpt lat="47.32334" lon="-0.18863">
        <ele>26.9</ele>
        <time>2011-04-03T10:00:54.977Z</time>
      </trkpt>
      <trkpt lat="47.32331" lon="-0.18856">
        <ele>27.2</ele>
        <time>2011-04-03T10:00:55.833Z</time>
      </trkpt>
      <trkpt lat="47.32328" lon="-0.1885">
        <ele>27.5</ele>
        <time>2011-04-03T10:00:56.604Z</time>
      </trkpt>
      <trkpt lat="47.32325" lon="-0.18843">
        <ele>27.6</ele>
        <time>2011-04-03T10:00:57.460Z</time>
      </trkpt>
      <trkpt lat="47.32322" lon="-0.18837">
        <ele>27.6</ele>
        <time>2011-04-03T10:00:58.231Z</time>
      </trkpt>
      <trkpt lat="47.32319" lon="-0.1883">
        <ele>27.3</ele>
        <time>2011-04-03T10:00:59.087Z</time>
      </trkpt>
      <trkpt lat="47.32316" lon="-0.18824">
        <ele>27</ele>
        <time>2011-04-03T10:00:59.858Z</time>
      </trkpt>
      <trkpt lat="47.32313" lon="-0.18817">
        <ele>27</ele>
        <time>2011-04-03T10:01:00.714Z</time>
      </trkpt>
      <trkpt lat="47.3231" lon="-0.18811">
        <ele>27.4</ele>
        <time>2011-04-03T10:01:01.485Z</time>
      </trkpt>
      <trkpt lat="47.32307" lon="-0.18804">
        <ele>27.9</ele>
        <time>2011-04-03T10:01:02.342Z</time>
      </trkpt>
      <trkpt lat="47.32304" lon="-0.18798">
        <ele>28.3</ele>
        <time>2011-04-03T10:01:03.113Z</time>
      </trkpt>
      <trkpt lat="47.32301" lon="-0.18791">
        <ele>28.4</ele>
        <time>2011-04-03T10:01:03.970Z</time>
      </trkpt>
      <trkpt lat="47.32298" lon="-0.18785">
        <ele>28.4</ele>
        <time>2011-04-03T10:01:04.741Z</time>
      </trkpt>
      <trkpt lat="47.32295" lon="-0.18778">
        <ele>28.2</ele>
        <time>2011-04-03T10:01:05.598Z</time>
      </trkpt>
      <trkpt lat="47.32292" lon="-0.18772">
        <ele>27.6</ele>
        <time>2011-04-03T10:01:06.369Z</time>
      </trkpt>
      <trkpt lat="47.32289" lon="-0.18765">
        <ele>27.2</ele>
        <time>2011-04-03T10:01:07.226Z</time>
      </trkpt>
      <trkpt lat="47.32286" lon="-0.18759">
        <ele>27.1</ele>
        <time>2011-04-03T10:01:07.997Z</time>
      </trkpt>
      <trkpt lat="47.32283" lon="-0.18752">
        <ele>27.3</ele>
        <time>2011-04-03T10:01:08.854Z</time>
      </trkpt>
      <trkpt lat="47.3228" lon="-0.18746">
        <ele>27.4</ele>
        <time>2011-04-03T10:01:09.625Z</time>
      </trkpt>
      <trkpt lat="47.32277" lon="-0.18739">
        <ele>27.3</ele>
        <time>2011-04-03T10:01:10.482Z</time>
      </trkpt>
      <trkpt lat="47.32274" lon="-0.18733">
        <ele>27.1</ele>
        <time>2011-04-03T10:01:11.253Z</time>
      </trkpt>
      <trkpt lat="47.32271" lon="-0.18726">
        <ele>26.9</ele>
        <time>2011-04-03T10:01:12.110Z</time>
      </trkpt>
      <trkpt lat="47.32268" lon="-0.1872">
        <ele>27</ele>
        <time>2011-04-03T10:01:12.882Z</time>
      </trkpt>
      <trkpt lat="47.32265" lon="-0.18713">
        <ele>27.2</ele>
        <time>2011-04-03T10:01:13.739Z</time>
      </trkpt>
      <trkpt lat="47.32262" lon="-0.18707">
        <ele>27.5</ele>
        <time>2011-04-03T10:01:14.511Z</time>
      </trkpt>
      <trkpt lat="47.32259" lon="-0.187">
        <ele>28.1</ele>
        <time>2011-04-03T10:01:15.369Z</time>
      </trkpt>
      <trkpt lat="47.32256" lon="-0.18694">
        <ele>28.6</ele>
        <time>2011-04-03T10:01:16.141Z</time>
      </trkpt>
      <trkpt lat="47.32253" lon="-0.18687">
        <ele>28.4</ele>
        <time>2011-04-03T10:01:17Z</time>
        <extensions>
          <type>
            <highway>secondary</highway>
            <surface>asphalt</surface>
            </type>
        </extensions>
      </trkpt>
      <trkpt lat="47.32248" lon="-0.18679">
        <ele>27.8</ele>
        <time>2011-04-03T10:01:18.026Z</time>
      </trkpt>
      <trkpt lat="47.32244" lon="-0.18671">
        <ele>27</ele>
        <time>2011-04-03T10:01:18.963Z</time>
      </trkpt>
      <trkpt lat="47.32239" lon="-0.18663">
        <ele>26.7</ele>
        <time>2011-04-03T10:01:19.989Z</time>
      </trkpt>
      <trkpt lat="47.32234" lon="-0.18655">
        <ele>27</ele>
        <time>2011-04-03T10:01:21.015Z</time>
      </trkpt>
      <trkpt lat="47.32229" lon="-0.18647">
        <ele>27.7</ele>
        <time>2011-04-03T10:01:22.041Z</time>
      </trkpt>
      <trkpt lat="47.32225" lon="-0.18639">
        <ele>28.6</ele>
        <time>2011-04-03T10:01:22.978Z</time>
      </trkpt>
      <trkpt lat="47.3222" lon="-0.18631">
        <ele>28</ele>
        <time>2011-04-03T10:01:24.004Z</time>
      </trkpt>
      <trkpt lat="47.32215" lon="-0.18624">
        <ele>27.2</ele>
        <time>2011-04-03T10:01:24.963Z</time>
      </trkpt>
      <trkpt lat="47.3221" lon="-0.18616">
        <ele>27</ele>
        <time>2011-04-03T10:01:25.989Z</time>
      </trkpt>
      <trkpt lat="47.32206" lon="-0.18608">
        <ele>27.4</ele>
        <time>2011-04-03T10:01:26.927Z</time>
      </trkpt>
      <trkpt lat="47.32201" lon="-0.186">
        <ele>28</ele>
        <time>2011-04-03T10:01:27.953Z</time>
      </trkpt>
      <trkpt lat="47.32196" lon="-0.18592">
        <ele>28.7</ele>
        <time>2011-04-03T10:01:28.980Z</time>
      </trkpt>
      <trkpt lat="47.32191" lon="-0.18584">
        <ele>28.8</ele>
        <time>2011-04-03T10:01:30.007Z</time>
      </trkpt>
      <trkpt lat="47.32187" lon="-0.18576">
        <ele>27.5</ele>
        <time>2011-04-03T10:01:30.945Z</time>
      </trkpt>
      <trkpt lat="47.32182" lon="-0.18568">
        <ele>26.8</ele>
        <time>2011-04-03T10:01:31.972Z</time>
      </trkpt>
      <trkpt lat="47.32177" lon="-0.1856">
        <ele>26.7</ele>
        <time>2011-04-03T10:01:33Z</time>
        <extensions>
          <type>
            <highway>secondary</highway>
            <surface>asphalt</surface>
            </type>
        </extensions>
      </trkpt>
      <trkpt lat="47.32173" lon="-0.18554">
        <ele>27.1</ele>
        <time>2011-04-03T10:01:33.901Z</time>
      </trkpt>
      <trkpt lat="47.32168" lon="-0.18547">
        <ele>27.8</ele>
        <time>2011-04-03T10:01:34.989Z</time>
      </trkpt>
      <trkpt lat="47.32164" lon="-0.18541">
        <ele>28</ele>
        <time>2011-04-03T10:01:35.890Z</time>
      </trkpt>
      <trkpt lat="47.3216" lon="-0.18534">
        <ele>28</ele>
        <time>2011-04-03T10:01:36.870Z</time>
      </trkpt>
      <trkpt lat="47.32155" lon="-0.18528">
        <ele>28</ele>
        <time>2011-04-03T10:01:37.888Z</time>
      </trkpt>
      <trkpt lat="47.32151" lon="-0.18522">
        <ele>27.9</ele>
        <time>2011-04-03T10:01:38.789Z</time>
      </trkpt>
      <trkpt lat="47.32147" lon="-0.18515">
        <ele>28.1</ele>
        <time>2011-04-03T10:01:39.769Z</time>
      </trkpt>
      <trkpt lat="47.32143" lon="-0.18509">
        <ele>28.4</ele>
        <time>2011-04-03T10:01:40.670Z</time>
      </trkpt>
      <trkpt lat="47.32138" lon="-0.18502">
        <ele>28.9</ele>
        <time>2011-04-03T10:01:41.758Z</time>
      </trkpt>
      <trkpt lat="47.32134" lon="-0.18496">
        <ele>28.8</ele>
        <time>2011-04-03T10:01:42.659Z</time>
      </trkpt>
      <trkpt lat="47.3213" lon="-0.1849">
        <ele>28.8</ele>
        <time>2011-04-03T10:01:43.560Z</time>
      </trkpt>
      <trkpt lat="47.32125" lon="-0.18483">
        <ele>28.8</ele>
        <time>2011-04-03T10:01:44.648Z</time>
      </trkpt>
      <trkpt lat="47.32121" lon="-0.18477">
        <ele>28.9</ele>
        <time>2011-04-03T10:01:45.549Z</time>
      </trkpt>
      <trkpt lat="47.32117" lon="-0.1847">
        <ele>28.9</ele>
        <time>2011-04-03T10:01:46.529Z</time>
      </trkpt>
      <trkpt lat="47.32112" lon="-0.18464">
        <ele>28.6</ele>
        <time>2011-04-03T10:01:47.547Z</time>
      </trkpt>
      <trkpt lat="47.32108" lon="-0.18458">
        <ele>28.4</ele>
        <time>2011-04-03T10:01:48.448Z</time>
      </trkpt>
      <trkpt lat="47.32104" lon="-0.18451">
        <ele>28.2</ele>
        <time>2011-04-03T10:01:49.428Z</time>
      </trkpt>
      <trkpt lat="47.32099" lon="-0.18445">
        <ele>28</ele>
        <time>2011-04-03T10:01:50.446Z</time>
      </trkpt>
      <trkpt lat="47.32095" lon="-0.18438">
        <ele>27.8</ele>
        <time>2011-04-03T10:01:51.426Z</time>
      </trkpt>
      <trkpt lat="47.32091" lon="-0.18432">
        <ele>28</ele>
        <time>2011-04-03T10:01:52.327Z</time>
      </trkpt>
      <trkpt lat="47.32086" lon="-0.18426">
        <ele>28.4</ele>
        <time>2011-04-03T10:01:53.345Z</time>
      </trkpt>
      <trkpt lat="47.32082" lon="-0.18419">
        <ele>28.9</ele>
        <time>2011-04-03T10:01:54.325Z</time>
      </trkpt>
      <trkpt lat="47.32078" lon="-0.18413">
        <ele>28.5</ele>
        <time>2011-04-03T10:01:55.226Z</time>
      </trkpt>
      <trkpt lat="47.32074" lon="-0.18406">
        <ele>28</ele>
        <time>2011-04-03T10:01:56.206Z</time>
      </trkpt>
      <trkpt lat="47.32069" lon="-0.184">
        <ele>27.8</ele>
        <time>2011-04-03T10:01:57.224Z</time>
      </trkpt>
      <trkpt lat="47.32065" lon="-0.18393">
        <ele>27.9</ele>
        <time>2011-04-03T10:01:58.205Z</time>
      </trkpt>
      <trkpt lat="47.32061" lon="-0.18387">
        <ele>28.1</ele>
        <time>2011-04-03T10:01:59.106Z</time>
      </trkpt>
      <trkpt lat="47.32056" lon="-0.18381">
        <ele>28</ele>
        <time>2011-04-03T10:02:00.125Z</time>
      </trkpt>
      <trkpt lat="47.32052" lon="-0.18374">
        <ele>27.6</ele>
        <time>2011-04-03T10:02:01.106Z</time>
      </trkpt>
      <trkpt lat="47.32048" lon="-0.18368">
        <ele>27.3</ele>
        <time>2011-04-03T10:02:02.008Z</time>
      </trkpt>
      <trkpt lat="47.32043" lon="-0.18361">
        <ele>27.3</ele>
        <time>2011-04-03T10:02:03.097Z</time>
      </trkpt>
      <trkpt lat="47.32039" lon="-0.18355">
        <ele>27.6</ele>
        <time>2011-04-03T10:02:04Z</time>
        <extensions>
          <type>
            <highway>secondary</highway>
            <surface>asphalt</surface>
            </type>
        </extensions>
      </trkpt>
      <trkpt lat="47.32035" lon="-0.18348">
        <ele>27.9</ele>
        <time>2011-04-03T10:02:04.990Z</time>
      </trkpt>
      <trkpt lat="47.32032" lon="-0.1834">
        <ele>28.3</ele>
        <time>2011-04-03T10:02:05.979Z</time>
      </trkpt>
      <trkpt lat="47.32028" lon="-0.18333">
        <ele>28.9</ele>
        <time>2011-04-03T10:02:06.970Z</time>
      </trkpt>
      <trkpt lat="47.32025" lon="-0.18325">
        <ele>28.8</ele>
        <time>2011-04-03T10:02:07.959Z</time>
      </trkpt>
      <trkpt lat="47.32021" lon="-0.18318">
        <ele>28.7</ele>
        <time>2011-04-03T10:02:08.950Z</time>
      </trkpt>
      <trkpt lat="47.32017" lon="-0.1831">
        <ele>28.5</ele>
        <time>2011-04-03T10:02:10.026Z</time>
      </trkpt>
      <trkpt lat="47.32014" lon="-0.18303">
        <ele>28.3</ele>
        <time>2011-04-03T10:02:10.923Z</time>
      </trkpt>
      <trkpt lat="47.3201" lon="-0.18295">
        <ele>28.1</ele>
        <time>2011-04-03T10:02:12Z</time>
        <extensions>
          <type>
            <highway>secondary</highway>
            <surface>asphalt</surface>
            </type>
        </extensions>
      </trkpt>
      <trkpt lat="47.32006" lon="-0.18285">
        <ele>28.1</ele>
        <time>2011-04-03T10:02:13.466Z</time>
      </trkpt>
      <trkpt lat="47.32002" lon="-0.18274">
        <ele>28.7</ele>
        <time>2011-04-03T10:02:15.043Z</time>
      </trkpt>
      <trkpt lat="47.31998" lon="-0.18264">
        <ele>29.3</ele>
        <time>2011-04-03T10:02:16.509Z</time>
      </trkpt>
      <trkpt lat="47.31994" lon="-0.18253">
        <ele>29.4</ele>
        <time>2011-04-03T10:02:18.086Z</time>
      </trkpt>
      <trkpt lat="47.3199" lon="-0.18243">
        <ele>29.3</ele>
        <time>2011-04-03T10:02:19.553Z</time>
      </trkpt>
      <trkpt lat="47.31985" lon="-0.18232">
        <ele>29.2</ele>
        <time>2011-04-03T10:02:21.226Z</time>
      </trkpt>
      <trkpt lat="47.31981" lon="-0.18222">
        <ele>29</ele>
        <time>2011-04-03T10:02:22.693Z</time>
      </trkpt>
      <trkpt lat="47.31977" lon="-0.18211">
        <ele>28.7</ele>
        <time>2011-04-03T10:02:24.270Z</time>
      </trkpt>
      <trkpt lat="47.31973" lon="-0.18201">
        <ele>28.9</ele>
        <time>2011-04-03T10:02:25.737Z</time>
      </trkpt>
      <trkpt lat="47.31969" lon="-0.1819">
        <ele>29.4</ele>
        <time>2011-04-03T10:02:27.314Z</time>
      </trkpt>
      <trkpt lat="47.31965" lon="-0.1818">
        <ele>29.6</ele>
        <time>2011-04-03T10:02:28.781Z</time>
      </trkpt>
      <trkpt lat="47.31961" lon="-0.18169">
        <ele>29.5</ele>
        <time>2011-04-03T10:02:30.358Z</time>
      </trkpt>
      <trkpt lat="47.31957" lon="-0.18159">
        <ele>28.9</ele>
        <time>2011-04-03T10:02:31.825Z</time>
      </trkpt>
      <trkpt lat="47.31953" lon="-0.18148">
        <ele>28.4</ele>
        <time>2011-04-03T10:02:33.402Z</time>
      </trkpt>
      <trkpt lat="47.31949" lon="-0.18138">
        <ele>28.4</ele>
        <time>2011-04-03T10:02:34.869Z</time>
      </trkpt>
      <trkpt lat="47.31945" lon="-0.18127">
        <ele>29</ele>
        <time>2011-04-03T10:02:36.446Z</time>
      </trkpt>
      <trkpt lat="47.3194" lon="-0.18117">
        <ele>29.3</ele>
        <time>2011-04-03T10:02:38.016Z</time>
      </trkpt>
      <trkpt lat="47.31936" lon="-0.18106">
        <ele>29</ele>
        <time>2011-04-03T10:02:39.593Z</time>
      </trkpt>
      <trkpt lat="47.31932" lon="-0.18096">
        <ele>28.8</ele>
        <time>2011-04-03T10:02:41.060Z</time>
      </trkpt>
      <trkpt lat="47.31928" lon="-0.18085">
        <ele>28.8</ele>
        <time>2011-04-03T10:02:42.637Z</time>
      </trkpt>
      <trkpt lat="47.31924" lon="-0.18075">
        <ele>28.7</ele>
        <time>2011-04-03T10:02:44.104Z</time>
      </trkpt>
      <trkpt lat="47.3192" lon="-0.18064">
        <ele>28.8</ele>
        <time>2011-04-03T10:02:45.681Z</time>
      </trkpt>
      <trkpt lat="47.31916" lon="-0.18054">
        <ele>29.1</ele>
        <time>2011-04-03T10:02:47.148Z</time>
      </trkpt>
      <trkpt lat="47.31912" lon="-0.18043">
        <ele>29.5</ele>
        <time>2011-04-03T10:02:48.725Z</time>
      </trkpt>
      <trkpt lat="47.31908" lon="-0.18033">
        <ele>29.8</ele>
        <time>2011-04-03T10:02:50.192Z</time>
      </trkpt>
      <trkpt lat="47.31904" lon="-0.18022">
        <ele>29.4</ele>
        <time>2011-04-03T10:02:51.769Z</time>
      </trkpt>
      <trkpt lat="47.319" lon="-0.18012">
        <ele>28.8</ele>
        <time>2011-04-03T10:02:53.236Z</time>
      </trkpt>
      <trkpt lat="47.31895" lon="-0.18001">
        <ele>28.4</ele>
        <time>2011-04-03T10:02:54.909Z</time>
      </trkpt>
      <trkpt lat="47.31891" lon="-0.17991">
        <ele>28.7</ele>
        <time>2011-04-03T10:02:56.376Z</time>
      </trkpt>
      <trkpt lat="47.31887" lon="-0.1798">
        <ele>29.1</ele>
        <time>2011-04-03T10:02:57.954Z</time>
      </trkpt>
      <trkpt lat="47.31883" lon="-0.1797">
        <ele>29.2</ele>
        <time>2011-04-03T10:02:59.421Z</time>
      </trkpt>
      <trkpt lat="47.31879" lon="-0.17959">
        <ele>29.2</ele>
        <time>2011-04-03T10:03:01Z</time>
        <extensions>
          <type>
            <highway>secondary</highway>
            <surface>asphalt</surface>
            </type>
        </extensions>
      </trkpt>
      <trkpt lat="47.31875" lon="-0.17955">
        <ele>29.2</ele>
        <time>2011-04-03T10:03:07.430Z</time>
      </trkpt>
      <trkpt lat="47.3187" lon="-0.17951">
        <ele>29.2</ele>
        <time>2011-04-03T10:03:15Z</time>
        <extensions>
          <type>
            <highway>secondary</highway>
            <surface>asphalt</surface>
            </type>
        </extensions>
      </trkpt>
      <trkpt lat="47.31871" lon="-0.17944">
        <ele>29</ele>
        <time>2011-04-03T10:03:23.497Z</time>
      </trkpt>
      <trkpt lat="47.31871" lon="-0.17936">
        <ele>28.8</ele>
        <time>2011-04-03T10:03:33Z</time>
        <extensions>
          <type>
            <highway>secondary</highway>
            <surface>asphalt</surface>
            </type>
        </extensions>
      </trkpt>
      <trkpt lat="47.31867" lon="-0.17927">
        <ele>28.8</ele>
        <time>2011-04-03T08:32:46.743Z</time>
      </trkpt>
      <trkpt lat="47.31862" lon="-0.17918">
        <ele>28.9</ele>
        <time>2011-04-03T06:54:38Z</time>
        <extensions>
          <type>
            <highway>secondary</highway>
            <surface>asphalt</surface>
            </type>
        </extensions>
      </trkpt>
      <trkpt lat="47.3186" lon="-0.17909">
        <ele>29.2</ele>
        <time>2011-04-03T06:54:40.307Z</time>
      </trkpt>
      <trkpt lat="47.31858" lon="-0.17901">
        <ele>29.4</ele>
        <time>2011-04-03T06:54:42.384Z</time>
      </trkpt>
      <trkpt lat="47.31856" lon="-0.17892">
        <ele>29.4</ele>
        <time>2011-04-03T06:54:44.691Z</time>
      </trkpt>
      <trkpt lat="47.31854" lon="-0.17883">
        <ele>29.4</ele>
        <time>2011-04-03T06:54:47Z</time>
        <extensions>
          <type>
            <highway>secondary</highway>
            <surface>asphalt</surface>
            </type>
        </extensions>
      </trkpt>
      <trkpt lat="47.31852" lon="-0.17877">
        <ele>29.4</ele>
        <time>2011-04-03T06:54:48.193Z</time>
      </trkpt>
      <trkpt lat="47.3185" lon="-0.17871">
        <ele>29.3</ele>
        <time>2011-04-03T06:54:49.386Z</time>
      </trkpt>
      <trkpt lat="47.31848" lon="-0.17865">
        <ele>29.1</ele>
        <time>2011-04-03T06:54:50.579Z</time>
      </trkpt>
      <trkpt lat="47.31846" lon="-0.1786">
        <ele>28.9</ele>
        <time>2011-04-03T06:54:51.615Z</time>
      </trkpt>
      <trkpt lat="47.31844" lon="-0.17854">
        <ele>28.7</ele>
        <time>2011-04-03T06:54:52.808Z</time>
      </trkpt>
      <trkpt lat="47.31841" lon="-0.17848">
        <ele>28.6</ele>
        <time>2011-04-03T06:54:54.139Z</time>
      </trkpt>
      <trkpt lat="47.31839" lon="-0.17842">
        <ele>28.6</ele>
        <time>2011-04-03T06:54:55.332Z</time>
      </trkpt>
      <trkpt lat="47.31837" lon="-0.17836">
        <ele>28.6</ele>
        <time>2011-04-03T06:54:56.525Z</time>
      </trkpt>
      <trkpt lat="47.31835" lon="-0.1783">
        <ele>28.7</ele>
        <time>2011-04-03T06:54:57.718Z</time>
      </trkpt>
      <trkpt lat="47.31833" lon="-0.17824">
        <ele>28.7</ele>
        <time>2011-04-03T06:54:58.911Z</time>
      </trkpt>
      <trkpt lat="47.31831" lon="-0.17818">
        <ele>28.8</ele>
        <time>2011-04-03T06:55:00.104Z</time>
      </trkpt>
      <trkpt lat="47.31829" lon="-0.17813">
        <ele>28.7</ele>
        <time>2011-04-03T06:55:01.140Z</time>
      </trkpt>
      <trkpt lat="47.31827" lon="-0.17807">
        <ele>28.5</ele>
        <time>2011-04-03T06:55:02.334Z</time>
      </trkpt>
      <trkpt lat="47.31825" lon="-0.17801">
        <ele>28.1</ele>
        <time>2011-04-03T06:55:03.528Z</time>
      </trkpt>
      <trkpt lat="47.31823" lon="-0.17795">
        <ele>27.7</ele>
        <time>2011-04-03T06:55:04.722Z</time>
      </trkpt>
      <trkpt lat="47.31821" lon="-0.17789">
        <ele>27.4</ele>
        <time>2011-04-03T06:55:05.916Z</time>
      </trkpt>
      <trkpt lat="47.31818" lon="-0.17783">
        <ele>27.1</ele>
        <time>2011-04-03T06:55:07.247Z</time>
      </trkpt>
      <trkpt lat="47.31816" lon="-0.17777">
        <ele>27.1</ele>
        <time>2011-04-03T06:55:08.441Z</time>
      </trkpt>
      <trkpt lat="47.31814" lon="-0.17771">
        <ele>27.4</ele>
        <time>2011-04-03T06:55:09.635Z</time>
      </trkpt>
      <trkpt lat="47.31812" lon="-0.17766">
        <ele>27.8</ele>
        <time>2011-04-03T06:55:10.671Z</time>
      </trkpt>
      <trkpt lat="47.3181" lon="-0.1776">
        <ele>28.2</ele>
        <time>2011-04-03T06:55:11.865Z</time>
      </trkpt>
      <trkpt lat="47.31808" lon="-0.17754">
        <ele>28.6</ele>
        <time>2011-04-03T06:55:13.059Z</time>
      </trkpt>
      <trkpt lat="47.31806" lon="-0.17748">
        <ele>28.8</ele>
        <time>2011-04-03T06:55:14.253Z</time>
      </trkpt>
      <trkpt lat="47.31804" lon="-0.17742">
        <ele>28.5</ele>
        <time>2011-04-03T06:55:15.447Z</time>
      </trkpt>
      <trkpt lat="47.31802" lon="-0.17736">
        <ele>28.2</ele>
        <time>2011-04-03T06:55:16.641Z</time>
      </trkpt>
      <trkpt lat="47.318" lon="-0.1773">
        <ele>27.9</ele>
        <time>2011-04-03T06:55:17.835Z</time>
      </trkpt>
      <trkpt lat="47.31798" lon="-0.17724">
        <ele>27.7</ele>
        <time>2011-04-03T06:55:19.029Z</time>
      </trkpt>
      <trkpt lat="47.31795" lon="-0.17719">
        <ele>27.6</ele>
        <time>2011-04-03T06:55:20.221Z</time>
      </trkpt>
      <trkpt lat="47.31793" lon="-0.17713">
        <ele>27.5</ele>
        <time>2011-04-03T06:55:21.415Z</time>
      </trkpt>
      <trkpt lat="47.31791" lon="-0.17707">
        <ele>27.5</ele>
        <time>2011-04-03T06:55:22.609Z</time>
      </trkpt>
      <trkpt lat="47.31789" lon="-0.17701">
        <ele>27.6</ele>
        <time>2011-04-03T06:55:23.804Z</time>
      </trkpt>
      <trkpt lat="47.31787" lon="-0.17695">
        <ele>27.7</ele>
        <time>2011-04-03T06:55:25Z</time>
        <extensions>
          <type>
            <highway>secondary</highway>
            <surface>asphalt</surface>
            </type>
        </extensions>
      </trkpt>
      <trkpt lat="47.31785" lon="-0.17686">
        <ele>27.9</ele>
        <time>2011-04-03T06:55:26.749Z</time>
      </trkpt>
      <trkpt lat="47.31783" lon="-0.17677">
        <ele>28.1</ele>
        <time>2011-04-03T06:55:28.499Z</time>
      </trkpt>
      <trkpt lat="47.31781" lon="-0.17668">
        <ele>28.4</ele>
        <time>2011-04-03T06:55:30.249Z</time>
      </trkpt>
      <trkpt lat="47.31779" lon="-0.17659">
        <ele>28.8</ele>
        <time>2011-04-03T06:55:31.999Z</time>
      </trkpt>
      <trkpt lat="47.31777" lon="-0.1765">
        <ele>29</ele>
        <time>2011-04-03T06:55:33.749Z</time>
      </trkpt>
      <trkpt lat="47.31775" lon="-0.17641">
        <ele>29</ele>
        <time>2011-04-03T06:55:35.499Z</time>
      </trkpt>
      <trkpt lat="47.31773" lon="-0.17632">
        <ele>28.6</ele>
        <time>2011-04-03T06:55:37.249Z</time>
      </trkpt>
      <trkpt lat="47.31771" lon="-0.17623">
        <ele>28.3</ele>
        <time>2011-04-03T06:55:39Z</time>
        <extensions>
          <type>
            <highway>path</highway>
            <surface>dirt</surface>
            </type>
        </extensions>
      </trkpt>
      <trkpt lat="47.31765" lon="-0.17621">
        <ele>28.6</ele>
        <time>2011-04-03T06:55:41Z</time>
        <extensions>
          <type>
            <highway>path</highway>
            <surface>dirt</surface>
            </type>
        </extensions>
      </trkpt>
      <trkpt lat="47.31759" lon="-0.17624">
        <ele>29</ele>
        <time>2011-04-03T06:55:42.847Z</time>
      </trkpt>
      <trkpt lat="47.31754" lon="-0.17626">
        <ele>29.3</ele>
        <time>2011-04-03T06:55:44.358Z</time>
      </trkpt>
      <trkpt lat="47.31748" lon="-0.17629">
        <ele>29.6</ele>
        <time>2011-04-03T06:55:46.205Z</time>
      </trkpt>
      <trkpt lat="47.31742" lon="-0.17631">
        <ele>30.1</ele>
        <time>2011-04-03T06:55:48Z</time>
        <extensions>
          <type>
            <highway>path</highway>
            <surface>dirt</surface>
            </type>
        </extensions>
      </trkpt>
      <trkpt lat="47.31737" lon="-0.1763">
        <ele>30.7</ele>
        <time>2011-04-03T06:55:49.450Z</time>
      </trkpt>
      <trkpt lat="47.31733" lon="-0.1763">
        <ele>31.2</ele>
        <time>2011-04-03T06:55:50.599Z</time>
      </trkpt>
      <trkpt lat="47.31728" lon="-0.17629">
        <ele>31.8</ele>
        <time>2011-04-03T06:55:52.049Z</time>
      </trkpt>
      <trkpt lat="47.31723" lon="-0.17628">
        <ele>32.3</ele>
        <time>2011-04-03T06:55:53.499Z</time>
      </trkpt>
      <trkpt lat="47.31718" lon="-0.17627">
        <ele>32.8</ele>
        <time>2011-04-03T06:55:54.949Z</time>
      </trkpt>
      <trkpt lat="47.31714" lon="-0.17627">
        <ele>33.2</ele>
        <time>2011-04-03T06:55:56.098Z</time>
      </trkpt>
      <trkpt lat="47.31709" lon="-0.17626">
        <ele>33.7</ele>
        <time>2011-04-03T06:55:57.549Z</time>
      </trkpt>
      <trkpt lat="47.31704" lon="-0.17625">
        <ele>34.1</ele>
        <time>2011-04-03T06:55:59Z</time>
        <extensions>
          <type>
            <highway>undefined</highway>
            <surface>dirt</surface>
            </type>
        </extensions>
      </trkpt>
      <trkpt lat="47.31697" lon="-0.17628">
        <ele>34.8</ele>
        <time>2011-04-03T06:56:04Z</time>
        <extensions>
          <type>
            <highway>undefined</highway>
            <surface>undefined</surface>
            </type>
        </extensions>
      </trkpt>
      <trkpt lat="47.31691" lon="-0.17623">
        <ele>35.3</ele>
        <time>2011-04-03T06:56:10.091Z</time>
      </trkpt>
      <trkpt lat="47.31685" lon="-0.17617">
        <ele>35.8</ele>
        <time>2011-04-03T06:56:16.499Z</time>
      </trkpt>
      <trkpt lat="47.31679" lon="-0.17612">
        <ele>36.1</ele>
        <time>2011-04-03T06:56:22.591Z</time>
      </trkpt>
      <trkpt lat="47.31673" lon="-0.17606">
        <ele>37.9</ele>
        <time>2011-04-03T06:56:29Z</time>
        <extensions>
          <type>
            <highway>path</highway>
            <surface>dirt</surface>
            </type>
        </extensions>
      </trkpt>
      <trkpt lat="47.31665" lon="-0.17607">
        <ele>38.3</ele>
        <time>2011-04-03T06:56:33.500Z</time>
      </trkpt>
      <trkpt lat="47.31657" lon="-0.17608">
        <ele>38.9</ele>
        <time>2011-04-03T06:56:38Z</time>
        <extensions>
          <type>
            <highway>path</highway>
            <surface>dirt</surface>
            </type>
        </extensions>
      </trkpt>
      <trkpt lat="47.31652" lon="-0.17606">
        <ele>39.9</ele>
        <time>2011-04-03T06:56:41.885Z</time>
      </trkpt>
      <trkpt lat="47.31646" lon="-0.17604">
        <ele>40.9</ele>
        <time>2011-04-03T06:56:46.499Z</time>
      </trkpt>
      <trkpt lat="47.31641" lon="-0.17602">
        <ele>41.8</ele>
        <time>2011-04-03T06:56:50.385Z</time>
      </trkpt>
      <trkpt lat="47.31635" lon="-0.176">
        <ele>42.9</ele>
        <time>2011-04-03T06:56:54.999Z</time>
      </trkpt>
      <trkpt lat="47.3163" lon="-0.17598">
        <ele>44</ele>
        <time>2011-04-03T06:56:58.885Z</time>
      </trkpt>
      <trkpt lat="47.31624" lon="-0.17596">
        <ele>45.1</ele>
        <time>2011-04-03T06:57:03.499Z</time>
      </trkpt>
      <trkpt lat="47.31619" lon="-0.17594">
        <ele>46</ele>
        <time>2011-04-03T06:57:07.385Z</time>
      </trkpt>
      <trkpt lat="47.31613" lon="-0.17592">
        <ele>46.9</ele>
        <time>2011-04-03T06:57:12Z</time>
        <extensions>
          <type>
            <highway>path</highway>
            <surface>dirt</surface>
            </type>
        </extensions>
      </trkpt>
      <trkpt lat="47.31605" lon="-0.17593">
        <ele>47.3</ele>
        <time>2011-04-03T06:57:16.000Z</time>
      </trkpt>
      <trkpt lat="47.31597" lon="-0.17594">
        <ele>47.6</ele>
        <time>2011-04-03T06:57:20.000Z</time>
      </trkpt>
      <trkpt lat="47.31589" lon="-0.17595">
        <ele>47.9</ele>
        <time>2011-04-03T06:57:24.000Z</time>
      </trkpt>
      <trkpt lat="47.31581" lon="-0.17596">
        <ele>48.2</ele>
        <time>2011-04-03T06:57:28Z</time>
        <extensions>
          <type>
            <highway>path</highway>
            <surface>dirt</surface>
            </type>
        </extensions>
      </trkpt>
      <trkpt lat="47.31573" lon="-0.17595">
        <ele>48.7</ele>
        <time>2011-04-03T06:57:32.750Z</time>
      </trkpt>
      <trkpt lat="47.31565" lon="-0.17594">
        <ele>49.3</ele>
        <time>2011-04-03T06:57:37.500Z</time>
      </trkpt>
      <trkpt lat="47.31557" lon="-0.17593">
        <ele>49.9</ele>
        <time>2011-04-03T06:57:42.250Z</time>
      </trkpt>
      <trkpt lat="47.31549" lon="-0.17592">
        <ele>51.1</ele>
        <time>2011-04-03T06:57:47Z</time>
        <extensions>
          <type>
            <highway>path</highway>
            <surface>dirt</surface>
            </type>
        </extensions>
      </trkpt>
      <trkpt lat="47.31544" lon="-0.17589">
        <ele>52</ele>
        <time>2011-04-03T06:57:51.987Z</time>
      </trkpt>
      <trkpt lat="47.31539" lon="-0.17586">
        <ele>52.8</ele>
        <time>2011-04-03T06:57:56.975Z</time>
      </trkpt>
      <trkpt lat="47.31534" lon="-0.17583">
        <ele>53.5</ele>
        <time>2011-04-03T06:58:01.963Z</time>
      </trkpt>
      <trkpt lat="47.31529" lon="-0.1758">
        <ele>54.6</ele>
        <time>2011-04-03T06:58:06.951Z</time>
      </trkpt>
      <trkpt lat="47.31523" lon="-0.17576">
        <ele>55.8</ele>
        <time>2011-04-03T06:58:13.035Z</time>
      </trkpt>
      <trkpt lat="47.31518" lon="-0.17573">
        <ele>56.9</ele>
        <time>2011-04-03T06:58:18.023Z</time>
      </trkpt>
      <trkpt lat="47.31513" lon="-0.1757">
        <ele>58</ele>
        <time>2011-04-03T06:58:23.011Z</time>
      </trkpt>
      <trkpt lat="47.31508" lon="-0.17567">
        <ele>59</ele>
        <time>2011-04-03T06:58:28Z</time>
        <extensions>
          <type>
            <highway>path</highway>
            <surface>dirt</surface>
            </type>
        </extensions>
      </trkpt>
      <trkpt lat="47.31502" lon="-0.17574">
        <ele>58.7</ele>
        <time>2011-04-03T06:58:33.297Z</time>
      </trkpt>
      <trkpt lat="47.31497" lon="-0.17582">
        <ele>58.7</ele>
        <time>2011-04-03T06:58:38.405Z</time>
      </trkpt>
      <trkpt lat="47.31491" lon="-0.17589">
        <ele>59.9</ele>
        <time>2011-04-03T06:58:43.702Z</time>
      </trkpt>
      <trkpt lat="47.31485" lon="-0.17596">
        <ele>61.5</ele>
        <time>2011-04-03T06:58:49Z</time>
        <extensions>
          <type>
            <highway>path</highway>
            <surface>dirt</surface>
            </type>
        </extensions>
      </trkpt>
      <trkpt lat="47.31479" lon="-0.17593">
        <ele>62.1</ele>
        <time>2011-04-03T06:58:52.079Z</time>
      </trkpt>
      <trkpt lat="47.31473" lon="-0.17591">
        <ele>62.6</ele>
        <time>2011-04-03T06:58:55.068Z</time>
      </trkpt>
      <trkpt lat="47.31467" lon="-0.17588">
        <ele>63</ele>
        <time>2011-04-03T06:58:58.147Z</time>
      </trkpt>
      <trkpt lat="47.31462" lon="-0.17585">
        <ele>63.3</ele>
        <time>2011-04-03T06:59:00.770Z</time>
      </trkpt>
      <trkpt lat="47.31456" lon="-0.17582">
        <ele>63.8</ele>
        <time>2011-04-03T06:59:03.849Z</time>
      </trkpt>
      <trkpt lat="47.3145" lon="-0.1758">
        <ele>64.5</ele>
        <time>2011-04-03T06:59:06.839Z</time>
      </trkpt>
      <trkpt lat="47.31444" lon="-0.17577">
        <ele>65.3</ele>
        <time>2011-04-03T06:59:09.919Z</time>
      </trkpt>
      <trkpt lat="47.31438" lon="-0.17574">
        <ele>65.8</ele>
        <time>2011-04-03T06:59:13Z</time>
        <extensions>
          <type>
            <highway>path</highway>
            <surface>dirt</surface>
            </type>
        </extensions>
      </trkpt>
      <trkpt lat="47.3143" lon="-0.17573">
        <ele>66.4</ele>
        <time>2011-04-03T06:59:16.295Z</time>
      </trkpt>
      <trkpt lat="47.31421" lon="-0.17572">
        <ele>67.1</ele>
        <time>2011-04-03T06:59:20Z</time>
        <extensions>
          <type>
            <highway>path</highway>
            <surface>dirt</surface>
            </type>
        </extensions>
      </trkpt>
      <trkpt lat="47.31417" lon="-0.17575">
        <ele>67.3</ele>
        <time>2011-04-03T06:59:21.815Z</time>
      </trkpt>
      <trkpt lat="47.31412" lon="-0.17578">
        <ele>67.5</ele>
        <time>2011-04-03T06:59:23.999Z</time>
      </trkpt>
      <trkpt lat="47.31408" lon="-0.17581">
        <ele>67.7</ele>
        <time>2011-04-03T06:59:25.815Z</time>
      </trkpt>
      <trkpt lat="47.31403" lon="-0.17584">
        <ele>68</ele>
        <time>2011-04-03T06:59:28Z</time>
        <extensions>
          <type>
            <highway>path</highway>
            <surface>dirt</surface>
            </type>
        </extensions>
      </trkpt>
      <trkpt lat="47.31399" lon="-0.17585">
        <ele>68.5</ele>
        <time>2011-04-03T06:59:30.008Z</time>
      </trkpt>
      <trkpt lat="47.31394" lon="-0.17586">
        <ele>68.9</ele>
        <time>2011-04-03T06:59:32.506Z</time>
      </trkpt>
      <trkpt lat="47.3139" lon="-0.17587">
        <ele>69.3</ele>
        <time>2011-04-03T06:59:34.514Z</time>
      </trkpt>
      <trkpt lat="47.31385" lon="-0.17588">
        <ele>69.8</ele>
        <time>2011-04-03T06:59:37.012Z</time>
      </trkpt>
      <trkpt lat="47.31381" lon="-0.17588">
        <ele>70.3</ele>
        <time>2011-04-03T06:59:38.992Z</time>
      </trkpt>
      <trkpt lat="47.31376" lon="-0.17589">
        <ele>70.8</ele>
        <time>2011-04-03T06:59:41.491Z</time>
      </trkpt>
      <trkpt lat="47.31372" lon="-0.1759">
        <ele>71.3</ele>
        <time>2011-04-03T06:59:43.500Z</time>
      </trkpt>
      <trkpt lat="47.31367" lon="-0.17591">
        <ele>71.8</ele>
        <time>2011-04-03T06:59:46Z</time>
        <extensions>
          <type>
            <highway>track</highway>
            <surface>dirt</surface>
            </type>
        </extensions>
      </trkpt>
      <trkpt lat="47.31364" lon="-0.17585">
        <ele>71.8</ele>
        <time>2011-04-03T06:59:49Z</time>
        <extensions>
          <type>
            <highway>track</highway>
            <surface>dirt</surface>
            </type>
        </extensions>
      </trkpt>
      <trkpt lat="47.31362" lon="-0.17577">
        <ele>71.9</ele>
        <time>2011-04-03T06:59:50.702Z</time>
      </trkpt>
      <trkpt lat="47.31361" lon="-0.17568">
        <ele>72</ele>
        <time>2011-04-03T06:59:52.522Z</time>
      </trkpt>
      <trkpt lat="47.31359" lon="-0.1756">
        <ele>72.2</ele>
        <time>2011-04-03T06:59:54.224Z</time>
      </trkpt>
      <trkpt lat="47.31357" lon="-0.17552">
        <ele>72.4</ele>
        <time>2011-04-03T06:59:55.926Z</time>
      </trkpt>
      <trkpt lat="47.31356" lon="-0.17543">
        <ele>72.7</ele>
        <time>2011-04-03T06:59:57.746Z</time>
      </trkpt>
      <trkpt lat="47.31354" lon="-0.17535">
        <ele>72.9</ele>
        <time>2011-04-03T06:59:59.448Z</time>
      </trkpt>
      <trkpt lat="47.31352" lon="-0.17526">
        <ele>73</ele>
        <time>2011-04-03T07:00:01.339Z</time>
      </trkpt>
      <trkpt lat="47.31351" lon="-0.17518">
        <ele>73</ele>
        <time>2011-04-03T07:00:02.963Z</time>
      </trkpt>
      <trkpt lat="47.31349" lon="-0.1751">
        <ele>73</ele>
        <time>2011-04-03T07:00:04.665Z</time>
      </trkpt>
      <trkpt lat="47.31347" lon="-0.17501">
        <ele>73</ele>
        <time>2011-04-03T07:00:06.556Z</time>
      </trkpt>
      <trkpt lat="47.31345" lon="-0.17493">
        <ele>72.9</ele>
        <time>2011-04-03T07:00:08.258Z</time>
      </trkpt>
      <trkpt lat="47.31344" lon="-0.17485">
        <ele>72.8</ele>
        <time>2011-04-03T07:00:09.882Z</time>
      </trkpt>
      <trkpt lat="47.31342" lon="-0.17476">
        <ele>72.7</ele>
        <time>2011-04-03T07:00:11.773Z</time>
      </trkpt>
      <trkpt lat="47.3134" lon="-0.17468">
        <ele>72.6</ele>
        <time>2011-04-03T07:00:13.475Z</time>
      </trkpt>
      <trkpt lat="47.31339" lon="-0.17459">
        <ele>72.3</ele>
        <time>2011-04-03T07:00:15.296Z</time>
      </trkpt>
      <trkpt lat="47.31337" lon="-0.17451">
        <ele>72.1</ele>
        <time>2011-04-03T07:00:17Z</time>
        <extensions>
          <type>
            <highway>track</highway>
            <surface>dirt</surface>
            </type>
        </extensions>
      </trkpt>
      <trkpt lat="47.31336" lon="-0.17439">
        <ele>71.9</ele>
        <time>2011-04-03T07:00:18.794Z</time>
      </trkpt>
      <trkpt lat="47.31335" lon="-0.17428">
        <ele>71.9</ele>
        <time>2011-04-03T07:00:20.441Z</time>
      </trkpt>
      <trkpt lat="47.31333" lon="-0.17416">
        <ele>72</ele>
        <time>2011-04-03T07:00:22.275Z</time>
      </trkpt>
      <trkpt lat="47.31332" lon="-0.17405">
        <ele>72</ele>
        <time>2011-04-03T07:00:23.923Z</time>
      </trkpt>
      <trkpt lat="47.31331" lon="-0.17393">
        <ele>72.1</ele>
        <time>2011-04-03T07:00:25.718Z</time>
      </trkpt>
      <trkpt lat="47.3133" lon="-0.17381">
        <ele>72.1</ele>
        <time>2011-04-03T07:00:27.513Z</time>
      </trkpt>
      <trkpt lat="47.31328" lon="-0.1737">
        <ele>72.2</ele>
        <time>2011-04-03T07:00:29.204Z</time>
      </trkpt>
      <trkpt lat="47.31327" lon="-0.17358">
        <ele>72.3</ele>
        <time>2011-04-03T07:00:31Z</time>
        <extensions>
          <type>
            <highway>track</highway>
            <surface>dirt</surface>
            </type>
        </extensions>
      </trkpt>
      <trkpt lat="47.31325" lon="-0.17348">
        <ele>72.7</ele>
        <time>2011-04-03T07:00:33.114Z</time>
      </trkpt>
      <trkpt lat="47.31322" lon="-0.17337">
        <ele>72.9</ele>
        <time>2011-04-03T07:00:35.518Z</time>
      </trkpt>
      <trkpt lat="47.3132" lon="-0.17327">
        <ele>73</ele>
        <time>2011-04-03T07:00:37.632Z</time>
      </trkpt>
      <trkpt lat="47.31318" lon="-0.17316">
        <ele>73</ele>
        <time>2011-04-03T07:00:39.942Z</time>
      </trkpt>
      <trkpt lat="47.31315" lon="-0.17306">
        <ele>73</ele>
        <time>2011-04-03T07:00:42.160Z</time>
      </trkpt>
      <trkpt lat="47.31313" lon="-0.17295">
        <ele>73</ele>
        <time>2011-04-03T07:00:44.470Z</time>
      </trkpt>
      <trkpt lat="47.3131" lon="-0.17285">
        <ele>73</ele>
        <time>2011-04-03T07:00:46.688Z</time>
      </trkpt>
      <trkpt lat="47.31308" lon="-0.17274">
        <ele>73.1</ele>
        <time>2011-04-03T07:00:48.998Z</time>
      </trkpt>
      <trkpt lat="47.31306" lon="-0.17264">
        <ele>73.5</ele>
        <time>2011-04-03T07:00:51.112Z</time>
      </trkpt>
      <trkpt lat="47.31303" lon="-0.17253">
        <ele>74</ele>
        <time>2011-04-03T07:00:53.517Z</time>
      </trkpt>
      <trkpt lat="47.31301" lon="-0.17243">
        <ele>74.2</ele>
        <time>2011-04-03T07:00:55.632Z</time>
      </trkpt>
      <trkpt lat="47.31299" lon="-0.17232">
        <ele>74.3</ele>
        <time>2011-04-03T07:00:57.942Z</time>
      </trkpt>
      <trkpt lat="47.31296" lon="-0.17222">
        <ele>74.3</ele>
        <time>2011-04-03T07:01:00.160Z</time>
      </trkpt>
      <trkpt lat="47.31294" lon="-0.17211">
        <ele>74</ele>
        <time>2011-04-03T07:01:02.470Z</time>
      </trkpt>
      <trkpt lat="47.31291" lon="-0.17201">
        <ele>73.7</ele>
        <time>2011-04-03T07:01:04.688Z</time>
      </trkpt>
      <trkpt lat="47.31289" lon="-0.1719">
        <ele>73.5</ele>
        <time>2011-04-03T07:01:07Z</time>
        <extensions>
          <type>
            <highway>track</highway>
            <surface>dirt</surface>
            </type>
        </extensions>
      </trkpt>
      <trkpt lat="47.31286" lon="-0.17182">
        <ele>73.4</ele>
        <time>2011-04-03T07:01:08.667Z</time>
      </trkpt>
      <trkpt lat="47.31282" lon="-0.17174">
        <ele>73.2</ele>
        <time>2011-04-03T07:01:10.479Z</time>
      </trkpt>
      <trkpt lat="47.31279" lon="-0.17166">
        <ele>73</ele>
        <time>2011-04-03T07:01:12.146Z</time>
      </trkpt>
      <trkpt lat="47.31275" lon="-0.17158">
        <ele>73.2</ele>
        <time>2011-04-03T07:01:13.958Z</time>
      </trkpt>
      <trkpt lat="47.31272" lon="-0.1715">
        <ele>73.3</ele>
        <time>2011-04-03T07:01:15.625Z</time>
      </trkpt>
      <trkpt lat="47.31268" lon="-0.17142">
        <ele>73.4</ele>
        <time>2011-04-03T07:01:17.437Z</time>
      </trkpt>
      <trkpt lat="47.31265" lon="-0.17134">
        <ele>73.3</ele>
        <time>2011-04-03T07:01:19.104Z</time>
      </trkpt>
      <trkpt lat="47.31261" lon="-0.17126">
        <ele>73.1</ele>
        <time>2011-04-03T07:01:20.916Z</time>
      </trkpt>
      <trkpt lat="47.31258" lon="-0.17117">
        <ele>73</ele>
        <time>2011-04-03T07:01:22.745Z</time>
      </trkpt>
      <trkpt lat="47.31254" lon="-0.17109">
        <ele>72.8</ele>
        <time>2011-04-03T07:01:24.558Z</time>
      </trkpt>
      <trkpt lat="47.31251" lon="-0.17101">
        <ele>73</ele>
        <time>2011-04-03T07:01:26.225Z</time>
      </trkpt>
      <trkpt lat="47.31247" lon="-0.17093">
        <ele>73.1</ele>
        <time>2011-04-03T07:01:28.038Z</time>
      </trkpt>
      <trkpt lat="47.31244" lon="-0.17085">
        <ele>73.2</ele>
        <time>2011-04-03T07:01:29.705Z</time>
      </trkpt>
      <trkpt lat="47.3124" lon="-0.17077">
        <ele>73.3</ele>
        <time>2011-04-03T07:01:31.518Z</time>
      </trkpt>
      <trkpt lat="47.31237" lon="-0.17069">
        <ele>73.2</ele>
        <time>2011-04-03T07:01:33.186Z</time>
      </trkpt>
      <trkpt lat="47.31233" lon="-0.17061">
        <ele>73.1</ele>
        <time>2011-04-03T07:01:35Z</time>
        <extensions>
          <type>
            <highway>track</highway>
            <surface>dirt</surface>
            </type>
        </extensions>
      </trkpt>
      <trkpt lat="47.31231" lon="-0.17052">
        <ele>73</ele>
        <time>2011-04-03T07:01:36.431Z</time>
      </trkpt>
      <trkpt lat="47.3123" lon="-0.17044">
        <ele>73</ele>
        <time>2011-04-03T07:01:37.660Z</time>
      </trkpt>
      <trkpt lat="47.31228" lon="-0.17035">
        <ele>73</ele>
        <time>2011-04-03T07:01:39.091Z</time>
      </trkpt>
      <trkpt lat="47.31227" lon="-0.17026">
        <ele>73</ele>
        <time>2011-04-03T07:01:40.469Z</time>
      </trkpt>
      <trkpt lat="47.31225" lon="-0.17017">
        <ele>73</ele>
        <time>2011-04-03T07:01:41.900Z</time>
      </trkpt>
      <trkpt lat="47.31223" lon="-0.17009">
        <ele>73</ele>
        <time>2011-04-03T07:01:43.189Z</time>
      </trkpt>
      <trkpt lat="47.31222" lon="-0.17">
        <ele>73</ele>
        <time>2011-04-03T07:01:44.567Z</time>
      </trkpt>
      <trkpt lat="47.3122" lon="-0.16991">
        <ele>73</ele>
        <time>2011-04-03T07:01:46Z</time>
        <extensions>
          <type>
            <highway>track</highway>
            <surface>dirt</surface>
            </type>
        </extensions>
      </trkpt>
      <trkpt lat="47.31217" lon="-0.16985">
        <ele>73</ele>
        <time>2011-04-03T07:01:47.243Z</time>
      </trkpt>
      <trkpt lat="47.31215" lon="-0.16979">
        <ele>73</ele>
        <time>2011-04-03T07:01:48.358Z</time>
      </trkpt>
      <trkpt lat="47.31212" lon="-0.16973">
        <ele>73</ele>
        <time>2011-04-03T07:01:49.601Z</time>
      </trkpt>
      <trkpt lat="47.3121" lon="-0.16967">
        <ele>73.1</ele>
        <time>2011-04-03T07:01:50.716Z</time>
      </trkpt>
      <trkpt lat="47.31207" lon="-0.16961">
        <ele>73.2</ele>
        <time>2011-04-03T07:01:51.959Z</time>
      </trkpt>
      <trkpt lat="47.31205" lon="-0.16955">
        <ele>73.4</ele>
        <time>2011-04-03T07:01:53.074Z</time>
      </trkpt>
      <trkpt lat="47.31202" lon="-0.16949">
        <ele>73.6</ele>
        <time>2011-04-03T07:01:54.317Z</time>
      </trkpt>
      <trkpt lat="47.312" lon="-0.16943">
        <ele>73.8</ele>
        <time>2011-04-03T07:01:55.432Z</time>
      </trkpt>
      <trkpt lat="47.31197" lon="-0.16937">
        <ele>73.6</ele>
        <time>2011-04-03T07:01:56.676Z</time>
      </trkpt>
      <trkpt lat="47.31194" lon="-0.16931">
        <ele>73.5</ele>
        <time>2011-04-03T07:01:57.920Z</time>
      </trkpt>
      <trkpt lat="47.31192" lon="-0.16925">
        <ele>73.3</ele>
        <time>2011-04-03T07:01:59.035Z</time>
      </trkpt>
      <trkpt lat="47.31189" lon="-0.16919">
        <ele>73.1</ele>
        <time>2011-04-03T07:02:00.279Z</time>
      </trkpt>
      <trkpt lat="47.31187" lon="-0.16913">
        <ele>73</ele>
        <time>2011-04-03T07:02:01.395Z</time>
      </trkpt>
      <trkpt lat="47.31184" lon="-0.16907">
        <ele>73</ele>
        <time>2011-04-03T07:02:02.639Z</time>
      </trkpt>
      <trkpt lat="47.31182" lon="-0.16901">
        <ele>73</ele>
        <time>2011-04-03T07:02:03.755Z</time>
      </trkpt>
      <trkpt lat="47.31179" lon="-0.16895">
        <ele>73</ele>
        <time>2011-04-03T07:02:05Z</time>
        <extensions>
          <type>
            <highway>track</highway>
            <surface>dirt</surface>
            </type>
        </extensions>
      </trkpt>
      <trkpt lat="47.31176" lon="-0.16885">
        <ele>73</ele>
        <time>2011-04-03T07:02:06.635Z</time>
      </trkpt>
      <trkpt lat="47.31172" lon="-0.16876">
        <ele>72.9</ele>
        <time>2011-04-03T07:02:08.244Z</time>
      </trkpt>
      <trkpt lat="47.31169" lon="-0.16866">
        <ele>72.9</ele>
        <time>2011-04-03T07:02:09.880Z</time>
      </trkpt>
      <trkpt lat="47.31166" lon="-0.16857">
        <ele>72.8</ele>
        <time>2011-04-03T07:02:11.380Z</time>
      </trkpt>
      <trkpt lat="47.31162" lon="-0.16847">
        <ele>72.6</ele>
        <time>2011-04-03T07:02:13.117Z</time>
      </trkpt>
      <trkpt lat="47.31159" lon="-0.16837">
        <ele>72.4</ele>
        <time>2011-04-03T07:02:14.753Z</time>
      </trkpt>
      <trkpt lat="47.31155" lon="-0.16828">
        <ele>72.3</ele>
        <time>2011-04-03T07:02:16.363Z</time>
      </trkpt>
      <trkpt lat="47.31152" lon="-0.16818">
        <ele>72.3</ele>
        <time>2011-04-03T07:02:18Z</time>
        <extensions>
          <type>
            <highway>track</highway>
            <surface>dirt</surface>
            </type>
        </extensions>
      </trkpt>
      <trkpt lat="47.31151" lon="-0.16809">
        <ele>72.2</ele>
        <time>2011-04-03T07:02:19.361Z</time>
      </trkpt>
      <trkpt lat="47.3115" lon="-0.168">
        <ele>72.3</ele>
        <time>2011-04-03T07:02:20.723Z</time>
      </trkpt>
      <trkpt lat="47.31148" lon="-0.16791">
        <ele>72.5</ele>
        <time>2011-04-03T07:02:22.137Z</time>
      </trkpt>
      <trkpt lat="47.31147" lon="-0.16782">
        <ele>72.7</ele>
        <time>2011-04-03T07:02:23.499Z</time>
      </trkpt>
      <trkpt lat="47.31146" lon="-0.16773">
        <ele>72.8</ele>
        <time>2011-04-03T07:02:24.861Z</time>
      </trkpt>
      <trkpt lat="47.31145" lon="-0.16764">
        <ele>72.8</ele>
        <time>2011-04-03T07:02:26.223Z</time>
      </trkpt>
      <trkpt lat="47.31143" lon="-0.16755">
        <ele>72.8</ele>
        <time>2011-04-03T07:02:27.637Z</time>
      </trkpt>
      <trkpt lat="47.31142" lon="-0.16746">
        <ele>72.8</ele>
        <time>2011-04-03T07:02:29Z</time>
        <extensions>
          <type>
            <highway>track</highway>
            <surface>dirt</surface>
            </type>
        </extensions>
      </trkpt>
      <trkpt lat="47.31144" lon="-0.16739">
        <ele>72.5</ele>
        <time>2011-04-03T07:02:30.168Z</time>
      </trkpt>
      <trkpt lat="47.31146" lon="-0.16733">
        <ele>72.3</ele>
        <time>2011-04-03T07:02:31.196Z</time>
      </trkpt>
      <trkpt lat="47.31148" lon="-0.16726">
        <ele>72.1</ele>
        <time>2011-04-03T07:02:32.364Z</time>
      </trkpt>
      <trkpt lat="47.3115" lon="-0.16719">
        <ele>72</ele>
        <time>2011-04-03T07:02:33.532Z</time>
      </trkpt>
      <trkpt lat="47.31151" lon="-0.16712">
        <ele>72</ele>
        <time>2011-04-03T07:02:34.632Z</time>
      </trkpt>
      <trkpt lat="47.31153" lon="-0.16706">
        <ele>72</ele>
        <time>2011-04-03T07:02:35.661Z</time>
      </trkpt>
      <trkpt lat="47.31155" lon="-0.16699">
        <ele>72</ele>
        <time>2011-04-03T07:02:36.830Z</time>
      </trkpt>
      <trkpt lat="47.31157" lon="-0.16692">
        <ele>72</ele>
        <time>2011-04-03T07:02:38Z</time>
        <extensions>
          <type>
            <highway>track</highway>
            <surface>dirt</surface>
            </type>
        </extensions>
      </trkpt>
      <trkpt lat="47.31158" lon="-0.16683">
        <ele>72</ele>
        <time>2011-04-03T07:02:39.434Z</time>
      </trkpt>
      <trkpt lat="47.31159" lon="-0.16673">
        <ele>72</ele>
        <time>2011-04-03T07:02:41.024Z</time>
      </trkpt>
      <trkpt lat="47.3116" lon="-0.16664">
        <ele>72</ele>
        <time>2011-04-03T07:02:42.458Z</time>
      </trkpt>
      <trkpt lat="47.31162" lon="-0.16655">
        <ele>72</ele>
        <time>2011-04-03T07:02:43.948Z</time>
      </trkpt>
      <trkpt lat="47.31163" lon="-0.16645">
        <ele>72</ele>
        <time>2011-04-03T07:02:45.538Z</time>
      </trkpt>
      <trkpt lat="47.31164" lon="-0.16636">
        <ele>72</ele>
        <time>2011-04-03T07:02:46.973Z</time>
      </trkpt>
      <trkpt lat="47.31165" lon="-0.16626">
        <ele>72</ele>
        <time>2011-04-03T07:02:48.564Z</time>
      </trkpt>
      <trkpt lat="47.31166" lon="-0.16617">
        <ele>72</ele>
        <time>2011-04-03T07:02:50Z</time>
        <extensions>
          <type>
            <highway>track</highway>
            <surface>dirt</surface>
            </type>
        </extensions>
      </trkpt>
      <trkpt lat="47.31165" lon="-0.16604">
        <ele>72.2</ele>
        <time>2011-04-03T07:02:51.640Z</time>
      </trkpt>
      <trkpt lat="47.31163" lon="-0.16592">
        <ele>72.7</ele>
        <time>2011-04-03T07:02:53.188Z</time>
      </trkpt>
      <trkpt lat="47.31162" lon="-0.16579">
        <ele>72.8</ele>
        <time>2011-04-03T07:02:54.828Z</time>
      </trkpt>
      <trkpt lat="47.3116" lon="-0.16566">
        <ele>72.4</ele>
        <time>2011-04-03T07:02:56.499Z</time>
      </trkpt>
      <trkpt lat="47.31159" lon="-0.16553">
        <ele>72</ele>
        <time>2011-04-03T07:02:58.139Z</time>
      </trkpt>
      <trkpt lat="47.31157" lon="-0.16541">
        <ele>72</ele>
        <time>2011-04-03T07:02:59.688Z</time>
      </trkpt>
      <trkpt lat="47.31156" lon="-0.16528">
        <ele>72</ele>
        <time>2011-04-03T07:03:01.328Z</time>
      </trkpt>
      <trkpt lat="47.31154" lon="-0.16515">
        <ele>72.3</ele>
        <time>2011-04-03T07:03:03Z</time>
        <extensions>
          <type>
            <highway>track</highway>
            <surface>dirt</surface>
            </type>
        </extensions>
      </trkpt>
      <trkpt lat="47.31152" lon="-0.16503">
        <ele>72.4</ele>
        <time>2011-04-03T07:03:04.529Z</time>
      </trkpt>
      <trkpt lat="47.3115" lon="-0.16492">
        <ele>72.3</ele>
        <time>2011-04-03T07:03:05.939Z</time>
      </trkpt>
      <trkpt lat="47.31148" lon="-0.1648">
        <ele>72.1</ele>
        <time>2011-04-03T07:03:07.469Z</time>
      </trkpt>
      <trkpt lat="47.31146" lon="-0.16468">
        <ele>71.8</ele>
        <time>2011-04-03T07:03:08.999Z</time>
      </trkpt>
      <trkpt lat="47.31144" lon="-0.16456">
        <ele>71.4</ele>
        <time>2011-04-03T07:03:10.529Z</time>
      </trkpt>
      <trkpt lat="47.31142" lon="-0.16445">
        <ele>71</ele>
        <time>2011-04-03T07:03:11.939Z</time>
      </trkpt>
      <trkpt lat="47.3114" lon="-0.16433">
        <ele>70.6</ele>
        <time>2011-04-03T07:03:13.469Z</time>
      </trkpt>
      <trkpt lat="47.31138" lon="-0.16421">
        <ele>70.2</ele>
        <time>2011-04-03T07:03:15Z</time>
        <extensions>
          <type>
            <highway>track</highway>
            <surface>dirt</surface>
            </type>
        </extensions>
      </trkpt>
      <trkpt lat="47.31135" lon="-0.16409">
        <ele>70.2</ele>
        <time>2011-04-03T07:03:16.700Z</time>
      </trkpt>
      <trkpt lat="47.31132" lon="-0.16397">
        <ele>70.3</ele>
        <time>2011-04-03T07:03:18.400Z</time>
      </trkpt>
      <trkpt lat="47.31128" lon="-0.16384">
        <ele>70.4</ele>
        <time>2011-04-03T07:03:20.298Z</time>
      </trkpt>
      <trkpt lat="47.31125" lon="-0.16372">
        <ele>70.5</ele>
        <time>2011-04-03T07:03:22Z</time>
        <extensions>
          <type>
            <highway>track</highway>
            <surface>dirt</surface>
            </type>
        </extensions>
      </trkpt>
      <trkpt lat="47.31123" lon="-0.16366">
        <ele>70.6</ele>
        <time>2011-04-03T07:03:23.359Z</time>
      </trkpt>
      <trkpt lat="47.3112" lon="-0.1636">
        <ele>70.7</ele>
        <time>2011-04-03T07:03:24.875Z</time>
      </trkpt>
      <trkpt lat="47.31118" lon="-0.16355">
        <ele>70.9</ele>
        <time>2011-04-03T07:03:26.055Z</time>
      </trkpt>
      <trkpt lat="47.31116" lon="-0.16349">
        <ele>71.2</ele>
        <time>2011-04-03T07:03:27.414Z</time>
      </trkpt>
      <trkpt lat="47.31113" lon="-0.16343">
        <ele>71.5</ele>
        <time>2011-04-03T07:03:28.930Z</time>
      </trkpt>
      <trkpt lat="47.31111" lon="-0.16337">
        <ele>71.9</ele>
        <time>2011-04-03T07:03:30.289Z</time>
      </trkpt>
      <trkpt lat="47.31109" lon="-0.16331">
        <ele>71.9</ele>
        <time>2011-04-03T07:03:31.648Z</time>
      </trkpt>
      <trkpt lat="47.31107" lon="-0.16326">
        <ele>71.7</ele>
        <time>2011-04-03T07:03:32.828Z</time>
      </trkpt>
      <trkpt lat="47.31104" lon="-0.1632">
        <ele>71.5</ele>
        <time>2011-04-03T07:03:34.344Z</time>
      </trkpt>
      <trkpt lat="47.31102" lon="-0.16314">
        <ele>71.3</ele>
        <time>2011-04-03T07:03:35.704Z</time>
      </trkpt>
      <trkpt lat="47.311" lon="-0.16308">
        <ele>71.1</ele>
        <time>2011-04-03T07:03:37.064Z</time>
      </trkpt>
      <trkpt lat="47.31097" lon="-0.16302">
        <ele>70.9</ele>
        <time>2011-04-03T07:03:38.580Z</time>
      </trkpt>
      <trkpt lat="47.31095" lon="-0.16296">
        <ele>70.9</ele>
        <time>2011-04-03T07:03:39.940Z</time>
      </trkpt>
      <trkpt lat="47.31093" lon="-0.16291">
        <ele>70.8</ele>
        <time>2011-04-03T07:03:41.121Z</time>
      </trkpt>
      <trkpt lat="47.3109" lon="-0.16285">
        <ele>70.8</ele>
        <time>2011-04-03T07:03:42.638Z</time>
      </trkpt>
      <trkpt lat="47.31088" lon="-0.16279">
        <ele>70.8</ele>
        <time>2011-04-03T07:03:44Z</time>
        <extensions>
          <type>
            <highway>unclassified</highway>
            <surface>asphalt</surface>
            </type>
        </extensions>
      </trkpt>
      <trkpt lat="47.31086" lon="-0.16271">
        <ele>70.9</ele>
        <time>2011-04-03T07:03:45.309Z</time>
      </trkpt>
      <trkpt lat="47.31085" lon="-0.16263">
        <ele>71</ele>
        <time>2011-04-03T07:03:46.558Z</time>
      </trkpt>
      <trkpt lat="47.31083" lon="-0.16255">
        <ele>71</ele>
        <time>2011-04-03T07:03:47.867Z</time>
      </trkpt>
      <trkpt lat="47.31081" lon="-0.16247">
        <ele>71</ele>
        <time>2011-04-03T07:03:49.176Z</time>
      </trkpt>
      <trkpt lat="47.31079" lon="-0.1624">
        <ele>71.1</ele>
        <time>2011-04-03T07:03:50.342Z</time>
      </trkpt>
      <trkpt lat="47.31078" lon="-0.16232">
        <ele>71.1</ele>
        <time>2011-04-03T07:03:51.591Z</time>
      </trkpt>
      <trkpt lat="47.31076" lon="-0.16224">
        <ele>71.3</ele>
        <time>2011-04-03T07:03:52.900Z</time>
      </trkpt>
      <trkpt lat="47.31074" lon="-0.16216">
        <ele>71.3</ele>
        <time>2011-04-03T07:03:54.209Z</time>
      </trkpt>
      <trkpt lat="47.31072" lon="-0.16208">
        <ele>71.4</ele>
        <time>2011-04-03T07:03:55.518Z</time>
      </trkpt>
      <trkpt lat="47.31071" lon="-0.162">
        <ele>71.5</ele>
        <time>2011-04-03T07:03:56.767Z</time>
      </trkpt>
      <trkpt lat="47.31069" lon="-0.16192">
        <ele>71.6</ele>
        <time>2011-04-03T07:03:58.076Z</time>
      </trkpt>
      <trkpt lat="47.31067" lon="-0.16184">
        <ele>71.7</ele>
        <time>2011-04-03T07:03:59.386Z</time>
      </trkpt>
      <trkpt lat="47.31065" lon="-0.16176">
        <ele>71.9</ele>
        <time>2011-04-03T07:04:00.696Z</time>
      </trkpt>
      <trkpt lat="47.31064" lon="-0.16168">
        <ele>72</ele>
        <time>2011-04-03T07:04:01.945Z</time>
      </trkpt>
      <trkpt lat="47.31062" lon="-0.1616">
        <ele>72</ele>
        <time>2011-04-03T07:04:03.255Z</time>
      </trkpt>
      <trkpt lat="47.3106" lon="-0.16153">
        <ele>72</ele>
        <time>2011-04-03T07:04:04.422Z</time>
      </trkpt>
      <trkpt lat="47.31058" lon="-0.16145">
        <ele>72</ele>
        <time>2011-04-03T07:04:05.732Z</time>
      </trkpt>
      <trkpt lat="47.31057" lon="-0.16137">
        <ele>72</ele>
        <time>2011-04-03T07:04:06.981Z</time>
      </trkpt>
      <trkpt lat="47.31055" lon="-0.16129">
        <ele>72</ele>
        <time>2011-04-03T07:04:08.291Z</time>
      </trkpt>
      <trkpt lat="47.31053" lon="-0.16121">
        <ele>72.1</ele>
        <time>2011-04-03T07:04:09.601Z</time>
      </trkpt>
      <trkpt lat="47.31051" lon="-0.16113">
        <ele>72.2</ele>
        <time>2011-04-03T07:04:10.911Z</time>
      </trkpt>
      <trkpt lat="47.3105" lon="-0.16105">
        <ele>72.2</ele>
        <time>2011-04-03T07:04:12.161Z</time>
      </trkpt>
      <trkpt lat="47.31048" lon="-0.16097">
        <ele>72.1</ele>
        <time>2011-04-03T07:04:13.471Z</time>
      </trkpt>
      <trkpt lat="47.31046" lon="-0.16089">
        <ele>72.1</ele>
        <time>2011-04-03T07:04:14.781Z</time>
      </trkpt>
      <trkpt lat="47.31044" lon="-0.16081">
        <ele>72</ele>
        <time>2011-04-03T07:04:16.091Z</time>
      </trkpt>
      <trkpt lat="47.31043" lon="-0.16073">
        <ele>71.8</ele>
        <time>2011-04-03T07:04:17.341Z</time>
      </trkpt>
      <trkpt lat="47.31041" lon="-0.16066">
        <ele>71.7</ele>
        <time>2011-04-03T07:04:18.508Z</time>
      </trkpt>
      <trkpt lat="47.31039" lon="-0.16058">
        <ele>71.4</ele>
        <time>2011-04-03T07:04:19.818Z</time>
      </trkpt>
      <trkpt lat="47.31037" lon="-0.1605">
        <ele>71.2</ele>
        <time>2011-04-03T07:04:21.128Z</time>
      </trkpt>
      <trkpt lat="47.31036" lon="-0.16042">
        <ele>70.9</ele>
        <time>2011-04-03T07:04:22.378Z</time>
      </trkpt>
      <trkpt lat="47.31034" lon="-0.16034">
        <ele>70.6</ele>
        <time>2011-04-03T07:04:23.688Z</time>
      </trkpt>
      <trkpt lat="47.31032" lon="-0.16026">
        <ele>70.2</ele>
        <time>2011-04-03T07:04:25Z</time>
        <extensions>
          <type>
            <highway>unclassified</highway>
            <surface>asphalt</surface>
            </type>
        </extensions>
      </trkpt>
      <trkpt lat="47.31027" lon="-0.1602">
        <ele>69.7</ele>
        <time>2011-04-03T07:04:26.499Z</time>
      </trkpt>
      <trkpt lat="47.31022" lon="-0.16014">
        <ele>69.8</ele>
        <time>2011-04-03T07:04:28Z</time>
        <extensions>
          <type>
            <highway>track</highway>
            <surface>dirt</surface>
            </type>
        </extensions>
      </trkpt>
      <trkpt lat="47.31016" lon="-0.16014">
        <ele>70.1</ele>
        <time>2011-04-03T07:04:29.437Z</time>
      </trkpt>
      <trkpt lat="47.3101" lon="-0.16015">
        <ele>70.5</ele>
        <time>2011-04-03T07:04:30.884Z</time>
      </trkpt>
      <trkpt lat="47.31003" lon="-0.16015">
        <ele>70.8</ele>
        <time>2011-04-03T07:04:32.561Z</time>
      </trkpt>
      <trkpt lat="47.30997" lon="-0.16015">
        <ele>71.2</ele>
        <time>2011-04-03T07:04:34Z</time>
        <extensions>
          <type>
            <highway>track</highway>
            <surface>dirt</surface>
            </type>
        </extensions>
      </trkpt>
      <trkpt lat="47.30992" lon="-0.16016">
        <ele>71.7</ele>
        <time>2011-04-03T07:04:35.577Z</time>
      </trkpt>
      <trkpt lat="47.30988" lon="-0.16017">
        <ele>72.1</ele>
        <time>2011-04-03T07:04:36.845Z</time>
      </trkpt>
      <trkpt lat="47.30983" lon="-0.16018">
        <ele>72.6</ele>
        <time>2011-04-03T07:04:38.422Z</time>
      </trkpt>
      <trkpt lat="47.30978" lon="-0.16019">
        <ele>73</ele>
        <time>2011-04-03T07:04:40Z</time>
        <extensions>
          <type>
            <highway>track</highway>
            <surface>dirt</surface>
            </type>
        </extensions>
      </trkpt>
      <trkpt lat="47.30974" lon="-0.16021">
        <ele>73.3</ele>
        <time>2011-04-03T07:04:41.282Z</time>
      </trkpt>
      <trkpt lat="47.3097" lon="-0.16024">
        <ele>73.8</ele>
        <time>2011-04-03T07:04:42.644Z</time>
      </trkpt>
      <trkpt lat="47.30965" lon="-0.16026">
        <ele>74.6</ele>
        <time>2011-04-03T07:04:44.217Z</time>
      </trkpt>
      <trkpt lat="47.30961" lon="-0.16028">
        <ele>75.4</ele>
        <time>2011-04-03T07:04:45.499Z</time>
      </trkpt>
      <trkpt lat="47.30957" lon="-0.1603">
        <ele>76</ele>
        <time>2011-04-03T07:04:46.781Z</time>
      </trkpt>
      <trkpt lat="47.30953" lon="-0.16033">
        <ele>76.6</ele>
        <time>2011-04-03T07:04:48.143Z</time>
      </trkpt>
      <trkpt lat="47.30948" lon="-0.16035">
        <ele>77</ele>
        <time>2011-04-03T07:04:49.716Z</time>
      </trkpt>
      <trkpt lat="47.30944" lon="-0.16037">
        <ele>77.3</ele>
        <time>2011-04-03T07:04:51Z</time>
        <extensions>
          <type>
            <highway>track</highway>
            <surface>dirt</surface>
            </type>
        </extensions>
      </trkpt>
      <trkpt lat="47.30939" lon="-0.16036">
        <ele>77.6</ele>
        <time>2011-04-03T07:04:52.203Z</time>
      </trkpt>
      <trkpt lat="47.30934" lon="-0.16035">
        <ele>77.7</ele>
        <time>2011-04-03T07:04:53.406Z</time>
      </trkpt>
      <trkpt lat="47.30929" lon="-0.16034">
        <ele>77.9</ele>
        <time>2011-04-03T07:04:54.609Z</time>
      </trkpt>
      <trkpt lat="47.30924" lon="-0.16034">
        <ele>78.1</ele>
        <time>2011-04-03T07:04:55.801Z</time>
      </trkpt>
      <trkpt lat="47.30919" lon="-0.16033">
        <ele>78.3</ele>
        <time>2011-04-03T07:04:57.004Z</time>
      </trkpt>
      <trkpt lat="47.30914" lon="-0.16032">
        <ele>78.3</ele>
        <time>2011-04-03T07:04:58.207Z</time>
      </trkpt>
      <trkpt lat="47.30909" lon="-0.16031">
        <ele>78.1</ele>
        <time>2011-04-03T07:04:59.410Z</time>
      </trkpt>
      <trkpt lat="47.30905" lon="-0.1603">
        <ele>77.9</ele>
        <time>2011-04-03T07:05:00.378Z</time>
      </trkpt>
      <trkpt lat="47.309" lon="-0.16029">
        <ele>77.7</ele>
        <time>2011-04-03T07:05:01.582Z</time>
      </trkpt>
      <trkpt lat="47.30895" lon="-0.16028">
        <ele>77.4</ele>
        <time>2011-04-03T07:05:02.786Z</time>
      </trkpt>
      <trkpt lat="47.3089" lon="-0.16027">
        <ele>77.1</ele>
        <time>2011-04-03T07:05:03.990Z</time>
      </trkpt>
      <trkpt lat="47.30885" lon="-0.16027">
        <ele>76.6</ele>
        <time>2011-04-03T07:05:05.183Z</time>
      </trkpt>
      <trkpt lat="47.3088" lon="-0.16026">
        <ele>76.1</ele>
        <time>2011-04-03T07:05:06.387Z</time>
      </trkpt>
      <trkpt lat="47.30875" lon="-0.16025">
        <ele>75.7</ele>
        <time>2011-04-03T07:05:07.591Z</time>
      </trkpt>
      <trkpt lat="47.3087" lon="-0.16024">
        <ele>75.2</ele>
        <time>2011-04-03T07:05:08.795Z</time>
      </trkpt>
      <trkpt lat="47.30865" lon="-0.16023">
        <ele>74.7</ele>
        <time>2011-04-03T07:05:10Z</time>
        <extensions>
          <type>
            <highway>track</highway>
            <surface>dirt</surface>
            </type>
        </extensions>
      </trkpt>
      <trkpt lat="47.30857" lon="-0.1602">
        <ele>74.4</ele>
        <time>2011-04-03T07:05:11.500Z</time>
      </trkpt>
      <trkpt lat="47.30849" lon="-0.16017">
        <ele>74.2</ele>
        <time>2011-04-03T07:05:13Z</time>
        <extensions>
          <type>
            <highway>path</highway>
            <surface>dirt</surface>
            </type>
        </extensions>
      </trkpt>
      <trkpt lat="47.30846" lon="-0.16012">
        <ele>74.3</ele>
        <time>2011-04-03T07:05:14.547Z</time>
      </trkpt>
      <trkpt lat="47.30842" lon="-0.16006">
        <ele>74.4</ele>
        <time>2011-04-03T07:05:16.497Z</time>
      </trkpt>
      <trkpt lat="47.30839" lon="-0.16001">
        <ele>74.4</ele>
        <time>2011-04-03T07:05:18.044Z</time>
      </trkpt>
      <trkpt lat="47.30836" lon="-0.15996">
        <ele>74.5</ele>
        <time>2011-04-03T07:05:19.591Z</time>
      </trkpt>
      <trkpt lat="47.30832" lon="-0.1599">
        <ele>74.5</ele>
        <time>2011-04-03T07:05:21.541Z</time>
      </trkpt>
      <trkpt lat="47.30829" lon="-0.15985">
        <ele>74.2</ele>
        <time>2011-04-03T07:05:23.088Z</time>
      </trkpt>
      <trkpt lat="47.30826" lon="-0.15979">
        <ele>73.7</ele>
        <time>2011-04-03T07:05:24.816Z</time>
      </trkpt>
      <trkpt lat="47.30823" lon="-0.15974">
        <ele>73.2</ele>
        <time>2011-04-03T07:05:26.363Z</time>
      </trkpt>
      <trkpt lat="47.30819" lon="-0.15969">
        <ele>72.4</ele>
        <time>2011-04-03T07:05:28.155Z</time>
      </trkpt>
      <trkpt lat="47.30816" lon="-0.15963">
        <ele>71.8</ele>
        <time>2011-04-03T07:05:29.883Z</time>
      </trkpt>
      <trkpt lat="47.30813" lon="-0.15958">
        <ele>71.3</ele>
        <time>2011-04-03T07:05:31.431Z</time>
      </trkpt>
      <trkpt lat="47.30809" lon="-0.15953">
        <ele>71</ele>
        <time>2011-04-03T07:05:33.224Z</time>
      </trkpt>
      <trkpt lat="47.30806" lon="-0.15947">
        <ele>70.9</ele>
        <time>2011-04-03T07:05:34.952Z</time>
      </trkpt>
      <trkpt lat="47.30803" lon="-0.15942">
        <ele>69.9</ele>
        <time>2011-04-03T07:05:36.500Z</time>
      </trkpt>
      <trkpt lat="47.30799" lon="-0.15936">
        <ele>68.7</ele>
        <time>2011-04-03T07:05:38.451Z</time>
      </trkpt>
      <trkpt lat="47.30796" lon="-0.15931">
        <ele>67.4</ele>
        <time>2011-04-03T07:05:40Z</time>
        <extensions>
          <type>
            <highway>path</highway>
            <surface>dirt</surface>
            </type>
        </extensions>
      </trkpt>
      <trkpt lat="47.30792" lon="-0.15931">
        <ele>65.9</ele>
        <time>2011-04-03T07:05:41.547Z</time>
      </trkpt>
      <trkpt lat="47.30787" lon="-0.1593">
        <ele>64.5</ele>
        <time>2011-04-03T07:05:43.499Z</time>
      </trkpt>
      <trkpt lat="47.30783" lon="-0.1593">
        <ele>63</ele>
        <time>2011-04-03T07:05:45.047Z</time>
      </trkpt>
      <trkpt lat="47.30778" lon="-0.15929">
        <ele>61.5</ele>
        <time>2011-04-03T07:05:47Z</time>
        <extensions>
          <type>
            <highway>path</highway>
            <surface>dirt</surface>
            </type>
        </extensions>
      </trkpt>
      <trkpt lat="47.3077" lon="-0.15931">
        <ele>59.1</ele>
        <time>2011-04-03T07:05:50.351Z</time>
      </trkpt>
      <trkpt lat="47.30763" lon="-0.15933">
        <ele>56.6</ele>
        <time>2011-04-03T07:05:53.296Z</time>
      </trkpt>
      <trkpt lat="47.30755" lon="-0.15935">
        <ele>54.2</ele>
        <time>2011-04-03T07:05:56.648Z</time>
      </trkpt>
      <trkpt lat="47.30747" lon="-0.15937">
        <ele>51.8</ele>
        <time>2011-04-03T07:06:00Z</time>
        <extensions>
          <type>
            <highway>path</highway>
            <surface>dirt</surface>
            </type>
        </extensions>
      </trkpt>
      <trkpt lat="47.3074" lon="-0.15942">
        <ele>49.5</ele>
        <time>2011-04-03T07:06:03.499Z</time>
      </trkpt>
      <trkpt lat="47.30733" lon="-0.15947">
        <ele>46.8</ele>
        <time>2011-04-03T07:06:07Z</time>
        <extensions>
          <type>
            <highway>path</highway>
            <surface>dirt</surface>
            </type>
        </extensions>
      </trkpt>
      <trkpt lat="47.30725" lon="-0.1595">
        <ele>43.9</ele>
        <time>2011-04-03T07:06:08.810Z</time>
      </trkpt>
      <trkpt lat="47.30718" lon="-0.15953">
        <ele>41.7</ele>
        <time>2011-04-03T07:06:10.409Z</time>
      </trkpt>
      <trkpt lat="47.3071" lon="-0.15955">
        <ele>40.1</ele>
        <time>2011-04-03T07:06:12.189Z</time>
      </trkpt>
      <trkpt lat="47.30702" lon="-0.15958">
        <ele>38.5</ele>
        <time>2011-04-03T07:06:14Z</time>
        <extensions>
          <type>
            <highway>residential</highway>
            <surface>asphalt</surface>
            </type>
        </extensions>
      </trkpt>
      <trkpt lat="47.30694" lon="-0.15954">
        <ele>37</ele>
        <time>2011-04-03T07:06:16Z</time>
        <extensions>
          <type>
            <highway>residential</highway>
            <surface>asphalt</surface>
            </type>
        </extensions>
      </trkpt>
      <trkpt lat="47.30691" lon="-0.15948">
        <ele>37</ele>
        <time>2011-04-03T07:06:17.144Z</time>
      </trkpt>
      <trkpt lat="47.30687" lon="-0.15942">
        <ele>37</ele>
        <time>2011-04-03T07:06:18.436Z</time>
      </trkpt>
      <trkpt lat="47.30684" lon="-0.15935">
        <ele>36.9</ele>
        <time>2011-04-03T07:06:19.707Z</time>
      </trkpt>
      <trkpt lat="47.3068" lon="-0.15929">
        <ele>36.7</ele>
        <time>2011-04-03T07:06:21Z</time>
        <extensions>
          <type>
            <highway>residential</highway>
            <surface>asphalt</surface>
            </type>
        </extensions>
      </trkpt>
      <trkpt lat="47.30676" lon="-0.15924">
        <ele>36.5</ele>
        <time>2011-04-03T07:06:27.843Z</time>
      </trkpt>
      <trkpt lat="47.30671" lon="-0.15919">
        <ele>36.2</ele>
        <time>2011-04-03T07:06:35.727Z</time>
      </trkpt>
      <trkpt lat="47.30667" lon="-0.15913">
        <ele>36</ele>
        <time>2011-04-03T07:06:43.173Z</time>
      </trkpt>
      <trkpt lat="47.30663" lon="-0.15908">
        <ele>36</ele>
        <time>2011-04-03T07:06:50.016Z</time>
      </trkpt>
      <trkpt lat="47.30658" lon="-0.15903">
        <ele>36</ele>
        <time>2011-04-03T07:06:57.900Z</time>
      </trkpt>
      <trkpt lat="47.30654" lon="-0.15898">
        <ele>36</ele>
        <time>2011-04-03T07:07:04.743Z</time>
      </trkpt>
      <trkpt lat="47.30649" lon="-0.15892">
        <ele>36</ele>
        <time>2011-04-03T07:07:13.156Z</time>
      </trkpt>
      <trkpt lat="47.30645" lon="-0.15887">
        <ele>35.9</ele>
        <time>2011-04-03T07:07:20Z</time>
        <extensions>
          <type>
            <highway>tertiary</highway>
            <surface>asphalt</surface>
            </type>
        </extensions>
      </trkpt>
      <trkpt lat="47.30648" lon="-0.15881">
        <ele>35.8</ele>
        <time>2011-04-03T07:07:21.820Z</time>
      </trkpt>
      <trkpt lat="47.30651" lon="-0.15875">
        <ele>35.7</ele>
        <time>2011-04-03T07:07:23.640Z</time>
      </trkpt>
      <trkpt lat="47.30653" lon="-0.15869">
        <ele>35.7</ele>
        <time>2011-04-03T07:07:25.273Z</time>
      </trkpt>
      <trkpt lat="47.30656" lon="-0.15864">
        <ele>35.6</ele>
        <time>2011-04-03T07:07:26.903Z</time>
      </trkpt>
      <trkpt lat="47.30659" lon="-0.15858">
        <ele>35.6</ele>
        <time>2011-04-03T07:07:28.724Z</time>
      </trkpt>
      <trkpt lat="47.30662" lon="-0.15852">
        <ele>35.5</ele>
        <time>2011-04-03T07:07:30.545Z</time>
      </trkpt>
      <trkpt lat="47.30664" lon="-0.15846">
        <ele>35.4</ele>
        <time>2011-04-03T07:07:32.178Z</time>
      </trkpt>
      <trkpt lat="47.30667" lon="-0.1584">
        <ele>35.3</ele>
        <time>2011-04-03T07:07:34Z</time>
        <extensions>
          <type>
            <highway>tertiary</highway>
            <surface>asphalt</surface>
            </type>
        </extensions>
      </trkpt>
      <trkpt lat="47.30671" lon="-0.15834">
        <ele>35.5</ele>
        <time>2011-04-03T07:07:35.956Z</time>
      </trkpt>
      <trkpt lat="47.30676" lon="-0.15828">
        <ele>35.7</ele>
        <time>2011-04-03T07:07:38.166Z</time>
      </trkpt>
      <trkpt lat="47.3068" lon="-0.15822">
        <ele>35.8</ele>
        <time>2011-04-03T07:07:40.122Z</time>
      </trkpt>
      <trkpt lat="47.30684" lon="-0.15817">
        <ele>35.9</ele>
        <time>2011-04-03T07:07:41.920Z</time>
      </trkpt>
      <trkpt lat="47.30688" lon="-0.15811">
        <ele>35.9</ele>
        <time>2011-04-03T07:07:43.876Z</time>
      </trkpt>
      <trkpt lat="47.30693" lon="-0.15805">
        <ele>35.8</ele>
        <time>2011-04-03T07:07:46.086Z</time>
      </trkpt>
      <trkpt lat="47.30697" lon="-0.15799">
        <ele>36.1</ele>
        <time>2011-04-03T07:07:48.043Z</time>
      </trkpt>
      <trkpt lat="47.30701" lon="-0.15793">
        <ele>36.7</ele>
        <time>2011-04-03T07:07:50Z</time>
        <extensions>
          <type>
            <highway>tertiary</highway>
            <surface>asphalt</surface>
            </type>
        </extensions>
      </trkpt>
      <trkpt lat="47.30702" lon="-0.15786">
        <ele>36.8</ele>
        <time>2011-04-03T07:07:51.450Z</time>
      </trkpt>
      <trkpt lat="47.30703" lon="-0.15779">
        <ele>36.9</ele>
        <time>2011-04-03T07:07:52.900Z</time>
      </trkpt>
      <trkpt lat="47.30704" lon="-0.15771">
        <ele>36.4</ele>
        <time>2011-04-03T07:07:54.549Z</time>
      </trkpt>
      <trkpt lat="47.30705" lon="-0.15764">
        <ele>35.7</ele>
        <time>2011-04-03T07:07:56Z</time>
        <extensions>
          <type>
            <highway>tertiary</highway>
            <surface>asphalt</surface>
            </type>
        </extensions>
      </trkpt>
      <trkpt lat="47.30704" lon="-0.15755">
        <ele>34.7</ele>
        <time>2011-04-03T07:07:57.162Z</time>
      </trkpt>
      <trkpt lat="47.30704" lon="-0.15747">
        <ele>34</ele>
        <time>2011-04-03T07:07:58.181Z</time>
      </trkpt>
      <trkpt lat="47.30703" lon="-0.15738">
        <ele>34.1</ele>
        <time>2011-04-03T07:07:59.343Z</time>
      </trkpt>
      <trkpt lat="47.30703" lon="-0.15729">
        <ele>34.1</ele>
        <time>2011-04-03T07:08:00.490Z</time>
      </trkpt>
      <trkpt lat="47.30702" lon="-0.1572">
        <ele>34</ele>
        <time>2011-04-03T07:08:01.652Z</time>
      </trkpt>
      <trkpt lat="47.30701" lon="-0.15712">
        <ele>33.6</ele>
        <time>2011-04-03T07:08:02.689Z</time>
      </trkpt>
      <trkpt lat="47.30701" lon="-0.15703">
        <ele>33.2</ele>
        <time>2011-04-03T07:08:03.836Z</time>
      </trkpt>
      <trkpt lat="47.307" lon="-0.15694">
        <ele>32.8</ele>
        <time>2011-04-03T07:08:05Z</time>
        <extensions>
          <type>
            <highway>tertiary</highway>
            <surface>asphalt</surface>
            </type>
        </extensions>
      </trkpt>
      <trkpt lat="47.30697" lon="-0.15684">
        <ele>32.3</ele>
        <time>2011-04-03T07:08:06.284Z</time>
      </trkpt>
      <trkpt lat="47.30693" lon="-0.15673">
        <ele>32</ele>
        <time>2011-04-03T07:08:07.749Z</time>
      </trkpt>
      <trkpt lat="47.3069" lon="-0.15663">
        <ele>32</ele>
        <time>2011-04-03T07:08:09.033Z</time>
      </trkpt>
      <trkpt lat="47.30686" lon="-0.15652">
        <ele>31.8</ele>
        <time>2011-04-03T07:08:10.499Z</time>
      </trkpt>
      <trkpt lat="47.30683" lon="-0.15642">
        <ele>31.6</ele>
        <time>2011-04-03T07:08:11.783Z</time>
      </trkpt>
      <trkpt lat="47.30679" lon="-0.15631">
        <ele>31.4</ele>
        <time>2011-04-03T07:08:13.249Z</time>
      </trkpt>
      <trkpt lat="47.30676" lon="-0.15621">
        <ele>31.3</ele>
        <time>2011-04-03T07:08:14.533Z</time>
      </trkpt>
      <trkpt lat="47.30672" lon="-0.1561">
        <ele>31.2</ele>
        <time>2011-04-03T07:08:16Z</time>
        <extensions>
          <type>
            <highway>tertiary</highway>
            <surface>asphalt</surface>
            </type>
        </extensions>
      </trkpt>
      <trkpt lat="47.3067" lon="-0.15602">
        <ele>31.1</ele>
        <time>2011-04-03T07:08:17.223Z</time>
      </trkpt>
      <trkpt lat="47.30668" lon="-0.15594">
        <ele>31</ele>
        <time>2011-04-03T07:08:18.446Z</time>
      </trkpt>
      <trkpt lat="47.30666" lon="-0.15585">
        <ele>31</ele>
        <time>2011-04-03T07:08:19.804Z</time>
      </trkpt>
      <trkpt lat="47.30665" lon="-0.15577">
        <ele>31.2</ele>
        <time>2011-04-03T07:08:20.971Z</time>
      </trkpt>
      <trkpt lat="47.30663" lon="-0.15569">
        <ele>31.4</ele>
        <time>2011-04-03T07:08:22.194Z</time>
      </trkpt>
      <trkpt lat="47.30661" lon="-0.15561">
        <ele>31.6</ele>
        <time>2011-04-03T07:08:23.417Z</time>
      </trkpt>
      <trkpt lat="47.30659" lon="-0.15552">
        <ele>31.9</ele>
        <time>2011-04-03T07:08:24.776Z</time>
      </trkpt>
      <trkpt lat="47.30657" lon="-0.15544">
        <ele>32.3</ele>
        <time>2011-04-03T07:08:26Z</time>
        <extensions>
          <type>
            <highway>tertiary</highway>
            <surface>asphalt</surface>
            </type>
        </extensions>
      </trkpt>
      <trkpt lat="47.30659" lon="-0.15534">
        <ele>32.3</ele>
        <time>2011-04-03T07:08:27.505Z</time>
      </trkpt>
      <trkpt lat="47.3066" lon="-0.15524">
        <ele>32.2</ele>
        <time>2011-04-03T07:08:28.964Z</time>
      </trkpt>
      <trkpt lat="47.30662" lon="-0.15514">
        <ele>31.9</ele>
        <time>2011-04-03T07:08:30.469Z</time>
      </trkpt>
      <trkpt lat="47.30663" lon="-0.15504">
        <ele>31.7</ele>
        <time>2011-04-03T07:08:31.929Z</time>
      </trkpt>
      <trkpt lat="47.30665" lon="-0.15493">
        <ele>31.7</ele>
        <time>2011-04-03T07:08:33.573Z</time>
      </trkpt>
      <trkpt lat="47.30666" lon="-0.15483">
        <ele>31.8</ele>
        <time>2011-04-03T07:08:35.033Z</time>
      </trkpt>
      <trkpt lat="47.30668" lon="-0.15473">
        <ele>31.8</ele>
        <time>2011-04-03T07:08:36.539Z</time>
      </trkpt>
      <trkpt lat="47.30669" lon="-0.15463">
        <ele>32.5</ele>
        <time>2011-04-03T07:08:38Z</time>
        <extensions>
          <type>
            <highway>tertiary</highway>
            <surface>asphalt</surface>
            </type>
        </extensions>
      </trkpt>
      <trkpt lat="47.30671" lon="-0.15457">
        <ele>32.7</ele>
        <time>2011-04-03T07:08:38.809Z</time>
      </trkpt>
      <trkpt lat="47.30674" lon="-0.1545">
        <ele>32.9</ele>
        <time>2011-04-03T07:08:39.811Z</time>
      </trkpt>
      <trkpt lat="47.30676" lon="-0.15443">
        <ele>33</ele>
        <time>2011-04-03T07:08:40.730Z</time>
      </trkpt>
      <trkpt lat="47.30679" lon="-0.15437">
        <ele>33.1</ele>
        <time>2011-04-03T07:08:41.632Z</time>
      </trkpt>
      <trkpt lat="47.30681" lon="-0.1543">
        <ele>33.1</ele>
        <time>2011-04-03T07:08:42.551Z</time>
      </trkpt>
      <trkpt lat="47.30684" lon="-0.15424">
        <ele>33</ele>
        <time>2011-04-03T07:08:43.453Z</time>
      </trkpt>
      <trkpt lat="47.30686" lon="-0.15417">
        <ele>32.7</ele>
        <time>2011-04-03T07:08:44.372Z</time>
      </trkpt>
      <trkpt lat="47.30689" lon="-0.15411">
        <ele>32</ele>
        <time>2011-04-03T07:08:45.274Z</time>
      </trkpt>
      <trkpt lat="47.30691" lon="-0.15404">
        <ele>31.3</ele>
        <time>2011-04-03T07:08:46.193Z</time>
      </trkpt>
      <trkpt lat="47.30693" lon="-0.15398">
        <ele>30.4</ele>
        <time>2011-04-03T07:08:47.002Z</time>
      </trkpt>
      <trkpt lat="47.30696" lon="-0.15391">
        <ele>29.9</ele>
        <time>2011-04-03T07:08:48.004Z</time>
      </trkpt>
      <trkpt lat="47.30698" lon="-0.15385">
        <ele>29.6</ele>
        <time>2011-04-03T07:08:48.813Z</time>
      </trkpt>
      <trkpt lat="47.30701" lon="-0.15378">
        <ele>29.4</ele>
        <time>2011-04-03T07:08:49.816Z</time>
      </trkpt>
      <trkpt lat="47.30703" lon="-0.15372">
        <ele>29.3</ele>
        <time>2011-04-03T07:08:50.625Z</time>
      </trkpt>
      <trkpt lat="47.30706" lon="-0.15365">
        <ele>29.1</ele>
        <time>2011-04-03T07:08:51.628Z</time>
      </trkpt>
      <trkpt lat="47.30708" lon="-0.15359">
        <ele>29</ele>
        <time>2011-04-03T07:08:52.437Z</time>
      </trkpt>
      <trkpt lat="47.3071" lon="-0.15352">
        <ele>28.7</ele>
        <time>2011-04-03T07:08:53.357Z</time>
      </trkpt>
      <trkpt lat="47.30713" lon="-0.15345">
        <ele>28.5</ele>
        <time>2011-04-03T07:08:54.360Z</time>
      </trkpt>
      <trkpt lat="47.30715" lon="-0.15339">
        <ele>28.3</ele>
        <time>2011-04-03T07:08:55.169Z</time>
      </trkpt>
      <trkpt lat="47.30718" lon="-0.15332">
        <ele>28.2</ele>
        <time>2011-04-03T07:08:56.172Z</time>
      </trkpt>
      <trkpt lat="47.3072" lon="-0.15326">
        <ele>28.1</ele>
        <time>2011-04-03T07:08:56.982Z</time>
      </trkpt>
      <trkpt lat="47.30723" lon="-0.15319">
        <ele>28</ele>
        <time>2011-04-03T07:08:57.985Z</time>
      </trkpt>
      <trkpt lat="47.30725" lon="-0.15313">
        <ele>27.8</ele>
        <time>2011-04-03T07:08:58.795Z</time>
      </trkpt>
      <trkpt lat="47.30728" lon="-0.15306">
        <ele>27.6</ele>
        <time>2011-04-03T07:08:59.798Z</time>
      </trkpt>
      <trkpt lat="47.3073" lon="-0.153">
        <ele>27.4</ele>
        <time>2011-04-03T07:09:00.608Z</time>
      </trkpt>
      <trkpt lat="47.30732" lon="-0.15293">
        <ele>27.3</ele>
        <time>2011-04-03T07:09:01.528Z</time>
      </trkpt>
      <trkpt lat="47.30735" lon="-0.15287">
        <ele>27.1</ele>
        <time>2011-04-03T07:09:02.431Z</time>
      </trkpt>
      <trkpt lat="47.30737" lon="-0.1528">
        <ele>26.9</ele>
        <time>2011-04-03T07:09:03.351Z</time>
      </trkpt>
      <trkpt lat="47.3074" lon="-0.15274">
        <ele>27</ele>
        <time>2011-04-03T07:09:04.254Z</time>
      </trkpt>
      <trkpt lat="47.30742" lon="-0.15267">
        <ele>27.2</ele>
        <time>2011-04-03T07:09:05.175Z</time>
      </trkpt>
      <trkpt lat="47.30745" lon="-0.15261">
        <ele>27.5</ele>
        <time>2011-04-03T07:09:06.078Z</time>
      </trkpt>
      <trkpt lat="47.30747" lon="-0.15254">
        <ele>27.8</ele>
        <time>2011-04-03T07:09:07Z</time>
        <extensions>
          <type>
            <highway>tertiary</highway>
            <surface>asphalt</surface>
            </type>
        </extensions>
      </trkpt>
      <trkpt lat="47.30748" lon="-0.15247">
        <ele>28.2</ele>
        <time>2011-04-03T07:09:08.221Z</time>
      </trkpt>
      <trkpt lat="47.30748" lon="-0.1524">
        <ele>28.4</ele>
        <time>2011-04-03T07:09:09.416Z</time>
      </trkpt>
      <trkpt lat="47.30749" lon="-0.15232">
        <ele>28.7</ele>
        <time>2011-04-03T07:09:10.804Z</time>
      </trkpt>
      <trkpt lat="47.30749" lon="-0.15225">
        <ele>28.9</ele>
        <time>2011-04-03T07:09:12Z</time>
        <extensions>
          <type>
            <highway>secondary</highway>
            <surface>asphalt</surface>
            </type>
        </extensions>
      </trkpt>
      <trkpt lat="47.30745" lon="-0.15215">
        <ele>28.6</ele>
        <time>2011-04-03T07:09:14.208Z</time>
      </trkpt>
      <trkpt lat="47.30741" lon="-0.15205">
        <ele>28.1</ele>
        <time>2011-04-03T07:09:16.416Z</time>
      </trkpt>
      <trkpt lat="47.30737" lon="-0.15194">
        <ele>27.9</ele>
        <time>2011-04-03T07:09:18.790Z</time>
      </trkpt>
      <trkpt lat="47.30733" lon="-0.15184">
        <ele>28.5</ele>
        <time>2011-04-03T07:09:21Z</time>
        <extensions>
          <type>
            <highway>unclassified</highway>
            <surface>asphalt</surface>
            </type>
        </extensions>
      </trkpt>
      <trkpt lat="47.30725" lon="-0.15185">
        <ele>29.1</ele>
        <time>2011-04-03T07:09:24Z</time>
        <extensions>
          <type>
            <highway>unclassified</highway>
            <surface>asphalt</surface>
            </type>
        </extensions>
      </trkpt>
      <trkpt lat="47.3072" lon="-0.15192">
        <ele>29.4</ele>
        <time>2011-04-03T07:09:25.965Z</time>
      </trkpt>
      <trkpt lat="47.30715" lon="-0.152">
        <ele>30</ele>
        <time>2011-04-03T07:09:28.068Z</time>
      </trkpt>
      <trkpt lat="47.3071" lon="-0.15207">
        <ele>30.8</ele>
        <time>2011-04-03T07:09:30.033Z</time>
      </trkpt>
      <trkpt lat="47.30705" lon="-0.15214">
        <ele>31.5</ele>
        <time>2011-04-03T07:09:32Z</time>
        <extensions>
          <type>
            <highway>unclassified</highway>
            <surface>asphalt</surface>
            </type>
        </extensions>
      </trkpt>
      <trkpt lat="47.30702" lon="-0.1522">
        <ele>31.9</ele>
        <time>2011-04-03T07:09:33.492Z</time>
      </trkpt>
      <trkpt lat="47.307" lon="-0.15227">
        <ele>32.3</ele>
        <time>2011-04-03T07:09:35.013Z</time>
      </trkpt>
      <trkpt lat="47.30697" lon="-0.15233">
        <ele>32.7</ele>
        <time>2011-04-03T07:09:36.506Z</time>
      </trkpt>
      <trkpt lat="47.30694" lon="-0.15239">
        <ele>33.2</ele>
        <time>2011-04-03T07:09:37.999Z</time>
      </trkpt>
      <trkpt lat="47.30691" lon="-0.15245">
        <ele>34.3</ele>
        <time>2011-04-03T07:09:39.492Z</time>
      </trkpt>
      <trkpt lat="47.30689" lon="-0.15252">
        <ele>35</ele>
        <time>2011-04-03T07:09:41.013Z</time>
      </trkpt>
      <trkpt lat="47.30686" lon="-0.15258">
        <ele>35.7</ele>
        <time>2011-04-03T07:09:42.506Z</time>
      </trkpt>
      <trkpt lat="47.30683" lon="-0.15264">
        <ele>36.3</ele>
        <time>2011-04-03T07:09:44Z</time>
        <extensions>
          <type>
            <highway>unclassified</highway>
            <surface>asphalt</surface>
            </type>
        </extensions>
      </trkpt>
      <trkpt lat="47.3068" lon="-0.15275">
        <ele>36.9</ele>
        <time>2011-04-03T07:09:46.294Z</time>
      </trkpt>
      <trkpt lat="47.30677" lon="-0.15286">
        <ele>37.8</ele>
        <time>2011-04-03T07:09:48.588Z</time>
      </trkpt>
      <trkpt lat="47.30674" lon="-0.15296">
        <ele>38.9</ele>
        <time>2011-04-03T07:09:50.704Z</time>
      </trkpt>
      <trkpt lat="47.30671" lon="-0.15307">
        <ele>39.9</ele>
        <time>2011-04-03T07:09:53Z</time>
        <extensions>
          <type>
            <highway>unclassified</highway>
            <surface>asphalt</surface>
            </type>
        </extensions>
      </trkpt>
      <trkpt lat="47.30667" lon="-0.15313">
        <ele>40.7</ele>
        <time>2011-04-03T07:09:54.801Z</time>
      </trkpt>
      <trkpt lat="47.30664" lon="-0.15319">
        <ele>41</ele>
        <time>2011-04-03T07:09:56.397Z</time>
      </trkpt>
      <trkpt lat="47.3066" lon="-0.15325">
        <ele>41.2</ele>
        <time>2011-04-03T07:09:58.198Z</time>
      </trkpt>
      <trkpt lat="47.30656" lon="-0.15331">
        <ele>41.4</ele>
        <time>2011-04-03T07:10:00Z</time>
        <extensions>
          <type>
            <highway>unclassified</highway>
            <surface>asphalt</surface>
            </type>
        </extensions>
      </trkpt>
      <trkpt lat="47.30649" lon="-0.15336">
        <ele>43</ele>
        <time>2011-04-03T07:10:02.798Z</time>
      </trkpt>
      <trkpt lat="47.30642" lon="-0.1534">
        <ele>44.5</ele>
        <time>2011-04-03T07:10:05.499Z</time>
      </trkpt>
      <trkpt lat="47.30635" lon="-0.15345">
        <ele>45.7</ele>
        <time>2011-04-03T07:10:08.298Z</time>
      </trkpt>
      <trkpt lat="47.30628" lon="-0.15349">
        <ele>46.8</ele>
        <time>2011-04-03T07:10:11Z</time>
        <extensions>
          <type>
            <highway>unclassified</highway>
            <surface>asphalt</surface>
            </type>
        </extensions>
      </trkpt>
      <trkpt lat="47.30622" lon="-0.15356">
        <ele>47.3</ele>
        <time>2011-04-03T07:10:13.499Z</time>
      </trkpt>
      <trkpt lat="47.30616" lon="-0.15363">
        <ele>47.8</ele>
        <time>2011-04-03T07:10:16Z</time>
        <extensions>
          <type>
            <highway>unclassified</highway>
            <surface>asphalt</surface>
            </type>
        </extensions>
      </trkpt>
      <trkpt lat="47.30614" lon="-0.15369">
        <ele>47.7</ele>
        <time>2011-04-03T07:10:17.947Z</time>
      </trkpt>
      <trkpt lat="47.30611" lon="-0.15376">
        <ele>47.4</ele>
        <time>2011-04-03T07:10:20.359Z</time>
      </trkpt>
      <trkpt lat="47.30609" lon="-0.15382">
        <ele>47.8</ele>
        <time>2011-04-03T07:10:22.306Z</time>
      </trkpt>
      <trkpt lat="47.30607" lon="-0.15389">
        <ele>48.4</ele>
        <time>2011-04-03T07:10:24.519Z</time>
      </trkpt>
      <trkpt lat="47.30604" lon="-0.15395">
        <ele>50</ele>
        <time>2011-04-03T07:10:26.691Z</time>
      </trkpt>
      <trkpt lat="47.30602" lon="-0.15401">
        <ele>51.4</ele>
        <time>2011-04-03T07:10:28.639Z</time>
      </trkpt>
      <trkpt lat="47.30599" lon="-0.15408">
        <ele>52.8</ele>
        <time>2011-04-03T07:10:31.051Z</time>
      </trkpt>
      <trkpt lat="47.30597" lon="-0.15414">
        <ele>54</ele>
        <time>2011-04-03T07:10:33Z</time>
        <extensions>
          <type>
            <highway>unclassified</highway>
            <surface>asphalt</surface>
            </type>
        </extensions>
      </trkpt>
      <trkpt lat="47.3059" lon="-0.15421">
        <ele>55.9</ele>
        <time>2011-04-03T07:10:35.999Z</time>
      </trkpt>
      <trkpt lat="47.30583" lon="-0.15428">
        <ele>56.6</ele>
        <time>2011-04-03T07:10:39Z</time>
        <extensions>
          <type>
            <highway>unclassified</highway>
            <surface>asphalt</surface>
            </type>
        </extensions>
      </trkpt>
      <trkpt lat="47.30577" lon="-0.15429">
        <ele>57.3</ele>
        <time>2011-04-03T07:10:42.233Z</time>
      </trkpt>
      <trkpt lat="47.3057" lon="-0.1543">
        <ele>58</ele>
        <time>2011-04-03T07:10:45.999Z</time>
      </trkpt>
      <trkpt lat="47.30564" lon="-0.15431">
        <ele>58.8</ele>
        <time>2011-04-03T07:10:49.233Z</time>
      </trkpt>
      <trkpt lat="47.30557" lon="-0.15432">
        <ele>59.5</ele>
        <time>2011-04-03T07:10:53Z</time>
        <extensions>
          <type>
            <highway>unclassified</highway>
            <surface>asphalt</surface>
            </type>
        </extensions>
      </trkpt>
      <trkpt lat="47.3055" lon="-0.15431">
        <ele>60.3</ele>
        <time>2011-04-03T07:10:56.086Z</time>
      </trkpt>
      <trkpt lat="47.30544" lon="-0.15429">
        <ele>61</ele>
        <time>2011-04-03T07:10:58.785Z</time>
      </trkpt>
      <trkpt lat="47.30537" lon="-0.15428">
        <ele>61.6</ele>
        <time>2011-04-03T07:11:01.871Z</time>
      </trkpt>
      <trkpt lat="47.3053" lon="-0.15426">
        <ele>62.2</ele>
        <time>2011-04-03T07:11:05Z</time>
        <extensions>
          <type>
            <highway>unclassified</highway>
            <surface>asphalt</surface>
            </type>
        </extensions>
      </trkpt>
      <trkpt lat="47.30525" lon="-0.15422">
        <ele>63</ele>
        <time>2011-04-03T07:11:07.772Z</time>
      </trkpt>
      <trkpt lat="47.30521" lon="-0.15417">
        <ele>63.4</ele>
        <time>2011-04-03T07:11:10.327Z</time>
      </trkpt>
      <trkpt lat="47.30516" lon="-0.15413">
        <ele>63.9</ele>
        <time>2011-04-03T07:11:13.099Z</time>
      </trkpt>
      <trkpt lat="47.30512" lon="-0.15409">
        <ele>64.6</ele>
        <time>2011-04-03T07:11:15.454Z</time>
      </trkpt>
      <trkpt lat="47.30507" lon="-0.15404">
        <ele>65.6</ele>
        <time>2011-04-03T07:11:18.398Z</time>
      </trkpt>
      <trkpt lat="47.30502" lon="-0.154">
        <ele>66.8</ele>
        <time>2011-04-03T07:11:21.170Z</time>
      </trkpt>
      <trkpt lat="47.30498" lon="-0.15395">
        <ele>67.9</ele>
        <time>2011-04-03T07:11:23.725Z</time>
      </trkpt>
      <trkpt lat="47.30493" lon="-0.15391">
        <ele>68.7</ele>
        <time>2011-04-03T07:11:26.497Z</time>
      </trkpt>
      <trkpt lat="47.30488" lon="-0.15387">
        <ele>69.1</ele>
        <time>2011-04-03T07:11:29.269Z</time>
      </trkpt>
      <trkpt lat="47.30484" lon="-0.15382">
        <ele>69.4</ele>
        <time>2011-04-03T07:11:31.825Z</time>
      </trkpt>
      <trkpt lat="47.30479" lon="-0.15378">
        <ele>69.8</ele>
        <time>2011-04-03T07:11:34.597Z</time>
      </trkpt>
      <trkpt lat="47.30475" lon="-0.15374">
        <ele>70.4</ele>
        <time>2011-04-03T07:11:36.952Z</time>
      </trkpt>
      <trkpt lat="47.3047" lon="-0.15369">
        <ele>71.3</ele>
        <time>2011-04-03T07:11:39.897Z</time>
      </trkpt>
      <trkpt lat="47.30465" lon="-0.15365">
        <ele>72.1</ele>
        <time>2011-04-03T07:11:42.670Z</time>
      </trkpt>
      <trkpt lat="47.30461" lon="-0.1536">
        <ele>72.6</ele>
        <time>2011-04-03T07:11:45.226Z</time>
      </trkpt>
      <trkpt lat="47.30456" lon="-0.15356">
        <ele>72.9</ele>
        <time>2011-04-03T07:11:48Z</time>
        <extensions>
          <type>
            <highway>unclassified</highway>
            <surface>asphalt</surface>
            </type>
        </extensions>
      </trkpt>
      <trkpt lat="47.30452" lon="-0.15353">
        <ele>73.1</ele>
        <time>2011-04-03T07:11:50.042Z</time>
      </trkpt>
      <trkpt lat="47.30447" lon="-0.1535">
        <ele>73.3</ele>
        <time>2011-04-03T07:11:52.499Z</time>
      </trkpt>
      <trkpt lat="47.30443" lon="-0.15347">
        <ele>73.5</ele>
        <time>2011-04-03T07:11:54.542Z</time>
      </trkpt>
      <trkpt lat="47.30438" lon="-0.15344">
        <ele>73.8</ele>
        <time>2011-04-03T07:11:57Z</time>
        <extensions>
          <type>
            <highway>unclassified</highway>
            <surface>asphalt</surface>
            </type>
        </extensions>
      </trkpt>
      <trkpt lat="47.30433" lon="-0.15342">
        <ele>73.9</ele>
        <time>2011-04-03T07:11:58.922Z</time>
      </trkpt>
      <trkpt lat="47.30428" lon="-0.15341">
        <ele>73.9</ele>
        <time>2011-04-03T07:12:00.794Z</time>
      </trkpt>
      <trkpt lat="47.30422" lon="-0.15339">
        <ele>73.9</ele>
        <time>2011-04-03T07:12:03.077Z</time>
      </trkpt>
      <trkpt lat="47.30417" lon="-0.15337">
        <ele>73.9</ele>
        <time>2011-04-03T07:12:05Z</time>
        <extensions>
          <type>
            <highway>unclassified</highway>
            <surface>asphalt</surface>
            </type>
        </extensions>
      </trkpt>
      <trkpt lat="47.30411" lon="-0.15341">
        <ele>74.2</ele>
        <time>2011-04-03T07:12:07.336Z</time>
      </trkpt>
      <trkpt lat="47.30404" lon="-0.15345">
        <ele>74.7</ele>
        <time>2011-04-03T07:12:10Z</time>
        <extensions>
          <type>
            <highway>unclassified</highway>
            <surface>asphalt</surface>
            </type>
        </extensions>
      </trkpt>
      <trkpt lat="47.304" lon="-0.1535">
        <ele>75</ele>
        <time>2011-04-03T07:12:11.712Z</time>
      </trkpt>
      <trkpt lat="47.30396" lon="-0.15356">
        <ele>75.3</ele>
        <time>2011-04-03T07:12:13.575Z</time>
      </trkpt>
      <trkpt lat="47.30392" lon="-0.15361">
        <ele>75.7</ele>
        <time>2011-04-03T07:12:15.287Z</time>
      </trkpt>
      <trkpt lat="47.30388" lon="-0.15366">
        <ele>75.7</ele>
        <time>2011-04-03T07:12:16.999Z</time>
      </trkpt>
      <trkpt lat="47.30384" lon="-0.15371">
        <ele>75.7</ele>
        <time>2011-04-03T07:12:18.711Z</time>
      </trkpt>
      <trkpt lat="47.3038" lon="-0.15377">
        <ele>75.7</ele>
        <time>2011-04-03T07:12:20.574Z</time>
      </trkpt>
      <trkpt lat="47.30376" lon="-0.15382">
        <ele>75.8</ele>
        <time>2011-04-03T07:12:22.286Z</time>
      </trkpt>
      <trkpt lat="47.30372" lon="-0.15387">
        <ele>75.9</ele>
        <time>2011-04-03T07:12:24Z</time>
        <extensions>
          <type>
            <highway>unclassified</highway>
            <surface>undefined</surface>
            </type>
        </extensions>
      </trkpt>
      <trkpt lat="47.30368" lon="-0.15382">
        <ele>76.5</ele>
        <time>2011-04-03T07:12:25.912Z</time>
      </trkpt>
      <trkpt lat="47.30364" lon="-0.15378">
        <ele>77.1</ele>
        <time>2011-04-03T07:12:27.674Z</time>
      </trkpt>
      <trkpt lat="47.3036" lon="-0.15373">
        <ele>77.6</ele>
        <time>2011-04-03T07:12:29.586Z</time>
      </trkpt>
      <trkpt lat="47.30357" lon="-0.15369">
        <ele>77.9</ele>
        <time>2011-04-03T07:12:31.061Z</time>
      </trkpt>
      <trkpt lat="47.30353" lon="-0.15364">
        <ele>78.2</ele>
        <time>2011-04-03T07:12:32.973Z</time>
      </trkpt>
      <trkpt lat="47.30349" lon="-0.1536">
        <ele>78.5</ele>
        <time>2011-04-03T07:12:34.735Z</time>
      </trkpt>
      <trkpt lat="47.30345" lon="-0.15355">
        <ele>78.7</ele>
        <time>2011-04-03T07:12:36.647Z</time>
      </trkpt>
      <trkpt lat="47.30341" lon="-0.15351">
        <ele>79</ele>
        <time>2011-04-03T07:12:38.409Z</time>
      </trkpt>
      <trkpt lat="47.30337" lon="-0.15346">
        <ele>79.3</ele>
        <time>2011-04-03T07:12:40.321Z</time>
      </trkpt>
      <trkpt lat="47.30333" lon="-0.15341">
        <ele>79.7</ele>
        <time>2011-04-03T07:12:42.233Z</time>
      </trkpt>
      <trkpt lat="47.30329" lon="-0.15337">
        <ele>80</ele>
        <time>2011-04-03T07:12:43.996Z</time>
      </trkpt>
      <trkpt lat="47.30326" lon="-0.15332">
        <ele>80.3</ele>
        <time>2011-04-03T07:12:45.647Z</time>
      </trkpt>
      <trkpt lat="47.30322" lon="-0.15328">
        <ele>80.4</ele>
        <time>2011-04-03T07:12:47.410Z</time>
      </trkpt>
      <trkpt lat="47.30318" lon="-0.15323">
        <ele>80.6</ele>
        <time>2011-04-03T07:12:49.323Z</time>
      </trkpt>
      <trkpt lat="47.30314" lon="-0.15319">
        <ele>80.7</ele>
        <time>2011-04-03T07:12:51.086Z</time>
      </trkpt>
      <trkpt lat="47.3031" lon="-0.15314">
        <ele>80.8</ele>
        <time>2011-04-03T07:12:53Z</time>
        <extensions>
          <type>
            <highway>unclassified</highway>
            <surface>undefined</surface>
            </type>
        </extensions>
      </trkpt>
      <trkpt lat="47.30304" lon="-0.1531">
        <ele>81</ele>
        <time>2011-04-03T07:12:54.889Z</time>
      </trkpt>
      <trkpt lat="47.30298" lon="-0.15305">
        <ele>81</ele>
        <time>2011-04-03T07:12:56.867Z</time>
      </trkpt>
      <trkpt lat="47.30291" lon="-0.15301">
        <ele>81</ele>
        <time>2011-04-03T07:12:59.021Z</time>
      </trkpt>
      <trkpt lat="47.30285" lon="-0.15296">
        <ele>81</ele>
        <time>2011-04-03T07:13:01Z</time>
        <extensions>
          <type>
            <highway>unclassified</highway>
            <surface>undefined</surface>
            </type>
        </extensions>
      </trkpt>
      <trkpt lat="47.3028" lon="-0.15296">
        <ele>81</ele>
        <time>2011-04-03T07:13:02.409Z</time>
      </trkpt>
      <trkpt lat="47.30275" lon="-0.15296">
        <ele>81.1</ele>
        <time>2011-04-03T07:13:03.818Z</time>
      </trkpt>
      <trkpt lat="47.3027" lon="-0.15296">
        <ele>81.3</ele>
        <time>2011-04-03T07:13:05.227Z</time>
      </trkpt>
      <trkpt lat="47.30266" lon="-0.15296">
        <ele>81.4</ele>
        <time>2011-04-03T07:13:06.354Z</time>
      </trkpt>
      <trkpt lat="47.30261" lon="-0.15296">
        <ele>81.6</ele>
        <time>2011-04-03T07:13:07.763Z</time>
      </trkpt>
      <trkpt lat="47.30256" lon="-0.15296">
        <ele>81.8</ele>
        <time>2011-04-03T07:13:09.172Z</time>
      </trkpt>
      <trkpt lat="47.30251" lon="-0.15296">
        <ele>82</ele>
        <time>2011-04-03T07:13:10.581Z</time>
      </trkpt>
      <trkpt lat="47.30246" lon="-0.15296">
        <ele>82</ele>
        <time>2011-04-03T07:13:11.990Z</time>
      </trkpt>
      <trkpt lat="47.30241" lon="-0.15295">
        <ele>82</ele>
        <time>2011-04-03T07:13:13.412Z</time>
      </trkpt>
      <trkpt lat="47.30236" lon="-0.15295">
        <ele>82</ele>
        <time>2011-04-03T07:13:14.822Z</time>
      </trkpt>
      <trkpt lat="47.30231" lon="-0.15295">
        <ele>82</ele>
        <time>2011-04-03T07:13:16.232Z</time>
      </trkpt>
      <trkpt lat="47.30227" lon="-0.15295">
        <ele>82</ele>
        <time>2011-04-03T07:13:17.360Z</time>
      </trkpt>
      <trkpt lat="47.30222" lon="-0.15295">
        <ele>82</ele>
        <time>2011-04-03T07:13:18.770Z</time>
      </trkpt>
      <trkpt lat="47.30217" lon="-0.15295">
        <ele>82.1</ele>
        <time>2011-04-03T07:13:20.180Z</time>
      </trkpt>
      <trkpt lat="47.30212" lon="-0.15295">
        <ele>82.1</ele>
        <time>2011-04-03T07:13:21.590Z</time>
      </trkpt>
      <trkpt lat="47.30207" lon="-0.15295">
        <ele>82.2</ele>
        <time>2011-04-03T07:13:23Z</time>
        <extensions>
          <type>
            <highway>track</highway>
            <surface>undefined</surface>
            </type>
        </extensions>
      </trkpt>
      <trkpt lat="47.30202" lon="-0.15292">
        <ele>82.4</ele>
        <time>2011-04-03T07:13:24.622Z</time>
      </trkpt>
      <trkpt lat="47.30196" lon="-0.1529">
        <ele>82.5</ele>
        <time>2011-04-03T07:13:26.471Z</time>
      </trkpt>
      <trkpt lat="47.30191" lon="-0.15287">
        <ele>82.7</ele>
        <time>2011-04-03T07:13:28.094Z</time>
      </trkpt>
      <trkpt lat="47.30185" lon="-0.15284">
        <ele>82.8</ele>
        <time>2011-04-03T07:13:30Z</time>
        <extensions>
          <type>
            <highway>track</highway>
            <surface>undefined</surface>
            </type>
        </extensions>
      </trkpt>
      <trkpt lat="47.30179" lon="-0.15276">
        <ele>83</ele>
        <time>2011-04-03T07:13:32.386Z</time>
      </trkpt>
      <trkpt lat="47.30172" lon="-0.15268">
        <ele>83</ele>
        <time>2011-04-03T07:13:35Z</time>
        <extensions>
          <type>
            <highway>track</highway>
            <surface>undefined</surface>
            </type>
        </extensions>
      </trkpt>
      <trkpt lat="47.30168" lon="-0.1526">
        <ele>83</ele>
        <time>2011-04-03T07:13:36.920Z</time>
      </trkpt>
      <trkpt lat="47.30164" lon="-0.15251">
        <ele>83</ele>
        <time>2011-04-03T07:13:38.999Z</time>
      </trkpt>
      <trkpt lat="47.3016" lon="-0.15243">
        <ele>83</ele>
        <time>2011-04-03T07:13:40.920Z</time>
      </trkpt>
      <trkpt lat="47.30156" lon="-0.15234">
        <ele>83</ele>
        <time>2011-04-03T07:13:43Z</time>
        <extensions>
          <type>
            <highway>track</highway>
            <surface>undefined</surface>
            </type>
        </extensions>
      </trkpt>
      <trkpt lat="47.30154" lon="-0.15227">
        <ele>83</ele>
        <time>2011-04-03T07:13:44.522Z</time>
      </trkpt>
      <trkpt lat="47.30153" lon="-0.1522">
        <ele>83</ele>
        <time>2011-04-03T07:13:45.955Z</time>
      </trkpt>
      <trkpt lat="47.30151" lon="-0.15213">
        <ele>83</ele>
        <time>2011-04-03T07:13:47.477Z</time>
      </trkpt>
      <trkpt lat="47.30149" lon="-0.15206">
        <ele>83</ele>
        <time>2011-04-03T07:13:49Z</time>
        <extensions>
          <type>
            <highway>track</highway>
            <surface>undefined</surface>
            </type>
        </extensions>
      </trkpt>
      <trkpt lat="47.30148" lon="-0.15199">
        <ele>83</ele>
        <time>2011-04-03T07:13:50.205Z</time>
      </trkpt>
      <trkpt lat="47.30148" lon="-0.15193">
        <ele>83</ele>
        <time>2011-04-03T07:13:51.216Z</time>
      </trkpt>
      <trkpt lat="47.30147" lon="-0.15186">
        <ele>82.9</ele>
        <time>2011-04-03T07:13:52.421Z</time>
      </trkpt>
      <trkpt lat="47.30146" lon="-0.1518">
        <ele>82.9</ele>
        <time>2011-04-03T07:13:53.462Z</time>
      </trkpt>
      <trkpt lat="47.30146" lon="-0.15173">
        <ele>82.8</ele>
        <time>2011-04-03T07:13:54.642Z</time>
      </trkpt>
      <trkpt lat="47.30145" lon="-0.15167">
        <ele>82.8</ele>
        <time>2011-04-03T07:13:55.683Z</time>
      </trkpt>
      <trkpt lat="47.30144" lon="-0.1516">
        <ele>82.8</ele>
        <time>2011-04-03T07:13:56.889Z</time>
      </trkpt>
      <trkpt lat="47.30144" lon="-0.15154">
        <ele>82.8</ele>
        <time>2011-04-03T07:13:57.900Z</time>
      </trkpt>
      <trkpt lat="47.30143" lon="-0.15147">
        <ele>82.9</ele>
        <time>2011-04-03T07:13:59.106Z</time>
      </trkpt>
      <trkpt lat="47.30142" lon="-0.1514">
        <ele>82.9</ele>
        <time>2011-04-03T07:14:00.312Z</time>
      </trkpt>
      <trkpt lat="47.30141" lon="-0.15134">
        <ele>82.9</ele>
        <time>2011-04-03T07:14:01.353Z</time>
      </trkpt>
      <trkpt lat="47.30141" lon="-0.15127">
        <ele>83</ele>
        <time>2011-04-03T07:14:02.533Z</time>
      </trkpt>
      <trkpt lat="47.3014" lon="-0.15121">
        <ele>83</ele>
        <time>2011-04-03T07:14:03.575Z</time>
      </trkpt>
      <trkpt lat="47.30139" lon="-0.15114">
        <ele>83</ele>
        <time>2011-04-03T07:14:04.781Z</time>
      </trkpt>
      <trkpt lat="47.30139" lon="-0.15108">
        <ele>83</ele>
        <time>2011-04-03T07:14:05.793Z</time>
      </trkpt>
      <trkpt lat="47.30138" lon="-0.15101">
        <ele>83</ele>
        <time>2011-04-03T07:14:07Z</time>
        <extensions>
          <type>
            <highway>track</highway>
            <surface>undefined</surface>
            </type>
        </extensions>
      </trkpt>
      <trkpt lat="47.30133" lon="-0.15094">
        <ele>83</ele>
        <time>2011-04-03T07:14:08.637Z</time>
      </trkpt>
      <trkpt lat="47.30129" lon="-0.15087">
        <ele>83</ele>
        <time>2011-04-03T07:14:10.110Z</time>
      </trkpt>
      <trkpt lat="47.30124" lon="-0.15079">
        <ele>83</ele>
        <time>2011-04-03T07:14:11.861Z</time>
      </trkpt>
      <trkpt lat="47.30119" lon="-0.15072">
        <ele>83</ele>
        <time>2011-04-03T07:14:13.498Z</time>
      </trkpt>
      <trkpt lat="47.30114" lon="-0.15065">
        <ele>83</ele>
        <time>2011-04-03T07:14:15.135Z</time>
      </trkpt>
      <trkpt lat="47.3011" lon="-0.15058">
        <ele>83</ele>
        <time>2011-04-03T07:14:16.609Z</time>
      </trkpt>
      <trkpt lat="47.30105" lon="-0.1505">
        <ele>83</ele>
        <time>2011-04-03T07:14:18.361Z</time>
      </trkpt>
      <trkpt lat="47.301" lon="-0.15043">
        <ele>83</ele>
        <time>2011-04-03T07:14:19.998Z</time>
      </trkpt>
      <trkpt lat="47.30095" lon="-0.15036">
        <ele>83</ele>
        <time>2011-04-03T07:14:21.635Z</time>
      </trkpt>
      <trkpt lat="47.30091" lon="-0.15029">
        <ele>83</ele>
        <time>2011-04-03T07:14:23.109Z</time>
      </trkpt>
      <trkpt lat="47.30086" lon="-0.15021">
        <ele>83</ele>
        <time>2011-04-03T07:14:24.861Z</time>
      </trkpt>
      <trkpt lat="47.30081" lon="-0.15014">
        <ele>83</ele>
        <time>2011-04-03T07:14:26.498Z</time>
      </trkpt>
      <trkpt lat="47.30076" lon="-0.15007">
        <ele>83</ele>
        <time>2011-04-03T07:14:28.135Z</time>
      </trkpt>
      <trkpt lat="47.30072" lon="-0.15">
        <ele>83</ele>
        <time>2011-04-03T07:14:29.609Z</time>
      </trkpt>
      <trkpt lat="47.30067" lon="-0.14992">
        <ele>83</ele>
        <time>2011-04-03T07:14:31.361Z</time>
      </trkpt>
      <trkpt lat="47.30062" lon="-0.14985">
        <ele>83</ele>
        <time>2011-04-03T07:14:33Z</time>
        <extensions>
          <type>
            <highway>track</highway>
            <surface>undefined</surface>
            </type>
        </extensions>
      </trkpt>
      <trkpt lat="47.30062" lon="-0.14976">
        <ele>83</ele>
        <time>2011-04-03T07:14:34.542Z</time>
      </trkpt>
      <trkpt lat="47.30062" lon="-0.14968">
        <ele>83</ele>
        <time>2011-04-03T07:14:35.913Z</time>
      </trkpt>
      <trkpt lat="47.30062" lon="-0.14959">
        <ele>83</ele>
        <time>2011-04-03T07:14:37.456Z</time>
      </trkpt>
      <trkpt lat="47.30062" lon="-0.1495">
        <ele>83</ele>
        <time>2011-04-03T07:14:39Z</time>
        <extensions>
          <type>
            <highway>track</highway>
            <surface>undefined</surface>
            </type>
        </extensions>
      </trkpt>
      <trkpt lat="47.30057" lon="-0.14939">
        <ele>83</ele>
        <time>2011-04-03T07:14:41Z</time>
        <extensions>
          <type>
            <highway>track</highway>
            <surface>undefined</surface>
            </type>
        </extensions>
      </trkpt>
      <trkpt lat="47.30051" lon="-0.1493">
        <ele>83.2</ele>
        <time>2011-04-03T07:14:42.669Z</time>
      </trkpt>
      <trkpt lat="47.30045" lon="-0.14922">
        <ele>83.4</ele>
        <time>2011-04-03T07:14:44.246Z</time>
      </trkpt>
      <trkpt lat="47.30039" lon="-0.14913">
        <ele>83.6</ele>
        <time>2011-04-03T07:14:45.915Z</time>
      </trkpt>
      <trkpt lat="47.30033" lon="-0.14905">
        <ele>83.8</ele>
        <time>2011-04-03T07:14:47.492Z</time>
      </trkpt>
      <trkpt lat="47.30027" lon="-0.14896">
        <ele>84</ele>
        <time>2011-04-03T07:14:49.161Z</time>
      </trkpt>
      <trkpt lat="47.30021" lon="-0.14888">
        <ele>84</ele>
        <time>2011-04-03T07:14:50.738Z</time>
      </trkpt>
      <trkpt lat="47.30015" lon="-0.14879">
        <ele>84</ele>
        <time>2011-04-03T07:14:52.407Z</time>
      </trkpt>
      <trkpt lat="47.30009" lon="-0.14871">
        <ele>84</ele>
        <time>2011-04-03T07:14:53.984Z</time>
      </trkpt>
      <trkpt lat="47.30003" lon="-0.14862">
        <ele>84</ele>
        <time>2011-04-03T07:14:55.653Z</time>
      </trkpt>
      <trkpt lat="47.29997" lon="-0.14853">
        <ele>84</ele>
        <time>2011-04-03T07:14:57.322Z</time>
      </trkpt>
      <trkpt lat="47.29991" lon="-0.14845">
        <ele>84</ele>
        <time>2011-04-03T07:14:58.900Z</time>
      </trkpt>
      <trkpt lat="47.29985" lon="-0.14836">
        <ele>84</ele>
        <time>2011-04-03T07:15:00.569Z</time>
      </trkpt>
      <trkpt lat="47.29979" lon="-0.14828">
        <ele>84</ele>
        <time>2011-04-03T07:15:02.147Z</time>
      </trkpt>
      <trkpt lat="47.29973" lon="-0.14819">
        <ele>84</ele>
        <time>2011-04-03T07:15:03.816Z</time>
      </trkpt>
      <trkpt lat="47.29968" lon="-0.14811">
        <ele>84</ele>
        <time>2011-04-03T07:15:05.255Z</time>
      </trkpt>
      <trkpt lat="47.29962" lon="-0.14802">
        <ele>84</ele>
        <time>2011-04-03T07:15:06.924Z</time>
      </trkpt>
      <trkpt lat="47.29956" lon="-0.14793">
        <ele>84</ele>
        <time>2011-04-03T07:15:08.593Z</time>
      </trkpt>
      <trkpt lat="47.2995" lon="-0.14785">
        <ele>84</ele>
        <time>2011-04-03T07:15:10.171Z</time>
      </trkpt>
      <trkpt lat="47.29944" lon="-0.14776">
        <ele>84</ele>
        <time>2011-04-03T07:15:11.840Z</time>
      </trkpt>
      <trkpt lat="47.29938" lon="-0.14768">
        <ele>84</ele>
        <time>2011-04-03T07:15:13.418Z</time>
      </trkpt>
      <trkpt lat="47.29932" lon="-0.14759">
        <ele>84</ele>
        <time>2011-04-03T07:15:15.088Z</time>
      </trkpt>
      <trkpt lat="47.29926" lon="-0.14751">
        <ele>84</ele>
        <time>2011-04-03T07:15:16.666Z</time>
      </trkpt>
      <trkpt lat="47.2992" lon="-0.14742">
        <ele>84</ele>
        <time>2011-04-03T07:15:18.336Z</time>
      </trkpt>
      <trkpt lat="47.29914" lon="-0.14734">
        <ele>84</ele>
        <time>2011-04-03T07:15:19.914Z</time>
      </trkpt>
      <trkpt lat="47.29908" lon="-0.14725">
        <ele>84</ele>
        <time>2011-04-03T07:15:21.584Z</time>
      </trkpt>
      <trkpt lat="47.29902" lon="-0.14716">
        <ele>84</ele>
        <time>2011-04-03T07:15:23.254Z</time>
      </trkpt>
      <trkpt lat="47.29896" lon="-0.14708">
        <ele>84</ele>
        <time>2011-04-03T07:15:24.832Z</time>
      </trkpt>
      <trkpt lat="47.2989" lon="-0.14699">
        <ele>84</ele>
        <time>2011-04-03T07:15:26.502Z</time>
      </trkpt>
      <trkpt lat="47.29884" lon="-0.14691">
        <ele>84</ele>
        <time>2011-04-03T07:15:28.080Z</time>
      </trkpt>
      <trkpt lat="47.29878" lon="-0.14682">
        <ele>84</ele>
        <time>2011-04-03T07:15:29.750Z</time>
      </trkpt>
      <trkpt lat="47.29872" lon="-0.14674">
        <ele>84</ele>
        <time>2011-04-03T07:15:31.329Z</time>
      </trkpt>
      <trkpt lat="47.29866" lon="-0.14665">
        <ele>84</ele>
        <time>2011-04-03T07:15:33Z</time>
        <extensions>
          <type>
            <highway>track</highway>
            <surface>undefined</surface>
            </type>
        </extensions>
      </trkpt>
      <trkpt lat="47.2986" lon="-0.14655">
        <ele>84</ele>
        <time>2011-04-03T07:15:34.706Z</time>
      </trkpt>
      <trkpt lat="47.29854" lon="-0.14646">
        <ele>84</ele>
        <time>2011-04-03T07:15:36.318Z</time>
      </trkpt>
      <trkpt lat="47.29848" lon="-0.14636">
        <ele>84</ele>
        <time>2011-04-03T07:15:38.024Z</time>
      </trkpt>
      <trkpt lat="47.29842" lon="-0.14627">
        <ele>84</ele>
        <time>2011-04-03T07:15:39.636Z</time>
      </trkpt>
      <trkpt lat="47.29835" lon="-0.14617">
        <ele>84</ele>
        <time>2011-04-03T07:15:41.472Z</time>
      </trkpt>
      <trkpt lat="47.29829" lon="-0.14607">
        <ele>84</ele>
        <time>2011-04-03T07:15:43.178Z</time>
      </trkpt>
      <trkpt lat="47.29823" lon="-0.14598">
        <ele>84</ele>
        <time>2011-04-03T07:15:44.791Z</time>
      </trkpt>
      <trkpt lat="47.29817" lon="-0.14588">
        <ele>84</ele>
        <time>2011-04-03T07:15:46.497Z</time>
      </trkpt>
      <trkpt lat="47.29811" lon="-0.14578">
        <ele>83.9</ele>
        <time>2011-04-03T07:15:48.203Z</time>
      </trkpt>
      <trkpt lat="47.29805" lon="-0.14569">
        <ele>83.5</ele>
        <time>2011-04-03T07:15:49.816Z</time>
      </trkpt>
      <trkpt lat="47.29799" lon="-0.14559">
        <ele>83.1</ele>
        <time>2011-04-03T07:15:51.522Z</time>
      </trkpt>
      <trkpt lat="47.29793" lon="-0.1455">
        <ele>83</ele>
        <time>2011-04-03T07:15:53.135Z</time>
      </trkpt>
      <trkpt lat="47.29786" lon="-0.1454">
        <ele>83</ele>
        <time>2011-04-03T07:15:54.972Z</time>
      </trkpt>
      <trkpt lat="47.2978" lon="-0.1453">
        <ele>83</ele>
        <time>2011-04-03T07:15:56.679Z</time>
      </trkpt>
      <trkpt lat="47.29774" lon="-0.14521">
        <ele>83</ele>
        <time>2011-04-03T07:15:58.292Z</time>
      </trkpt>
      <trkpt lat="47.29768" lon="-0.14511">
        <ele>83</ele>
        <time>2011-04-03T07:16:00Z</time>
        <extensions>
          <type>
            <highway>track</highway>
            <surface>undefined</surface>
            </type>
        </extensions>
      </trkpt>
      <trkpt lat="47.29764" lon="-0.14507">
        <ele>83</ele>
        <time>2011-04-03T07:16:01.062Z</time>
      </trkpt>
      <trkpt lat="47.2976" lon="-0.14503">
        <ele>83</ele>
        <time>2011-04-03T07:16:02.124Z</time>
      </trkpt>
      <trkpt lat="47.29756" lon="-0.14499">
        <ele>83</ele>
        <time>2011-04-03T07:16:03.186Z</time>
      </trkpt>
      <trkpt lat="47.29752" lon="-0.14495">
        <ele>82.8</ele>
        <time>2011-04-03T07:16:04.248Z</time>
      </trkpt>
      <trkpt lat="47.29748" lon="-0.14491">
        <ele>82.6</ele>
        <time>2011-04-03T07:16:05.310Z</time>
      </trkpt>
      <trkpt lat="47.29744" lon="-0.14487">
        <ele>82.4</ele>
        <time>2011-04-03T07:16:06.372Z</time>
      </trkpt>
      <trkpt lat="47.2974" lon="-0.14483">
        <ele>82.2</ele>
        <time>2011-04-03T07:16:07.434Z</time>
      </trkpt>
      <trkpt lat="47.29736" lon="-0.14479">
        <ele>82.1</ele>
        <time>2011-04-03T07:16:08.496Z</time>
      </trkpt>
      <trkpt lat="47.29732" lon="-0.14475">
        <ele>82</ele>
        <time>2011-04-03T07:16:09.558Z</time>
      </trkpt>
      <trkpt lat="47.29728" lon="-0.14471">
        <ele>82</ele>
        <time>2011-04-03T07:16:10.621Z</time>
      </trkpt>
      <trkpt lat="47.29724" lon="-0.14467">
        <ele>82</ele>
        <time>2011-04-03T07:16:11.684Z</time>
      </trkpt>
      <trkpt lat="47.2972" lon="-0.14463">
        <ele>81.9</ele>
        <time>2011-04-03T07:16:12.747Z</time>
      </trkpt>
      <trkpt lat="47.29716" lon="-0.14459">
        <ele>81.8</ele>
        <time>2011-04-03T07:16:13.810Z</time>
      </trkpt>
      <trkpt lat="47.29712" lon="-0.14455">
        <ele>81.6</ele>
        <time>2011-04-03T07:16:14.873Z</time>
      </trkpt>
      <trkpt lat="47.29708" lon="-0.14451">
        <ele>81.5</ele>
        <time>2011-04-03T07:16:15.936Z</time>
      </trkpt>
      <trkpt lat="47.29704" lon="-0.14447">
        <ele>81.3</ele>
        <time>2011-04-03T07:16:17Z</time>
        <extensions>
          <type>
            <highway>track</highway>
            <surface>undefined</surface>
            </type>
        </extensions>
      </trkpt>
      <trkpt lat="47.297" lon="-0.14441">
        <ele>81.2</ele>
        <time>2011-04-03T07:16:18.177Z</time>
      </trkpt>
      <trkpt lat="47.29695" lon="-0.14435">
        <ele>81</ele>
        <time>2011-04-03T07:16:19.507Z</time>
      </trkpt>
      <trkpt lat="47.29691" lon="-0.14429">
        <ele>80.7</ele>
        <time>2011-04-03T07:16:20.684Z</time>
      </trkpt>
      <trkpt lat="47.29686" lon="-0.14423">
        <ele>80.4</ele>
        <time>2011-04-03T07:16:22.014Z</time>
      </trkpt>
      <trkpt lat="47.29682" lon="-0.14417">
        <ele>80.1</ele>
        <time>2011-04-03T07:16:23.191Z</time>
      </trkpt>
      <trkpt lat="47.29677" lon="-0.14411">
        <ele>79.8</ele>
        <time>2011-04-03T07:16:24.521Z</time>
      </trkpt>
      <trkpt lat="47.29673" lon="-0.14405">
        <ele>79.4</ele>
        <time>2011-04-03T07:16:25.698Z</time>
      </trkpt>
      <trkpt lat="47.29669" lon="-0.14399">
        <ele>79.1</ele>
        <time>2011-04-03T07:16:26.875Z</time>
      </trkpt>
      <trkpt lat="47.29664" lon="-0.14392">
        <ele>78.6</ele>
        <time>2011-04-03T07:16:28.297Z</time>
      </trkpt>
      <trkpt lat="47.2966" lon="-0.14386">
        <ele>78</ele>
        <time>2011-04-03T07:16:29.474Z</time>
      </trkpt>
      <trkpt lat="47.29655" lon="-0.1438">
        <ele>77.3</ele>
        <time>2011-04-03T07:16:30.804Z</time>
      </trkpt>
      <trkpt lat="47.29651" lon="-0.14374">
        <ele>76.7</ele>
        <time>2011-04-03T07:16:31.982Z</time>
      </trkpt>
      <trkpt lat="47.29646" lon="-0.14368">
        <ele>76.1</ele>
        <time>2011-04-03T07:16:33.312Z</time>
      </trkpt>
      <trkpt lat="47.29642" lon="-0.14362">
        <ele>75.4</ele>
        <time>2011-04-03T07:16:34.490Z</time>
      </trkpt>
      <trkpt lat="47.29637" lon="-0.14356">
        <ele>74.7</ele>
        <time>2011-04-03T07:16:35.821Z</time>
      </trkpt>
      <trkpt lat="47.29633" lon="-0.1435">
        <ele>73.8</ele>
        <time>2011-04-03T07:16:37Z</time>
        <extensions>
          <type>
            <highway>track</highway>
            <surface>undefined</surface>
            </type>
        </extensions>
      </trkpt>
      <trkpt lat="47.29627" lon="-0.14357">
        <ele>72.9</ele>
        <time>2011-04-03T07:16:39.429Z</time>
      </trkpt>
      <trkpt lat="47.2962" lon="-0.14363">
        <ele>72.4</ele>
        <time>2011-04-03T07:16:42Z</time>
        <extensions>
          <type>
            <highway>unclassified</highway>
            <surface>undefined</surface>
            </type>
        </extensions>
      </trkpt>
      <trkpt lat="47.29615" lon="-0.14373">
        <ele>72.2</ele>
        <time>2011-04-03T07:16:44.169Z</time>
      </trkpt>
      <trkpt lat="47.29609" lon="-0.14383">
        <ele>72</ele>
        <time>2011-04-03T07:16:46.499Z</time>
      </trkpt>
      <trkpt lat="47.29604" lon="-0.14393">
        <ele>71.2</ele>
        <time>2011-04-03T07:16:48.668Z</time>
      </trkpt>
      <trkpt lat="47.29598" lon="-0.14403">
        <ele>70.7</ele>
        <time>2011-04-03T07:16:51Z</time>
        <extensions>
          <type>
            <highway>unclassified</highway>
            <surface>undefined</surface>
            </type>
        </extensions>
      </trkpt>
      <trkpt lat="47.29595" lon="-0.144">
        <ele>69.9</ele>
        <time>2011-04-03T07:16:59Z</time>
        <extensions>
          <type>
            <highway>unclassified</highway>
            <surface>undefined</surface>
            </type>
        </extensions>
      </trkpt>
      <trkpt lat="47.29598" lon="-0.14388">
        <ele>69.5</ele>
        <time>2011-04-03T07:17:01.745Z</time>
      </trkpt>
      <trkpt lat="47.296" lon="-0.14376">
        <ele>69</ele>
        <time>2011-04-03T07:17:04.398Z</time>
      </trkpt>
      <trkpt lat="47.29603" lon="-0.14363">
        <ele>68.7</ele>
        <time>2011-04-03T07:17:07.346Z</time>
      </trkpt>
      <trkpt lat="47.29605" lon="-0.14351">
        <ele>67.9</ele>
        <time>2011-04-03T07:17:10Z</time>
        <extensions>
          <type>
            <highway>track</highway>
            <surface>undefined</surface>
            </type>
        </extensions>
      </trkpt>
      <trkpt lat="47.29604" lon="-0.14344">
        <ele>66.7</ele>
        <time>2011-04-03T07:17:10.992Z</time>
      </trkpt>
      <trkpt lat="47.29603" lon="-0.14338">
        <ele>65.5</ele>
        <time>2011-04-03T07:17:11.849Z</time>
      </trkpt>
      <trkpt lat="47.29602" lon="-0.14331">
        <ele>64.6</ele>
        <time>2011-04-03T07:17:12.841Z</time>
      </trkpt>
      <trkpt lat="47.29601" lon="-0.14325">
        <ele>64</ele>
        <time>2011-04-03T07:17:13.698Z</time>
      </trkpt>
      <trkpt lat="47.296" lon="-0.14318">
        <ele>63.4</ele>
        <time>2011-04-03T07:17:14.691Z</time>
      </trkpt>
      <trkpt lat="47.29599" lon="-0.14312">
        <ele>62.7</ele>
        <time>2011-04-03T07:17:15.548Z</time>
      </trkpt>
      <trkpt lat="47.29598" lon="-0.14305">
        <ele>62.1</ele>
        <time>2011-04-03T07:17:16.541Z</time>
      </trkpt>
      <trkpt lat="47.29597" lon="-0.14299">
        <ele>61.2</ele>
        <time>2011-04-03T07:17:17.398Z</time>
      </trkpt>
      <trkpt lat="47.29595" lon="-0.14292">
        <ele>60.2</ele>
        <time>2011-04-03T07:17:18.452Z</time>
      </trkpt>
      <trkpt lat="47.29594" lon="-0.14285">
        <ele>59.3</ele>
        <time>2011-04-03T07:17:19.445Z</time>
      </trkpt>
      <trkpt lat="47.29593" lon="-0.14279">
        <ele>58.3</ele>
        <time>2011-04-03T07:17:20.303Z</time>
      </trkpt>
      <trkpt lat="47.29592" lon="-0.14272">
        <ele>57.2</ele>
        <time>2011-04-03T07:17:21.296Z</time>
      </trkpt>
      <trkpt lat="47.29591" lon="-0.14266">
        <ele>56.1</ele>
        <time>2011-04-03T07:17:22.154Z</time>
      </trkpt>
      <trkpt lat="47.2959" lon="-0.14259">
        <ele>54.8</ele>
        <time>2011-04-03T07:17:23.147Z</time>
      </trkpt>
      <trkpt lat="47.29589" lon="-0.14253">
        <ele>53.6</ele>
        <time>2011-04-03T07:17:24.005Z</time>
      </trkpt>
      <trkpt lat="47.29588" lon="-0.14246">
        <ele>52.4</ele>
        <time>2011-04-03T07:17:25Z</time>
        <extensions>
          <type>
            <highway>track</highway>
            <surface>undefined</surface>
            </type>
        </extensions>
      </trkpt>
      <trkpt lat="47.29588" lon="-0.14237">
        <ele>51.5</ele>
        <time>2011-04-03T07:17:26.800Z</time>
      </trkpt>
      <trkpt lat="47.29588" lon="-0.14229">
        <ele>50.5</ele>
        <time>2011-04-03T07:17:28.400Z</time>
      </trkpt>
      <trkpt lat="47.29588" lon="-0.1422">
        <ele>49.6</ele>
        <time>2011-04-03T07:17:30.200Z</time>
      </trkpt>
      <trkpt lat="47.29588" lon="-0.14211">
        <ele>48.7</ele>
        <time>2011-04-03T07:17:32Z</time>
        <extensions>
          <type>
            <highway>track</highway>
            <surface>undefined</surface>
            </type>
        </extensions>
      </trkpt>
      <trkpt lat="47.29591" lon="-0.14202">
        <ele>48.7</ele>
        <time>2011-04-03T07:17:33.473Z</time>
      </trkpt>
      <trkpt lat="47.29595" lon="-0.14193">
        <ele>48.2</ele>
        <time>2011-04-03T07:17:35.053Z</time>
      </trkpt>
      <trkpt lat="47.29598" lon="-0.14184">
        <ele>47.2</ele>
        <time>2011-04-03T07:17:36.526Z</time>
      </trkpt>
      <trkpt lat="47.29601" lon="-0.14175">
        <ele>46.3</ele>
        <time>2011-04-03T07:17:38Z</time>
        <extensions>
          <type>
            <highway>track</highway>
            <surface>undefined</surface>
            </type>
        </extensions>
      </trkpt>
      <trkpt lat="47.29606" lon="-0.14169">
        <ele>46.1</ele>
        <time>2011-04-03T07:17:40.292Z</time>
      </trkpt>
      <trkpt lat="47.2961" lon="-0.14162">
        <ele>45.4</ele>
        <time>2011-04-03T07:17:42.499Z</time>
      </trkpt>
      <trkpt lat="47.29615" lon="-0.14156">
        <ele>45</ele>
        <time>2011-04-03T07:17:44.791Z</time>
      </trkpt>
      <trkpt lat="47.29619" lon="-0.14149">
        <ele>44.9</ele>
        <time>2011-04-03T07:17:47Z</time>
        <extensions>
          <type>
            <highway>tertiary</highway>
            <surface>undefined</surface>
            </type>
        </extensions>
      </trkpt>
      <trkpt lat="47.2962" lon="-0.14141">
        <ele>43.5</ele>
        <time>2011-04-03T07:17:48.531Z</time>
      </trkpt>
      <trkpt lat="47.29622" lon="-0.14134">
        <ele>42.7</ele>
        <time>2011-04-03T07:17:49.961Z</time>
      </trkpt>
      <trkpt lat="47.29623" lon="-0.14126">
        <ele>42.2</ele>
        <time>2011-04-03T07:17:51.492Z</time>
      </trkpt>
      <trkpt lat="47.29624" lon="-0.14118">
        <ele>41.7</ele>
        <time>2011-04-03T07:17:53.023Z</time>
      </trkpt>
      <trkpt lat="47.29626" lon="-0.14111">
        <ele>41.2</ele>
        <time>2011-04-03T07:17:54.453Z</time>
      </trkpt>
      <trkpt lat="47.29627" lon="-0.14103">
        <ele>39.8</ele>
        <time>2011-04-03T07:17:55.984Z</time>
      </trkpt>
      <trkpt lat="47.29628" lon="-0.14095">
        <ele>38.2</ele>
        <time>2011-04-03T07:17:57.516Z</time>
      </trkpt>
      <trkpt lat="47.2963" lon="-0.14088">
        <ele>36.2</ele>
        <time>2011-04-03T07:17:58.946Z</time>
      </trkpt>
      <trkpt lat="47.29631" lon="-0.1408">
        <ele>34.9</ele>
        <time>2011-04-03T07:18:00.478Z</time>
      </trkpt>
      <trkpt lat="47.29632" lon="-0.14072">
        <ele>34.6</ele>
        <time>2011-04-03T07:18:02.010Z</time>
      </trkpt>
      <trkpt lat="47.29633" lon="-0.14064">
        <ele>34.2</ele>
        <time>2011-04-03T07:18:03.542Z</time>
      </trkpt>
      <trkpt lat="47.29635" lon="-0.14057">
        <ele>33.8</ele>
        <time>2011-04-03T07:18:04.972Z</time>
      </trkpt>
      <trkpt lat="47.29636" lon="-0.14049">
        <ele>33.3</ele>
        <time>2011-04-03T07:18:06.504Z</time>
      </trkpt>
      <trkpt lat="47.29637" lon="-0.14041">
        <ele>32.8</ele>
        <time>2011-04-03T07:18:08.036Z</time>
      </trkpt>
      <trkpt lat="47.29639" lon="-0.14034">
        <ele>32.4</ele>
        <time>2011-04-03T07:18:09.467Z</time>
      </trkpt>
      <trkpt lat="47.2964" lon="-0.14026">
        <ele>32</ele>
        <time>2011-04-03T07:18:11Z</time>
        <extensions>
          <type>
            <highway>tertiary</highway>
            <surface>undefined</surface>
            </type>
        </extensions>
      </trkpt>
      <trkpt lat="47.29641" lon="-0.14018">
        <ele>31.7</ele>
        <time>2011-04-03T07:18:12.167Z</time>
      </trkpt>
      <trkpt lat="47.29641" lon="-0.14011">
        <ele>31.3</ele>
        <time>2011-04-03T07:18:13.172Z</time>
      </trkpt>
      <trkpt lat="47.29642" lon="-0.14003">
        <ele>30.9</ele>
        <time>2011-04-03T07:18:14.339Z</time>
      </trkpt>
      <trkpt lat="47.29643" lon="-0.13995">
        <ele>30.4</ele>
        <time>2011-04-03T07:18:15.507Z</time>
      </trkpt>
      <trkpt lat="47.29643" lon="-0.13987">
        <ele>29.9</ele>
        <time>2011-04-03T07:18:16.655Z</time>
      </trkpt>
      <trkpt lat="47.29644" lon="-0.1398">
        <ele>29.4</ele>
        <time>2011-04-03T07:18:17.682Z</time>
      </trkpt>
      <trkpt lat="47.29644" lon="-0.13972">
        <ele>29</ele>
        <time>2011-04-03T07:18:18.831Z</time>
      </trkpt>
      <trkpt lat="47.29645" lon="-0.13964">
        <ele>28.8</ele>
        <time>2011-04-03T07:18:20Z</time>
        <extensions>
          <type>
            <highway>service</highway>
            <surface>undefined</surface>
            </type>
        </extensions>
      </trkpt>
      <trkpt lat="47.2964" lon="-0.13959">
        <ele>28.9</ele>
        <time>2011-04-03T07:18:21.415Z</time>
      </trkpt>
      <trkpt lat="47.29636" lon="-0.13954">
        <ele>28.9</ele>
        <time>2011-04-03T07:18:22.643Z</time>
      </trkpt>
      <trkpt lat="47.29631" lon="-0.13949">
        <ele>28.7</ele>
        <time>2011-04-03T07:18:24.058Z</time>
      </trkpt>
      <trkpt lat="47.29626" lon="-0.13944">
        <ele>28.5</ele>
        <time>2011-04-03T07:18:25.473Z</time>
      </trkpt>
      <trkpt lat="47.29621" lon="-0.13939">
        <ele>28.1</ele>
        <time>2011-04-03T07:18:26.889Z</time>
      </trkpt>
      <trkpt lat="47.29617" lon="-0.13934">
        <ele>28</ele>
        <time>2011-04-03T07:18:28.118Z</time>
      </trkpt>
      <trkpt lat="47.29612" lon="-0.13929">
        <ele>28</ele>
        <time>2011-04-03T07:18:29.534Z</time>
      </trkpt>
      <trkpt lat="47.29607" lon="-0.13924">
        <ele>28</ele>
        <time>2011-04-03T07:18:30.950Z</time>
      </trkpt>
      <trkpt lat="47.29602" lon="-0.13918">
        <ele>28</ele>
        <time>2011-04-03T07:18:32.461Z</time>
      </trkpt>
      <trkpt lat="47.29598" lon="-0.13913">
        <ele>27.9</ele>
        <time>2011-04-03T07:18:33.690Z</time>
      </trkpt>
      <trkpt lat="47.29593" lon="-0.13908">
        <ele>28</ele>
        <time>2011-04-03T07:18:35.106Z</time>
      </trkpt>
      <trkpt lat="47.29588" lon="-0.13903">
        <ele>28.2</ele>
        <time>2011-04-03T07:18:36.522Z</time>
      </trkpt>
      <trkpt lat="47.29583" lon="-0.13898">
        <ele>28.7</ele>
        <time>2011-04-03T07:18:37.938Z</time>
      </trkpt>
      <trkpt lat="47.29579" lon="-0.13893">
        <ele>28.9</ele>
        <time>2011-04-03T07:18:39.167Z</time>
      </trkpt>
      <trkpt lat="47.29574" lon="-0.13888">
        <ele>29</ele>
        <time>2011-04-03T07:18:40.583Z</time>
      </trkpt>
      <trkpt lat="47.29569" lon="-0.13883">
        <ele>29</ele>
        <time>2011-04-03T07:18:42Z</time>
        <extensions>
          <type>
            <highway>secondary</highway>
            <surface>undefined</surface>
            </type>
        </extensions>
      </trkpt>
      <trkpt lat="47.29562" lon="-0.13877">
        <ele>29</ele>
        <time>2011-04-03T07:18:43.498Z</time>
      </trkpt>
      <trkpt lat="47.29554" lon="-0.13871">
        <ele>29</ele>
        <time>2011-04-03T07:18:45.159Z</time>
      </trkpt>
      <trkpt lat="47.29547" lon="-0.13866">
        <ele>29</ele>
        <time>2011-04-03T07:18:46.598Z</time>
      </trkpt>
      <trkpt lat="47.2954" lon="-0.1386">
        <ele>29</ele>
        <time>2011-04-03T07:18:48.096Z</time>
      </trkpt>
      <trkpt lat="47.29533" lon="-0.13854">
        <ele>29</ele>
        <time>2011-04-03T07:18:49.594Z</time>
      </trkpt>
      <trkpt lat="47.29525" lon="-0.13848">
        <ele>29</ele>
        <time>2011-04-03T07:18:51.255Z</time>
      </trkpt>
      <trkpt lat="47.29518" lon="-0.13843">
        <ele>29</ele>
        <time>2011-04-03T07:18:52.694Z</time>
      </trkpt>
      <trkpt lat="47.29511" lon="-0.13837">
        <ele>29</ele>
        <time>2011-04-03T07:18:54.192Z</time>
      </trkpt>
      <trkpt lat="47.29504" lon="-0.13831">
        <ele>28.8</ele>
        <time>2011-04-03T07:18:55.690Z</time>
      </trkpt>
      <trkpt lat="47.29496" lon="-0.13825">
        <ele>28.5</ele>
        <time>2011-04-03T07:18:57.351Z</time>
      </trkpt>
      <trkpt lat="47.29489" lon="-0.13819">
        <ele>28.2</ele>
        <time>2011-04-03T07:18:58.849Z</time>
      </trkpt>
      <trkpt lat="47.29482" lon="-0.13814">
        <ele>28</ele>
        <time>2011-04-03T07:19:00.288Z</time>
      </trkpt>
      <trkpt lat="47.29474" lon="-0.13808">
        <ele>28</ele>
        <time>2011-04-03T07:19:01.949Z</time>
      </trkpt>
      <trkpt lat="47.29467" lon="-0.13802">
        <ele>27.5</ele>
        <time>2011-04-03T07:19:03.447Z</time>
      </trkpt>
      <trkpt lat="47.2946" lon="-0.13796">
        <ele>27.1</ele>
        <time>2011-04-03T07:19:04.945Z</time>
      </trkpt>
      <trkpt lat="47.29453" lon="-0.13791">
        <ele>27.2</ele>
        <time>2011-04-03T07:19:06.384Z</time>
      </trkpt>
      <trkpt lat="47.29445" lon="-0.13785">
        <ele>27.7</ele>
        <time>2011-04-03T07:19:08.045Z</time>
      </trkpt>
      <trkpt lat="47.29438" lon="-0.13779">
        <ele>27.7</ele>
        <time>2011-04-03T07:19:09.543Z</time>
      </trkpt>
      <trkpt lat="47.29431" lon="-0.13773">
        <ele>27.3</ele>
        <time>2011-04-03T07:19:11.041Z</time>
      </trkpt>
      <trkpt lat="47.29423" lon="-0.13767">
        <ele>27</ele>
        <time>2011-04-03T07:19:12.702Z</time>
      </trkpt>
      <trkpt lat="47.29416" lon="-0.13762">
        <ele>27</ele>
        <time>2011-04-03T07:19:14.141Z</time>
      </trkpt>
      <trkpt lat="47.29409" lon="-0.13756">
        <ele>27.3</ele>
        <time>2011-04-03T07:19:15.640Z</time>
      </trkpt>
      <trkpt lat="47.29402" lon="-0.1375">
        <ele>27.5</ele>
        <time>2011-04-03T07:19:17.139Z</time>
      </trkpt>
      <trkpt lat="47.29394" lon="-0.13744">
        <ele>27.4</ele>
        <time>2011-04-03T07:19:18.800Z</time>
      </trkpt>
      <trkpt lat="47.29387" lon="-0.13739">
        <ele>27.2</ele>
        <time>2011-04-03T07:19:20.240Z</time>
      </trkpt>
      <trkpt lat="47.2938" lon="-0.13733">
        <ele>27.2</ele>
        <time>2011-04-03T07:19:21.739Z</time>
      </trkpt>
      <trkpt lat="47.29372" lon="-0.13727">
        <ele>27.3</ele>
        <time>2011-04-03T07:19:23.400Z</time>
      </trkpt>
      <trkpt lat="47.29365" lon="-0.13721">
        <ele>27.6</ele>
        <time>2011-04-03T07:19:24.899Z</time>
      </trkpt>
      <trkpt lat="47.29358" lon="-0.13715">
        <ele>27.6</ele>
        <time>2011-04-03T07:19:26.398Z</time>
      </trkpt>
      <trkpt lat="47.29351" lon="-0.1371">
        <ele>27.6</ele>
        <time>2011-04-03T07:19:27.838Z</time>
      </trkpt>
      <trkpt lat="47.29343" lon="-0.13704">
        <ele>27.9</ele>
        <time>2011-04-03T07:19:29.500Z</time>
      </trkpt>
      <trkpt lat="47.29336" lon="-0.13698">
        <ele>28.6</ele>
        <time>2011-04-03T07:19:31Z</time>
        <extensions>
          <type>
            <highway>secondary</highway>
            <surface>undefined</surface>
            </type>
        </extensions>
      </trkpt>
      <trkpt lat="47.29339" lon="-0.13687">
        <ele>27.7</ele>
        <time>2011-04-03T07:19:33.000Z</time>
      </trkpt>
      <trkpt lat="47.29342" lon="-0.13676">
        <ele>26.7</ele>
        <time>2011-04-03T07:19:35Z</time>
        <extensions>
          <type>
            <highway>path</highway>
            <surface>asphalt</surface>
            </type>
        </extensions>
      </trkpt>
      <trkpt lat="47.29346" lon="-0.1367">
        <ele>26.2</ele>
        <time>2011-04-03T07:19:36.013Z</time>
      </trkpt>
      <trkpt lat="47.2935" lon="-0.13665">
        <ele>26</ele>
        <time>2011-04-03T07:19:36.944Z</time>
      </trkpt>
      <trkpt lat="47.29354" lon="-0.13659">
        <ele>25.9</ele>
        <time>2011-04-03T07:19:37.957Z</time>
      </trkpt>
      <trkpt lat="47.29359" lon="-0.13654">
        <ele>26</ele>
        <time>2011-04-03T07:19:39.029Z</time>
      </trkpt>
      <trkpt lat="47.29363" lon="-0.13648">
        <ele>26</ele>
        <time>2011-04-03T07:19:40.042Z</time>
      </trkpt>
      <trkpt lat="47.29367" lon="-0.13642">
        <ele>25.8</ele>
        <time>2011-04-03T07:19:41.055Z</time>
      </trkpt>
      <trkpt lat="47.29371" lon="-0.13637">
        <ele>25.6</ele>
        <time>2011-04-03T07:19:41.986Z</time>
      </trkpt>
      <trkpt lat="47.29375" lon="-0.13631">
        <ele>25.4</ele>
        <time>2011-04-03T07:19:43Z</time>
        <extensions>
          <type>
            <highway>path</highway>
            <surface>asphalt</surface>
            </type>
        </extensions>
      </trkpt>
      <trkpt lat="47.29373" lon="-0.1362">
        <ele>25.2</ele>
        <time>2011-04-03T07:19:44.499Z</time>
      </trkpt>
      <trkpt lat="47.29371" lon="-0.13609">
        <ele>25</ele>
        <time>2011-04-03T07:19:46Z</time>
        <extensions>
          <type>
            <highway>path</highway>
            <surface>asphalt</surface>
            </type>
        </extensions>
      </trkpt>
      <trkpt lat="47.29368" lon="-0.13604">
        <ele>25</ele>
        <time>2011-04-03T07:19:46.889Z</time>
      </trkpt>
      <trkpt lat="47.29364" lon="-0.13598">
        <ele>25</ele>
        <time>2011-04-03T07:19:48.009Z</time>
      </trkpt>
      <trkpt lat="47.29361" lon="-0.13593">
        <ele>25</ele>
        <time>2011-04-03T07:19:48.898Z</time>
      </trkpt>
      <trkpt lat="47.29357" lon="-0.13587">
        <ele>25</ele>
        <time>2011-04-03T07:19:50.018Z</time>
      </trkpt>
      <trkpt lat="47.29354" lon="-0.13582">
        <ele>25</ele>
        <time>2011-04-03T07:19:50.907Z</time>
      </trkpt>
      <trkpt lat="47.2935" lon="-0.13576">
        <ele>25</ele>
        <time>2011-04-03T07:19:52.027Z</time>
      </trkpt>
      <trkpt lat="47.29347" lon="-0.13571">
        <ele>25</ele>
        <time>2011-04-03T07:19:52.916Z</time>
      </trkpt>
      <trkpt lat="47.29344" lon="-0.13565">
        <ele>25</ele>
        <time>2011-04-03T07:19:53.908Z</time>
      </trkpt>
      <trkpt lat="47.2934" lon="-0.1356">
        <ele>25</ele>
        <time>2011-04-03T07:19:54.937Z</time>
      </trkpt>
      <trkpt lat="47.29337" lon="-0.13554">
        <ele>25</ele>
        <time>2011-04-03T07:19:55.930Z</time>
      </trkpt>
      <trkpt lat="47.29333" lon="-0.13549">
        <ele>25</ele>
        <time>2011-04-03T07:19:56.960Z</time>
      </trkpt>
      <trkpt lat="47.2933" lon="-0.13543">
        <ele>25.1</ele>
        <time>2011-04-03T07:19:57.953Z</time>
      </trkpt>
      <trkpt lat="47.29326" lon="-0.13538">
        <ele>25.2</ele>
        <time>2011-04-03T07:19:58.983Z</time>
      </trkpt>
      <trkpt lat="47.29323" lon="-0.13532">
        <ele>25.3</ele>
        <time>2011-04-03T07:19:59.976Z</time>
      </trkpt>
      <trkpt lat="47.29319" lon="-0.13527">
        <ele>25.5</ele>
        <time>2011-04-03T07:20:01.006Z</time>
      </trkpt>
      <trkpt lat="47.29316" lon="-0.13521">
        <ele>25.6</ele>
        <time>2011-04-03T07:20:02Z</time>
        <extensions>
          <type>
            <highway>path</highway>
            <surface>asphalt</surface>
            </type>
        </extensions>
      </trkpt>
      <trkpt lat="47.29311" lon="-0.13512">
        <ele>25.8</ele>
        <time>2011-04-03T07:20:03.414Z</time>
      </trkpt>
      <trkpt lat="47.29307" lon="-0.13503">
        <ele>26</ele>
        <time>2011-04-03T07:20:04.722Z</time>
      </trkpt>
      <trkpt lat="47.29302" lon="-0.13494">
        <ele>25.8</ele>
        <time>2011-04-03T07:20:06.136Z</time>
      </trkpt>
      <trkpt lat="47.29298" lon="-0.13485">
        <ele>25.6</ele>
        <time>2011-04-03T07:20:07.444Z</time>
      </trkpt>
      <trkpt lat="47.29293" lon="-0.13476">
        <ele>25.5</ele>
        <time>2011-04-03T07:20:08.859Z</time>
      </trkpt>
      <trkpt lat="47.29288" lon="-0.13467">
        <ele>25.5</ele>
        <time>2011-04-03T07:20:10.274Z</time>
      </trkpt>
      <trkpt lat="47.29284" lon="-0.13458">
        <ele>25.4</ele>
        <time>2011-04-03T07:20:11.582Z</time>
      </trkpt>
      <trkpt lat="47.29279" lon="-0.13449">
        <ele>25.2</ele>
        <time>2011-04-03T07:20:12.997Z</time>
      </trkpt>
      <trkpt lat="47.29274" lon="-0.1344">
        <ele>25.1</ele>
        <time>2011-04-03T07:20:14.412Z</time>
      </trkpt>
      <trkpt lat="47.2927" lon="-0.13431">
        <ele>25.3</ele>
        <time>2011-04-03T07:20:15.720Z</time>
      </trkpt>
      <trkpt lat="47.29265" lon="-0.13422">
        <ele>25.5</ele>
        <time>2011-04-03T07:20:17.135Z</time>
      </trkpt>
      <trkpt lat="47.29261" lon="-0.13413">
        <ele>25.6</ele>
        <time>2011-04-03T07:20:18.444Z</time>
      </trkpt>
      <trkpt lat="47.29256" lon="-0.13404">
        <ele>25.8</ele>
        <time>2011-04-03T07:20:19.859Z</time>
      </trkpt>
      <trkpt lat="47.29251" lon="-0.13395">
        <ele>26</ele>
        <time>2011-04-03T07:20:21.274Z</time>
      </trkpt>
      <trkpt lat="47.29247" lon="-0.13386">
        <ele>26</ele>
        <time>2011-04-03T07:20:22.583Z</time>
      </trkpt>
      <trkpt lat="47.29242" lon="-0.13377">
        <ele>26</ele>
        <time>2011-04-03T07:20:24Z</time>
        <extensions>
          <type>
            <highway>path</highway>
            <surface>asphalt</surface>
            </type>
        </extensions>
      </trkpt>
      <trkpt lat="47.29239" lon="-0.13371">
        <ele>26</ele>
        <time>2011-04-03T07:20:24.867Z</time>
      </trkpt>
      <trkpt lat="47.29237" lon="-0.13365">
        <ele>26</ele>
        <time>2011-04-03T07:20:25.645Z</time>
      </trkpt>
      <trkpt lat="47.29234" lon="-0.1336">
        <ele>26</ele>
        <time>2011-04-03T07:20:26.422Z</time>
      </trkpt>
      <trkpt lat="47.29232" lon="-0.13354">
        <ele>25.9</ele>
        <time>2011-04-03T07:20:27.200Z</time>
      </trkpt>
      <trkpt lat="47.29229" lon="-0.13348">
        <ele>25.9</ele>
        <time>2011-04-03T07:20:28.068Z</time>
      </trkpt>
      <trkpt lat="47.29227" lon="-0.13342">
        <ele>25.9</ele>
        <time>2011-04-03T07:20:28.846Z</time>
      </trkpt>
      <trkpt lat="47.29224" lon="-0.13336">
        <ele>25.9</ele>
        <time>2011-04-03T07:20:29.714Z</time>
      </trkpt>
      <trkpt lat="47.29222" lon="-0.1333">
        <ele>25.9</ele>
        <time>2011-04-03T07:20:30.492Z</time>
      </trkpt>
      <trkpt lat="47.29219" lon="-0.13325">
        <ele>25.7</ele>
        <time>2011-04-03T07:20:31.269Z</time>
      </trkpt>
      <trkpt lat="47.29216" lon="-0.13319">
        <ele>25.6</ele>
        <time>2011-04-03T07:20:32.137Z</time>
      </trkpt>
      <trkpt lat="47.29214" lon="-0.13313">
        <ele>25.5</ele>
        <time>2011-04-03T07:20:32.915Z</time>
      </trkpt>
      <trkpt lat="47.29211" lon="-0.13307">
        <ele>25.4</ele>
        <time>2011-04-03T07:20:33.783Z</time>
      </trkpt>
      <trkpt lat="47.29209" lon="-0.13301">
        <ele>25.5</ele>
        <time>2011-04-03T07:20:34.561Z</time>
      </trkpt>
      <trkpt lat="47.29206" lon="-0.13295">
        <ele>25.6</ele>
        <time>2011-04-03T07:20:35.429Z</time>
      </trkpt>
      <trkpt lat="47.29204" lon="-0.1329">
        <ele>25.7</ele>
        <time>2011-04-03T07:20:36.104Z</time>
      </trkpt>
      <trkpt lat="47.29201" lon="-0.13284">
        <ele>25.8</ele>
        <time>2011-04-03T07:20:36.972Z</time>
      </trkpt>
      <trkpt lat="47.29198" lon="-0.13278">
        <ele>25.9</ele>
        <time>2011-04-03T07:20:37.840Z</time>
      </trkpt>
      <trkpt lat="47.29196" lon="-0.13272">
        <ele>25.8</ele>
        <time>2011-04-03T07:20:38.618Z</time>
      </trkpt>
      <trkpt lat="47.29193" lon="-0.13266">
        <ele>25.6</ele>
        <time>2011-04-03T07:20:39.486Z</time>
      </trkpt>
      <trkpt lat="47.29191" lon="-0.1326">
        <ele>25.5</ele>
        <time>2011-04-03T07:20:40.264Z</time>
      </trkpt>
      <trkpt lat="47.29188" lon="-0.13255">
        <ele>25.4</ele>
        <time>2011-04-03T07:20:41.041Z</time>
      </trkpt>
      <trkpt lat="47.29186" lon="-0.13249">
        <ele>25.3</ele>
        <time>2011-04-03T07:20:41.819Z</time>
      </trkpt>
      <trkpt lat="47.29183" lon="-0.13243">
        <ele>25.4</ele>
        <time>2011-04-03T07:20:42.687Z</time>
      </trkpt>
      <trkpt lat="47.29181" lon="-0.13237">
        <ele>25.5</ele>
        <time>2011-04-03T07:20:43.465Z</time>
      </trkpt>
      <trkpt lat="47.29178" lon="-0.13231">
        <ele>25.6</ele>
        <time>2011-04-03T07:20:44.333Z</time>
      </trkpt>
      <trkpt lat="47.29175" lon="-0.13226">
        <ele>25.7</ele>
        <time>2011-04-03T07:20:45.110Z</time>
      </trkpt>
      <trkpt lat="47.29173" lon="-0.1322">
        <ele>25.7</ele>
        <time>2011-04-03T07:20:45.888Z</time>
      </trkpt>
      <trkpt lat="47.2917" lon="-0.13214">
        <ele>25.6</ele>
        <time>2011-04-03T07:20:46.756Z</time>
      </trkpt>
      <trkpt lat="47.29168" lon="-0.13208">
        <ele>25.5</ele>
        <time>2011-04-03T07:20:47.534Z</time>
      </trkpt>
      <trkpt lat="47.29165" lon="-0.13202">
        <ele>25.3</ele>
        <time>2011-04-03T07:20:48.402Z</time>
      </trkpt>
      <trkpt lat="47.29163" lon="-0.13196">
        <ele>25.2</ele>
        <time>2011-04-03T07:20:49.180Z</time>
      </trkpt>
      <trkpt lat="47.2916" lon="-0.13191">
        <ele>25.2</ele>
        <time>2011-04-03T07:20:49.957Z</time>
      </trkpt>
      <trkpt lat="47.29157" lon="-0.13185">
        <ele>25.3</ele>
        <time>2011-04-03T07:20:50.825Z</time>
      </trkpt>
      <trkpt lat="47.29155" lon="-0.13179">
        <ele>25.4</ele>
        <time>2011-04-03T07:20:51.603Z</time>
      </trkpt>
      <trkpt lat="47.29152" lon="-0.13173">
        <ele>25.5</ele>
        <time>2011-04-03T07:20:52.471Z</time>
      </trkpt>
      <trkpt lat="47.2915" lon="-0.13167">
        <ele>25.6</ele>
        <time>2011-04-03T07:20:53.249Z</time>
      </trkpt>
      <trkpt lat="47.29147" lon="-0.13161">
        <ele>25.6</ele>
        <time>2011-04-03T07:20:54.117Z</time>
      </trkpt>
      <trkpt lat="47.29145" lon="-0.13156">
        <ele>25.5</ele>
        <time>2011-04-03T07:20:54.793Z</time>
      </trkpt>
      <trkpt lat="47.29142" lon="-0.1315">
        <ele>25.3</ele>
        <time>2011-04-03T07:20:55.661Z</time>
      </trkpt>
      <trkpt lat="47.2914" lon="-0.13144">
        <ele>25.2</ele>
        <time>2011-04-03T07:20:56.439Z</time>
      </trkpt>
      <trkpt lat="47.29137" lon="-0.13138">
        <ele>25.1</ele>
        <time>2011-04-03T07:20:57.307Z</time>
      </trkpt>
      <trkpt lat="47.29134" lon="-0.13132">
        <ele>25.2</ele>
        <time>2011-04-03T07:20:58.175Z</time>
      </trkpt>
      <trkpt lat="47.29132" lon="-0.13126">
        <ele>25.3</ele>
        <time>2011-04-03T07:20:58.953Z</time>
      </trkpt>
      <trkpt lat="47.29129" lon="-0.13121">
        <ele>25.3</ele>
        <time>2011-04-03T07:20:59.730Z</time>
      </trkpt>
      <trkpt lat="47.29127" lon="-0.13115">
        <ele>25.4</ele>
        <time>2011-04-03T07:21:00.509Z</time>
      </trkpt>
      <trkpt lat="47.29124" lon="-0.13109">
        <ele>25.5</ele>
        <time>2011-04-03T07:21:01.377Z</time>
      </trkpt>
      <trkpt lat="47.29122" lon="-0.13103">
        <ele>25.6</ele>
        <time>2011-04-03T07:21:02.156Z</time>
      </trkpt>
      <trkpt lat="47.29119" lon="-0.13097">
        <ele>25.7</ele>
        <time>2011-04-03T07:21:03.024Z</time>
      </trkpt>
      <trkpt lat="47.29116" lon="-0.13091">
        <ele>25.8</ele>
        <time>2011-04-03T07:21:03.892Z</time>
      </trkpt>
      <trkpt lat="47.29114" lon="-0.13086">
        <ele>25.9</ele>
        <time>2011-04-03T07:21:04.568Z</time>
      </trkpt>
      <trkpt lat="47.29111" lon="-0.1308">
        <ele>25.9</ele>
        <time>2011-04-03T07:21:05.436Z</time>
      </trkpt>
      <trkpt lat="47.29109" lon="-0.13074">
        <ele>25.7</ele>
        <time>2011-04-03T07:21:06.215Z</time>
      </trkpt>
      <trkpt lat="47.29106" lon="-0.13068">
        <ele>25.5</ele>
        <time>2011-04-03T07:21:07.083Z</time>
      </trkpt>
      <trkpt lat="47.29104" lon="-0.13062">
        <ele>25.4</ele>
        <time>2011-04-03T07:21:07.862Z</time>
      </trkpt>
      <trkpt lat="47.29101" lon="-0.13057">
        <ele>25.4</ele>
        <time>2011-04-03T07:21:08.640Z</time>
      </trkpt>
      <trkpt lat="47.29099" lon="-0.13051">
        <ele>25.5</ele>
        <time>2011-04-03T07:21:09.419Z</time>
      </trkpt>
      <trkpt lat="47.29096" lon="-0.13045">
        <ele>25.5</ele>
        <time>2011-04-03T07:21:10.288Z</time>
      </trkpt>
      <trkpt lat="47.29093" lon="-0.13039">
        <ele>25.6</ele>
        <time>2011-04-03T07:21:11.157Z</time>
      </trkpt>
      <trkpt lat="47.29091" lon="-0.13033">
        <ele>25.7</ele>
        <time>2011-04-03T07:21:11.936Z</time>
      </trkpt>
      <trkpt lat="47.29088" lon="-0.13027">
        <ele>25.8</ele>
        <time>2011-04-03T07:21:12.805Z</time>
      </trkpt>
      <trkpt lat="47.29086" lon="-0.13022">
        <ele>25.7</ele>
        <time>2011-04-03T07:21:13.481Z</time>
      </trkpt>
      <trkpt lat="47.29083" lon="-0.13016">
        <ele>25.6</ele>
        <time>2011-04-03T07:21:14.350Z</time>
      </trkpt>
      <trkpt lat="47.29081" lon="-0.1301">
        <ele>25.4</ele>
        <time>2011-04-03T07:21:15.130Z</time>
      </trkpt>
      <trkpt lat="47.29078" lon="-0.13004">
        <ele>25.3</ele>
        <time>2011-04-03T07:21:16Z</time>
        <extensions>
          <type>
            <highway>path</highway>
            <surface>asphalt</surface>
            </type>
        </extensions>
      </trkpt>
      <trkpt lat="47.29074" lon="-0.12997">
        <ele>25.3</ele>
        <time>2011-04-03T07:21:17.083Z</time>
      </trkpt>
      <trkpt lat="47.29071" lon="-0.1299">
        <ele>25.4</ele>
        <time>2011-04-03T07:21:18.063Z</time>
      </trkpt>
      <trkpt lat="47.29067" lon="-0.12982">
        <ele>25.6</ele>
        <time>2011-04-03T07:21:19.239Z</time>
      </trkpt>
      <trkpt lat="47.29064" lon="-0.12975">
        <ele>25.7</ele>
        <time>2011-04-03T07:21:20.219Z</time>
      </trkpt>
      <trkpt lat="47.2906" lon="-0.12968">
        <ele>25.7</ele>
        <time>2011-04-03T07:21:21.302Z</time>
      </trkpt>
      <trkpt lat="47.29057" lon="-0.12961">
        <ele>25.6</ele>
        <time>2011-04-03T07:21:22.282Z</time>
      </trkpt>
      <trkpt lat="47.29053" lon="-0.12953">
        <ele>25.4</ele>
        <time>2011-04-03T07:21:23.458Z</time>
      </trkpt>
      <trkpt lat="47.2905" lon="-0.12946">
        <ele>25.3</ele>
        <time>2011-04-03T07:21:24.438Z</time>
      </trkpt>
      <trkpt lat="47.29046" lon="-0.12939">
        <ele>25.3</ele>
        <time>2011-04-03T07:21:25.521Z</time>
      </trkpt>
      <trkpt lat="47.29042" lon="-0.12932">
        <ele>25.5</ele>
        <time>2011-04-03T07:21:26.604Z</time>
      </trkpt>
      <trkpt lat="47.29039" lon="-0.12924">
        <ele>25.6</ele>
        <time>2011-04-03T07:21:27.686Z</time>
      </trkpt>
      <trkpt lat="47.29035" lon="-0.12917">
        <ele>25.7</ele>
        <time>2011-04-03T07:21:28.769Z</time>
      </trkpt>
      <trkpt lat="47.29032" lon="-0.1291">
        <ele>25.6</ele>
        <time>2011-04-03T07:21:29.749Z</time>
      </trkpt>
      <trkpt lat="47.29028" lon="-0.12903">
        <ele>25.5</ele>
        <time>2011-04-03T07:21:30.833Z</time>
      </trkpt>
      <trkpt lat="47.29025" lon="-0.12895">
        <ele>25.3</ele>
        <time>2011-04-03T07:21:31.915Z</time>
      </trkpt>
      <trkpt lat="47.29021" lon="-0.12888">
        <ele>25.2</ele>
        <time>2011-04-03T07:21:33Z</time>
        <extensions>
          <type>
            <highway>path</highway>
            <surface>asphalt</surface>
            </type>
        </extensions>
      </trkpt>
      <trkpt lat="47.29017" lon="-0.1288">
        <ele>25.4</ele>
        <time>2011-04-03T07:21:34.163Z</time>
      </trkpt>
      <trkpt lat="47.29013" lon="-0.12873">
        <ele>25.5</ele>
        <time>2011-04-03T07:21:35.234Z</time>
      </trkpt>
      <trkpt lat="47.29008" lon="-0.12865">
        <ele>25.7</ele>
        <time>2011-04-03T07:21:36.507Z</time>
      </trkpt>
      <trkpt lat="47.29004" lon="-0.12857">
        <ele>25.7</ele>
        <time>2011-04-03T07:21:37.670Z</time>
      </trkpt>
      <trkpt lat="47.29" lon="-0.1285">
        <ele>25.6</ele>
        <time>2011-04-03T07:21:38.741Z</time>
      </trkpt>
      <trkpt lat="47.28996" lon="-0.12842">
        <ele>25.4</ele>
        <time>2011-04-03T07:21:39.904Z</time>
      </trkpt>
      <trkpt lat="47.28992" lon="-0.12834">
        <ele>25.3</ele>
        <time>2011-04-03T07:21:41.067Z</time>
      </trkpt>
      <trkpt lat="47.28987" lon="-0.12827">
        <ele>25.5</ele>
        <time>2011-04-03T07:21:42.257Z</time>
      </trkpt>
      <trkpt lat="47.28983" lon="-0.12819">
        <ele>25.6</ele>
        <time>2011-04-03T07:21:43.420Z</time>
      </trkpt>
      <trkpt lat="47.28979" lon="-0.12811">
        <ele>25.8</ele>
        <time>2011-04-03T07:21:44.583Z</time>
      </trkpt>
      <trkpt lat="47.28975" lon="-0.12804">
        <ele>25.9</ele>
        <time>2011-04-03T07:21:45.654Z</time>
      </trkpt>
      <trkpt lat="47.2897" lon="-0.12796">
        <ele>25.7</ele>
        <time>2011-04-03T07:21:46.927Z</time>
      </trkpt>
      <trkpt lat="47.28966" lon="-0.12789">
        <ele>25.5</ele>
        <time>2011-04-03T07:21:47.998Z</time>
      </trkpt>
      <trkpt lat="47.28962" lon="-0.12781">
        <ele>25.4</ele>
        <time>2011-04-03T07:21:49.161Z</time>
      </trkpt>
      <trkpt lat="47.28958" lon="-0.12773">
        <ele>25.5</ele>
        <time>2011-04-03T07:21:50.324Z</time>
      </trkpt>
      <trkpt lat="47.28954" lon="-0.12766">
        <ele>25.7</ele>
        <time>2011-04-03T07:21:51.395Z</time>
      </trkpt>
      <trkpt lat="47.28949" lon="-0.12758">
        <ele>25.8</ele>
        <time>2011-04-03T07:21:52.669Z</time>
      </trkpt>
      <trkpt lat="47.28945" lon="-0.1275">
        <ele>26</ele>
        <time>2011-04-03T07:21:53.833Z</time>
      </trkpt>
      <trkpt lat="47.28941" lon="-0.12743">
        <ele>25.8</ele>
        <time>2011-04-03T07:21:54.905Z</time>
      </trkpt>
      <trkpt lat="47.28937" lon="-0.12735">
        <ele>25.6</ele>
        <time>2011-04-03T07:21:56.069Z</time>
      </trkpt>
      <trkpt lat="47.28932" lon="-0.12727">
        <ele>25.5</ele>
        <time>2011-04-03T07:21:57.343Z</time>
      </trkpt>
      <trkpt lat="47.28928" lon="-0.1272">
        <ele>25.5</ele>
        <time>2011-04-03T07:21:58.415Z</time>
      </trkpt>
      <trkpt lat="47.28924" lon="-0.12712">
        <ele>25.5</ele>
        <time>2011-04-03T07:21:59.579Z</time>
      </trkpt>
      <trkpt lat="47.2892" lon="-0.12704">
        <ele>25.3</ele>
        <time>2011-04-03T07:22:00.743Z</time>
      </trkpt>
      <trkpt lat="47.28916" lon="-0.12697">
        <ele>25.1</ele>
        <time>2011-04-03T07:22:01.815Z</time>
      </trkpt>
      <trkpt lat="47.28911" lon="-0.12689">
        <ele>25.2</ele>
        <time>2011-04-03T07:22:03.089Z</time>
      </trkpt>
      <trkpt lat="47.28907" lon="-0.12681">
        <ele>25.3</ele>
        <time>2011-04-03T07:22:04.253Z</time>
      </trkpt>
      <trkpt lat="47.28903" lon="-0.12674">
        <ele>25.5</ele>
        <time>2011-04-03T07:22:05.325Z</time>
      </trkpt>
      <trkpt lat="47.28899" lon="-0.12666">
        <ele>25.6</ele>
        <time>2011-04-03T07:22:06.489Z</time>
      </trkpt>
      <trkpt lat="47.28894" lon="-0.12658">
        <ele>25.6</ele>
        <time>2011-04-03T07:22:07.763Z</time>
      </trkpt>
      <trkpt lat="47.2889" lon="-0.12651">
        <ele>25.4</ele>
        <time>2011-04-03T07:22:08.835Z</time>
      </trkpt>
      <trkpt lat="47.28886" lon="-0.12643">
        <ele>25.2</ele>
        <time>2011-04-03T07:22:10Z</time>
        <extensions>
          <type>
            <highway>path</highway>
            <surface>asphalt</surface>
            </type>
        </extensions>
      </trkpt>
      <trkpt lat="47.28881" lon="-0.12632">
        <ele>25.3</ele>
        <time>2011-04-03T07:22:11.623Z</time>
      </trkpt>
      <trkpt lat="47.28876" lon="-0.12621">
        <ele>25.5</ele>
        <time>2011-04-03T07:22:13.246Z</time>
      </trkpt>
      <trkpt lat="47.28871" lon="-0.1261">
        <ele>25.6</ele>
        <time>2011-04-03T07:22:14.870Z</time>
      </trkpt>
      <trkpt lat="47.28867" lon="-0.12599">
        <ele>25.9</ele>
        <time>2011-04-03T07:22:16.400Z</time>
      </trkpt>
      <trkpt lat="47.28862" lon="-0.12587">
        <ele>26</ele>
        <time>2011-04-03T07:22:18.127Z</time>
      </trkpt>
      <trkpt lat="47.28857" lon="-0.12576">
        <ele>26</ele>
        <time>2011-04-03T07:22:19.751Z</time>
      </trkpt>
      <trkpt lat="47.28852" lon="-0.12565">
        <ele>26</ele>
        <time>2011-04-03T07:22:21.375Z</time>
      </trkpt>
      <trkpt lat="47.28847" lon="-0.12554">
        <ele>26</ele>
        <time>2011-04-03T07:22:23Z</time>
        <extensions>
          <type>
            <highway>path</highway>
            <surface>asphalt</surface>
            </type>
        </extensions>
      </trkpt>
      <trkpt lat="47.28843" lon="-0.12551">
        <ele>26</ele>
        <time>2011-04-03T07:22:23.962Z</time>
      </trkpt>
      <trkpt lat="47.28839" lon="-0.12547">
        <ele>26</ele>
        <time>2011-04-03T07:22:25Z</time>
        <extensions>
          <type>
            <highway>track</highway>
            <surface>gravel</surface>
            </type>
        </extensions>
      </trkpt>
      <trkpt lat="47.28834" lon="-0.12548">
        <ele>26</ele>
        <time>2011-04-03T07:22:26Z</time>
        <extensions>
          <type>
            <highway>track</highway>
            <surface>gravel</surface>
            </type>
        </extensions>
      </trkpt>
      <trkpt lat="47.2883" lon="-0.12555">
        <ele>26</ele>
        <time>2011-04-03T07:22:27.119Z</time>
      </trkpt>
      <trkpt lat="47.28826" lon="-0.12562">
        <ele>26</ele>
        <time>2011-04-03T07:22:28.238Z</time>
      </trkpt>
      <trkpt lat="47.28822" lon="-0.12569">
        <ele>26</ele>
        <time>2011-04-03T07:22:29.357Z</time>
      </trkpt>
      <trkpt lat="47.28818" lon="-0.12576">
        <ele>26</ele>
        <time>2011-04-03T07:22:30.476Z</time>
      </trkpt>
      <trkpt lat="47.28813" lon="-0.12582">
        <ele>26</ele>
        <time>2011-04-03T07:22:31.639Z</time>
      </trkpt>
      <trkpt lat="47.28809" lon="-0.12589">
        <ele>25.8</ele>
        <time>2011-04-03T07:22:32.759Z</time>
      </trkpt>
      <trkpt lat="47.28805" lon="-0.12596">
        <ele>25.5</ele>
        <time>2011-04-03T07:22:33.879Z</time>
      </trkpt>
      <trkpt lat="47.28801" lon="-0.12603">
        <ele>25.4</ele>
        <time>2011-04-03T07:22:35Z</time>
        <extensions>
          <type>
            <highway>track</highway>
            <surface>gravel</surface>
            </type>
        </extensions>
      </trkpt>
      <trkpt lat="47.28797" lon="-0.12608">
        <ele>25.4</ele>
        <time>2011-04-03T07:22:35.896Z</time>
      </trkpt>
      <trkpt lat="47.28794" lon="-0.12612">
        <ele>25.4</ele>
        <time>2011-04-03T07:22:36.587Z</time>
      </trkpt>
      <trkpt lat="47.2879" lon="-0.12617">
        <ele>25.6</ele>
        <time>2011-04-03T07:22:37.483Z</time>
      </trkpt>
      <trkpt lat="47.28787" lon="-0.12621">
        <ele>25.8</ele>
        <time>2011-04-03T07:22:38.174Z</time>
      </trkpt>
      <trkpt lat="47.28783" lon="-0.12626">
        <ele>25.9</ele>
        <time>2011-04-03T07:22:39.070Z</time>
      </trkpt>
      <trkpt lat="47.28779" lon="-0.1263">
        <ele>26</ele>
        <time>2011-04-03T07:22:39.896Z</time>
      </trkpt>
      <trkpt lat="47.28776" lon="-0.12635">
        <ele>26</ele>
        <time>2011-04-03T07:22:40.670Z</time>
      </trkpt>
      <trkpt lat="47.28772" lon="-0.12639">
        <ele>26</ele>
        <time>2011-04-03T07:22:41.496Z</time>
      </trkpt>
      <trkpt lat="47.28768" lon="-0.12644">
        <ele>26</ele>
        <time>2011-04-03T07:22:42.393Z</time>
      </trkpt>
      <trkpt lat="47.28765" lon="-0.12648">
        <ele>26</ele>
        <time>2011-04-03T07:22:43.085Z</time>
      </trkpt>
      <trkpt lat="47.28761" lon="-0.12653">
        <ele>26</ele>
        <time>2011-04-03T07:22:43.982Z</time>
      </trkpt>
      <trkpt lat="47.28758" lon="-0.12657">
        <ele>26</ele>
        <time>2011-04-03T07:22:44.674Z</time>
      </trkpt>
      <trkpt lat="47.28754" lon="-0.12662">
        <ele>26</ele>
        <time>2011-04-03T07:22:45.571Z</time>
      </trkpt>
      <trkpt lat="47.2875" lon="-0.12666">
        <ele>26</ele>
        <time>2011-04-03T07:22:46.398Z</time>
      </trkpt>
      <trkpt lat="47.28747" lon="-0.12671">
        <ele>25.9</ele>
        <time>2011-04-03T07:22:47.172Z</time>
      </trkpt>
      <trkpt lat="47.28743" lon="-0.12675">
        <ele>25.7</ele>
        <time>2011-04-03T07:22:48Z</time>
        <extensions>
          <type>
            <highway>track</highway>
            <surface>gravel</surface>
            </type>
        </extensions>
      </trkpt>
      <trkpt lat="47.28738" lon="-0.12681">
        <ele>25.5</ele>
        <time>2011-04-03T07:22:49.685Z</time>
      </trkpt>
      <trkpt lat="47.28732" lon="-0.12687">
        <ele>25.4</ele>
        <time>2011-04-03T07:22:51.580Z</time>
      </trkpt>
      <trkpt lat="47.28727" lon="-0.12693">
        <ele>25.2</ele>
        <time>2011-04-03T07:22:53.265Z</time>
      </trkpt>
      <trkpt lat="47.28721" lon="-0.12699">
        <ele>25.2</ele>
        <time>2011-04-03T07:22:55.160Z</time>
      </trkpt>
      <trkpt lat="47.28716" lon="-0.12705">
        <ele>25.5</ele>
        <time>2011-04-03T07:22:56.845Z</time>
      </trkpt>
      <trkpt lat="47.2871" lon="-0.1271">
        <ele>25.8</ele>
        <time>2011-04-03T07:22:58.646Z</time>
      </trkpt>
      <trkpt lat="47.28705" lon="-0.12716">
        <ele>25.9</ele>
        <time>2011-04-03T07:23:00.331Z</time>
      </trkpt>
      <trkpt lat="47.28699" lon="-0.12722">
        <ele>26</ele>
        <time>2011-04-03T07:23:02.226Z</time>
      </trkpt>
      <trkpt lat="47.28694" lon="-0.12728">
        <ele>26</ele>
        <time>2011-04-03T07:23:03.911Z</time>
      </trkpt>
      <trkpt lat="47.28688" lon="-0.12734">
        <ele>26</ele>
        <time>2011-04-03T07:23:05.806Z</time>
      </trkpt>
      <trkpt lat="47.28683" lon="-0.1274">
        <ele>26</ele>
        <time>2011-04-03T07:23:07.491Z</time>
      </trkpt>
      <trkpt lat="47.28677" lon="-0.12746">
        <ele>26</ele>
        <time>2011-04-03T07:23:09.386Z</time>
      </trkpt>
      <trkpt lat="47.28672" lon="-0.12752">
        <ele>26.1</ele>
        <time>2011-04-03T07:23:11.071Z</time>
      </trkpt>
      <trkpt lat="47.28666" lon="-0.12758">
        <ele>26.3</ele>
        <time>2011-04-03T07:23:12.966Z</time>
      </trkpt>
      <trkpt lat="47.28661" lon="-0.12764">
        <ele>26.5</ele>
        <time>2011-04-03T07:23:14.651Z</time>
      </trkpt>
      <trkpt lat="47.28655" lon="-0.1277">
        <ele>26.7</ele>
        <time>2011-04-03T07:23:16.546Z</time>
      </trkpt>
      <trkpt lat="47.2865" lon="-0.12775">
        <ele>26.9</ele>
        <time>2011-04-03T07:23:18.125Z</time>
      </trkpt>
      <trkpt lat="47.28644" lon="-0.12781">
        <ele>27</ele>
        <time>2011-04-03T07:23:20.020Z</time>
      </trkpt>
      <trkpt lat="47.28639" lon="-0.12787">
        <ele>27</ele>
        <time>2011-04-03T07:23:21.705Z</time>
      </trkpt>
      <trkpt lat="47.28633" lon="-0.12793">
        <ele>27.1</ele>
        <time>2011-04-03T07:23:23.601Z</time>
      </trkpt>
      <trkpt lat="47.28628" lon="-0.12799">
        <ele>27.5</ele>
        <time>2011-04-03T07:23:25.287Z</time>
      </trkpt>
      <trkpt lat="47.28622" lon="-0.12805">
        <ele>28.2</ele>
        <time>2011-04-03T07:23:27.183Z</time>
      </trkpt>
      <trkpt lat="47.28617" lon="-0.12811">
        <ele>28.5</ele>
        <time>2011-04-03T07:23:28.869Z</time>
      </trkpt>
      <trkpt lat="47.28611" lon="-0.12817">
        <ele>28.6</ele>
        <time>2011-04-03T07:23:30.765Z</time>
      </trkpt>
      <trkpt lat="47.28606" lon="-0.12823">
        <ele>28.5</ele>
        <time>2011-04-03T07:23:32.451Z</time>
      </trkpt>
      <trkpt lat="47.286" lon="-0.12829">
        <ele>28.5</ele>
        <time>2011-04-03T07:23:34.347Z</time>
      </trkpt>
      <trkpt lat="47.28595" lon="-0.12835">
        <ele>28.6</ele>
        <time>2011-04-03T07:23:36.033Z</time>
      </trkpt>
      <trkpt lat="47.28589" lon="-0.1284">
        <ele>28.8</ele>
        <time>2011-04-03T07:23:37.835Z</time>
      </trkpt>
      <trkpt lat="47.28584" lon="-0.12846">
        <ele>29</ele>
        <time>2011-04-03T07:23:39.521Z</time>
      </trkpt>
      <trkpt lat="47.28578" lon="-0.12852">
        <ele>29.3</ele>
        <time>2011-04-03T07:23:41.417Z</time>
      </trkpt>
      <trkpt lat="47.28573" lon="-0.12858">
        <ele>29.7</ele>
        <time>2011-04-03T07:23:43.103Z</time>
      </trkpt>
      <trkpt lat="47.28567" lon="-0.12864">
        <ele>30.2</ele>
        <time>2011-04-03T07:23:45Z</time>
        <extensions>
          <type>
            <highway>track</highway>
            <surface>gravel</surface>
            </type>
        </extensions>
      </trkpt>
      <trkpt lat="47.28563" lon="-0.12863">
        <ele>30.5</ele>
        <time>2011-04-03T07:23:46.756Z</time>
      </trkpt>
      <trkpt lat="47.28558" lon="-0.12861">
        <ele>30.8</ele>
        <time>2011-04-03T07:23:49Z</time>
        <extensions>
          <type>
            <highway>track</highway>
            <surface>gravel</surface>
            </type>
        </extensions>
      </trkpt>
      <trkpt lat="47.28552" lon="-0.12862">
        <ele>32.2</ele>
        <time>2011-04-03T07:23:52.926Z</time>
      </trkpt>
      <trkpt lat="47.28545" lon="-0.12863">
        <ele>34</ele>
        <time>2011-04-03T07:23:57.499Z</time>
      </trkpt>
      <trkpt lat="47.28539" lon="-0.12864">
        <ele>35.8</ele>
        <time>2011-04-03T07:24:01.426Z</time>
      </trkpt>
      <trkpt lat="47.28532" lon="-0.12865">
        <ele>37.6</ele>
        <time>2011-04-03T07:24:06Z</time>
        <extensions>
          <type>
            <highway>track</highway>
            <surface>gravel</surface>
            </type>
        </extensions>
      </trkpt>
      <trkpt lat="47.28523" lon="-0.12865">
        <ele>39.6</ele>
        <time>2011-04-03T07:24:11.955Z</time>
      </trkpt>
      <trkpt lat="47.28514" lon="-0.12865">
        <ele>41.2</ele>
        <time>2011-04-03T07:24:17.910Z</time>
      </trkpt>
      <trkpt lat="47.28505" lon="-0.12865">
        <ele>42.9</ele>
        <time>2011-04-03T07:24:23.865Z</time>
      </trkpt>
      <trkpt lat="47.28497" lon="-0.12865">
        <ele>44.5</ele>
        <time>2011-04-03T07:24:29.159Z</time>
      </trkpt>
      <trkpt lat="47.28488" lon="-0.12864">
        <ele>46.1</ele>
        <time>2011-04-03T07:24:35.131Z</time>
      </trkpt>
      <trkpt lat="47.28479" lon="-0.12864">
        <ele>47.7</ele>
        <time>2011-04-03T07:24:41.087Z</time>
      </trkpt>
      <trkpt lat="47.2847" lon="-0.12864">
        <ele>49.3</ele>
        <time>2011-04-03T07:24:47.043Z</time>
      </trkpt>
      <trkpt lat="47.28461" lon="-0.12864">
        <ele>50.8</ele>
        <time>2011-04-03T07:24:53Z</time>
        <extensions>
          <type>
            <highway>track</highway>
            <surface>gravel</surface>
            </type>
        </extensions>
      </trkpt>
      <trkpt lat="47.28457" lon="-0.12866">
        <ele>51.4</ele>
        <time>2011-04-03T07:24:54.809Z</time>
      </trkpt>
      <trkpt lat="47.28452" lon="-0.12868">
        <ele>52</ele>
        <time>2011-04-03T07:24:57.028Z</time>
      </trkpt>
      <trkpt lat="47.28448" lon="-0.1287">
        <ele>52.5</ele>
        <time>2011-04-03T07:24:58.837Z</time>
      </trkpt>
      <trkpt lat="47.28444" lon="-0.12872">
        <ele>52.8</ele>
        <time>2011-04-03T07:25:00.646Z</time>
      </trkpt>
      <trkpt lat="47.28439" lon="-0.12874">
        <ele>52.8</ele>
        <time>2011-04-03T07:25:02.865Z</time>
      </trkpt>
      <trkpt lat="47.28435" lon="-0.12876">
        <ele>52.7</ele>
        <time>2011-04-03T07:25:04.674Z</time>
      </trkpt>
      <trkpt lat="47.28431" lon="-0.12878">
        <ele>52.7</ele>
        <time>2011-04-03T07:25:06.483Z</time>
      </trkpt>
      <trkpt lat="47.28427" lon="-0.1288">
        <ele>52.6</ele>
        <time>2011-04-03T07:25:08.292Z</time>
      </trkpt>
      <trkpt lat="47.28422" lon="-0.12882">
        <ele>52.5</ele>
        <time>2011-04-03T07:25:10.511Z</time>
      </trkpt>
      <trkpt lat="47.28418" lon="-0.12884">
        <ele>52.5</ele>
        <time>2011-04-03T07:25:12.320Z</time>
      </trkpt>
      <trkpt lat="47.28414" lon="-0.12886">
        <ele>52.2</ele>
        <time>2011-04-03T07:25:14.129Z</time>
      </trkpt>
      <trkpt lat="47.28409" lon="-0.12888">
        <ele>51.8</ele>
        <time>2011-04-03T07:25:16.349Z</time>
      </trkpt>
      <trkpt lat="47.28405" lon="-0.1289">
        <ele>51.4</ele>
        <time>2011-04-03T07:25:18.159Z</time>
      </trkpt>
      <trkpt lat="47.28401" lon="-0.12892">
        <ele>51</ele>
        <time>2011-04-03T07:25:19.969Z</time>
      </trkpt>
      <trkpt lat="47.28396" lon="-0.12894">
        <ele>50.6</ele>
        <time>2011-04-03T07:25:22.189Z</time>
      </trkpt>
      <trkpt lat="47.28392" lon="-0.12896">
        <ele>50.3</ele>
        <time>2011-04-03T07:25:24Z</time>
        <extensions>
          <type>
            <highway>track</highway>
            <surface>gravel</surface>
            </type>
        </extensions>
      </trkpt>
      <trkpt lat="47.28385" lon="-0.12901">
        <ele>49.8</ele>
        <time>2011-04-03T07:25:26.263Z</time>
      </trkpt>
      <trkpt lat="47.28379" lon="-0.12905">
        <ele>49.5</ele>
        <time>2011-04-03T07:25:28.179Z</time>
      </trkpt>
      <trkpt lat="47.28372" lon="-0.1291">
        <ele>49.2</ele>
        <time>2011-04-03T07:25:30.442Z</time>
      </trkpt>
      <trkpt lat="47.28366" lon="-0.12914">
        <ele>49</ele>
        <time>2011-04-03T07:25:32.358Z</time>
      </trkpt>
      <trkpt lat="47.28359" lon="-0.12919">
        <ele>49</ele>
        <time>2011-04-03T07:25:34.622Z</time>
      </trkpt>
      <trkpt lat="47.28352" lon="-0.12923">
        <ele>49.3</ele>
        <time>2011-04-03T07:25:36.807Z</time>
      </trkpt>
      <trkpt lat="47.28346" lon="-0.12928">
        <ele>49.5</ele>
        <time>2011-04-03T07:25:38.813Z</time>
      </trkpt>
      <trkpt lat="47.28339" lon="-0.12932">
        <ele>49.7</ele>
        <time>2011-04-03T07:25:41Z</time>
        <extensions>
          <type>
            <highway>track</highway>
            <surface>gravel</surface>
            </type>
        </extensions>
      </trkpt>
      <trkpt lat="47.28335" lon="-0.12936">
        <ele>49.7</ele>
        <time>2011-04-03T07:25:42.310Z</time>
      </trkpt>
      <trkpt lat="47.28332" lon="-0.1294">
        <ele>49.7</ele>
        <time>2011-04-03T07:25:43.406Z</time>
      </trkpt>
      <trkpt lat="47.28328" lon="-0.12944">
        <ele>49.6</ele>
        <time>2011-04-03T07:25:44.716Z</time>
      </trkpt>
      <trkpt lat="47.28324" lon="-0.12948">
        <ele>49.7</ele>
        <time>2011-04-03T07:25:46.026Z</time>
      </trkpt>
      <trkpt lat="47.2832" lon="-0.12952">
        <ele>49.7</ele>
        <time>2011-04-03T07:25:47.336Z</time>
      </trkpt>
      <trkpt lat="47.28317" lon="-0.12956">
        <ele>49.7</ele>
        <time>2011-04-03T07:25:48.432Z</time>
      </trkpt>
      <trkpt lat="47.28313" lon="-0.1296">
        <ele>49.7</ele>
        <time>2011-04-03T07:25:49.742Z</time>
      </trkpt>
      <trkpt lat="47.28309" lon="-0.12964">
        <ele>49.6</ele>
        <time>2011-04-03T07:25:51.052Z</time>
      </trkpt>
      <trkpt lat="47.28306" lon="-0.12968">
        <ele>49.5</ele>
        <time>2011-04-03T07:25:52.148Z</time>
      </trkpt>
      <trkpt lat="47.28302" lon="-0.12972">
        <ele>49.2</ele>
        <time>2011-04-03T07:25:53.458Z</time>
      </trkpt>
      <trkpt lat="47.28298" lon="-0.12976">
        <ele>49.2</ele>
        <time>2011-04-03T07:25:54.768Z</time>
      </trkpt>
      <trkpt lat="47.28294" lon="-0.1298">
        <ele>49.2</ele>
        <time>2011-04-03T07:25:56.078Z</time>
      </trkpt>
      <trkpt lat="47.28291" lon="-0.12984">
        <ele>49.3</ele>
        <time>2011-04-03T07:25:57.174Z</time>
      </trkpt>
      <trkpt lat="47.28287" lon="-0.12988">
        <ele>49.5</ele>
        <time>2011-04-03T07:25:58.484Z</time>
      </trkpt>
      <trkpt lat="47.28283" lon="-0.12992">
        <ele>49.7</ele>
        <time>2011-04-03T07:25:59.794Z</time>
      </trkpt>
      <trkpt lat="47.2828" lon="-0.12996">
        <ele>49.9</ele>
        <time>2011-04-03T07:26:00.890Z</time>
      </trkpt>
      <trkpt lat="47.28276" lon="-0.13">
        <ele>50.1</ele>
        <time>2011-04-03T07:26:02.200Z</time>
      </trkpt>
      <trkpt lat="47.28272" lon="-0.13004">
        <ele>50.4</ele>
        <time>2011-04-03T07:26:03.510Z</time>
      </trkpt>
      <trkpt lat="47.28268" lon="-0.13008">
        <ele>50.6</ele>
        <time>2011-04-03T07:26:04.820Z</time>
      </trkpt>
      <trkpt lat="47.28265" lon="-0.13012">
        <ele>50.7</ele>
        <time>2011-04-03T07:26:05.916Z</time>
      </trkpt>
      <trkpt lat="47.28261" lon="-0.13016">
        <ele>50.9</ele>
        <time>2011-04-03T07:26:07.226Z</time>
      </trkpt>
      <trkpt lat="47.28257" lon="-0.1302">
        <ele>50.9</ele>
        <time>2011-04-03T07:26:08.536Z</time>
      </trkpt>
      <trkpt lat="47.28254" lon="-0.13024">
        <ele>51</ele>
        <time>2011-04-03T07:26:09.632Z</time>
      </trkpt>
      <trkpt lat="47.2825" lon="-0.13028">
        <ele>51</ele>
        <time>2011-04-03T07:26:10.942Z</time>
      </trkpt>
      <trkpt lat="47.28246" lon="-0.13032">
        <ele>51.3</ele>
        <time>2011-04-03T07:26:12.252Z</time>
      </trkpt>
      <trkpt lat="47.28242" lon="-0.13036">
        <ele>51.6</ele>
        <time>2011-04-03T07:26:13.562Z</time>
      </trkpt>
      <trkpt lat="47.28239" lon="-0.1304">
        <ele>51.8</ele>
        <time>2011-04-03T07:26:14.659Z</time>
      </trkpt>
      <trkpt lat="47.28235" lon="-0.13044">
        <ele>52.1</ele>
        <time>2011-04-03T07:26:15.969Z</time>
      </trkpt>
      <trkpt lat="47.28231" lon="-0.13048">
        <ele>52.4</ele>
        <time>2011-04-03T07:26:17.280Z</time>
      </trkpt>
      <trkpt lat="47.28227" lon="-0.13052">
        <ele>52.6</ele>
        <time>2011-04-03T07:26:18.591Z</time>
      </trkpt>
      <trkpt lat="47.28224" lon="-0.13056">
        <ele>52.9</ele>
        <time>2011-04-03T07:26:19.688Z</time>
      </trkpt>
      <trkpt lat="47.2822" lon="-0.1306">
        <ele>53.2</ele>
        <time>2011-04-03T07:26:21Z</time>
        <extensions>
          <type>
            <highway>track</highway>
            <surface>gravel</surface>
            </type>
        </extensions>
      </trkpt>
      <trkpt lat="47.28214" lon="-0.13063">
        <ele>53.6</ele>
        <time>2011-04-03T07:26:23.076Z</time>
      </trkpt>
      <trkpt lat="47.28209" lon="-0.13066">
        <ele>54</ele>
        <time>2011-04-03T07:26:24.845Z</time>
      </trkpt>
      <trkpt lat="47.28203" lon="-0.13069">
        <ele>54.4</ele>
        <time>2011-04-03T07:26:26.922Z</time>
      </trkpt>
      <trkpt lat="47.28197" lon="-0.13072">
        <ele>54.8</ele>
        <time>2011-04-03T07:26:29Z</time>
        <extensions>
          <type>
            <highway>track</highway>
            <surface>gravel</surface>
            </type>
        </extensions>
      </trkpt>
      <trkpt lat="47.28189" lon="-0.13074">
        <ele>55.5</ele>
        <time>2011-04-03T07:26:32.414Z</time>
      </trkpt>
      <trkpt lat="47.28182" lon="-0.13076">
        <ele>56.2</ele>
        <time>2011-04-03T07:26:35.414Z</time>
      </trkpt>
      <trkpt lat="47.28174" lon="-0.13077">
        <ele>56.8</ele>
        <time>2011-04-03T07:26:38.793Z</time>
      </trkpt>
      <trkpt lat="47.28167" lon="-0.13079">
        <ele>57.3</ele>
        <time>2011-04-03T07:26:41.794Z</time>
      </trkpt>
      <trkpt lat="47.28159" lon="-0.13081">
        <ele>58.3</ele>
        <time>2011-04-03T07:26:45.209Z</time>
      </trkpt>
      <trkpt lat="47.28151" lon="-0.13083">
        <ele>59.3</ele>
        <time>2011-04-03T07:26:48.624Z</time>
      </trkpt>
      <trkpt lat="47.28144" lon="-0.13084">
        <ele>60.3</ele>
        <time>2011-04-03T07:26:51.584Z</time>
      </trkpt>
      <trkpt lat="47.28136" lon="-0.13086">
        <ele>60.9</ele>
        <time>2011-04-03T07:26:55Z</time>
        <extensions>
          <type>
            <highway>track</highway>
            <surface>gravel</surface>
            </type>
        </extensions>
      </trkpt>
      <trkpt lat="47.28128" lon="-0.13085">
        <ele>61.3</ele>
        <time>2011-04-03T07:26:58.874Z</time>
      </trkpt>
      <trkpt lat="47.28121" lon="-0.13085">
        <ele>61.7</ele>
        <time>2011-04-03T07:27:02.251Z</time>
      </trkpt>
      <trkpt lat="47.28113" lon="-0.13084">
        <ele>62</ele>
        <time>2011-04-03T07:27:06.125Z</time>
      </trkpt>
      <trkpt lat="47.28105" lon="-0.13083">
        <ele>62.9</ele>
        <time>2011-04-03T07:27:10Z</time>
        <extensions>
          <type>
            <highway>unclassified</highway>
            <surface>undefined</surface>
            </type>
        </extensions>
      </trkpt>
      <trkpt lat="47.28099" lon="-0.13087">
        <ele>63.7</ele>
        <time>2011-04-03T07:27:12.293Z</time>
      </trkpt>
      <trkpt lat="47.28094" lon="-0.13092">
        <ele>64.3</ele>
        <time>2011-04-03T07:27:14.397Z</time>
      </trkpt>
      <trkpt lat="47.28088" lon="-0.13096">
        <ele>64.7</ele>
        <time>2011-04-03T07:27:16.690Z</time>
      </trkpt>
      <trkpt lat="47.28082" lon="-0.131">
        <ele>64.9</ele>
        <time>2011-04-03T07:27:18.983Z</time>
      </trkpt>
      <trkpt lat="47.28076" lon="-0.13105">
        <ele>65.1</ele>
        <time>2011-04-03T07:27:21.383Z</time>
      </trkpt>
      <trkpt lat="47.28071" lon="-0.13109">
        <ele>65.5</ele>
        <time>2011-04-03T07:27:23.364Z</time>
      </trkpt>
      <trkpt lat="47.28065" lon="-0.13113">
        <ele>66</ele>
        <time>2011-04-03T07:27:25.657Z</time>
      </trkpt>
      <trkpt lat="47.28059" lon="-0.13118">
        <ele>66.4</ele>
        <time>2011-04-03T07:27:28.058Z</time>
      </trkpt>
      <trkpt lat="47.28053" lon="-0.13122">
        <ele>66.8</ele>
        <time>2011-04-03T07:27:30.352Z</time>
      </trkpt>
      <trkpt lat="47.28048" lon="-0.13126">
        <ele>67.2</ele>
        <time>2011-04-03T07:27:32.333Z</time>
      </trkpt>
      <trkpt lat="47.28042" lon="-0.1313">
        <ele>67.6</ele>
        <time>2011-04-03T07:27:34.627Z</time>
      </trkpt>
      <trkpt lat="47.28036" lon="-0.13135">
        <ele>68.2</ele>
        <time>2011-04-03T07:27:37.028Z</time>
      </trkpt>
      <trkpt lat="47.2803" lon="-0.13139">
        <ele>68.7</ele>
        <time>2011-04-03T07:27:39.322Z</time>
      </trkpt>
      <trkpt lat="47.28025" lon="-0.13143">
        <ele>68.8</ele>
        <time>2011-04-03T07:27:41.304Z</time>
      </trkpt>
      <trkpt lat="47.28019" lon="-0.13148">
        <ele>68.9</ele>
        <time>2011-04-03T07:27:43.705Z</time>
      </trkpt>
      <trkpt lat="47.28013" lon="-0.13152">
        <ele>69.1</ele>
        <time>2011-04-03T07:27:46Z</time>
        <extensions>
          <type>
            <highway>unclassified</highway>
            <surface>undefined</surface>
            </type>
        </extensions>
      </trkpt>
      <trkpt lat="47.28009" lon="-0.13154">
        <ele>69.3</ele>
        <time>2011-04-03T07:27:47.459Z</time>
      </trkpt>
      <trkpt lat="47.28004" lon="-0.13157">
        <ele>69.7</ele>
        <time>2011-04-03T07:27:49.324Z</time>
      </trkpt>
      <trkpt lat="47.28" lon="-0.13159">
        <ele>70</ele>
        <time>2011-04-03T07:27:50.783Z</time>
      </trkpt>
      <trkpt lat="47.27995" lon="-0.13161">
        <ele>70.4</ele>
        <time>2011-04-03T07:27:52.573Z</time>
      </trkpt>
      <trkpt lat="47.27991" lon="-0.13163">
        <ele>70.7</ele>
        <time>2011-04-03T07:27:54.032Z</time>
      </trkpt>
      <trkpt lat="47.27986" lon="-0.13166">
        <ele>71</ele>
        <time>2011-04-03T07:27:55.897Z</time>
      </trkpt>
      <trkpt lat="47.27982" lon="-0.13168">
        <ele>71.3</ele>
        <time>2011-04-03T07:27:57.356Z</time>
      </trkpt>
      <trkpt lat="47.27978" lon="-0.1317">
        <ele>71.8</ele>
        <time>2011-04-03T07:27:58.815Z</time>
      </trkpt>
      <trkpt lat="47.27973" lon="-0.13172">
        <ele>72.3</ele>
        <time>2011-04-03T07:28:00.605Z</time>
      </trkpt>
      <trkpt lat="47.27969" lon="-0.13175">
        <ele>72.8</ele>
        <time>2011-04-03T07:28:02.156Z</time>
      </trkpt>
      <trkpt lat="47.27964" lon="-0.13177">
        <ele>73.3</ele>
        <time>2011-04-03T07:28:03.946Z</time>
      </trkpt>
      <trkpt lat="47.2796" lon="-0.13179">
        <ele>73.6</ele>
        <time>2011-04-03T07:28:05.406Z</time>
      </trkpt>
      <trkpt lat="47.27955" lon="-0.13181">
        <ele>73.9</ele>
        <time>2011-04-03T07:28:07.197Z</time>
      </trkpt>
      <trkpt lat="47.27951" lon="-0.13184">
        <ele>74.1</ele>
        <time>2011-04-03T07:28:08.748Z</time>
      </trkpt>
      <trkpt lat="47.27946" lon="-0.13186">
        <ele>74.2</ele>
        <time>2011-04-03T07:28:10.539Z</time>
      </trkpt>
      <trkpt lat="47.27942" lon="-0.13188">
        <ele>74.3</ele>
        <time>2011-04-03T07:28:12Z</time>
        <extensions>
          <type>
            <highway>unclassified</highway>
            <surface>undefined</surface>
            </type>
        </extensions>
      </trkpt>
      <trkpt lat="47.27938" lon="-0.13194">
        <ele>74.3</ele>
        <time>2011-04-03T07:28:13.914Z</time>
      </trkpt>
      <trkpt lat="47.27933" lon="-0.132">
        <ele>74.6</ele>
        <time>2011-04-03T07:28:16.077Z</time>
      </trkpt>
      <trkpt lat="47.27929" lon="-0.13205">
        <ele>75</ele>
        <time>2011-04-03T07:28:17.836Z</time>
      </trkpt>
      <trkpt lat="47.27924" lon="-0.13211">
        <ele>75.3</ele>
        <time>2011-04-03T07:28:20Z</time>
        <extensions>
          <type>
            <highway>unclassified</highway>
            <surface>undefined</surface>
            </type>
        </extensions>
      </trkpt>
      <trkpt lat="47.27922" lon="-0.13219">
        <ele>75.7</ele>
        <time>2011-04-03T07:28:21.930Z</time>
      </trkpt>
      <trkpt lat="47.27919" lon="-0.13227">
        <ele>75.9</ele>
        <time>2011-04-03T07:28:23.999Z</time>
      </trkpt>
      <trkpt lat="47.27917" lon="-0.13235">
        <ele>76</ele>
        <time>2011-04-03T07:28:25.929Z</time>
      </trkpt>
      <trkpt lat="47.27914" lon="-0.13243">
        <ele>76.2</ele>
        <time>2011-04-03T07:28:28Z</time>
        <extensions>
          <type>
            <highway>unclassified</highway>
            <surface>undefined</surface>
            </type>
        </extensions>
      </trkpt>
      <trkpt lat="47.27912" lon="-0.13251">
        <ele>76.3</ele>
        <time>2011-04-03T07:28:29.795Z</time>
      </trkpt>
      <trkpt lat="47.27911" lon="-0.13259">
        <ele>76.5</ele>
        <time>2011-04-03T07:28:31.507Z</time>
      </trkpt>
      <trkpt lat="47.27909" lon="-0.13268">
        <ele>76.7</ele>
        <time>2011-04-03T07:28:33.501Z</time>
      </trkpt>
      <trkpt lat="47.27907" lon="-0.13276">
        <ele>77</ele>
        <time>2011-04-03T07:28:35.296Z</time>
      </trkpt>
      <trkpt lat="47.27905" lon="-0.13284">
        <ele>77.4</ele>
        <time>2011-04-03T07:28:37.091Z</time>
      </trkpt>
      <trkpt lat="47.27904" lon="-0.13292">
        <ele>77.7</ele>
        <time>2011-04-03T07:28:38.804Z</time>
      </trkpt>
      <trkpt lat="47.27902" lon="-0.133">
        <ele>78</ele>
        <time>2011-04-03T07:28:40.599Z</time>
      </trkpt>
      <trkpt lat="47.279" lon="-0.13309">
        <ele>78.2</ele>
        <time>2011-04-03T07:28:42.593Z</time>
      </trkpt>
      <trkpt lat="47.27898" lon="-0.13317">
        <ele>78.3</ele>
        <time>2011-04-03T07:28:44.388Z</time>
      </trkpt>
      <trkpt lat="47.27897" lon="-0.13325">
        <ele>78.5</ele>
        <time>2011-04-03T07:28:46.101Z</time>
      </trkpt>
      <trkpt lat="47.27895" lon="-0.13333">
        <ele>78.6</ele>
        <time>2011-04-03T07:28:47.896Z</time>
      </trkpt>
      <trkpt lat="47.27893" lon="-0.13341">
        <ele>78.7</ele>
        <time>2011-04-03T07:28:49.691Z</time>
      </trkpt>
      <trkpt lat="47.27891" lon="-0.13349">
        <ele>78.9</ele>
        <time>2011-04-03T07:28:51.486Z</time>
      </trkpt>
      <trkpt lat="47.2789" lon="-0.13358">
        <ele>79</ele>
        <time>2011-04-03T07:28:53.407Z</time>
      </trkpt>
      <trkpt lat="47.27888" lon="-0.13366">
        <ele>79.2</ele>
        <time>2011-04-03T07:28:55.203Z</time>
      </trkpt>
      <trkpt lat="47.27886" lon="-0.13374">
        <ele>79.6</ele>
        <time>2011-04-03T07:28:57Z</time>
        <extensions>
          <type>
            <highway>unclassified</highway>
            <surface>undefined</surface>
            </type>
        </extensions>
      </trkpt>
      <trkpt lat="47.27883" lon="-0.13381">
        <ele>79.9</ele>
        <time>2011-04-03T07:28:58.737Z</time>
      </trkpt>
      <trkpt lat="47.27881" lon="-0.13389">
        <ele>80.3</ele>
        <time>2011-04-03T07:29:00.525Z</time>
      </trkpt>
      <trkpt lat="47.27878" lon="-0.13396">
        <ele>80.4</ele>
        <time>2011-04-03T07:29:02.262Z</time>
      </trkpt>
      <trkpt lat="47.27875" lon="-0.13403">
        <ele>80.5</ele>
        <time>2011-04-03T07:29:04Z</time>
        <extensions>
          <type>
            <highway>unclassified</highway>
            <surface>undefined</surface>
            </type>
        </extensions>
      </trkpt>
      <trkpt lat="47.27872" lon="-0.1341">
        <ele>80.6</ele>
        <time>2011-04-03T07:29:05.517Z</time>
      </trkpt>
      <trkpt lat="47.27869" lon="-0.13418">
        <ele>80.7</ele>
        <time>2011-04-03T07:29:07.192Z</time>
      </trkpt>
      <trkpt lat="47.27865" lon="-0.13425">
        <ele>80.9</ele>
        <time>2011-04-03T07:29:08.869Z</time>
      </trkpt>
      <trkpt lat="47.27862" lon="-0.13433">
        <ele>81</ele>
        <time>2011-04-03T07:29:10.544Z</time>
      </trkpt>
      <trkpt lat="47.27859" lon="-0.1344">
        <ele>81.1</ele>
        <time>2011-04-03T07:29:12.061Z</time>
      </trkpt>
      <trkpt lat="47.27856" lon="-0.13448">
        <ele>81.3</ele>
        <time>2011-04-03T07:29:13.736Z</time>
      </trkpt>
      <trkpt lat="47.27852" lon="-0.13455">
        <ele>81.6</ele>
        <time>2011-04-03T07:29:15.413Z</time>
      </trkpt>
      <trkpt lat="47.27849" lon="-0.13463">
        <ele>81.8</ele>
        <time>2011-04-03T07:29:17.089Z</time>
      </trkpt>
      <trkpt lat="47.27846" lon="-0.1347">
        <ele>82</ele>
        <time>2011-04-03T07:29:18.607Z</time>
      </trkpt>
      <trkpt lat="47.27843" lon="-0.13477">
        <ele>82</ele>
        <time>2011-04-03T07:29:20.125Z</time>
      </trkpt>
      <trkpt lat="47.27839" lon="-0.13485">
        <ele>82</ele>
        <time>2011-04-03T07:29:21.947Z</time>
      </trkpt>
      <trkpt lat="47.27836" lon="-0.13492">
        <ele>82</ele>
        <time>2011-04-03T07:29:23.465Z</time>
      </trkpt>
      <trkpt lat="47.27833" lon="-0.135">
        <ele>82</ele>
        <time>2011-04-03T07:29:25.141Z</time>
      </trkpt>
      <trkpt lat="47.2783" lon="-0.13507">
        <ele>82</ele>
        <time>2011-04-03T07:29:26.659Z</time>
      </trkpt>
      <trkpt lat="47.27826" lon="-0.13515">
        <ele>82</ele>
        <time>2011-04-03T07:29:28.481Z</time>
      </trkpt>
      <trkpt lat="47.27823" lon="-0.13522">
        <ele>82</ele>
        <time>2011-04-03T07:29:30Z</time>
        <extensions>
          <type>
            <highway>unclassified</highway>
            <surface>undefined</surface>
            </type>
        </extensions>
      </trkpt>
      <trkpt lat="47.27817" lon="-0.13531">
        <ele>82</ele>
        <time>2011-04-03T07:29:32.504Z</time>
      </trkpt>
      <trkpt lat="47.27811" lon="-0.1354">
        <ele>82</ele>
        <time>2011-04-03T07:29:35.008Z</time>
      </trkpt>
      <trkpt lat="47.27805" lon="-0.13549">
        <ele>82</ele>
        <time>2011-04-03T07:29:37.513Z</time>
      </trkpt>
      <trkpt lat="47.278" lon="-0.13559">
        <ele>81.8</ele>
        <time>2011-04-03T07:29:39.979Z</time>
      </trkpt>
      <trkpt lat="47.27794" lon="-0.13568">
        <ele>81.4</ele>
        <time>2011-04-03T07:29:42.484Z</time>
      </trkpt>
      <trkpt lat="47.27788" lon="-0.13577">
        <ele>80.9</ele>
        <time>2011-04-03T07:29:44.989Z</time>
      </trkpt>
      <trkpt lat="47.27782" lon="-0.13586">
        <ele>80.3</ele>
        <time>2011-04-03T07:29:47.494Z</time>
      </trkpt>
      <trkpt lat="47.27776" lon="-0.13595">
        <ele>79.9</ele>
        <time>2011-04-03T07:29:50Z</time>
        <extensions>
          <type>
            <highway>unclassified</highway>
            <surface>undefined</surface>
            </type>
        </extensions>
      </trkpt>
      <trkpt lat="47.27774" lon="-0.13603">
        <ele>79.6</ele>
        <time>2011-04-03T07:29:52.029Z</time>
      </trkpt>
      <trkpt lat="47.27771" lon="-0.1361">
        <ele>79.3</ele>
        <time>2011-04-03T07:29:54Z</time>
        <extensions>
          <type>
            <highway>residential</highway>
            <surface>undefined</surface>
            </type>
        </extensions>
      </trkpt>
      <trkpt lat="47.27774" lon="-0.13618">
        <ele>79.6</ele>
        <time>2011-04-03T07:29:55.845Z</time>
      </trkpt>
      <trkpt lat="47.27777" lon="-0.13627">
        <ele>79.9</ele>
        <time>2011-04-03T07:29:57.869Z</time>
      </trkpt>
      <trkpt lat="47.2778" lon="-0.13635">
        <ele>80.1</ele>
        <time>2011-04-03T07:29:59.715Z</time>
      </trkpt>
      <trkpt lat="47.27783" lon="-0.13643">
        <ele>80.3</ele>
        <time>2011-04-03T07:30:01.561Z</time>
      </trkpt>
      <trkpt lat="47.27785" lon="-0.13651">
        <ele>80.5</ele>
        <time>2011-04-03T07:30:03.282Z</time>
      </trkpt>
      <trkpt lat="47.27788" lon="-0.1366">
        <ele>80.8</ele>
        <time>2011-04-03T07:30:05.307Z</time>
      </trkpt>
      <trkpt lat="47.27791" lon="-0.13668">
        <ele>81</ele>
        <time>2011-04-03T07:30:07.153Z</time>
      </trkpt>
      <trkpt lat="47.27794" lon="-0.13676">
        <ele>81.2</ele>
        <time>2011-04-03T07:30:09Z</time>
        <extensions>
          <type>
            <highway>residential</highway>
            <surface>undefined</surface>
            </type>
        </extensions>
      </trkpt>
      <trkpt lat="47.27794" lon="-0.13686">
        <ele>81.2</ele>
        <time>2011-04-03T07:30:10.703Z</time>
      </trkpt>
      <trkpt lat="47.27795" lon="-0.13697">
        <ele>81.2</ele>
        <time>2011-04-03T07:30:12.593Z</time>
      </trkpt>
      <trkpt lat="47.27795" lon="-0.13707">
        <ele>81</ele>
        <time>2011-04-03T07:30:14.296Z</time>
      </trkpt>
      <trkpt lat="47.27795" lon="-0.13717">
        <ele>80.9</ele>
        <time>2011-04-03T07:30:16Z</time>
        <extensions>
          <type>
            <highway>residential</highway>
            <surface>undefined</surface>
            </type>
        </extensions>
      </trkpt>
      <trkpt lat="47.27795" lon="-0.13726">
        <ele>80.8</ele>
        <time>2011-04-03T07:30:17.424Z</time>
      </trkpt>
      <trkpt lat="47.27795" lon="-0.13735">
        <ele>80.8</ele>
        <time>2011-04-03T07:30:18.848Z</time>
      </trkpt>
      <trkpt lat="47.27794" lon="-0.13744">
        <ele>80.8</ele>
        <time>2011-04-03T07:30:20.291Z</time>
      </trkpt>
      <trkpt lat="47.27794" lon="-0.13753">
        <ele>80.7</ele>
        <time>2011-04-03T07:30:21.715Z</time>
      </trkpt>
      <trkpt lat="47.27794" lon="-0.13762">
        <ele>80.3</ele>
        <time>2011-04-03T07:30:23.139Z</time>
      </trkpt>
      <trkpt lat="47.27794" lon="-0.13771">
        <ele>80</ele>
        <time>2011-04-03T07:30:24.563Z</time>
      </trkpt>
      <trkpt lat="47.27794" lon="-0.1378">
        <ele>79.7</ele>
        <time>2011-04-03T07:30:25.987Z</time>
      </trkpt>
      <trkpt lat="47.27794" lon="-0.1379">
        <ele>79.8</ele>
        <time>2011-04-03T07:30:27.569Z</time>
      </trkpt>
      <trkpt lat="47.27793" lon="-0.13799">
        <ele>79.8</ele>
        <time>2011-04-03T07:30:29.012Z</time>
      </trkpt>
      <trkpt lat="47.27793" lon="-0.13808">
        <ele>79.7</ele>
        <time>2011-04-03T07:30:30.436Z</time>
      </trkpt>
      <trkpt lat="47.27793" lon="-0.13817">
        <ele>79.3</ele>
        <time>2011-04-03T07:30:31.860Z</time>
      </trkpt>
      <trkpt lat="47.27793" lon="-0.13826">
        <ele>78.9</ele>
        <time>2011-04-03T07:30:33.284Z</time>
      </trkpt>
      <trkpt lat="47.27793" lon="-0.13835">
        <ele>78.6</ele>
        <time>2011-04-03T07:30:34.708Z</time>
      </trkpt>
      <trkpt lat="47.27792" lon="-0.13844">
        <ele>78.6</ele>
        <time>2011-04-03T07:30:36.151Z</time>
      </trkpt>
      <trkpt lat="47.27792" lon="-0.13853">
        <ele>78.6</ele>
        <time>2011-04-03T07:30:37.575Z</time>
      </trkpt>
      <trkpt lat="47.27792" lon="-0.13862">
        <ele>78.5</ele>
        <time>2011-04-03T07:30:39Z</time>
        <extensions>
          <type>
            <highway>residential</highway>
            <surface>undefined</surface>
            </type>
        </extensions>
      </trkpt>
      <trkpt lat="47.2779" lon="-0.13868">
        <ele>78.3</ele>
        <time>2011-04-03T07:30:40.043Z</time>
      </trkpt>
      <trkpt lat="47.27788" lon="-0.13875">
        <ele>78.1</ele>
        <time>2011-04-03T07:30:41.228Z</time>
      </trkpt>
      <trkpt lat="47.27785" lon="-0.13881">
        <ele>77.8</ele>
        <time>2011-04-03T07:30:42.391Z</time>
      </trkpt>
      <trkpt lat="47.27783" lon="-0.13888">
        <ele>77.6</ele>
        <time>2011-04-03T07:30:43.576Z</time>
      </trkpt>
      <trkpt lat="47.27781" lon="-0.13894">
        <ele>77.8</ele>
        <time>2011-04-03T07:30:44.619Z</time>
      </trkpt>
      <trkpt lat="47.27779" lon="-0.139">
        <ele>78.3</ele>
        <time>2011-04-03T07:30:45.662Z</time>
      </trkpt>
      <trkpt lat="47.27776" lon="-0.13907">
        <ele>78.7</ele>
        <time>2011-04-03T07:30:46.955Z</time>
      </trkpt>
      <trkpt lat="47.27774" lon="-0.13913">
        <ele>79.1</ele>
        <time>2011-04-03T07:30:48Z</time>
        <extensions>
          <type>
            <highway>residential</highway>
            <surface>undefined</surface>
            </type>
        </extensions>
      </trkpt>
      <trkpt lat="47.27773" lon="-0.13921">
        <ele>79.3</ele>
        <time>2011-04-03T07:30:49.255Z</time>
      </trkpt>
      <trkpt lat="47.27773" lon="-0.13929">
        <ele>79.2</ele>
        <time>2011-04-03T07:30:50.489Z</time>
      </trkpt>
      <trkpt lat="47.27772" lon="-0.13937">
        <ele>79.1</ele>
        <time>2011-04-03T07:30:51.744Z</time>
      </trkpt>
      <trkpt lat="47.27771" lon="-0.13945">
        <ele>79</ele>
        <time>2011-04-03T07:30:53Z</time>
        <extensions>
          <type>
            <highway>residential</highway>
            <surface>undefined</surface>
            </type>
        </extensions>
      </trkpt>
      <trkpt lat="47.27771" lon="-0.13955">
        <ele>79.2</ele>
        <time>2011-04-03T07:30:54.574Z</time>
      </trkpt>
      <trkpt lat="47.27772" lon="-0.13965">
        <ele>79.3</ele>
        <time>2011-04-03T07:30:56.165Z</time>
      </trkpt>
      <trkpt lat="47.27772" lon="-0.13975">
        <ele>79.4</ele>
        <time>2011-04-03T07:30:57.739Z</time>
      </trkpt>
      <trkpt lat="47.27773" lon="-0.13985">
        <ele>79.5</ele>
        <time>2011-04-03T07:30:59.330Z</time>
      </trkpt>
      <trkpt lat="47.27773" lon="-0.13994">
        <ele>79.5</ele>
        <time>2011-04-03T07:31:00.747Z</time>
      </trkpt>
      <trkpt lat="47.27774" lon="-0.14004">
        <ele>79.6</ele>
        <time>2011-04-03T07:31:02.338Z</time>
      </trkpt>
      <trkpt lat="47.27774" lon="-0.14014">
        <ele>79.7</ele>
        <time>2011-04-03T07:31:03.912Z</time>
      </trkpt>
      <trkpt lat="47.27775" lon="-0.14024">
        <ele>79.7</ele>
        <time>2011-04-03T07:31:05.504Z</time>
      </trkpt>
      <trkpt lat="47.27775" lon="-0.14034">
        <ele>80</ele>
        <time>2011-04-03T07:31:07.079Z</time>
      </trkpt>
      <trkpt lat="47.27775" lon="-0.14044">
        <ele>80.4</ele>
        <time>2011-04-03T07:31:08.654Z</time>
      </trkpt>
      <trkpt lat="47.27776" lon="-0.14054">
        <ele>80.8</ele>
        <time>2011-04-03T07:31:10.246Z</time>
      </trkpt>
      <trkpt lat="47.27776" lon="-0.14064">
        <ele>80.9</ele>
        <time>2011-04-03T07:31:11.821Z</time>
      </trkpt>
      <trkpt lat="47.27777" lon="-0.14073">
        <ele>81</ele>
        <time>2011-04-03T07:31:13.257Z</time>
      </trkpt>
      <trkpt lat="47.27777" lon="-0.14083">
        <ele>81</ele>
        <time>2011-04-03T07:31:14.832Z</time>
      </trkpt>
      <trkpt lat="47.27778" lon="-0.14093">
        <ele>81.7</ele>
        <time>2011-04-03T07:31:16.424Z</time>
      </trkpt>
      <trkpt lat="47.27778" lon="-0.14103">
        <ele>82.4</ele>
        <time>2011-04-03T07:31:18Z</time>
        <extensions>
          <type>
            <highway>residential</highway>
            <surface>undefined</surface>
            </type>
        </extensions>
      </trkpt>
      <trkpt lat="47.2778" lon="-0.14115">
        <ele>83.2</ele>
        <time>2011-04-03T07:31:20.263Z</time>
      </trkpt>
      <trkpt lat="47.27783" lon="-0.14127">
        <ele>83.7</ele>
        <time>2011-04-03T07:31:22.606Z</time>
      </trkpt>
      <trkpt lat="47.27785" lon="-0.14138">
        <ele>84.2</ele>
        <time>2011-04-03T07:31:24.692Z</time>
      </trkpt>
      <trkpt lat="47.27788" lon="-0.1415">
        <ele>84.6</ele>
        <time>2011-04-03T07:31:27.035Z</time>
      </trkpt>
      <trkpt lat="47.2779" lon="-0.14162">
        <ele>84.9</ele>
        <time>2011-04-03T07:31:29.299Z</time>
      </trkpt>
      <trkpt lat="47.27792" lon="-0.14174">
        <ele>85.1</ele>
        <time>2011-04-03T07:31:31.563Z</time>
      </trkpt>
      <trkpt lat="47.27795" lon="-0.14185">
        <ele>85.4</ele>
        <time>2011-04-03T07:31:33.735Z</time>
      </trkpt>
      <trkpt lat="47.27797" lon="-0.14197">
        <ele>85.7</ele>
        <time>2011-04-03T07:31:36Z</time>
        <extensions>
          <type>
            <highway>residential</highway>
            <surface>undefined</surface>
            </type>
        </extensions>
      </trkpt>
      <trkpt lat="47.27801" lon="-0.14207">
        <ele>85.9</ele>
        <time>2011-04-03T07:31:37.959Z</time>
      </trkpt>
      <trkpt lat="47.27806" lon="-0.14218">
        <ele>86</ele>
        <time>2011-04-03T07:31:40.193Z</time>
      </trkpt>
      <trkpt lat="47.2781" lon="-0.14228">
        <ele>86.4</ele>
        <time>2011-04-03T07:31:42.152Z</time>
      </trkpt>
      <trkpt lat="47.27815" lon="-0.14239">
        <ele>86.9</ele>
        <time>2011-04-03T07:31:44.386Z</time>
      </trkpt>
      <trkpt lat="47.27819" lon="-0.14249">
        <ele>87.4</ele>
        <time>2011-04-03T07:31:46.345Z</time>
      </trkpt>
      <trkpt lat="47.27823" lon="-0.14259">
        <ele>87.6</ele>
        <time>2011-04-03T07:31:48.304Z</time>
      </trkpt>
      <trkpt lat="47.27828" lon="-0.1427">
        <ele>87.8</ele>
        <time>2011-04-03T07:31:50.538Z</time>
      </trkpt>
      <trkpt lat="47.27832" lon="-0.1428">
        <ele>88</ele>
        <time>2011-04-03T07:31:52.497Z</time>
      </trkpt>
      <trkpt lat="47.27836" lon="-0.1429">
        <ele>88</ele>
        <time>2011-04-03T07:31:54.456Z</time>
      </trkpt>
      <trkpt lat="47.27841" lon="-0.14301">
        <ele>88</ele>
        <time>2011-04-03T07:31:56.691Z</time>
      </trkpt>
      <trkpt lat="47.27845" lon="-0.14311">
        <ele>88</ele>
        <time>2011-04-03T07:31:58.650Z</time>
      </trkpt>
      <trkpt lat="47.2785" lon="-0.14322">
        <ele>88</ele>
        <time>2011-04-03T07:32:00.885Z</time>
      </trkpt>
      <trkpt lat="47.27854" lon="-0.14332">
        <ele>88</ele>
        <time>2011-04-03T07:32:02.844Z</time>
      </trkpt>
      <trkpt lat="47.27858" lon="-0.14342">
        <ele>88</ele>
        <time>2011-04-03T07:32:04.804Z</time>
      </trkpt>
      <trkpt lat="47.27863" lon="-0.14353">
        <ele>88</ele>
        <time>2011-04-03T07:32:07.039Z</time>
      </trkpt>
      <trkpt lat="47.27867" lon="-0.14363">
        <ele>88</ele>
        <time>2011-04-03T07:32:09Z</time>
        <extensions>
          <type>
            <highway>residential</highway>
            <surface>undefined</surface>
            </type>
        </extensions>
      </trkpt>
      <trkpt lat="47.27869" lon="-0.14371">
        <ele>88</ele>
        <time>2011-04-03T07:32:10.100Z</time>
      </trkpt>
      <trkpt lat="47.2787" lon="-0.1438">
        <ele>88</ele>
        <time>2011-04-03T07:32:11.277Z</time>
      </trkpt>
      <trkpt lat="47.27872" lon="-0.14388">
        <ele>88</ele>
        <time>2011-04-03T07:32:12.377Z</time>
      </trkpt>
      <trkpt lat="47.27873" lon="-0.14397">
        <ele>88</ele>
        <time>2011-04-03T07:32:13.554Z</time>
      </trkpt>
      <trkpt lat="47.27875" lon="-0.14405">
        <ele>88</ele>
        <time>2011-04-03T07:32:14.654Z</time>
      </trkpt>
      <trkpt lat="47.27876" lon="-0.14413">
        <ele>88</ele>
        <time>2011-04-03T07:32:15.704Z</time>
      </trkpt>
      <trkpt lat="47.27878" lon="-0.14422">
        <ele>88</ele>
        <time>2011-04-03T07:32:16.926Z</time>
      </trkpt>
      <trkpt lat="47.2788" lon="-0.1443">
        <ele>88</ele>
        <time>2011-04-03T07:32:18.026Z</time>
      </trkpt>
      <trkpt lat="47.27881" lon="-0.14438">
        <ele>88</ele>
        <time>2011-04-03T07:32:19.076Z</time>
      </trkpt>
      <trkpt lat="47.27883" lon="-0.14447">
        <ele>88</ele>
        <time>2011-04-03T07:32:20.298Z</time>
      </trkpt>
      <trkpt lat="47.27884" lon="-0.14455">
        <ele>88</ele>
        <time>2011-04-03T07:32:21.348Z</time>
      </trkpt>
      <trkpt lat="47.27886" lon="-0.14464">
        <ele>88</ele>
        <time>2011-04-03T07:32:22.570Z</time>
      </trkpt>
      <trkpt lat="47.27887" lon="-0.14472">
        <ele>88</ele>
        <time>2011-04-03T07:32:23.620Z</time>
      </trkpt>
      <trkpt lat="47.27889" lon="-0.1448">
        <ele>88</ele>
        <time>2011-04-03T07:32:24.721Z</time>
      </trkpt>
      <trkpt lat="47.2789" lon="-0.14489">
        <ele>88</ele>
        <time>2011-04-03T07:32:25.898Z</time>
      </trkpt>
      <trkpt lat="47.27892" lon="-0.14497">
        <ele>88</ele>
        <time>2011-04-03T07:32:27Z</time>
        <extensions>
          <type>
            <highway>residential</highway>
            <surface>undefined</surface>
            </type>
        </extensions>
      </trkpt>
      <trkpt lat="47.27893" lon="-0.14507">
        <ele>88</ele>
        <time>2011-04-03T07:32:28.301Z</time>
      </trkpt>
      <trkpt lat="47.27894" lon="-0.14516">
        <ele>88</ele>
        <time>2011-04-03T07:32:29.475Z</time>
      </trkpt>
      <trkpt lat="47.27894" lon="-0.14526">
        <ele>88</ele>
        <time>2011-04-03T07:32:30.762Z</time>
      </trkpt>
      <trkpt lat="47.27895" lon="-0.14536">
        <ele>88.3</ele>
        <time>2011-04-03T07:32:32.063Z</time>
      </trkpt>
      <trkpt lat="47.27896" lon="-0.14545">
        <ele>88.6</ele>
        <time>2011-04-03T07:32:33.237Z</time>
      </trkpt>
      <trkpt lat="47.27897" lon="-0.14555">
        <ele>89</ele>
        <time>2011-04-03T07:32:34.538Z</time>
      </trkpt>
      <trkpt lat="47.27897" lon="-0.14564">
        <ele>89</ele>
        <time>2011-04-03T07:32:35.697Z</time>
      </trkpt>
      <trkpt lat="47.27898" lon="-0.14574">
        <ele>89</ele>
        <time>2011-04-03T07:32:37Z</time>
        <extensions>
          <type>
            <highway>residential</highway>
            <surface>undefined</surface>
            </type>
        </extensions>
      </trkpt>
      <trkpt lat="47.27898" lon="-0.14584">
        <ele>89</ele>
        <time>2011-04-03T07:32:38.282Z</time>
      </trkpt>
      <trkpt lat="47.27898" lon="-0.14594">
        <ele>89</ele>
        <time>2011-04-03T07:32:39.564Z</time>
      </trkpt>
      <trkpt lat="47.27898" lon="-0.14603">
        <ele>89</ele>
        <time>2011-04-03T07:32:40.717Z</time>
      </trkpt>
      <trkpt lat="47.27898" lon="-0.14613">
        <ele>89</ele>
        <time>2011-04-03T07:32:41.999Z</time>
      </trkpt>
      <trkpt lat="47.27898" lon="-0.14623">
        <ele>89</ele>
        <time>2011-04-03T07:32:43.281Z</time>
      </trkpt>
      <trkpt lat="47.27898" lon="-0.14633">
        <ele>89</ele>
        <time>2011-04-03T07:32:44.563Z</time>
      </trkpt>
      <trkpt lat="47.27898" lon="-0.14642">
        <ele>88.9</ele>
        <time>2011-04-03T07:32:45.717Z</time>
      </trkpt>
      <trkpt lat="47.27898" lon="-0.14652">
        <ele>88.7</ele>
        <time>2011-04-03T07:32:47Z</time>
        <extensions>
          <type>
            <highway>residential</highway>
            <surface>undefined</surface>
            </type>
        </extensions>
      </trkpt>
      <trkpt lat="47.27898" lon="-0.1466">
        <ele>88.5</ele>
        <time>2011-04-03T07:32:48.002Z</time>
      </trkpt>
      <trkpt lat="47.27897" lon="-0.14668">
        <ele>88.3</ele>
        <time>2011-04-03T07:32:49.021Z</time>
      </trkpt>
      <trkpt lat="47.27897" lon="-0.14677">
        <ele>88.5</ele>
        <time>2011-04-03T07:32:50.148Z</time>
      </trkpt>
      <trkpt lat="47.27897" lon="-0.14685">
        <ele>88.8</ele>
        <time>2011-04-03T07:32:51.150Z</time>
      </trkpt>
      <trkpt lat="47.27896" lon="-0.14693">
        <ele>89</ele>
        <time>2011-04-03T07:32:52.169Z</time>
      </trkpt>
      <trkpt lat="47.27896" lon="-0.14701">
        <ele>89</ele>
        <time>2011-04-03T07:32:53.171Z</time>
      </trkpt>
      <trkpt lat="47.27896" lon="-0.14709">
        <ele>89</ele>
        <time>2011-04-03T07:32:54.173Z</time>
      </trkpt>
      <trkpt lat="47.27896" lon="-0.14718">
        <ele>89</ele>
        <time>2011-04-03T07:32:55.300Z</time>
      </trkpt>
      <trkpt lat="47.27895" lon="-0.14726">
        <ele>88.9</ele>
        <time>2011-04-03T07:32:56.319Z</time>
      </trkpt>
      <trkpt lat="47.27895" lon="-0.14734">
        <ele>88.7</ele>
        <time>2011-04-03T07:32:57.321Z</time>
      </trkpt>
      <trkpt lat="47.27895" lon="-0.14742">
        <ele>88.4</ele>
        <time>2011-04-03T07:32:58.323Z</time>
      </trkpt>
      <trkpt lat="47.27894" lon="-0.1475">
        <ele>88.2</ele>
        <time>2011-04-03T07:32:59.342Z</time>
      </trkpt>
      <trkpt lat="47.27894" lon="-0.14758">
        <ele>88.2</ele>
        <time>2011-04-03T07:33:00.344Z</time>
      </trkpt>
      <trkpt lat="47.27894" lon="-0.14767">
        <ele>88.2</ele>
        <time>2011-04-03T07:33:01.472Z</time>
      </trkpt>
      <trkpt lat="47.27893" lon="-0.14775">
        <ele>88.2</ele>
        <time>2011-04-03T07:33:02.491Z</time>
      </trkpt>
      <trkpt lat="47.27893" lon="-0.14783">
        <ele>88.3</ele>
        <time>2011-04-03T07:33:03.493Z</time>
      </trkpt>
      <trkpt lat="47.27893" lon="-0.14791">
        <ele>88.6</ele>
        <time>2011-04-03T07:33:04.495Z</time>
      </trkpt>
      <trkpt lat="47.27892" lon="-0.14799">
        <ele>88.8</ele>
        <time>2011-04-03T07:33:05.514Z</time>
      </trkpt>
      <trkpt lat="47.27892" lon="-0.14808">
        <ele>89</ele>
        <time>2011-04-03T07:33:06.642Z</time>
      </trkpt>
      <trkpt lat="47.27892" lon="-0.14816">
        <ele>89</ele>
        <time>2011-04-03T07:33:07.645Z</time>
      </trkpt>
      <trkpt lat="47.27891" lon="-0.14824">
        <ele>89</ele>
        <time>2011-04-03T07:33:08.664Z</time>
      </trkpt>
      <trkpt lat="47.27891" lon="-0.14832">
        <ele>89</ele>
        <time>2011-04-03T07:33:09.667Z</time>
      </trkpt>
      <trkpt lat="47.27891" lon="-0.1484">
        <ele>89</ele>
        <time>2011-04-03T07:33:10.670Z</time>
      </trkpt>
      <trkpt lat="47.27891" lon="-0.14849">
        <ele>89</ele>
        <time>2011-04-03T07:33:11.798Z</time>
      </trkpt>
      <trkpt lat="47.2789" lon="-0.14857">
        <ele>89</ele>
        <time>2011-04-03T07:33:12.818Z</time>
      </trkpt>
      <trkpt lat="47.2789" lon="-0.14865">
        <ele>89</ele>
        <time>2011-04-03T07:33:13.821Z</time>
      </trkpt>
      <trkpt lat="47.2789" lon="-0.14873">
        <ele>89</ele>
        <time>2011-04-03T07:33:14.824Z</time>
      </trkpt>
      <trkpt lat="47.27889" lon="-0.14881">
        <ele>89</ele>
        <time>2011-04-03T07:33:15.844Z</time>
      </trkpt>
      <trkpt lat="47.27889" lon="-0.14889">
        <ele>89</ele>
        <time>2011-04-03T07:33:16.847Z</time>
      </trkpt>
      <trkpt lat="47.27889" lon="-0.14898">
        <ele>89</ele>
        <time>2011-04-03T07:33:17.975Z</time>
      </trkpt>
      <trkpt lat="47.27888" lon="-0.14906">
        <ele>89</ele>
        <time>2011-04-03T07:33:18.995Z</time>
      </trkpt>
      <trkpt lat="47.27888" lon="-0.14914">
        <ele>89</ele>
        <time>2011-04-03T07:33:20Z</time>
        <extensions>
          <type>
            <highway>residential</highway>
            <surface>undefined</surface>
            </type>
        </extensions>
      </trkpt>
      <trkpt lat="47.27889" lon="-0.14921">
        <ele>89</ele>
        <time>2011-04-03T07:33:21.035Z</time>
      </trkpt>
      <trkpt lat="47.2789" lon="-0.14928">
        <ele>89</ele>
        <time>2011-04-03T07:33:22.070Z</time>
      </trkpt>
      <trkpt lat="47.27891" lon="-0.14934">
        <ele>89</ele>
        <time>2011-04-03T07:33:22.964Z</time>
      </trkpt>
      <trkpt lat="47.27892" lon="-0.14941">
        <ele>89</ele>
        <time>2011-04-03T07:33:23.999Z</time>
      </trkpt>
      <trkpt lat="47.27893" lon="-0.14948">
        <ele>89</ele>
        <time>2011-04-03T07:33:25.034Z</time>
      </trkpt>
      <trkpt lat="47.27894" lon="-0.14955">
        <ele>88.9</ele>
        <time>2011-04-03T07:33:26.069Z</time>
      </trkpt>
      <trkpt lat="47.27895" lon="-0.14961">
        <ele>88.9</ele>
        <time>2011-04-03T07:33:26.963Z</time>
      </trkpt>
      <trkpt lat="47.27896" lon="-0.14968">
        <ele>88.8</ele>
        <time>2011-04-03T07:33:28Z</time>
        <extensions>
          <type>
            <highway>track</highway>
            <surface>gravel</surface>
            </type>
        </extensions>
      </trkpt>
      <trkpt lat="47.27899" lon="-0.1498">
        <ele>88.5</ele>
        <time>2011-04-03T07:33:30.265Z</time>
      </trkpt>
      <trkpt lat="47.27903" lon="-0.14992">
        <ele>88.2</ele>
        <time>2011-04-03T07:33:32.633Z</time>
      </trkpt>
      <trkpt lat="47.27906" lon="-0.15003">
        <ele>88</ele>
        <time>2011-04-03T07:33:34.733Z</time>
      </trkpt>
      <trkpt lat="47.27909" lon="-0.15015">
        <ele>88.1</ele>
        <time>2011-04-03T07:33:37Z</time>
        <extensions>
          <type>
            <highway>track</highway>
            <surface>gravel</surface>
            </type>
        </extensions>
      </trkpt>
      <trkpt lat="47.27914" lon="-0.15021">
        <ele>88.1</ele>
        <time>2011-04-03T07:33:38.264Z</time>
      </trkpt>
      <trkpt lat="47.27919" lon="-0.15028">
        <ele>88</ele>
        <time>2011-04-03T07:33:39.616Z</time>
      </trkpt>
      <trkpt lat="47.27923" lon="-0.15034">
        <ele>88</ele>
        <time>2011-04-03T07:33:40.735Z</time>
      </trkpt>
      <trkpt lat="47.27928" lon="-0.1504">
        <ele>88</ele>
        <time>2011-04-03T07:33:42Z</time>
        <extensions>
          <type>
            <highway>track</highway>
            <surface>gravel</surface>
            </type>
        </extensions>
      </trkpt>
      <trkpt lat="47.27934" lon="-0.15045">
        <ele>88</ele>
        <time>2011-04-03T07:33:43.194Z</time>
      </trkpt>
      <trkpt lat="47.2794" lon="-0.1505">
        <ele>88</ele>
        <time>2011-04-03T07:33:44.388Z</time>
      </trkpt>
      <trkpt lat="47.27946" lon="-0.15055">
        <ele>88</ele>
        <time>2011-04-03T07:33:45.582Z</time>
      </trkpt>
      <trkpt lat="47.27952" lon="-0.1506">
        <ele>88</ele>
        <time>2011-04-03T07:33:46.776Z</time>
      </trkpt>
      <trkpt lat="47.27958" lon="-0.15064">
        <ele>88</ele>
        <time>2011-04-03T07:33:47.916Z</time>
      </trkpt>
      <trkpt lat="47.27964" lon="-0.15069">
        <ele>88</ele>
        <time>2011-04-03T07:33:49.110Z</time>
      </trkpt>
      <trkpt lat="47.2797" lon="-0.15074">
        <ele>88</ele>
        <time>2011-04-03T07:33:50.304Z</time>
      </trkpt>
      <trkpt lat="47.27976" lon="-0.15079">
        <ele>88</ele>
        <time>2011-04-03T07:33:51.498Z</time>
      </trkpt>
      <trkpt lat="47.27982" lon="-0.15084">
        <ele>88</ele>
        <time>2011-04-03T07:33:52.692Z</time>
      </trkpt>
      <trkpt lat="47.27988" lon="-0.15089">
        <ele>88</ele>
        <time>2011-04-03T07:33:53.886Z</time>
      </trkpt>
      <trkpt lat="47.27994" lon="-0.15094">
        <ele>88</ele>
        <time>2011-04-03T07:33:55.080Z</time>
      </trkpt>
      <trkpt lat="47.28" lon="-0.15099">
        <ele>88</ele>
        <time>2011-04-03T07:33:56.274Z</time>
      </trkpt>
      <trkpt lat="47.28006" lon="-0.15103">
        <ele>87.9</ele>
        <time>2011-04-03T07:33:57.415Z</time>
      </trkpt>
      <trkpt lat="47.28012" lon="-0.15108">
        <ele>88</ele>
        <time>2011-04-03T07:33:58.610Z</time>
      </trkpt>
      <trkpt lat="47.28018" lon="-0.15113">
        <ele>88</ele>
        <time>2011-04-03T07:33:59.805Z</time>
      </trkpt>
      <trkpt lat="47.28024" lon="-0.15118">
        <ele>88</ele>
        <time>2011-04-03T07:34:01Z</time>
        <extensions>
          <type>
            <highway>track</highway>
            <surface>gravel</surface>
            </type>
        </extensions>
      </trkpt>
      <trkpt lat="47.28032" lon="-0.15123">
        <ele>87.9</ele>
        <time>2011-04-03T07:34:02.540Z</time>
      </trkpt>
      <trkpt lat="47.28039" lon="-0.15129">
        <ele>87.6</ele>
        <time>2011-04-03T07:34:03.975Z</time>
      </trkpt>
      <trkpt lat="47.28047" lon="-0.15134">
        <ele>87.3</ele>
        <time>2011-04-03T07:34:05.515Z</time>
      </trkpt>
      <trkpt lat="47.28055" lon="-0.1514">
        <ele>87.1</ele>
        <time>2011-04-03T07:34:07.105Z</time>
      </trkpt>
      <trkpt lat="47.28062" lon="-0.15145">
        <ele>87.2</ele>
        <time>2011-04-03T07:34:08.483Z</time>
      </trkpt>
      <trkpt lat="47.2807" lon="-0.1515">
        <ele>87.4</ele>
        <time>2011-04-03T07:34:10.023Z</time>
      </trkpt>
      <trkpt lat="47.28077" lon="-0.15156">
        <ele>87.6</ele>
        <time>2011-04-03T07:34:11.459Z</time>
      </trkpt>
      <trkpt lat="47.28085" lon="-0.15161">
        <ele>87.8</ele>
        <time>2011-04-03T07:34:13Z</time>
        <extensions>
          <type>
            <highway>track</highway>
            <surface>gravel</surface>
            </type>
        </extensions>
      </trkpt>
      <trkpt lat="47.2809" lon="-0.15161">
        <ele>87.8</ele>
        <time>2011-04-03T07:34:13.861Z</time>
      </trkpt>
      <trkpt lat="47.28095" lon="-0.1516">
        <ele>87.8</ele>
        <time>2011-04-03T07:34:14.730Z</time>
      </trkpt>
      <trkpt lat="47.281" lon="-0.1516">
        <ele>87.8</ele>
        <time>2011-04-03T07:34:15.591Z</time>
      </trkpt>
      <trkpt lat="47.28105" lon="-0.1516">
        <ele>87.7</ele>
        <time>2011-04-03T07:34:16.452Z</time>
      </trkpt>
      <trkpt lat="47.2811" lon="-0.15159">
        <ele>87.7</ele>
        <time>2011-04-03T07:34:17.321Z</time>
      </trkpt>
      <trkpt lat="47.28115" lon="-0.15159">
        <ele>87.6</ele>
        <time>2011-04-03T07:34:18.182Z</time>
      </trkpt>
      <trkpt lat="47.2812" lon="-0.15158">
        <ele>87.5</ele>
        <time>2011-04-03T07:34:19.051Z</time>
      </trkpt>
      <trkpt lat="47.28126" lon="-0.15158">
        <ele>87.3</ele>
        <time>2011-04-03T07:34:20.084Z</time>
      </trkpt>
      <trkpt lat="47.28131" lon="-0.15158">
        <ele>87.2</ele>
        <time>2011-04-03T07:34:20.945Z</time>
      </trkpt>
      <trkpt lat="47.28136" lon="-0.15157">
        <ele>87.1</ele>
        <time>2011-04-03T07:34:21.814Z</time>
      </trkpt>
      <trkpt lat="47.28141" lon="-0.15157">
        <ele>87</ele>
        <time>2011-04-03T07:34:22.675Z</time>
      </trkpt>
      <trkpt lat="47.28146" lon="-0.15157">
        <ele>87</ele>
        <time>2011-04-03T07:34:23.536Z</time>
      </trkpt>
      <trkpt lat="47.28151" lon="-0.15156">
        <ele>87</ele>
        <time>2011-04-03T07:34:24.405Z</time>
      </trkpt>
      <trkpt lat="47.28156" lon="-0.15156">
        <ele>87</ele>
        <time>2011-04-03T07:34:25.267Z</time>
      </trkpt>
      <trkpt lat="47.28161" lon="-0.15155">
        <ele>87</ele>
        <time>2011-04-03T07:34:26.137Z</time>
      </trkpt>
      <trkpt lat="47.28166" lon="-0.15155">
        <ele>87</ele>
        <time>2011-04-03T07:34:27Z</time>
        <extensions>
          <type>
            <highway>track</highway>
            <surface>gravel</surface>
            </type>
        </extensions>
      </trkpt>
      <trkpt lat="47.28172" lon="-0.15154">
        <ele>87.1</ele>
        <time>2011-04-03T07:34:28.019Z</time>
      </trkpt>
      <trkpt lat="47.28179" lon="-0.15153">
        <ele>87.2</ele>
        <time>2011-04-03T07:34:29.206Z</time>
      </trkpt>
      <trkpt lat="47.28185" lon="-0.15152">
        <ele>87.3</ele>
        <time>2011-04-03T07:34:30.225Z</time>
      </trkpt>
      <trkpt lat="47.28191" lon="-0.15151">
        <ele>87.4</ele>
        <time>2011-04-03T07:34:31.244Z</time>
      </trkpt>
      <trkpt lat="47.28197" lon="-0.1515">
        <ele>87.5</ele>
        <time>2011-04-03T07:34:32.263Z</time>
      </trkpt>
      <trkpt lat="47.28204" lon="-0.15149">
        <ele>87.6</ele>
        <time>2011-04-03T07:34:33.450Z</time>
      </trkpt>
      <trkpt lat="47.2821" lon="-0.15148">
        <ele>87.7</ele>
        <time>2011-04-03T07:34:34.469Z</time>
      </trkpt>
      <trkpt lat="47.28216" lon="-0.15147">
        <ele>87.8</ele>
        <time>2011-04-03T07:34:35.488Z</time>
      </trkpt>
      <trkpt lat="47.28222" lon="-0.15145">
        <ele>88</ele>
        <time>2011-04-03T07:34:36.526Z</time>
      </trkpt>
      <trkpt lat="47.28229" lon="-0.15144">
        <ele>88</ele>
        <time>2011-04-03T07:34:37.713Z</time>
      </trkpt>
      <trkpt lat="47.28235" lon="-0.15143">
        <ele>88</ele>
        <time>2011-04-03T07:34:38.732Z</time>
      </trkpt>
      <trkpt lat="47.28241" lon="-0.15142">
        <ele>88</ele>
        <time>2011-04-03T07:34:39.751Z</time>
      </trkpt>
      <trkpt lat="47.28247" lon="-0.15141">
        <ele>88</ele>
        <time>2011-04-03T07:34:40.771Z</time>
      </trkpt>
      <trkpt lat="47.28254" lon="-0.1514">
        <ele>88</ele>
        <time>2011-04-03T07:34:41.959Z</time>
      </trkpt>
      <trkpt lat="47.2826" lon="-0.15139">
        <ele>88</ele>
        <time>2011-04-03T07:34:42.979Z</time>
      </trkpt>
      <trkpt lat="47.28266" lon="-0.15138">
        <ele>88</ele>
        <time>2011-04-03T07:34:44Z</time>
        <extensions>
          <type>
            <highway>track</highway>
            <surface>gravel</surface>
            </type>
        </extensions>
      </trkpt>
      <trkpt lat="47.28272" lon="-0.15138">
        <ele>88</ele>
        <time>2011-04-03T07:34:44.999Z</time>
      </trkpt>
      <trkpt lat="47.28278" lon="-0.15138">
        <ele>88</ele>
        <time>2011-04-03T07:34:45.998Z</time>
      </trkpt>
      <trkpt lat="47.28284" lon="-0.15138">
        <ele>88</ele>
        <time>2011-04-03T07:34:46.997Z</time>
      </trkpt>
      <trkpt lat="47.2829" lon="-0.15138">
        <ele>88</ele>
        <time>2011-04-03T07:34:47.996Z</time>
      </trkpt>
      <trkpt lat="47.28296" lon="-0.15137">
        <ele>88</ele>
        <time>2011-04-03T07:34:49.001Z</time>
      </trkpt>
      <trkpt lat="47.28302" lon="-0.15137">
        <ele>88</ele>
        <time>2011-04-03T07:34:50.000Z</time>
      </trkpt>
      <trkpt lat="47.28308" lon="-0.15137">
        <ele>88</ele>
        <time>2011-04-03T07:34:51.000Z</time>
      </trkpt>
      <trkpt lat="47.28314" lon="-0.15137">
        <ele>88</ele>
        <time>2011-04-03T07:34:52Z</time>
        <extensions>
          <type>
            <highway>track</highway>
            <surface>gravel</surface>
            </type>
        </extensions>
      </trkpt>
      <trkpt lat="47.28321" lon="-0.15141">
        <ele>88</ele>
        <time>2011-04-03T07:34:53.288Z</time>
      </trkpt>
      <trkpt lat="47.28327" lon="-0.15144">
        <ele>88</ele>
        <time>2011-04-03T07:34:54.374Z</time>
      </trkpt>
      <trkpt lat="47.28334" lon="-0.15148">
        <ele>88</ele>
        <time>2011-04-03T07:34:55.662Z</time>
      </trkpt>
      <trkpt lat="47.2834" lon="-0.15151">
        <ele>88</ele>
        <time>2011-04-03T07:34:56.749Z</time>
      </trkpt>
      <trkpt lat="47.28347" lon="-0.15155">
        <ele>88</ele>
        <time>2011-04-03T07:34:58.037Z</time>
      </trkpt>
      <trkpt lat="47.28353" lon="-0.15158">
        <ele>88</ele>
        <time>2011-04-03T07:34:59.124Z</time>
      </trkpt>
      <trkpt lat="47.2836" lon="-0.15162">
        <ele>88</ele>
        <time>2011-04-03T07:35:00.412Z</time>
      </trkpt>
      <trkpt lat="47.28366" lon="-0.15165">
        <ele>88</ele>
        <time>2011-04-03T07:35:01.499Z</time>
      </trkpt>
      <trkpt lat="47.28373" lon="-0.15169">
        <ele>88</ele>
        <time>2011-04-03T07:35:02.787Z</time>
      </trkpt>
      <trkpt lat="47.28379" lon="-0.15172">
        <ele>88</ele>
        <time>2011-04-03T07:35:03.874Z</time>
      </trkpt>
      <trkpt lat="47.28386" lon="-0.15176">
        <ele>88</ele>
        <time>2011-04-03T07:35:05.162Z</time>
      </trkpt>
      <trkpt lat="47.28392" lon="-0.15179">
        <ele>88</ele>
        <time>2011-04-03T07:35:06.249Z</time>
      </trkpt>
      <trkpt lat="47.28399" lon="-0.15183">
        <ele>88</ele>
        <time>2011-04-03T07:35:07.537Z</time>
      </trkpt>
      <trkpt lat="47.28405" lon="-0.15186">
        <ele>88</ele>
        <time>2011-04-03T07:35:08.624Z</time>
      </trkpt>
      <trkpt lat="47.28412" lon="-0.1519">
        <ele>88</ele>
        <time>2011-04-03T07:35:09.912Z</time>
      </trkpt>
      <trkpt lat="47.28418" lon="-0.15193">
        <ele>88</ele>
        <time>2011-04-03T07:35:11Z</time>
        <extensions>
          <type>
            <highway>track</highway>
            <surface>gravel</surface>
            </type>
        </extensions>
      </trkpt>
      <trkpt lat="47.28423" lon="-0.15202">
        <ele>88</ele>
        <time>2011-04-03T07:35:12.558Z</time>
      </trkpt>
      <trkpt lat="47.28427" lon="-0.15211">
        <ele>88</ele>
        <time>2011-04-03T07:35:14Z</time>
        <extensions>
          <type>
            <highway>track</highway>
            <surface>gravel</surface>
            </type>
        </extensions>
      </trkpt>
      <trkpt lat="47.28428" lon="-0.15221">
        <ele>88</ele>
        <time>2011-04-03T07:35:15.208Z</time>
      </trkpt>
      <trkpt lat="47.28428" lon="-0.15231">
        <ele>88</ele>
        <time>2011-04-03T07:35:16.403Z</time>
      </trkpt>
      <trkpt lat="47.28429" lon="-0.15241">
        <ele>88</ele>
        <time>2011-04-03T07:35:17.611Z</time>
      </trkpt>
      <trkpt lat="47.28429" lon="-0.15251">
        <ele>88</ele>
        <time>2011-04-03T07:35:18.806Z</time>
      </trkpt>
      <trkpt lat="47.2843" lon="-0.1526">
        <ele>88</ele>
        <time>2011-04-03T07:35:19.895Z</time>
      </trkpt>
      <trkpt lat="47.2843" lon="-0.1527">
        <ele>88</ele>
        <time>2011-04-03T07:35:21.090Z</time>
      </trkpt>
      <trkpt lat="47.28431" lon="-0.1528">
        <ele>88</ele>
        <time>2011-04-03T07:35:22.298Z</time>
      </trkpt>
      <trkpt lat="47.28432" lon="-0.1529">
        <ele>88.2</ele>
        <time>2011-04-03T07:35:23.506Z</time>
      </trkpt>
      <trkpt lat="47.28432" lon="-0.153">
        <ele>88.4</ele>
        <time>2011-04-03T07:35:24.701Z</time>
      </trkpt>
      <trkpt lat="47.28433" lon="-0.1531">
        <ele>88.6</ele>
        <time>2011-04-03T07:35:25.909Z</time>
      </trkpt>
      <trkpt lat="47.28433" lon="-0.1532">
        <ele>88.8</ele>
        <time>2011-04-03T07:35:27.104Z</time>
      </trkpt>
      <trkpt lat="47.28434" lon="-0.1533">
        <ele>88.9</ele>
        <time>2011-04-03T07:35:28.312Z</time>
      </trkpt>
      <trkpt lat="47.28434" lon="-0.15339">
        <ele>89</ele>
        <time>2011-04-03T07:35:29.387Z</time>
      </trkpt>
      <trkpt lat="47.28435" lon="-0.15349">
        <ele>89</ele>
        <time>2011-04-03T07:35:30.595Z</time>
      </trkpt>
      <trkpt lat="47.28435" lon="-0.15359">
        <ele>89</ele>
        <time>2011-04-03T07:35:31.791Z</time>
      </trkpt>
      <trkpt lat="47.28436" lon="-0.15369">
        <ele>89</ele>
        <time>2011-04-03T07:35:33Z</time>
        <extensions>
          <type>
            <highway>track</highway>
            <surface>gravel</surface>
            </type>
        </extensions>
      </trkpt>
      <trkpt lat="47.28438" lon="-0.15381">
        <ele>89</ele>
        <time>2011-04-03T07:35:34.356Z</time>
      </trkpt>
      <trkpt lat="47.2844" lon="-0.15393">
        <ele>89</ele>
        <time>2011-04-03T07:35:35.712Z</time>
      </trkpt>
      <trkpt lat="47.28442" lon="-0.15405">
        <ele>89</ele>
        <time>2011-04-03T07:35:37.068Z</time>
      </trkpt>
      <trkpt lat="47.28445" lon="-0.15418">
        <ele>89</ele>
        <time>2011-04-03T07:35:38.575Z</time>
      </trkpt>
      <trkpt lat="47.28447" lon="-0.1543">
        <ele>89</ele>
        <time>2011-04-03T07:35:39.931Z</time>
      </trkpt>
      <trkpt lat="47.28449" lon="-0.15442">
        <ele>89</ele>
        <time>2011-04-03T07:35:41.287Z</time>
      </trkpt>
      <trkpt lat="47.28451" lon="-0.15454">
        <ele>89</ele>
        <time>2011-04-03T07:35:42.643Z</time>
      </trkpt>
      <trkpt lat="47.28453" lon="-0.15466">
        <ele>89</ele>
        <time>2011-04-03T07:35:44Z</time>
        <extensions>
          <type>
            <highway>track</highway>
            <surface>gravel</surface>
            </type>
        </extensions>
      </trkpt>
      <trkpt lat="47.28455" lon="-0.15474">
        <ele>89</ele>
        <time>2011-04-03T07:35:44.970Z</time>
      </trkpt>
      <trkpt lat="47.28457" lon="-0.15483">
        <ele>89</ele>
        <time>2011-04-03T07:35:46.047Z</time>
      </trkpt>
      <trkpt lat="47.28458" lon="-0.15491">
        <ele>89</ele>
        <time>2011-04-03T07:35:46.972Z</time>
      </trkpt>
      <trkpt lat="47.2846" lon="-0.155">
        <ele>89</ele>
        <time>2011-04-03T07:35:48.050Z</time>
      </trkpt>
      <trkpt lat="47.28462" lon="-0.15508">
        <ele>89</ele>
        <time>2011-04-03T07:35:49.020Z</time>
      </trkpt>
      <trkpt lat="47.28464" lon="-0.15516">
        <ele>89</ele>
        <time>2011-04-03T07:35:49.990Z</time>
      </trkpt>
      <trkpt lat="47.28465" lon="-0.15525">
        <ele>89</ele>
        <time>2011-04-03T07:35:51.028Z</time>
      </trkpt>
      <trkpt lat="47.28467" lon="-0.15533">
        <ele>89</ele>
        <time>2011-04-03T07:35:52Z</time>
        <extensions>
          <type>
            <highway>track</highway>
            <surface>gravel</surface>
            </type>
        </extensions>
      </trkpt>
      <trkpt lat="47.2847" lon="-0.15543">
        <ele>89</ele>
        <time>2011-04-03T07:35:53.190Z</time>
      </trkpt>
      <trkpt lat="47.28474" lon="-0.15554">
        <ele>89</ele>
        <time>2011-04-03T07:35:54.548Z</time>
      </trkpt>
      <trkpt lat="47.28477" lon="-0.15564">
        <ele>89</ele>
        <time>2011-04-03T07:35:55.738Z</time>
      </trkpt>
      <trkpt lat="47.2848" lon="-0.15575">
        <ele>89</ele>
        <time>2011-04-03T07:35:57.028Z</time>
      </trkpt>
      <trkpt lat="47.28484" lon="-0.15585">
        <ele>89</ele>
        <time>2011-04-03T07:35:58.292Z</time>
      </trkpt>
      <trkpt lat="47.28487" lon="-0.15595">
        <ele>89</ele>
        <time>2011-04-03T07:35:59.482Z</time>
      </trkpt>
      <trkpt lat="47.2849" lon="-0.15606">
        <ele>89</ele>
        <time>2011-04-03T07:36:00.773Z</time>
      </trkpt>
      <trkpt lat="47.28494" lon="-0.15616">
        <ele>89</ele>
        <time>2011-04-03T07:36:02.037Z</time>
      </trkpt>
      <trkpt lat="47.28497" lon="-0.15626">
        <ele>89</ele>
        <time>2011-04-03T07:36:03.227Z</time>
      </trkpt>
      <trkpt lat="47.285" lon="-0.15637">
        <ele>89</ele>
        <time>2011-04-03T07:36:04.518Z</time>
      </trkpt>
      <trkpt lat="47.28503" lon="-0.15647">
        <ele>89</ele>
        <time>2011-04-03T07:36:05.708Z</time>
      </trkpt>
      <trkpt lat="47.28507" lon="-0.15658">
        <ele>89</ele>
        <time>2011-04-03T07:36:07.067Z</time>
      </trkpt>
      <trkpt lat="47.2851" lon="-0.15668">
        <ele>89</ele>
        <time>2011-04-03T07:36:08.258Z</time>
      </trkpt>
      <trkpt lat="47.28513" lon="-0.15678">
        <ele>89</ele>
        <time>2011-04-03T07:36:09.449Z</time>
      </trkpt>
      <trkpt lat="47.28517" lon="-0.15689">
        <ele>89</ele>
        <time>2011-04-03T07:36:10.808Z</time>
      </trkpt>
      <trkpt lat="47.2852" lon="-0.15699">
        <ele>88.8</ele>
        <time>2011-04-03T07:36:12Z</time>
        <extensions>
          <type>
            <highway>track</highway>
            <surface>gravel</surface>
            </type>
        </extensions>
      </trkpt>
      <trkpt lat="47.28523" lon="-0.15704">
        <ele>88.7</ele>
        <time>2011-04-03T07:36:12.750Z</time>
      </trkpt>
      <trkpt lat="47.28526" lon="-0.15709">
        <ele>88.5</ele>
        <time>2011-04-03T07:36:13.500Z</time>
      </trkpt>
      <trkpt lat="47.28529" lon="-0.15714">
        <ele>88.3</ele>
        <time>2011-04-03T07:36:14.250Z</time>
      </trkpt>
      <trkpt lat="47.28532" lon="-0.15719">
        <ele>88.1</ele>
        <time>2011-04-03T07:36:15Z</time>
        <extensions>
          <type>
            <highway>track</highway>
            <surface>gravel</surface>
            </type>
        </extensions>
      </trkpt>
      <trkpt lat="47.2854" lon="-0.15723">
        <ele>88</ele>
        <time>2011-04-03T07:36:16.323Z</time>
      </trkpt>
      <trkpt lat="47.28547" lon="-0.15727">
        <ele>88</ele>
        <time>2011-04-03T07:36:17.499Z</time>
      </trkpt>
      <trkpt lat="47.28555" lon="-0.15731">
        <ele>88</ele>
        <time>2011-04-03T07:36:18.823Z</time>
      </trkpt>
      <trkpt lat="47.28562" lon="-0.15735">
        <ele>88</ele>
        <time>2011-04-03T07:36:20Z</time>
        <extensions>
          <type>
            <highway>track</highway>
            <surface>gravel</surface>
            </type>
        </extensions>
      </trkpt>
      <trkpt lat="47.2857" lon="-0.15742">
        <ele>88</ele>
        <time>2011-04-03T07:36:21.708Z</time>
      </trkpt>
      <trkpt lat="47.28577" lon="-0.15748">
        <ele>88</ele>
        <time>2011-04-03T07:36:23.194Z</time>
      </trkpt>
      <trkpt lat="47.28585" lon="-0.15755">
        <ele>88</ele>
        <time>2011-04-03T07:36:24.902Z</time>
      </trkpt>
      <trkpt lat="47.28593" lon="-0.15762">
        <ele>87.9</ele>
        <time>2011-04-03T07:36:26.610Z</time>
      </trkpt>
      <trkpt lat="47.286" lon="-0.15768">
        <ele>87.6</ele>
        <time>2011-04-03T07:36:28.096Z</time>
      </trkpt>
      <trkpt lat="47.28608" lon="-0.15775">
        <ele>87.2</ele>
        <time>2011-04-03T07:36:29.804Z</time>
      </trkpt>
      <trkpt lat="47.28615" lon="-0.15781">
        <ele>87</ele>
        <time>2011-04-03T07:36:31.291Z</time>
      </trkpt>
      <trkpt lat="47.28623" lon="-0.15788">
        <ele>86.8</ele>
        <time>2011-04-03T07:36:33Z</time>
        <extensions>
          <type>
            <highway>track</highway>
            <surface>gravel</surface>
            </type>
        </extensions>
      </trkpt>
      <trkpt lat="47.28628" lon="-0.15797">
        <ele>86.6</ele>
        <time>2011-04-03T07:36:34.720Z</time>
      </trkpt>
      <trkpt lat="47.28633" lon="-0.15807">
        <ele>86.2</ele>
        <time>2011-04-03T07:36:36.557Z</time>
      </trkpt>
      <trkpt lat="47.28638" lon="-0.15816">
        <ele>86</ele>
        <time>2011-04-03T07:36:38.278Z</time>
      </trkpt>
      <trkpt lat="47.28643" lon="-0.15825">
        <ele>85.9</ele>
        <time>2011-04-03T07:36:40Z</time>
        <extensions>
          <type>
            <highway>track</highway>
            <surface>gravel</surface>
            </type>
        </extensions>
      </trkpt>
      <trkpt lat="47.28646" lon="-0.15835">
        <ele>85.7</ele>
        <time>2011-04-03T07:36:41.713Z</time>
      </trkpt>
      <trkpt lat="47.28649" lon="-0.15846">
        <ele>85.5</ele>
        <time>2011-04-03T07:36:43.571Z</time>
      </trkpt>
      <trkpt lat="47.28652" lon="-0.15856">
        <ele>85.5</ele>
        <time>2011-04-03T07:36:45.285Z</time>
      </trkpt>
      <trkpt lat="47.28655" lon="-0.15866">
        <ele>85.7</ele>
        <time>2011-04-03T07:36:47Z</time>
        <extensions>
          <type>
            <highway>track</highway>
            <surface>gravel</surface>
            </type>
        </extensions>
      </trkpt>
      <trkpt lat="47.2866" lon="-0.15873">
        <ele>85.9</ele>
        <time>2011-04-03T07:36:48.578Z</time>
      </trkpt>
      <trkpt lat="47.28664" lon="-0.1588">
        <ele>86</ele>
        <time>2011-04-03T07:36:50Z</time>
        <extensions>
          <type>
            <highway>track</highway>
            <surface>undefined</surface>
            </type>
        </extensions>
      </trkpt>
      <trkpt lat="47.28668" lon="-0.15883">
        <ele>86.1</ele>
        <time>2011-04-03T07:36:50.976Z</time>
      </trkpt>
      <trkpt lat="47.28673" lon="-0.15885">
        <ele>86.2</ele>
        <time>2011-04-03T07:36:52.103Z</time>
      </trkpt>
      <trkpt lat="47.28677" lon="-0.15888">
        <ele>86.4</ele>
        <time>2011-04-03T07:36:53.080Z</time>
      </trkpt>
      <trkpt lat="47.28681" lon="-0.1589">
        <ele>86.5</ele>
        <time>2011-04-03T07:36:54Z</time>
        <extensions>
          <type>
            <highway>track</highway>
            <surface>undefined</surface>
            </type>
        </extensions>
      </trkpt>
      <trkpt lat="47.28686" lon="-0.15891">
        <ele>86.7</ele>
        <time>2011-04-03T07:36:55.204Z</time>
      </trkpt>
      <trkpt lat="47.2869" lon="-0.15893">
        <ele>86.9</ele>
        <time>2011-04-03T07:36:56.212Z</time>
      </trkpt>
      <trkpt lat="47.28695" lon="-0.15894">
        <ele>87</ele>
        <time>2011-04-03T07:36:57.416Z</time>
      </trkpt>
      <trkpt lat="47.287" lon="-0.15895">
        <ele>87.2</ele>
        <time>2011-04-03T07:36:58.620Z</time>
      </trkpt>
      <trkpt lat="47.28704" lon="-0.15896">
        <ele>87.3</ele>
        <time>2011-04-03T07:36:59.588Z</time>
      </trkpt>
      <trkpt lat="47.28709" lon="-0.15898">
        <ele>87.5</ele>
        <time>2011-04-03T07:37:00.825Z</time>
      </trkpt>
      <trkpt lat="47.28713" lon="-0.15899">
        <ele>87.7</ele>
        <time>2011-04-03T07:37:01.794Z</time>
      </trkpt>
      <trkpt lat="47.28718" lon="-0.159">
        <ele>87.8</ele>
        <time>2011-04-03T07:37:03Z</time>
        <extensions>
          <type>
            <highway>track</highway>
            <surface>undefined</surface>
            </type>
        </extensions>
      </trkpt>
      <trkpt lat="47.28724" lon="-0.15905">
        <ele>88.1</ele>
        <time>2011-04-03T07:37:04.534Z</time>
      </trkpt>
      <trkpt lat="47.2873" lon="-0.15909">
        <ele>88.3</ele>
        <time>2011-04-03T07:37:05.999Z</time>
      </trkpt>
      <trkpt lat="47.28736" lon="-0.15914">
        <ele>88.5</ele>
        <time>2011-04-03T07:37:07.533Z</time>
      </trkpt>
      <trkpt lat="47.28742" lon="-0.15918">
        <ele>88.7</ele>
        <time>2011-04-03T07:37:08.999Z</time>
      </trkpt>
      <trkpt lat="47.28748" lon="-0.15923">
        <ele>88.9</ele>
        <time>2011-04-03T07:37:10.533Z</time>
      </trkpt>
      <trkpt lat="47.28754" lon="-0.15927">
        <ele>89</ele>
        <time>2011-04-03T07:37:11.999Z</time>
      </trkpt>
      <trkpt lat="47.2876" lon="-0.15932">
        <ele>89</ele>
        <time>2011-04-03T07:37:13.533Z</time>
      </trkpt>
      <trkpt lat="47.28766" lon="-0.15936">
        <ele>89</ele>
        <time>2011-04-03T07:37:15Z</time>
        <extensions>
          <type>
            <highway>track</highway>
            <surface>undefined</surface>
            </type>
        </extensions>
      </trkpt>
      <trkpt lat="47.28771" lon="-0.15939">
        <ele>89</ele>
        <time>2011-04-03T07:37:16.112Z</time>
      </trkpt>
      <trkpt lat="47.28776" lon="-0.15942">
        <ele>89</ele>
        <time>2011-04-03T07:37:17.224Z</time>
      </trkpt>
      <trkpt lat="47.28781" lon="-0.15944">
        <ele>89.1</ele>
        <time>2011-04-03T07:37:18.291Z</time>
      </trkpt>
      <trkpt lat="47.28787" lon="-0.15947">
        <ele>89.4</ele>
        <time>2011-04-03T07:37:19.596Z</time>
      </trkpt>
      <trkpt lat="47.28792" lon="-0.1595">
        <ele>89.6</ele>
        <time>2011-04-03T07:37:20.708Z</time>
      </trkpt>
      <trkpt lat="47.28797" lon="-0.15953">
        <ele>89.8</ele>
        <time>2011-04-03T07:37:21.820Z</time>
      </trkpt>
      <trkpt lat="47.28802" lon="-0.15955">
        <ele>89.9</ele>
        <time>2011-04-03T07:37:22.887Z</time>
      </trkpt>
      <trkpt lat="47.28807" lon="-0.15958">
        <ele>90</ele>
        <time>2011-04-03T07:37:24Z</time>
        <extensions>
          <type>
            <highway>track</highway>
            <surface>undefined</surface>
            </type>
        </extensions>
      </trkpt>
      <trkpt lat="47.28813" lon="-0.15964">
        <ele>90</ele>
        <time>2011-04-03T07:37:25.454Z</time>
      </trkpt>
      <trkpt lat="47.28818" lon="-0.1597">
        <ele>90</ele>
        <time>2011-04-03T07:37:26.747Z</time>
      </trkpt>
      <trkpt lat="47.28824" lon="-0.15975">
        <ele>90</ele>
        <time>2011-04-03T07:37:28.129Z</time>
      </trkpt>
      <trkpt lat="47.2883" lon="-0.15981">
        <ele>90</ele>
        <time>2011-04-03T07:37:29.583Z</time>
      </trkpt>
      <trkpt lat="47.28835" lon="-0.15987">
        <ele>90</ele>
        <time>2011-04-03T07:37:30.876Z</time>
      </trkpt>
      <trkpt lat="47.28841" lon="-0.15993">
        <ele>90</ele>
        <time>2011-04-03T07:37:32.331Z</time>
      </trkpt>
      <trkpt lat="47.28846" lon="-0.15998">
        <ele>90</ele>
        <time>2011-04-03T07:37:33.544Z</time>
      </trkpt>
      <trkpt lat="47.28852" lon="-0.16004">
        <ele>90</ele>
        <time>2011-04-03T07:37:35Z</time>
        <extensions>
          <type>
            <highway>track</highway>
            <surface>undefined</surface>
            </type>
        </extensions>
      </trkpt>
      <trkpt lat="47.28855" lon="-0.16009">
        <ele>90</ele>
        <time>2011-04-03T07:37:35.847Z</time>
      </trkpt>
      <trkpt lat="47.28858" lon="-0.16014">
        <ele>90</ele>
        <time>2011-04-03T07:37:36.694Z</time>
      </trkpt>
      <trkpt lat="47.28861" lon="-0.16019">
        <ele>90</ele>
        <time>2011-04-03T07:37:37.542Z</time>
      </trkpt>
      <trkpt lat="47.28864" lon="-0.16024">
        <ele>90</ele>
        <time>2011-04-03T07:37:38.390Z</time>
      </trkpt>
      <trkpt lat="47.28867" lon="-0.16029">
        <ele>90</ele>
        <time>2011-04-03T07:37:39.238Z</time>
      </trkpt>
      <trkpt lat="47.28869" lon="-0.16034">
        <ele>90</ele>
        <time>2011-04-03T07:37:39.975Z</time>
      </trkpt>
      <trkpt lat="47.28872" lon="-0.16039">
        <ele>90</ele>
        <time>2011-04-03T07:37:40.823Z</time>
      </trkpt>
      <trkpt lat="47.28875" lon="-0.16045">
        <ele>90</ele>
        <time>2011-04-03T07:37:41.769Z</time>
      </trkpt>
      <trkpt lat="47.28878" lon="-0.1605">
        <ele>90</ele>
        <time>2011-04-03T07:37:42.617Z</time>
      </trkpt>
      <trkpt lat="47.28881" lon="-0.16055">
        <ele>90</ele>
        <time>2011-04-03T07:37:43.465Z</time>
      </trkpt>
      <trkpt lat="47.28884" lon="-0.1606">
        <ele>90</ele>
        <time>2011-04-03T07:37:44.313Z</time>
      </trkpt>
      <trkpt lat="47.28887" lon="-0.16065">
        <ele>90</ele>
        <time>2011-04-03T07:37:45.161Z</time>
      </trkpt>
      <trkpt lat="47.2889" lon="-0.1607">
        <ele>90</ele>
        <time>2011-04-03T07:37:46.009Z</time>
      </trkpt>
      <trkpt lat="47.28893" lon="-0.16075">
        <ele>90</ele>
        <time>2011-04-03T07:37:46.857Z</time>
      </trkpt>
      <trkpt lat="47.28896" lon="-0.1608">
        <ele>90</ele>
        <time>2011-04-03T07:37:47.705Z</time>
      </trkpt>
      <trkpt lat="47.28899" lon="-0.16085">
        <ele>90</ele>
        <time>2011-04-03T07:37:48.553Z</time>
      </trkpt>
      <trkpt lat="47.28901" lon="-0.1609">
        <ele>90</ele>
        <time>2011-04-03T07:37:49.290Z</time>
      </trkpt>
      <trkpt lat="47.28904" lon="-0.16095">
        <ele>90</ele>
        <time>2011-04-03T07:37:50.138Z</time>
      </trkpt>
      <trkpt lat="47.28907" lon="-0.161">
        <ele>90</ele>
        <time>2011-04-03T07:37:50.986Z</time>
      </trkpt>
      <trkpt lat="47.2891" lon="-0.16105">
        <ele>90</ele>
        <time>2011-04-03T07:37:51.834Z</time>
      </trkpt>
      <trkpt lat="47.28913" lon="-0.1611">
        <ele>90</ele>
        <time>2011-04-03T07:37:52.682Z</time>
      </trkpt>
      <trkpt lat="47.28916" lon="-0.16115">
        <ele>90</ele>
        <time>2011-04-03T07:37:53.530Z</time>
      </trkpt>
      <trkpt lat="47.28919" lon="-0.1612">
        <ele>90</ele>
        <time>2011-04-03T07:37:54.378Z</time>
      </trkpt>
      <trkpt lat="47.28922" lon="-0.16126">
        <ele>90</ele>
        <time>2011-04-03T07:37:55.325Z</time>
      </trkpt>
      <trkpt lat="47.28925" lon="-0.16131">
        <ele>90</ele>
        <time>2011-04-03T07:37:56.173Z</time>
      </trkpt>
      <trkpt lat="47.28928" lon="-0.16136">
        <ele>90</ele>
        <time>2011-04-03T07:37:57.021Z</time>
      </trkpt>
      <trkpt lat="47.28931" lon="-0.16141">
        <ele>90.1</ele>
        <time>2011-04-03T07:37:57.869Z</time>
      </trkpt>
      <trkpt lat="47.28933" lon="-0.16146">
        <ele>90.2</ele>
        <time>2011-04-03T07:37:58.606Z</time>
      </trkpt>
      <trkpt lat="47.28936" lon="-0.16151">
        <ele>90.4</ele>
        <time>2011-04-03T07:37:59.454Z</time>
      </trkpt>
      <trkpt lat="47.28939" lon="-0.16156">
        <ele>90.6</ele>
        <time>2011-04-03T07:38:00.302Z</time>
      </trkpt>
      <trkpt lat="47.28942" lon="-0.16161">
        <ele>90.8</ele>
        <time>2011-04-03T07:38:01.151Z</time>
      </trkpt>
      <trkpt lat="47.28945" lon="-0.16166">
        <ele>91</ele>
        <time>2011-04-03T07:38:02Z</time>
        <extensions>
          <type>
            <highway>track</highway>
            <surface>undefined</surface>
            </type>
        </extensions>
      </trkpt>
      <trkpt lat="47.28948" lon="-0.16172">
        <ele>91</ele>
        <time>2011-04-03T07:38:02.828Z</time>
      </trkpt>
      <trkpt lat="47.28951" lon="-0.16179">
        <ele>91</ele>
        <time>2011-04-03T07:38:03.748Z</time>
      </trkpt>
      <trkpt lat="47.28954" lon="-0.16185">
        <ele>91</ele>
        <time>2011-04-03T07:38:04.576Z</time>
      </trkpt>
      <trkpt lat="47.28958" lon="-0.16192">
        <ele>91</ele>
        <time>2011-04-03T07:38:05.593Z</time>
      </trkpt>
      <trkpt lat="47.28961" lon="-0.16198">
        <ele>90.9</ele>
        <time>2011-04-03T07:38:06.421Z</time>
      </trkpt>
      <trkpt lat="47.28964" lon="-0.16204">
        <ele>90.8</ele>
        <time>2011-04-03T07:38:07.249Z</time>
      </trkpt>
      <trkpt lat="47.28967" lon="-0.16211">
        <ele>90.5</ele>
        <time>2011-04-03T07:38:08.169Z</time>
      </trkpt>
      <trkpt lat="47.2897" lon="-0.16217">
        <ele>90.3</ele>
        <time>2011-04-03T07:38:08.997Z</time>
      </trkpt>
      <trkpt lat="47.28973" lon="-0.16223">
        <ele>90.1</ele>
        <time>2011-04-03T07:38:09.825Z</time>
      </trkpt>
      <trkpt lat="47.28976" lon="-0.1623">
        <ele>90.4</ele>
        <time>2011-04-03T07:38:10.745Z</time>
      </trkpt>
      <trkpt lat="47.28979" lon="-0.16236">
        <ele>90.6</ele>
        <time>2011-04-03T07:38:11.574Z</time>
      </trkpt>
      <trkpt lat="47.28983" lon="-0.16243">
        <ele>90.8</ele>
        <time>2011-04-03T07:38:12.591Z</time>
      </trkpt>
      <trkpt lat="47.28986" lon="-0.16249">
        <ele>91</ele>
        <time>2011-04-03T07:38:13.420Z</time>
      </trkpt>
      <trkpt lat="47.28989" lon="-0.16255">
        <ele>90.9</ele>
        <time>2011-04-03T07:38:14.249Z</time>
      </trkpt>
      <trkpt lat="47.28992" lon="-0.16262">
        <ele>90.7</ele>
        <time>2011-04-03T07:38:15.170Z</time>
      </trkpt>
      <trkpt lat="47.28995" lon="-0.16268">
        <ele>90.5</ele>
        <time>2011-04-03T07:38:16Z</time>
        <extensions>
          <type>
            <highway>track</highway>
            <surface>undefined</surface>
            </type>
        </extensions>
      </trkpt>
      <trkpt lat="47.29" lon="-0.16275">
        <ele>90.1</ele>
        <time>2011-04-03T07:38:17.029Z</time>
      </trkpt>
      <trkpt lat="47.29005" lon="-0.16282">
        <ele>90</ele>
        <time>2011-04-03T07:38:18.058Z</time>
      </trkpt>
      <trkpt lat="47.2901" lon="-0.16288">
        <ele>90</ele>
        <time>2011-04-03T07:38:19.020Z</time>
      </trkpt>
      <trkpt lat="47.29015" lon="-0.16295">
        <ele>90</ele>
        <time>2011-04-03T07:38:20.049Z</time>
      </trkpt>
      <trkpt lat="47.29019" lon="-0.16302">
        <ele>90</ele>
        <time>2011-04-03T07:38:20.976Z</time>
      </trkpt>
      <trkpt lat="47.29024" lon="-0.16309">
        <ele>90</ele>
        <time>2011-04-03T07:38:22.006Z</time>
      </trkpt>
      <trkpt lat="47.29029" lon="-0.16315">
        <ele>90</ele>
        <time>2011-04-03T07:38:22.969Z</time>
      </trkpt>
      <trkpt lat="47.29034" lon="-0.16322">
        <ele>90</ele>
        <time>2011-04-03T07:38:24Z</time>
        <extensions>
          <type>
            <highway>track</highway>
            <surface>undefined</surface>
            </type>
        </extensions>
      </trkpt>
      <trkpt lat="47.29039" lon="-0.16332">
        <ele>90</ele>
        <time>2011-04-03T07:38:25.313Z</time>
      </trkpt>
      <trkpt lat="47.29044" lon="-0.16341">
        <ele>90</ele>
        <time>2011-04-03T07:38:26.542Z</time>
      </trkpt>
      <trkpt lat="47.29048" lon="-0.16351">
        <ele>90</ele>
        <time>2011-04-03T07:38:27.769Z</time>
      </trkpt>
      <trkpt lat="47.29053" lon="-0.1636">
        <ele>90</ele>
        <time>2011-04-03T07:38:29Z</time>
        <extensions>
          <type>
            <highway>track</highway>
            <surface>undefined</surface>
            </type>
        </extensions>
      </trkpt>
      <trkpt lat="47.29059" lon="-0.16369">
        <ele>89.7</ele>
        <time>2011-04-03T07:38:30.230Z</time>
      </trkpt>
      <trkpt lat="47.29065" lon="-0.16379">
        <ele>89.4</ele>
        <time>2011-04-03T07:38:31.531Z</time>
      </trkpt>
      <trkpt lat="47.29071" lon="-0.16388">
        <ele>89</ele>
        <time>2011-04-03T07:38:32.761Z</time>
      </trkpt>
      <trkpt lat="47.29077" lon="-0.16398">
        <ele>89</ele>
        <time>2011-04-03T07:38:34.062Z</time>
      </trkpt>
      <trkpt lat="47.29082" lon="-0.16407">
        <ele>89</ele>
        <time>2011-04-03T07:38:35.196Z</time>
      </trkpt>
      <trkpt lat="47.29088" lon="-0.16417">
        <ele>89</ele>
        <time>2011-04-03T07:38:36.498Z</time>
      </trkpt>
      <trkpt lat="47.29094" lon="-0.16426">
        <ele>88.9</ele>
        <time>2011-04-03T07:38:37.728Z</time>
      </trkpt>
      <trkpt lat="47.291" lon="-0.16436">
        <ele>88.6</ele>
        <time>2011-04-03T07:38:39.030Z</time>
      </trkpt>
      <trkpt lat="47.29106" lon="-0.16445">
        <ele>88.2</ele>
        <time>2011-04-03T07:38:40.260Z</time>
      </trkpt>
      <trkpt lat="47.29112" lon="-0.16454">
        <ele>88</ele>
        <time>2011-04-03T07:38:41.490Z</time>
      </trkpt>
      <trkpt lat="47.29118" lon="-0.16464">
        <ele>88.1</ele>
        <time>2011-04-03T07:38:42.792Z</time>
      </trkpt>
      <trkpt lat="47.29124" lon="-0.16473">
        <ele>88</ele>
        <time>2011-04-03T07:38:44.023Z</time>
      </trkpt>
      <trkpt lat="47.29129" lon="-0.16483">
        <ele>88</ele>
        <time>2011-04-03T07:38:45.235Z</time>
      </trkpt>
      <trkpt lat="47.29135" lon="-0.16492">
        <ele>88</ele>
        <time>2011-04-03T07:38:46.466Z</time>
      </trkpt>
      <trkpt lat="47.29141" lon="-0.16502">
        <ele>87.9</ele>
        <time>2011-04-03T07:38:47.768Z</time>
      </trkpt>
      <trkpt lat="47.29147" lon="-0.16511">
        <ele>87.4</ele>
        <time>2011-04-03T07:38:49Z</time>
        <extensions>
          <type>
            <highway>track</highway>
            <surface>undefined</surface>
            </type>
        </extensions>
      </trkpt>
      <trkpt lat="47.29151" lon="-0.1652">
        <ele>87.2</ele>
        <time>2011-04-03T07:38:49.996Z</time>
      </trkpt>
      <trkpt lat="47.29156" lon="-0.16528">
        <ele>87</ele>
        <time>2011-04-03T07:38:51.003Z</time>
      </trkpt>
      <trkpt lat="47.2916" lon="-0.16537">
        <ele>86.7</ele>
        <time>2011-04-03T07:38:51.999Z</time>
      </trkpt>
      <trkpt lat="47.29165" lon="-0.16546">
        <ele>86.4</ele>
        <time>2011-04-03T07:38:53.076Z</time>
      </trkpt>
      <trkpt lat="47.29169" lon="-0.16554">
        <ele>86</ele>
        <time>2011-04-03T07:38:53.997Z</time>
      </trkpt>
      <trkpt lat="47.29173" lon="-0.16563">
        <ele>85.9</ele>
        <time>2011-04-03T07:38:54.994Z</time>
      </trkpt>
      <trkpt lat="47.29178" lon="-0.16571">
        <ele>85.8</ele>
        <time>2011-04-03T07:38:56.002Z</time>
      </trkpt>
      <trkpt lat="47.29182" lon="-0.1658">
        <ele>85.5</ele>
        <time>2011-04-03T07:38:57Z</time>
        <extensions>
          <type>
            <highway>track</highway>
            <surface>undefined</surface>
            </type>
        </extensions>
      </trkpt>
      <trkpt lat="47.29184" lon="-0.16589">
        <ele>85.2</ele>
        <time>2011-04-03T07:38:57.886Z</time>
      </trkpt>
      <trkpt lat="47.29186" lon="-0.16598">
        <ele>84.8</ele>
        <time>2011-04-03T07:38:58.772Z</time>
      </trkpt>
      <trkpt lat="47.29188" lon="-0.16607">
        <ele>84.4</ele>
        <time>2011-04-03T07:38:59.658Z</time>
      </trkpt>
      <trkpt lat="47.2919" lon="-0.16616">
        <ele>84.2</ele>
        <time>2011-04-03T07:39:00.544Z</time>
      </trkpt>
      <trkpt lat="47.29192" lon="-0.16624">
        <ele>84.1</ele>
        <time>2011-04-03T07:39:01.341Z</time>
      </trkpt>
      <trkpt lat="47.29194" lon="-0.16633">
        <ele>84</ele>
        <time>2011-04-03T07:39:02.227Z</time>
      </trkpt>
      <trkpt lat="47.29196" lon="-0.16642">
        <ele>83.9</ele>
        <time>2011-04-03T07:39:03.113Z</time>
      </trkpt>
      <trkpt lat="47.29198" lon="-0.16651">
        <ele>83.9</ele>
        <time>2011-04-03T07:39:04Z</time>
        <extensions>
          <type>
            <highway>track</highway>
            <surface>undefined</surface>
            </type>
        </extensions>
      </trkpt>
      <trkpt lat="47.29196" lon="-0.16664">
        <ele>83.9</ele>
        <time>2011-04-03T07:39:05.556Z</time>
      </trkpt>
      <trkpt lat="47.29194" lon="-0.16676">
        <ele>84</ele>
        <time>2011-04-03T07:39:07Z</time>
        <extensions>
          <type>
            <highway>track</highway>
            <surface>undefined</surface>
            </type>
        </extensions>
      </trkpt>
      <trkpt lat="47.29189" lon="-0.16685">
        <ele>84.2</ele>
        <time>2011-04-03T07:39:08.342Z</time>
      </trkpt>
      <trkpt lat="47.29183" lon="-0.16694">
        <ele>84.4</ele>
        <time>2011-04-03T07:39:09.798Z</time>
      </trkpt>
      <trkpt lat="47.29178" lon="-0.16703">
        <ele>84.6</ele>
        <time>2011-04-03T07:39:11.140Z</time>
      </trkpt>
      <trkpt lat="47.29173" lon="-0.16712">
        <ele>84.8</ele>
        <time>2011-04-03T07:39:12.482Z</time>
      </trkpt>
      <trkpt lat="47.29167" lon="-0.1672">
        <ele>85</ele>
        <time>2011-04-03T07:39:13.858Z</time>
      </trkpt>
      <trkpt lat="47.29162" lon="-0.16729">
        <ele>85</ele>
        <time>2011-04-03T07:39:15.200Z</time>
      </trkpt>
      <trkpt lat="47.29156" lon="-0.16738">
        <ele>85</ele>
        <time>2011-04-03T07:39:16.656Z</time>
      </trkpt>
      <trkpt lat="47.29151" lon="-0.16747">
        <ele>85</ele>
        <time>2011-04-03T07:39:18Z</time>
        <extensions>
          <type>
            <highway>track</highway>
            <surface>undefined</surface>
            </type>
        </extensions>
      </trkpt>
      <trkpt lat="47.2915" lon="-0.16756">
        <ele>85</ele>
        <time>2011-04-03T07:39:19.031Z</time>
      </trkpt>
      <trkpt lat="47.2915" lon="-0.16765">
        <ele>85</ele>
        <time>2011-04-03T07:39:20.048Z</time>
      </trkpt>
      <trkpt lat="47.29149" lon="-0.16773">
        <ele>85</ele>
        <time>2011-04-03T07:39:20.968Z</time>
      </trkpt>
      <trkpt lat="47.29148" lon="-0.16782">
        <ele>85.1</ele>
        <time>2011-04-03T07:39:22Z</time>
        <extensions>
          <type>
            <highway>track</highway>
            <surface>undefined</surface>
            </type>
        </extensions>
      </trkpt>
      <trkpt lat="47.29151" lon="-0.16792">
        <ele>85.3</ele>
        <time>2011-04-03T07:39:23.304Z</time>
      </trkpt>
      <trkpt lat="47.29154" lon="-0.16801">
        <ele>85.4</ele>
        <time>2011-04-03T07:39:24.499Z</time>
      </trkpt>
      <trkpt lat="47.29157" lon="-0.16811">
        <ele>85.3</ele>
        <time>2011-04-03T07:39:25.803Z</time>
      </trkpt>
      <trkpt lat="47.2916" lon="-0.1682">
        <ele>85.2</ele>
        <time>2011-04-03T07:39:26.999Z</time>
      </trkpt>
      <trkpt lat="47.29163" lon="-0.1683">
        <ele>85.1</ele>
        <time>2011-04-03T07:39:28.303Z</time>
      </trkpt>
      <trkpt lat="47.29166" lon="-0.16839">
        <ele>85.2</ele>
        <time>2011-04-03T07:39:29.499Z</time>
      </trkpt>
      <trkpt lat="47.29169" lon="-0.16849">
        <ele>85.5</ele>
        <time>2011-04-03T07:39:30.803Z</time>
      </trkpt>
      <trkpt lat="47.29172" lon="-0.16858">
        <ele>85.7</ele>
        <time>2011-04-03T07:39:32Z</time>
        <extensions>
          <type>
            <highway>track</highway>
            <surface>undefined</surface>
            </type>
        </extensions>
      </trkpt>
      <trkpt lat="47.29177" lon="-0.16869">
        <ele>85.6</ele>
        <time>2011-04-03T07:39:33.428Z</time>
      </trkpt>
      <trkpt lat="47.29181" lon="-0.1688">
        <ele>85.5</ele>
        <time>2011-04-03T07:39:34.774Z</time>
      </trkpt>
      <trkpt lat="47.29186" lon="-0.1689">
        <ele>85.3</ele>
        <time>2011-04-03T07:39:36.114Z</time>
      </trkpt>
      <trkpt lat="47.29191" lon="-0.16901">
        <ele>85.1</ele>
        <time>2011-04-03T07:39:37.542Z</time>
      </trkpt>
      <trkpt lat="47.29195" lon="-0.16912">
        <ele>85</ele>
        <time>2011-04-03T07:39:38.888Z</time>
      </trkpt>
      <trkpt lat="47.292" lon="-0.16923">
        <ele>84.8</ele>
        <time>2011-04-03T07:39:40.317Z</time>
      </trkpt>
      <trkpt lat="47.29204" lon="-0.16933">
        <ele>84.4</ele>
        <time>2011-04-03T07:39:41.570Z</time>
      </trkpt>
      <trkpt lat="47.29209" lon="-0.16944">
        <ele>84</ele>
        <time>2011-04-03T07:39:43Z</time>
        <extensions>
          <type>
            <highway>track</highway>
            <surface>undefined</surface>
            </type>
        </extensions>
      </trkpt>
      <trkpt lat="47.29209" lon="-0.16952">
        <ele>84.1</ele>
        <time>2011-04-03T07:39:43.882Z</time>
      </trkpt>
      <trkpt lat="47.29208" lon="-0.1696">
        <ele>84.3</ele>
        <time>2011-04-03T07:39:44.779Z</time>
      </trkpt>
      <trkpt lat="47.29208" lon="-0.16968">
        <ele>84.4</ele>
        <time>2011-04-03T07:39:45.661Z</time>
      </trkpt>
      <trkpt lat="47.29207" lon="-0.16976">
        <ele>84.5</ele>
        <time>2011-04-03T07:39:46.558Z</time>
      </trkpt>
      <trkpt lat="47.29207" lon="-0.16983">
        <ele>84.3</ele>
        <time>2011-04-03T07:39:47.329Z</time>
      </trkpt>
      <trkpt lat="47.29206" lon="-0.16991">
        <ele>84.2</ele>
        <time>2011-04-03T07:39:48.226Z</time>
      </trkpt>
      <trkpt lat="47.29206" lon="-0.16999">
        <ele>84</ele>
        <time>2011-04-03T07:39:49.108Z</time>
      </trkpt>
      <trkpt lat="47.29206" lon="-0.17007">
        <ele>84</ele>
        <time>2011-04-03T07:39:49.990Z</time>
      </trkpt>
      <trkpt lat="47.29205" lon="-0.17015">
        <ele>84</ele>
        <time>2011-04-03T07:39:50.887Z</time>
      </trkpt>
      <trkpt lat="47.29205" lon="-0.17023">
        <ele>84</ele>
        <time>2011-04-03T07:39:51.769Z</time>
      </trkpt>
      <trkpt lat="47.29204" lon="-0.17031">
        <ele>84</ele>
        <time>2011-04-03T07:39:52.666Z</time>
      </trkpt>
      <trkpt lat="47.29204" lon="-0.17039">
        <ele>84</ele>
        <time>2011-04-03T07:39:53.548Z</time>
      </trkpt>
      <trkpt lat="47.29203" lon="-0.17046">
        <ele>84</ele>
        <time>2011-04-03T07:39:54.337Z</time>
      </trkpt>
      <trkpt lat="47.29203" lon="-0.17054">
        <ele>84</ele>
        <time>2011-04-03T07:39:55.219Z</time>
      </trkpt>
      <trkpt lat="47.29202" lon="-0.17062">
        <ele>84</ele>
        <time>2011-04-03T07:39:56.116Z</time>
      </trkpt>
      <trkpt lat="47.29202" lon="-0.1707">
        <ele>84</ele>
        <time>2011-04-03T07:39:57Z</time>
        <extensions>
          <type>
            <highway>track</highway>
            <surface>undefined</surface>
            </type>
        </extensions>
      </trkpt>
      <trkpt lat="47.29202" lon="-0.17077">
        <ele>84</ele>
        <time>2011-04-03T07:39:57.784Z</time>
      </trkpt>
      <trkpt lat="47.29203" lon="-0.17084">
        <ele>84</ele>
        <time>2011-04-03T07:39:58.585Z</time>
      </trkpt>
      <trkpt lat="47.29203" lon="-0.17092">
        <ele>84.3</ele>
        <time>2011-04-03T07:39:59.481Z</time>
      </trkpt>
      <trkpt lat="47.29204" lon="-0.17099">
        <ele>84.6</ele>
        <time>2011-04-03T07:40:00.282Z</time>
      </trkpt>
      <trkpt lat="47.29204" lon="-0.17106">
        <ele>84.8</ele>
        <time>2011-04-03T07:40:01.066Z</time>
      </trkpt>
      <trkpt lat="47.29205" lon="-0.17113">
        <ele>85</ele>
        <time>2011-04-03T07:40:01.867Z</time>
      </trkpt>
      <trkpt lat="47.29205" lon="-0.1712">
        <ele>85</ele>
        <time>2011-04-03T07:40:02.651Z</time>
      </trkpt>
      <trkpt lat="47.29206" lon="-0.17128">
        <ele>85</ele>
        <time>2011-04-03T07:40:03.562Z</time>
      </trkpt>
      <trkpt lat="47.29206" lon="-0.17135">
        <ele>85</ele>
        <time>2011-04-03T07:40:04.346Z</time>
      </trkpt>
      <trkpt lat="47.29206" lon="-0.17142">
        <ele>85</ele>
        <time>2011-04-03T07:40:05.130Z</time>
      </trkpt>
      <trkpt lat="47.29207" lon="-0.17149">
        <ele>85</ele>
        <time>2011-04-03T07:40:05.931Z</time>
      </trkpt>
      <trkpt lat="47.29207" lon="-0.17156">
        <ele>85</ele>
        <time>2011-04-03T07:40:06.715Z</time>
      </trkpt>
      <trkpt lat="47.29208" lon="-0.17163">
        <ele>85</ele>
        <time>2011-04-03T07:40:07.516Z</time>
      </trkpt>
      <trkpt lat="47.29208" lon="-0.17171">
        <ele>84.9</ele>
        <time>2011-04-03T07:40:08.413Z</time>
      </trkpt>
      <trkpt lat="47.29209" lon="-0.17178">
        <ele>84.8</ele>
        <time>2011-04-03T07:40:09.215Z</time>
      </trkpt>
      <trkpt lat="47.29209" lon="-0.17185">
        <ele>84.7</ele>
        <time>2011-04-03T07:40:10Z</time>
        <extensions>
          <type>
            <highway>track</highway>
            <surface>undefined</surface>
            </type>
        </extensions>
      </trkpt>
      <trkpt lat="47.29211" lon="-0.17192">
        <ele>84.4</ele>
        <time>2011-04-03T07:40:10.733Z</time>
      </trkpt>
      <trkpt lat="47.29214" lon="-0.17199">
        <ele>84.3</ele>
        <time>2011-04-03T07:40:11.532Z</time>
      </trkpt>
      <trkpt lat="47.29216" lon="-0.17206">
        <ele>84.2</ele>
        <time>2011-04-03T07:40:12.265Z</time>
      </trkpt>
      <trkpt lat="47.29218" lon="-0.17213">
        <ele>84.2</ele>
        <time>2011-04-03T07:40:12.998Z</time>
      </trkpt>
      <trkpt lat="47.2922" lon="-0.1722">
        <ele>84.1</ele>
        <time>2011-04-03T07:40:13.731Z</time>
      </trkpt>
      <trkpt lat="47.29223" lon="-0.17227">
        <ele>84</ele>
        <time>2011-04-03T07:40:14.531Z</time>
      </trkpt>
      <trkpt lat="47.29225" lon="-0.17234">
        <ele>84</ele>
        <time>2011-04-03T07:40:15.265Z</time>
      </trkpt>
      <trkpt lat="47.29227" lon="-0.17241">
        <ele>83.9</ele>
        <time>2011-04-03T07:40:16Z</time>
        <extensions>
          <type>
            <highway>track</highway>
            <surface>undefined</surface>
            </type>
        </extensions>
      </trkpt>
      <trkpt lat="47.29229" lon="-0.17248">
        <ele>83.8</ele>
        <time>2011-04-03T07:40:16.742Z</time>
      </trkpt>
      <trkpt lat="47.2923" lon="-0.17256">
        <ele>83.7</ele>
        <time>2011-04-03T07:40:17.537Z</time>
      </trkpt>
      <trkpt lat="47.29232" lon="-0.17263">
        <ele>83.7</ele>
        <time>2011-04-03T07:40:18.279Z</time>
      </trkpt>
      <trkpt lat="47.29234" lon="-0.1727">
        <ele>83.6</ele>
        <time>2011-04-03T07:40:19.022Z</time>
      </trkpt>
      <trkpt lat="47.29235" lon="-0.17277">
        <ele>83.5</ele>
        <time>2011-04-03T07:40:19.721Z</time>
      </trkpt>
      <trkpt lat="47.29237" lon="-0.17285">
        <ele>83.4</ele>
        <time>2011-04-03T07:40:20.555Z</time>
      </trkpt>
      <trkpt lat="47.29238" lon="-0.17292">
        <ele>83.1</ele>
        <time>2011-04-03T07:40:21.254Z</time>
      </trkpt>
      <trkpt lat="47.2924" lon="-0.17299">
        <ele>82.9</ele>
        <time>2011-04-03T07:40:21.997Z</time>
      </trkpt>
      <trkpt lat="47.29242" lon="-0.17306">
        <ele>82.6</ele>
        <time>2011-04-03T07:40:22.740Z</time>
      </trkpt>
      <trkpt lat="47.29243" lon="-0.17314">
        <ele>82.5</ele>
        <time>2011-04-03T07:40:23.535Z</time>
      </trkpt>
      <trkpt lat="47.29245" lon="-0.17321">
        <ele>82.4</ele>
        <time>2011-04-03T07:40:24.278Z</time>
      </trkpt>
      <trkpt lat="47.29247" lon="-0.17328">
        <ele>82.3</ele>
        <time>2011-04-03T07:40:25.021Z</time>
      </trkpt>
      <trkpt lat="47.29248" lon="-0.17335">
        <ele>82.1</ele>
        <time>2011-04-03T07:40:25.721Z</time>
      </trkpt>
      <trkpt lat="47.2925" lon="-0.17343">
        <ele>82</ele>
        <time>2011-04-03T07:40:26.555Z</time>
      </trkpt>
      <trkpt lat="47.29251" lon="-0.1735">
        <ele>81.9</ele>
        <time>2011-04-03T07:40:27.255Z</time>
      </trkpt>
      <trkpt lat="47.29253" lon="-0.17357">
        <ele>81.9</ele>
        <time>2011-04-03T07:40:28Z</time>
        <extensions>
          <type>
            <highway>track</highway>
            <surface>undefined</surface>
            </type>
        </extensions>
      </trkpt>
      <trkpt lat="47.29257" lon="-0.17369">
        <ele>81.8</ele>
        <time>2011-04-03T07:40:29.438Z</time>
      </trkpt>
      <trkpt lat="47.29261" lon="-0.1738">
        <ele>81.9</ele>
        <time>2011-04-03T07:40:30.780Z</time>
      </trkpt>
      <trkpt lat="47.29264" lon="-0.17392">
        <ele>82.1</ele>
        <time>2011-04-03T07:40:32.156Z</time>
      </trkpt>
      <trkpt lat="47.29268" lon="-0.17403">
        <ele>82.7</ele>
        <time>2011-04-03T07:40:33.499Z</time>
      </trkpt>
      <trkpt lat="47.29272" lon="-0.17415">
        <ele>83.1</ele>
        <time>2011-04-03T07:40:34.937Z</time>
      </trkpt>
      <trkpt lat="47.29276" lon="-0.17426">
        <ele>83.4</ele>
        <time>2011-04-03T07:40:36.280Z</time>
      </trkpt>
      <trkpt lat="47.29279" lon="-0.17438">
        <ele>83.7</ele>
        <time>2011-04-03T07:40:37.656Z</time>
      </trkpt>
      <trkpt lat="47.29283" lon="-0.17449">
        <ele>83.7</ele>
        <time>2011-04-03T07:40:39Z</time>
        <extensions>
          <type>
            <highway>track</highway>
            <surface>undefined</surface>
            </type>
        </extensions>
      </trkpt>
      <trkpt lat="47.29285" lon="-0.1746">
        <ele>83.6</ele>
        <time>2011-04-03T07:40:40.276Z</time>
      </trkpt>
      <trkpt lat="47.29287" lon="-0.17471">
        <ele>83.6</ele>
        <time>2011-04-03T07:40:41.553Z</time>
      </trkpt>
      <trkpt lat="47.29289" lon="-0.17481">
        <ele>83.6</ele>
        <time>2011-04-03T07:40:42.722Z</time>
      </trkpt>
      <trkpt lat="47.29291" lon="-0.17492">
        <ele>83.5</ele>
        <time>2011-04-03T07:40:44Z</time>
        <extensions>
          <type>
            <highway>track</highway>
            <surface>undefined</surface>
            </type>
        </extensions>
      </trkpt>
      <trkpt lat="47.29294" lon="-0.175">
        <ele>83.4</ele>
        <time>2011-04-03T07:40:45.013Z</time>
      </trkpt>
      <trkpt lat="47.29296" lon="-0.17508">
        <ele>83.3</ele>
        <time>2011-04-03T07:40:45.958Z</time>
      </trkpt>
      <trkpt lat="47.29299" lon="-0.17516">
        <ele>83.2</ele>
        <time>2011-04-03T07:40:46.971Z</time>
      </trkpt>
      <trkpt lat="47.29302" lon="-0.17525">
        <ele>83.1</ele>
        <time>2011-04-03T07:40:48.082Z</time>
      </trkpt>
      <trkpt lat="47.29304" lon="-0.17533">
        <ele>83.1</ele>
        <time>2011-04-03T07:40:49.027Z</time>
      </trkpt>
      <trkpt lat="47.29307" lon="-0.17541">
        <ele>83</ele>
        <time>2011-04-03T07:40:50.040Z</time>
      </trkpt>
      <trkpt lat="47.29309" lon="-0.17549">
        <ele>82.9</ele>
        <time>2011-04-03T07:40:50.985Z</time>
      </trkpt>
      <trkpt lat="47.29312" lon="-0.17557">
        <ele>82.8</ele>
        <time>2011-04-03T07:40:52Z</time>
        <extensions>
          <type>
            <highway>track</highway>
            <surface>undefined</surface>
            </type>
        </extensions>
      </trkpt>
      <trkpt lat="47.29317" lon="-0.17568">
        <ele>82.9</ele>
        <time>2011-04-03T07:40:53.498Z</time>
      </trkpt>
      <trkpt lat="47.29322" lon="-0.17579">
        <ele>82.8</ele>
        <time>2011-04-03T07:40:54.996Z</time>
      </trkpt>
      <trkpt lat="47.29327" lon="-0.1759">
        <ele>82.7</ele>
        <time>2011-04-03T07:40:56.495Z</time>
      </trkpt>
      <trkpt lat="47.29332" lon="-0.17602">
        <ele>82.7</ele>
        <time>2011-04-03T07:40:58.089Z</time>
      </trkpt>
      <trkpt lat="47.29336" lon="-0.17613">
        <ele>82.9</ele>
        <time>2011-04-03T07:40:59.502Z</time>
      </trkpt>
      <trkpt lat="47.29341" lon="-0.17624">
        <ele>83.2</ele>
        <time>2011-04-03T07:41:01.001Z</time>
      </trkpt>
      <trkpt lat="47.29346" lon="-0.17635">
        <ele>83.4</ele>
        <time>2011-04-03T07:41:02.500Z</time>
      </trkpt>
      <trkpt lat="47.29351" lon="-0.17646">
        <ele>83.4</ele>
        <time>2011-04-03T07:41:04Z</time>
        <extensions>
          <type>
            <highway>track</highway>
            <surface>undefined</surface>
            </type>
        </extensions>
      </trkpt>
      <trkpt lat="47.29352" lon="-0.17654">
        <ele>83.3</ele>
        <time>2011-04-03T07:41:05.018Z</time>
      </trkpt>
      <trkpt lat="47.29354" lon="-0.17662">
        <ele>83.3</ele>
        <time>2011-04-03T07:41:06.085Z</time>
      </trkpt>
      <trkpt lat="47.29355" lon="-0.17669">
        <ele>83.3</ele>
        <time>2011-04-03T07:41:06.981Z</time>
      </trkpt>
      <trkpt lat="47.29356" lon="-0.17677">
        <ele>83.5</ele>
        <time>2011-04-03T07:41:08Z</time>
        <extensions>
          <type>
            <highway>unclassified</highway>
            <surface>undefined</surface>
            </type>
        </extensions>
      </trkpt>
      <trkpt lat="47.2936" lon="-0.17686">
        <ele>83.7</ele>
        <time>2011-04-03T07:41:09.041Z</time>
      </trkpt>
      <trkpt lat="47.29364" lon="-0.17696">
        <ele>83.8</ele>
        <time>2011-04-03T07:41:10.164Z</time>
      </trkpt>
      <trkpt lat="47.29368" lon="-0.17705">
        <ele>83.6</ele>
        <time>2011-04-03T07:41:11.205Z</time>
      </trkpt>
      <trkpt lat="47.29372" lon="-0.17714">
        <ele>83.5</ele>
        <time>2011-04-03T07:41:12.246Z</time>
      </trkpt>
      <trkpt lat="47.29376" lon="-0.17724">
        <ele>83.5</ele>
        <time>2011-04-03T07:41:13.369Z</time>
      </trkpt>
      <trkpt lat="47.2938" lon="-0.17733">
        <ele>83.3</ele>
        <time>2011-04-03T07:41:14.410Z</time>
      </trkpt>
      <trkpt lat="47.29384" lon="-0.17742">
        <ele>83.2</ele>
        <time>2011-04-03T07:41:15.451Z</time>
      </trkpt>
      <trkpt lat="47.29388" lon="-0.17752">
        <ele>83</ele>
        <time>2011-04-03T07:41:16.574Z</time>
      </trkpt>
      <trkpt lat="47.29391" lon="-0.17761">
        <ele>82.4</ele>
        <time>2011-04-03T07:41:17.544Z</time>
      </trkpt>
      <trkpt lat="47.29395" lon="-0.1777">
        <ele>81.7</ele>
        <time>2011-04-03T07:41:18.585Z</time>
      </trkpt>
      <trkpt lat="47.29399" lon="-0.17779">
        <ele>81.3</ele>
        <time>2011-04-03T07:41:19.626Z</time>
      </trkpt>
      <trkpt lat="47.29403" lon="-0.17789">
        <ele>81</ele>
        <time>2011-04-03T07:41:20.750Z</time>
      </trkpt>
      <trkpt lat="47.29407" lon="-0.17798">
        <ele>80.7</ele>
        <time>2011-04-03T07:41:21.791Z</time>
      </trkpt>
      <trkpt lat="47.29411" lon="-0.17807">
        <ele>80.2</ele>
        <time>2011-04-03T07:41:22.833Z</time>
      </trkpt>
      <trkpt lat="47.29415" lon="-0.17817">
        <ele>79</ele>
        <time>2011-04-03T07:41:23.957Z</time>
      </trkpt>
      <trkpt lat="47.29419" lon="-0.17826">
        <ele>77.6</ele>
        <time>2011-04-03T07:41:25Z</time>
        <extensions>
          <type>
            <highway>unclassified</highway>
            <surface>undefined</surface>
            </type>
        </extensions>
      </trkpt>
      <trkpt lat="47.29423" lon="-0.17837">
        <ele>77</ele>
        <time>2011-04-03T07:41:25.891Z</time>
      </trkpt>
      <trkpt lat="47.29426" lon="-0.17848">
        <ele>77.3</ele>
        <time>2011-04-03T07:41:26.738Z</time>
      </trkpt>
      <trkpt lat="47.2943" lon="-0.17859">
        <ele>77.5</ele>
        <time>2011-04-03T07:41:27.629Z</time>
      </trkpt>
      <trkpt lat="47.29434" lon="-0.1787">
        <ele>76.9</ele>
        <time>2011-04-03T07:41:28.521Z</time>
      </trkpt>
      <trkpt lat="47.29437" lon="-0.17881">
        <ele>76.1</ele>
        <time>2011-04-03T07:41:29.368Z</time>
      </trkpt>
      <trkpt lat="47.29441" lon="-0.17892">
        <ele>75.1</ele>
        <time>2011-04-03T07:41:30.260Z</time>
      </trkpt>
      <trkpt lat="47.29444" lon="-0.17903">
        <ele>73.5</ele>
        <time>2011-04-03T07:41:31.107Z</time>
      </trkpt>
      <trkpt lat="47.29448" lon="-0.17914">
        <ele>72</ele>
        <time>2011-04-03T07:41:32Z</time>
        <extensions>
          <type>
            <highway>unclassified</highway>
            <surface>undefined</surface>
            </type>
        </extensions>
      </trkpt>
      <trkpt lat="47.29452" lon="-0.17919">
        <ele>71.5</ele>
        <time>2011-04-03T07:41:32.495Z</time>
      </trkpt>
      <trkpt lat="47.29455" lon="-0.17924">
        <ele>71.2</ele>
        <time>2011-04-03T07:41:32.922Z</time>
      </trkpt>
      <trkpt lat="47.29459" lon="-0.17929">
        <ele>70.7</ele>
        <time>2011-04-03T07:41:33.417Z</time>
      </trkpt>
      <trkpt lat="47.29462" lon="-0.17934">
        <ele>70.1</ele>
        <time>2011-04-03T07:41:33.845Z</time>
      </trkpt>
      <trkpt lat="47.29466" lon="-0.17939">
        <ele>69.4</ele>
        <time>2011-04-03T07:41:34.340Z</time>
      </trkpt>
      <trkpt lat="47.29469" lon="-0.17944">
        <ele>68.5</ele>
        <time>2011-04-03T07:41:34.768Z</time>
      </trkpt>
      <trkpt lat="47.29473" lon="-0.17949">
        <ele>67.8</ele>
        <time>2011-04-03T07:41:35.263Z</time>
      </trkpt>
      <trkpt lat="47.29477" lon="-0.17955">
        <ele>67.3</ele>
        <time>2011-04-03T07:41:35.802Z</time>
      </trkpt>
      <trkpt lat="47.2948" lon="-0.1796">
        <ele>66.9</ele>
        <time>2011-04-03T07:41:36.230Z</time>
      </trkpt>
      <trkpt lat="47.29484" lon="-0.17965">
        <ele>66.5</ele>
        <time>2011-04-03T07:41:36.725Z</time>
      </trkpt>
      <trkpt lat="47.29487" lon="-0.1797">
        <ele>66</ele>
        <time>2011-04-03T07:41:37.153Z</time>
      </trkpt>
      <trkpt lat="47.29491" lon="-0.17975">
        <ele>65.5</ele>
        <time>2011-04-03T07:41:37.648Z</time>
      </trkpt>
      <trkpt lat="47.29494" lon="-0.1798">
        <ele>65</ele>
        <time>2011-04-03T07:41:38.076Z</time>
      </trkpt>
      <trkpt lat="47.29498" lon="-0.17985">
        <ele>64.3</ele>
        <time>2011-04-03T07:41:38.571Z</time>
      </trkpt>
      <trkpt lat="47.29501" lon="-0.1799">
        <ele>63.6</ele>
        <time>2011-04-03T07:41:38.999Z</time>
      </trkpt>
      <trkpt lat="47.29505" lon="-0.17995">
        <ele>62.8</ele>
        <time>2011-04-03T07:41:39.494Z</time>
      </trkpt>
      <trkpt lat="47.29509" lon="-0.18">
        <ele>62.1</ele>
        <time>2011-04-03T07:41:39.990Z</time>
      </trkpt>
      <trkpt lat="47.29512" lon="-0.18005">
        <ele>61.5</ele>
        <time>2011-04-03T07:41:40.418Z</time>
      </trkpt>
      <trkpt lat="47.29516" lon="-0.1801">
        <ele>60.9</ele>
        <time>2011-04-03T07:41:40.914Z</time>
      </trkpt>
      <trkpt lat="47.29519" lon="-0.18015">
        <ele>60.4</ele>
        <time>2011-04-03T07:41:41.342Z</time>
      </trkpt>
      <trkpt lat="47.29523" lon="-0.1802">
        <ele>59.8</ele>
        <time>2011-04-03T07:41:41.838Z</time>
      </trkpt>
      <trkpt lat="47.29526" lon="-0.18025">
        <ele>59.2</ele>
        <time>2011-04-03T07:41:42.266Z</time>
      </trkpt>
      <trkpt lat="47.2953" lon="-0.1803">
        <ele>58.8</ele>
        <time>2011-04-03T07:41:42.762Z</time>
      </trkpt>
      <trkpt lat="47.29534" lon="-0.18036">
        <ele>58.4</ele>
        <time>2011-04-03T07:41:43.301Z</time>
      </trkpt>
      <trkpt lat="47.29537" lon="-0.18041">
        <ele>58</ele>
        <time>2011-04-03T07:41:43.729Z</time>
      </trkpt>
      <trkpt lat="47.29541" lon="-0.18046">
        <ele>57.7</ele>
        <time>2011-04-03T07:41:44.225Z</time>
      </trkpt>
      <trkpt lat="47.29544" lon="-0.18051">
        <ele>57.5</ele>
        <time>2011-04-03T07:41:44.653Z</time>
      </trkpt>
      <trkpt lat="47.29548" lon="-0.18056">
        <ele>57.3</ele>
        <time>2011-04-03T07:41:45.149Z</time>
      </trkpt>
      <trkpt lat="47.29551" lon="-0.18061">
        <ele>57.1</ele>
        <time>2011-04-03T07:41:45.577Z</time>
      </trkpt>
      <trkpt lat="47.29555" lon="-0.18066">
        <ele>57</ele>
        <time>2011-04-03T07:41:46.073Z</time>
      </trkpt>
      <trkpt lat="47.29558" lon="-0.18071">
        <ele>56.8</ele>
        <time>2011-04-03T07:41:46.502Z</time>
      </trkpt>
      <trkpt lat="47.29562" lon="-0.18076">
        <ele>56.5</ele>
        <time>2011-04-03T07:41:47Z</time>
        <extensions>
          <type>
            <highway>track</highway>
            <surface>undefined</surface>
            </type>
        </extensions>
      </trkpt>
      <trkpt lat="47.29568" lon="-0.18083">
        <ele>56.1</ele>
        <time>2011-04-03T07:41:51.039Z</time>
      </trkpt>
      <trkpt lat="47.29574" lon="-0.1809">
        <ele>55.6</ele>
        <time>2011-04-03T07:41:55.078Z</time>
      </trkpt>
      <trkpt lat="47.2958" lon="-0.18097">
        <ele>55.2</ele>
        <time>2011-04-03T07:41:59.117Z</time>
      </trkpt>
      <trkpt lat="47.29586" lon="-0.18104">
        <ele>54.9</ele>
        <time>2011-04-03T07:42:03.156Z</time>
      </trkpt>
      <trkpt lat="47.29592" lon="-0.18111">
        <ele>54.7</ele>
        <time>2011-04-03T07:42:07.196Z</time>
      </trkpt>
      <trkpt lat="47.29598" lon="-0.18118">
        <ele>54.6</ele>
        <time>2011-04-03T07:42:11.236Z</time>
      </trkpt>
      <trkpt lat="47.29604" lon="-0.18125">
        <ele>54.6</ele>
        <time>2011-04-03T07:42:15.276Z</time>
      </trkpt>
      <trkpt lat="47.2961" lon="-0.18132">
        <ele>54.7</ele>
        <time>2011-04-03T07:42:19.316Z</time>
      </trkpt>
      <trkpt lat="47.29615" lon="-0.18138">
        <ele>54.8</ele>
        <time>2011-04-03T07:42:22.720Z</time>
      </trkpt>
      <trkpt lat="47.29621" lon="-0.18145">
        <ele>54.6</ele>
        <time>2011-04-03T07:42:26.760Z</time>
      </trkpt>
      <trkpt lat="47.29627" lon="-0.18152">
        <ele>54.4</ele>
        <time>2011-04-03T07:42:30.800Z</time>
      </trkpt>
      <trkpt lat="47.29633" lon="-0.18159">
        <ele>54.2</ele>
        <time>2011-04-03T07:42:34.840Z</time>
      </trkpt>
      <trkpt lat="47.29639" lon="-0.18166">
        <ele>54</ele>
        <time>2011-04-03T07:42:38.880Z</time>
      </trkpt>
      <trkpt lat="47.29645" lon="-0.18173">
        <ele>54.7</ele>
        <time>2011-04-03T07:42:42.920Z</time>
      </trkpt>
      <trkpt lat="47.29651" lon="-0.1818">
        <ele>55.4</ele>
        <time>2011-04-03T07:42:46.960Z</time>
      </trkpt>
      <trkpt lat="47.29657" lon="-0.18187">
        <ele>56</ele>
        <time>2011-04-03T07:42:51Z</time>
        <extensions>
          <type>
            <highway>track</highway>
            <surface>undefined</surface>
            </type>
        </extensions>
      </trkpt>
      <trkpt lat="47.2966" lon="-0.18192">
        <ele>56.4</ele>
        <time>2011-04-03T07:42:53.429Z</time>
      </trkpt>
      <trkpt lat="47.29663" lon="-0.18198">
        <ele>56.9</ele>
        <time>2011-04-03T07:42:56.141Z</time>
      </trkpt>
      <trkpt lat="47.29666" lon="-0.18203">
        <ele>57.5</ele>
        <time>2011-04-03T07:42:58.570Z</time>
      </trkpt>
      <trkpt lat="47.29669" lon="-0.18208">
        <ele>58.3</ele>
        <time>2011-04-03T07:43:01Z</time>
        <extensions>
          <type>
            <highway>track</highway>
            <surface>undefined</surface>
            </type>
        </extensions>
      </trkpt>
      <trkpt lat="47.29673" lon="-0.1822">
        <ele>59.8</ele>
        <time>2011-04-03T07:43:04.413Z</time>
      </trkpt>
      <trkpt lat="47.29678" lon="-0.18231">
        <ele>61.3</ele>
        <time>2011-04-03T07:43:07.793Z</time>
      </trkpt>
      <trkpt lat="47.29682" lon="-0.18243">
        <ele>62.6</ele>
        <time>2011-04-03T07:43:11.206Z</time>
      </trkpt>
      <trkpt lat="47.29686" lon="-0.18255">
        <ele>63.7</ele>
        <time>2011-04-03T07:43:14.619Z</time>
      </trkpt>
      <trkpt lat="47.2969" lon="-0.18266">
        <ele>64.9</ele>
        <time>2011-04-03T07:43:17.805Z</time>
      </trkpt>
      <trkpt lat="47.29695" lon="-0.18278">
        <ele>66</ele>
        <time>2011-04-03T07:43:21.400Z</time>
      </trkpt>
      <trkpt lat="47.29699" lon="-0.18289">
        <ele>66.4</ele>
        <time>2011-04-03T07:43:24.586Z</time>
      </trkpt>
      <trkpt lat="47.29703" lon="-0.18301">
        <ele>66.8</ele>
        <time>2011-04-03T07:43:28Z</time>
        <extensions>
          <type>
            <highway>track</highway>
            <surface>undefined</surface>
            </type>
        </extensions>
      </trkpt>
      <trkpt lat="47.297" lon="-0.18307">
        <ele>67.1</ele>
        <time>2011-04-03T07:43:29.496Z</time>
      </trkpt>
      <trkpt lat="47.29697" lon="-0.18313">
        <ele>67.3</ele>
        <time>2011-04-03T07:43:30.992Z</time>
      </trkpt>
      <trkpt lat="47.29694" lon="-0.18319">
        <ele>67.5</ele>
        <time>2011-04-03T07:43:32.488Z</time>
      </trkpt>
      <trkpt lat="47.29692" lon="-0.18326">
        <ele>67.6</ele>
        <time>2011-04-03T07:43:34.013Z</time>
      </trkpt>
      <trkpt lat="47.29689" lon="-0.18332">
        <ele>67.7</ele>
        <time>2011-04-03T07:43:35.509Z</time>
      </trkpt>
      <trkpt lat="47.29686" lon="-0.18338">
        <ele>67.8</ele>
        <time>2011-04-03T07:43:37.005Z</time>
      </trkpt>
      <trkpt lat="47.29683" lon="-0.18344">
        <ele>67.8</ele>
        <time>2011-04-03T07:43:38.502Z</time>
      </trkpt>
      <trkpt lat="47.2968" lon="-0.1835">
        <ele>67.8</ele>
        <time>2011-04-03T07:43:40Z</time>
        <extensions>
          <type>
            <highway>track</highway>
            <surface>undefined</surface>
            </type>
        </extensions>
      </trkpt>
      <trkpt lat="47.29679" lon="-0.18357">
        <ele>67.8</ele>
        <time>2011-04-03T07:43:41.230Z</time>
      </trkpt>
      <trkpt lat="47.29678" lon="-0.18364">
        <ele>67.9</ele>
        <time>2011-04-03T07:43:42.461Z</time>
      </trkpt>
      <trkpt lat="47.29676" lon="-0.18371">
        <ele>68</ele>
        <time>2011-04-03T07:43:43.768Z</time>
      </trkpt>
      <trkpt lat="47.29675" lon="-0.18378">
        <ele>68.2</ele>
        <time>2011-04-03T07:43:44.999Z</time>
      </trkpt>
      <trkpt lat="47.29674" lon="-0.18385">
        <ele>68.4</ele>
        <time>2011-04-03T07:43:46.230Z</time>
      </trkpt>
      <trkpt lat="47.29673" lon="-0.18392">
        <ele>68.6</ele>
        <time>2011-04-03T07:43:47.461Z</time>
      </trkpt>
      <trkpt lat="47.29671" lon="-0.18399">
        <ele>69</ele>
        <time>2011-04-03T07:43:48.768Z</time>
      </trkpt>
      <trkpt lat="47.2967" lon="-0.18406">
        <ele>69.4</ele>
        <time>2011-04-03T07:43:50Z</time>
        <extensions>
          <type>
            <highway>track</highway>
            <surface>undefined</surface>
            </type>
        </extensions>
      </trkpt>
      <trkpt lat="47.29667" lon="-0.18413">
        <ele>69.8</ele>
        <time>2011-04-03T07:43:51.222Z</time>
      </trkpt>
      <trkpt lat="47.29664" lon="-0.18421">
        <ele>69.9</ele>
        <time>2011-04-03T07:43:52.571Z</time>
      </trkpt>
      <trkpt lat="47.29661" lon="-0.18428">
        <ele>69.8</ele>
        <time>2011-04-03T07:43:53.793Z</time>
      </trkpt>
      <trkpt lat="47.29659" lon="-0.18435">
        <ele>69.8</ele>
        <time>2011-04-03T07:43:54.914Z</time>
      </trkpt>
      <trkpt lat="47.29656" lon="-0.18443">
        <ele>69.7</ele>
        <time>2011-04-03T07:43:56.263Z</time>
      </trkpt>
      <trkpt lat="47.29653" lon="-0.1845">
        <ele>69.8</ele>
        <time>2011-04-03T07:43:57.485Z</time>
      </trkpt>
      <trkpt lat="47.2965" lon="-0.18457">
        <ele>69.9</ele>
        <time>2011-04-03T07:43:58.707Z</time>
      </trkpt>
      <trkpt lat="47.29647" lon="-0.18465">
        <ele>70.1</ele>
        <time>2011-04-03T07:44:00.056Z</time>
      </trkpt>
      <trkpt lat="47.29644" lon="-0.18472">
        <ele>70.3</ele>
        <time>2011-04-03T07:44:01.278Z</time>
      </trkpt>
      <trkpt lat="47.29641" lon="-0.18479">
        <ele>70.4</ele>
        <time>2011-04-03T07:44:02.500Z</time>
      </trkpt>
      <trkpt lat="47.29638" lon="-0.18486">
        <ele>70.5</ele>
        <time>2011-04-03T07:44:03.722Z</time>
      </trkpt>
      <trkpt lat="47.29636" lon="-0.18494">
        <ele>70.5</ele>
        <time>2011-04-03T07:44:04.981Z</time>
      </trkpt>
      <trkpt lat="47.29633" lon="-0.18501">
        <ele>70.6</ele>
        <time>2011-04-03T07:44:06.203Z</time>
      </trkpt>
      <trkpt lat="47.2963" lon="-0.18508">
        <ele>70.8</ele>
        <time>2011-04-03T07:44:07.426Z</time>
      </trkpt>
      <trkpt lat="47.29627" lon="-0.18516">
        <ele>71</ele>
        <time>2011-04-03T07:44:08.776Z</time>
      </trkpt>
      <trkpt lat="47.29624" lon="-0.18523">
        <ele>71.1</ele>
        <time>2011-04-03T07:44:10Z</time>
        <extensions>
          <type>
            <highway>track</highway>
            <surface>undefined</surface>
            </type>
        </extensions>
      </trkpt>
      <trkpt lat="47.29625" lon="-0.18532">
        <ele>71.6</ele>
        <time>2011-04-03T07:44:11.464Z</time>
      </trkpt>
      <trkpt lat="47.29625" lon="-0.1854">
        <ele>72.2</ele>
        <time>2011-04-03T07:44:12.749Z</time>
      </trkpt>
      <trkpt lat="47.29626" lon="-0.18549">
        <ele>72.7</ele>
        <time>2011-04-03T07:44:14.214Z</time>
      </trkpt>
      <trkpt lat="47.29626" lon="-0.18557">
        <ele>73.1</ele>
        <time>2011-04-03T07:44:15.499Z</time>
      </trkpt>
      <trkpt lat="47.29627" lon="-0.18566">
        <ele>73.5</ele>
        <time>2011-04-03T07:44:16.964Z</time>
      </trkpt>
      <trkpt lat="47.29627" lon="-0.18574">
        <ele>73.8</ele>
        <time>2011-04-03T07:44:18.249Z</time>
      </trkpt>
      <trkpt lat="47.29628" lon="-0.18583">
        <ele>74.2</ele>
        <time>2011-04-03T07:44:19.714Z</time>
      </trkpt>
      <trkpt lat="47.29628" lon="-0.18591">
        <ele>74.3</ele>
        <time>2011-04-03T07:44:21Z</time>
        <extensions>
          <type>
            <highway>track</highway>
            <surface>undefined</surface>
            </type>
        </extensions>
      </trkpt>
      <trkpt lat="47.2963" lon="-0.18601">
        <ele>74.6</ele>
        <time>2011-04-03T07:44:22.797Z</time>
      </trkpt>
      <trkpt lat="47.29633" lon="-0.1861">
        <ele>74.8</ele>
        <time>2011-04-03T07:44:24.525Z</time>
      </trkpt>
      <trkpt lat="47.29635" lon="-0.1862">
        <ele>74.9</ele>
        <time>2011-04-03T07:44:26.322Z</time>
      </trkpt>
      <trkpt lat="47.29638" lon="-0.18629">
        <ele>74.9</ele>
        <time>2011-04-03T07:44:28.051Z</time>
      </trkpt>
      <trkpt lat="47.2964" lon="-0.18639">
        <ele>75</ele>
        <time>2011-04-03T07:44:29.848Z</time>
      </trkpt>
      <trkpt lat="47.29642" lon="-0.18648">
        <ele>75.4</ele>
        <time>2011-04-03T07:44:31.481Z</time>
      </trkpt>
      <trkpt lat="47.29645" lon="-0.18658">
        <ele>75.9</ele>
        <time>2011-04-03T07:44:33.366Z</time>
      </trkpt>
      <trkpt lat="47.29647" lon="-0.18667">
        <ele>76.3</ele>
        <time>2011-04-03T07:44:35Z</time>
        <extensions>
          <type>
            <highway>track</highway>
            <surface>undefined</surface>
            </type>
        </extensions>
      </trkpt>
      <trkpt lat="47.29648" lon="-0.18675">
        <ele>76.3</ele>
        <time>2011-04-03T07:44:36.618Z</time>
      </trkpt>
      <trkpt lat="47.29649" lon="-0.18683">
        <ele>76.3</ele>
        <time>2011-04-03T07:44:38.237Z</time>
      </trkpt>
      <trkpt lat="47.29649" lon="-0.1869">
        <ele>76.4</ele>
        <time>2011-04-03T07:44:39.630Z</time>
      </trkpt>
      <trkpt lat="47.2965" lon="-0.18698">
        <ele>76.4</ele>
        <time>2011-04-03T07:44:41.249Z</time>
      </trkpt>
      <trkpt lat="47.29651" lon="-0.18706">
        <ele>76.4</ele>
        <time>2011-04-03T07:44:42.868Z</time>
      </trkpt>
      <trkpt lat="47.29652" lon="-0.18714">
        <ele>76.5</ele>
        <time>2011-04-03T07:44:44.487Z</time>
      </trkpt>
      <trkpt lat="47.29652" lon="-0.18721">
        <ele>76.5</ele>
        <time>2011-04-03T07:44:45.880Z</time>
      </trkpt>
      <trkpt lat="47.29653" lon="-0.18729">
        <ele>76.5</ele>
        <time>2011-04-03T07:44:47.499Z</time>
      </trkpt>
      <trkpt lat="47.29654" lon="-0.18737">
        <ele>76.5</ele>
        <time>2011-04-03T07:44:49.118Z</time>
      </trkpt>
      <trkpt lat="47.29655" lon="-0.18745">
        <ele>76.6</ele>
        <time>2011-04-03T07:44:50.737Z</time>
      </trkpt>
      <trkpt lat="47.29655" lon="-0.18752">
        <ele>76.6</ele>
        <time>2011-04-03T07:44:52.130Z</time>
      </trkpt>
      <trkpt lat="47.29656" lon="-0.1876">
        <ele>76.8</ele>
        <time>2011-04-03T07:44:53.749Z</time>
      </trkpt>
      <trkpt lat="47.29657" lon="-0.18768">
        <ele>76.9</ele>
        <time>2011-04-03T07:44:55.368Z</time>
      </trkpt>
      <trkpt lat="47.29658" lon="-0.18776">
        <ele>77</ele>
        <time>2011-04-03T07:44:56.987Z</time>
      </trkpt>
      <trkpt lat="47.29658" lon="-0.18783">
        <ele>77</ele>
        <time>2011-04-03T07:44:58.380Z</time>
      </trkpt>
      <trkpt lat="47.29659" lon="-0.18791">
        <ele>77</ele>
        <time>2011-04-03T07:45:00Z</time>
        <extensions>
          <type>
            <highway>track</highway>
            <surface>undefined</surface>
            </type>
        </extensions>
      </trkpt>
      <trkpt lat="47.29654" lon="-0.18799">
        <ele>77</ele>
        <time>2011-04-03T07:45:02.114Z</time>
      </trkpt>
      <trkpt lat="47.29648" lon="-0.18808">
        <ele>77</ele>
        <time>2011-04-03T07:45:04.567Z</time>
      </trkpt>
      <trkpt lat="47.29643" lon="-0.18816">
        <ele>77</ele>
        <time>2011-04-03T07:45:06.681Z</time>
      </trkpt>
      <trkpt lat="47.29637" lon="-0.18824">
        <ele>77</ele>
        <time>2011-04-03T07:45:09Z</time>
        <extensions>
          <type>
            <highway>track</highway>
            <surface>undefined</surface>
            </type>
        </extensions>
      </trkpt>
      <trkpt lat="47.29633" lon="-0.18834">
        <ele>77.2</ele>
        <time>2011-04-03T07:45:11.029Z</time>
      </trkpt>
      <trkpt lat="47.2963" lon="-0.18844">
        <ele>77.6</ele>
        <time>2011-04-03T07:45:12.940Z</time>
      </trkpt>
      <trkpt lat="47.29626" lon="-0.18854">
        <ele>77.9</ele>
        <time>2011-04-03T07:45:14.969Z</time>
      </trkpt>
      <trkpt lat="47.29622" lon="-0.18864">
        <ele>78.1</ele>
        <time>2011-04-03T07:45:17Z</time>
        <extensions>
          <type>
            <highway>track</highway>
            <surface>undefined</surface>
            </type>
        </extensions>
      </trkpt>
      <trkpt lat="47.29617" lon="-0.18873">
        <ele>78.3</ele>
        <time>2011-04-03T07:45:19.111Z</time>
      </trkpt>
      <trkpt lat="47.29613" lon="-0.18881">
        <ele>78.7</ele>
        <time>2011-04-03T07:45:20.914Z</time>
      </trkpt>
      <trkpt lat="47.29608" lon="-0.1889">
        <ele>79.1</ele>
        <time>2011-04-03T07:45:23.025Z</time>
      </trkpt>
      <trkpt lat="47.29603" lon="-0.18898">
        <ele>79.3</ele>
        <time>2011-04-03T07:45:25Z</time>
        <extensions>
          <type>
            <highway>track</highway>
            <surface>undefined</surface>
            </type>
        </extensions>
      </trkpt>
      <trkpt lat="47.29597" lon="-0.18902">
        <ele>79.5</ele>
        <time>2011-04-03T07:45:27Z</time>
        <extensions>
          <type>
            <highway>track</highway>
            <surface>undefined</surface>
            </type>
        </extensions>
      </trkpt>
      <trkpt lat="47.29589" lon="-0.18902">
        <ele>79.8</ele>
        <time>2011-04-03T07:45:29.836Z</time>
      </trkpt>
      <trkpt lat="47.29582" lon="-0.18902">
        <ele>80.1</ele>
        <time>2011-04-03T07:45:32.317Z</time>
      </trkpt>
      <trkpt lat="47.29574" lon="-0.18901">
        <ele>80.5</ele>
        <time>2011-04-03T07:45:35.163Z</time>
      </trkpt>
      <trkpt lat="47.29566" lon="-0.18901">
        <ele>80.9</ele>
        <time>2011-04-03T07:45:38Z</time>
        <extensions>
          <type>
            <highway>track</highway>
            <surface>undefined</surface>
            </type>
        </extensions>
      </trkpt>
      <trkpt lat="47.29563" lon="-0.18913">
        <ele>81.4</ele>
        <time>2011-04-03T07:45:40.913Z</time>
      </trkpt>
      <trkpt lat="47.2956" lon="-0.18926">
        <ele>82</ele>
        <time>2011-04-03T07:45:44.040Z</time>
      </trkpt>
      <trkpt lat="47.29556" lon="-0.18938">
        <ele>82.7</ele>
        <time>2011-04-03T07:45:47.086Z</time>
      </trkpt>
      <trkpt lat="47.29553" lon="-0.1895">
        <ele>83</ele>
        <time>2011-04-03T07:45:50Z</time>
        <extensions>
          <type>
            <highway>track</highway>
            <surface>undefined</surface>
            </type>
        </extensions>
      </trkpt>
      <trkpt lat="47.29548" lon="-0.1895">
        <ele>83</ele>
        <time>2011-04-03T07:45:51.701Z</time>
      </trkpt>
      <trkpt lat="47.29544" lon="-0.18949">
        <ele>83.1</ele>
        <time>2011-04-03T07:45:53.081Z</time>
      </trkpt>
      <trkpt lat="47.29539" lon="-0.18949">
        <ele>83.1</ele>
        <time>2011-04-03T07:45:54.782Z</time>
      </trkpt>
      <trkpt lat="47.29534" lon="-0.18948">
        <ele>83.1</ele>
        <time>2011-04-03T07:45:56.499Z</time>
      </trkpt>
      <trkpt lat="47.29529" lon="-0.18948">
        <ele>83.1</ele>
        <time>2011-04-03T07:45:58.200Z</time>
      </trkpt>
      <trkpt lat="47.29525" lon="-0.18947">
        <ele>83.1</ele>
        <time>2011-04-03T07:45:59.580Z</time>
      </trkpt>
      <trkpt lat="47.2952" lon="-0.18947">
        <ele>83.1</ele>
        <time>2011-04-03T07:46:01.282Z</time>
      </trkpt>
      <trkpt lat="47.29515" lon="-0.18946">
        <ele>83.1</ele>
        <time>2011-04-03T07:46:03Z</time>
        <extensions>
          <type>
            <highway>track</highway>
            <surface>undefined</surface>
            </type>
        </extensions>
      </trkpt>
      <trkpt lat="47.29511" lon="-0.18951">
        <ele>83.2</ele>
        <time>2011-04-03T07:46:04.656Z</time>
      </trkpt>
      <trkpt lat="47.29506" lon="-0.18956">
        <ele>83.4</ele>
        <time>2011-04-03T07:46:06.564Z</time>
      </trkpt>
      <trkpt lat="47.29502" lon="-0.1896">
        <ele>83.6</ele>
        <time>2011-04-03T07:46:08.091Z</time>
      </trkpt>
      <trkpt lat="47.29497" lon="-0.18965">
        <ele>83.6</ele>
        <time>2011-04-03T07:46:10Z</time>
        <extensions>
          <type>
            <highway>undefined</highway>
            <surface>undefined</surface>
            </type>
        </extensions>
      </trkpt>
      <trkpt lat="47.29493" lon="-0.18973">
        <ele>83.8</ele>
        <time>2011-04-03T07:46:11.722Z</time>
      </trkpt>
      <trkpt lat="47.29489" lon="-0.18981">
        <ele>83.9</ele>
        <time>2011-04-03T07:46:13.444Z</time>
      </trkpt>
      <trkpt lat="47.29485" lon="-0.18989">
        <ele>84.1</ele>
        <time>2011-04-03T07:46:15.166Z</time>
      </trkpt>
      <trkpt lat="47.29481" lon="-0.18998">
        <ele>84.2</ele>
        <time>2011-04-03T07:46:17.030Z</time>
      </trkpt>
      <trkpt lat="47.29477" lon="-0.19006">
        <ele>84.3</ele>
        <time>2011-04-03T07:46:18.752Z</time>
      </trkpt>
      <trkpt lat="47.29473" lon="-0.19014">
        <ele>84.5</ele>
        <time>2011-04-03T07:46:20.474Z</time>
      </trkpt>
      <trkpt lat="47.29469" lon="-0.19022">
        <ele>84.8</ele>
        <time>2011-04-03T07:46:22.196Z</time>
      </trkpt>
      <trkpt lat="47.29465" lon="-0.1903">
        <ele>85</ele>
        <time>2011-04-03T07:46:23.918Z</time>
      </trkpt>
      <trkpt lat="47.2946" lon="-0.19038">
        <ele>85</ele>
        <time>2011-04-03T07:46:25.802Z</time>
      </trkpt>
      <trkpt lat="47.29456" lon="-0.19046">
        <ele>85</ele>
        <time>2011-04-03T07:46:27.524Z</time>
      </trkpt>
      <trkpt lat="47.29452" lon="-0.19054">
        <ele>85</ele>
        <time>2011-04-03T07:46:29.246Z</time>
      </trkpt>
      <trkpt lat="47.29448" lon="-0.19063">
        <ele>85</ele>
        <time>2011-04-03T07:46:31.110Z</time>
      </trkpt>
      <trkpt lat="47.29444" lon="-0.19071">
        <ele>85</ele>
        <time>2011-04-03T07:46:32.832Z</time>
      </trkpt>
      <trkpt lat="47.2944" lon="-0.19079">
        <ele>85.2</ele>
        <time>2011-04-03T07:46:34.554Z</time>
      </trkpt>
      <trkpt lat="47.29436" lon="-0.19087">
        <ele>85.4</ele>
        <time>2011-04-03T07:46:36.276Z</time>
      </trkpt>
      <trkpt lat="47.29432" lon="-0.19095">
        <ele>85.7</ele>
        <time>2011-04-03T07:46:38Z</time>
        <extensions>
          <type>
            <highway>undefined</highway>
            <surface>undefined</surface>
            </type>
        </extensions>
      </trkpt>
      <trkpt lat="47.29425" lon="-0.19095">
        <ele>85.8</ele>
        <time>2011-04-03T07:46:40.000Z</time>
      </trkpt>
      <trkpt lat="47.29418" lon="-0.19095">
        <ele>86</ele>
        <time>2011-04-03T07:46:42Z</time>
        <extensions>
          <type>
            <highway>undefined</highway>
            <surface>undefined</surface>
            </type>
        </extensions>
      </trkpt>
      <trkpt lat="47.29414" lon="-0.19086">
        <ele>86</ele>
        <time>2011-04-03T07:46:43.588Z</time>
      </trkpt>
      <trkpt lat="47.29409" lon="-0.19078">
        <ele>85.9</ele>
        <time>2011-04-03T07:46:45.193Z</time>
      </trkpt>
      <trkpt lat="47.29405" lon="-0.19069">
        <ele>85.8</ele>
        <time>2011-04-03T07:46:46.781Z</time>
      </trkpt>
      <trkpt lat="47.294" lon="-0.1906">
        <ele>85.5</ele>
        <time>2011-04-03T07:46:48.498Z</time>
      </trkpt>
      <trkpt lat="47.29396" lon="-0.19051">
        <ele>85.2</ele>
        <time>2011-04-03T07:46:50.086Z</time>
      </trkpt>
      <trkpt lat="47.29391" lon="-0.19043">
        <ele>85</ele>
        <time>2011-04-03T07:46:51.692Z</time>
      </trkpt>
      <trkpt lat="47.29387" lon="-0.19034">
        <ele>84.9</ele>
        <time>2011-04-03T07:46:53.281Z</time>
      </trkpt>
      <trkpt lat="47.29382" lon="-0.19025">
        <ele>84.7</ele>
        <time>2011-04-03T07:46:55Z</time>
        <extensions>
          <type>
            <highway>undefined</highway>
            <surface>undefined</surface>
            </type>
        </extensions>
      </trkpt>
      <trkpt lat="47.2938" lon="-0.19017">
        <ele>84.3</ele>
        <time>2011-04-03T07:46:56.499Z</time>
      </trkpt>
      <trkpt lat="47.29378" lon="-0.19009">
        <ele>83.9</ele>
        <time>2011-04-03T07:46:58Z</time>
        <extensions>
          <type>
            <highway>track</highway>
            <surface>undefined</surface>
            </type>
        </extensions>
      </trkpt>
      <trkpt lat="47.29381" lon="-0.19003">
        <ele>83.8</ele>
        <time>2011-04-03T07:46:59.181Z</time>
      </trkpt>
      <trkpt lat="47.29384" lon="-0.18996">
        <ele>83.7</ele>
        <time>2011-04-03T07:47:00.493Z</time>
      </trkpt>
      <trkpt lat="47.29387" lon="-0.1899">
        <ele>83.6</ele>
        <time>2011-04-03T07:47:01.675Z</time>
      </trkpt>
      <trkpt lat="47.29391" lon="-0.18984">
        <ele>83.4</ele>
        <time>2011-04-03T07:47:03.009Z</time>
      </trkpt>
      <trkpt lat="47.29394" lon="-0.18977">
        <ele>83.2</ele>
        <time>2011-04-03T07:47:04.322Z</time>
      </trkpt>
      <trkpt lat="47.29397" lon="-0.18971">
        <ele>82.9</ele>
        <time>2011-04-03T07:47:05.504Z</time>
      </trkpt>
      <trkpt lat="47.294" lon="-0.18964">
        <ele>82.4</ele>
        <time>2011-04-03T07:47:06.817Z</time>
      </trkpt>
      <trkpt lat="47.29403" lon="-0.18958">
        <ele>82</ele>
        <time>2011-04-03T07:47:08Z</time>
        <extensions>
          <type>
            <highway>track</highway>
            <surface>undefined</surface>
            </type>
        </extensions>
      </trkpt>
      <trkpt lat="47.294" lon="-0.18947">
        <ele>81.1</ele>
        <time>2011-04-03T07:47:09.879Z</time>
      </trkpt>
      <trkpt lat="47.29396" lon="-0.18935">
        <ele>80.7</ele>
        <time>2011-04-03T07:47:12Z</time>
        <extensions>
          <type>
            <highway>track</highway>
            <surface>undefined</surface>
            </type>
        </extensions>
      </trkpt>
      <trkpt lat="47.29391" lon="-0.1893">
        <ele>80.5</ele>
        <time>2011-04-03T07:47:12.925Z</time>
      </trkpt>
      <trkpt lat="47.29385" lon="-0.18924">
        <ele>80.3</ele>
        <time>2011-04-03T07:47:14.035Z</time>
      </trkpt>
      <trkpt lat="47.2938" lon="-0.18919">
        <ele>80.1</ele>
        <time>2011-04-03T07:47:14.960Z</time>
      </trkpt>
      <trkpt lat="47.29375" lon="-0.18913">
        <ele>79.8</ele>
        <time>2011-04-03T07:47:15.947Z</time>
      </trkpt>
      <trkpt lat="47.29369" lon="-0.18908">
        <ele>79.6</ele>
        <time>2011-04-03T07:47:17.002Z</time>
      </trkpt>
      <trkpt lat="47.29364" lon="-0.18902">
        <ele>79.4</ele>
        <time>2011-04-03T07:47:17.989Z</time>
      </trkpt>
      <trkpt lat="47.29358" lon="-0.18897">
        <ele>79.3</ele>
        <time>2011-04-03T07:47:19.044Z</time>
      </trkpt>
      <trkpt lat="47.29353" lon="-0.18892">
        <ele>79.1</ele>
        <time>2011-04-03T07:47:19.969Z</time>
      </trkpt>
      <trkpt lat="47.29348" lon="-0.18886">
        <ele>78.8</ele>
        <time>2011-04-03T07:47:20.956Z</time>
      </trkpt>
      <trkpt lat="47.29342" lon="-0.18881">
        <ele>78.4</ele>
        <time>2011-04-03T07:47:22.012Z</time>
      </trkpt>
      <trkpt lat="47.29337" lon="-0.18875">
        <ele>78</ele>
        <time>2011-04-03T07:47:23.000Z</time>
      </trkpt>
      <trkpt lat="47.29332" lon="-0.1887">
        <ele>77.6</ele>
        <time>2011-04-03T07:47:23.925Z</time>
      </trkpt>
      <trkpt lat="47.29326" lon="-0.18864">
        <ele>77</ele>
        <time>2011-04-03T07:47:25.036Z</time>
      </trkpt>
      <trkpt lat="47.29321" lon="-0.18859">
        <ele>76.4</ele>
        <time>2011-04-03T07:47:25.962Z</time>
      </trkpt>
      <trkpt lat="47.29315" lon="-0.18853">
        <ele>75.8</ele>
        <time>2011-04-03T07:47:27.073Z</time>
      </trkpt>
      <trkpt lat="47.2931" lon="-0.18848">
        <ele>75.2</ele>
        <time>2011-04-03T07:47:28Z</time>
        <extensions>
          <type>
            <highway>track</highway>
            <surface>undefined</surface>
            </type>
        </extensions>
      </trkpt>
      <trkpt lat="47.29303" lon="-0.18843">
        <ele>74.6</ele>
        <time>2011-04-03T07:47:29.039Z</time>
      </trkpt>
      <trkpt lat="47.29297" lon="-0.18839">
        <ele>73.7</ele>
        <time>2011-04-03T07:47:29.919Z</time>
      </trkpt>
      <trkpt lat="47.2929" lon="-0.18834">
        <ele>72.9</ele>
        <time>2011-04-03T07:47:30.959Z</time>
      </trkpt>
      <trkpt lat="47.29283" lon="-0.18829">
        <ele>72.1</ele>
        <time>2011-04-03T07:47:32Z</time>
        <extensions>
          <type>
            <highway>track</highway>
            <surface>undefined</surface>
            </type>
        </extensions>
      </trkpt>
      <trkpt lat="47.29278" lon="-0.18822">
        <ele>71.1</ele>
        <time>2011-04-03T07:47:32.932Z</time>
      </trkpt>
      <trkpt lat="47.29272" lon="-0.18815">
        <ele>70</ele>
        <time>2011-04-03T07:47:33.966Z</time>
      </trkpt>
      <trkpt lat="47.29267" lon="-0.18807">
        <ele>68.9</ele>
        <time>2011-04-03T07:47:34.964Z</time>
      </trkpt>
      <trkpt lat="47.29261" lon="-0.188">
        <ele>67.9</ele>
        <time>2011-04-03T07:47:36Z</time>
        <extensions>
          <type>
            <highway>track</highway>
            <surface>undefined</surface>
            </type>
        </extensions>
      </trkpt>
      <trkpt lat="47.29253" lon="-0.18796">
        <ele>66.9</ele>
        <time>2011-04-03T07:47:37.749Z</time>
      </trkpt>
      <trkpt lat="47.29245" lon="-0.18792">
        <ele>66</ele>
        <time>2011-04-03T07:47:39.499Z</time>
      </trkpt>
      <trkpt lat="47.29237" lon="-0.18788">
        <ele>65</ele>
        <time>2011-04-03T07:47:41.249Z</time>
      </trkpt>
      <trkpt lat="47.29229" lon="-0.18784">
        <ele>64</ele>
        <time>2011-04-03T07:47:43Z</time>
        <extensions>
          <type>
            <highway>track</highway>
            <surface>undefined</surface>
            </type>
        </extensions>
      </trkpt>
      <trkpt lat="47.29226" lon="-0.18794">
        <ele>64</ele>
        <time>2011-04-03T07:47:45.071Z</time>
      </trkpt>
      <trkpt lat="47.29223" lon="-0.18804">
        <ele>64</ele>
        <time>2011-04-03T07:47:47.142Z</time>
      </trkpt>
      <trkpt lat="47.29219" lon="-0.18814">
        <ele>64.4</ele>
        <time>2011-04-03T07:47:49.341Z</time>
      </trkpt>
      <trkpt lat="47.29216" lon="-0.18825">
        <ele>64.8</ele>
        <time>2011-04-03T07:47:51.586Z</time>
      </trkpt>
      <trkpt lat="47.29213" lon="-0.18835">
        <ele>65.1</ele>
        <time>2011-04-03T07:47:53.657Z</time>
      </trkpt>
      <trkpt lat="47.2921" lon="-0.18845">
        <ele>65.4</ele>
        <time>2011-04-03T07:47:55.728Z</time>
      </trkpt>
      <trkpt lat="47.29206" lon="-0.18855">
        <ele>65.8</ele>
        <time>2011-04-03T07:47:57.927Z</time>
      </trkpt>
      <trkpt lat="47.29203" lon="-0.18865">
        <ele>66.1</ele>
        <time>2011-04-03T07:48:00Z</time>
        <extensions>
          <type>
            <highway>track</highway>
            <surface>undefined</surface>
            </type>
        </extensions>
      </trkpt>
      <trkpt lat="47.29198" lon="-0.18874">
        <ele>65.9</ele>
        <time>2011-04-03T07:48:01.514Z</time>
      </trkpt>
      <trkpt lat="47.29193" lon="-0.18883">
        <ele>65.7</ele>
        <time>2011-04-03T07:48:03.028Z</time>
      </trkpt>
      <trkpt lat="47.29188" lon="-0.18892">
        <ele>65.5</ele>
        <time>2011-04-03T07:48:04.542Z</time>
      </trkpt>
      <trkpt lat="47.29184" lon="-0.18901">
        <ele>65.4</ele>
        <time>2011-04-03T07:48:05.942Z</time>
      </trkpt>
      <trkpt lat="47.29179" lon="-0.1891">
        <ele>65.5</ele>
        <time>2011-04-03T07:48:07.456Z</time>
      </trkpt>
      <trkpt lat="47.29174" lon="-0.18919">
        <ele>65.6</ele>
        <time>2011-04-03T07:48:08.970Z</time>
      </trkpt>
      <trkpt lat="47.29169" lon="-0.18928">
        <ele>65.6</ele>
        <time>2011-04-03T07:48:10.484Z</time>
      </trkpt>
      <trkpt lat="47.29164" lon="-0.18937">
        <ele>65.5</ele>
        <time>2011-04-03T07:48:11.998Z</time>
      </trkpt>
      <trkpt lat="47.29159" lon="-0.18946">
        <ele>65.5</ele>
        <time>2011-04-03T07:48:13.512Z</time>
      </trkpt>
      <trkpt lat="47.29154" lon="-0.18955">
        <ele>65.5</ele>
        <time>2011-04-03T07:48:15.026Z</time>
      </trkpt>
      <trkpt lat="47.29149" lon="-0.18964">
        <ele>65.5</ele>
        <time>2011-04-03T07:48:16.540Z</time>
      </trkpt>
      <trkpt lat="47.29145" lon="-0.18973">
        <ele>65.4</ele>
        <time>2011-04-03T07:48:17.941Z</time>
      </trkpt>
      <trkpt lat="47.2914" lon="-0.18982">
        <ele>65.4</ele>
        <time>2011-04-03T07:48:19.455Z</time>
      </trkpt>
      <trkpt lat="47.29135" lon="-0.18991">
        <ele>65.4</ele>
        <time>2011-04-03T07:48:20.969Z</time>
      </trkpt>
      <trkpt lat="47.2913" lon="-0.19">
        <ele>65.4</ele>
        <time>2011-04-03T07:48:22.484Z</time>
      </trkpt>
      <trkpt lat="47.29125" lon="-0.19009">
        <ele>65.3</ele>
        <time>2011-04-03T07:48:24Z</time>
        <extensions>
          <type>
            <highway>track</highway>
            <surface>undefined</surface>
            </type>
        </extensions>
      </trkpt>
      <trkpt lat="47.2912" lon="-0.1902">
        <ele>65.4</ele>
        <time>2011-04-03T07:48:26.913Z</time>
      </trkpt>
      <trkpt lat="47.29116" lon="-0.19031">
        <ele>65.5</ele>
        <time>2011-04-03T07:48:29.658Z</time>
      </trkpt>
      <trkpt lat="47.29111" lon="-0.19042">
        <ele>65.5</ele>
        <time>2011-04-03T07:48:32.571Z</time>
      </trkpt>
      <trkpt lat="47.29107" lon="-0.19054">
        <ele>65.6</ele>
        <time>2011-04-03T07:48:35.512Z</time>
      </trkpt>
      <trkpt lat="47.29102" lon="-0.19065">
        <ele>65.7</ele>
        <time>2011-04-03T07:48:38.425Z</time>
      </trkpt>
      <trkpt lat="47.29097" lon="-0.19076">
        <ele>65.7</ele>
        <time>2011-04-03T07:48:41.339Z</time>
      </trkpt>
      <trkpt lat="47.29093" lon="-0.19087">
        <ele>65.8</ele>
        <time>2011-04-03T07:48:44.085Z</time>
      </trkpt>
      <trkpt lat="47.29088" lon="-0.19098">
        <ele>65.9</ele>
        <time>2011-04-03T07:48:47Z</time>
        <extensions>
          <type>
            <highway>track</highway>
            <surface>undefined</surface>
            </type>
        </extensions>
      </trkpt>
      <trkpt lat="47.29086" lon="-0.19109">
        <ele>66.1</ele>
        <time>2011-04-03T07:48:49.969Z</time>
      </trkpt>
      <trkpt lat="47.29084" lon="-0.1912">
        <ele>66.3</ele>
        <time>2011-04-03T07:48:52.938Z</time>
      </trkpt>
      <trkpt lat="47.29081" lon="-0.19131">
        <ele>66.6</ele>
        <time>2011-04-03T07:48:56.029Z</time>
      </trkpt>
      <trkpt lat="47.29079" lon="-0.19142">
        <ele>66.8</ele>
        <time>2011-04-03T07:48:59Z</time>
        <extensions>
          <type>
            <highway>track</highway>
            <surface>undefined</surface>
            </type>
        </extensions>
      </trkpt>
      <trkpt lat="47.29076" lon="-0.19149">
        <ele>66.9</ele>
        <time>2011-04-03T07:49:02.065Z</time>
      </trkpt>
      <trkpt lat="47.29074" lon="-0.19157">
        <ele>66.9</ele>
        <time>2011-04-03T07:49:05.221Z</time>
      </trkpt>
      <trkpt lat="47.29071" lon="-0.19164">
        <ele>67</ele>
        <time>2011-04-03T07:49:08.286Z</time>
      </trkpt>
      <trkpt lat="47.29068" lon="-0.19172">
        <ele>67.2</ele>
        <time>2011-04-03T07:49:11.670Z</time>
      </trkpt>
      <trkpt lat="47.29065" lon="-0.19179">
        <ele>67.6</ele>
        <time>2011-04-03T07:49:14.736Z</time>
      </trkpt>
      <trkpt lat="47.29063" lon="-0.19186">
        <ele>67.9</ele>
        <time>2011-04-03T07:49:17.548Z</time>
      </trkpt>
      <trkpt lat="47.2906" lon="-0.19194">
        <ele>68.2</ele>
        <time>2011-04-03T07:49:20.933Z</time>
      </trkpt>
      <trkpt lat="47.29057" lon="-0.19201">
        <ele>68.4</ele>
        <time>2011-04-03T07:49:24Z</time>
        <extensions>
          <type>
            <highway>track</highway>
            <surface>undefined</surface>
            </type>
        </extensions>
      </trkpt>
      <trkpt lat="47.29055" lon="-0.1921">
        <ele>68.5</ele>
        <time>2011-04-03T07:49:39.749Z</time>
      </trkpt>
      <trkpt lat="47.29053" lon="-0.19219">
        <ele>68.7</ele>
        <time>2011-04-03T07:49:55.499Z</time>
      </trkpt>
      <trkpt lat="47.29051" lon="-0.19228">
        <ele>69.1</ele>
        <time>2011-04-03T07:50:11.249Z</time>
      </trkpt>
      <trkpt lat="47.29049" lon="-0.19237">
        <ele>69.5</ele>
        <time>2011-04-03T07:50:26.999Z</time>
      </trkpt>
      <trkpt lat="47.29047" lon="-0.19246">
        <ele>69.8</ele>
        <time>2011-04-03T07:50:42.749Z</time>
      </trkpt>
      <trkpt lat="47.29045" lon="-0.19255">
        <ele>70.1</ele>
        <time>2011-04-03T07:50:58.499Z</time>
      </trkpt>
      <trkpt lat="47.29043" lon="-0.19264">
        <ele>70.4</ele>
        <time>2011-04-03T07:51:14.249Z</time>
      </trkpt>
      <trkpt lat="47.29041" lon="-0.19273">
        <ele>70.7</ele>
        <time>2011-04-03T07:51:30Z</time>
        <extensions>
          <type>
            <highway>track</highway>
            <surface>undefined</surface>
            </type>
        </extensions>
      </trkpt>
      <trkpt lat="47.29034" lon="-0.19279">
        <ele>70.5</ele>
        <time>2011-04-03T07:51:47.847Z</time>
      </trkpt>
      <trkpt lat="47.29026" lon="-0.19284">
        <ele>70.3</ele>
        <time>2011-04-03T07:52:06.999Z</time>
      </trkpt>
      <trkpt lat="47.29019" lon="-0.1929">
        <ele>70</ele>
        <time>2011-04-03T07:52:24.846Z</time>
      </trkpt>
      <trkpt lat="47.29011" lon="-0.19295">
        <ele>69.7</ele>
        <time>2011-04-03T07:52:44Z</time>
        <extensions>
          <type>
            <highway>track</highway>
            <surface>undefined</surface>
            </type>
        </extensions>
      </trkpt>
      <trkpt lat="47.29003" lon="-0.19294">
        <ele>68.8</ele>
        <time>2011-04-03T07:52:45.697Z</time>
      </trkpt>
      <trkpt lat="47.28995" lon="-0.19293">
        <ele>68.4</ele>
        <time>2011-04-03T07:52:47.394Z</time>
      </trkpt>
      <trkpt lat="47.28986" lon="-0.19292">
        <ele>68</ele>
        <time>2011-04-03T07:52:49.302Z</time>
      </trkpt>
      <trkpt lat="47.28978" lon="-0.19291">
        <ele>67.7</ele>
        <time>2011-04-03T07:52:51Z</time>
        <extensions>
          <type>
            <highway>track</highway>
            <surface>undefined</surface>
            </type>
        </extensions>
      </trkpt>
      <trkpt lat="47.28971" lon="-0.19297">
        <ele>67.7</ele>
        <time>2011-04-03T07:52:53.310Z</time>
      </trkpt>
      <trkpt lat="47.28965" lon="-0.19303">
        <ele>67.6</ele>
        <time>2011-04-03T07:52:55.378Z</time>
      </trkpt>
      <trkpt lat="47.28958" lon="-0.19309">
        <ele>67.7</ele>
        <time>2011-04-03T07:52:57.688Z</time>
      </trkpt>
      <trkpt lat="47.28951" lon="-0.19315">
        <ele>67.9</ele>
        <time>2011-04-03T07:53:00Z</time>
        <extensions>
          <type>
            <highway>track</highway>
            <surface>undefined</surface>
            </type>
        </extensions>
      </trkpt>
      <trkpt lat="47.28947" lon="-0.19323">
        <ele>68.4</ele>
        <time>2011-04-03T07:53:01.668Z</time>
      </trkpt>
      <trkpt lat="47.28943" lon="-0.19332">
        <ele>68.8</ele>
        <time>2011-04-03T07:53:03.474Z</time>
      </trkpt>
      <trkpt lat="47.2894" lon="-0.1934">
        <ele>68.9</ele>
        <time>2011-04-03T07:53:05.009Z</time>
      </trkpt>
      <trkpt lat="47.28936" lon="-0.19348">
        <ele>69.1</ele>
        <time>2011-04-03T07:53:06.677Z</time>
      </trkpt>
      <trkpt lat="47.28932" lon="-0.19357">
        <ele>69.3</ele>
        <time>2011-04-03T07:53:08.483Z</time>
      </trkpt>
      <trkpt lat="47.28928" lon="-0.19365">
        <ele>69.6</ele>
        <time>2011-04-03T07:53:10.152Z</time>
      </trkpt>
      <trkpt lat="47.28924" lon="-0.19373">
        <ele>69.8</ele>
        <time>2011-04-03T07:53:11.821Z</time>
      </trkpt>
      <trkpt lat="47.28921" lon="-0.19382">
        <ele>70</ele>
        <time>2011-04-03T07:53:13.505Z</time>
      </trkpt>
      <trkpt lat="47.28917" lon="-0.1939">
        <ele>70</ele>
        <time>2011-04-03T07:53:15.174Z</time>
      </trkpt>
      <trkpt lat="47.28913" lon="-0.19398">
        <ele>70.1</ele>
        <time>2011-04-03T07:53:16.843Z</time>
      </trkpt>
      <trkpt lat="47.28909" lon="-0.19406">
        <ele>70.1</ele>
        <time>2011-04-03T07:53:18.512Z</time>
      </trkpt>
      <trkpt lat="47.28905" lon="-0.19415">
        <ele>70.1</ele>
        <time>2011-04-03T07:53:20.319Z</time>
      </trkpt>
      <trkpt lat="47.28901" lon="-0.19423">
        <ele>70.1</ele>
        <time>2011-04-03T07:53:21.988Z</time>
      </trkpt>
      <trkpt lat="47.28898" lon="-0.19431">
        <ele>70.2</ele>
        <time>2011-04-03T07:53:23.523Z</time>
      </trkpt>
      <trkpt lat="47.28894" lon="-0.1944">
        <ele>70.2</ele>
        <time>2011-04-03T07:53:25.330Z</time>
      </trkpt>
      <trkpt lat="47.2889" lon="-0.19448">
        <ele>70.2</ele>
        <time>2011-04-03T07:53:27Z</time>
        <extensions>
          <type>
            <highway>track</highway>
            <surface>undefined</surface>
            </type>
        </extensions>
      </trkpt>
      <trkpt lat="47.28885" lon="-0.19456">
        <ele>70.2</ele>
        <time>2011-04-03T07:53:29.152Z</time>
      </trkpt>
      <trkpt lat="47.28881" lon="-0.19464">
        <ele>70.2</ele>
        <time>2011-04-03T07:53:31.118Z</time>
      </trkpt>
      <trkpt lat="47.28876" lon="-0.19472">
        <ele>70.1</ele>
        <time>2011-04-03T07:53:33.271Z</time>
      </trkpt>
      <trkpt lat="47.28871" lon="-0.19481">
        <ele>69.8</ele>
        <time>2011-04-03T07:53:35.573Z</time>
      </trkpt>
      <trkpt lat="47.28866" lon="-0.19489">
        <ele>69.5</ele>
        <time>2011-04-03T07:53:37.726Z</time>
      </trkpt>
      <trkpt lat="47.28862" lon="-0.19497">
        <ele>69</ele>
        <time>2011-04-03T07:53:39.693Z</time>
      </trkpt>
      <trkpt lat="47.28857" lon="-0.19505">
        <ele>69.1</ele>
        <time>2011-04-03T07:53:41.846Z</time>
      </trkpt>
      <trkpt lat="47.28852" lon="-0.19513">
        <ele>69.3</ele>
        <time>2011-04-03T07:53:44Z</time>
        <extensions>
          <type>
            <highway>track</highway>
            <surface>undefined</surface>
            </type>
        </extensions>
      </trkpt>
      <trkpt lat="47.28847" lon="-0.19519">
        <ele>69.3</ele>
        <time>2011-04-03T07:53:45.429Z</time>
      </trkpt>
      <trkpt lat="47.28842" lon="-0.19524">
        <ele>69.3</ele>
        <time>2011-04-03T07:53:46.768Z</time>
      </trkpt>
      <trkpt lat="47.28837" lon="-0.1953">
        <ele>69.2</ele>
        <time>2011-04-03T07:53:48.197Z</time>
      </trkpt>
      <trkpt lat="47.28833" lon="-0.19536">
        <ele>69</ele>
        <time>2011-04-03T07:53:49.462Z</time>
      </trkpt>
      <trkpt lat="47.28828" lon="-0.19541">
        <ele>69.1</ele>
        <time>2011-04-03T07:53:50.801Z</time>
      </trkpt>
      <trkpt lat="47.28823" lon="-0.19547">
        <ele>69.1</ele>
        <time>2011-04-03T07:53:52.230Z</time>
      </trkpt>
      <trkpt lat="47.28818" lon="-0.19552">
        <ele>69.1</ele>
        <time>2011-04-03T07:53:53.570Z</time>
      </trkpt>
      <trkpt lat="47.28813" lon="-0.19558">
        <ele>69</ele>
        <time>2011-04-03T07:53:55Z</time>
        <extensions>
          <type>
            <highway>track</highway>
            <surface>undefined</surface>
            </type>
        </extensions>
      </trkpt>
      <trkpt lat="47.28808" lon="-0.19569">
        <ele>69</ele>
        <time>2011-04-03T07:53:57.557Z</time>
      </trkpt>
      <trkpt lat="47.28803" lon="-0.19579">
        <ele>69.1</ele>
        <time>2011-04-03T07:53:59.956Z</time>
      </trkpt>
      <trkpt lat="47.28798" lon="-0.1959">
        <ele>69.4</ele>
        <time>2011-04-03T07:54:02.514Z</time>
      </trkpt>
      <trkpt lat="47.28793" lon="-0.196">
        <ele>69.8</ele>
        <time>2011-04-03T07:54:04.914Z</time>
      </trkpt>
      <trkpt lat="47.28787" lon="-0.19611">
        <ele>70</ele>
        <time>2011-04-03T07:54:07.641Z</time>
      </trkpt>
      <trkpt lat="47.28782" lon="-0.19621">
        <ele>70</ele>
        <time>2011-04-03T07:54:10.041Z</time>
      </trkpt>
      <trkpt lat="47.28777" lon="-0.19632">
        <ele>70</ele>
        <time>2011-04-03T07:54:12.599Z</time>
      </trkpt>
      <trkpt lat="47.28772" lon="-0.19642">
        <ele>70</ele>
        <time>2011-04-03T07:54:15Z</time>
        <extensions>
          <type>
            <highway>track</highway>
            <surface>undefined</surface>
            </type>
        </extensions>
      </trkpt>
      <trkpt lat="47.28771" lon="-0.19655">
        <ele>70</ele>
        <time>2011-04-03T07:54:19.425Z</time>
      </trkpt>
      <trkpt lat="47.28771" lon="-0.19667">
        <ele>70</ele>
        <time>2011-04-03T07:54:23.484Z</time>
      </trkpt>
      <trkpt lat="47.2877" lon="-0.1968">
        <ele>70</ele>
        <time>2011-04-03T07:54:27.909Z</time>
      </trkpt>
      <trkpt lat="47.28769" lon="-0.19692">
        <ele>70</ele>
        <time>2011-04-03T07:54:32Z</time>
        <extensions>
          <type>
            <highway>track</highway>
            <surface>undefined</surface>
            </type>
        </extensions>
      </trkpt>
      <trkpt lat="47.28767" lon="-0.19701">
        <ele>70.1</ele>
        <time>2011-04-03T07:54:35.026Z</time>
      </trkpt>
      <trkpt lat="47.28765" lon="-0.1971">
        <ele>70.3</ele>
        <time>2011-04-03T07:54:38.052Z</time>
      </trkpt>
      <trkpt lat="47.28762" lon="-0.19718">
        <ele>70.4</ele>
        <time>2011-04-03T07:54:40.973Z</time>
      </trkpt>
      <trkpt lat="47.2876" lon="-0.19727">
        <ele>70.4</ele>
        <time>2011-04-03T07:54:44Z</time>
        <extensions>
          <type>
            <highway>track</highway>
            <surface>undefined</surface>
            </type>
        </extensions>
      </trkpt>
      <trkpt lat="47.28762" lon="-0.19738">
        <ele>70.7</ele>
        <time>2011-04-03T07:54:52.875Z</time>
      </trkpt>
      <trkpt lat="47.28764" lon="-0.19748">
        <ele>71</ele>
        <time>2011-04-03T07:55:01Z</time>
        <extensions>
          <type>
            <highway>track</highway>
            <surface>undefined</surface>
            </type>
        </extensions>
      </trkpt>
      <trkpt lat="47.28764" lon="-0.19756">
        <ele>71.3</ele>
        <time>2011-04-03T07:55:05.860Z</time>
      </trkpt>
      <trkpt lat="47.28763" lon="-0.19764">
        <ele>71.6</ele>
        <time>2011-04-03T07:55:10.803Z</time>
      </trkpt>
      <trkpt lat="47.28763" lon="-0.19771">
        <ele>72</ele>
        <time>2011-04-03T07:55:15.056Z</time>
      </trkpt>
      <trkpt lat="47.28762" lon="-0.19779">
        <ele>72.4</ele>
        <time>2011-04-03T07:55:20Z</time>
        <extensions>
          <type>
            <highway>track</highway>
            <surface>undefined</surface>
            </type>
        </extensions>
      </trkpt>
      <trkpt lat="47.28757" lon="-0.19784">
        <ele>72.1</ele>
        <time>2011-04-03T07:55:25.499Z</time>
      </trkpt>
      <trkpt lat="47.28752" lon="-0.19789">
        <ele>72</ele>
        <time>2011-04-03T07:55:30.999Z</time>
      </trkpt>
      <trkpt lat="47.28747" lon="-0.19794">
        <ele>72</ele>
        <time>2011-04-03T07:55:36.499Z</time>
      </trkpt>
      <trkpt lat="47.28742" lon="-0.19799">
        <ele>72</ele>
        <time>2011-04-03T07:55:42Z</time>
        <extensions>
          <type>
            <highway>track</highway>
            <surface>undefined</surface>
            </type>
        </extensions>
      </trkpt>
      <trkpt lat="47.28738" lon="-0.19809">
        <ele>72.2</ele>
        <time>2011-04-03T07:55:48.227Z</time>
      </trkpt>
      <trkpt lat="47.28734" lon="-0.19818">
        <ele>72.3</ele>
        <time>2011-04-03T07:55:54Z</time>
        <extensions>
          <type>
            <highway>track</highway>
            <surface>undefined</surface>
            </type>
        </extensions>
      </trkpt>
      <trkpt lat="47.28735" lon="-0.19826">
        <ele>72.7</ele>
        <time>2011-04-03T07:56:14.140Z</time>
      </trkpt>
      <trkpt lat="47.28736" lon="-0.19835">
        <ele>73</ele>
        <time>2011-04-03T07:56:36.719Z</time>
      </trkpt>
      <trkpt lat="47.28737" lon="-0.19843">
        <ele>73.2</ele>
        <time>2011-04-03T07:56:56.859Z</time>
      </trkpt>
      <trkpt lat="47.28738" lon="-0.19851">
        <ele>73.5</ele>
        <time>2011-04-03T07:57:17Z</time>
        <extensions>
          <type>
            <highway>track</highway>
            <surface>undefined</surface>
            </type>
        </extensions>
      </trkpt>
      <trkpt lat="47.28738" lon="-0.19864">
        <ele>73.7</ele>
        <time>2011-04-03T07:57:19.443Z</time>
      </trkpt>
      <trkpt lat="47.28738" lon="-0.19876">
        <ele>73.9</ele>
        <time>2011-04-03T07:57:21.698Z</time>
      </trkpt>
      <trkpt lat="47.28738" lon="-0.19889">
        <ele>74.1</ele>
        <time>2011-04-03T07:57:24.141Z</time>
      </trkpt>
      <trkpt lat="47.28738" lon="-0.19902">
        <ele>74.6</ele>
        <time>2011-04-03T07:57:26.584Z</time>
      </trkpt>
      <trkpt lat="47.28737" lon="-0.19914">
        <ele>75</ele>
        <time>2011-04-03T07:57:28.856Z</time>
      </trkpt>
      <trkpt lat="47.28737" lon="-0.19927">
        <ele>75.1</ele>
        <time>2011-04-03T07:57:31.300Z</time>
      </trkpt>
      <trkpt lat="47.28737" lon="-0.19939">
        <ele>75.1</ele>
        <time>2011-04-03T07:57:33.556Z</time>
      </trkpt>
      <trkpt lat="47.28737" lon="-0.19952">
        <ele>75.1</ele>
        <time>2011-04-03T07:57:36Z</time>
        <extensions>
          <type>
            <highway>track</highway>
            <surface>undefined</surface>
            </type>
        </extensions>
      </trkpt>
      <trkpt lat="47.28735" lon="-0.19965">
        <ele>74.9</ele>
        <time>2011-04-03T07:57:38.075Z</time>
      </trkpt>
      <trkpt lat="47.28733" lon="-0.19977">
        <ele>74.9</ele>
        <time>2011-04-03T07:57:39.999Z</time>
      </trkpt>
      <trkpt lat="47.28731" lon="-0.1999">
        <ele>75.1</ele>
        <time>2011-04-03T07:57:42.075Z</time>
      </trkpt>
      <trkpt lat="47.28729" lon="-0.20002">
        <ele>75.2</ele>
        <time>2011-04-03T07:57:44Z</time>
        <extensions>
          <type>
            <highway>track</highway>
            <surface>undefined</surface>
            </type>
        </extensions>
      </trkpt>
      <trkpt lat="47.28726" lon="-0.2001">
        <ele>75.1</ele>
        <time>2011-04-03T07:57:45.525Z</time>
      </trkpt>
      <trkpt lat="47.28724" lon="-0.20018">
        <ele>75</ele>
        <time>2011-04-03T07:57:46.948Z</time>
      </trkpt>
      <trkpt lat="47.28721" lon="-0.20026">
        <ele>74.9</ele>
        <time>2011-04-03T07:57:48.473Z</time>
      </trkpt>
      <trkpt lat="47.28718" lon="-0.20034">
        <ele>74.9</ele>
        <time>2011-04-03T07:57:50Z</time>
        <extensions>
          <type>
            <highway>track</highway>
            <surface>undefined</surface>
            </type>
        </extensions>
      </trkpt>
      <trkpt lat="47.28718" lon="-0.20046">
        <ele>74.9</ele>
        <time>2011-04-03T07:57:52.750Z</time>
      </trkpt>
      <trkpt lat="47.28718" lon="-0.20058">
        <ele>75.1</ele>
        <time>2011-04-03T07:57:55.500Z</time>
      </trkpt>
      <trkpt lat="47.28718" lon="-0.2007">
        <ele>75.5</ele>
        <time>2011-04-03T07:57:58.250Z</time>
      </trkpt>
      <trkpt lat="47.28718" lon="-0.20082">
        <ele>76</ele>
        <time>2011-04-03T07:58:01.000Z</time>
      </trkpt>
      <trkpt lat="47.28718" lon="-0.20094">
        <ele>76</ele>
        <time>2011-04-03T07:58:03.750Z</time>
      </trkpt>
      <trkpt lat="47.28718" lon="-0.20106">
        <ele>76</ele>
        <time>2011-04-03T07:58:06.500Z</time>
      </trkpt>
      <trkpt lat="47.28718" lon="-0.20118">
        <ele>76.2</ele>
        <time>2011-04-03T07:58:09.250Z</time>
      </trkpt>
      <trkpt lat="47.28718" lon="-0.2013">
        <ele>76.7</ele>
        <time>2011-04-03T07:58:12Z</time>
        <extensions>
          <type>
            <highway>undefined</highway>
            <surface>undefined</surface>
            </type>
        </extensions>
      </trkpt>
      <trkpt lat="47.28714" lon="-0.20141">
        <ele>77</ele>
        <time>2011-04-03T07:58:14.904Z</time>
      </trkpt>
      <trkpt lat="47.2871" lon="-0.20153">
        <ele>77</ele>
        <time>2011-04-03T07:58:18.015Z</time>
      </trkpt>
      <trkpt lat="47.28705" lon="-0.20164">
        <ele>77</ele>
        <time>2011-04-03T07:58:21.095Z</time>
      </trkpt>
      <trkpt lat="47.28701" lon="-0.20175">
        <ele>77.1</ele>
        <time>2011-04-03T07:58:24Z</time>
        <extensions>
          <type>
            <highway>undefined</highway>
            <surface>undefined</surface>
            </type>
        </extensions>
      </trkpt>
      <trkpt lat="47.28696" lon="-0.2018">
        <ele>77</ele>
        <time>2011-04-03T07:58:26.054Z</time>
      </trkpt>
      <trkpt lat="47.28691" lon="-0.20186">
        <ele>77</ele>
        <time>2011-04-03T07:58:28.246Z</time>
      </trkpt>
      <trkpt lat="47.28686" lon="-0.20191">
        <ele>77</ele>
        <time>2011-04-03T07:58:30.300Z</time>
      </trkpt>
      <trkpt lat="47.28681" lon="-0.20196">
        <ele>77</ele>
        <time>2011-04-03T07:58:32.354Z</time>
      </trkpt>
      <trkpt lat="47.28675" lon="-0.20201">
        <ele>77</ele>
        <time>2011-04-03T07:58:34.697Z</time>
      </trkpt>
      <trkpt lat="47.2867" lon="-0.20207">
        <ele>77</ele>
        <time>2011-04-03T07:58:36.889Z</time>
      </trkpt>
      <trkpt lat="47.28665" lon="-0.20212">
        <ele>77</ele>
        <time>2011-04-03T07:58:38.944Z</time>
      </trkpt>
      <trkpt lat="47.2866" lon="-0.20217">
        <ele>77</ele>
        <time>2011-04-03T07:58:41Z</time>
        <extensions>
          <type>
            <highway>undefined</highway>
            <surface>undefined</surface>
            </type>
        </extensions>
      </trkpt>
      <trkpt lat="47.28657" lon="-0.20222">
        <ele>77</ele>
        <time>2011-04-03T07:58:42.457Z</time>
      </trkpt>
      <trkpt lat="47.28654" lon="-0.20228">
        <ele>77</ele>
        <time>2011-04-03T07:58:44.084Z</time>
      </trkpt>
      <trkpt lat="47.28651" lon="-0.20233">
        <ele>77</ele>
        <time>2011-04-03T07:58:45.541Z</time>
      </trkpt>
      <trkpt lat="47.28648" lon="-0.20238">
        <ele>77</ele>
        <time>2011-04-03T07:58:47Z</time>
        <extensions>
          <type>
            <highway>undefined</highway>
            <surface>undefined</surface>
            </type>
        </extensions>
      </trkpt>
      <trkpt lat="47.28646" lon="-0.2025">
        <ele>77</ele>
        <time>2011-04-03T07:58:49.696Z</time>
      </trkpt>
      <trkpt lat="47.28644" lon="-0.20263">
        <ele>77</ele>
        <time>2011-04-03T07:58:52.605Z</time>
      </trkpt>
      <trkpt lat="47.28642" lon="-0.20275">
        <ele>77</ele>
        <time>2011-04-03T07:58:55.302Z</time>
      </trkpt>
      <trkpt lat="47.2864" lon="-0.20287">
        <ele>77</ele>
        <time>2011-04-03T07:58:58Z</time>
        <extensions>
          <type>
            <highway>undefined</highway>
            <surface>undefined</surface>
            </type>
        </extensions>
      </trkpt>
      <trkpt lat="47.2864" lon="-0.20296">
        <ele>77</ele>
        <time>2011-04-03T07:59:00.215Z</time>
      </trkpt>
      <trkpt lat="47.2864" lon="-0.20305">
        <ele>77</ele>
        <time>2011-04-03T07:59:02.431Z</time>
      </trkpt>
      <trkpt lat="47.2864" lon="-0.20314">
        <ele>77</ele>
        <time>2011-04-03T07:59:04.647Z</time>
      </trkpt>
      <trkpt lat="47.28641" lon="-0.20324">
        <ele>77</ele>
        <time>2011-04-03T07:59:07.135Z</time>
      </trkpt>
      <trkpt lat="47.28641" lon="-0.20333">
        <ele>77</ele>
        <time>2011-04-03T07:59:09.351Z</time>
      </trkpt>
      <trkpt lat="47.28641" lon="-0.20342">
        <ele>77</ele>
        <time>2011-04-03T07:59:11.567Z</time>
      </trkpt>
      <trkpt lat="47.28641" lon="-0.20351">
        <ele>77</ele>
        <time>2011-04-03T07:59:13.783Z</time>
      </trkpt>
      <trkpt lat="47.28641" lon="-0.2036">
        <ele>77.1</ele>
        <time>2011-04-03T07:59:16Z</time>
        <extensions>
          <type>
            <highway>undefined</highway>
            <surface>undefined</surface>
            </type>
        </extensions>
      </trkpt>
      <trkpt lat="47.2864" lon="-0.20369">
        <ele>77</ele>
        <time>2011-04-03T07:59:18.698Z</time>
      </trkpt>
      <trkpt lat="47.28638" lon="-0.20378">
        <ele>77</ele>
        <time>2011-04-03T07:59:21.499Z</time>
      </trkpt>
      <trkpt lat="47.28637" lon="-0.20387">
        <ele>77</ele>
        <time>2011-04-03T07:59:24.197Z</time>
      </trkpt>
      <trkpt lat="47.28635" lon="-0.20396">
        <ele>77.2</ele>
        <time>2011-04-03T07:59:27Z</time>
        <extensions>
          <type>
            <highway>undefined</highway>
            <surface>undefined</surface>
            </type>
        </extensions>
      </trkpt>
      <trkpt lat="47.28636" lon="-0.20403">
        <ele>77.5</ele>
        <time>2011-04-03T07:59:30Z</time>
        <extensions>
          <type>
            <highway>undefined</highway>
            <surface>undefined</surface>
            </type>
        </extensions>
      </trkpt>
      <trkpt lat="47.28642" lon="-0.20407">
        <ele>77.7</ele>
        <time>2011-04-03T07:59:34.000Z</time>
      </trkpt>
      <trkpt lat="47.28648" lon="-0.20411">
        <ele>77.9</ele>
        <time>2011-04-03T07:59:38Z</time>
        <extensions>
          <type>
            <highway>undefined</highway>
            <surface>undefined</surface>
            </type>
        </extensions>
      </trkpt>
      <trkpt lat="47.28652" lon="-0.20417">
        <ele>78</ele>
        <time>2011-04-03T07:59:40.330Z</time>
      </trkpt>
      <trkpt lat="47.28656" lon="-0.20424">
        <ele>78</ele>
        <time>2011-04-03T07:59:42.866Z</time>
      </trkpt>
      <trkpt lat="47.28661" lon="-0.2043">
        <ele>78</ele>
        <time>2011-04-03T07:59:45.499Z</time>
      </trkpt>
      <trkpt lat="47.28665" lon="-0.20436">
        <ele>78</ele>
        <time>2011-04-03T07:59:47.829Z</time>
      </trkpt>
      <trkpt lat="47.28669" lon="-0.20442">
        <ele>78</ele>
        <time>2011-04-03T07:59:50.160Z</time>
      </trkpt>
      <trkpt lat="47.28673" lon="-0.20449">
        <ele>78</ele>
        <time>2011-04-03T07:59:52.696Z</time>
      </trkpt>
      <trkpt lat="47.28677" lon="-0.20455">
        <ele>78.1</ele>
        <time>2011-04-03T07:59:55.027Z</time>
      </trkpt>
      <trkpt lat="47.28682" lon="-0.20461">
        <ele>78.3</ele>
        <time>2011-04-03T07:59:57.660Z</time>
      </trkpt>
      <trkpt lat="47.28686" lon="-0.20467">
        <ele>78.6</ele>
        <time>2011-04-03T07:59:59.991Z</time>
      </trkpt>
      <trkpt lat="47.2869" lon="-0.20474">
        <ele>78.8</ele>
        <time>2011-04-03T08:00:02.527Z</time>
      </trkpt>
      <trkpt lat="47.28694" lon="-0.2048">
        <ele>79</ele>
        <time>2011-04-03T08:00:04.858Z</time>
      </trkpt>
      <trkpt lat="47.28698" lon="-0.20486">
        <ele>79</ele>
        <time>2011-04-03T08:00:07.189Z</time>
      </trkpt>
      <trkpt lat="47.28702" lon="-0.20492">
        <ele>79</ele>
        <time>2011-04-03T08:00:09.520Z</time>
      </trkpt>
      <trkpt lat="47.28707" lon="-0.20499">
        <ele>79</ele>
        <time>2011-04-03T08:00:12.337Z</time>
      </trkpt>
      <trkpt lat="47.28711" lon="-0.20505">
        <ele>79</ele>
        <time>2011-04-03T08:00:14.668Z</time>
      </trkpt>
      <trkpt lat="47.28715" lon="-0.20511">
        <ele>79</ele>
        <time>2011-04-03T08:00:17Z</time>
        <extensions>
          <type>
            <highway>undefined</highway>
            <surface>undefined</surface>
            </type>
        </extensions>
      </trkpt>
      <trkpt lat="47.28721" lon="-0.20517">
        <ele>79</ele>
        <time>2011-04-03T08:00:20.500Z</time>
      </trkpt>
      <trkpt lat="47.28727" lon="-0.20523">
        <ele>79</ele>
        <time>2011-04-03T08:00:24Z</time>
        <extensions>
          <type>
            <highway>undefined</highway>
            <surface>undefined</surface>
            </type>
        </extensions>
      </trkpt>
      <trkpt lat="47.28732" lon="-0.20525">
        <ele>79</ele>
        <time>2011-04-03T08:00:25.942Z</time>
      </trkpt>
      <trkpt lat="47.28736" lon="-0.20527">
        <ele>79</ele>
        <time>2011-04-03T08:00:27.525Z</time>
      </trkpt>
      <trkpt lat="47.28741" lon="-0.20528">
        <ele>79</ele>
        <time>2011-04-03T08:00:29.416Z</time>
      </trkpt>
      <trkpt lat="47.28745" lon="-0.2053">
        <ele>79</ele>
        <time>2011-04-03T08:00:31Z</time>
        <extensions>
          <type>
            <highway>undefined</highway>
            <surface>undefined</surface>
            </type>
        </extensions>
      </trkpt>
      <trkpt lat="47.28748" lon="-0.20538">
        <ele>79</ele>
        <time>2011-04-03T08:00:32.915Z</time>
      </trkpt>
      <trkpt lat="47.28752" lon="-0.20547">
        <ele>79</ele>
        <time>2011-04-03T08:00:35.169Z</time>
      </trkpt>
      <trkpt lat="47.28755" lon="-0.20555">
        <ele>79</ele>
        <time>2011-04-03T08:00:37.084Z</time>
      </trkpt>
      <trkpt lat="47.28758" lon="-0.20563">
        <ele>79.2</ele>
        <time>2011-04-03T08:00:39Z</time>
        <extensions>
          <type>
            <highway>undefined</highway>
            <surface>undefined</surface>
            </type>
        </extensions>
      </trkpt>
      <trkpt lat="47.28758" lon="-0.20572">
        <ele>79.4</ele>
        <time>2011-04-03T08:00:40.577Z</time>
      </trkpt>
      <trkpt lat="47.28758" lon="-0.20582">
        <ele>79.7</ele>
        <time>2011-04-03T08:00:42.329Z</time>
      </trkpt>
      <trkpt lat="47.28759" lon="-0.20591">
        <ele>79.7</ele>
        <time>2011-04-03T08:00:43.927Z</time>
      </trkpt>
      <trkpt lat="47.28759" lon="-0.206">
        <ele>79.7</ele>
        <time>2011-04-03T08:00:45.504Z</time>
      </trkpt>
      <trkpt lat="47.28759" lon="-0.20609">
        <ele>79.7</ele>
        <time>2011-04-03T08:00:47.081Z</time>
      </trkpt>
      <trkpt lat="47.28759" lon="-0.20619">
        <ele>79.8</ele>
        <time>2011-04-03T08:00:48.833Z</time>
      </trkpt>
      <trkpt lat="47.28759" lon="-0.20628">
        <ele>79.9</ele>
        <time>2011-04-03T08:00:50.410Z</time>
      </trkpt>
      <trkpt lat="47.2876" lon="-0.20637">
        <ele>80</ele>
        <time>2011-04-03T08:00:52.008Z</time>
      </trkpt>
      <trkpt lat="47.2876" lon="-0.20646">
        <ele>80</ele>
        <time>2011-04-03T08:00:53.585Z</time>
      </trkpt>
      <trkpt lat="47.2876" lon="-0.20656">
        <ele>80</ele>
        <time>2011-04-03T08:00:55.338Z</time>
      </trkpt>
      <trkpt lat="47.2876" lon="-0.20665">
        <ele>80</ele>
        <time>2011-04-03T08:00:56.915Z</time>
      </trkpt>
      <trkpt lat="47.2876" lon="-0.20674">
        <ele>80</ele>
        <time>2011-04-03T08:00:58.493Z</time>
      </trkpt>
      <trkpt lat="47.2876" lon="-0.20683">
        <ele>80</ele>
        <time>2011-04-03T08:01:00.071Z</time>
      </trkpt>
      <trkpt lat="47.28761" lon="-0.20693">
        <ele>80</ele>
        <time>2011-04-03T08:01:01.843Z</time>
      </trkpt>
      <trkpt lat="47.28761" lon="-0.20702">
        <ele>80.2</ele>
        <time>2011-04-03T08:01:03.421Z</time>
      </trkpt>
      <trkpt lat="47.28761" lon="-0.20711">
        <ele>80.4</ele>
        <time>2011-04-03T08:01:05Z</time>
        <extensions>
          <type>
            <highway>undefined</highway>
            <surface>undefined</surface>
            </type>
        </extensions>
      </trkpt>
      <trkpt lat="47.28762" lon="-0.20718">
        <ele>80.5</ele>
        <time>2011-04-03T08:01:06.155Z</time>
      </trkpt>
      <trkpt lat="47.28762" lon="-0.20725">
        <ele>80.6</ele>
        <time>2011-04-03T08:01:07.286Z</time>
      </trkpt>
      <trkpt lat="47.28763" lon="-0.20732">
        <ele>80.5</ele>
        <time>2011-04-03T08:01:08.441Z</time>
      </trkpt>
      <trkpt lat="47.28763" lon="-0.20739">
        <ele>80.5</ele>
        <time>2011-04-03T08:01:09.572Z</time>
      </trkpt>
      <trkpt lat="47.28764" lon="-0.20745">
        <ele>80.5</ele>
        <time>2011-04-03T08:01:10.570Z</time>
      </trkpt>
      <trkpt lat="47.28764" lon="-0.20752">
        <ele>80.5</ele>
        <time>2011-04-03T08:01:11.701Z</time>
      </trkpt>
      <trkpt lat="47.28765" lon="-0.20759">
        <ele>80.6</ele>
        <time>2011-04-03T08:01:12.856Z</time>
      </trkpt>
      <trkpt lat="47.28766" lon="-0.20766">
        <ele>80.8</ele>
        <time>2011-04-03T08:01:14.012Z</time>
      </trkpt>
      <trkpt lat="47.28766" lon="-0.20773">
        <ele>80.9</ele>
        <time>2011-04-03T08:01:15.143Z</time>
      </trkpt>
      <trkpt lat="47.28767" lon="-0.2078">
        <ele>81</ele>
        <time>2011-04-03T08:01:16.299Z</time>
      </trkpt>
      <trkpt lat="47.28767" lon="-0.20787">
        <ele>81</ele>
        <time>2011-04-03T08:01:17.430Z</time>
      </trkpt>
      <trkpt lat="47.28768" lon="-0.20794">
        <ele>81</ele>
        <time>2011-04-03T08:01:18.586Z</time>
      </trkpt>
      <trkpt lat="47.28768" lon="-0.208">
        <ele>81</ele>
        <time>2011-04-03T08:01:19.555Z</time>
      </trkpt>
      <trkpt lat="47.28769" lon="-0.20807">
        <ele>81</ele>
        <time>2011-04-03T08:01:20.711Z</time>
      </trkpt>
      <trkpt lat="47.28769" lon="-0.20814">
        <ele>81.1</ele>
        <time>2011-04-03T08:01:21.843Z</time>
      </trkpt>
      <trkpt lat="47.2877" lon="-0.20821">
        <ele>81.2</ele>
        <time>2011-04-03T08:01:23Z</time>
        <extensions>
          <type>
            <highway>undefined</highway>
            <surface>undefined</surface>
            </type>
        </extensions>
      </trkpt>
      <trkpt lat="47.2877" lon="-0.20829">
        <ele>81.3</ele>
        <time>2011-04-03T08:01:24.928Z</time>
      </trkpt>
      <trkpt lat="47.28769" lon="-0.20838">
        <ele>81.4</ele>
        <time>2011-04-03T08:01:27.125Z</time>
      </trkpt>
      <trkpt lat="47.28769" lon="-0.20846">
        <ele>81.6</ele>
        <time>2011-04-03T08:01:29.053Z</time>
      </trkpt>
      <trkpt lat="47.28769" lon="-0.20854">
        <ele>81.8</ele>
        <time>2011-04-03T08:01:30.981Z</time>
      </trkpt>
      <trkpt lat="47.28768" lon="-0.20862">
        <ele>82</ele>
        <time>2011-04-03T08:01:32.941Z</time>
      </trkpt>
      <trkpt lat="47.28768" lon="-0.20871">
        <ele>82.1</ele>
        <time>2011-04-03T08:01:35.110Z</time>
      </trkpt>
      <trkpt lat="47.28767" lon="-0.20879">
        <ele>82.2</ele>
        <time>2011-04-03T08:01:37.071Z</time>
      </trkpt>
      <trkpt lat="47.28767" lon="-0.20887">
        <ele>82.4</ele>
        <time>2011-04-03T08:01:39Z</time>
        <extensions>
          <type>
            <highway>track</highway>
            <surface>undefined</surface>
            </type>
        </extensions>
      </trkpt>
      <trkpt lat="47.28767" lon="-0.20897">
        <ele>82.6</ele>
        <time>2011-04-03T08:01:41.055Z</time>
      </trkpt>
      <trkpt lat="47.28768" lon="-0.20907">
        <ele>82.8</ele>
        <time>2011-04-03T08:01:43.132Z</time>
      </trkpt>
      <trkpt lat="47.28768" lon="-0.20918">
        <ele>83</ele>
        <time>2011-04-03T08:01:45.393Z</time>
      </trkpt>
      <trkpt lat="47.28768" lon="-0.20928">
        <ele>83</ele>
        <time>2011-04-03T08:01:47.448Z</time>
      </trkpt>
      <trkpt lat="47.28768" lon="-0.20938">
        <ele>83</ele>
        <time>2011-04-03T08:01:49.503Z</time>
      </trkpt>
      <trkpt lat="47.28769" lon="-0.20948">
        <ele>83</ele>
        <time>2011-04-03T08:01:51.580Z</time>
      </trkpt>
      <trkpt lat="47.28769" lon="-0.20958">
        <ele>83</ele>
        <time>2011-04-03T08:01:53.635Z</time>
      </trkpt>
      <trkpt lat="47.28769" lon="-0.20968">
        <ele>83</ele>
        <time>2011-04-03T08:01:55.690Z</time>
      </trkpt>
      <trkpt lat="47.2877" lon="-0.20978">
        <ele>83</ele>
        <time>2011-04-03T08:01:57.767Z</time>
      </trkpt>
      <trkpt lat="47.2877" lon="-0.20989">
        <ele>83</ele>
        <time>2011-04-03T08:02:00.028Z</time>
      </trkpt>
      <trkpt lat="47.2877" lon="-0.20999">
        <ele>83</ele>
        <time>2011-04-03T08:02:02.083Z</time>
      </trkpt>
      <trkpt lat="47.2877" lon="-0.21009">
        <ele>83</ele>
        <time>2011-04-03T08:02:04.138Z</time>
      </trkpt>
      <trkpt lat="47.28771" lon="-0.21019">
        <ele>83</ele>
        <time>2011-04-03T08:02:06.216Z</time>
      </trkpt>
      <trkpt lat="47.28771" lon="-0.21029">
        <ele>83</ele>
        <time>2011-04-03T08:02:08.271Z</time>
      </trkpt>
      <trkpt lat="47.28771" lon="-0.21039">
        <ele>83.3</ele>
        <time>2011-04-03T08:02:10.326Z</time>
      </trkpt>
      <trkpt lat="47.28772" lon="-0.2105">
        <ele>83.6</ele>
        <time>2011-04-03T08:02:12.607Z</time>
      </trkpt>
      <trkpt lat="47.28772" lon="-0.2106">
        <ele>83.8</ele>
        <time>2011-04-03T08:02:14.662Z</time>
      </trkpt>
      <trkpt lat="47.28772" lon="-0.2107">
        <ele>83.8</ele>
        <time>2011-04-03T08:02:16.717Z</time>
      </trkpt>
      <trkpt lat="47.28772" lon="-0.2108">
        <ele>83.8</ele>
        <time>2011-04-03T08:02:18.773Z</time>
      </trkpt>
      <trkpt lat="47.28773" lon="-0.2109">
        <ele>83.8</ele>
        <time>2011-04-03T08:02:20.851Z</time>
      </trkpt>
      <trkpt lat="47.28773" lon="-0.211">
        <ele>83.8</ele>
        <time>2011-04-03T08:02:22.907Z</time>
      </trkpt>
      <trkpt lat="47.28773" lon="-0.2111">
        <ele>83.8</ele>
        <time>2011-04-03T08:02:24.963Z</time>
      </trkpt>
      <trkpt lat="47.28774" lon="-0.21121">
        <ele>83.8</ele>
        <time>2011-04-03T08:02:27.244Z</time>
      </trkpt>
      <trkpt lat="47.28774" lon="-0.21131">
        <ele>83.9</ele>
        <time>2011-04-03T08:02:29.300Z</time>
      </trkpt>
      <trkpt lat="47.28774" lon="-0.21141">
        <ele>83.9</ele>
        <time>2011-04-03T08:02:31.356Z</time>
      </trkpt>
      <trkpt lat="47.28774" lon="-0.21151">
        <ele>83.9</ele>
        <time>2011-04-03T08:02:33.412Z</time>
      </trkpt>
      <trkpt lat="47.28775" lon="-0.21161">
        <ele>83.9</ele>
        <time>2011-04-03T08:02:35.490Z</time>
      </trkpt>
      <trkpt lat="47.28775" lon="-0.21171">
        <ele>83.9</ele>
        <time>2011-04-03T08:02:37.546Z</time>
      </trkpt>
      <trkpt lat="47.28775" lon="-0.21182">
        <ele>84</ele>
        <time>2011-04-03T08:02:39.808Z</time>
      </trkpt>
      <trkpt lat="47.28775" lon="-0.21192">
        <ele>84</ele>
        <time>2011-04-03T08:02:41.864Z</time>
      </trkpt>
      <trkpt lat="47.28776" lon="-0.21202">
        <ele>84</ele>
        <time>2011-04-03T08:02:43.943Z</time>
      </trkpt>
      <trkpt lat="47.28776" lon="-0.21212">
        <ele>84</ele>
        <time>2011-04-03T08:02:46Z</time>
        <extensions>
          <type>
            <highway>track</highway>
            <surface>undefined</surface>
            </type>
        </extensions>
      </trkpt>
      <trkpt lat="47.28774" lon="-0.21218">
        <ele>84</ele>
        <time>2011-04-03T08:02:47.192Z</time>
      </trkpt>
      <trkpt lat="47.28772" lon="-0.21225">
        <ele>84</ele>
        <time>2011-04-03T08:02:48.546Z</time>
      </trkpt>
      <trkpt lat="47.2877" lon="-0.21231">
        <ele>84</ele>
        <time>2011-04-03T08:02:49.738Z</time>
      </trkpt>
      <trkpt lat="47.28768" lon="-0.21237">
        <ele>84</ele>
        <time>2011-04-03T08:02:50.930Z</time>
      </trkpt>
      <trkpt lat="47.28765" lon="-0.21243">
        <ele>84</ele>
        <time>2011-04-03T08:02:52.259Z</time>
      </trkpt>
      <trkpt lat="47.28763" lon="-0.2125">
        <ele>84</ele>
        <time>2011-04-03T08:02:53.614Z</time>
      </trkpt>
      <trkpt lat="47.28761" lon="-0.21256">
        <ele>84</ele>
        <time>2011-04-03T08:02:54.806Z</time>
      </trkpt>
      <trkpt lat="47.28759" lon="-0.21262">
        <ele>84</ele>
        <time>2011-04-03T08:02:56Z</time>
        <extensions>
          <type>
            <highway>track</highway>
            <surface>undefined</surface>
            </type>
        </extensions>
      </trkpt>
      <trkpt lat="47.28755" lon="-0.21271">
        <ele>84</ele>
        <time>2011-04-03T08:02:57.231Z</time>
      </trkpt>
      <trkpt lat="47.28751" lon="-0.2128">
        <ele>84</ele>
        <time>2011-04-03T08:02:58.462Z</time>
      </trkpt>
      <trkpt lat="47.28747" lon="-0.21289">
        <ele>84</ele>
        <time>2011-04-03T08:02:59.693Z</time>
      </trkpt>
      <trkpt lat="47.28743" lon="-0.21299">
        <ele>84</ele>
        <time>2011-04-03T08:03:01.021Z</time>
      </trkpt>
      <trkpt lat="47.28739" lon="-0.21308">
        <ele>84</ele>
        <time>2011-04-03T08:03:02.252Z</time>
      </trkpt>
      <trkpt lat="47.28735" lon="-0.21317">
        <ele>84</ele>
        <time>2011-04-03T08:03:03.483Z</time>
      </trkpt>
      <trkpt lat="47.28731" lon="-0.21326">
        <ele>84</ele>
        <time>2011-04-03T08:03:04.714Z</time>
      </trkpt>
      <trkpt lat="47.28727" lon="-0.21335">
        <ele>84</ele>
        <time>2011-04-03T08:03:05.945Z</time>
      </trkpt>
      <trkpt lat="47.28722" lon="-0.21344">
        <ele>84</ele>
        <time>2011-04-03T08:03:07.276Z</time>
      </trkpt>
      <trkpt lat="47.28718" lon="-0.21353">
        <ele>84</ele>
        <time>2011-04-03T08:03:08.507Z</time>
      </trkpt>
      <trkpt lat="47.28714" lon="-0.21362">
        <ele>84</ele>
        <time>2011-04-03T08:03:09.738Z</time>
      </trkpt>
      <trkpt lat="47.2871" lon="-0.21372">
        <ele>84</ele>
        <time>2011-04-03T08:03:11.067Z</time>
      </trkpt>
      <trkpt lat="47.28706" lon="-0.21381">
        <ele>84</ele>
        <time>2011-04-03T08:03:12.298Z</time>
      </trkpt>
      <trkpt lat="47.28702" lon="-0.2139">
        <ele>84</ele>
        <time>2011-04-03T08:03:13.529Z</time>
      </trkpt>
      <trkpt lat="47.28698" lon="-0.21399">
        <ele>84</ele>
        <time>2011-04-03T08:03:14.761Z</time>
      </trkpt>
      <trkpt lat="47.28694" lon="-0.21408">
        <ele>84</ele>
        <time>2011-04-03T08:03:15.993Z</time>
      </trkpt>
      <trkpt lat="47.2869" lon="-0.21417">
        <ele>84</ele>
        <time>2011-04-03T08:03:17.225Z</time>
      </trkpt>
      <trkpt lat="47.28686" lon="-0.21426">
        <ele>84</ele>
        <time>2011-04-03T08:03:18.457Z</time>
      </trkpt>
      <trkpt lat="47.28682" lon="-0.21435">
        <ele>84</ele>
        <time>2011-04-03T08:03:19.689Z</time>
      </trkpt>
      <trkpt lat="47.28678" lon="-0.21445">
        <ele>84</ele>
        <time>2011-04-03T08:03:21.018Z</time>
      </trkpt>
      <trkpt lat="47.28674" lon="-0.21454">
        <ele>84</ele>
        <time>2011-04-03T08:03:22.250Z</time>
      </trkpt>
      <trkpt lat="47.2867" lon="-0.21463">
        <ele>84</ele>
        <time>2011-04-03T08:03:23.482Z</time>
      </trkpt>
      <trkpt lat="47.28666" lon="-0.21472">
        <ele>84</ele>
        <time>2011-04-03T08:03:24.714Z</time>
      </trkpt>
      <trkpt lat="47.28662" lon="-0.21481">
        <ele>84.2</ele>
        <time>2011-04-03T08:03:25.946Z</time>
      </trkpt>
      <trkpt lat="47.28657" lon="-0.2149">
        <ele>84.3</ele>
        <time>2011-04-03T08:03:27.278Z</time>
      </trkpt>
      <trkpt lat="47.28653" lon="-0.21499">
        <ele>84.5</ele>
        <time>2011-04-03T08:03:28.510Z</time>
      </trkpt>
      <trkpt lat="47.28649" lon="-0.21508">
        <ele>84.6</ele>
        <time>2011-04-03T08:03:29.742Z</time>
      </trkpt>
      <trkpt lat="47.28645" lon="-0.21518">
        <ele>84.8</ele>
        <time>2011-04-03T08:03:31.071Z</time>
      </trkpt>
      <trkpt lat="47.28641" lon="-0.21527">
        <ele>84.9</ele>
        <time>2011-04-03T08:03:32.303Z</time>
      </trkpt>
      <trkpt lat="47.28637" lon="-0.21536">
        <ele>85</ele>
        <time>2011-04-03T08:03:33.535Z</time>
      </trkpt>
      <trkpt lat="47.28633" lon="-0.21545">
        <ele>85</ele>
        <time>2011-04-03T08:03:34.767Z</time>
      </trkpt>
      <trkpt lat="47.28629" lon="-0.21554">
        <ele>85</ele>
        <time>2011-04-03T08:03:36Z</time>
        <extensions>
          <type>
            <highway>track</highway>
            <surface>undefined</surface>
            </type>
        </extensions>
      </trkpt>
      <trkpt lat="47.28625" lon="-0.21563">
        <ele>85</ele>
        <time>2011-04-03T08:03:37.244Z</time>
      </trkpt>
      <trkpt lat="47.28622" lon="-0.21573">
        <ele>85</ele>
        <time>2011-04-03T08:03:38.509Z</time>
      </trkpt>
      <trkpt lat="47.28618" lon="-0.21582">
        <ele>85</ele>
        <time>2011-04-03T08:03:39.754Z</time>
      </trkpt>
      <trkpt lat="47.28614" lon="-0.21591">
        <ele>85</ele>
        <time>2011-04-03T08:03:41Z</time>
        <extensions>
          <type>
            <highway>track</highway>
            <surface>undefined</surface>
            </type>
        </extensions>
      </trkpt>
      <trkpt lat="47.28614" lon="-0.21602">
        <ele>85</ele>
        <time>2011-04-03T08:03:42.493Z</time>
      </trkpt>
      <trkpt lat="47.28613" lon="-0.21613">
        <ele>85</ele>
        <time>2011-04-03T08:03:44Z</time>
        <extensions>
          <type>
            <highway>track</highway>
            <surface>undefined</surface>
            </type>
        </extensions>
      </trkpt>
      <trkpt lat="47.28615" lon="-0.21619">
        <ele>85</ele>
        <time>2011-04-03T08:03:45.000Z</time>
      </trkpt>
      <trkpt lat="47.28617" lon="-0.21625">
        <ele>85</ele>
        <time>2011-04-03T08:03:46.001Z</time>
      </trkpt>
      <trkpt lat="47.28619" lon="-0.21631">
        <ele>85</ele>
        <time>2011-04-03T08:03:47.002Z</time>
      </trkpt>
      <trkpt lat="47.28621" lon="-0.21637">
        <ele>85</ele>
        <time>2011-04-03T08:03:48.003Z</time>
      </trkpt>
      <trkpt lat="47.28622" lon="-0.21643">
        <ele>85</ele>
        <time>2011-04-03T08:03:48.928Z</time>
      </trkpt>
      <trkpt lat="47.28624" lon="-0.21649">
        <ele>85</ele>
        <time>2011-04-03T08:03:49.929Z</time>
      </trkpt>
      <trkpt lat="47.28626" lon="-0.21655">
        <ele>85</ele>
        <time>2011-04-03T08:03:50.930Z</time>
      </trkpt>
      <trkpt lat="47.28628" lon="-0.21662">
        <ele>85</ele>
        <time>2011-04-03T08:03:52.067Z</time>
      </trkpt>
      <trkpt lat="47.2863" lon="-0.21668">
        <ele>85</ele>
        <time>2011-04-03T08:03:53.068Z</time>
      </trkpt>
      <trkpt lat="47.28632" lon="-0.21674">
        <ele>85</ele>
        <time>2011-04-03T08:03:54.069Z</time>
      </trkpt>
      <trkpt lat="47.28634" lon="-0.2168">
        <ele>85</ele>
        <time>2011-04-03T08:03:55.070Z</time>
      </trkpt>
      <trkpt lat="47.28636" lon="-0.21686">
        <ele>85</ele>
        <time>2011-04-03T08:03:56.071Z</time>
      </trkpt>
      <trkpt lat="47.28637" lon="-0.21692">
        <ele>85</ele>
        <time>2011-04-03T08:03:56.996Z</time>
      </trkpt>
      <trkpt lat="47.28639" lon="-0.21698">
        <ele>85</ele>
        <time>2011-04-03T08:03:57.997Z</time>
      </trkpt>
      <trkpt lat="47.28641" lon="-0.21704">
        <ele>84.9</ele>
        <time>2011-04-03T08:03:58.998Z</time>
      </trkpt>
      <trkpt lat="47.28643" lon="-0.2171">
        <ele>84.9</ele>
        <time>2011-04-03T08:03:59.999Z</time>
      </trkpt>
      <trkpt lat="47.28645" lon="-0.21716">
        <ele>84.8</ele>
        <time>2011-04-03T08:04:01.000Z</time>
      </trkpt>
      <trkpt lat="47.28647" lon="-0.21722">
        <ele>84.7</ele>
        <time>2011-04-03T08:04:02.001Z</time>
      </trkpt>
      <trkpt lat="47.28649" lon="-0.21728">
        <ele>84.7</ele>
        <time>2011-04-03T08:04:03.002Z</time>
      </trkpt>
      <trkpt lat="47.28651" lon="-0.21734">
        <ele>84.6</ele>
        <time>2011-04-03T08:04:04.003Z</time>
      </trkpt>
      <trkpt lat="47.28652" lon="-0.2174">
        <ele>84.5</ele>
        <time>2011-04-03T08:04:04.928Z</time>
      </trkpt>
      <trkpt lat="47.28654" lon="-0.21746">
        <ele>84.4</ele>
        <time>2011-04-03T08:04:05.929Z</time>
      </trkpt>
      <trkpt lat="47.28656" lon="-0.21752">
        <ele>84.4</ele>
        <time>2011-04-03T08:04:06.930Z</time>
      </trkpt>
      <trkpt lat="47.28658" lon="-0.21759">
        <ele>84.3</ele>
        <time>2011-04-03T08:04:08.067Z</time>
      </trkpt>
      <trkpt lat="47.2866" lon="-0.21765">
        <ele>84.2</ele>
        <time>2011-04-03T08:04:09.068Z</time>
      </trkpt>
      <trkpt lat="47.28662" lon="-0.21771">
        <ele>84.2</ele>
        <time>2011-04-03T08:04:10.069Z</time>
      </trkpt>
      <trkpt lat="47.28664" lon="-0.21777">
        <ele>84.1</ele>
        <time>2011-04-03T08:04:11.070Z</time>
      </trkpt>
      <trkpt lat="47.28666" lon="-0.21783">
        <ele>84</ele>
        <time>2011-04-03T08:04:12.071Z</time>
      </trkpt>
      <trkpt lat="47.28667" lon="-0.21789">
        <ele>84</ele>
        <time>2011-04-03T08:04:12.996Z</time>
      </trkpt>
      <trkpt lat="47.28669" lon="-0.21795">
        <ele>83.9</ele>
        <time>2011-04-03T08:04:13.997Z</time>
      </trkpt>
      <trkpt lat="47.28671" lon="-0.21801">
        <ele>83.8</ele>
        <time>2011-04-03T08:04:14.998Z</time>
      </trkpt>
      <trkpt lat="47.28673" lon="-0.21807">
        <ele>83.8</ele>
        <time>2011-04-03T08:04:16Z</time>
        <extensions>
          <type>
            <highway>track</highway>
            <surface>undefined</surface>
            </type>
        </extensions>
      </trkpt>
      <trkpt lat="47.28676" lon="-0.21812">
        <ele>83.7</ele>
        <time>2011-04-03T08:04:16.912Z</time>
      </trkpt>
      <trkpt lat="47.28679" lon="-0.21817">
        <ele>83.7</ele>
        <time>2011-04-03T08:04:17.824Z</time>
      </trkpt>
      <trkpt lat="47.28682" lon="-0.21822">
        <ele>83.8</ele>
        <time>2011-04-03T08:04:18.736Z</time>
      </trkpt>
      <trkpt lat="47.28686" lon="-0.21827">
        <ele>83.9</ele>
        <time>2011-04-03T08:04:19.793Z</time>
      </trkpt>
      <trkpt lat="47.28689" lon="-0.21832">
        <ele>84</ele>
        <time>2011-04-03T08:04:20.706Z</time>
      </trkpt>
      <trkpt lat="47.28692" lon="-0.21837">
        <ele>84</ele>
        <time>2011-04-03T08:04:21.619Z</time>
      </trkpt>
      <trkpt lat="47.28695" lon="-0.21842">
        <ele>84</ele>
        <time>2011-04-03T08:04:22.532Z</time>
      </trkpt>
      <trkpt lat="47.28698" lon="-0.21848">
        <ele>83.9</ele>
        <time>2011-04-03T08:04:23.551Z</time>
      </trkpt>
      <trkpt lat="47.28701" lon="-0.21853">
        <ele>83.8</ele>
        <time>2011-04-03T08:04:24.464Z</time>
      </trkpt>
      <trkpt lat="47.28704" lon="-0.21858">
        <ele>83.6</ele>
        <time>2011-04-03T08:04:25.377Z</time>
      </trkpt>
      <trkpt lat="47.28707" lon="-0.21863">
        <ele>83.5</ele>
        <time>2011-04-03T08:04:26.290Z</time>
      </trkpt>
      <trkpt lat="47.28711" lon="-0.21868">
        <ele>83.4</ele>
        <time>2011-04-03T08:04:27.347Z</time>
      </trkpt>
      <trkpt lat="47.28714" lon="-0.21873">
        <ele>83.3</ele>
        <time>2011-04-03T08:04:28.260Z</time>
      </trkpt>
      <trkpt lat="47.28717" lon="-0.21878">
        <ele>83.2</ele>
        <time>2011-04-03T08:04:29.173Z</time>
      </trkpt>
      <trkpt lat="47.2872" lon="-0.21883">
        <ele>83.1</ele>
        <time>2011-04-03T08:04:30.086Z</time>
      </trkpt>
      <trkpt lat="47.28723" lon="-0.21888">
        <ele>83</ele>
        <time>2011-04-03T08:04:31Z</time>
        <extensions>
          <type>
            <highway>track</highway>
            <surface>undefined</surface>
            </type>
        </extensions>
      </trkpt>
      <trkpt lat="47.28726" lon="-0.21896">
        <ele>83.2</ele>
        <time>2011-04-03T08:04:32.188Z</time>
      </trkpt>
      <trkpt lat="47.28729" lon="-0.21903">
        <ele>83.4</ele>
        <time>2011-04-03T08:04:33.264Z</time>
      </trkpt>
      <trkpt lat="47.28731" lon="-0.21911">
        <ele>83.5</ele>
        <time>2011-04-03T08:04:34.372Z</time>
      </trkpt>
      <trkpt lat="47.28734" lon="-0.21919">
        <ele>83.6</ele>
        <time>2011-04-03T08:04:35.560Z</time>
      </trkpt>
      <trkpt lat="47.28737" lon="-0.21926">
        <ele>83.7</ele>
        <time>2011-04-03T08:04:36.636Z</time>
      </trkpt>
      <trkpt lat="47.2874" lon="-0.21934">
        <ele>83.8</ele>
        <time>2011-04-03T08:04:37.824Z</time>
      </trkpt>
      <trkpt lat="47.28742" lon="-0.21941">
        <ele>83.9</ele>
        <time>2011-04-03T08:04:38.811Z</time>
      </trkpt>
      <trkpt lat="47.28745" lon="-0.21949">
        <ele>84</ele>
        <time>2011-04-03T08:04:40Z</time>
        <extensions>
          <type>
            <highway>track</highway>
            <surface>undefined</surface>
            </type>
        </extensions>
      </trkpt>
      <trkpt lat="47.28749" lon="-0.21956">
        <ele>84</ele>
        <time>2011-04-03T08:04:41.267Z</time>
      </trkpt>
      <trkpt lat="47.28752" lon="-0.21963">
        <ele>84</ele>
        <time>2011-04-03T08:04:42.413Z</time>
      </trkpt>
      <trkpt lat="47.28756" lon="-0.21971">
        <ele>84</ele>
        <time>2011-04-03T08:04:43.789Z</time>
      </trkpt>
      <trkpt lat="47.2876" lon="-0.21978">
        <ele>84</ele>
        <time>2011-04-03T08:04:45.056Z</time>
      </trkpt>
      <trkpt lat="47.28763" lon="-0.21985">
        <ele>84</ele>
        <time>2011-04-03T08:04:46.202Z</time>
      </trkpt>
      <trkpt lat="47.28767" lon="-0.21992">
        <ele>84</ele>
        <time>2011-04-03T08:04:47.469Z</time>
      </trkpt>
      <trkpt lat="47.28771" lon="-0.21999">
        <ele>84</ele>
        <time>2011-04-03T08:04:48.736Z</time>
      </trkpt>
      <trkpt lat="47.28775" lon="-0.22007">
        <ele>84</ele>
        <time>2011-04-03T08:04:50.112Z</time>
      </trkpt>
      <trkpt lat="47.28778" lon="-0.22014">
        <ele>84</ele>
        <time>2011-04-03T08:04:51.258Z</time>
      </trkpt>
      <trkpt lat="47.28782" lon="-0.22021">
        <ele>84</ele>
        <time>2011-04-03T08:04:52.525Z</time>
      </trkpt>
      <trkpt lat="47.28786" lon="-0.22028">
        <ele>84</ele>
        <time>2011-04-03T08:04:53.792Z</time>
      </trkpt>
      <trkpt lat="47.28789" lon="-0.22035">
        <ele>84</ele>
        <time>2011-04-03T08:04:54.939Z</time>
      </trkpt>
      <trkpt lat="47.28793" lon="-0.22042">
        <ele>84</ele>
        <time>2011-04-03T08:04:56.207Z</time>
      </trkpt>
      <trkpt lat="47.28797" lon="-0.2205">
        <ele>84</ele>
        <time>2011-04-03T08:04:57.584Z</time>
      </trkpt>
      <trkpt lat="47.288" lon="-0.22057">
        <ele>84</ele>
        <time>2011-04-03T08:04:58.731Z</time>
      </trkpt>
      <trkpt lat="47.28804" lon="-0.22064">
        <ele>84</ele>
        <time>2011-04-03T08:05:00Z</time>
        <extensions>
          <type>
            <highway>track</highway>
            <surface>undefined</surface>
            </type>
        </extensions>
      </trkpt>
      <trkpt lat="47.28806" lon="-0.2207">
        <ele>84</ele>
        <time>2011-04-03T08:05:01.052Z</time>
      </trkpt>
      <trkpt lat="47.28809" lon="-0.22077">
        <ele>84</ele>
        <time>2011-04-03T08:05:02.355Z</time>
      </trkpt>
      <trkpt lat="47.28811" lon="-0.22083">
        <ele>84</ele>
        <time>2011-04-03T08:05:03.407Z</time>
      </trkpt>
      <trkpt lat="47.28813" lon="-0.22089">
        <ele>84</ele>
        <time>2011-04-03T08:05:04.459Z</time>
      </trkpt>
      <trkpt lat="47.28816" lon="-0.22095">
        <ele>84</ele>
        <time>2011-04-03T08:05:05.632Z</time>
      </trkpt>
      <trkpt lat="47.28818" lon="-0.22102">
        <ele>84</ele>
        <time>2011-04-03T08:05:06.827Z</time>
      </trkpt>
      <trkpt lat="47.2882" lon="-0.22108">
        <ele>84</ele>
        <time>2011-04-03T08:05:07.879Z</time>
      </trkpt>
      <trkpt lat="47.28823" lon="-0.22114">
        <ele>84</ele>
        <time>2011-04-03T08:05:09.052Z</time>
      </trkpt>
      <trkpt lat="47.28825" lon="-0.2212">
        <ele>84</ele>
        <time>2011-04-03T08:05:10.104Z</time>
      </trkpt>
      <trkpt lat="47.28827" lon="-0.22127">
        <ele>84</ele>
        <time>2011-04-03T08:05:11.299Z</time>
      </trkpt>
      <trkpt lat="47.28829" lon="-0.22133">
        <ele>84</ele>
        <time>2011-04-03T08:05:12.351Z</time>
      </trkpt>
      <trkpt lat="47.28832" lon="-0.22139">
        <ele>84</ele>
        <time>2011-04-03T08:05:13.524Z</time>
      </trkpt>
      <trkpt lat="47.28834" lon="-0.22145">
        <ele>84</ele>
        <time>2011-04-03T08:05:14.576Z</time>
      </trkpt>
      <trkpt lat="47.28836" lon="-0.22152">
        <ele>84.1</ele>
        <time>2011-04-03T08:05:15.772Z</time>
      </trkpt>
      <trkpt lat="47.28839" lon="-0.22158">
        <ele>84.1</ele>
        <time>2011-04-03T08:05:16.946Z</time>
      </trkpt>
      <trkpt lat="47.28841" lon="-0.22164">
        <ele>84.2</ele>
        <time>2011-04-03T08:05:18Z</time>
        <extensions>
          <type>
            <highway>track</highway>
            <surface>undefined</surface>
            </type>
        </extensions>
      </trkpt>
      <trkpt lat="47.28845" lon="-0.22172">
        <ele>84.5</ele>
        <time>2011-04-03T08:05:19.654Z</time>
      </trkpt>
      <trkpt lat="47.28849" lon="-0.22179">
        <ele>84.8</ele>
        <time>2011-04-03T08:05:21.177Z</time>
      </trkpt>
      <trkpt lat="47.28853" lon="-0.22187">
        <ele>84.9</ele>
        <time>2011-04-03T08:05:22.831Z</time>
      </trkpt>
      <trkpt lat="47.28858" lon="-0.22195">
        <ele>85</ele>
        <time>2011-04-03T08:05:24.642Z</time>
      </trkpt>
      <trkpt lat="47.28862" lon="-0.22202">
        <ele>85</ele>
        <time>2011-04-03T08:05:26.166Z</time>
      </trkpt>
      <trkpt lat="47.28866" lon="-0.2221">
        <ele>85</ele>
        <time>2011-04-03T08:05:27.820Z</time>
      </trkpt>
      <trkpt lat="47.2887" lon="-0.22217">
        <ele>85</ele>
        <time>2011-04-03T08:05:29.344Z</time>
      </trkpt>
      <trkpt lat="47.28874" lon="-0.22225">
        <ele>85</ele>
        <time>2011-04-03T08:05:31Z</time>
        <extensions>
          <type>
            <highway>track</highway>
            <surface>undefined</surface>
            </type>
        </extensions>
      </trkpt>
      <trkpt lat="47.28877" lon="-0.22232">
        <ele>85</ele>
        <time>2011-04-03T08:05:32.340Z</time>
      </trkpt>
      <trkpt lat="47.2888" lon="-0.2224">
        <ele>85</ele>
        <time>2011-04-03T08:05:33.819Z</time>
      </trkpt>
      <trkpt lat="47.28883" lon="-0.22247">
        <ele>85</ele>
        <time>2011-04-03T08:05:35.159Z</time>
      </trkpt>
      <trkpt lat="47.28886" lon="-0.22254">
        <ele>85</ele>
        <time>2011-04-03T08:05:36.499Z</time>
      </trkpt>
      <trkpt lat="47.28889" lon="-0.22261">
        <ele>85</ele>
        <time>2011-04-03T08:05:37.839Z</time>
      </trkpt>
      <trkpt lat="47.28892" lon="-0.22269">
        <ele>85.1</ele>
        <time>2011-04-03T08:05:39.318Z</time>
      </trkpt>
      <trkpt lat="47.28895" lon="-0.22276">
        <ele>85.2</ele>
        <time>2011-04-03T08:05:40.659Z</time>
      </trkpt>
      <trkpt lat="47.28898" lon="-0.22283">
        <ele>85.5</ele>
        <time>2011-04-03T08:05:42Z</time>
        <extensions>
          <type>
            <highway>track</highway>
            <surface>undefined</surface>
            </type>
        </extensions>
      </trkpt>
      <trkpt lat="47.28901" lon="-0.22288">
        <ele>85.7</ele>
        <time>2011-04-03T08:05:43.252Z</time>
      </trkpt>
      <trkpt lat="47.28905" lon="-0.22294">
        <ele>85.8</ele>
        <time>2011-04-03T08:05:44.830Z</time>
      </trkpt>
      <trkpt lat="47.28908" lon="-0.22299">
        <ele>85.9</ele>
        <time>2011-04-03T08:05:46.082Z</time>
      </trkpt>
      <trkpt lat="47.28912" lon="-0.22305">
        <ele>86</ele>
        <time>2011-04-03T08:05:47.661Z</time>
      </trkpt>
      <trkpt lat="47.28915" lon="-0.2231">
        <ele>86</ele>
        <time>2011-04-03T08:05:48.914Z</time>
      </trkpt>
      <trkpt lat="47.28918" lon="-0.22315">
        <ele>86</ele>
        <time>2011-04-03T08:05:50.167Z</time>
      </trkpt>
      <trkpt lat="47.28922" lon="-0.22321">
        <ele>86</ele>
        <time>2011-04-03T08:05:51.746Z</time>
      </trkpt>
      <trkpt lat="47.28925" lon="-0.22326">
        <ele>86</ele>
        <time>2011-04-03T08:05:53Z</time>
        <extensions>
          <type>
            <highway>track</highway>
            <surface>undefined</surface>
            </type>
        </extensions>
      </trkpt>
      <trkpt lat="47.28928" lon="-0.22338">
        <ele>86</ele>
        <time>2011-04-03T08:05:55.000Z</time>
      </trkpt>
      <trkpt lat="47.28931" lon="-0.2235">
        <ele>86</ele>
        <time>2011-04-03T08:05:57.000Z</time>
      </trkpt>
      <trkpt lat="47.28934" lon="-0.22362">
        <ele>86</ele>
        <time>2011-04-03T08:05:59.000Z</time>
      </trkpt>
      <trkpt lat="47.28937" lon="-0.22374">
        <ele>86</ele>
        <time>2011-04-03T08:06:01Z</time>
        <extensions>
          <type>
            <highway>track</highway>
            <surface>undefined</surface>
            </type>
        </extensions>
      </trkpt>
      <trkpt lat="47.28941" lon="-0.22384">
        <ele>86</ele>
        <time>2011-04-03T08:06:02.782Z</time>
      </trkpt>
      <trkpt lat="47.28945" lon="-0.22394">
        <ele>86</ele>
        <time>2011-04-03T08:06:04.564Z</time>
      </trkpt>
      <trkpt lat="47.28949" lon="-0.22403">
        <ele>86</ele>
        <time>2011-04-03T08:06:06.216Z</time>
      </trkpt>
      <trkpt lat="47.28953" lon="-0.22413">
        <ele>86</ele>
        <time>2011-04-03T08:06:08Z</time>
        <extensions>
          <type>
            <highway>track</highway>
            <surface>undefined</surface>
            </type>
        </extensions>
      </trkpt>
      <trkpt lat="47.28956" lon="-0.22422">
        <ele>86.1</ele>
        <time>2011-04-03T08:06:09.574Z</time>
      </trkpt>
      <trkpt lat="47.28958" lon="-0.22431">
        <ele>86.3</ele>
        <time>2011-04-03T08:06:11.060Z</time>
      </trkpt>
      <trkpt lat="47.28961" lon="-0.22441">
        <ele>86.5</ele>
        <time>2011-04-03T08:06:12.776Z</time>
      </trkpt>
      <trkpt lat="47.28963" lon="-0.2245">
        <ele>86.7</ele>
        <time>2011-04-03T08:06:14.262Z</time>
      </trkpt>
      <trkpt lat="47.28966" lon="-0.22459">
        <ele>86.9</ele>
        <time>2011-04-03T08:06:15.836Z</time>
      </trkpt>
      <trkpt lat="47.28968" lon="-0.22468">
        <ele>87</ele>
        <time>2011-04-03T08:06:17.322Z</time>
      </trkpt>
      <trkpt lat="47.28971" lon="-0.22477">
        <ele>87</ele>
        <time>2011-04-03T08:06:18.896Z</time>
      </trkpt>
      <trkpt lat="47.28974" lon="-0.22487">
        <ele>87</ele>
        <time>2011-04-03T08:06:20.612Z</time>
      </trkpt>
      <trkpt lat="47.28976" lon="-0.22496">
        <ele>87</ele>
        <time>2011-04-03T08:06:22.098Z</time>
      </trkpt>
      <trkpt lat="47.28979" lon="-0.22505">
        <ele>87</ele>
        <time>2011-04-03T08:06:23.672Z</time>
      </trkpt>
      <trkpt lat="47.28981" lon="-0.22514">
        <ele>87</ele>
        <time>2011-04-03T08:06:25.159Z</time>
      </trkpt>
      <trkpt lat="47.28984" lon="-0.22523">
        <ele>87</ele>
        <time>2011-04-03T08:06:26.733Z</time>
      </trkpt>
      <trkpt lat="47.28986" lon="-0.22532">
        <ele>87.1</ele>
        <time>2011-04-03T08:06:28.220Z</time>
      </trkpt>
      <trkpt lat="47.28989" lon="-0.22542">
        <ele>87.3</ele>
        <time>2011-04-03T08:06:29.937Z</time>
      </trkpt>
      <trkpt lat="47.28991" lon="-0.22551">
        <ele>87.6</ele>
        <time>2011-04-03T08:06:31.424Z</time>
      </trkpt>
      <trkpt lat="47.28994" lon="-0.2256">
        <ele>87.8</ele>
        <time>2011-04-03T08:06:33Z</time>
        <extensions>
          <type>
            <highway>track</highway>
            <surface>undefined</surface>
            </type>
        </extensions>
      </trkpt>
      <trkpt lat="47.28995" lon="-0.22571">
        <ele>87.8</ele>
        <time>2011-04-03T08:06:34.500Z</time>
      </trkpt>
      <trkpt lat="47.28996" lon="-0.22582">
        <ele>87.9</ele>
        <time>2011-04-03T08:06:36.000Z</time>
      </trkpt>
      <trkpt lat="47.28997" lon="-0.22593">
        <ele>87.9</ele>
        <time>2011-04-03T08:06:37.500Z</time>
      </trkpt>
      <trkpt lat="47.28998" lon="-0.22604">
        <ele>88</ele>
        <time>2011-04-03T08:06:39Z</time>
        <extensions>
          <type>
            <highway>track</highway>
            <surface>undefined</surface>
            </type>
        </extensions>
      </trkpt>
      <trkpt lat="47.28998" lon="-0.22613">
        <ele>88</ele>
        <time>2011-04-03T08:06:40.216Z</time>
      </trkpt>
      <trkpt lat="47.28998" lon="-0.22623">
        <ele>88</ele>
        <time>2011-04-03T08:06:41.567Z</time>
      </trkpt>
      <trkpt lat="47.28998" lon="-0.22632">
        <ele>88</ele>
        <time>2011-04-03T08:06:42.783Z</time>
      </trkpt>
      <trkpt lat="47.28998" lon="-0.22641">
        <ele>88</ele>
        <time>2011-04-03T08:06:44Z</time>
        <extensions>
          <type>
            <highway>track</highway>
            <surface>undefined</surface>
            </type>
        </extensions>
      </trkpt>
      <trkpt lat="47.28996" lon="-0.22652">
        <ele>88</ele>
        <time>2011-04-03T08:06:45.542Z</time>
      </trkpt>
      <trkpt lat="47.28994" lon="-0.22663">
        <ele>88</ele>
        <time>2011-04-03T08:06:47.084Z</time>
      </trkpt>
      <trkpt lat="47.28992" lon="-0.22675">
        <ele>88</ele>
        <time>2011-04-03T08:06:48.758Z</time>
      </trkpt>
      <trkpt lat="47.28991" lon="-0.22686">
        <ele>88</ele>
        <time>2011-04-03T08:06:50.261Z</time>
      </trkpt>
      <trkpt lat="47.28989" lon="-0.22697">
        <ele>88</ele>
        <time>2011-04-03T08:06:51.803Z</time>
      </trkpt>
      <trkpt lat="47.28987" lon="-0.22708">
        <ele>88</ele>
        <time>2011-04-03T08:06:53.346Z</time>
      </trkpt>
      <trkpt lat="47.28985" lon="-0.22719">
        <ele>88</ele>
        <time>2011-04-03T08:06:54.889Z</time>
      </trkpt>
      <trkpt lat="47.28983" lon="-0.22731">
        <ele>88</ele>
        <time>2011-04-03T08:06:56.563Z</time>
      </trkpt>
      <trkpt lat="47.28981" lon="-0.22742">
        <ele>88</ele>
        <time>2011-04-03T08:06:58.106Z</time>
      </trkpt>
      <trkpt lat="47.28979" lon="-0.22753">
        <ele>88.1</ele>
        <time>2011-04-03T08:06:59.649Z</time>
      </trkpt>
      <trkpt lat="47.28977" lon="-0.22764">
        <ele>88.5</ele>
        <time>2011-04-03T08:07:01.192Z</time>
      </trkpt>
      <trkpt lat="47.28976" lon="-0.22775">
        <ele>88.9</ele>
        <time>2011-04-03T08:07:02.695Z</time>
      </trkpt>
      <trkpt lat="47.28974" lon="-0.22786">
        <ele>89</ele>
        <time>2011-04-03T08:07:04.238Z</time>
      </trkpt>
      <trkpt lat="47.28972" lon="-0.22798">
        <ele>89</ele>
        <time>2011-04-03T08:07:05.912Z</time>
      </trkpt>
      <trkpt lat="47.2897" lon="-0.22809">
        <ele>89</ele>
        <time>2011-04-03T08:07:07.455Z</time>
      </trkpt>
      <trkpt lat="47.28968" lon="-0.2282">
        <ele>89</ele>
        <time>2011-04-03T08:07:09Z</time>
        <extensions>
          <type>
            <highway>track</highway>
            <surface>undefined</surface>
            </type>
        </extensions>
      </trkpt>
      <trkpt lat="47.28968" lon="-0.22828">
        <ele>89</ele>
        <time>2011-04-03T08:07:10.027Z</time>
      </trkpt>
      <trkpt lat="47.28969" lon="-0.22836">
        <ele>89.1</ele>
        <time>2011-04-03T08:07:11.072Z</time>
      </trkpt>
      <trkpt lat="47.28969" lon="-0.22843">
        <ele>89.3</ele>
        <time>2011-04-03T08:07:11.971Z</time>
      </trkpt>
      <trkpt lat="47.28969" lon="-0.22851">
        <ele>89.6</ele>
        <time>2011-04-03T08:07:13Z</time>
        <extensions>
          <type>
            <highway>track</highway>
            <surface>undefined</surface>
            </type>
        </extensions>
      </trkpt>
      <trkpt lat="47.28972" lon="-0.22861">
        <ele>90</ele>
        <time>2011-04-03T08:07:14.658Z</time>
      </trkpt>
      <trkpt lat="47.28974" lon="-0.22871">
        <ele>90</ele>
        <time>2011-04-03T08:07:16.239Z</time>
      </trkpt>
      <trkpt lat="47.28977" lon="-0.22881">
        <ele>90</ele>
        <time>2011-04-03T08:07:17.897Z</time>
      </trkpt>
      <trkpt lat="47.28979" lon="-0.22891">
        <ele>90</ele>
        <time>2011-04-03T08:07:19.478Z</time>
      </trkpt>
      <trkpt lat="47.28982" lon="-0.22901">
        <ele>90</ele>
        <time>2011-04-03T08:07:21.137Z</time>
      </trkpt>
      <trkpt lat="47.28984" lon="-0.22911">
        <ele>90</ele>
        <time>2011-04-03T08:07:22.718Z</time>
      </trkpt>
      <trkpt lat="47.28987" lon="-0.22921">
        <ele>90</ele>
        <time>2011-04-03T08:07:24.377Z</time>
      </trkpt>
      <trkpt lat="47.2899" lon="-0.22931">
        <ele>90</ele>
        <time>2011-04-03T08:07:26.036Z</time>
      </trkpt>
      <trkpt lat="47.28992" lon="-0.22941">
        <ele>90</ele>
        <time>2011-04-03T08:07:27.617Z</time>
      </trkpt>
      <trkpt lat="47.28995" lon="-0.22951">
        <ele>90</ele>
        <time>2011-04-03T08:07:29.276Z</time>
      </trkpt>
      <trkpt lat="47.28997" lon="-0.22961">
        <ele>90</ele>
        <time>2011-04-03T08:07:30.858Z</time>
      </trkpt>
      <trkpt lat="47.29" lon="-0.22971">
        <ele>90</ele>
        <time>2011-04-03T08:07:32.517Z</time>
      </trkpt>
      <trkpt lat="47.29002" lon="-0.22981">
        <ele>90</ele>
        <time>2011-04-03T08:07:34.099Z</time>
      </trkpt>
      <trkpt lat="47.29005" lon="-0.22991">
        <ele>90</ele>
        <time>2011-04-03T08:07:35.758Z</time>
      </trkpt>
      <trkpt lat="47.29007" lon="-0.23001">
        <ele>90</ele>
        <time>2011-04-03T08:07:37.340Z</time>
      </trkpt>
      <trkpt lat="47.2901" lon="-0.23011">
        <ele>90</ele>
        <time>2011-04-03T08:07:39Z</time>
        <extensions>
          <type>
            <highway>track</highway>
            <surface>undefined</surface>
            </type>
        </extensions>
      </trkpt>
      <trkpt lat="47.29014" lon="-0.23019">
        <ele>90</ele>
        <time>2011-04-03T08:07:40.696Z</time>
      </trkpt>
      <trkpt lat="47.29018" lon="-0.23028">
        <ele>90</ele>
        <time>2011-04-03T08:07:42.533Z</time>
      </trkpt>
      <trkpt lat="47.29022" lon="-0.23036">
        <ele>90.2</ele>
        <time>2011-04-03T08:07:44.229Z</time>
      </trkpt>
      <trkpt lat="47.29026" lon="-0.23044">
        <ele>90.6</ele>
        <time>2011-04-03T08:07:45.925Z</time>
      </trkpt>
      <trkpt lat="47.2903" lon="-0.23053">
        <ele>90.9</ele>
        <time>2011-04-03T08:07:47.762Z</time>
      </trkpt>
      <trkpt lat="47.29034" lon="-0.23061">
        <ele>91</ele>
        <time>2011-04-03T08:07:49.459Z</time>
      </trkpt>
      <trkpt lat="47.29038" lon="-0.23069">
        <ele>91</ele>
        <time>2011-04-03T08:07:51.156Z</time>
      </trkpt>
      <trkpt lat="47.29043" lon="-0.23078">
        <ele>91</ele>
        <time>2011-04-03T08:07:53.142Z</time>
      </trkpt>
      <trkpt lat="47.29047" lon="-0.23086">
        <ele>91</ele>
        <time>2011-04-03T08:07:54.839Z</time>
      </trkpt>
      <trkpt lat="47.29051" lon="-0.23094">
        <ele>91</ele>
        <time>2011-04-03T08:07:56.536Z</time>
      </trkpt>
      <trkpt lat="47.29055" lon="-0.23102">
        <ele>91</ele>
        <time>2011-04-03T08:07:58.233Z</time>
      </trkpt>
      <trkpt lat="47.29059" lon="-0.23111">
        <ele>91</ele>
        <time>2011-04-03T08:08:00.070Z</time>
      </trkpt>
      <trkpt lat="47.29063" lon="-0.23119">
        <ele>91.1</ele>
        <time>2011-04-03T08:08:01.767Z</time>
      </trkpt>
      <trkpt lat="47.29067" lon="-0.23127">
        <ele>91.2</ele>
        <time>2011-04-03T08:08:03.464Z</time>
      </trkpt>
      <trkpt lat="47.29071" lon="-0.23136">
        <ele>91.5</ele>
        <time>2011-04-03T08:08:05.302Z</time>
      </trkpt>
      <trkpt lat="47.29075" lon="-0.23144">
        <ele>91.7</ele>
        <time>2011-04-03T08:08:07Z</time>
        <extensions>
          <type>
            <highway>track</highway>
            <surface>undefined</surface>
            </type>
        </extensions>
      </trkpt>
      <trkpt lat="47.29081" lon="-0.23153">
        <ele>91.9</ele>
        <time>2011-04-03T08:08:09.203Z</time>
      </trkpt>
      <trkpt lat="47.29088" lon="-0.23162">
        <ele>92</ele>
        <time>2011-04-03T08:08:11.593Z</time>
      </trkpt>
      <trkpt lat="47.29094" lon="-0.23171">
        <ele>92</ele>
        <time>2011-04-03T08:08:13.796Z</time>
      </trkpt>
      <trkpt lat="47.291" lon="-0.2318">
        <ele>92</ele>
        <time>2011-04-03T08:08:16Z</time>
        <extensions>
          <type>
            <highway>track</highway>
            <surface>undefined</surface>
            </type>
        </extensions>
      </trkpt>
      <trkpt lat="47.29104" lon="-0.23177">
        <ele>92</ele>
        <time>2011-04-03T08:08:17.176Z</time>
      </trkpt>
      <trkpt lat="47.29108" lon="-0.23173">
        <ele>92</ele>
        <time>2011-04-03T08:08:18.443Z</time>
      </trkpt>
      <trkpt lat="47.29112" lon="-0.2317">
        <ele>92</ele>
        <time>2011-04-03T08:08:19.619Z</time>
      </trkpt>
      <trkpt lat="47.29117" lon="-0.23166">
        <ele>92</ele>
        <time>2011-04-03T08:08:21.110Z</time>
      </trkpt>
      <trkpt lat="47.29121" lon="-0.23163">
        <ele>92</ele>
        <time>2011-04-03T08:08:22.287Z</time>
      </trkpt>
      <trkpt lat="47.29125" lon="-0.23159">
        <ele>92</ele>
        <time>2011-04-03T08:08:23.554Z</time>
      </trkpt>
      <trkpt lat="47.29129" lon="-0.23156">
        <ele>92</ele>
        <time>2011-04-03T08:08:24.731Z</time>
      </trkpt>
      <trkpt lat="47.29133" lon="-0.23152">
        <ele>92</ele>
        <time>2011-04-03T08:08:26Z</time>
        <extensions>
          <type>
            <highway>track</highway>
            <surface>undefined</surface>
            </type>
        </extensions>
      </trkpt>
      <trkpt lat="47.29138" lon="-0.23155">
        <ele>92</ele>
        <time>2011-04-03T08:08:27.638Z</time>
      </trkpt>
      <trkpt lat="47.29142" lon="-0.23158">
        <ele>91.9</ele>
        <time>2011-04-03T08:08:29Z</time>
        <extensions>
          <type>
            <highway>unclassified</highway>
            <surface>undefined</surface>
            </type>
        </extensions>
      </trkpt>
      <trkpt lat="47.29145" lon="-0.23164">
        <ele>91.8</ele>
        <time>2011-04-03T08:08:30.348Z</time>
      </trkpt>
      <trkpt lat="47.29148" lon="-0.2317">
        <ele>91.7</ele>
        <time>2011-04-03T08:08:31.696Z</time>
      </trkpt>
      <trkpt lat="47.29151" lon="-0.23175">
        <ele>91.7</ele>
        <time>2011-04-03T08:08:32.903Z</time>
      </trkpt>
      <trkpt lat="47.29154" lon="-0.23181">
        <ele>91.7</ele>
        <time>2011-04-03T08:08:34.251Z</time>
      </trkpt>
      <trkpt lat="47.29157" lon="-0.23187">
        <ele>91.8</ele>
        <time>2011-04-03T08:08:35.600Z</time>
      </trkpt>
      <trkpt lat="47.2916" lon="-0.23193">
        <ele>92</ele>
        <time>2011-04-03T08:08:36.949Z</time>
      </trkpt>
      <trkpt lat="47.29163" lon="-0.23199">
        <ele>92</ele>
        <time>2011-04-03T08:08:38.298Z</time>
      </trkpt>
      <trkpt lat="47.29166" lon="-0.23205">
        <ele>92</ele>
        <time>2011-04-03T08:08:39.647Z</time>
      </trkpt>
      <trkpt lat="47.29168" lon="-0.2321">
        <ele>91.9</ele>
        <time>2011-04-03T08:08:40.697Z</time>
      </trkpt>
      <trkpt lat="47.29171" lon="-0.23216">
        <ele>91.8</ele>
        <time>2011-04-03T08:08:42.046Z</time>
      </trkpt>
      <trkpt lat="47.29174" lon="-0.23222">
        <ele>91.7</ele>
        <time>2011-04-03T08:08:43.395Z</time>
      </trkpt>
      <trkpt lat="47.29177" lon="-0.23228">
        <ele>91.7</ele>
        <time>2011-04-03T08:08:44.744Z</time>
      </trkpt>
      <trkpt lat="47.2918" lon="-0.23234">
        <ele>91.7</ele>
        <time>2011-04-03T08:08:46.093Z</time>
      </trkpt>
      <trkpt lat="47.29183" lon="-0.23239">
        <ele>91.8</ele>
        <time>2011-04-03T08:08:47.301Z</time>
      </trkpt>
      <trkpt lat="47.29186" lon="-0.23245">
        <ele>91.9</ele>
        <time>2011-04-03T08:08:48.650Z</time>
      </trkpt>
      <trkpt lat="47.29189" lon="-0.23251">
        <ele>92</ele>
        <time>2011-04-03T08:08:50Z</time>
        <extensions>
          <type>
            <highway>unclassified</highway>
            <surface>undefined</surface>
            </type>
        </extensions>
      </trkpt>
      <trkpt lat="47.29191" lon="-0.23258">
        <ele>92</ele>
        <time>2011-04-03T08:08:51.151Z</time>
      </trkpt>
      <trkpt lat="47.29194" lon="-0.23264">
        <ele>92</ele>
        <time>2011-04-03T08:08:52.281Z</time>
      </trkpt>
      <trkpt lat="47.29196" lon="-0.23271">
        <ele>92</ele>
        <time>2011-04-03T08:08:53.433Z</time>
      </trkpt>
      <trkpt lat="47.29199" lon="-0.23277">
        <ele>92</ele>
        <time>2011-04-03T08:08:54.563Z</time>
      </trkpt>
      <trkpt lat="47.29201" lon="-0.23284">
        <ele>92</ele>
        <time>2011-04-03T08:08:55.715Z</time>
      </trkpt>
      <trkpt lat="47.29203" lon="-0.2329">
        <ele>92</ele>
        <time>2011-04-03T08:08:56.729Z</time>
      </trkpt>
      <trkpt lat="47.29206" lon="-0.23297">
        <ele>92</ele>
        <time>2011-04-03T08:08:57.985Z</time>
      </trkpt>
      <trkpt lat="47.29208" lon="-0.23303">
        <ele>92</ele>
        <time>2011-04-03T08:08:59Z</time>
        <extensions>
          <type>
            <highway>unclassified</highway>
            <surface>undefined</surface>
            </type>
        </extensions>
      </trkpt>
      <trkpt lat="47.2921" lon="-0.23315">
        <ele>92</ele>
        <time>2011-04-03T08:09:00.945Z</time>
      </trkpt>
      <trkpt lat="47.29213" lon="-0.23328">
        <ele>92</ele>
        <time>2011-04-03T08:09:03.107Z</time>
      </trkpt>
      <trkpt lat="47.29215" lon="-0.2334">
        <ele>92.1</ele>
        <time>2011-04-03T08:09:05.053Z</time>
      </trkpt>
      <trkpt lat="47.29217" lon="-0.23352">
        <ele>92.1</ele>
        <time>2011-04-03T08:09:07Z</time>
        <extensions>
          <type>
            <highway>unclassified</highway>
            <surface>undefined</surface>
            </type>
        </extensions>
      </trkpt>
      <trkpt lat="47.29217" lon="-0.2336">
        <ele>92.2</ele>
        <time>2011-04-03T08:09:08.299Z</time>
      </trkpt>
      <trkpt lat="47.29216" lon="-0.23367">
        <ele>92.4</ele>
        <time>2011-04-03T08:09:09.461Z</time>
      </trkpt>
      <trkpt lat="47.29216" lon="-0.23375">
        <ele>92.6</ele>
        <time>2011-04-03T08:09:10.760Z</time>
      </trkpt>
      <trkpt lat="47.29215" lon="-0.23383">
        <ele>92.8</ele>
        <time>2011-04-03T08:09:12.081Z</time>
      </trkpt>
      <trkpt lat="47.29215" lon="-0.2339">
        <ele>93</ele>
        <time>2011-04-03T08:09:13.218Z</time>
      </trkpt>
      <trkpt lat="47.29214" lon="-0.23398">
        <ele>93</ele>
        <time>2011-04-03T08:09:14.540Z</time>
      </trkpt>
      <trkpt lat="47.29214" lon="-0.23405">
        <ele>93</ele>
        <time>2011-04-03T08:09:15.677Z</time>
      </trkpt>
      <trkpt lat="47.29213" lon="-0.23413">
        <ele>93</ele>
        <time>2011-04-03T08:09:17Z</time>
        <extensions>
          <type>
            <highway>unclassified</highway>
            <surface>undefined</surface>
            </type>
        </extensions>
      </trkpt>
      <trkpt lat="47.29214" lon="-0.23421">
        <ele>93</ele>
        <time>2011-04-03T08:09:18.213Z</time>
      </trkpt>
      <trkpt lat="47.29214" lon="-0.2343">
        <ele>93</ele>
        <time>2011-04-03T08:09:19.555Z</time>
      </trkpt>
      <trkpt lat="47.29215" lon="-0.23438">
        <ele>93</ele>
        <time>2011-04-03T08:09:20.768Z</time>
      </trkpt>
      <trkpt lat="47.29215" lon="-0.23446">
        <ele>93</ele>
        <time>2011-04-03T08:09:21.961Z</time>
      </trkpt>
      <trkpt lat="47.29216" lon="-0.23455">
        <ele>93.1</ele>
        <time>2011-04-03T08:09:23.321Z</time>
      </trkpt>
      <trkpt lat="47.29216" lon="-0.23463">
        <ele>93.1</ele>
        <time>2011-04-03T08:09:24.514Z</time>
      </trkpt>
      <trkpt lat="47.29217" lon="-0.23471">
        <ele>93.2</ele>
        <time>2011-04-03T08:09:25.728Z</time>
      </trkpt>
      <trkpt lat="47.29217" lon="-0.2348">
        <ele>93.2</ele>
        <time>2011-04-03T08:09:27.071Z</time>
      </trkpt>
      <trkpt lat="47.29218" lon="-0.23488">
        <ele>93.2</ele>
        <time>2011-04-03T08:09:28.285Z</time>
      </trkpt>
      <trkpt lat="47.29218" lon="-0.23496">
        <ele>93.2</ele>
        <time>2011-04-03T08:09:29.479Z</time>
      </trkpt>
      <trkpt lat="47.29219" lon="-0.23504">
        <ele>93.1</ele>
        <time>2011-04-03T08:09:30.693Z</time>
      </trkpt>
      <trkpt lat="47.29219" lon="-0.23513">
        <ele>93.1</ele>
        <time>2011-04-03T08:09:32.036Z</time>
      </trkpt>
      <trkpt lat="47.2922" lon="-0.23521">
        <ele>93</ele>
        <time>2011-04-03T08:09:33.250Z</time>
      </trkpt>
      <trkpt lat="47.2922" lon="-0.23529">
        <ele>93</ele>
        <time>2011-04-03T08:09:34.444Z</time>
      </trkpt>
      <trkpt lat="47.29221" lon="-0.23538">
        <ele>93</ele>
        <time>2011-04-03T08:09:35.805Z</time>
      </trkpt>
      <trkpt lat="47.29221" lon="-0.23546">
        <ele>93</ele>
        <time>2011-04-03T08:09:37Z</time>
        <extensions>
          <type>
            <highway>unclassified</highway>
            <surface>undefined</surface>
            </type>
        </extensions>
      </trkpt>
      <trkpt lat="47.29223" lon="-0.23553">
        <ele>93</ele>
        <time>2011-04-03T08:09:38.038Z</time>
      </trkpt>
      <trkpt lat="47.29225" lon="-0.2356">
        <ele>93</ele>
        <time>2011-04-03T08:09:39.076Z</time>
      </trkpt>
      <trkpt lat="47.29227" lon="-0.23566">
        <ele>93</ele>
        <time>2011-04-03T08:09:39.990Z</time>
      </trkpt>
      <trkpt lat="47.29229" lon="-0.23573">
        <ele>93</ele>
        <time>2011-04-03T08:09:41.028Z</time>
      </trkpt>
      <trkpt lat="47.2923" lon="-0.2358">
        <ele>93</ele>
        <time>2011-04-03T08:09:42.006Z</time>
      </trkpt>
      <trkpt lat="47.29232" lon="-0.23587">
        <ele>93</ele>
        <time>2011-04-03T08:09:43.045Z</time>
      </trkpt>
      <trkpt lat="47.29234" lon="-0.23593">
        <ele>92.8</ele>
        <time>2011-04-03T08:09:43.960Z</time>
      </trkpt>
      <trkpt lat="47.29236" lon="-0.236">
        <ele>92.7</ele>
        <time>2011-04-03T08:09:45Z</time>
        <extensions>
          <type>
            <highway>unclassified</highway>
            <surface>undefined</surface>
            </type>
        </extensions>
      </trkpt>
      <trkpt lat="47.29238" lon="-0.23606">
        <ele>92.5</ele>
        <time>2011-04-03T08:09:45.897Z</time>
      </trkpt>
      <trkpt lat="47.2924" lon="-0.23612">
        <ele>92.3</ele>
        <time>2011-04-03T08:09:46.794Z</time>
      </trkpt>
      <trkpt lat="47.29243" lon="-0.23619">
        <ele>92.3</ele>
        <time>2011-04-03T08:09:47.905Z</time>
      </trkpt>
      <trkpt lat="47.29245" lon="-0.23625">
        <ele>92.2</ele>
        <time>2011-04-03T08:09:48.802Z</time>
      </trkpt>
      <trkpt lat="47.29247" lon="-0.23631">
        <ele>92.1</ele>
        <time>2011-04-03T08:09:49.699Z</time>
      </trkpt>
      <trkpt lat="47.29249" lon="-0.23637">
        <ele>92</ele>
        <time>2011-04-03T08:09:50.596Z</time>
      </trkpt>
      <trkpt lat="47.29251" lon="-0.23643">
        <ele>92</ele>
        <time>2011-04-03T08:09:51.493Z</time>
      </trkpt>
      <trkpt lat="47.29254" lon="-0.2365">
        <ele>92</ele>
        <time>2011-04-03T08:09:52.604Z</time>
      </trkpt>
      <trkpt lat="47.29256" lon="-0.23656">
        <ele>92</ele>
        <time>2011-04-03T08:09:53.501Z</time>
      </trkpt>
      <trkpt lat="47.29258" lon="-0.23662">
        <ele>92</ele>
        <time>2011-04-03T08:09:54.398Z</time>
      </trkpt>
      <trkpt lat="47.2926" lon="-0.23668">
        <ele>92</ele>
        <time>2011-04-03T08:09:55.295Z</time>
      </trkpt>
      <trkpt lat="47.29262" lon="-0.23674">
        <ele>92.2</ele>
        <time>2011-04-03T08:09:56.192Z</time>
      </trkpt>
      <trkpt lat="47.29264" lon="-0.2368">
        <ele>92.2</ele>
        <time>2011-04-03T08:09:57.089Z</time>
      </trkpt>
      <trkpt lat="47.29267" lon="-0.23687">
        <ele>92.3</ele>
        <time>2011-04-03T08:09:58.200Z</time>
      </trkpt>
      <trkpt lat="47.29269" lon="-0.23693">
        <ele>92.3</ele>
        <time>2011-04-03T08:09:59.097Z</time>
      </trkpt>
      <trkpt lat="47.29271" lon="-0.23699">
        <ele>92.2</ele>
        <time>2011-04-03T08:09:59.994Z</time>
      </trkpt>
      <trkpt lat="47.29273" lon="-0.23705">
        <ele>92.2</ele>
        <time>2011-04-03T08:10:00.891Z</time>
      </trkpt>
      <trkpt lat="47.29275" lon="-0.23711">
        <ele>92.1</ele>
        <time>2011-04-03T08:10:01.788Z</time>
      </trkpt>
      <trkpt lat="47.29278" lon="-0.23718">
        <ele>92</ele>
        <time>2011-04-03T08:10:02.900Z</time>
      </trkpt>
      <trkpt lat="47.2928" lon="-0.23724">
        <ele>92</ele>
        <time>2011-04-03T08:10:03.797Z</time>
      </trkpt>
      <trkpt lat="47.29282" lon="-0.2373">
        <ele>92</ele>
        <time>2011-04-03T08:10:04.694Z</time>
      </trkpt>
      <trkpt lat="47.29284" lon="-0.23736">
        <ele>92</ele>
        <time>2011-04-03T08:10:05.591Z</time>
      </trkpt>
      <trkpt lat="47.29286" lon="-0.23742">
        <ele>92</ele>
        <time>2011-04-03T08:10:06.489Z</time>
      </trkpt>
      <trkpt lat="47.29289" lon="-0.23749">
        <ele>92</ele>
        <time>2011-04-03T08:10:07.601Z</time>
      </trkpt>
      <trkpt lat="47.29291" lon="-0.23755">
        <ele>92</ele>
        <time>2011-04-03T08:10:08.499Z</time>
      </trkpt>
      <trkpt lat="47.29293" lon="-0.23761">
        <ele>92</ele>
        <time>2011-04-03T08:10:09.397Z</time>
      </trkpt>
      <trkpt lat="47.29295" lon="-0.23767">
        <ele>92</ele>
        <time>2011-04-03T08:10:10.295Z</time>
      </trkpt>
      <trkpt lat="47.29297" lon="-0.23773">
        <ele>92</ele>
        <time>2011-04-03T08:10:11.193Z</time>
      </trkpt>
      <trkpt lat="47.29299" lon="-0.23779">
        <ele>92</ele>
        <time>2011-04-03T08:10:12.091Z</time>
      </trkpt>
      <trkpt lat="47.29302" lon="-0.23786">
        <ele>91.8</ele>
        <time>2011-04-03T08:10:13.203Z</time>
      </trkpt>
      <trkpt lat="47.29304" lon="-0.23792">
        <ele>91.5</ele>
        <time>2011-04-03T08:10:14.101Z</time>
      </trkpt>
      <trkpt lat="47.29306" lon="-0.23798">
        <ele>91.3</ele>
        <time>2011-04-03T08:10:15Z</time>
        <extensions>
          <type>
            <highway>unclassified</highway>
            <surface>undefined</surface>
            </type>
        </extensions>
      </trkpt>
      <trkpt lat="47.29309" lon="-0.23806">
        <ele>91</ele>
        <time>2011-04-03T08:10:16.151Z</time>
      </trkpt>
      <trkpt lat="47.29313" lon="-0.23813">
        <ele>91</ele>
        <time>2011-04-03T08:10:17.304Z</time>
      </trkpt>
      <trkpt lat="47.29316" lon="-0.23821">
        <ele>91</ele>
        <time>2011-04-03T08:10:18.455Z</time>
      </trkpt>
      <trkpt lat="47.29319" lon="-0.23828">
        <ele>91</ele>
        <time>2011-04-03T08:10:19.498Z</time>
      </trkpt>
      <trkpt lat="47.29322" lon="-0.23836">
        <ele>91</ele>
        <time>2011-04-03T08:10:20.650Z</time>
      </trkpt>
      <trkpt lat="47.29326" lon="-0.23843">
        <ele>90.8</ele>
        <time>2011-04-03T08:10:21.803Z</time>
      </trkpt>
      <trkpt lat="47.29329" lon="-0.23851">
        <ele>90.5</ele>
        <time>2011-04-03T08:10:22.955Z</time>
      </trkpt>
      <trkpt lat="47.29332" lon="-0.23858">
        <ele>90.2</ele>
        <time>2011-04-03T08:10:24Z</time>
        <extensions>
          <type>
            <highway>unclassified</highway>
            <surface>undefined</surface>
            </type>
        </extensions>
      </trkpt>
      <trkpt lat="47.29337" lon="-0.23868">
        <ele>90</ele>
        <time>2011-04-03T08:10:25.745Z</time>
      </trkpt>
      <trkpt lat="47.29343" lon="-0.23878">
        <ele>90</ele>
        <time>2011-04-03T08:10:27.620Z</time>
      </trkpt>
      <trkpt lat="47.29348" lon="-0.23887">
        <ele>90</ele>
        <time>2011-04-03T08:10:29.254Z</time>
      </trkpt>
      <trkpt lat="47.29353" lon="-0.23897">
        <ele>89.7</ele>
        <time>2011-04-03T08:10:30.999Z</time>
      </trkpt>
      <trkpt lat="47.29358" lon="-0.23907">
        <ele>89.4</ele>
        <time>2011-04-03T08:10:32.744Z</time>
      </trkpt>
      <trkpt lat="47.29364" lon="-0.23917">
        <ele>89</ele>
        <time>2011-04-03T08:10:34.619Z</time>
      </trkpt>
      <trkpt lat="47.29369" lon="-0.23926">
        <ele>89</ele>
        <time>2011-04-03T08:10:36.253Z</time>
      </trkpt>
      <trkpt lat="47.29374" lon="-0.23936">
        <ele>89</ele>
        <time>2011-04-03T08:10:37.998Z</time>
      </trkpt>
      <trkpt lat="47.29379" lon="-0.23946">
        <ele>89</ele>
        <time>2011-04-03T08:10:39.743Z</time>
      </trkpt>
      <trkpt lat="47.29385" lon="-0.23956">
        <ele>88.7</ele>
        <time>2011-04-03T08:10:41.618Z</time>
      </trkpt>
      <trkpt lat="47.2939" lon="-0.23965">
        <ele>88.2</ele>
        <time>2011-04-03T08:10:43.252Z</time>
      </trkpt>
      <trkpt lat="47.29395" lon="-0.23975">
        <ele>88</ele>
        <time>2011-04-03T08:10:44.997Z</time>
      </trkpt>
      <trkpt lat="47.294" lon="-0.23985">
        <ele>88</ele>
        <time>2011-04-03T08:10:46.742Z</time>
      </trkpt>
      <trkpt lat="47.29406" lon="-0.23995">
        <ele>88</ele>
        <time>2011-04-03T08:10:48.618Z</time>
      </trkpt>
      <trkpt lat="47.29411" lon="-0.24004">
        <ele>87.9</ele>
        <time>2011-04-03T08:10:50.253Z</time>
      </trkpt>
      <trkpt lat="47.29416" lon="-0.24014">
        <ele>87.5</ele>
        <time>2011-04-03T08:10:52Z</time>
        <extensions>
          <type>
            <highway>track</highway>
            <surface>undefined</surface>
            </type>
        </extensions>
      </trkpt>
      <trkpt lat="47.29409" lon="-0.24022">
        <ele>87.4</ele>
        <time>2011-04-03T08:10:54.717Z</time>
      </trkpt>
      <trkpt lat="47.29402" lon="-0.24029">
        <ele>87.5</ele>
        <time>2011-04-03T08:10:57.311Z</time>
      </trkpt>
      <trkpt lat="47.29395" lon="-0.24037">
        <ele>87.8</ele>
        <time>2011-04-03T08:11:00.028Z</time>
      </trkpt>
      <trkpt lat="47.29389" lon="-0.24044">
        <ele>88</ele>
        <time>2011-04-03T08:11:02.375Z</time>
      </trkpt>
      <trkpt lat="47.29382" lon="-0.24052">
        <ele>88.3</ele>
        <time>2011-04-03T08:11:05.092Z</time>
      </trkpt>
      <trkpt lat="47.29375" lon="-0.24059">
        <ele>88.5</ele>
        <time>2011-04-03T08:11:07.687Z</time>
      </trkpt>
      <trkpt lat="47.29368" lon="-0.24067">
        <ele>88.8</ele>
        <time>2011-04-03T08:11:10.404Z</time>
      </trkpt>
      <trkpt lat="47.29361" lon="-0.24074">
        <ele>89</ele>
        <time>2011-04-03T08:11:13Z</time>
        <extensions>
          <type>
            <highway>track</highway>
            <surface>undefined</surface>
            </type>
        </extensions>
      </trkpt>
      <trkpt lat="47.29362" lon="-0.24081">
        <ele>89</ele>
        <time>2011-04-03T08:11:14.516Z</time>
      </trkpt>
      <trkpt lat="47.29362" lon="-0.24088">
        <ele>88.8</ele>
        <time>2011-04-03T08:11:16Z</time>
        <extensions>
          <type>
            <highway>track</highway>
            <surface>undefined</surface>
            </type>
        </extensions>
      </trkpt>
      <trkpt lat="47.29367" lon="-0.24096">
        <ele>88.4</ele>
        <time>2011-04-03T08:11:17.751Z</time>
      </trkpt>
      <trkpt lat="47.29371" lon="-0.24104">
        <ele>88.2</ele>
        <time>2011-04-03T08:11:19.351Z</time>
      </trkpt>
      <trkpt lat="47.29375" lon="-0.24112">
        <ele>88</ele>
        <time>2011-04-03T08:11:20.951Z</time>
      </trkpt>
      <trkpt lat="47.2938" lon="-0.2412">
        <ele>87.8</ele>
        <time>2011-04-03T08:11:22.702Z</time>
      </trkpt>
      <trkpt lat="47.29384" lon="-0.24127">
        <ele>87.5</ele>
        <time>2011-04-03T08:11:24.175Z</time>
      </trkpt>
      <trkpt lat="47.29389" lon="-0.24135">
        <ele>87.1</ele>
        <time>2011-04-03T08:11:25.926Z</time>
      </trkpt>
      <trkpt lat="47.29393" lon="-0.24143">
        <ele>86.8</ele>
        <time>2011-04-03T08:11:27.526Z</time>
      </trkpt>
      <trkpt lat="47.29398" lon="-0.24151">
        <ele>86.7</ele>
        <time>2011-04-03T08:11:29.277Z</time>
      </trkpt>
      <trkpt lat="47.29402" lon="-0.24159">
        <ele>86.5</ele>
        <time>2011-04-03T08:11:30.877Z</time>
      </trkpt>
      <trkpt lat="47.29407" lon="-0.24167">
        <ele>86.4</ele>
        <time>2011-04-03T08:11:32.628Z</time>
      </trkpt>
      <trkpt lat="47.29411" lon="-0.24175">
        <ele>86.2</ele>
        <time>2011-04-03T08:11:34.228Z</time>
      </trkpt>
      <trkpt lat="47.29416" lon="-0.24183">
        <ele>86</ele>
        <time>2011-04-03T08:11:35.980Z</time>
      </trkpt>
      <trkpt lat="47.2942" lon="-0.2419">
        <ele>85.9</ele>
        <time>2011-04-03T08:11:37.454Z</time>
      </trkpt>
      <trkpt lat="47.29425" lon="-0.24198">
        <ele>85.7</ele>
        <time>2011-04-03T08:11:39.206Z</time>
      </trkpt>
      <trkpt lat="47.29429" lon="-0.24206">
        <ele>85.6</ele>
        <time>2011-04-03T08:11:40.806Z</time>
      </trkpt>
      <trkpt lat="47.29434" lon="-0.24214">
        <ele>85.4</ele>
        <time>2011-04-03T08:11:42.558Z</time>
      </trkpt>
      <trkpt lat="47.29438" lon="-0.24222">
        <ele>85.2</ele>
        <time>2011-04-03T08:11:44.158Z</time>
      </trkpt>
      <trkpt lat="47.29442" lon="-0.2423">
        <ele>85.1</ele>
        <time>2011-04-03T08:11:45.758Z</time>
      </trkpt>
      <trkpt lat="47.29447" lon="-0.24238">
        <ele>85</ele>
        <time>2011-04-03T08:11:47.510Z</time>
      </trkpt>
      <trkpt lat="47.29451" lon="-0.24246">
        <ele>85</ele>
        <time>2011-04-03T08:11:49.110Z</time>
      </trkpt>
      <trkpt lat="47.29456" lon="-0.24253">
        <ele>85.1</ele>
        <time>2011-04-03T08:11:50.747Z</time>
      </trkpt>
      <trkpt lat="47.2946" lon="-0.24261">
        <ele>85.4</ele>
        <time>2011-04-03T08:11:52.347Z</time>
      </trkpt>
      <trkpt lat="47.29465" lon="-0.24269">
        <ele>85.7</ele>
        <time>2011-04-03T08:11:54.099Z</time>
      </trkpt>
      <trkpt lat="47.29469" lon="-0.24277">
        <ele>86</ele>
        <time>2011-04-03T08:11:55.700Z</time>
      </trkpt>
      <trkpt lat="47.29474" lon="-0.24285">
        <ele>85.9</ele>
        <time>2011-04-03T08:11:57.452Z</time>
      </trkpt>
      <trkpt lat="47.29478" lon="-0.24293">
        <ele>85.8</ele>
        <time>2011-04-03T08:11:59.053Z</time>
      </trkpt>
      <trkpt lat="47.29483" lon="-0.24301">
        <ele>85.6</ele>
        <time>2011-04-03T08:12:00.805Z</time>
      </trkpt>
      <trkpt lat="47.29487" lon="-0.24309">
        <ele>85.5</ele>
        <time>2011-04-03T08:12:02.406Z</time>
      </trkpt>
      <trkpt lat="47.29492" lon="-0.24316">
        <ele>85.6</ele>
        <time>2011-04-03T08:12:04.044Z</time>
      </trkpt>
      <trkpt lat="47.29496" lon="-0.24324">
        <ele>85.7</ele>
        <time>2011-04-03T08:12:05.645Z</time>
      </trkpt>
      <trkpt lat="47.29501" lon="-0.24332">
        <ele>85.9</ele>
        <time>2011-04-03T08:12:07.398Z</time>
      </trkpt>
      <trkpt lat="47.29505" lon="-0.2434">
        <ele>85.8</ele>
        <time>2011-04-03T08:12:09Z</time>
        <extensions>
          <type>
            <highway>track</highway>
            <surface>undefined</surface>
            </type>
        </extensions>
      </trkpt>
      <trkpt lat="47.29509" lon="-0.24346">
        <ele>85.7</ele>
        <time>2011-04-03T08:12:10.410Z</time>
      </trkpt>
      <trkpt lat="47.29513" lon="-0.24352">
        <ele>85.5</ele>
        <time>2011-04-03T08:12:11.820Z</time>
      </trkpt>
      <trkpt lat="47.29517" lon="-0.24357">
        <ele>85.4</ele>
        <time>2011-04-03T08:12:13.115Z</time>
      </trkpt>
      <trkpt lat="47.29521" lon="-0.24363">
        <ele>85.1</ele>
        <time>2011-04-03T08:12:14.525Z</time>
      </trkpt>
      <trkpt lat="47.29525" lon="-0.24369">
        <ele>84.6</ele>
        <time>2011-04-03T08:12:15.935Z</time>
      </trkpt>
      <trkpt lat="47.29529" lon="-0.24375">
        <ele>84</ele>
        <time>2011-04-03T08:12:17.345Z</time>
      </trkpt>
      <trkpt lat="47.29533" lon="-0.24381">
        <ele>83.4</ele>
        <time>2011-04-03T08:12:18.755Z</time>
      </trkpt>
      <trkpt lat="47.29537" lon="-0.24386">
        <ele>82.8</ele>
        <time>2011-04-03T08:12:20.050Z</time>
      </trkpt>
      <trkpt lat="47.2954" lon="-0.24392">
        <ele>82.4</ele>
        <time>2011-04-03T08:12:21.299Z</time>
      </trkpt>
      <trkpt lat="47.29544" lon="-0.24398">
        <ele>82.1</ele>
        <time>2011-04-03T08:12:22.709Z</time>
      </trkpt>
      <trkpt lat="47.29548" lon="-0.24404">
        <ele>81.7</ele>
        <time>2011-04-03T08:12:24.119Z</time>
      </trkpt>
      <trkpt lat="47.29552" lon="-0.24409">
        <ele>81.4</ele>
        <time>2011-04-03T08:12:25.414Z</time>
      </trkpt>
      <trkpt lat="47.29556" lon="-0.24415">
        <ele>81</ele>
        <time>2011-04-03T08:12:26.824Z</time>
      </trkpt>
      <trkpt lat="47.2956" lon="-0.24421">
        <ele>80.4</ele>
        <time>2011-04-03T08:12:28.234Z</time>
      </trkpt>
      <trkpt lat="47.29564" lon="-0.24427">
        <ele>79.8</ele>
        <time>2011-04-03T08:12:29.644Z</time>
      </trkpt>
      <trkpt lat="47.29568" lon="-0.24433">
        <ele>79.2</ele>
        <time>2011-04-03T08:12:31.054Z</time>
      </trkpt>
      <trkpt lat="47.29572" lon="-0.24438">
        <ele>78.7</ele>
        <time>2011-04-03T08:12:32.350Z</time>
      </trkpt>
      <trkpt lat="47.29576" lon="-0.24444">
        <ele>78.3</ele>
        <time>2011-04-03T08:12:33.760Z</time>
      </trkpt>
      <trkpt lat="47.2958" lon="-0.2445">
        <ele>77.7</ele>
        <time>2011-04-03T08:12:35.170Z</time>
      </trkpt>
      <trkpt lat="47.29584" lon="-0.24456">
        <ele>77.2</ele>
        <time>2011-04-03T08:12:36.580Z</time>
      </trkpt>
      <trkpt lat="47.29588" lon="-0.24461">
        <ele>76.5</ele>
        <time>2011-04-03T08:12:37.876Z</time>
      </trkpt>
      <trkpt lat="47.29592" lon="-0.24467">
        <ele>75.8</ele>
        <time>2011-04-03T08:12:39.286Z</time>
      </trkpt>
      <trkpt lat="47.29596" lon="-0.24473">
        <ele>75.1</ele>
        <time>2011-04-03T08:12:40.696Z</time>
      </trkpt>
      <trkpt lat="47.296" lon="-0.24479">
        <ele>74.4</ele>
        <time>2011-04-03T08:12:42.106Z</time>
      </trkpt>
      <trkpt lat="47.29603" lon="-0.24485">
        <ele>73.7</ele>
        <time>2011-04-03T08:12:43.355Z</time>
      </trkpt>
      <trkpt lat="47.29607" lon="-0.2449">
        <ele>73</ele>
        <time>2011-04-03T08:12:44.651Z</time>
      </trkpt>
      <trkpt lat="47.29611" lon="-0.24496">
        <ele>72.3</ele>
        <time>2011-04-03T08:12:46.061Z</time>
      </trkpt>
      <trkpt lat="47.29615" lon="-0.24502">
        <ele>71.8</ele>
        <time>2011-04-03T08:12:47.471Z</time>
      </trkpt>
      <trkpt lat="47.29619" lon="-0.24508">
        <ele>71.7</ele>
        <time>2011-04-03T08:12:48.881Z</time>
      </trkpt>
      <trkpt lat="47.29623" lon="-0.24513">
        <ele>71.6</ele>
        <time>2011-04-03T08:12:50.177Z</time>
      </trkpt>
      <trkpt lat="47.29627" lon="-0.24519">
        <ele>71.4</ele>
        <time>2011-04-03T08:12:51.588Z</time>
      </trkpt>
      <trkpt lat="47.29631" lon="-0.24525">
        <ele>71.3</ele>
        <time>2011-04-03T08:12:53Z</time>
        <extensions>
          <type>
            <highway>track</highway>
            <surface>undefined</surface>
            </type>
        </extensions>
      </trkpt>
      <trkpt lat="47.29634" lon="-0.24533">
        <ele>71</ele>
        <time>2011-04-03T08:12:57Z</time>
        <extensions>
          <type>
            <highway>track</highway>
            <surface>undefined</surface>
            </type>
        </extensions>
      </trkpt>
      <trkpt lat="47.29629" lon="-0.24532">
        <ele>71.2</ele>
        <time>2011-04-03T08:13:09Z</time>
        <extensions>
          <type>
            <highway>track</highway>
            <surface>undefined</surface>
            </type>
        </extensions>
      </trkpt>
      <trkpt lat="47.29634" lon="-0.24532">
        <ele>71</ele>
        <time>2011-04-03T08:20:17.888Z</time>
      </trkpt>
      <trkpt lat="47.29638" lon="-0.24532">
        <ele>70.9</ele>
        <time>2011-04-03T08:26:01Z</time>
        <extensions>
          <type>
            <highway>track</highway>
            <surface>undefined</surface>
            </type>
        </extensions>
      </trkpt>
      <trkpt lat="47.29643" lon="-0.24529">
        <ele>71</ele>
        <time>2011-04-03T08:26:03.730Z</time>
      </trkpt>
      <trkpt lat="47.29647" lon="-0.24526">
        <ele>71</ele>
        <time>2011-04-03T08:26:05.999Z</time>
      </trkpt>
      <trkpt lat="47.29652" lon="-0.24523">
        <ele>71</ele>
        <time>2011-04-03T08:26:08.729Z</time>
      </trkpt>
      <trkpt lat="47.29656" lon="-0.2452">
        <ele>71</ele>
        <time>2011-04-03T08:26:11Z</time>
        <extensions>
          <type>
            <highway>unclassified</highway>
            <surface>undefined</surface>
            </type>
        </extensions>
      </trkpt>
      <trkpt lat="47.29661" lon="-0.24529">
        <ele>71</ele>
        <time>2011-04-03T08:26:14.100Z</time>
      </trkpt>
      <trkpt lat="47.29666" lon="-0.24537">
        <ele>70.7</ele>
        <time>2011-04-03T08:26:17Z</time>
        <extensions>
          <type>
            <highway>unclassified</highway>
            <surface>undefined</surface>
            </type>
        </extensions>
      </trkpt>
      <trkpt lat="47.29669" lon="-0.24546">
        <ele>70.5</ele>
        <time>2011-04-03T08:26:18.756Z</time>
      </trkpt>
      <trkpt lat="47.29673" lon="-0.24555">
        <ele>70.5</ele>
        <time>2011-04-03T08:26:20.641Z</time>
      </trkpt>
      <trkpt lat="47.29676" lon="-0.24563">
        <ele>70.8</ele>
        <time>2011-04-03T08:26:22.242Z</time>
      </trkpt>
      <trkpt lat="47.29679" lon="-0.24572">
        <ele>71.4</ele>
        <time>2011-04-03T08:26:24Z</time>
        <extensions>
          <type>
            <highway>unclassified</highway>
            <surface>undefined</surface>
            </type>
        </extensions>
      </trkpt>
      <trkpt lat="47.29681" lon="-0.24584">
        <ele>72.1</ele>
        <time>2011-04-03T08:26:26.055Z</time>
      </trkpt>
      <trkpt lat="47.29683" lon="-0.24597">
        <ele>72.4</ele>
        <time>2011-04-03T08:26:28.272Z</time>
      </trkpt>
      <trkpt lat="47.29685" lon="-0.24609">
        <ele>72.7</ele>
        <time>2011-04-03T08:26:30.328Z</time>
      </trkpt>
      <trkpt lat="47.29688" lon="-0.24622">
        <ele>73</ele>
        <time>2011-04-03T08:26:32.613Z</time>
      </trkpt>
      <trkpt lat="47.2969" lon="-0.24634">
        <ele>73.3</ele>
        <time>2011-04-03T08:26:34.669Z</time>
      </trkpt>
      <trkpt lat="47.29692" lon="-0.24646">
        <ele>73.6</ele>
        <time>2011-04-03T08:26:36.725Z</time>
      </trkpt>
      <trkpt lat="47.29694" lon="-0.24659">
        <ele>73.9</ele>
        <time>2011-04-03T08:26:38.943Z</time>
      </trkpt>
      <trkpt lat="47.29696" lon="-0.24671">
        <ele>73.7</ele>
        <time>2011-04-03T08:26:41Z</time>
        <extensions>
          <type>
            <highway>unclassified</highway>
            <surface>undefined</surface>
            </type>
        </extensions>
      </trkpt>
      <trkpt lat="47.29699" lon="-0.24677">
        <ele>73.5</ele>
        <time>2011-04-03T08:26:42.035Z</time>
      </trkpt>
      <trkpt lat="47.29702" lon="-0.24682">
        <ele>73.3</ele>
        <time>2011-04-03T08:26:42.962Z</time>
      </trkpt>
      <trkpt lat="47.29705" lon="-0.24688">
        <ele>73.2</ele>
        <time>2011-04-03T08:26:43.997Z</time>
      </trkpt>
      <trkpt lat="47.29709" lon="-0.24693">
        <ele>73.2</ele>
        <time>2011-04-03T08:26:45.071Z</time>
      </trkpt>
      <trkpt lat="47.29712" lon="-0.24699">
        <ele>73</ele>
        <time>2011-04-03T08:26:46.107Z</time>
      </trkpt>
      <trkpt lat="47.29715" lon="-0.24704">
        <ele>72.7</ele>
        <time>2011-04-03T08:26:47.035Z</time>
      </trkpt>
      <trkpt lat="47.29718" lon="-0.2471">
        <ele>72.4</ele>
        <time>2011-04-03T08:26:48.071Z</time>
      </trkpt>
      <trkpt lat="47.29721" lon="-0.24715">
        <ele>71.9</ele>
        <time>2011-04-03T08:26:49Z</time>
        <extensions>
          <type>
            <highway>unclassified</highway>
            <surface>undefined</surface>
            </type>
        </extensions>
      </trkpt>
      <trkpt lat="47.29725" lon="-0.24719">
        <ele>71.5</ele>
        <time>2011-04-03T08:26:49.730Z</time>
      </trkpt>
      <trkpt lat="47.2973" lon="-0.24723">
        <ele>71</ele>
        <time>2011-04-03T08:26:50.590Z</time>
      </trkpt>
      <trkpt lat="47.29734" lon="-0.24726">
        <ele>70.5</ele>
        <time>2011-04-03T08:26:51.268Z</time>
      </trkpt>
      <trkpt lat="47.29738" lon="-0.2473">
        <ele>70</ele>
        <time>2011-04-03T08:26:51.998Z</time>
      </trkpt>
      <trkpt lat="47.29742" lon="-0.24734">
        <ele>69.4</ele>
        <time>2011-04-03T08:26:52.729Z</time>
      </trkpt>
      <trkpt lat="47.29747" lon="-0.24738">
        <ele>68.9</ele>
        <time>2011-04-03T08:26:53.589Z</time>
      </trkpt>
      <trkpt lat="47.29751" lon="-0.24741">
        <ele>68.2</ele>
        <time>2011-04-03T08:26:54.268Z</time>
      </trkpt>
      <trkpt lat="47.29755" lon="-0.24745">
        <ele>67.5</ele>
        <time>2011-04-03T08:26:55Z</time>
        <extensions>
          <type>
            <highway>unclassified</highway>
            <surface>undefined</surface>
            </type>
        </extensions>
      </trkpt>
      <trkpt lat="47.29763" lon="-0.24747">
        <ele>66.9</ele>
        <time>2011-04-03T08:26:57.363Z</time>
      </trkpt>
      <trkpt lat="47.29771" lon="-0.24749">
        <ele>66.4</ele>
        <time>2011-04-03T08:26:59.726Z</time>
      </trkpt>
      <trkpt lat="47.29778" lon="-0.24751">
        <ele>65.9</ele>
        <time>2011-04-03T08:27:01.803Z</time>
      </trkpt>
      <trkpt lat="47.29786" lon="-0.24753">
        <ele>65.5</ele>
        <time>2011-04-03T08:27:04.166Z</time>
      </trkpt>
      <trkpt lat="47.29794" lon="-0.24755">
        <ele>65.1</ele>
        <time>2011-04-03T08:27:06.529Z</time>
      </trkpt>
      <trkpt lat="47.29802" lon="-0.24757">
        <ele>64.8</ele>
        <time>2011-04-03T08:27:08.892Z</time>
      </trkpt>
      <trkpt lat="47.2981" lon="-0.24759">
        <ele>64.6</ele>
        <time>2011-04-03T08:27:11.256Z</time>
      </trkpt>
      <trkpt lat="47.29818" lon="-0.24762">
        <ele>64.4</ele>
        <time>2011-04-03T08:27:13.660Z</time>
      </trkpt>
      <trkpt lat="47.29825" lon="-0.24764">
        <ele>64.2</ele>
        <time>2011-04-03T08:27:15.737Z</time>
      </trkpt>
      <trkpt lat="47.29833" lon="-0.24766">
        <ele>63.9</ele>
        <time>2011-04-03T08:27:18.101Z</time>
      </trkpt>
      <trkpt lat="47.29841" lon="-0.24768">
        <ele>63.6</ele>
        <time>2011-04-03T08:27:20.465Z</time>
      </trkpt>
      <trkpt lat="47.29849" lon="-0.2477">
        <ele>63.4</ele>
        <time>2011-04-03T08:27:22.829Z</time>
      </trkpt>
      <trkpt lat="47.29857" lon="-0.24772">
        <ele>63.3</ele>
        <time>2011-04-03T08:27:25.193Z</time>
      </trkpt>
      <trkpt lat="47.29864" lon="-0.24774">
        <ele>63.2</ele>
        <time>2011-04-03T08:27:27.270Z</time>
      </trkpt>
      <trkpt lat="47.29872" lon="-0.24776">
        <ele>63.1</ele>
        <time>2011-04-03T08:27:29.635Z</time>
      </trkpt>
      <trkpt lat="47.2988" lon="-0.24778">
        <ele>63</ele>
        <time>2011-04-03T08:27:32Z</time>
        <extensions>
          <type>
            <highway>unclassified</highway>
            <surface>undefined</surface>
            </type>
        </extensions>
      </trkpt>
      <trkpt lat="47.29883" lon="-0.24783">
        <ele>62.8</ele>
        <time>2011-04-03T08:27:32.717Z</time>
      </trkpt>
      <trkpt lat="47.29887" lon="-0.24788">
        <ele>62.6</ele>
        <time>2011-04-03T08:27:33.547Z</time>
      </trkpt>
      <trkpt lat="47.2989" lon="-0.24793">
        <ele>62.5</ele>
        <time>2011-04-03T08:27:34.264Z</time>
      </trkpt>
      <trkpt lat="47.29894" lon="-0.24798">
        <ele>62.4</ele>
        <time>2011-04-03T08:27:35.094Z</time>
      </trkpt>
      <trkpt lat="47.29897" lon="-0.24802">
        <ele>62.4</ele>
        <time>2011-04-03T08:27:35.734Z</time>
      </trkpt>
      <trkpt lat="47.299" lon="-0.24807">
        <ele>62.4</ele>
        <time>2011-04-03T08:27:36.451Z</time>
      </trkpt>
      <trkpt lat="47.29904" lon="-0.24812">
        <ele>62.5</ele>
        <time>2011-04-03T08:27:37.282Z</time>
      </trkpt>
      <trkpt lat="47.29907" lon="-0.24817">
        <ele>62.7</ele>
        <time>2011-04-03T08:27:38Z</time>
        <extensions>
          <type>
            <highway>unclassified</highway>
            <surface>undefined</surface>
            </type>
        </extensions>
      </trkpt>
      <trkpt lat="47.2991" lon="-0.24827">
        <ele>62.8</ele>
        <time>2011-04-03T08:27:39.180Z</time>
      </trkpt>
      <trkpt lat="47.29913" lon="-0.24836">
        <ele>62.8</ele>
        <time>2011-04-03T08:27:40.263Z</time>
      </trkpt>
      <trkpt lat="47.29916" lon="-0.24846">
        <ele>62.5</ele>
        <time>2011-04-03T08:27:41.443Z</time>
      </trkpt>
      <trkpt lat="47.29919" lon="-0.24855">
        <ele>62.2</ele>
        <time>2011-04-03T08:27:42.526Z</time>
      </trkpt>
      <trkpt lat="47.29921" lon="-0.24865">
        <ele>62</ele>
        <time>2011-04-03T08:27:43.652Z</time>
      </trkpt>
      <trkpt lat="47.29924" lon="-0.24874">
        <ele>62</ele>
        <time>2011-04-03T08:27:44.735Z</time>
      </trkpt>
      <trkpt lat="47.29927" lon="-0.24884">
        <ele>62</ele>
        <time>2011-04-03T08:27:45.916Z</time>
      </trkpt>
      <trkpt lat="47.2993" lon="-0.24893">
        <ele>62</ele>
        <time>2011-04-03T08:27:47Z</time>
        <extensions>
          <type>
            <highway>unclassified</highway>
            <surface>undefined</surface>
            </type>
        </extensions>
      </trkpt>
      <trkpt lat="47.29934" lon="-0.249">
        <ele>62</ele>
        <time>2011-04-03T08:27:48.042Z</time>
      </trkpt>
      <trkpt lat="47.29938" lon="-0.24906">
        <ele>62</ele>
        <time>2011-04-03T08:27:49Z</time>
        <extensions>
          <type>
            <highway>unclassified</highway>
            <surface>undefined</surface>
            </type>
        </extensions>
      </trkpt>
      <trkpt lat="47.29945" lon="-0.24913">
        <ele>62</ele>
        <time>2011-04-03T08:27:50.532Z</time>
      </trkpt>
      <trkpt lat="47.29952" lon="-0.24919">
        <ele>62</ele>
        <time>2011-04-03T08:27:52Z</time>
        <extensions>
          <type>
            <highway>unclassified</highway>
            <surface>undefined</surface>
            </type>
        </extensions>
      </trkpt>
      <trkpt lat="47.29958" lon="-0.24922">
        <ele>62.1</ele>
        <time>2011-04-03T08:27:53.093Z</time>
      </trkpt>
      <trkpt lat="47.29964" lon="-0.24926">
        <ele>62.2</ele>
        <time>2011-04-03T08:27:54.229Z</time>
      </trkpt>
      <trkpt lat="47.2997" lon="-0.24929">
        <ele>62.4</ele>
        <time>2011-04-03T08:27:55.322Z</time>
      </trkpt>
      <trkpt lat="47.29977" lon="-0.24932">
        <ele>62.6</ele>
        <time>2011-04-03T08:27:56.580Z</time>
      </trkpt>
      <trkpt lat="47.29983" lon="-0.24935">
        <ele>62.8</ele>
        <time>2011-04-03T08:27:57.674Z</time>
      </trkpt>
      <trkpt lat="47.29989" lon="-0.24939">
        <ele>62.9</ele>
        <time>2011-04-03T08:27:58.811Z</time>
      </trkpt>
      <trkpt lat="47.29995" lon="-0.24942">
        <ele>63</ele>
        <time>2011-04-03T08:27:59.905Z</time>
      </trkpt>
      <trkpt lat="47.30001" lon="-0.24945">
        <ele>63</ele>
        <time>2011-04-03T08:28:01Z</time>
        <extensions>
          <type>
            <highway>unclassified</highway>
            <surface>undefined</surface>
            </type>
        </extensions>
      </trkpt>
      <trkpt lat="47.30008" lon="-0.24953">
        <ele>62.8</ele>
        <time>2011-04-03T08:28:02.567Z</time>
      </trkpt>
      <trkpt lat="47.30014" lon="-0.24961">
        <ele>62.7</ele>
        <time>2011-04-03T08:28:04Z</time>
        <extensions>
          <type>
            <highway>unclassified</highway>
            <surface>undefined</surface>
            </type>
        </extensions>
      </trkpt>
      <trkpt lat="47.30018" lon="-0.24969">
        <ele>62.7</ele>
        <time>2011-04-03T08:28:05.056Z</time>
      </trkpt>
      <trkpt lat="47.30022" lon="-0.24977">
        <ele>62.6</ele>
        <time>2011-04-03T08:28:06.112Z</time>
      </trkpt>
      <trkpt lat="47.30026" lon="-0.24985">
        <ele>62.5</ele>
        <time>2011-04-03T08:28:07.168Z</time>
      </trkpt>
      <trkpt lat="47.3003" lon="-0.24993">
        <ele>62.3</ele>
        <time>2011-04-03T08:28:08.224Z</time>
      </trkpt>
      <trkpt lat="47.30034" lon="-0.25001">
        <ele>62.2</ele>
        <time>2011-04-03T08:28:09.280Z</time>
      </trkpt>
      <trkpt lat="47.30038" lon="-0.25009">
        <ele>62.1</ele>
        <time>2011-04-03T08:28:10.336Z</time>
      </trkpt>
      <trkpt lat="47.30042" lon="-0.25017">
        <ele>61.9</ele>
        <time>2011-04-03T08:28:11.392Z</time>
      </trkpt>
      <trkpt lat="47.30047" lon="-0.25025">
        <ele>61.8</ele>
        <time>2011-04-03T08:28:12.548Z</time>
      </trkpt>
      <trkpt lat="47.30051" lon="-0.25033">
        <ele>61.8</ele>
        <time>2011-04-03T08:28:13.604Z</time>
      </trkpt>
      <trkpt lat="47.30055" lon="-0.25041">
        <ele>62</ele>
        <time>2011-04-03T08:28:14.660Z</time>
      </trkpt>
      <trkpt lat="47.30059" lon="-0.25049">
        <ele>62.1</ele>
        <time>2011-04-03T08:28:15.716Z</time>
      </trkpt>
      <trkpt lat="47.30063" lon="-0.25057">
        <ele>62.2</ele>
        <time>2011-04-03T08:28:16.772Z</time>
      </trkpt>
      <trkpt lat="47.30067" lon="-0.25065">
        <ele>62.1</ele>
        <time>2011-04-03T08:28:17.829Z</time>
      </trkpt>
      <trkpt lat="47.30071" lon="-0.25073">
        <ele>61.9</ele>
        <time>2011-04-03T08:28:18.886Z</time>
      </trkpt>
      <trkpt lat="47.30075" lon="-0.25081">
        <ele>61.8</ele>
        <time>2011-04-03T08:28:19.943Z</time>
      </trkpt>
      <trkpt lat="47.30079" lon="-0.25089">
        <ele>61.8</ele>
        <time>2011-04-03T08:28:21Z</time>
        <extensions>
          <type>
            <highway>unclassified</highway>
            <surface>undefined</surface>
            </type>
        </extensions>
      </trkpt>
      <trkpt lat="47.30082" lon="-0.25097">
        <ele>62</ele>
        <time>2011-04-03T08:28:21.979Z</time>
      </trkpt>
      <trkpt lat="47.30086" lon="-0.25105">
        <ele>62.1</ele>
        <time>2011-04-03T08:28:23.043Z</time>
      </trkpt>
      <trkpt lat="47.30089" lon="-0.25113">
        <ele>62.2</ele>
        <time>2011-04-03T08:28:24.022Z</time>
      </trkpt>
      <trkpt lat="47.30093" lon="-0.25121">
        <ele>62</ele>
        <time>2011-04-03T08:28:25.087Z</time>
      </trkpt>
      <trkpt lat="47.30096" lon="-0.25128">
        <ele>61.8</ele>
        <time>2011-04-03T08:28:25.974Z</time>
      </trkpt>
      <trkpt lat="47.30099" lon="-0.25136">
        <ele>61.7</ele>
        <time>2011-04-03T08:28:26.953Z</time>
      </trkpt>
      <trkpt lat="47.30103" lon="-0.25144">
        <ele>61.7</ele>
        <time>2011-04-03T08:28:28.018Z</time>
      </trkpt>
      <trkpt lat="47.30106" lon="-0.25152">
        <ele>61.8</ele>
        <time>2011-04-03T08:28:28.997Z</time>
      </trkpt>
      <trkpt lat="47.30109" lon="-0.2516">
        <ele>61.9</ele>
        <time>2011-04-03T08:28:29.976Z</time>
      </trkpt>
      <trkpt lat="47.30113" lon="-0.25168">
        <ele>62</ele>
        <time>2011-04-03T08:28:31.041Z</time>
      </trkpt>
      <trkpt lat="47.30116" lon="-0.25176">
        <ele>61.9</ele>
        <time>2011-04-03T08:28:32.021Z</time>
      </trkpt>
      <trkpt lat="47.3012" lon="-0.25184">
        <ele>61.7</ele>
        <time>2011-04-03T08:28:33.086Z</time>
      </trkpt>
      <trkpt lat="47.30123" lon="-0.25191">
        <ele>61.5</ele>
        <time>2011-04-03T08:28:33.973Z</time>
      </trkpt>
      <trkpt lat="47.30126" lon="-0.25199">
        <ele>61.5</ele>
        <time>2011-04-03T08:28:34.953Z</time>
      </trkpt>
      <trkpt lat="47.3013" lon="-0.25207">
        <ele>61.7</ele>
        <time>2011-04-03T08:28:36.019Z</time>
      </trkpt>
      <trkpt lat="47.30133" lon="-0.25215">
        <ele>61.8</ele>
        <time>2011-04-03T08:28:37Z</time>
        <extensions>
          <type>
            <highway>unclassified</highway>
            <surface>undefined</surface>
            </type>
        </extensions>
      </trkpt>
      <trkpt lat="47.30135" lon="-0.25223">
        <ele>61.8</ele>
        <time>2011-04-03T08:28:37.914Z</time>
      </trkpt>
      <trkpt lat="47.30137" lon="-0.2523">
        <ele>61.7</ele>
        <time>2011-04-03T08:28:38.728Z</time>
      </trkpt>
      <trkpt lat="47.30139" lon="-0.25238">
        <ele>61.5</ele>
        <time>2011-04-03T08:28:39.642Z</time>
      </trkpt>
      <trkpt lat="47.30141" lon="-0.25245">
        <ele>61.3</ele>
        <time>2011-04-03T08:28:40.456Z</time>
      </trkpt>
      <trkpt lat="47.30143" lon="-0.25253">
        <ele>61.2</ele>
        <time>2011-04-03T08:28:41.370Z</time>
      </trkpt>
      <trkpt lat="47.30145" lon="-0.2526">
        <ele>61.1</ele>
        <time>2011-04-03T08:28:42.185Z</time>
      </trkpt>
      <trkpt lat="47.30147" lon="-0.25268">
        <ele>61</ele>
        <time>2011-04-03T08:28:43.099Z</time>
      </trkpt>
      <trkpt lat="47.3015" lon="-0.25276">
        <ele>60.8</ele>
        <time>2011-04-03T08:28:44.079Z</time>
      </trkpt>
      <trkpt lat="47.30152" lon="-0.25283">
        <ele>60.9</ele>
        <time>2011-04-03T08:28:44.894Z</time>
      </trkpt>
      <trkpt lat="47.30154" lon="-0.25291">
        <ele>61.1</ele>
        <time>2011-04-03T08:28:45.809Z</time>
      </trkpt>
      <trkpt lat="47.30156" lon="-0.25298">
        <ele>61.2</ele>
        <time>2011-04-03T08:28:46.624Z</time>
      </trkpt>
      <trkpt lat="47.30158" lon="-0.25306">
        <ele>61.4</ele>
        <time>2011-04-03T08:28:47.539Z</time>
      </trkpt>
      <trkpt lat="47.3016" lon="-0.25313">
        <ele>61.3</ele>
        <time>2011-04-03T08:28:48.354Z</time>
      </trkpt>
      <trkpt lat="47.30162" lon="-0.25321">
        <ele>61.2</ele>
        <time>2011-04-03T08:28:49.269Z</time>
      </trkpt>
      <trkpt lat="47.30164" lon="-0.25328">
        <ele>61.1</ele>
        <time>2011-04-03T08:28:50.084Z</time>
      </trkpt>
      <trkpt lat="47.30166" lon="-0.25336">
        <ele>61</ele>
        <time>2011-04-03T08:28:51Z</time>
        <extensions>
          <type>
            <highway>unclassified</highway>
            <surface>undefined</surface>
            </type>
        </extensions>
      </trkpt>
      <trkpt lat="47.30168" lon="-0.25345">
        <ele>61.2</ele>
        <time>2011-04-03T08:28:52.062Z</time>
      </trkpt>
      <trkpt lat="47.3017" lon="-0.25353">
        <ele>61.4</ele>
        <time>2011-04-03T08:28:53.019Z</time>
      </trkpt>
      <trkpt lat="47.30171" lon="-0.25362">
        <ele>61.5</ele>
        <time>2011-04-03T08:28:54.042Z</time>
      </trkpt>
      <trkpt lat="47.30173" lon="-0.2537">
        <ele>61.4</ele>
        <time>2011-04-03T08:28:55Z</time>
        <extensions>
          <type>
            <highway>unclassified</highway>
            <surface>undefined</surface>
            </type>
        </extensions>
      </trkpt>
      <trkpt lat="47.30172" lon="-0.25379">
        <ele>61</ele>
        <time>2011-04-03T08:28:56.057Z</time>
      </trkpt>
      <trkpt lat="47.30171" lon="-0.25387">
        <ele>60.5</ele>
        <time>2011-04-03T08:28:57Z</time>
        <extensions>
          <type>
            <highway>unclassified</highway>
            <surface>undefined</surface>
            </type>
        </extensions>
      </trkpt>
      <trkpt lat="47.30166" lon="-0.25394">
        <ele>60</ele>
        <time>2011-04-03T08:28:58.074Z</time>
      </trkpt>
      <trkpt lat="47.3016" lon="-0.25401">
        <ele>59.9</ele>
        <time>2011-04-03T08:28:59.266Z</time>
      </trkpt>
      <trkpt lat="47.30155" lon="-0.25408">
        <ele>59.7</ele>
        <time>2011-04-03T08:29:00.341Z</time>
      </trkpt>
      <trkpt lat="47.30149" lon="-0.25415">
        <ele>59.4</ele>
        <time>2011-04-03T08:29:01.533Z</time>
      </trkpt>
      <trkpt lat="47.30144" lon="-0.25421">
        <ele>59.1</ele>
        <time>2011-04-03T08:29:02.538Z</time>
      </trkpt>
      <trkpt lat="47.30138" lon="-0.25428">
        <ele>59</ele>
        <time>2011-04-03T08:29:03.731Z</time>
      </trkpt>
      <trkpt lat="47.30133" lon="-0.25435">
        <ele>59.2</ele>
        <time>2011-04-03T08:29:04.806Z</time>
      </trkpt>
      <trkpt lat="47.30127" lon="-0.25442">
        <ele>59.4</ele>
        <time>2011-04-03T08:29:06Z</time>
        <extensions>
          <type>
            <highway>unclassified</highway>
            <surface>undefined</surface>
            </type>
        </extensions>
      </trkpt>
      <trkpt lat="47.30126" lon="-0.25452">
        <ele>59.3</ele>
        <time>2011-04-03T08:29:06.984Z</time>
      </trkpt>
      <trkpt lat="47.30124" lon="-0.25462">
        <ele>59.2</ele>
        <time>2011-04-03T08:29:08Z</time>
        <extensions>
          <type>
            <highway>unclassified</highway>
            <surface>undefined</surface>
            </type>
        </extensions>
      </trkpt>
      <trkpt lat="47.30126" lon="-0.25472">
        <ele>59</ele>
        <time>2011-04-03T08:29:09.015Z</time>
      </trkpt>
      <trkpt lat="47.30127" lon="-0.25482">
        <ele>58.9</ele>
        <time>2011-04-03T08:29:09.999Z</time>
      </trkpt>
      <trkpt lat="47.30129" lon="-0.25492">
        <ele>58.7</ele>
        <time>2011-04-03T08:29:11.014Z</time>
      </trkpt>
      <trkpt lat="47.3013" lon="-0.25502">
        <ele>58.7</ele>
        <time>2011-04-03T08:29:12Z</time>
        <extensions>
          <type>
            <highway>unclassified</highway>
            <surface>undefined</surface>
            </type>
        </extensions>
      </trkpt>
      <trkpt lat="47.30133" lon="-0.25511">
        <ele>58.7</ele>
        <time>2011-04-03T08:29:12.951Z</time>
      </trkpt>
      <trkpt lat="47.30137" lon="-0.25521">
        <ele>58.9</ele>
        <time>2011-04-03T08:29:14.052Z</time>
      </trkpt>
      <trkpt lat="47.3014" lon="-0.2553">
        <ele>59</ele>
        <time>2011-04-03T08:29:15.003Z</time>
      </trkpt>
      <trkpt lat="47.30143" lon="-0.2554">
        <ele>58.9</ele>
        <time>2011-04-03T08:29:16.040Z</time>
      </trkpt>
      <trkpt lat="47.30146" lon="-0.25549">
        <ele>58.7</ele>
        <time>2011-04-03T08:29:16.991Z</time>
      </trkpt>
      <trkpt lat="47.3015" lon="-0.25558">
        <ele>58.6</ele>
        <time>2011-04-03T08:29:18.011Z</time>
      </trkpt>
      <trkpt lat="47.30153" lon="-0.25568">
        <ele>58.5</ele>
        <time>2011-04-03T08:29:19.048Z</time>
      </trkpt>
      <trkpt lat="47.30156" lon="-0.25577">
        <ele>58.4</ele>
        <time>2011-04-03T08:29:20Z</time>
        <extensions>
          <type>
            <highway>unclassified</highway>
            <surface>undefined</surface>
            </type>
        </extensions>
      </trkpt>
      <trkpt lat="47.30161" lon="-0.25586">
        <ele>58.2</ele>
        <time>2011-04-03T08:29:21.114Z</time>
      </trkpt>
      <trkpt lat="47.30166" lon="-0.25594">
        <ele>58</ele>
        <time>2011-04-03T08:29:22.156Z</time>
      </trkpt>
      <trkpt lat="47.3017" lon="-0.25603">
        <ele>58</ele>
        <time>2011-04-03T08:29:23.187Z</time>
      </trkpt>
      <trkpt lat="47.30175" lon="-0.25611">
        <ele>58</ele>
        <time>2011-04-03T08:29:24.229Z</time>
      </trkpt>
      <trkpt lat="47.3018" lon="-0.2562">
        <ele>57.9</ele>
        <time>2011-04-03T08:29:25.343Z</time>
      </trkpt>
      <trkpt lat="47.30185" lon="-0.25628">
        <ele>57.6</ele>
        <time>2011-04-03T08:29:26.385Z</time>
      </trkpt>
      <trkpt lat="47.3019" lon="-0.25637">
        <ele>57.2</ele>
        <time>2011-04-03T08:29:27.500Z</time>
      </trkpt>
      <trkpt lat="47.30195" lon="-0.25645">
        <ele>57</ele>
        <time>2011-04-03T08:29:28.542Z</time>
      </trkpt>
      <trkpt lat="47.30199" lon="-0.25654">
        <ele>57</ele>
        <time>2011-04-03T08:29:29.573Z</time>
      </trkpt>
      <trkpt lat="47.30204" lon="-0.25662">
        <ele>57</ele>
        <time>2011-04-03T08:29:30.615Z</time>
      </trkpt>
      <trkpt lat="47.30209" lon="-0.25671">
        <ele>56.9</ele>
        <time>2011-04-03T08:29:31.730Z</time>
      </trkpt>
      <trkpt lat="47.30214" lon="-0.25679">
        <ele>56.7</ele>
        <time>2011-04-03T08:29:32.773Z</time>
      </trkpt>
      <trkpt lat="47.30219" lon="-0.25688">
        <ele>56.3</ele>
        <time>2011-04-03T08:29:33.888Z</time>
      </trkpt>
      <trkpt lat="47.30223" lon="-0.25696">
        <ele>56.1</ele>
        <time>2011-04-03T08:29:34.841Z</time>
      </trkpt>
      <trkpt lat="47.30228" lon="-0.25705">
        <ele>56.3</ele>
        <time>2011-04-03T08:29:35.956Z</time>
      </trkpt>
      <trkpt lat="47.30233" lon="-0.25713">
        <ele>56.4</ele>
        <time>2011-04-03T08:29:37Z</time>
        <extensions>
          <type>
            <highway>unclassified</highway>
            <surface>undefined</surface>
            </type>
        </extensions>
      </trkpt>
      <trkpt lat="47.30238" lon="-0.25723">
        <ele>56.4</ele>
        <time>2011-04-03T08:29:38.374Z</time>
      </trkpt>
      <trkpt lat="47.30243" lon="-0.25734">
        <ele>56.3</ele>
        <time>2011-04-03T08:29:39.839Z</time>
      </trkpt>
      <trkpt lat="47.30247" lon="-0.25744">
        <ele>56.1</ele>
        <time>2011-04-03T08:29:41.123Z</time>
      </trkpt>
      <trkpt lat="47.30252" lon="-0.25754">
        <ele>56.1</ele>
        <time>2011-04-03T08:29:42.498Z</time>
      </trkpt>
      <trkpt lat="47.30257" lon="-0.25764">
        <ele>56.4</ele>
        <time>2011-04-03T08:29:43.873Z</time>
      </trkpt>
      <trkpt lat="47.30262" lon="-0.25775">
        <ele>56.5</ele>
        <time>2011-04-03T08:29:45.339Z</time>
      </trkpt>
      <trkpt lat="47.30266" lon="-0.25785">
        <ele>56.4</ele>
        <time>2011-04-03T08:29:46.624Z</time>
      </trkpt>
      <trkpt lat="47.30271" lon="-0.25795">
        <ele>56.2</ele>
        <time>2011-04-03T08:29:48Z</time>
        <extensions>
          <type>
            <highway>unclassified</highway>
            <surface>undefined</surface>
            </type>
        </extensions>
      </trkpt>
      <trkpt lat="47.30269" lon="-0.25803">
        <ele>56.3</ele>
        <time>2011-04-03T08:29:49.586Z</time>
      </trkpt>
      <trkpt lat="47.30267" lon="-0.2581">
        <ele>56.5</ele>
        <time>2011-04-03T08:29:51Z</time>
        <extensions>
          <type>
            <highway>unclassified</highway>
            <surface>undefined</surface>
            </type>
        </extensions>
      </trkpt>
      <trkpt lat="47.30262" lon="-0.25811">
        <ele>56.8</ele>
        <time>2011-04-03T08:29:51.931Z</time>
      </trkpt>
      <trkpt lat="47.30256" lon="-0.25813">
        <ele>57</ele>
        <time>2011-04-03T08:29:53.066Z</time>
      </trkpt>
      <trkpt lat="47.30251" lon="-0.25814">
        <ele>57.3</ele>
        <time>2011-04-03T08:29:53.997Z</time>
      </trkpt>
      <trkpt lat="47.30245" lon="-0.25816">
        <ele>57.5</ele>
        <time>2011-04-03T08:29:55.132Z</time>
      </trkpt>
      <trkpt lat="47.3024" lon="-0.25817">
        <ele>57.6</ele>
        <time>2011-04-03T08:29:56.063Z</time>
      </trkpt>
      <trkpt lat="47.30234" lon="-0.25818">
        <ele>57.8</ele>
        <time>2011-04-03T08:29:57.177Z</time>
      </trkpt>
      <trkpt lat="47.30229" lon="-0.2582">
        <ele>57.9</ele>
        <time>2011-04-03T08:29:58.133Z</time>
      </trkpt>
      <trkpt lat="47.30223" lon="-0.25821">
        <ele>58</ele>
        <time>2011-04-03T08:29:59.247Z</time>
      </trkpt>
      <trkpt lat="47.30218" lon="-0.25822">
        <ele>58.1</ele>
        <time>2011-04-03T08:30:00.178Z</time>
      </trkpt>
      <trkpt lat="47.30212" lon="-0.25824">
        <ele>58.2</ele>
        <time>2011-04-03T08:30:01.313Z</time>
      </trkpt>
      <trkpt lat="47.30207" lon="-0.25825">
        <ele>58.4</ele>
        <time>2011-04-03T08:30:02.244Z</time>
      </trkpt>
      <trkpt lat="47.30201" lon="-0.25827">
        <ele>58.6</ele>
        <time>2011-04-03T08:30:03.379Z</time>
      </trkpt>
      <trkpt lat="47.30196" lon="-0.25828">
        <ele>58.8</ele>
        <time>2011-04-03T08:30:04.310Z</time>
      </trkpt>
      <trkpt lat="47.3019" lon="-0.25829">
        <ele>58.9</ele>
        <time>2011-04-03T08:30:05.424Z</time>
      </trkpt>
      <trkpt lat="47.30185" lon="-0.25831">
        <ele>58.9</ele>
        <time>2011-04-03T08:30:06.380Z</time>
      </trkpt>
      <trkpt lat="47.30179" lon="-0.25832">
        <ele>59</ele>
        <time>2011-04-03T08:30:07.494Z</time>
      </trkpt>
      <trkpt lat="47.30174" lon="-0.25833">
        <ele>59</ele>
        <time>2011-04-03T08:30:08.425Z</time>
      </trkpt>
      <trkpt lat="47.30168" lon="-0.25835">
        <ele>59.1</ele>
        <time>2011-04-03T08:30:09.560Z</time>
      </trkpt>
      <trkpt lat="47.30163" lon="-0.25836">
        <ele>59.2</ele>
        <time>2011-04-03T08:30:10.491Z</time>
      </trkpt>
      <trkpt lat="47.30157" lon="-0.25838">
        <ele>59.5</ele>
        <time>2011-04-03T08:30:11.626Z</time>
      </trkpt>
      <trkpt lat="47.30152" lon="-0.25839">
        <ele>59.7</ele>
        <time>2011-04-03T08:30:12.557Z</time>
      </trkpt>
      <trkpt lat="47.30146" lon="-0.2584">
        <ele>60</ele>
        <time>2011-04-03T08:30:13.672Z</time>
      </trkpt>
      <trkpt lat="47.30141" lon="-0.25842">
        <ele>60.2</ele>
        <time>2011-04-03T08:30:14.628Z</time>
      </trkpt>
      <trkpt lat="47.30135" lon="-0.25843">
        <ele>60.5</ele>
        <time>2011-04-03T08:30:15.743Z</time>
      </trkpt>
      <trkpt lat="47.3013" lon="-0.25844">
        <ele>60.8</ele>
        <time>2011-04-03T08:30:16.675Z</time>
      </trkpt>
      <trkpt lat="47.30124" lon="-0.25846">
        <ele>61</ele>
        <time>2011-04-03T08:30:17.811Z</time>
      </trkpt>
      <trkpt lat="47.30119" lon="-0.25847">
        <ele>61.2</ele>
        <time>2011-04-03T08:30:18.743Z</time>
      </trkpt>
      <trkpt lat="47.30113" lon="-0.25849">
        <ele>61.4</ele>
        <time>2011-04-03T08:30:19.879Z</time>
      </trkpt>
      <trkpt lat="47.30108" lon="-0.2585">
        <ele>61.6</ele>
        <time>2011-04-03T08:30:20.811Z</time>
      </trkpt>
      <trkpt lat="47.30102" lon="-0.25851">
        <ele>61.9</ele>
        <time>2011-04-03T08:30:21.926Z</time>
      </trkpt>
      <trkpt lat="47.30097" lon="-0.25853">
        <ele>62.2</ele>
        <time>2011-04-03T08:30:22.883Z</time>
      </trkpt>
      <trkpt lat="47.30091" lon="-0.25854">
        <ele>62.5</ele>
        <time>2011-04-03T08:30:24Z</time>
        <extensions>
          <type>
            <highway>unclassified</highway>
            <surface>undefined</surface>
            </type>
        </extensions>
      </trkpt>
      <trkpt lat="47.30086" lon="-0.25854">
        <ele>62.8</ele>
        <time>2011-04-03T08:30:24.995Z</time>
      </trkpt>
      <trkpt lat="47.30081" lon="-0.25853">
        <ele>63.1</ele>
        <time>2011-04-03T08:30:25.999Z</time>
      </trkpt>
      <trkpt lat="47.30076" lon="-0.25853">
        <ele>63.4</ele>
        <time>2011-04-03T08:30:26.994Z</time>
      </trkpt>
      <trkpt lat="47.30071" lon="-0.25852">
        <ele>63.7</ele>
        <time>2011-04-03T08:30:28Z</time>
        <extensions>
          <type>
            <highway>unclassified</highway>
            <surface>undefined</surface>
            </type>
        </extensions>
      </trkpt>
      <trkpt lat="47.30064" lon="-0.25847">
        <ele>64</ele>
        <time>2011-04-03T08:30:29.791Z</time>
      </trkpt>
      <trkpt lat="47.30058" lon="-0.25842">
        <ele>64.2</ele>
        <time>2011-04-03T08:30:31.378Z</time>
      </trkpt>
      <trkpt lat="47.30051" lon="-0.25837">
        <ele>64.5</ele>
        <time>2011-04-03T08:30:33.170Z</time>
      </trkpt>
      <trkpt lat="47.30044" lon="-0.25832">
        <ele>64.8</ele>
        <time>2011-04-03T08:30:34.962Z</time>
      </trkpt>
      <trkpt lat="47.30037" lon="-0.25826">
        <ele>65.2</ele>
        <time>2011-04-03T08:30:36.827Z</time>
      </trkpt>
      <trkpt lat="47.30031" lon="-0.25821">
        <ele>65.4</ele>
        <time>2011-04-03T08:30:38.415Z</time>
      </trkpt>
      <trkpt lat="47.30024" lon="-0.25816">
        <ele>65.7</ele>
        <time>2011-04-03T08:30:40.207Z</time>
      </trkpt>
      <trkpt lat="47.30017" lon="-0.25811">
        <ele>66</ele>
        <time>2011-04-03T08:30:42Z</time>
        <extensions>
          <type>
            <highway>undefined</highway>
            <surface>undefined</surface>
            </type>
        </extensions>
      </trkpt>
      <trkpt lat="47.3001" lon="-0.25815">
        <ele>66.6</ele>
        <time>2011-04-03T08:30:45.802Z</time>
      </trkpt>
      <trkpt lat="47.30004" lon="-0.25819">
        <ele>67.2</ele>
        <time>2011-04-03T08:30:49.137Z</time>
      </trkpt>
      <trkpt lat="47.29997" lon="-0.25824">
        <ele>68</ele>
        <time>2011-04-03T08:30:53.076Z</time>
      </trkpt>
      <trkpt lat="47.29991" lon="-0.25828">
        <ele>69.1</ele>
        <time>2011-04-03T08:30:56.411Z</time>
      </trkpt>
      <trkpt lat="47.29984" lon="-0.25832">
        <ele>70.2</ele>
        <time>2011-04-03T08:31:00.213Z</time>
      </trkpt>
      <trkpt lat="47.29978" lon="-0.25836">
        <ele>71.3</ele>
        <time>2011-04-03T08:31:03.548Z</time>
      </trkpt>
      <trkpt lat="47.29971" lon="-0.2584">
        <ele>72.4</ele>
        <time>2011-04-03T08:31:07.350Z</time>
      </trkpt>
      <trkpt lat="47.29965" lon="-0.25845">
        <ele>73.2</ele>
        <time>2011-04-03T08:31:10.841Z</time>
      </trkpt>
      <trkpt lat="47.29958" lon="-0.25849">
        <ele>74.1</ele>
        <time>2011-04-03T08:31:14.643Z</time>
      </trkpt>
      <trkpt lat="47.29951" lon="-0.25853">
        <ele>75</ele>
        <time>2011-04-03T08:31:18.446Z</time>
      </trkpt>
      <trkpt lat="47.29945" lon="-0.25857">
        <ele>75.8</ele>
        <time>2011-04-03T08:31:21.781Z</time>
      </trkpt>
      <trkpt lat="47.29938" lon="-0.25861">
        <ele>76.7</ele>
        <time>2011-04-03T08:31:25.584Z</time>
      </trkpt>
      <trkpt lat="47.29932" lon="-0.25865">
        <ele>77.6</ele>
        <time>2011-04-03T08:31:28.920Z</time>
      </trkpt>
      <trkpt lat="47.29925" lon="-0.2587">
        <ele>78.6</ele>
        <time>2011-04-03T08:31:32.860Z</time>
      </trkpt>
      <trkpt lat="47.29919" lon="-0.25874">
        <ele>79.7</ele>
        <time>2011-04-03T08:31:36.196Z</time>
      </trkpt>
      <trkpt lat="47.29912" lon="-0.25878">
        <ele>80.4</ele>
        <time>2011-04-03T08:31:40Z</time>
        <extensions>
          <type>
            <highway>undefined</highway>
            <surface>undefined</surface>
            </type>
        </extensions>
      </trkpt>
      <trkpt lat="47.29906" lon="-0.25881">
        <ele>81</ele>
        <time>2011-04-03T08:31:42.391Z</time>
      </trkpt>
      <trkpt lat="47.299" lon="-0.25885">
        <ele>81.4</ele>
        <time>2011-04-03T08:31:44.876Z</time>
      </trkpt>
      <trkpt lat="47.29893" lon="-0.25888">
        <ele>81.8</ele>
        <time>2011-04-03T08:31:47.627Z</time>
      </trkpt>
      <trkpt lat="47.29887" lon="-0.25892">
        <ele>82.2</ele>
        <time>2011-04-03T08:31:50.112Z</time>
      </trkpt>
      <trkpt lat="47.29881" lon="-0.25895">
        <ele>82.8</ele>
        <time>2011-04-03T08:31:52.503Z</time>
      </trkpt>
      <trkpt lat="47.29875" lon="-0.25899">
        <ele>83.4</ele>
        <time>2011-04-03T08:31:54.988Z</time>
      </trkpt>
      <trkpt lat="47.29869" lon="-0.25902">
        <ele>83.9</ele>
        <time>2011-04-03T08:31:57.379Z</time>
      </trkpt>
      <trkpt lat="47.29863" lon="-0.25906">
        <ele>84.5</ele>
        <time>2011-04-03T08:31:59.864Z</time>
      </trkpt>
      <trkpt lat="47.29856" lon="-0.25909">
        <ele>84.7</ele>
        <time>2011-04-03T08:32:02.615Z</time>
      </trkpt>
      <trkpt lat="47.2985" lon="-0.25912">
        <ele>84.8</ele>
        <time>2011-04-03T08:32:05.006Z</time>
      </trkpt>
      <trkpt lat="47.29844" lon="-0.25916">
        <ele>85</ele>
        <time>2011-04-03T08:32:07.492Z</time>
      </trkpt>
      <trkpt lat="47.29838" lon="-0.25919">
        <ele>85.1</ele>
        <time>2011-04-03T08:32:09.883Z</time>
      </trkpt>
      <trkpt lat="47.29832" lon="-0.25923">
        <ele>85.3</ele>
        <time>2011-04-03T08:32:12.369Z</time>
      </trkpt>
      <trkpt lat="47.29825" lon="-0.25926">
        <ele>85.5</ele>
        <time>2011-04-03T08:32:15.121Z</time>
      </trkpt>
      <trkpt lat="47.29819" lon="-0.2593">
        <ele>85.7</ele>
        <time>2011-04-03T08:32:17.607Z</time>
      </trkpt>
      <trkpt lat="47.29813" lon="-0.25933">
        <ele>85.9</ele>
        <time>2011-04-03T08:32:20Z</time>
        <extensions>
          <type>
            <highway>path</highway>
            <surface>undefined</surface>
            </type>
        </extensions>
      </trkpt>
      <trkpt lat="47.29809" lon="-0.25936">
        <ele>86</ele>
        <time>2011-04-03T08:32:21.414Z</time>
      </trkpt>
      <trkpt lat="47.29805" lon="-0.25939">
        <ele>86</ele>
        <time>2011-04-03T08:32:22.828Z</time>
      </trkpt>
      <trkpt lat="47.298" lon="-0.25942">
        <ele>86.2</ele>
        <time>2011-04-03T08:32:24.529Z</time>
      </trkpt>
      <trkpt lat="47.29796" lon="-0.25946">
        <ele>86.4</ele>
        <time>2011-04-03T08:32:26.052Z</time>
      </trkpt>
      <trkpt lat="47.29792" lon="-0.25949">
        <ele>86.6</ele>
        <time>2011-04-03T08:32:27.467Z</time>
      </trkpt>
      <trkpt lat="47.29788" lon="-0.25952">
        <ele>86.7</ele>
        <time>2011-04-03T08:32:28.882Z</time>
      </trkpt>
      <trkpt lat="47.29783" lon="-0.25955">
        <ele>86.9</ele>
        <time>2011-04-03T08:32:30.584Z</time>
      </trkpt>
      <trkpt lat="47.29779" lon="-0.25958">
        <ele>87</ele>
        <time>2011-04-03T08:32:32Z</time>
        <extensions>
          <type>
            <highway>path</highway>
            <surface>undefined</surface>
            </type>
        </extensions>
      </trkpt>
      <trkpt lat="47.29781" lon="-0.25965">
        <ele>87</ele>
        <time>2011-04-03T08:32:33.051Z</time>
      </trkpt>
      <trkpt lat="47.29782" lon="-0.25972">
        <ele>87</ele>
        <time>2011-04-03T08:32:34.041Z</time>
      </trkpt>
      <trkpt lat="47.29784" lon="-0.2598">
        <ele>87</ele>
        <time>2011-04-03T08:32:35.221Z</time>
      </trkpt>
      <trkpt lat="47.29786" lon="-0.25987">
        <ele>87</ele>
        <time>2011-04-03T08:32:36.272Z</time>
      </trkpt>
      <trkpt lat="47.29788" lon="-0.25994">
        <ele>87</ele>
        <time>2011-04-03T08:32:37.323Z</time>
      </trkpt>
      <trkpt lat="47.29789" lon="-0.26001">
        <ele>87</ele>
        <time>2011-04-03T08:32:38.313Z</time>
      </trkpt>
      <trkpt lat="47.29791" lon="-0.26009">
        <ele>87</ele>
        <time>2011-04-03T08:32:39.493Z</time>
      </trkpt>
      <trkpt lat="47.29793" lon="-0.26016">
        <ele>87</ele>
        <time>2011-04-03T08:32:40.544Z</time>
      </trkpt>
      <trkpt lat="47.29795" lon="-0.26023">
        <ele>87</ele>
        <time>2011-04-03T08:32:41.595Z</time>
      </trkpt>
      <trkpt lat="47.29796" lon="-0.2603">
        <ele>87</ele>
        <time>2011-04-03T08:32:42.585Z</time>
      </trkpt>
      <trkpt lat="47.29798" lon="-0.26037">
        <ele>87.1</ele>
        <time>2011-04-03T08:32:43.636Z</time>
      </trkpt>
      <trkpt lat="47.298" lon="-0.26045">
        <ele>87.1</ele>
        <time>2011-04-03T08:32:44.816Z</time>
      </trkpt>
      <trkpt lat="47.29801" lon="-0.26052">
        <ele>87.1</ele>
        <time>2011-04-03T08:32:45.806Z</time>
      </trkpt>
      <trkpt lat="47.29803" lon="-0.26059">
        <ele>87.1</ele>
        <time>2011-04-03T08:32:46.857Z</time>
      </trkpt>
      <trkpt lat="47.29805" lon="-0.26066">
        <ele>87</ele>
        <time>2011-04-03T08:32:47.908Z</time>
      </trkpt>
      <trkpt lat="47.29807" lon="-0.26074">
        <ele>87</ele>
        <time>2011-04-03T08:32:49.088Z</time>
      </trkpt>
      <trkpt lat="47.29808" lon="-0.26081">
        <ele>87</ele>
        <time>2011-04-03T08:32:50.078Z</time>
      </trkpt>
      <trkpt lat="47.2981" lon="-0.26088">
        <ele>87.1</ele>
        <time>2011-04-03T08:32:51.130Z</time>
      </trkpt>
      <trkpt lat="47.29812" lon="-0.26095">
        <ele>87.3</ele>
        <time>2011-04-03T08:32:52.182Z</time>
      </trkpt>
      <trkpt lat="47.29813" lon="-0.26102">
        <ele>87.5</ele>
        <time>2011-04-03T08:32:53.172Z</time>
      </trkpt>
      <trkpt lat="47.29815" lon="-0.2611">
        <ele>87.6</ele>
        <time>2011-04-03T08:32:54.352Z</time>
      </trkpt>
      <trkpt lat="47.29817" lon="-0.26117">
        <ele>87.5</ele>
        <time>2011-04-03T08:32:55.404Z</time>
      </trkpt>
      <trkpt lat="47.29819" lon="-0.26124">
        <ele>87.3</ele>
        <time>2011-04-03T08:32:56.456Z</time>
      </trkpt>
      <trkpt lat="47.2982" lon="-0.26131">
        <ele>87.1</ele>
        <time>2011-04-03T08:32:57.446Z</time>
      </trkpt>
      <trkpt lat="47.29822" lon="-0.26139">
        <ele>86.8</ele>
        <time>2011-04-03T08:32:58.627Z</time>
      </trkpt>
      <trkpt lat="47.29824" lon="-0.26146">
        <ele>86.7</ele>
        <time>2011-04-03T08:32:59.679Z</time>
      </trkpt>
      <trkpt lat="47.29825" lon="-0.26153">
        <ele>86.6</ele>
        <time>2011-04-03T08:33:00.670Z</time>
      </trkpt>
      <trkpt lat="47.29827" lon="-0.2616">
        <ele>86.4</ele>
        <time>2011-04-03T08:33:01.722Z</time>
      </trkpt>
      <trkpt lat="47.29829" lon="-0.26167">
        <ele>86.3</ele>
        <time>2011-04-03T08:33:02.774Z</time>
      </trkpt>
      <trkpt lat="47.29831" lon="-0.26175">
        <ele>85.9</ele>
        <time>2011-04-03T08:33:03.955Z</time>
      </trkpt>
      <trkpt lat="47.29832" lon="-0.26182">
        <ele>85.5</ele>
        <time>2011-04-03T08:33:04.946Z</time>
      </trkpt>
      <trkpt lat="47.29834" lon="-0.26189">
        <ele>85.1</ele>
        <time>2011-04-03T08:33:06Z</time>
        <extensions>
          <type>
            <highway>path</highway>
            <surface>undefined</surface>
            </type>
        </extensions>
      </trkpt>
      <trkpt lat="47.29836" lon="-0.26197">
        <ele>84.7</ele>
        <time>2011-04-03T08:33:06.712Z</time>
      </trkpt>
      <trkpt lat="47.29839" lon="-0.26206">
        <ele>84.2</ele>
        <time>2011-04-03T08:33:07.550Z</time>
      </trkpt>
      <trkpt lat="47.29841" lon="-0.26214">
        <ele>83.8</ele>
        <time>2011-04-03T08:33:08.262Z</time>
      </trkpt>
      <trkpt lat="47.29843" lon="-0.26222">
        <ele>83.3</ele>
        <time>2011-04-03T08:33:08.974Z</time>
      </trkpt>
      <trkpt lat="47.29845" lon="-0.26231">
        <ele>83</ele>
        <time>2011-04-03T08:33:09.765Z</time>
      </trkpt>
      <trkpt lat="47.29848" lon="-0.26239">
        <ele>82.7</ele>
        <time>2011-04-03T08:33:10.529Z</time>
      </trkpt>
      <trkpt lat="47.2985" lon="-0.26247">
        <ele>82.3</ele>
        <time>2011-04-03T08:33:11.241Z</time>
      </trkpt>
      <trkpt lat="47.29852" lon="-0.26256">
        <ele>81.8</ele>
        <time>2011-04-03T08:33:12.032Z</time>
      </trkpt>
      <trkpt lat="47.29854" lon="-0.26264">
        <ele>81.2</ele>
        <time>2011-04-03T08:33:12.744Z</time>
      </trkpt>
      <trkpt lat="47.29857" lon="-0.26272">
        <ele>80.7</ele>
        <time>2011-04-03T08:33:13.508Z</time>
      </trkpt>
      <trkpt lat="47.29859" lon="-0.2628">
        <ele>80.2</ele>
        <time>2011-04-03T08:33:14.221Z</time>
      </trkpt>
      <trkpt lat="47.29861" lon="-0.26289">
        <ele>79.6</ele>
        <time>2011-04-03T08:33:15.013Z</time>
      </trkpt>
      <trkpt lat="47.29863" lon="-0.26297">
        <ele>79</ele>
        <time>2011-04-03T08:33:15.726Z</time>
      </trkpt>
      <trkpt lat="47.29866" lon="-0.26305">
        <ele>78.4</ele>
        <time>2011-04-03T08:33:16.490Z</time>
      </trkpt>
      <trkpt lat="47.29868" lon="-0.26314">
        <ele>78.1</ele>
        <time>2011-04-03T08:33:17.282Z</time>
      </trkpt>
      <trkpt lat="47.2987" lon="-0.26322">
        <ele>77.7</ele>
        <time>2011-04-03T08:33:17.995Z</time>
      </trkpt>
      <trkpt lat="47.29872" lon="-0.2633">
        <ele>77.4</ele>
        <time>2011-04-03T08:33:18.708Z</time>
      </trkpt>
      <trkpt lat="47.29875" lon="-0.26339">
        <ele>77.2</ele>
        <time>2011-04-03T08:33:19.546Z</time>
      </trkpt>
      <trkpt lat="47.29877" lon="-0.26347">
        <ele>77</ele>
        <time>2011-04-03T08:33:20.259Z</time>
      </trkpt>
      <trkpt lat="47.29879" lon="-0.26355">
        <ele>76.9</ele>
        <time>2011-04-03T08:33:20.972Z</time>
      </trkpt>
      <trkpt lat="47.29881" lon="-0.26364">
        <ele>76.8</ele>
        <time>2011-04-03T08:33:21.764Z</time>
      </trkpt>
      <trkpt lat="47.29884" lon="-0.26372">
        <ele>76.6</ele>
        <time>2011-04-03T08:33:22.528Z</time>
      </trkpt>
      <trkpt lat="47.29886" lon="-0.2638">
        <ele>76.3</ele>
        <time>2011-04-03T08:33:23.241Z</time>
      </trkpt>
      <trkpt lat="47.29888" lon="-0.26389">
        <ele>76.1</ele>
        <time>2011-04-03T08:33:24.033Z</time>
      </trkpt>
      <trkpt lat="47.2989" lon="-0.26397">
        <ele>76.1</ele>
        <time>2011-04-03T08:33:24.746Z</time>
      </trkpt>
      <trkpt lat="47.29893" lon="-0.26405">
        <ele>76.2</ele>
        <time>2011-04-03T08:33:25.510Z</time>
      </trkpt>
      <trkpt lat="47.29895" lon="-0.26413">
        <ele>76.3</ele>
        <time>2011-04-03T08:33:26.223Z</time>
      </trkpt>
      <trkpt lat="47.29897" lon="-0.26422">
        <ele>76.4</ele>
        <time>2011-04-03T08:33:27.015Z</time>
      </trkpt>
      <trkpt lat="47.29899" lon="-0.2643">
        <ele>76.5</ele>
        <time>2011-04-03T08:33:27.728Z</time>
      </trkpt>
      <trkpt lat="47.29902" lon="-0.26438">
        <ele>76.8</ele>
        <time>2011-04-03T08:33:28.493Z</time>
      </trkpt>
      <trkpt lat="47.29904" lon="-0.26447">
        <ele>77.1</ele>
        <time>2011-04-03T08:33:29.286Z</time>
      </trkpt>
      <trkpt lat="47.29906" lon="-0.26455">
        <ele>77.4</ele>
        <time>2011-04-03T08:33:30Z</time>
        <extensions>
          <type>
            <highway>path</highway>
            <surface>undefined</surface>
            </type>
        </extensions>
      </trkpt>
      <trkpt lat="47.29907" lon="-0.26462">
        <ele>77.7</ele>
        <time>2011-04-03T08:33:31.125Z</time>
      </trkpt>
      <trkpt lat="47.29908" lon="-0.26469">
        <ele>78.1</ele>
        <time>2011-04-03T08:33:32.250Z</time>
      </trkpt>
      <trkpt lat="47.29909" lon="-0.26476">
        <ele>78.4</ele>
        <time>2011-04-03T08:33:33.375Z</time>
      </trkpt>
      <trkpt lat="47.2991" lon="-0.26483">
        <ele>78.7</ele>
        <time>2011-04-03T08:33:34.500Z</time>
      </trkpt>
      <trkpt lat="47.29911" lon="-0.2649">
        <ele>79</ele>
        <time>2011-04-03T08:33:35.625Z</time>
      </trkpt>
      <trkpt lat="47.29912" lon="-0.26497">
        <ele>79.2</ele>
        <time>2011-04-03T08:33:36.750Z</time>
      </trkpt>
      <trkpt lat="47.29913" lon="-0.26504">
        <ele>79.1</ele>
        <time>2011-04-03T08:33:37.875Z</time>
      </trkpt>
      <trkpt lat="47.29914" lon="-0.26511">
        <ele>78.8</ele>
        <time>2011-04-03T08:33:39Z</time>
        <extensions>
          <type>
            <highway>path</highway>
            <surface>undefined</surface>
            </type>
        </extensions>
      </trkpt>
      <trkpt lat="47.29911" lon="-0.26522">
        <ele>78.8</ele>
        <time>2011-04-03T08:33:40.405Z</time>
      </trkpt>
      <trkpt lat="47.29908" lon="-0.26533">
        <ele>78.9</ele>
        <time>2011-04-03T08:33:41.810Z</time>
      </trkpt>
      <trkpt lat="47.29906" lon="-0.26544">
        <ele>79.2</ele>
        <time>2011-04-03T08:33:43.159Z</time>
      </trkpt>
      <trkpt lat="47.29903" lon="-0.26555">
        <ele>79.5</ele>
        <time>2011-04-03T08:33:44.564Z</time>
      </trkpt>
      <trkpt lat="47.299" lon="-0.26567">
        <ele>79.8</ele>
        <time>2011-04-03T08:33:46.080Z</time>
      </trkpt>
      <trkpt lat="47.29897" lon="-0.26578">
        <ele>80.1</ele>
        <time>2011-04-03T08:33:47.485Z</time>
      </trkpt>
      <trkpt lat="47.29894" lon="-0.26589">
        <ele>80.6</ele>
        <time>2011-04-03T08:33:48.890Z</time>
      </trkpt>
      <trkpt lat="47.29891" lon="-0.266">
        <ele>81.3</ele>
        <time>2011-04-03T08:33:50.295Z</time>
      </trkpt>
      <trkpt lat="47.29889" lon="-0.26611">
        <ele>82</ele>
        <time>2011-04-03T08:33:51.645Z</time>
      </trkpt>
      <trkpt lat="47.29886" lon="-0.26622">
        <ele>82.3</ele>
        <time>2011-04-03T08:33:53.050Z</time>
      </trkpt>
      <trkpt lat="47.29883" lon="-0.26633">
        <ele>82.6</ele>
        <time>2011-04-03T08:33:54.455Z</time>
      </trkpt>
      <trkpt lat="47.2988" lon="-0.26644">
        <ele>83.1</ele>
        <time>2011-04-03T08:33:55.860Z</time>
      </trkpt>
      <trkpt lat="47.29877" lon="-0.26655">
        <ele>83.6</ele>
        <time>2011-04-03T08:33:57.265Z</time>
      </trkpt>
      <trkpt lat="47.29874" lon="-0.26666">
        <ele>84</ele>
        <time>2011-04-03T08:33:58.670Z</time>
      </trkpt>
      <trkpt lat="47.29872" lon="-0.26677">
        <ele>84.5</ele>
        <time>2011-04-03T08:34:00.020Z</time>
      </trkpt>
      <trkpt lat="47.29869" lon="-0.26689">
        <ele>85</ele>
        <time>2011-04-03T08:34:01.536Z</time>
      </trkpt>
      <trkpt lat="47.29866" lon="-0.267">
        <ele>85.5</ele>
        <time>2011-04-03T08:34:02.941Z</time>
      </trkpt>
      <trkpt lat="47.29863" lon="-0.26711">
        <ele>85.8</ele>
        <time>2011-04-03T08:34:04.346Z</time>
      </trkpt>
      <trkpt lat="47.2986" lon="-0.26722">
        <ele>86</ele>
        <time>2011-04-03T08:34:05.751Z</time>
      </trkpt>
      <trkpt lat="47.29857" lon="-0.26733">
        <ele>86.1</ele>
        <time>2011-04-03T08:34:07.156Z</time>
      </trkpt>
      <trkpt lat="47.29855" lon="-0.26744">
        <ele>86.2</ele>
        <time>2011-04-03T08:34:08.506Z</time>
      </trkpt>
      <trkpt lat="47.29852" lon="-0.26755">
        <ele>86.3</ele>
        <time>2011-04-03T08:34:09.911Z</time>
      </trkpt>
      <trkpt lat="47.29849" lon="-0.26766">
        <ele>86.4</ele>
        <time>2011-04-03T08:34:11.316Z</time>
      </trkpt>
      <trkpt lat="47.29846" lon="-0.26777">
        <ele>86.5</ele>
        <time>2011-04-03T08:34:12.721Z</time>
      </trkpt>
      <trkpt lat="47.29843" lon="-0.26788">
        <ele>86.8</ele>
        <time>2011-04-03T08:34:14.126Z</time>
      </trkpt>
      <trkpt lat="47.29841" lon="-0.26799">
        <ele>86.9</ele>
        <time>2011-04-03T08:34:15.476Z</time>
      </trkpt>
      <trkpt lat="47.29838" lon="-0.26811">
        <ele>87.2</ele>
        <time>2011-04-03T08:34:16.992Z</time>
      </trkpt>
      <trkpt lat="47.29835" lon="-0.26822">
        <ele>87.5</ele>
        <time>2011-04-03T08:34:18.397Z</time>
      </trkpt>
      <trkpt lat="47.29832" lon="-0.26833">
        <ele>88</ele>
        <time>2011-04-03T08:34:19.802Z</time>
      </trkpt>
      <trkpt lat="47.29829" lon="-0.26844">
        <ele>88</ele>
        <time>2011-04-03T08:34:21.207Z</time>
      </trkpt>
      <trkpt lat="47.29826" lon="-0.26855">
        <ele>88</ele>
        <time>2011-04-03T08:34:22.612Z</time>
      </trkpt>
      <trkpt lat="47.29824" lon="-0.26866">
        <ele>88</ele>
        <time>2011-04-03T08:34:23.962Z</time>
      </trkpt>
      <trkpt lat="47.29821" lon="-0.26877">
        <ele>88</ele>
        <time>2011-04-03T08:34:25.367Z</time>
      </trkpt>
      <trkpt lat="47.29818" lon="-0.26888">
        <ele>88</ele>
        <time>2011-04-03T08:34:26.772Z</time>
      </trkpt>
      <trkpt lat="47.29815" lon="-0.26899">
        <ele>88</ele>
        <time>2011-04-03T08:34:28.177Z</time>
      </trkpt>
      <trkpt lat="47.29812" lon="-0.2691">
        <ele>88</ele>
        <time>2011-04-03T08:34:29.582Z</time>
      </trkpt>
      <trkpt lat="47.29809" lon="-0.26922">
        <ele>88</ele>
        <time>2011-04-03T08:34:31.098Z</time>
      </trkpt>
      <trkpt lat="47.29807" lon="-0.26933">
        <ele>88</ele>
        <time>2011-04-03T08:34:32.448Z</time>
      </trkpt>
      <trkpt lat="47.29804" lon="-0.26944">
        <ele>88</ele>
        <time>2011-04-03T08:34:33.853Z</time>
      </trkpt>
      <trkpt lat="47.29801" lon="-0.26955">
        <ele>88</ele>
        <time>2011-04-03T08:34:35.258Z</time>
      </trkpt>
      <trkpt lat="47.29798" lon="-0.26966">
        <ele>88</ele>
        <time>2011-04-03T08:34:36.663Z</time>
      </trkpt>
      <trkpt lat="47.29795" lon="-0.26977">
        <ele>88</ele>
        <time>2011-04-03T08:34:38.068Z</time>
      </trkpt>
      <trkpt lat="47.29792" lon="-0.26988">
        <ele>88</ele>
        <time>2011-04-03T08:34:39.474Z</time>
      </trkpt>
      <trkpt lat="47.2979" lon="-0.26999">
        <ele>88</ele>
        <time>2011-04-03T08:34:40.824Z</time>
      </trkpt>
      <trkpt lat="47.29787" lon="-0.2701">
        <ele>87.9</ele>
        <time>2011-04-03T08:34:42.230Z</time>
      </trkpt>
      <trkpt lat="47.29784" lon="-0.27021">
        <ele>87.8</ele>
        <time>2011-04-03T08:34:43.636Z</time>
      </trkpt>
      <trkpt lat="47.29781" lon="-0.27032">
        <ele>87.7</ele>
        <time>2011-04-03T08:34:45.042Z</time>
      </trkpt>
      <trkpt lat="47.29778" lon="-0.27044">
        <ele>87.4</ele>
        <time>2011-04-03T08:34:46.558Z</time>
      </trkpt>
      <trkpt lat="47.29775" lon="-0.27055">
        <ele>87.1</ele>
        <time>2011-04-03T08:34:47.964Z</time>
      </trkpt>
      <trkpt lat="47.29773" lon="-0.27066">
        <ele>86.8</ele>
        <time>2011-04-03T08:34:49.314Z</time>
      </trkpt>
      <trkpt lat="47.2977" lon="-0.27077">
        <ele>86.3</ele>
        <time>2011-04-03T08:34:50.720Z</time>
      </trkpt>
      <trkpt lat="47.29767" lon="-0.27088">
        <ele>85.7</ele>
        <time>2011-04-03T08:34:52.126Z</time>
      </trkpt>
      <trkpt lat="47.29764" lon="-0.27099">
        <ele>85.1</ele>
        <time>2011-04-03T08:34:53.532Z</time>
      </trkpt>
      <trkpt lat="47.29761" lon="-0.2711">
        <ele>84.6</ele>
        <time>2011-04-03T08:34:54.938Z</time>
      </trkpt>
      <trkpt lat="47.29759" lon="-0.27121">
        <ele>84</ele>
        <time>2011-04-03T08:34:56.288Z</time>
      </trkpt>
      <trkpt lat="47.29756" lon="-0.27132">
        <ele>83.3</ele>
        <time>2011-04-03T08:34:57.694Z</time>
      </trkpt>
      <trkpt lat="47.29753" lon="-0.27143">
        <ele>82.4</ele>
        <time>2011-04-03T08:34:59.100Z</time>
      </trkpt>
      <trkpt lat="47.2975" lon="-0.27154">
        <ele>81.3</ele>
        <time>2011-04-03T08:35:00.506Z</time>
      </trkpt>
      <trkpt lat="47.29747" lon="-0.27166">
        <ele>80.1</ele>
        <time>2011-04-03T08:35:02.023Z</time>
      </trkpt>
      <trkpt lat="47.29744" lon="-0.27177">
        <ele>79.3</ele>
        <time>2011-04-03T08:35:03.429Z</time>
      </trkpt>
      <trkpt lat="47.29742" lon="-0.27188">
        <ele>78.5</ele>
        <time>2011-04-03T08:35:04.780Z</time>
      </trkpt>
      <trkpt lat="47.29739" lon="-0.27199">
        <ele>77.5</ele>
        <time>2011-04-03T08:35:06.186Z</time>
      </trkpt>
      <trkpt lat="47.29736" lon="-0.2721">
        <ele>76.3</ele>
        <time>2011-04-03T08:35:07.592Z</time>
      </trkpt>
      <trkpt lat="47.29733" lon="-0.27221">
        <ele>75.1</ele>
        <time>2011-04-03T08:35:09Z</time>
        <extensions>
          <type>
            <highway>path</highway>
            <surface>undefined</surface>
            </type>
        </extensions>
      </trkpt>
      <trkpt lat="47.29731" lon="-0.27232">
        <ele>74.4</ele>
        <time>2011-04-03T08:35:09.754Z</time>
      </trkpt>
      <trkpt lat="47.2973" lon="-0.27243">
        <ele>73.7</ele>
        <time>2011-04-03T08:35:10.489Z</time>
      </trkpt>
      <trkpt lat="47.29728" lon="-0.27254">
        <ele>73</ele>
        <time>2011-04-03T08:35:11.244Z</time>
      </trkpt>
      <trkpt lat="47.29726" lon="-0.27265">
        <ele>72.5</ele>
        <time>2011-04-03T08:35:12Z</time>
        <extensions>
          <type>
            <highway>path</highway>
            <surface>undefined</surface>
            </type>
        </extensions>
      </trkpt>
      <trkpt lat="47.29728" lon="-0.27277">
        <ele>72.1</ele>
        <time>2011-04-03T08:35:12.780Z</time>
      </trkpt>
      <trkpt lat="47.2973" lon="-0.27288">
        <ele>71.4</ele>
        <time>2011-04-03T08:35:13.499Z</time>
      </trkpt>
      <trkpt lat="47.29732" lon="-0.273">
        <ele>70.7</ele>
        <time>2011-04-03T08:35:14.280Z</time>
      </trkpt>
      <trkpt lat="47.29734" lon="-0.27311">
        <ele>70.2</ele>
        <time>2011-04-03T08:35:15Z</time>
        <extensions>
          <type>
            <highway>path</highway>
            <surface>undefined</surface>
            </type>
        </extensions>
      </trkpt>
      <trkpt lat="47.29737" lon="-0.2732">
        <ele>70</ele>
        <time>2011-04-03T08:35:15.951Z</time>
      </trkpt>
      <trkpt lat="47.2974" lon="-0.2733">
        <ele>69.8</ele>
        <time>2011-04-03T08:35:16.989Z</time>
      </trkpt>
      <trkpt lat="47.29742" lon="-0.27339">
        <ele>69.7</ele>
        <time>2011-04-03T08:35:17.888Z</time>
      </trkpt>
      <trkpt lat="47.29745" lon="-0.27348">
        <ele>69.8</ele>
        <time>2011-04-03T08:35:18.840Z</time>
      </trkpt>
      <trkpt lat="47.29748" lon="-0.27358">
        <ele>69.9</ele>
        <time>2011-04-03T08:35:19.878Z</time>
      </trkpt>
      <trkpt lat="47.29751" lon="-0.27367">
        <ele>69.8</ele>
        <time>2011-04-03T08:35:20.830Z</time>
      </trkpt>
      <trkpt lat="47.29753" lon="-0.27376">
        <ele>69.7</ele>
        <time>2011-04-03T08:35:21.729Z</time>
      </trkpt>
      <trkpt lat="47.29756" lon="-0.27386">
        <ele>69.5</ele>
        <time>2011-04-03T08:35:22.767Z</time>
      </trkpt>
      <trkpt lat="47.29759" lon="-0.27395">
        <ele>69.6</ele>
        <time>2011-04-03T08:35:23.719Z</time>
      </trkpt>
      <trkpt lat="47.29762" lon="-0.27404">
        <ele>69.8</ele>
        <time>2011-04-03T08:35:24.671Z</time>
      </trkpt>
      <trkpt lat="47.29764" lon="-0.27414">
        <ele>70</ele>
        <time>2011-04-03T08:35:25.660Z</time>
      </trkpt>
      <trkpt lat="47.29767" lon="-0.27423">
        <ele>70.1</ele>
        <time>2011-04-03T08:35:26.612Z</time>
      </trkpt>
      <trkpt lat="47.2977" lon="-0.27433">
        <ele>70</ele>
        <time>2011-04-03T08:35:27.650Z</time>
      </trkpt>
      <trkpt lat="47.29773" lon="-0.27442">
        <ele>69.9</ele>
        <time>2011-04-03T08:35:28.602Z</time>
      </trkpt>
      <trkpt lat="47.29775" lon="-0.27451">
        <ele>69.9</ele>
        <time>2011-04-03T08:35:29.501Z</time>
      </trkpt>
      <trkpt lat="47.29778" lon="-0.27461">
        <ele>70</ele>
        <time>2011-04-03T08:35:30.539Z</time>
      </trkpt>
      <trkpt lat="47.29781" lon="-0.2747">
        <ele>70.1</ele>
        <time>2011-04-03T08:35:31.491Z</time>
      </trkpt>
      <trkpt lat="47.29784" lon="-0.27479">
        <ele>70.2</ele>
        <time>2011-04-03T08:35:32.443Z</time>
      </trkpt>
      <trkpt lat="47.29786" lon="-0.27489">
        <ele>70.1</ele>
        <time>2011-04-03T08:35:33.432Z</time>
      </trkpt>
      <trkpt lat="47.29789" lon="-0.27498">
        <ele>70</ele>
        <time>2011-04-03T08:35:34.384Z</time>
      </trkpt>
      <trkpt lat="47.29792" lon="-0.27507">
        <ele>70.1</ele>
        <time>2011-04-03T08:35:35.336Z</time>
      </trkpt>
      <trkpt lat="47.29795" lon="-0.27517">
        <ele>70.2</ele>
        <time>2011-04-03T08:35:36.374Z</time>
      </trkpt>
      <trkpt lat="47.29797" lon="-0.27526">
        <ele>70.3</ele>
        <time>2011-04-03T08:35:37.273Z</time>
      </trkpt>
      <trkpt lat="47.298" lon="-0.27535">
        <ele>70.5</ele>
        <time>2011-04-03T08:35:38.225Z</time>
      </trkpt>
      <trkpt lat="47.29803" lon="-0.27545">
        <ele>70.7</ele>
        <time>2011-04-03T08:35:39.263Z</time>
      </trkpt>
      <trkpt lat="47.29806" lon="-0.27554">
        <ele>70.9</ele>
        <time>2011-04-03T08:35:40.215Z</time>
      </trkpt>
      <trkpt lat="47.29808" lon="-0.27563">
        <ele>70.9</ele>
        <time>2011-04-03T08:35:41.114Z</time>
      </trkpt>
      <trkpt lat="47.29811" lon="-0.27573">
        <ele>70.8</ele>
        <time>2011-04-03T08:35:42.152Z</time>
      </trkpt>
      <trkpt lat="47.29814" lon="-0.27582">
        <ele>70.7</ele>
        <time>2011-04-03T08:35:43.104Z</time>
      </trkpt>
      <trkpt lat="47.29817" lon="-0.27591">
        <ele>70.8</ele>
        <time>2011-04-03T08:35:44.056Z</time>
      </trkpt>
      <trkpt lat="47.29819" lon="-0.27601">
        <ele>70.8</ele>
        <time>2011-04-03T08:35:45.046Z</time>
      </trkpt>
      <trkpt lat="47.29822" lon="-0.2761">
        <ele>70.8</ele>
        <time>2011-04-03T08:35:46Z</time>
        <extensions>
          <type>
            <highway>path</highway>
            <surface>undefined</surface>
            </type>
        </extensions>
      </trkpt>
      <trkpt lat="47.29824" lon="-0.27618">
        <ele>70.7</ele>
        <time>2011-04-03T08:35:46.724Z</time>
      </trkpt>
      <trkpt lat="47.29826" lon="-0.27625">
        <ele>70.5</ele>
        <time>2011-04-03T08:35:47.369Z</time>
      </trkpt>
      <trkpt lat="47.29828" lon="-0.27633">
        <ele>70.4</ele>
        <time>2011-04-03T08:35:48.093Z</time>
      </trkpt>
      <trkpt lat="47.2983" lon="-0.2764">
        <ele>70.3</ele>
        <time>2011-04-03T08:35:48.738Z</time>
      </trkpt>
      <trkpt lat="47.29832" lon="-0.27648">
        <ele>70.1</ele>
        <time>2011-04-03T08:35:49.462Z</time>
      </trkpt>
      <trkpt lat="47.29834" lon="-0.27655">
        <ele>70</ele>
        <time>2011-04-03T08:35:50.107Z</time>
      </trkpt>
      <trkpt lat="47.29836" lon="-0.27663">
        <ele>69.9</ele>
        <time>2011-04-03T08:35:50.831Z</time>
      </trkpt>
      <trkpt lat="47.29838" lon="-0.27671">
        <ele>69.7</ele>
        <time>2011-04-03T08:35:51.555Z</time>
      </trkpt>
      <trkpt lat="47.29839" lon="-0.27678">
        <ele>69.4</ele>
        <time>2011-04-03T08:35:52.163Z</time>
      </trkpt>
      <trkpt lat="47.29841" lon="-0.27686">
        <ele>69</ele>
        <time>2011-04-03T08:35:52.887Z</time>
      </trkpt>
      <trkpt lat="47.29843" lon="-0.27693">
        <ele>68.7</ele>
        <time>2011-04-03T08:35:53.532Z</time>
      </trkpt>
      <trkpt lat="47.29845" lon="-0.27701">
        <ele>68.3</ele>
        <time>2011-04-03T08:35:54.257Z</time>
      </trkpt>
      <trkpt lat="47.29847" lon="-0.27708">
        <ele>67.8</ele>
        <time>2011-04-03T08:35:54.903Z</time>
      </trkpt>
      <trkpt lat="47.29849" lon="-0.27716">
        <ele>67.2</ele>
        <time>2011-04-03T08:35:55.628Z</time>
      </trkpt>
      <trkpt lat="47.29851" lon="-0.27723">
        <ele>66.7</ele>
        <time>2011-04-03T08:35:56.274Z</time>
      </trkpt>
      <trkpt lat="47.29853" lon="-0.27731">
        <ele>66.4</ele>
        <time>2011-04-03T08:35:57Z</time>
        <extensions>
          <type>
            <highway>path</highway>
            <surface>undefined</surface>
            </type>
        </extensions>
      </trkpt>
      <trkpt lat="47.29857" lon="-0.27742">
        <ele>65.7</ele>
        <time>2011-04-03T08:35:57.891Z</time>
      </trkpt>
      <trkpt lat="47.2986" lon="-0.27753">
        <ele>65.1</ele>
        <time>2011-04-03T08:35:58.738Z</time>
      </trkpt>
      <trkpt lat="47.29864" lon="-0.27764">
        <ele>64.9</ele>
        <time>2011-04-03T08:35:59.629Z</time>
      </trkpt>
      <trkpt lat="47.29868" lon="-0.27775">
        <ele>64.8</ele>
        <time>2011-04-03T08:36:00.521Z</time>
      </trkpt>
      <trkpt lat="47.29871" lon="-0.27786">
        <ele>64.6</ele>
        <time>2011-04-03T08:36:01.368Z</time>
      </trkpt>
      <trkpt lat="47.29875" lon="-0.27797">
        <ele>64.5</ele>
        <time>2011-04-03T08:36:02.260Z</time>
      </trkpt>
      <trkpt lat="47.29878" lon="-0.27808">
        <ele>64.4</ele>
        <time>2011-04-03T08:36:03.107Z</time>
      </trkpt>
      <trkpt lat="47.29882" lon="-0.27819">
        <ele>64.2</ele>
        <time>2011-04-03T08:36:04Z</time>
        <extensions>
          <type>
            <highway>path</highway>
            <surface>undefined</surface>
            </type>
        </extensions>
      </trkpt>
      <trkpt lat="47.29885" lon="-0.2783">
        <ele>64.2</ele>
        <time>2011-04-03T08:36:04.990Z</time>
      </trkpt>
      <trkpt lat="47.29888" lon="-0.27842">
        <ele>64</ele>
        <time>2011-04-03T08:36:06.058Z</time>
      </trkpt>
      <trkpt lat="47.2989" lon="-0.27853">
        <ele>64</ele>
        <time>2011-04-03T08:36:07.009Z</time>
      </trkpt>
      <trkpt lat="47.29893" lon="-0.27864">
        <ele>63.8</ele>
        <time>2011-04-03T08:36:08Z</time>
        <extensions>
          <type>
            <highway>path</highway>
            <surface>undefined</surface>
            </type>
        </extensions>
      </trkpt>
      <trkpt lat="47.29893" lon="-0.27876">
        <ele>63.8</ele>
        <time>2011-04-03T08:36:09.992Z</time>
      </trkpt>
      <trkpt lat="47.29892" lon="-0.27888">
        <ele>63.8</ele>
        <time>2011-04-03T08:36:12Z</time>
        <extensions>
          <type>
            <highway>path</highway>
            <surface>undefined</surface>
            </type>
        </extensions>
      </trkpt>
      <trkpt lat="47.29896" lon="-0.27899">
        <ele>63.5</ele>
        <time>2011-04-03T08:36:14.137Z</time>
      </trkpt>
      <trkpt lat="47.299" lon="-0.27911">
        <ele>63.2</ele>
        <time>2011-04-03T08:36:16.427Z</time>
      </trkpt>
      <trkpt lat="47.29903" lon="-0.27922">
        <ele>63</ele>
        <time>2011-04-03T08:36:18.457Z</time>
      </trkpt>
      <trkpt lat="47.29907" lon="-0.27933">
        <ele>62.9</ele>
        <time>2011-04-03T08:36:20.594Z</time>
      </trkpt>
      <trkpt lat="47.29911" lon="-0.27944">
        <ele>63</ele>
        <time>2011-04-03T08:36:22.731Z</time>
      </trkpt>
      <trkpt lat="47.29915" lon="-0.27956">
        <ele>63.4</ele>
        <time>2011-04-03T08:36:25.021Z</time>
      </trkpt>
      <trkpt lat="47.29919" lon="-0.27967">
        <ele>63.8</ele>
        <time>2011-04-03T08:36:27.158Z</time>
      </trkpt>
      <trkpt lat="47.29923" lon="-0.27978">
        <ele>64.3</ele>
        <time>2011-04-03T08:36:29.295Z</time>
      </trkpt>
      <trkpt lat="47.29926" lon="-0.27989">
        <ele>64.8</ele>
        <time>2011-04-03T08:36:31.325Z</time>
      </trkpt>
      <trkpt lat="47.2993" lon="-0.28001">
        <ele>65.5</ele>
        <time>2011-04-03T08:36:33.615Z</time>
      </trkpt>
      <trkpt lat="47.29934" lon="-0.28012">
        <ele>66.3</ele>
        <time>2011-04-03T08:36:35.753Z</time>
      </trkpt>
      <trkpt lat="47.29938" lon="-0.28023">
        <ele>67.2</ele>
        <time>2011-04-03T08:36:37.891Z</time>
      </trkpt>
      <trkpt lat="47.29942" lon="-0.28034">
        <ele>68.1</ele>
        <time>2011-04-03T08:36:40.029Z</time>
      </trkpt>
      <trkpt lat="47.29945" lon="-0.28046">
        <ele>68.7</ele>
        <time>2011-04-03T08:36:42.219Z</time>
      </trkpt>
      <trkpt lat="47.29949" lon="-0.28057">
        <ele>69.3</ele>
        <time>2011-04-03T08:36:44.357Z</time>
      </trkpt>
      <trkpt lat="47.29953" lon="-0.28068">
        <ele>70.1</ele>
        <time>2011-04-03T08:36:46.495Z</time>
      </trkpt>
      <trkpt lat="47.29957" lon="-0.28079">
        <ele>70.8</ele>
        <time>2011-04-03T08:36:48.633Z</time>
      </trkpt>
      <trkpt lat="47.29961" lon="-0.28091">
        <ele>71</ele>
        <time>2011-04-03T08:36:50.923Z</time>
      </trkpt>
      <trkpt lat="47.29964" lon="-0.28102">
        <ele>71</ele>
        <time>2011-04-03T08:36:52.954Z</time>
      </trkpt>
      <trkpt lat="47.29968" lon="-0.28113">
        <ele>71.1</ele>
        <time>2011-04-03T08:36:55.092Z</time>
      </trkpt>
      <trkpt lat="47.29972" lon="-0.28124">
        <ele>71.5</ele>
        <time>2011-04-03T08:36:57.230Z</time>
      </trkpt>
      <trkpt lat="47.29976" lon="-0.28136">
        <ele>71.8</ele>
        <time>2011-04-03T08:36:59.520Z</time>
      </trkpt>
      <trkpt lat="47.2998" lon="-0.28147">
        <ele>71.8</ele>
        <time>2011-04-03T08:37:01.658Z</time>
      </trkpt>
      <trkpt lat="47.29984" lon="-0.28158">
        <ele>71.9</ele>
        <time>2011-04-03T08:37:03.796Z</time>
      </trkpt>
      <trkpt lat="47.29987" lon="-0.28169">
        <ele>72.1</ele>
        <time>2011-04-03T08:37:05.827Z</time>
      </trkpt>
      <trkpt lat="47.29991" lon="-0.28181">
        <ele>72.5</ele>
        <time>2011-04-03T08:37:08.117Z</time>
      </trkpt>
      <trkpt lat="47.29995" lon="-0.28192">
        <ele>72.9</ele>
        <time>2011-04-03T08:37:10.255Z</time>
      </trkpt>
      <trkpt lat="47.29999" lon="-0.28203">
        <ele>73</ele>
        <time>2011-04-03T08:37:12.393Z</time>
      </trkpt>
      <trkpt lat="47.30003" lon="-0.28214">
        <ele>73.1</ele>
        <time>2011-04-03T08:37:14.531Z</time>
      </trkpt>
      <trkpt lat="47.30006" lon="-0.28226">
        <ele>73.3</ele>
        <time>2011-04-03T08:37:16.722Z</time>
      </trkpt>
      <trkpt lat="47.3001" lon="-0.28237">
        <ele>73.9</ele>
        <time>2011-04-03T08:37:18.861Z</time>
      </trkpt>
      <trkpt lat="47.30014" lon="-0.28248">
        <ele>74.4</ele>
        <time>2011-04-03T08:37:21Z</time>
        <extensions>
          <type>
            <highway>path</highway>
            <surface>undefined</surface>
            </type>
        </extensions>
      </trkpt>
      <trkpt lat="47.30016" lon="-0.2826">
        <ele>75.1</ele>
        <time>2011-04-03T08:37:23.977Z</time>
      </trkpt>
      <trkpt lat="47.30018" lon="-0.28271">
        <ele>75.9</ele>
        <time>2011-04-03T08:37:26.721Z</time>
      </trkpt>
      <trkpt lat="47.3002" lon="-0.28283">
        <ele>76.8</ele>
        <time>2011-04-03T08:37:29.698Z</time>
      </trkpt>
      <trkpt lat="47.30023" lon="-0.28294">
        <ele>77.7</ele>
        <time>2011-04-03T08:37:32.555Z</time>
      </trkpt>
      <trkpt lat="47.30025" lon="-0.28306">
        <ele>78.7</ele>
        <time>2011-04-03T08:37:35.532Z</time>
      </trkpt>
      <trkpt lat="47.30027" lon="-0.28317">
        <ele>79.3</ele>
        <time>2011-04-03T08:37:38.276Z</time>
      </trkpt>
      <trkpt lat="47.30029" lon="-0.28329">
        <ele>80</ele>
        <time>2011-04-03T08:37:41.254Z</time>
      </trkpt>
      <trkpt lat="47.30031" lon="-0.2834">
        <ele>80.5</ele>
        <time>2011-04-03T08:37:44Z</time>
        <extensions>
          <type>
            <highway>path</highway>
            <surface>undefined</surface>
            </type>
        </extensions>
      </trkpt>
      <trkpt lat="47.30034" lon="-0.2835">
        <ele>81</ele>
        <time>2011-04-03T08:37:47.246Z</time>
      </trkpt>
      <trkpt lat="47.30037" lon="-0.28359">
        <ele>81.6</ele>
        <time>2011-04-03T08:37:50.223Z</time>
      </trkpt>
      <trkpt lat="47.3004" lon="-0.28369">
        <ele>82.3</ele>
        <time>2011-04-03T08:37:53.469Z</time>
      </trkpt>
      <trkpt lat="47.30043" lon="-0.28379">
        <ele>82.9</ele>
        <time>2011-04-03T08:37:56.715Z</time>
      </trkpt>
      <trkpt lat="47.30045" lon="-0.28388">
        <ele>83.5</ele>
        <time>2011-04-03T08:37:59.527Z</time>
      </trkpt>
      <trkpt lat="47.30048" lon="-0.28398">
        <ele>84</ele>
        <time>2011-04-03T08:38:02.774Z</time>
      </trkpt>
      <trkpt lat="47.30051" lon="-0.28407">
        <ele>84.4</ele>
        <time>2011-04-03T08:38:05.752Z</time>
      </trkpt>
      <trkpt lat="47.30054" lon="-0.28417">
        <ele>84.8</ele>
        <time>2011-04-03T08:38:09Z</time>
        <extensions>
          <type>
            <highway>path</highway>
            <surface>undefined</surface>
            </type>
        </extensions>
      </trkpt>
      <trkpt lat="47.30056" lon="-0.28429">
        <ele>85</ele>
        <time>2011-04-03T08:38:11.920Z</time>
      </trkpt>
      <trkpt lat="47.30059" lon="-0.2844">
        <ele>85.1</ele>
        <time>2011-04-03T08:38:14.722Z</time>
      </trkpt>
      <trkpt lat="47.30061" lon="-0.28452">
        <ele>85.2</ele>
        <time>2011-04-03T08:38:17.642Z</time>
      </trkpt>
      <trkpt lat="47.30064" lon="-0.28464">
        <ele>85.3</ele>
        <time>2011-04-03T08:38:20.664Z</time>
      </trkpt>
      <trkpt lat="47.30066" lon="-0.28475">
        <ele>85.3</ele>
        <time>2011-04-03T08:38:23.355Z</time>
      </trkpt>
      <trkpt lat="47.30068" lon="-0.28487">
        <ele>85.2</ele>
        <time>2011-04-03T08:38:26.276Z</time>
      </trkpt>
      <trkpt lat="47.30071" lon="-0.28498">
        <ele>85.1</ele>
        <time>2011-04-03T08:38:29.078Z</time>
      </trkpt>
      <trkpt lat="47.30073" lon="-0.2851">
        <ele>85.3</ele>
        <time>2011-04-03T08:38:32Z</time>
        <extensions>
          <type>
            <highway>path</highway>
            <surface>undefined</surface>
            </type>
        </extensions>
      </trkpt>
      <trkpt lat="47.30076" lon="-0.2852">
        <ele>85.5</ele>
        <time>2011-04-03T08:38:33.855Z</time>
      </trkpt>
      <trkpt lat="47.30079" lon="-0.28531">
        <ele>85.6</ele>
        <time>2011-04-03T08:38:35.866Z</time>
      </trkpt>
      <trkpt lat="47.30082" lon="-0.28541">
        <ele>85.4</ele>
        <time>2011-04-03T08:38:37.721Z</time>
      </trkpt>
      <trkpt lat="47.30086" lon="-0.28552">
        <ele>85.3</ele>
        <time>2011-04-03T08:38:39.838Z</time>
      </trkpt>
      <trkpt lat="47.30089" lon="-0.28562">
        <ele>85.4</ele>
        <time>2011-04-03T08:38:41.693Z</time>
      </trkpt>
      <trkpt lat="47.30092" lon="-0.28573">
        <ele>85.6</ele>
        <time>2011-04-03T08:38:43.704Z</time>
      </trkpt>
      <trkpt lat="47.30095" lon="-0.28583">
        <ele>85.8</ele>
        <time>2011-04-03T08:38:45.559Z</time>
      </trkpt>
      <trkpt lat="47.30098" lon="-0.28594">
        <ele>86.1</ele>
        <time>2011-04-03T08:38:47.571Z</time>
      </trkpt>
      <trkpt lat="47.30101" lon="-0.28604">
        <ele>86.3</ele>
        <time>2011-04-03T08:38:49.426Z</time>
      </trkpt>
      <trkpt lat="47.30104" lon="-0.28614">
        <ele>86.7</ele>
        <time>2011-04-03T08:38:51.281Z</time>
      </trkpt>
      <trkpt lat="47.30107" lon="-0.28625">
        <ele>87.3</ele>
        <time>2011-04-03T08:38:53.293Z</time>
      </trkpt>
      <trkpt lat="47.30111" lon="-0.28635">
        <ele>87.8</ele>
        <time>2011-04-03T08:38:55.263Z</time>
      </trkpt>
      <trkpt lat="47.30114" lon="-0.28646">
        <ele>88.3</ele>
        <time>2011-04-03T08:38:57.275Z</time>
      </trkpt>
      <trkpt lat="47.30117" lon="-0.28656">
        <ele>88.8</ele>
        <time>2011-04-03T08:38:59.131Z</time>
      </trkpt>
      <trkpt lat="47.3012" lon="-0.28667">
        <ele>89.3</ele>
        <time>2011-04-03T08:39:01.143Z</time>
      </trkpt>
      <trkpt lat="47.30123" lon="-0.28677">
        <ele>89.6</ele>
        <time>2011-04-03T08:39:03Z</time>
        <extensions>
          <type>
            <highway>path</highway>
            <surface>undefined</surface>
            </type>
        </extensions>
      </trkpt>
      <trkpt lat="47.30126" lon="-0.28688">
        <ele>89.9</ele>
        <time>2011-04-03T08:39:05.390Z</time>
      </trkpt>
      <trkpt lat="47.30129" lon="-0.287">
        <ele>90.2</ele>
        <time>2011-04-03T08:39:07.968Z</time>
      </trkpt>
      <trkpt lat="47.30132" lon="-0.28711">
        <ele>90.6</ele>
        <time>2011-04-03T08:39:10.358Z</time>
      </trkpt>
      <trkpt lat="47.30135" lon="-0.28722">
        <ele>91</ele>
        <time>2011-04-03T08:39:12.748Z</time>
      </trkpt>
      <trkpt lat="47.30137" lon="-0.28734">
        <ele>91</ele>
        <time>2011-04-03T08:39:15.239Z</time>
      </trkpt>
      <trkpt lat="47.3014" lon="-0.28745">
        <ele>91</ele>
        <time>2011-04-03T08:39:17.629Z</time>
      </trkpt>
      <trkpt lat="47.30143" lon="-0.28756">
        <ele>91.2</ele>
        <time>2011-04-03T08:39:20.019Z</time>
      </trkpt>
      <trkpt lat="47.30146" lon="-0.28768">
        <ele>91.3</ele>
        <time>2011-04-03T08:39:22.597Z</time>
      </trkpt>
      <trkpt lat="47.30149" lon="-0.28779">
        <ele>91.4</ele>
        <time>2011-04-03T08:39:24.987Z</time>
      </trkpt>
      <trkpt lat="47.30152" lon="-0.2879">
        <ele>91.7</ele>
        <time>2011-04-03T08:39:27.377Z</time>
      </trkpt>
      <trkpt lat="47.30155" lon="-0.28801">
        <ele>91.9</ele>
        <time>2011-04-03T08:39:29.767Z</time>
      </trkpt>
      <trkpt lat="47.30158" lon="-0.28813">
        <ele>92</ele>
        <time>2011-04-03T08:39:32.345Z</time>
      </trkpt>
      <trkpt lat="47.3016" lon="-0.28824">
        <ele>92</ele>
        <time>2011-04-03T08:39:34.640Z</time>
      </trkpt>
      <trkpt lat="47.30163" lon="-0.28835">
        <ele>92</ele>
        <time>2011-04-03T08:39:37.030Z</time>
      </trkpt>
      <trkpt lat="47.30166" lon="-0.28847">
        <ele>92</ele>
        <time>2011-04-03T08:39:39.609Z</time>
      </trkpt>
      <trkpt lat="47.30169" lon="-0.28858">
        <ele>92.1</ele>
        <time>2011-04-03T08:39:42Z</time>
        <extensions>
          <type>
            <highway>path</highway>
            <surface>undefined</surface>
            </type>
        </extensions>
      </trkpt>
      <trkpt lat="47.30172" lon="-0.28866">
        <ele>92.2</ele>
        <time>2011-04-03T08:39:43.175Z</time>
      </trkpt>
      <trkpt lat="47.30174" lon="-0.28875">
        <ele>92.3</ele>
        <time>2011-04-03T08:39:44.392Z</time>
      </trkpt>
      <trkpt lat="47.30177" lon="-0.28883">
        <ele>92.4</ele>
        <time>2011-04-03T08:39:45.567Z</time>
      </trkpt>
      <trkpt lat="47.30179" lon="-0.28892">
        <ele>92.4</ele>
        <time>2011-04-03T08:39:46.784Z</time>
      </trkpt>
      <trkpt lat="47.30182" lon="-0.289">
        <ele>92.5</ele>
        <time>2011-04-03T08:39:47.959Z</time>
      </trkpt>
      <trkpt lat="47.30184" lon="-0.28909">
        <ele>92.6</ele>
        <time>2011-04-03T08:39:49.176Z</time>
      </trkpt>
      <trkpt lat="47.30187" lon="-0.28917">
        <ele>92.7</ele>
        <time>2011-04-03T08:39:50.351Z</time>
      </trkpt>
      <trkpt lat="47.30189" lon="-0.28926">
        <ele>92.5</ele>
        <time>2011-04-03T08:39:51.569Z</time>
      </trkpt>
      <trkpt lat="47.30192" lon="-0.28934">
        <ele>92.3</ele>
        <time>2011-04-03T08:39:52.744Z</time>
      </trkpt>
      <trkpt lat="47.30194" lon="-0.28942">
        <ele>92.1</ele>
        <time>2011-04-03T08:39:53.840Z</time>
      </trkpt>
      <trkpt lat="47.30197" lon="-0.28951">
        <ele>92</ele>
        <time>2011-04-03T08:39:55.129Z</time>
      </trkpt>
      <trkpt lat="47.30199" lon="-0.28959">
        <ele>92</ele>
        <time>2011-04-03T08:39:56.225Z</time>
      </trkpt>
      <trkpt lat="47.30202" lon="-0.28968">
        <ele>92</ele>
        <time>2011-04-03T08:39:57.515Z</time>
      </trkpt>
      <trkpt lat="47.30204" lon="-0.28976">
        <ele>92</ele>
        <time>2011-04-03T08:39:58.612Z</time>
      </trkpt>
      <trkpt lat="47.30207" lon="-0.28985">
        <ele>91.8</ele>
        <time>2011-04-03T08:39:59.902Z</time>
      </trkpt>
      <trkpt lat="47.30209" lon="-0.28993">
        <ele>91.6</ele>
        <time>2011-04-03T08:40:01Z</time>
        <extensions>
          <type>
            <highway>path</highway>
            <surface>undefined</surface>
            </type>
        </extensions>
      </trkpt>
      <trkpt lat="47.30212" lon="-0.28999">
        <ele>91.4</ele>
        <time>2011-04-03T08:40:01.948Z</time>
      </trkpt>
      <trkpt lat="47.30214" lon="-0.29005">
        <ele>91.2</ele>
        <time>2011-04-03T08:40:02.798Z</time>
      </trkpt>
      <trkpt lat="47.30217" lon="-0.2901">
        <ele>91.1</ele>
        <time>2011-04-03T08:40:03.647Z</time>
      </trkpt>
      <trkpt lat="47.30219" lon="-0.29016">
        <ele>91</ele>
        <time>2011-04-03T08:40:04.498Z</time>
      </trkpt>
      <trkpt lat="47.30222" lon="-0.29022">
        <ele>91</ele>
        <time>2011-04-03T08:40:05.447Z</time>
      </trkpt>
      <trkpt lat="47.30224" lon="-0.29028">
        <ele>90.9</ele>
        <time>2011-04-03T08:40:06.298Z</time>
      </trkpt>
      <trkpt lat="47.30227" lon="-0.29033">
        <ele>90.7</ele>
        <time>2011-04-03T08:40:07.148Z</time>
      </trkpt>
      <trkpt lat="47.30229" lon="-0.29039">
        <ele>90.4</ele>
        <time>2011-04-03T08:40:08Z</time>
        <extensions>
          <type>
            <highway>path</highway>
            <surface>undefined</surface>
            </type>
        </extensions>
      </trkpt>
      <trkpt lat="47.30237" lon="-0.29042">
        <ele>90</ele>
        <time>2011-04-03T08:40:09.500Z</time>
      </trkpt>
      <trkpt lat="47.30245" lon="-0.29045">
        <ele>89.6</ele>
        <time>2011-04-03T08:40:11Z</time>
        <extensions>
          <type>
            <highway>track</highway>
            <surface>undefined</surface>
            </type>
        </extensions>
      </trkpt>
      <trkpt lat="47.30251" lon="-0.29044">
        <ele>89.4</ele>
        <time>2011-04-03T08:40:12.076Z</time>
      </trkpt>
      <trkpt lat="47.30256" lon="-0.29042">
        <ele>89.1</ele>
        <time>2011-04-03T08:40:13Z</time>
        <extensions>
          <type>
            <highway>track</highway>
            <surface>undefined</surface>
            </type>
        </extensions>
      </trkpt>
      <trkpt lat="47.30261" lon="-0.29039">
        <ele>88.8</ele>
        <time>2011-04-03T08:40:13.798Z</time>
      </trkpt>
      <trkpt lat="47.30266" lon="-0.29036">
        <ele>88.6</ele>
        <time>2011-04-03T08:40:14.596Z</time>
      </trkpt>
      <trkpt lat="47.30271" lon="-0.29033">
        <ele>88.3</ele>
        <time>2011-04-03T08:40:15.394Z</time>
      </trkpt>
      <trkpt lat="47.30276" lon="-0.2903">
        <ele>88</ele>
        <time>2011-04-03T08:40:16.192Z</time>
      </trkpt>
      <trkpt lat="47.30281" lon="-0.29026">
        <ele>87.8</ele>
        <time>2011-04-03T08:40:17.033Z</time>
      </trkpt>
      <trkpt lat="47.30286" lon="-0.29023">
        <ele>87.5</ele>
        <time>2011-04-03T08:40:17.831Z</time>
      </trkpt>
      <trkpt lat="47.30291" lon="-0.2902">
        <ele>87.3</ele>
        <time>2011-04-03T08:40:18.629Z</time>
      </trkpt>
      <trkpt lat="47.30297" lon="-0.29017">
        <ele>87</ele>
        <time>2011-04-03T08:40:19.566Z</time>
      </trkpt>
      <trkpt lat="47.30302" lon="-0.29014">
        <ele>86.8</ele>
        <time>2011-04-03T08:40:20.364Z</time>
      </trkpt>
      <trkpt lat="47.30307" lon="-0.29011">
        <ele>86.5</ele>
        <time>2011-04-03T08:40:21.163Z</time>
      </trkpt>
      <trkpt lat="47.30312" lon="-0.29008">
        <ele>86.2</ele>
        <time>2011-04-03T08:40:21.962Z</time>
      </trkpt>
      <trkpt lat="47.30317" lon="-0.29005">
        <ele>86</ele>
        <time>2011-04-03T08:40:22.761Z</time>
      </trkpt>
      <trkpt lat="47.30322" lon="-0.29001">
        <ele>85.8</ele>
        <time>2011-04-03T08:40:23.602Z</time>
      </trkpt>
      <trkpt lat="47.30327" lon="-0.28998">
        <ele>85.6</ele>
        <time>2011-04-03T08:40:24.401Z</time>
      </trkpt>
      <trkpt lat="47.30332" lon="-0.28995">
        <ele>85.5</ele>
        <time>2011-04-03T08:40:25.200Z</time>
      </trkpt>
      <trkpt lat="47.30337" lon="-0.28992">
        <ele>85.4</ele>
        <time>2011-04-03T08:40:26Z</time>
        <extensions>
          <type>
            <highway>track</highway>
            <surface>undefined</surface>
            </type>
        </extensions>
      </trkpt>
      <trkpt lat="47.30344" lon="-0.28989">
        <ele>85.2</ele>
        <time>2011-04-03T08:40:27.077Z</time>
      </trkpt>
      <trkpt lat="47.3035" lon="-0.28987">
        <ele>85.1</ele>
        <time>2011-04-03T08:40:27.986Z</time>
      </trkpt>
      <trkpt lat="47.30357" lon="-0.28984">
        <ele>85</ele>
        <time>2011-04-03T08:40:29.063Z</time>
      </trkpt>
      <trkpt lat="47.30363" lon="-0.28981">
        <ele>85</ele>
        <time>2011-04-03T08:40:30Z</time>
        <extensions>
          <type>
            <highway>track</highway>
            <surface>undefined</surface>
            </type>
        </extensions>
      </trkpt>
      <trkpt lat="47.30369" lon="-0.28983">
        <ele>84.6</ele>
        <time>2011-04-03T08:40:30.818Z</time>
      </trkpt>
      <trkpt lat="47.30374" lon="-0.28985">
        <ele>84.2</ele>
        <time>2011-04-03T08:40:31.507Z</time>
      </trkpt>
      <trkpt lat="47.3038" lon="-0.28986">
        <ele>83.8</ele>
        <time>2011-04-03T08:40:32.310Z</time>
      </trkpt>
      <trkpt lat="47.30385" lon="-0.28988">
        <ele>83.4</ele>
        <time>2011-04-03T08:40:33Z</time>
        <extensions>
          <type>
            <highway>track</highway>
            <surface>undefined</surface>
            </type>
        </extensions>
      </trkpt>
      <trkpt lat="47.30392" lon="-0.28993">
        <ele>82.8</ele>
        <time>2011-04-03T08:40:33.989Z</time>
      </trkpt>
      <trkpt lat="47.30399" lon="-0.28999">
        <ele>82.2</ele>
        <time>2011-04-03T08:40:35.019Z</time>
      </trkpt>
      <trkpt lat="47.30406" lon="-0.29004">
        <ele>81.6</ele>
        <time>2011-04-03T08:40:36.009Z</time>
      </trkpt>
      <trkpt lat="47.30413" lon="-0.29009">
        <ele>81</ele>
        <time>2011-04-03T08:40:37Z</time>
        <extensions>
          <type>
            <highway>track</highway>
            <surface>undefined</surface>
            </type>
        </extensions>
      </trkpt>
      <trkpt lat="47.3042" lon="-0.29018">
        <ele>80.2</ele>
        <time>2011-04-03T08:40:38.068Z</time>
      </trkpt>
      <trkpt lat="47.30426" lon="-0.29026">
        <ele>79.5</ele>
        <time>2011-04-03T08:40:39Z</time>
        <extensions>
          <type>
            <highway>track</highway>
            <surface>undefined</surface>
            </type>
        </extensions>
      </trkpt>
      <trkpt lat="47.3043" lon="-0.29035">
        <ele>78.7</ele>
        <time>2011-04-03T08:40:39.749Z</time>
      </trkpt>
      <trkpt lat="47.30434" lon="-0.29044">
        <ele>77.9</ele>
        <time>2011-04-03T08:40:40.498Z</time>
      </trkpt>
      <trkpt lat="47.30438" lon="-0.29053">
        <ele>77.1</ele>
        <time>2011-04-03T08:40:41.247Z</time>
      </trkpt>
      <trkpt lat="47.30443" lon="-0.29062">
        <ele>76.5</ele>
        <time>2011-04-03T08:40:42.057Z</time>
      </trkpt>
      <trkpt lat="47.30447" lon="-0.2907">
        <ele>76</ele>
        <time>2011-04-03T08:40:42.749Z</time>
      </trkpt>
      <trkpt lat="47.30451" lon="-0.29079">
        <ele>75.3</ele>
        <time>2011-04-03T08:40:43.499Z</time>
      </trkpt>
      <trkpt lat="47.30455" lon="-0.29088">
        <ele>74.5</ele>
        <time>2011-04-03T08:40:44.249Z</time>
      </trkpt>
      <trkpt lat="47.30459" lon="-0.29097">
        <ele>73.5</ele>
        <time>2011-04-03T08:40:45Z</time>
        <extensions>
          <type>
            <highway>track</highway>
            <surface>undefined</surface>
            </type>
        </extensions>
      </trkpt>
      <trkpt lat="47.30464" lon="-0.29107">
        <ele>72.5</ele>
        <time>2011-04-03T08:40:45.857Z</time>
      </trkpt>
      <trkpt lat="47.3047" lon="-0.29117">
        <ele>71.6</ele>
        <time>2011-04-03T08:40:46.778Z</time>
      </trkpt>
      <trkpt lat="47.30475" lon="-0.29127">
        <ele>70.8</ele>
        <time>2011-04-03T08:40:47.635Z</time>
      </trkpt>
      <trkpt lat="47.30481" lon="-0.29137">
        <ele>69.9</ele>
        <time>2011-04-03T08:40:48.557Z</time>
      </trkpt>
      <trkpt lat="47.30486" lon="-0.29146">
        <ele>68.8</ele>
        <time>2011-04-03T08:40:49.360Z</time>
      </trkpt>
      <trkpt lat="47.30491" lon="-0.29156">
        <ele>67.9</ele>
        <time>2011-04-03T08:40:50.218Z</time>
      </trkpt>
      <trkpt lat="47.30497" lon="-0.29166">
        <ele>67</ele>
        <time>2011-04-03T08:40:51.140Z</time>
      </trkpt>
      <trkpt lat="47.30502" lon="-0.29176">
        <ele>66.2</ele>
        <time>2011-04-03T08:40:51.998Z</time>
      </trkpt>
      <trkpt lat="47.30507" lon="-0.29186">
        <ele>65.3</ele>
        <time>2011-04-03T08:40:52.856Z</time>
      </trkpt>
      <trkpt lat="47.30513" lon="-0.29196">
        <ele>64.5</ele>
        <time>2011-04-03T08:40:53.778Z</time>
      </trkpt>
      <trkpt lat="47.30518" lon="-0.29206">
        <ele>64.2</ele>
        <time>2011-04-03T08:40:54.636Z</time>
      </trkpt>
      <trkpt lat="47.30524" lon="-0.29216">
        <ele>64</ele>
        <time>2011-04-03T08:40:55.558Z</time>
      </trkpt>
      <trkpt lat="47.30529" lon="-0.29225">
        <ele>63.9</ele>
        <time>2011-04-03T08:40:56.361Z</time>
      </trkpt>
      <trkpt lat="47.30534" lon="-0.29235">
        <ele>63.5</ele>
        <time>2011-04-03T08:40:57.219Z</time>
      </trkpt>
      <trkpt lat="47.3054" lon="-0.29245">
        <ele>63.5</ele>
        <time>2011-04-03T08:40:58.141Z</time>
      </trkpt>
      <trkpt lat="47.30545" lon="-0.29255">
        <ele>63.6</ele>
        <time>2011-04-03T08:40:59Z</time>
        <extensions>
          <type>
            <highway>secondary</highway>
            <surface>undefined</surface>
            </type>
        </extensions>
      </trkpt>
      <trkpt lat="47.3055" lon="-0.29256">
        <ele>63.8</ele>
        <time>2011-04-03T08:41:01Z</time>
        <extensions>
          <type>
            <highway>secondary</highway>
            <surface>undefined</surface>
            </type>
        </extensions>
      </trkpt>
      <trkpt lat="47.30558" lon="-0.2925">
        <ele>64</ele>
        <time>2011-04-03T08:41:03.574Z</time>
      </trkpt>
      <trkpt lat="47.30565" lon="-0.29243">
        <ele>63.8</ele>
        <time>2011-04-03T08:41:06Z</time>
        <extensions>
          <type>
            <highway>undefined</highway>
            <surface>undefined</surface>
            </type>
        </extensions>
      </trkpt>
      <trkpt lat="47.30569" lon="-0.29247">
        <ele>63.9</ele>
        <time>2011-04-03T08:41:08.319Z</time>
      </trkpt>
      <trkpt lat="47.30573" lon="-0.29251">
        <ele>64</ele>
        <time>2011-04-03T08:41:10.639Z</time>
      </trkpt>
      <trkpt lat="47.30576" lon="-0.29255">
        <ele>64.1</ele>
        <time>2011-04-03T08:41:12.580Z</time>
      </trkpt>
      <trkpt lat="47.3058" lon="-0.2926">
        <ele>64.3</ele>
        <time>2011-04-03T08:41:15.097Z</time>
      </trkpt>
      <trkpt lat="47.30584" lon="-0.29264">
        <ele>64.5</ele>
        <time>2011-04-03T08:41:17.417Z</time>
      </trkpt>
      <trkpt lat="47.30588" lon="-0.29268">
        <ele>64.9</ele>
        <time>2011-04-03T08:41:19.737Z</time>
      </trkpt>
      <trkpt lat="47.30591" lon="-0.29272">
        <ele>65.4</ele>
        <time>2011-04-03T08:41:21.679Z</time>
      </trkpt>
      <trkpt lat="47.30595" lon="-0.29276">
        <ele>65.8</ele>
        <time>2011-04-03T08:41:24Z</time>
        <extensions>
          <type>
            <highway>undefined</highway>
            <surface>undefined</surface>
            </type>
        </extensions>
      </trkpt>
      <trkpt lat="47.30598" lon="-0.29282">
        <ele>66.1</ele>
        <time>2011-04-03T08:41:26.020Z</time>
      </trkpt>
      <trkpt lat="47.30602" lon="-0.29288">
        <ele>66.4</ele>
        <time>2011-04-03T08:41:28.300Z</time>
      </trkpt>
      <trkpt lat="47.30605" lon="-0.29293">
        <ele>66.7</ele>
        <time>2011-04-03T08:41:30.109Z</time>
      </trkpt>
      <trkpt lat="47.30608" lon="-0.29299">
        <ele>66.9</ele>
        <time>2011-04-03T08:41:32.129Z</time>
      </trkpt>
      <trkpt lat="47.30612" lon="-0.29305">
        <ele>67</ele>
        <time>2011-04-03T08:41:34.410Z</time>
      </trkpt>
      <trkpt lat="47.30615" lon="-0.29311">
        <ele>67.5</ele>
        <time>2011-04-03T08:41:36.431Z</time>
      </trkpt>
      <trkpt lat="47.30618" lon="-0.29317">
        <ele>67.9</ele>
        <time>2011-04-03T08:41:38.452Z</time>
      </trkpt>
      <trkpt lat="47.30622" lon="-0.29323">
        <ele>68.4</ele>
        <time>2011-04-03T08:41:40.733Z</time>
      </trkpt>
      <trkpt lat="47.30625" lon="-0.29328">
        <ele>68.8</ele>
        <time>2011-04-03T08:41:42.543Z</time>
      </trkpt>
      <trkpt lat="47.30628" lon="-0.29334">
        <ele>69.2</ele>
        <time>2011-04-03T08:41:44.564Z</time>
      </trkpt>
      <trkpt lat="47.30631" lon="-0.2934">
        <ele>69.5</ele>
        <time>2011-04-03T08:41:46.585Z</time>
      </trkpt>
      <trkpt lat="47.30635" lon="-0.29346">
        <ele>69.8</ele>
        <time>2011-04-03T08:41:48.866Z</time>
      </trkpt>
      <trkpt lat="47.30638" lon="-0.29352">
        <ele>70</ele>
        <time>2011-04-03T08:41:50.887Z</time>
      </trkpt>
      <trkpt lat="47.30641" lon="-0.29357">
        <ele>70.2</ele>
        <time>2011-04-03T08:41:52.697Z</time>
      </trkpt>
      <trkpt lat="47.30645" lon="-0.29363">
        <ele>70.5</ele>
        <time>2011-04-03T08:41:54.978Z</time>
      </trkpt>
      <trkpt lat="47.30648" lon="-0.29369">
        <ele>70.9</ele>
        <time>2011-04-03T08:41:57Z</time>
        <extensions>
          <type>
            <highway>undefined</highway>
            <surface>undefined</surface>
            </type>
        </extensions>
      </trkpt>
      <trkpt lat="47.30652" lon="-0.29374">
        <ele>71.4</ele>
        <time>2011-04-03T08:41:58.927Z</time>
      </trkpt>
      <trkpt lat="47.30656" lon="-0.29378">
        <ele>71.8</ele>
        <time>2011-04-03T08:42:00.703Z</time>
      </trkpt>
      <trkpt lat="47.30659" lon="-0.29383">
        <ele>72.3</ele>
        <time>2011-04-03T08:42:02.366Z</time>
      </trkpt>
      <trkpt lat="47.30663" lon="-0.29388">
        <ele>72.7</ele>
        <time>2011-04-03T08:42:04.293Z</time>
      </trkpt>
      <trkpt lat="47.30667" lon="-0.29392">
        <ele>73.1</ele>
        <time>2011-04-03T08:42:06.069Z</time>
      </trkpt>
      <trkpt lat="47.30671" lon="-0.29397">
        <ele>73.6</ele>
        <time>2011-04-03T08:42:07.996Z</time>
      </trkpt>
      <trkpt lat="47.30674" lon="-0.29402">
        <ele>74</ele>
        <time>2011-04-03T08:42:09.660Z</time>
      </trkpt>
      <trkpt lat="47.30678" lon="-0.29407">
        <ele>74.5</ele>
        <time>2011-04-03T08:42:11.587Z</time>
      </trkpt>
      <trkpt lat="47.30682" lon="-0.29411">
        <ele>74.9</ele>
        <time>2011-04-03T08:42:13.363Z</time>
      </trkpt>
      <trkpt lat="47.30686" lon="-0.29416">
        <ele>75.3</ele>
        <time>2011-04-03T08:42:15.290Z</time>
      </trkpt>
      <trkpt lat="47.30689" lon="-0.29421">
        <ele>75.9</ele>
        <time>2011-04-03T08:42:16.954Z</time>
      </trkpt>
      <trkpt lat="47.30693" lon="-0.29425">
        <ele>76.5</ele>
        <time>2011-04-03T08:42:18.730Z</time>
      </trkpt>
      <trkpt lat="47.30697" lon="-0.2943">
        <ele>77.2</ele>
        <time>2011-04-03T08:42:20.657Z</time>
      </trkpt>
      <trkpt lat="47.30701" lon="-0.29435">
        <ele>77.9</ele>
        <time>2011-04-03T08:42:22.584Z</time>
      </trkpt>
      <trkpt lat="47.30704" lon="-0.29439">
        <ele>78.7</ele>
        <time>2011-04-03T08:42:24.071Z</time>
      </trkpt>
      <trkpt lat="47.30708" lon="-0.29444">
        <ele>79.4</ele>
        <time>2011-04-03T08:42:26Z</time>
        <extensions>
          <type>
            <highway>undefined</highway>
            <surface>undefined</surface>
            </type>
        </extensions>
      </trkpt>
      <trkpt lat="47.30713" lon="-0.29453">
        <ele>80.5</ele>
        <time>2011-04-03T08:42:30.114Z</time>
      </trkpt>
      <trkpt lat="47.30718" lon="-0.29462">
        <ele>81.7</ele>
        <time>2011-04-03T08:42:34.228Z</time>
      </trkpt>
      <trkpt lat="47.30723" lon="-0.29471">
        <ele>83</ele>
        <time>2011-04-03T08:42:38.343Z</time>
      </trkpt>
      <trkpt lat="47.30729" lon="-0.2948">
        <ele>83.7</ele>
        <time>2011-04-03T08:42:42.806Z</time>
      </trkpt>
      <trkpt lat="47.30734" lon="-0.29488">
        <ele>84.4</ele>
        <time>2011-04-03T08:42:46.654Z</time>
      </trkpt>
      <trkpt lat="47.30739" lon="-0.29497">
        <ele>85.1</ele>
        <time>2011-04-03T08:42:50.769Z</time>
      </trkpt>
      <trkpt lat="47.30744" lon="-0.29506">
        <ele>85.8</ele>
        <time>2011-04-03T08:42:54.884Z</time>
      </trkpt>
      <trkpt lat="47.30749" lon="-0.29515">
        <ele>86.5</ele>
        <time>2011-04-03T08:42:59Z</time>
        <extensions>
          <type>
            <highway>undefined</highway>
            <surface>undefined</surface>
            </type>
        </extensions>
      </trkpt>
      <trkpt lat="47.30752" lon="-0.29525">
        <ele>87</ele>
        <time>2011-04-03T08:43:02.500Z</time>
      </trkpt>
      <trkpt lat="47.30755" lon="-0.29535">
        <ele>87.6</ele>
        <time>2011-04-03T08:43:06Z</time>
        <extensions>
          <type>
            <highway>undefined</highway>
            <surface>undefined</surface>
            </type>
        </extensions>
      </trkpt>
      <trkpt lat="47.30755" lon="-0.29542">
        <ele>87.8</ele>
        <time>2011-04-03T08:43:07.735Z</time>
      </trkpt>
      <trkpt lat="47.30754" lon="-0.29549">
        <ele>88.1</ele>
        <time>2011-04-03T08:43:09.508Z</time>
      </trkpt>
      <trkpt lat="47.30754" lon="-0.29556">
        <ele>88.3</ele>
        <time>2011-04-03T08:43:11.243Z</time>
      </trkpt>
      <trkpt lat="47.30754" lon="-0.29563">
        <ele>88.5</ele>
        <time>2011-04-03T08:43:12.979Z</time>
      </trkpt>
      <trkpt lat="47.30753" lon="-0.2957">
        <ele>88.7</ele>
        <time>2011-04-03T08:43:14.753Z</time>
      </trkpt>
      <trkpt lat="47.30753" lon="-0.29577">
        <ele>88.9</ele>
        <time>2011-04-03T08:43:16.489Z</time>
      </trkpt>
      <trkpt lat="47.30752" lon="-0.29584">
        <ele>89.1</ele>
        <time>2011-04-03T08:43:18.263Z</time>
      </trkpt>
      <trkpt lat="47.30752" lon="-0.29591">
        <ele>89.3</ele>
        <time>2011-04-03T08:43:20Z</time>
        <extensions>
          <type>
            <highway>undefined</highway>
            <surface>undefined</surface>
            </type>
        </extensions>
      </trkpt>
      <trkpt lat="47.30751" lon="-0.29598">
        <ele>89.6</ele>
        <time>2011-04-03T08:43:21.309Z</time>
      </trkpt>
      <trkpt lat="47.3075" lon="-0.29606">
        <ele>89.8</ele>
        <time>2011-04-03T08:43:22.797Z</time>
      </trkpt>
      <trkpt lat="47.30749" lon="-0.29613">
        <ele>90</ele>
        <time>2011-04-03T08:43:24.106Z</time>
      </trkpt>
      <trkpt lat="47.30748" lon="-0.2962">
        <ele>90.2</ele>
        <time>2011-04-03T08:43:25.415Z</time>
      </trkpt>
      <trkpt lat="47.30746" lon="-0.29628">
        <ele>90.4</ele>
        <time>2011-04-03T08:43:26.975Z</time>
      </trkpt>
      <trkpt lat="47.30745" lon="-0.29635">
        <ele>90.5</ele>
        <time>2011-04-03T08:43:28.284Z</time>
      </trkpt>
      <trkpt lat="47.30744" lon="-0.29642">
        <ele>90.7</ele>
        <time>2011-04-03T08:43:29.593Z</time>
      </trkpt>
      <trkpt lat="47.30743" lon="-0.2965">
        <ele>90.9</ele>
        <time>2011-04-03T08:43:31.082Z</time>
      </trkpt>
      <trkpt lat="47.30742" lon="-0.29657">
        <ele>91.1</ele>
        <time>2011-04-03T08:43:32.391Z</time>
      </trkpt>
      <trkpt lat="47.30741" lon="-0.29664">
        <ele>91.2</ele>
        <time>2011-04-03T08:43:33.700Z</time>
      </trkpt>
      <trkpt lat="47.3074" lon="-0.29671">
        <ele>91.3</ele>
        <time>2011-04-03T08:43:35.009Z</time>
      </trkpt>
      <trkpt lat="47.30739" lon="-0.29679">
        <ele>91.4</ele>
        <time>2011-04-03T08:43:36.498Z</time>
      </trkpt>
      <trkpt lat="47.30737" lon="-0.29686">
        <ele>91.4</ele>
        <time>2011-04-03T08:43:37.889Z</time>
      </trkpt>
      <trkpt lat="47.30736" lon="-0.29693">
        <ele>91.5</ele>
        <time>2011-04-03T08:43:39.199Z</time>
      </trkpt>
      <trkpt lat="47.30735" lon="-0.29701">
        <ele>91.5</ele>
        <time>2011-04-03T08:43:40.689Z</time>
      </trkpt>
      <trkpt lat="47.30734" lon="-0.29708">
        <ele>91.4</ele>
        <time>2011-04-03T08:43:42Z</time>
        <extensions>
          <type>
            <highway>undefined</highway>
            <surface>undefined</surface>
            </type>
        </extensions>
      </trkpt>
      <trkpt lat="47.30734" lon="-0.2972">
        <ele>91.4</ele>
        <time>2011-04-03T08:43:44.078Z</time>
      </trkpt>
      <trkpt lat="47.30733" lon="-0.29731">
        <ele>91.6</ele>
        <time>2011-04-03T08:43:45.999Z</time>
      </trkpt>
      <trkpt lat="47.30733" lon="-0.29743">
        <ele>91.8</ele>
        <time>2011-04-03T08:43:48.077Z</time>
      </trkpt>
      <trkpt lat="47.30732" lon="-0.29754">
        <ele>91.9</ele>
        <time>2011-04-03T08:43:50Z</time>
        <extensions>
          <type>
            <highway>track</highway>
            <surface>undefined</surface>
            </type>
        </extensions>
      </trkpt>
      <trkpt lat="47.30731" lon="-0.29764">
        <ele>91.8</ele>
        <time>2011-04-03T08:43:51.571Z</time>
      </trkpt>
      <trkpt lat="47.3073" lon="-0.29773">
        <ele>91.8</ele>
        <time>2011-04-03T08:43:52.988Z</time>
      </trkpt>
      <trkpt lat="47.30728" lon="-0.29783">
        <ele>91.7</ele>
        <time>2011-04-03T08:43:54.608Z</time>
      </trkpt>
      <trkpt lat="47.30727" lon="-0.29793">
        <ele>91.7</ele>
        <time>2011-04-03T08:43:56.179Z</time>
      </trkpt>
      <trkpt lat="47.30726" lon="-0.29802">
        <ele>91.8</ele>
        <time>2011-04-03T08:43:57.596Z</time>
      </trkpt>
      <trkpt lat="47.30725" lon="-0.29812">
        <ele>91.6</ele>
        <time>2011-04-03T08:43:59.167Z</time>
      </trkpt>
      <trkpt lat="47.30723" lon="-0.29822">
        <ele>91.4</ele>
        <time>2011-04-03T08:44:00.787Z</time>
      </trkpt>
      <trkpt lat="47.30722" lon="-0.29831">
        <ele>91.1</ele>
        <time>2011-04-03T08:44:02.204Z</time>
      </trkpt>
      <trkpt lat="47.30721" lon="-0.29841">
        <ele>90.8</ele>
        <time>2011-04-03T08:44:03.775Z</time>
      </trkpt>
      <trkpt lat="47.3072" lon="-0.29851">
        <ele>90.5</ele>
        <time>2011-04-03T08:44:05.346Z</time>
      </trkpt>
      <trkpt lat="47.30718" lon="-0.2986">
        <ele>90.3</ele>
        <time>2011-04-03T08:44:06.818Z</time>
      </trkpt>
      <trkpt lat="47.30717" lon="-0.2987">
        <ele>90.3</ele>
        <time>2011-04-03T08:44:08.389Z</time>
      </trkpt>
      <trkpt lat="47.30716" lon="-0.2988">
        <ele>90.3</ele>
        <time>2011-04-03T08:44:09.960Z</time>
      </trkpt>
      <trkpt lat="47.30715" lon="-0.29889">
        <ele>90.3</ele>
        <time>2011-04-03T08:44:11.378Z</time>
      </trkpt>
      <trkpt lat="47.30713" lon="-0.29899">
        <ele>90.1</ele>
        <time>2011-04-03T08:44:12.999Z</time>
      </trkpt>
      <trkpt lat="47.30712" lon="-0.29909">
        <ele>89.9</ele>
        <time>2011-04-03T08:44:14.570Z</time>
      </trkpt>
      <trkpt lat="47.30711" lon="-0.29918">
        <ele>89.8</ele>
        <time>2011-04-03T08:44:15.988Z</time>
      </trkpt>
      <trkpt lat="47.3071" lon="-0.29928">
        <ele>89.9</ele>
        <time>2011-04-03T08:44:17.559Z</time>
      </trkpt>
      <trkpt lat="47.30708" lon="-0.29938">
        <ele>90</ele>
        <time>2011-04-03T08:44:19.180Z</time>
      </trkpt>
      <trkpt lat="47.30707" lon="-0.29947">
        <ele>90.1</ele>
        <time>2011-04-03T08:44:20.598Z</time>
      </trkpt>
      <trkpt lat="47.30706" lon="-0.29957">
        <ele>90.1</ele>
        <time>2011-04-03T08:44:22.169Z</time>
      </trkpt>
      <trkpt lat="47.30705" lon="-0.29966">
        <ele>90.1</ele>
        <time>2011-04-03T08:44:23.587Z</time>
      </trkpt>
      <trkpt lat="47.30703" lon="-0.29976">
        <ele>90.1</ele>
        <time>2011-04-03T08:44:25.208Z</time>
      </trkpt>
      <trkpt lat="47.30702" lon="-0.29986">
        <ele>90.5</ele>
        <time>2011-04-03T08:44:26.780Z</time>
      </trkpt>
      <trkpt lat="47.30701" lon="-0.29995">
        <ele>90.8</ele>
        <time>2011-04-03T08:44:28.198Z</time>
      </trkpt>
      <trkpt lat="47.307" lon="-0.30005">
        <ele>91.2</ele>
        <time>2011-04-03T08:44:29.770Z</time>
      </trkpt>
      <trkpt lat="47.30698" lon="-0.30015">
        <ele>91.5</ele>
        <time>2011-04-03T08:44:31.391Z</time>
      </trkpt>
      <trkpt lat="47.30697" lon="-0.30024">
        <ele>91.8</ele>
        <time>2011-04-03T08:44:32.809Z</time>
      </trkpt>
      <trkpt lat="47.30696" lon="-0.30034">
        <ele>92</ele>
        <time>2011-04-03T08:44:34.381Z</time>
      </trkpt>
      <trkpt lat="47.30695" lon="-0.30044">
        <ele>92</ele>
        <time>2011-04-03T08:44:35.953Z</time>
      </trkpt>
      <trkpt lat="47.30693" lon="-0.30053">
        <ele>92</ele>
        <time>2011-04-03T08:44:37.426Z</time>
      </trkpt>
      <trkpt lat="47.30692" lon="-0.30063">
        <ele>92.3</ele>
        <time>2011-04-03T08:44:39Z</time>
        <extensions>
          <type>
            <highway>track</highway>
            <surface>undefined</surface>
            </type>
        </extensions>
      </trkpt>
      <trkpt lat="47.30692" lon="-0.30072">
        <ele>92.6</ele>
        <time>2011-04-03T08:44:41.000Z</time>
      </trkpt>
      <trkpt lat="47.30692" lon="-0.30081">
        <ele>92.9</ele>
        <time>2011-04-03T08:44:43.000Z</time>
      </trkpt>
      <trkpt lat="47.30692" lon="-0.3009">
        <ele>93.2</ele>
        <time>2011-04-03T08:44:45.000Z</time>
      </trkpt>
      <trkpt lat="47.30692" lon="-0.30099">
        <ele>93.6</ele>
        <time>2011-04-03T08:44:47Z</time>
        <extensions>
          <type>
            <highway>track</highway>
            <surface>undefined</surface>
            </type>
        </extensions>
      </trkpt>
      <trkpt lat="47.30697" lon="-0.30092">
        <ele>93.2</ele>
        <time>2011-04-03T08:44:48.992Z</time>
      </trkpt>
      <trkpt lat="47.30701" lon="-0.30085">
        <ele>92.8</ele>
        <time>2011-04-03T08:44:50.785Z</time>
      </trkpt>
      <trkpt lat="47.30706" lon="-0.30078">
        <ele>92.5</ele>
        <time>2011-04-03T08:44:52.777Z</time>
      </trkpt>
      <trkpt lat="47.3071" lon="-0.30072">
        <ele>92.3</ele>
        <time>2011-04-03T08:44:54.426Z</time>
      </trkpt>
      <trkpt lat="47.30715" lon="-0.30065">
        <ele>92.1</ele>
        <time>2011-04-03T08:44:56.418Z</time>
      </trkpt>
      <trkpt lat="47.30719" lon="-0.30058">
        <ele>92</ele>
        <time>2011-04-03T08:44:58.212Z</time>
      </trkpt>
      <trkpt lat="47.30724" lon="-0.30051">
        <ele>91.7</ele>
        <time>2011-04-03T08:45:00.205Z</time>
      </trkpt>
      <trkpt lat="47.30728" lon="-0.30044">
        <ele>91.3</ele>
        <time>2011-04-03T08:45:02Z</time>
        <extensions>
          <type>
            <highway>track</highway>
            <surface>undefined</surface>
            </type>
        </extensions>
      </trkpt>
      <trkpt lat="47.30735" lon="-0.30037">
        <ele>90.7</ele>
        <time>2011-04-03T08:45:03.587Z</time>
      </trkpt>
      <trkpt lat="47.30742" lon="-0.30029">
        <ele>90.3</ele>
        <time>2011-04-03T08:45:05.249Z</time>
      </trkpt>
      <trkpt lat="47.30749" lon="-0.30022">
        <ele>90</ele>
        <time>2011-04-03T08:45:06.836Z</time>
      </trkpt>
      <trkpt lat="47.30756" lon="-0.30014">
        <ele>89.9</ele>
        <time>2011-04-03T08:45:08.498Z</time>
      </trkpt>
      <trkpt lat="47.30763" lon="-0.30007">
        <ele>89.9</ele>
        <time>2011-04-03T08:45:10.086Z</time>
      </trkpt>
      <trkpt lat="47.3077" lon="-0.29999">
        <ele>90</ele>
        <time>2011-04-03T08:45:11.748Z</time>
      </trkpt>
      <trkpt lat="47.30777" lon="-0.29992">
        <ele>90</ele>
        <time>2011-04-03T08:45:13.336Z</time>
      </trkpt>
      <trkpt lat="47.30784" lon="-0.29984">
        <ele>89.9</ele>
        <time>2011-04-03T08:45:15Z</time>
        <extensions>
          <type>
            <highway>track</highway>
            <surface>undefined</surface>
            </type>
        </extensions>
      </trkpt>
      <trkpt lat="47.30791" lon="-0.29982">
        <ele>89.8</ele>
        <time>2011-04-03T08:45:16.151Z</time>
      </trkpt>
      <trkpt lat="47.30798" lon="-0.29979">
        <ele>89.8</ele>
        <time>2011-04-03T08:45:17.328Z</time>
      </trkpt>
      <trkpt lat="47.30804" lon="-0.29977">
        <ele>89.9</ele>
        <time>2011-04-03T08:45:18.321Z</time>
      </trkpt>
      <trkpt lat="47.30811" lon="-0.29974">
        <ele>89.3</ele>
        <time>2011-04-03T08:45:19.498Z</time>
      </trkpt>
      <trkpt lat="47.30818" lon="-0.29972">
        <ele>88.7</ele>
        <time>2011-04-03T08:45:20.650Z</time>
      </trkpt>
      <trkpt lat="47.30825" lon="-0.29969">
        <ele>88</ele>
        <time>2011-04-03T08:45:21.827Z</time>
      </trkpt>
      <trkpt lat="47.30831" lon="-0.29967">
        <ele>87.2</ele>
        <time>2011-04-03T08:45:22.821Z</time>
      </trkpt>
      <trkpt lat="47.30838" lon="-0.29964">
        <ele>86.2</ele>
        <time>2011-04-03T08:45:24Z</time>
        <extensions>
          <type>
            <highway>track</highway>
            <surface>undefined</surface>
            </type>
        </extensions>
      </trkpt>
      <trkpt lat="47.30845" lon="-0.29964">
        <ele>85</ele>
        <time>2011-04-03T08:45:24.775Z</time>
      </trkpt>
      <trkpt lat="47.30852" lon="-0.29963">
        <ele>83.7</ele>
        <time>2011-04-03T08:45:25.554Z</time>
      </trkpt>
      <trkpt lat="47.30858" lon="-0.29963">
        <ele>82.5</ele>
        <time>2011-04-03T08:45:26.219Z</time>
      </trkpt>
      <trkpt lat="47.30865" lon="-0.29962">
        <ele>81.1</ele>
        <time>2011-04-03T08:45:27Z</time>
        <extensions>
          <type>
            <highway>track</highway>
            <surface>undefined</surface>
            </type>
        </extensions>
      </trkpt>
      <trkpt lat="47.30873" lon="-0.29967">
        <ele>79.4</ele>
        <time>2011-04-03T08:45:28.000Z</time>
      </trkpt>
      <trkpt lat="47.30881" lon="-0.29972">
        <ele>77.7</ele>
        <time>2011-04-03T08:45:29Z</time>
        <extensions>
          <type>
            <highway>track</highway>
            <surface>undefined</surface>
            </type>
        </extensions>
      </trkpt>
      <trkpt lat="47.30885" lon="-0.29977">
        <ele>77</ele>
        <time>2011-04-03T08:45:29.564Z</time>
      </trkpt>
      <trkpt lat="47.30888" lon="-0.29981">
        <ele>76.5</ele>
        <time>2011-04-03T08:45:29.999Z</time>
      </trkpt>
      <trkpt lat="47.30892" lon="-0.29986">
        <ele>76</ele>
        <time>2011-04-03T08:45:30.564Z</time>
      </trkpt>
      <trkpt lat="47.30895" lon="-0.2999">
        <ele>75.5</ele>
        <time>2011-04-03T08:45:31Z</time>
        <extensions>
          <type>
            <highway>track</highway>
            <surface>undefined</surface>
            </type>
        </extensions>
      </trkpt>
      <trkpt lat="47.30898" lon="-0.29996">
        <ele>75.3</ele>
        <time>2011-04-03T08:45:31.486Z</time>
      </trkpt>
      <trkpt lat="47.309" lon="-0.30001">
        <ele>75</ele>
        <time>2011-04-03T08:45:31.864Z</time>
      </trkpt>
      <trkpt lat="47.30903" lon="-0.30007">
        <ele>74.5</ele>
        <time>2011-04-03T08:45:32.350Z</time>
      </trkpt>
      <trkpt lat="47.30905" lon="-0.30012">
        <ele>74.2</ele>
        <time>2011-04-03T08:45:32.728Z</time>
      </trkpt>
      <trkpt lat="47.30908" lon="-0.30018">
        <ele>73.9</ele>
        <time>2011-04-03T08:45:33.214Z</time>
      </trkpt>
      <trkpt lat="47.3091" lon="-0.30023">
        <ele>73.6</ele>
        <time>2011-04-03T08:45:33.592Z</time>
      </trkpt>
      <trkpt lat="47.30913" lon="-0.30029">
        <ele>73.4</ele>
        <time>2011-04-03T08:45:34.078Z</time>
      </trkpt>
      <trkpt lat="47.30915" lon="-0.30035">
        <ele>73.2</ele>
        <time>2011-04-03T08:45:34.514Z</time>
      </trkpt>
      <trkpt lat="47.30918" lon="-0.3004">
        <ele>72.9</ele>
        <time>2011-04-03T08:45:34.949Z</time>
      </trkpt>
      <trkpt lat="47.3092" lon="-0.30046">
        <ele>72.7</ele>
        <time>2011-04-03T08:45:35.385Z</time>
      </trkpt>
      <trkpt lat="47.30923" lon="-0.30051">
        <ele>72.5</ele>
        <time>2011-04-03T08:45:35.820Z</time>
      </trkpt>
      <trkpt lat="47.30925" lon="-0.30057">
        <ele>72.4</ele>
        <time>2011-04-03T08:45:36.256Z</time>
      </trkpt>
      <trkpt lat="47.30928" lon="-0.30062">
        <ele>72.5</ele>
        <time>2011-04-03T08:45:36.691Z</time>
      </trkpt>
      <trkpt lat="47.3093" lon="-0.30068">
        <ele>72.5</ele>
        <time>2011-04-03T08:45:37.127Z</time>
      </trkpt>
      <trkpt lat="47.30933" lon="-0.30073">
        <ele>72.5</ele>
        <time>2011-04-03T08:45:37.563Z</time>
      </trkpt>
      <trkpt lat="47.30935" lon="-0.30079">
        <ele>72.5</ele>
        <time>2011-04-03T08:45:38Z</time>
        <extensions>
          <type>
            <highway>track</highway>
            <surface>undefined</surface>
            </type>
        </extensions>
      </trkpt>
      <trkpt lat="47.3094" lon="-0.30085">
        <ele>72.4</ele>
        <time>2011-04-03T08:45:38.727Z</time>
      </trkpt>
      <trkpt lat="47.30946" lon="-0.30091">
        <ele>72.3</ele>
        <time>2011-04-03T08:45:39.545Z</time>
      </trkpt>
      <trkpt lat="47.30951" lon="-0.30097">
        <ele>72.5</ele>
        <time>2011-04-03T08:45:40.272Z</time>
      </trkpt>
      <trkpt lat="47.30956" lon="-0.30103">
        <ele>72.7</ele>
        <time>2011-04-03T08:45:41Z</time>
        <extensions>
          <type>
            <highway>track</highway>
            <surface>undefined</surface>
            </type>
        </extensions>
      </trkpt>
      <trkpt lat="47.30962" lon="-0.30106">
        <ele>72.8</ele>
        <time>2011-04-03T08:45:41.750Z</time>
      </trkpt>
      <trkpt lat="47.30968" lon="-0.30109">
        <ele>72.9</ele>
        <time>2011-04-03T08:45:42.500Z</time>
      </trkpt>
      <trkpt lat="47.30974" lon="-0.30112">
        <ele>73.1</ele>
        <time>2011-04-03T08:45:43.250Z</time>
      </trkpt>
      <trkpt lat="47.3098" lon="-0.30115">
        <ele>73.6</ele>
        <time>2011-04-03T08:45:44Z</time>
        <extensions>
          <type>
            <highway>track</highway>
            <surface>undefined</surface>
            </type>
        </extensions>
      </trkpt>
      <trkpt lat="47.30985" lon="-0.30121">
        <ele>73.9</ele>
        <time>2011-04-03T08:45:45.032Z</time>
      </trkpt>
      <trkpt lat="47.3099" lon="-0.30126">
        <ele>74.3</ele>
        <time>2011-04-03T08:45:46Z</time>
        <extensions>
          <type>
            <highway>track</highway>
            <surface>undefined</surface>
            </type>
        </extensions>
      </trkpt>
      <trkpt lat="47.30994" lon="-0.30134">
        <ele>74.6</ele>
        <time>2011-04-03T08:45:47.124Z</time>
      </trkpt>
      <trkpt lat="47.30998" lon="-0.30142">
        <ele>74.7</ele>
        <time>2011-04-03T08:45:48.248Z</time>
      </trkpt>
      <trkpt lat="47.31002" lon="-0.3015">
        <ele>74.8</ele>
        <time>2011-04-03T08:45:49.372Z</time>
      </trkpt>
      <trkpt lat="47.31006" lon="-0.30159">
        <ele>74.9</ele>
        <time>2011-04-03T08:45:50.590Z</time>
      </trkpt>
      <trkpt lat="47.31009" lon="-0.30167">
        <ele>75</ele>
        <time>2011-04-03T08:45:51.624Z</time>
      </trkpt>
      <trkpt lat="47.31013" lon="-0.30175">
        <ele>75.4</ele>
        <time>2011-04-03T08:45:52.749Z</time>
      </trkpt>
      <trkpt lat="47.31017" lon="-0.30183">
        <ele>75.7</ele>
        <time>2011-04-03T08:45:53.874Z</time>
      </trkpt>
      <trkpt lat="47.31021" lon="-0.30191">
        <ele>75.8</ele>
        <time>2011-04-03T08:45:55Z</time>
        <extensions>
          <type>
            <highway>track</highway>
            <surface>undefined</surface>
            </type>
        </extensions>
      </trkpt>
      <trkpt lat="47.31024" lon="-0.30202">
        <ele>75.9</ele>
        <time>2011-04-03T08:45:56.560Z</time>
      </trkpt>
      <trkpt lat="47.31027" lon="-0.30212">
        <ele>76</ele>
        <time>2011-04-03T08:45:57.999Z</time>
      </trkpt>
      <trkpt lat="47.3103" lon="-0.30223">
        <ele>76.2</ele>
        <time>2011-04-03T08:45:59.560Z</time>
      </trkpt>
      <trkpt lat="47.31033" lon="-0.30233">
        <ele>77.2</ele>
        <time>2011-04-03T08:46:01Z</time>
        <extensions>
          <type>
            <highway>track</highway>
            <surface>undefined</surface>
            </type>
        </extensions>
      </trkpt>
      <trkpt lat="47.31038" lon="-0.30238">
        <ele>77.9</ele>
        <time>2011-04-03T08:46:02.448Z</time>
      </trkpt>
      <trkpt lat="47.31044" lon="-0.30243">
        <ele>78.6</ele>
        <time>2011-04-03T08:46:04.101Z</time>
      </trkpt>
      <trkpt lat="47.31049" lon="-0.30248">
        <ele>79.4</ele>
        <time>2011-04-03T08:46:05.550Z</time>
      </trkpt>
      <trkpt lat="47.31054" lon="-0.30253">
        <ele>80</ele>
        <time>2011-04-03T08:46:07Z</time>
        <extensions>
          <type>
            <highway>track</highway>
            <surface>undefined</surface>
            </type>
        </extensions>
      </trkpt>
      <trkpt lat="47.31059" lon="-0.30256">
        <ele>80.4</ele>
        <time>2011-04-03T08:46:08.681Z</time>
      </trkpt>
      <trkpt lat="47.31064" lon="-0.3026">
        <ele>80.8</ele>
        <time>2011-04-03T08:46:10.452Z</time>
      </trkpt>
      <trkpt lat="47.31069" lon="-0.30263">
        <ele>81.2</ele>
        <time>2011-04-03T08:46:12.133Z</time>
      </trkpt>
      <trkpt lat="47.31075" lon="-0.30267">
        <ele>81.7</ele>
        <time>2011-04-03T08:46:14.184Z</time>
      </trkpt>
      <trkpt lat="47.3108" lon="-0.3027">
        <ele>82.2</ele>
        <time>2011-04-03T08:46:15.865Z</time>
      </trkpt>
      <trkpt lat="47.31085" lon="-0.30273">
        <ele>82.7</ele>
        <time>2011-04-03T08:46:17.546Z</time>
      </trkpt>
      <trkpt lat="47.3109" lon="-0.30277">
        <ele>83.2</ele>
        <time>2011-04-03T08:46:19.318Z</time>
      </trkpt>
      <trkpt lat="47.31095" lon="-0.3028">
        <ele>83.6</ele>
        <time>2011-04-03T08:46:21Z</time>
        <extensions>
          <type>
            <highway>track</highway>
            <surface>undefined</surface>
            </type>
        </extensions>
      </trkpt>
      <trkpt lat="47.31102" lon="-0.30283">
        <ele>84.2</ele>
        <time>2011-04-03T08:46:22.938Z</time>
      </trkpt>
      <trkpt lat="47.31109" lon="-0.30286">
        <ele>84.8</ele>
        <time>2011-04-03T08:46:24.876Z</time>
      </trkpt>
      <trkpt lat="47.31115" lon="-0.30289">
        <ele>85.3</ele>
        <time>2011-04-03T08:46:26.560Z</time>
      </trkpt>
      <trkpt lat="47.31122" lon="-0.30292">
        <ele>85.7</ele>
        <time>2011-04-03T08:46:28.498Z</time>
      </trkpt>
      <trkpt lat="47.31129" lon="-0.30295">
        <ele>86.1</ele>
        <time>2011-04-03T08:46:30.436Z</time>
      </trkpt>
      <trkpt lat="47.31136" lon="-0.30298">
        <ele>86.4</ele>
        <time>2011-04-03T08:46:32.375Z</time>
      </trkpt>
      <trkpt lat="47.31142" lon="-0.30301">
        <ele>86.8</ele>
        <time>2011-04-03T08:46:34.060Z</time>
      </trkpt>
      <trkpt lat="47.31149" lon="-0.30304">
        <ele>87.3</ele>
        <time>2011-04-03T08:46:36Z</time>
        <extensions>
          <type>
            <highway>track</highway>
            <surface>undefined</surface>
            </type>
        </extensions>
      </trkpt>
      <trkpt lat="47.31154" lon="-0.30302">
        <ele>87.3</ele>
        <time>2011-04-03T08:46:37.239Z</time>
      </trkpt>
      <trkpt lat="47.31158" lon="-0.303">
        <ele>87.3</ele>
        <time>2011-04-03T08:46:38.249Z</time>
      </trkpt>
      <trkpt lat="47.31163" lon="-0.30298">
        <ele>87.3</ele>
        <time>2011-04-03T08:46:39.488Z</time>
      </trkpt>
      <trkpt lat="47.31167" lon="-0.30296">
        <ele>87.3</ele>
        <time>2011-04-03T08:46:40.498Z</time>
      </trkpt>
      <trkpt lat="47.31172" lon="-0.30294">
        <ele>87.3</ele>
        <time>2011-04-03T08:46:41.738Z</time>
      </trkpt>
      <trkpt lat="47.31176" lon="-0.30292">
        <ele>87.4</ele>
        <time>2011-04-03T08:46:42.748Z</time>
      </trkpt>
      <trkpt lat="47.31181" lon="-0.3029">
        <ele>87.4</ele>
        <time>2011-04-03T08:46:43.988Z</time>
      </trkpt>
      <trkpt lat="47.31185" lon="-0.30288">
        <ele>87.4</ele>
        <time>2011-04-03T08:46:45Z</time>
        <extensions>
          <type>
            <highway>track</highway>
            <surface>undefined</surface>
            </type>
        </extensions>
      </trkpt>
      <trkpt lat="47.3119" lon="-0.30282">
        <ele>87.2</ele>
        <time>2011-04-03T08:46:46.454Z</time>
      </trkpt>
      <trkpt lat="47.31196" lon="-0.30276">
        <ele>87</ele>
        <time>2011-04-03T08:46:48.090Z</time>
      </trkpt>
      <trkpt lat="47.31201" lon="-0.3027">
        <ele>87.2</ele>
        <time>2011-04-03T08:46:49.544Z</time>
      </trkpt>
      <trkpt lat="47.31206" lon="-0.30264">
        <ele>87.3</ele>
        <time>2011-04-03T08:46:50.998Z</time>
      </trkpt>
      <trkpt lat="47.31211" lon="-0.30258">
        <ele>87.5</ele>
        <time>2011-04-03T08:46:52.453Z</time>
      </trkpt>
      <trkpt lat="47.31217" lon="-0.30252">
        <ele>87.7</ele>
        <time>2011-04-03T08:46:54.089Z</time>
      </trkpt>
      <trkpt lat="47.31222" lon="-0.30246">
        <ele>88</ele>
        <time>2011-04-03T08:46:55.544Z</time>
      </trkpt>
      <trkpt lat="47.31227" lon="-0.3024">
        <ele>88.3</ele>
        <time>2011-04-03T08:46:57Z</time>
        <extensions>
          <type>
            <highway>track</highway>
            <surface>undefined</surface>
            </type>
        </extensions>
      </trkpt>
      <trkpt lat="47.31233" lon="-0.30237">
        <ele>88.6</ele>
        <time>2011-04-03T08:46:58.580Z</time>
      </trkpt>
      <trkpt lat="47.31238" lon="-0.30233">
        <ele>88.8</ele>
        <time>2011-04-03T08:47:00Z</time>
        <extensions>
          <type>
            <highway>track</highway>
            <surface>undefined</surface>
            </type>
        </extensions>
      </trkpt>
      <trkpt lat="47.31243" lon="-0.30233">
        <ele>89</ele>
        <time>2011-04-03T08:47:01.212Z</time>
      </trkpt>
      <trkpt lat="47.31247" lon="-0.30233">
        <ele>89.2</ele>
        <time>2011-04-03T08:47:02.182Z</time>
      </trkpt>
      <trkpt lat="47.31252" lon="-0.30232">
        <ele>89.5</ele>
        <time>2011-04-03T08:47:03.406Z</time>
      </trkpt>
      <trkpt lat="47.31257" lon="-0.30232">
        <ele>89.7</ele>
        <time>2011-04-03T08:47:04.619Z</time>
      </trkpt>
      <trkpt lat="47.31261" lon="-0.30232">
        <ele>90</ele>
        <time>2011-04-03T08:47:05.589Z</time>
      </trkpt>
      <trkpt lat="47.31266" lon="-0.30232">
        <ele>90.3</ele>
        <time>2011-04-03T08:47:06.802Z</time>
      </trkpt>
      <trkpt lat="47.3127" lon="-0.30231">
        <ele>90.6</ele>
        <time>2011-04-03T08:47:07.786Z</time>
      </trkpt>
      <trkpt lat="47.31275" lon="-0.30231">
        <ele>90.8</ele>
        <time>2011-04-03T08:47:09Z</time>
        <extensions>
          <type>
            <highway>track</highway>
            <surface>undefined</surface>
            </type>
        </extensions>
      </trkpt>
      <trkpt lat="47.3128" lon="-0.30231">
        <ele>91</ele>
        <time>2011-04-03T08:47:10.215Z</time>
      </trkpt>
      <trkpt lat="47.31285" lon="-0.30232">
        <ele>91.1</ele>
        <time>2011-04-03T08:47:11.441Z</time>
      </trkpt>
      <trkpt lat="47.3129" lon="-0.30232">
        <ele>91.2</ele>
        <time>2011-04-03T08:47:12.656Z</time>
      </trkpt>
      <trkpt lat="47.31296" lon="-0.30233">
        <ele>91.2</ele>
        <time>2011-04-03T08:47:14.124Z</time>
      </trkpt>
      <trkpt lat="47.31301" lon="-0.30233">
        <ele>91.3</ele>
        <time>2011-04-03T08:47:15.339Z</time>
      </trkpt>
      <trkpt lat="47.31306" lon="-0.30233">
        <ele>91.4</ele>
        <time>2011-04-03T08:47:16.554Z</time>
      </trkpt>
      <trkpt lat="47.31311" lon="-0.30234">
        <ele>91.5</ele>
        <time>2011-04-03T08:47:17.781Z</time>
      </trkpt>
      <trkpt lat="47.31316" lon="-0.30234">
        <ele>91.6</ele>
        <time>2011-04-03T08:47:18.997Z</time>
      </trkpt>
      <trkpt lat="47.31321" lon="-0.30234">
        <ele>91.8</ele>
        <time>2011-04-03T08:47:20.213Z</time>
      </trkpt>
      <trkpt lat="47.31326" lon="-0.30235">
        <ele>91.9</ele>
        <time>2011-04-03T08:47:21.440Z</time>
      </trkpt>
      <trkpt lat="47.31331" lon="-0.30235">
        <ele>92</ele>
        <time>2011-04-03T08:47:22.656Z</time>
      </trkpt>
      <trkpt lat="47.31337" lon="-0.30236">
        <ele>92.1</ele>
        <time>2011-04-03T08:47:24.124Z</time>
      </trkpt>
      <trkpt lat="47.31342" lon="-0.30236">
        <ele>92.1</ele>
        <time>2011-04-03T08:47:25.340Z</time>
      </trkpt>
      <trkpt lat="47.31347" lon="-0.30236">
        <ele>92.2</ele>
        <time>2011-04-03T08:47:26.556Z</time>
      </trkpt>
      <trkpt lat="47.31352" lon="-0.30237">
        <ele>92.3</ele>
        <time>2011-04-03T08:47:27.783Z</time>
      </trkpt>
      <trkpt lat="47.31357" lon="-0.30237">
        <ele>92.5</ele>
        <time>2011-04-03T08:47:29Z</time>
        <extensions>
          <type>
            <highway>track</highway>
            <surface>undefined</surface>
            </type>
        </extensions>
      </trkpt>
      <trkpt lat="47.31365" lon="-0.30239">
        <ele>92.7</ele>
        <time>2011-04-03T08:47:31.129Z</time>
      </trkpt>
      <trkpt lat="47.31372" lon="-0.30241">
        <ele>93.1</ele>
        <time>2011-04-03T08:47:32.999Z</time>
      </trkpt>
      <trkpt lat="47.3138" lon="-0.30243">
        <ele>93.4</ele>
        <time>2011-04-03T08:47:35.128Z</time>
      </trkpt>
      <trkpt lat="47.31387" lon="-0.30245">
        <ele>93.8</ele>
        <time>2011-04-03T08:47:37Z</time>
        <extensions>
          <type>
            <highway>track</highway>
            <surface>undefined</surface>
            </type>
        </extensions>
      </trkpt>
      <trkpt lat="47.31387" lon="-0.30252">
        <ele>93.9</ele>
        <time>2011-04-03T08:47:38.238Z</time>
      </trkpt>
      <trkpt lat="47.31387" lon="-0.30258">
        <ele>93.9</ele>
        <time>2011-04-03T08:47:39.299Z</time>
      </trkpt>
      <trkpt lat="47.31387" lon="-0.30265">
        <ele>93.9</ele>
        <time>2011-04-03T08:47:40.537Z</time>
      </trkpt>
      <trkpt lat="47.31387" lon="-0.30272">
        <ele>93.9</ele>
        <time>2011-04-03T08:47:41.775Z</time>
      </trkpt>
      <trkpt lat="47.31387" lon="-0.30279">
        <ele>93.9</ele>
        <time>2011-04-03T08:47:43.013Z</time>
      </trkpt>
      <trkpt lat="47.31387" lon="-0.30285">
        <ele>93.9</ele>
        <time>2011-04-03T08:47:44.074Z</time>
      </trkpt>
      <trkpt lat="47.31387" lon="-0.30292">
        <ele>94</ele>
        <time>2011-04-03T08:47:45.312Z</time>
      </trkpt>
      <trkpt lat="47.31387" lon="-0.30299">
        <ele>94</ele>
        <time>2011-04-03T08:47:46.550Z</time>
      </trkpt>
      <trkpt lat="47.31387" lon="-0.30305">
        <ele>94</ele>
        <time>2011-04-03T08:47:47.611Z</time>
      </trkpt>
      <trkpt lat="47.31387" lon="-0.30312">
        <ele>94</ele>
        <time>2011-04-03T08:47:48.849Z</time>
      </trkpt>
      <trkpt lat="47.31387" lon="-0.30319">
        <ele>94</ele>
        <time>2011-04-03T08:47:50.087Z</time>
      </trkpt>
      <trkpt lat="47.31386" lon="-0.30325">
        <ele>94</ele>
        <time>2011-04-03T08:47:51.180Z</time>
      </trkpt>
      <trkpt lat="47.31386" lon="-0.30332">
        <ele>94</ele>
        <time>2011-04-03T08:47:52.418Z</time>
      </trkpt>
      <trkpt lat="47.31386" lon="-0.30339">
        <ele>94.2</ele>
        <time>2011-04-03T08:47:53.656Z</time>
      </trkpt>
      <trkpt lat="47.31386" lon="-0.30346">
        <ele>94.4</ele>
        <time>2011-04-03T08:47:54.894Z</time>
      </trkpt>
      <trkpt lat="47.31386" lon="-0.30352">
        <ele>94.7</ele>
        <time>2011-04-03T08:47:55.955Z</time>
      </trkpt>
      <trkpt lat="47.31386" lon="-0.30359">
        <ele>94.9</ele>
        <time>2011-04-03T08:47:57.193Z</time>
      </trkpt>
      <trkpt lat="47.31386" lon="-0.30366">
        <ele>95</ele>
        <time>2011-04-03T08:47:58.431Z</time>
      </trkpt>
      <trkpt lat="47.31386" lon="-0.30372">
        <ele>95</ele>
        <time>2011-04-03T08:47:59.492Z</time>
      </trkpt>
      <trkpt lat="47.31386" lon="-0.30379">
        <ele>95</ele>
        <time>2011-04-03T08:48:00.730Z</time>
      </trkpt>
      <trkpt lat="47.31386" lon="-0.30386">
        <ele>95</ele>
        <time>2011-04-03T08:48:01.969Z</time>
      </trkpt>
      <trkpt lat="47.31386" lon="-0.30393">
        <ele>95.1</ele>
        <time>2011-04-03T08:48:03.208Z</time>
      </trkpt>
      <trkpt lat="47.31386" lon="-0.30399">
        <ele>95.4</ele>
        <time>2011-04-03T08:48:04.270Z</time>
      </trkpt>
      <trkpt lat="47.31386" lon="-0.30406">
        <ele>95.6</ele>
        <time>2011-04-03T08:48:05.509Z</time>
      </trkpt>
      <trkpt lat="47.31386" lon="-0.30413">
        <ele>95.9</ele>
        <time>2011-04-03T08:48:06.748Z</time>
      </trkpt>
      <trkpt lat="47.31386" lon="-0.30419">
        <ele>96</ele>
        <time>2011-04-03T08:48:07.810Z</time>
      </trkpt>
      <trkpt lat="47.31386" lon="-0.30426">
        <ele>96</ele>
        <time>2011-04-03T08:48:09.049Z</time>
      </trkpt>
      <trkpt lat="47.31386" lon="-0.30433">
        <ele>96</ele>
        <time>2011-04-03T08:48:10.288Z</time>
      </trkpt>
      <trkpt lat="47.31386" lon="-0.30439">
        <ele>96</ele>
        <time>2011-04-03T08:48:11.350Z</time>
      </trkpt>
      <trkpt lat="47.31386" lon="-0.30446">
        <ele>96</ele>
        <time>2011-04-03T08:48:12.589Z</time>
      </trkpt>
      <trkpt lat="47.31386" lon="-0.30453">
        <ele>96</ele>
        <time>2011-04-03T08:48:13.828Z</time>
      </trkpt>
      <trkpt lat="47.31386" lon="-0.3046">
        <ele>96</ele>
        <time>2011-04-03T08:48:15.067Z</time>
      </trkpt>
      <trkpt lat="47.31386" lon="-0.30466">
        <ele>96</ele>
        <time>2011-04-03T08:48:16.129Z</time>
      </trkpt>
      <trkpt lat="47.31385" lon="-0.30473">
        <ele>96</ele>
        <time>2011-04-03T08:48:17.395Z</time>
      </trkpt>
      <trkpt lat="47.31385" lon="-0.3048">
        <ele>96.3</ele>
        <time>2011-04-03T08:48:18.634Z</time>
      </trkpt>
      <trkpt lat="47.31385" lon="-0.30486">
        <ele>96.5</ele>
        <time>2011-04-03T08:48:19.696Z</time>
      </trkpt>
      <trkpt lat="47.31385" lon="-0.30493">
        <ele>96.7</ele>
        <time>2011-04-03T08:48:20.935Z</time>
      </trkpt>
      <trkpt lat="47.31385" lon="-0.305">
        <ele>97</ele>
        <time>2011-04-03T08:48:22.174Z</time>
      </trkpt>
      <trkpt lat="47.31385" lon="-0.30506">
        <ele>97</ele>
        <time>2011-04-03T08:48:23.236Z</time>
      </trkpt>
      <trkpt lat="47.31385" lon="-0.30513">
        <ele>97</ele>
        <time>2011-04-03T08:48:24.475Z</time>
      </trkpt>
      <trkpt lat="47.31385" lon="-0.3052">
        <ele>97</ele>
        <time>2011-04-03T08:48:25.714Z</time>
      </trkpt>
      <trkpt lat="47.31385" lon="-0.30527">
        <ele>97</ele>
        <time>2011-04-03T08:48:26.953Z</time>
      </trkpt>
      <trkpt lat="47.31385" lon="-0.30533">
        <ele>97</ele>
        <time>2011-04-03T08:48:28.015Z</time>
      </trkpt>
      <trkpt lat="47.31385" lon="-0.3054">
        <ele>97.1</ele>
        <time>2011-04-03T08:48:29.254Z</time>
      </trkpt>
      <trkpt lat="47.31385" lon="-0.30547">
        <ele>97.1</ele>
        <time>2011-04-03T08:48:30.493Z</time>
      </trkpt>
      <trkpt lat="47.31385" lon="-0.30553">
        <ele>97.1</ele>
        <time>2011-04-03T08:48:31.555Z</time>
      </trkpt>
      <trkpt lat="47.31385" lon="-0.3056">
        <ele>97.1</ele>
        <time>2011-04-03T08:48:32.794Z</time>
      </trkpt>
      <trkpt lat="47.31385" lon="-0.30567">
        <ele>97.1</ele>
        <time>2011-04-03T08:48:34.033Z</time>
      </trkpt>
      <trkpt lat="47.31385" lon="-0.30574">
        <ele>97.2</ele>
        <time>2011-04-03T08:48:35.272Z</time>
      </trkpt>
      <trkpt lat="47.31385" lon="-0.3058">
        <ele>97.2</ele>
        <time>2011-04-03T08:48:36.334Z</time>
      </trkpt>
      <trkpt lat="47.31385" lon="-0.30587">
        <ele>97.2</ele>
        <time>2011-04-03T08:48:37.573Z</time>
      </trkpt>
      <trkpt lat="47.31385" lon="-0.30594">
        <ele>97.2</ele>
        <time>2011-04-03T08:48:38.812Z</time>
      </trkpt>
      <trkpt lat="47.31385" lon="-0.306">
        <ele>97.2</ele>
        <time>2011-04-03T08:48:39.874Z</time>
      </trkpt>
      <trkpt lat="47.31385" lon="-0.30607">
        <ele>97.2</ele>
        <time>2011-04-03T08:48:41.113Z</time>
      </trkpt>
      <trkpt lat="47.31384" lon="-0.30614">
        <ele>97.2</ele>
        <time>2011-04-03T08:48:42.379Z</time>
      </trkpt>
      <trkpt lat="47.31384" lon="-0.3062">
        <ele>97.2</ele>
        <time>2011-04-03T08:48:43.441Z</time>
      </trkpt>
      <trkpt lat="47.31384" lon="-0.30627">
        <ele>97.2</ele>
        <time>2011-04-03T08:48:44.680Z</time>
      </trkpt>
      <trkpt lat="47.31384" lon="-0.30634">
        <ele>97.2</ele>
        <time>2011-04-03T08:48:45.919Z</time>
      </trkpt>
      <trkpt lat="47.31384" lon="-0.30641">
        <ele>97.2</ele>
        <time>2011-04-03T08:48:47.158Z</time>
      </trkpt>
      <trkpt lat="47.31384" lon="-0.30647">
        <ele>97.2</ele>
        <time>2011-04-03T08:48:48.220Z</time>
      </trkpt>
      <trkpt lat="47.31384" lon="-0.30654">
        <ele>97.2</ele>
        <time>2011-04-03T08:48:49.459Z</time>
      </trkpt>
      <trkpt lat="47.31384" lon="-0.30661">
        <ele>97.2</ele>
        <time>2011-04-03T08:48:50.698Z</time>
      </trkpt>
      <trkpt lat="47.31384" lon="-0.30667">
        <ele>97.2</ele>
        <time>2011-04-03T08:48:51.760Z</time>
      </trkpt>
      <trkpt lat="47.31384" lon="-0.30674">
        <ele>97.2</ele>
        <time>2011-04-03T08:48:53Z</time>
        <extensions>
          <type>
            <highway>track</highway>
            <surface>undefined</surface>
            </type>
        </extensions>
      </trkpt>
      <trkpt lat="47.31384" lon="-0.30682">
        <ele>97.2</ele>
        <time>2011-04-03T08:48:54.203Z</time>
      </trkpt>
      <trkpt lat="47.31383" lon="-0.30691">
        <ele>97.2</ele>
        <time>2011-04-03T08:48:55.575Z</time>
      </trkpt>
      <trkpt lat="47.31383" lon="-0.30699">
        <ele>97.2</ele>
        <time>2011-04-03T08:48:56.778Z</time>
      </trkpt>
      <trkpt lat="47.31382" lon="-0.30707">
        <ele>97.2</ele>
        <time>2011-04-03T08:48:58.002Z</time>
      </trkpt>
      <trkpt lat="47.31382" lon="-0.30715">
        <ele>97.3</ele>
        <time>2011-04-03T08:48:59.205Z</time>
      </trkpt>
      <trkpt lat="47.31381" lon="-0.30724">
        <ele>97.3</ele>
        <time>2011-04-03T08:49:00.577Z</time>
      </trkpt>
      <trkpt lat="47.31381" lon="-0.30732">
        <ele>97.5</ele>
        <time>2011-04-03T08:49:01.780Z</time>
      </trkpt>
      <trkpt lat="47.31381" lon="-0.3074">
        <ele>97.7</ele>
        <time>2011-04-03T08:49:02.983Z</time>
      </trkpt>
      <trkpt lat="47.3138" lon="-0.30748">
        <ele>98</ele>
        <time>2011-04-03T08:49:04.207Z</time>
      </trkpt>
      <trkpt lat="47.3138" lon="-0.30757">
        <ele>98</ele>
        <time>2011-04-03T08:49:05.561Z</time>
      </trkpt>
      <trkpt lat="47.31379" lon="-0.30765">
        <ele>98</ele>
        <time>2011-04-03T08:49:06.785Z</time>
      </trkpt>
      <trkpt lat="47.31379" lon="-0.30773">
        <ele>98</ele>
        <time>2011-04-03T08:49:07.989Z</time>
      </trkpt>
      <trkpt lat="47.31378" lon="-0.30781">
        <ele>98</ele>
        <time>2011-04-03T08:49:09.213Z</time>
      </trkpt>
      <trkpt lat="47.31378" lon="-0.3079">
        <ele>98</ele>
        <time>2011-04-03T08:49:10.567Z</time>
      </trkpt>
      <trkpt lat="47.31377" lon="-0.30798">
        <ele>98</ele>
        <time>2011-04-03T08:49:11.791Z</time>
      </trkpt>
      <trkpt lat="47.31377" lon="-0.30806">
        <ele>98</ele>
        <time>2011-04-03T08:49:12.995Z</time>
      </trkpt>
      <trkpt lat="47.31377" lon="-0.30814">
        <ele>98</ele>
        <time>2011-04-03T08:49:14.199Z</time>
      </trkpt>
      <trkpt lat="47.31376" lon="-0.30823">
        <ele>98</ele>
        <time>2011-04-03T08:49:15.571Z</time>
      </trkpt>
      <trkpt lat="47.31376" lon="-0.30831">
        <ele>98</ele>
        <time>2011-04-03T08:49:16.775Z</time>
      </trkpt>
      <trkpt lat="47.31375" lon="-0.30839">
        <ele>98</ele>
        <time>2011-04-03T08:49:17.999Z</time>
      </trkpt>
      <trkpt lat="47.31375" lon="-0.30847">
        <ele>98</ele>
        <time>2011-04-03T08:49:19.203Z</time>
      </trkpt>
      <trkpt lat="47.31374" lon="-0.30856">
        <ele>98</ele>
        <time>2011-04-03T08:49:20.575Z</time>
      </trkpt>
      <trkpt lat="47.31374" lon="-0.30864">
        <ele>98</ele>
        <time>2011-04-03T08:49:21.779Z</time>
      </trkpt>
      <trkpt lat="47.31374" lon="-0.30872">
        <ele>98</ele>
        <time>2011-04-03T08:49:22.983Z</time>
      </trkpt>
      <trkpt lat="47.31373" lon="-0.3088">
        <ele>98</ele>
        <time>2011-04-03T08:49:24.207Z</time>
      </trkpt>
      <trkpt lat="47.31373" lon="-0.30889">
        <ele>98</ele>
        <time>2011-04-03T08:49:25.561Z</time>
      </trkpt>
      <trkpt lat="47.31372" lon="-0.30897">
        <ele>98</ele>
        <time>2011-04-03T08:49:26.785Z</time>
      </trkpt>
      <trkpt lat="47.31372" lon="-0.30905">
        <ele>98</ele>
        <time>2011-04-03T08:49:27.989Z</time>
      </trkpt>
      <trkpt lat="47.31371" lon="-0.30913">
        <ele>98</ele>
        <time>2011-04-03T08:49:29.214Z</time>
      </trkpt>
      <trkpt lat="47.31371" lon="-0.30922">
        <ele>98</ele>
        <time>2011-04-03T08:49:30.569Z</time>
      </trkpt>
      <trkpt lat="47.3137" lon="-0.3093">
        <ele>98</ele>
        <time>2011-04-03T08:49:31.794Z</time>
      </trkpt>
      <trkpt lat="47.3137" lon="-0.30938">
        <ele>98</ele>
        <time>2011-04-03T08:49:33Z</time>
        <extensions>
          <type>
            <highway>track</highway>
            <surface>undefined</surface>
            </type>
        </extensions>
      </trkpt>
      <trkpt lat="47.3137" lon="-0.3095">
        <ele>98</ele>
        <time>2011-04-03T08:49:34.933Z</time>
      </trkpt>
      <trkpt lat="47.3137" lon="-0.30961">
        <ele>98</ele>
        <time>2011-04-03T08:49:36.705Z</time>
      </trkpt>
      <trkpt lat="47.3137" lon="-0.30973">
        <ele>98</ele>
        <time>2011-04-03T08:49:38.638Z</time>
      </trkpt>
      <trkpt lat="47.31371" lon="-0.30985">
        <ele>98</ele>
        <time>2011-04-03T08:49:40.586Z</time>
      </trkpt>
      <trkpt lat="47.31371" lon="-0.30996">
        <ele>98</ele>
        <time>2011-04-03T08:49:42.358Z</time>
      </trkpt>
      <trkpt lat="47.31371" lon="-0.31008">
        <ele>98</ele>
        <time>2011-04-03T08:49:44.292Z</time>
      </trkpt>
      <trkpt lat="47.31371" lon="-0.31019">
        <ele>98</ele>
        <time>2011-04-03T08:49:46.065Z</time>
      </trkpt>
      <trkpt lat="47.31371" lon="-0.31031">
        <ele>98</ele>
        <time>2011-04-03T08:49:48Z</time>
        <extensions>
          <type>
            <highway>track</highway>
            <surface>undefined</surface>
            </type>
        </extensions>
      </trkpt>
      <trkpt lat="47.31371" lon="-0.31039">
        <ele>98</ele>
        <time>2011-04-03T08:49:49.115Z</time>
      </trkpt>
      <trkpt lat="47.3137" lon="-0.31046">
        <ele>98</ele>
        <time>2011-04-03T08:49:50.112Z</time>
      </trkpt>
      <trkpt lat="47.3137" lon="-0.31054">
        <ele>98</ele>
        <time>2011-04-03T08:49:51.228Z</time>
      </trkpt>
      <trkpt lat="47.3137" lon="-0.31061">
        <ele>97.9</ele>
        <time>2011-04-03T08:49:52.204Z</time>
      </trkpt>
      <trkpt lat="47.31369" lon="-0.31069">
        <ele>97.9</ele>
        <time>2011-04-03T08:49:53.339Z</time>
      </trkpt>
      <trkpt lat="47.31369" lon="-0.31076">
        <ele>97.8</ele>
        <time>2011-04-03T08:49:54.315Z</time>
      </trkpt>
      <trkpt lat="47.31368" lon="-0.31084">
        <ele>97.7</ele>
        <time>2011-04-03T08:49:55.450Z</time>
      </trkpt>
      <trkpt lat="47.31368" lon="-0.31092">
        <ele>97.5</ele>
        <time>2011-04-03T08:49:56.566Z</time>
      </trkpt>
      <trkpt lat="47.31368" lon="-0.31099">
        <ele>97.3</ele>
        <time>2011-04-03T08:49:57.542Z</time>
      </trkpt>
      <trkpt lat="47.31367" lon="-0.31107">
        <ele>97.1</ele>
        <time>2011-04-03T08:49:58.677Z</time>
      </trkpt>
      <trkpt lat="47.31367" lon="-0.31114">
        <ele>97</ele>
        <time>2011-04-03T08:49:59.653Z</time>
      </trkpt>
      <trkpt lat="47.31367" lon="-0.31122">
        <ele>97</ele>
        <time>2011-04-03T08:50:00.769Z</time>
      </trkpt>
      <trkpt lat="47.31366" lon="-0.31129">
        <ele>97</ele>
        <time>2011-04-03T08:50:01.767Z</time>
      </trkpt>
      <trkpt lat="47.31366" lon="-0.31137">
        <ele>97</ele>
        <time>2011-04-03T08:50:02.884Z</time>
      </trkpt>
      <trkpt lat="47.31365" lon="-0.31144">
        <ele>97</ele>
        <time>2011-04-03T08:50:03.882Z</time>
      </trkpt>
      <trkpt lat="47.31365" lon="-0.31152">
        <ele>97</ele>
        <time>2011-04-03T08:50:05Z</time>
        <extensions>
          <type>
            <highway>track</highway>
            <surface>undefined</surface>
            </type>
        </extensions>
      </trkpt>
      <trkpt lat="47.31365" lon="-0.3116">
        <ele>97</ele>
        <time>2011-04-03T08:50:06.372Z</time>
      </trkpt>
      <trkpt lat="47.31365" lon="-0.31168">
        <ele>97</ele>
        <time>2011-04-03T08:50:07.744Z</time>
      </trkpt>
      <trkpt lat="47.31365" lon="-0.31176">
        <ele>97</ele>
        <time>2011-04-03T08:50:09.116Z</time>
      </trkpt>
      <trkpt lat="47.31366" lon="-0.31184">
        <ele>97</ele>
        <time>2011-04-03T08:50:10.511Z</time>
      </trkpt>
      <trkpt lat="47.31366" lon="-0.31192">
        <ele>97</ele>
        <time>2011-04-03T08:50:11.883Z</time>
      </trkpt>
      <trkpt lat="47.31366" lon="-0.312">
        <ele>97</ele>
        <time>2011-04-03T08:50:13.255Z</time>
      </trkpt>
      <trkpt lat="47.31366" lon="-0.31208">
        <ele>97</ele>
        <time>2011-04-03T08:50:14.627Z</time>
      </trkpt>
      <trkpt lat="47.31366" lon="-0.31216">
        <ele>97</ele>
        <time>2011-04-03T08:50:16Z</time>
        <extensions>
          <type>
            <highway>unclassified</highway>
            <surface>undefined</surface>
            </type>
        </extensions>
      </trkpt>
      <trkpt lat="47.3137" lon="-0.31223">
        <ele>97</ele>
        <time>2011-04-03T08:51:13Z</time>
        <extensions>
          <type>
            <highway>unclassified</highway>
            <surface>undefined</surface>
            </type>
        </extensions>
      </trkpt>
      <trkpt lat="47.31376" lon="-0.31222">
        <ele>97</ele>
        <time>2011-04-03T08:51:14.208Z</time>
      </trkpt>
      <trkpt lat="47.31383" lon="-0.31222">
        <ele>97</ele>
        <time>2011-04-03T08:51:15.609Z</time>
      </trkpt>
      <trkpt lat="47.31389" lon="-0.31221">
        <ele>97</ele>
        <time>2011-04-03T08:51:16.817Z</time>
      </trkpt>
      <trkpt lat="47.31396" lon="-0.3122">
        <ele>97</ele>
        <time>2011-04-03T08:51:18.224Z</time>
      </trkpt>
      <trkpt lat="47.31402" lon="-0.3122">
        <ele>97</ele>
        <time>2011-04-03T08:51:19.425Z</time>
      </trkpt>
      <trkpt lat="47.31408" lon="-0.31219">
        <ele>97</ele>
        <time>2011-04-03T08:51:20.633Z</time>
      </trkpt>
      <trkpt lat="47.31415" lon="-0.31218">
        <ele>97</ele>
        <time>2011-04-03T08:51:22.041Z</time>
      </trkpt>
      <trkpt lat="47.31421" lon="-0.31218">
        <ele>96.9</ele>
        <time>2011-04-03T08:51:23.242Z</time>
      </trkpt>
      <trkpt lat="47.31427" lon="-0.31217">
        <ele>96.7</ele>
        <time>2011-04-03T08:51:24.450Z</time>
      </trkpt>
      <trkpt lat="47.31434" lon="-0.31216">
        <ele>96.5</ele>
        <time>2011-04-03T08:51:25.858Z</time>
      </trkpt>
      <trkpt lat="47.3144" lon="-0.31215">
        <ele>96.4</ele>
        <time>2011-04-03T08:51:27.066Z</time>
      </trkpt>
      <trkpt lat="47.31447" lon="-0.31215">
        <ele>96.2</ele>
        <time>2011-04-03T08:51:28.467Z</time>
      </trkpt>
      <trkpt lat="47.31453" lon="-0.31214">
        <ele>96</ele>
        <time>2011-04-03T08:51:29.676Z</time>
      </trkpt>
      <trkpt lat="47.31459" lon="-0.31213">
        <ele>95.8</ele>
        <time>2011-04-03T08:51:30.885Z</time>
      </trkpt>
      <trkpt lat="47.31466" lon="-0.31213">
        <ele>95.6</ele>
        <time>2011-04-03T08:51:32.286Z</time>
      </trkpt>
      <trkpt lat="47.31472" lon="-0.31212">
        <ele>95.4</ele>
        <time>2011-04-03T08:51:33.495Z</time>
      </trkpt>
      <trkpt lat="47.31478" lon="-0.31211">
        <ele>95.4</ele>
        <time>2011-04-03T08:51:34.704Z</time>
      </trkpt>
      <trkpt lat="47.31485" lon="-0.31211">
        <ele>95.4</ele>
        <time>2011-04-03T08:51:36.105Z</time>
      </trkpt>
      <trkpt lat="47.31491" lon="-0.3121">
        <ele>95.4</ele>
        <time>2011-04-03T08:51:37.314Z</time>
      </trkpt>
      <trkpt lat="47.31498" lon="-0.31209">
        <ele>95.5</ele>
        <time>2011-04-03T08:51:38.722Z</time>
      </trkpt>
      <trkpt lat="47.31504" lon="-0.31209">
        <ele>95.4</ele>
        <time>2011-04-03T08:51:39.923Z</time>
      </trkpt>
      <trkpt lat="47.3151" lon="-0.31208">
        <ele>95.3</ele>
        <time>2011-04-03T08:51:41.132Z</time>
      </trkpt>
      <trkpt lat="47.31517" lon="-0.31207">
        <ele>95.2</ele>
        <time>2011-04-03T08:51:42.540Z</time>
      </trkpt>
      <trkpt lat="47.31523" lon="-0.31207">
        <ele>95.1</ele>
        <time>2011-04-03T08:51:43.741Z</time>
      </trkpt>
      <trkpt lat="47.31529" lon="-0.31206">
        <ele>95</ele>
        <time>2011-04-03T08:51:44.950Z</time>
      </trkpt>
      <trkpt lat="47.31536" lon="-0.31205">
        <ele>95</ele>
        <time>2011-04-03T08:51:46.358Z</time>
      </trkpt>
      <trkpt lat="47.31542" lon="-0.31204">
        <ele>95</ele>
        <time>2011-04-03T08:51:47.567Z</time>
      </trkpt>
      <trkpt lat="47.31549" lon="-0.31204">
        <ele>95</ele>
        <time>2011-04-03T08:51:48.969Z</time>
      </trkpt>
      <trkpt lat="47.31555" lon="-0.31203">
        <ele>95</ele>
        <time>2011-04-03T08:51:50.178Z</time>
      </trkpt>
      <trkpt lat="47.31561" lon="-0.31202">
        <ele>95</ele>
        <time>2011-04-03T08:51:51.387Z</time>
      </trkpt>
      <trkpt lat="47.31568" lon="-0.31202">
        <ele>95</ele>
        <time>2011-04-03T08:51:52.789Z</time>
      </trkpt>
      <trkpt lat="47.31574" lon="-0.31201">
        <ele>95</ele>
        <time>2011-04-03T08:51:54Z</time>
        <extensions>
          <type>
            <highway>unclassified</highway>
            <surface>undefined</surface>
            </type>
        </extensions>
      </trkpt>
      <trkpt lat="47.3158" lon="-0.312">
        <ele>95</ele>
        <time>2011-04-03T08:51:54.857Z</time>
      </trkpt>
      <trkpt lat="47.31586" lon="-0.31199">
        <ele>94.9</ele>
        <time>2011-04-03T08:51:55.714Z</time>
      </trkpt>
      <trkpt lat="47.31592" lon="-0.31198">
        <ele>94.7</ele>
        <time>2011-04-03T08:51:56.571Z</time>
      </trkpt>
      <trkpt lat="47.31598" lon="-0.31198">
        <ele>94.5</ele>
        <time>2011-04-03T08:51:57.423Z</time>
      </trkpt>
      <trkpt lat="47.31604" lon="-0.31197">
        <ele>94.3</ele>
        <time>2011-04-03T08:51:58.280Z</time>
      </trkpt>
      <trkpt lat="47.31609" lon="-0.31196">
        <ele>94.1</ele>
        <time>2011-04-03T08:51:58.996Z</time>
      </trkpt>
      <trkpt lat="47.31615" lon="-0.31195">
        <ele>93.8</ele>
        <time>2011-04-03T08:51:59.853Z</time>
      </trkpt>
      <trkpt lat="47.31621" lon="-0.31194">
        <ele>93.6</ele>
        <time>2011-04-03T08:52:00.710Z</time>
      </trkpt>
      <trkpt lat="47.31627" lon="-0.31193">
        <ele>93.4</ele>
        <time>2011-04-03T08:52:01.567Z</time>
      </trkpt>
      <trkpt lat="47.31633" lon="-0.31192">
        <ele>93.2</ele>
        <time>2011-04-03T08:52:02.424Z</time>
      </trkpt>
      <trkpt lat="47.31639" lon="-0.31191">
        <ele>93</ele>
        <time>2011-04-03T08:52:03.281Z</time>
      </trkpt>
      <trkpt lat="47.31645" lon="-0.31191">
        <ele>92.8</ele>
        <time>2011-04-03T08:52:04.133Z</time>
      </trkpt>
      <trkpt lat="47.31651" lon="-0.3119">
        <ele>92.6</ele>
        <time>2011-04-03T08:52:04.991Z</time>
      </trkpt>
      <trkpt lat="47.31657" lon="-0.31189">
        <ele>92.4</ele>
        <time>2011-04-03T08:52:05.849Z</time>
      </trkpt>
      <trkpt lat="47.31663" lon="-0.31188">
        <ele>92.1</ele>
        <time>2011-04-03T08:52:06.707Z</time>
      </trkpt>
      <trkpt lat="47.31669" lon="-0.31187">
        <ele>91.9</ele>
        <time>2011-04-03T08:52:07.565Z</time>
      </trkpt>
      <trkpt lat="47.31674" lon="-0.31186">
        <ele>91.7</ele>
        <time>2011-04-03T08:52:08.282Z</time>
      </trkpt>
      <trkpt lat="47.3168" lon="-0.31185">
        <ele>91.5</ele>
        <time>2011-04-03T08:52:09.140Z</time>
      </trkpt>
      <trkpt lat="47.31686" lon="-0.31184">
        <ele>91.3</ele>
        <time>2011-04-03T08:52:09.998Z</time>
      </trkpt>
      <trkpt lat="47.31692" lon="-0.31184">
        <ele>91.1</ele>
        <time>2011-04-03T08:52:10.850Z</time>
      </trkpt>
      <trkpt lat="47.31698" lon="-0.31183">
        <ele>90.9</ele>
        <time>2011-04-03T08:52:11.708Z</time>
      </trkpt>
      <trkpt lat="47.31704" lon="-0.31182">
        <ele>90.7</ele>
        <time>2011-04-03T08:52:12.566Z</time>
      </trkpt>
      <trkpt lat="47.3171" lon="-0.31181">
        <ele>90.4</ele>
        <time>2011-04-03T08:52:13.424Z</time>
      </trkpt>
      <trkpt lat="47.31716" lon="-0.3118">
        <ele>90.2</ele>
        <time>2011-04-03T08:52:14.282Z</time>
      </trkpt>
      <trkpt lat="47.31722" lon="-0.31179">
        <ele>90</ele>
        <time>2011-04-03T08:52:15.140Z</time>
      </trkpt>
      <trkpt lat="47.31728" lon="-0.31178">
        <ele>89.8</ele>
        <time>2011-04-03T08:52:15.998Z</time>
      </trkpt>
      <trkpt lat="47.31734" lon="-0.31177">
        <ele>89.6</ele>
        <time>2011-04-03T08:52:16.856Z</time>
      </trkpt>
      <trkpt lat="47.31739" lon="-0.31177">
        <ele>89.4</ele>
        <time>2011-04-03T08:52:17.566Z</time>
      </trkpt>
      <trkpt lat="47.31745" lon="-0.31176">
        <ele>89.2</ele>
        <time>2011-04-03T08:52:18.424Z</time>
      </trkpt>
      <trkpt lat="47.31751" lon="-0.31175">
        <ele>89</ele>
        <time>2011-04-03T08:52:19.282Z</time>
      </trkpt>
      <trkpt lat="47.31757" lon="-0.31174">
        <ele>88.8</ele>
        <time>2011-04-03T08:52:20.141Z</time>
      </trkpt>
      <trkpt lat="47.31763" lon="-0.31173">
        <ele>88.6</ele>
        <time>2011-04-03T08:52:21Z</time>
        <extensions>
          <type>
            <highway>unclassified</highway>
            <surface>undefined</surface>
            </type>
        </extensions>
      </trkpt>
      <trkpt lat="47.31768" lon="-0.31172">
        <ele>88.5</ele>
        <time>2011-04-03T08:52:21.831Z</time>
      </trkpt>
      <trkpt lat="47.31774" lon="-0.31171">
        <ele>88.3</ele>
        <time>2011-04-03T08:52:22.825Z</time>
      </trkpt>
      <trkpt lat="47.31779" lon="-0.3117">
        <ele>88.1</ele>
        <time>2011-04-03T08:52:23.656Z</time>
      </trkpt>
      <trkpt lat="47.31784" lon="-0.31169">
        <ele>88.1</ele>
        <time>2011-04-03T08:52:24.487Z</time>
      </trkpt>
      <trkpt lat="47.31789" lon="-0.31167">
        <ele>88</ele>
        <time>2011-04-03T08:52:25.341Z</time>
      </trkpt>
      <trkpt lat="47.31795" lon="-0.31166">
        <ele>88</ele>
        <time>2011-04-03T08:52:26.336Z</time>
      </trkpt>
      <trkpt lat="47.318" lon="-0.31165">
        <ele>88</ele>
        <time>2011-04-03T08:52:27.168Z</time>
      </trkpt>
      <trkpt lat="47.31805" lon="-0.31164">
        <ele>87.9</ele>
        <time>2011-04-03T08:52:28Z</time>
        <extensions>
          <type>
            <highway>track</highway>
            <surface>undefined</surface>
            </type>
        </extensions>
      </trkpt>
      <trkpt lat="47.31813" lon="-0.31158">
        <ele>87.7</ele>
        <time>2011-04-03T08:52:30Z</time>
        <extensions>
          <type>
            <highway>track</highway>
            <surface>undefined</surface>
            </type>
        </extensions>
      </trkpt>
      <trkpt lat="47.3181" lon="-0.3115">
        <ele>87.4</ele>
        <time>2011-04-03T08:52:31.192Z</time>
      </trkpt>
      <trkpt lat="47.31807" lon="-0.31141">
        <ele>87.1</ele>
        <time>2011-04-03T08:52:32.499Z</time>
      </trkpt>
      <trkpt lat="47.31804" lon="-0.31133">
        <ele>87.1</ele>
        <time>2011-04-03T08:52:33.691Z</time>
      </trkpt>
      <trkpt lat="47.31801" lon="-0.31124">
        <ele>87.2</ele>
        <time>2011-04-03T08:52:34.998Z</time>
      </trkpt>
      <trkpt lat="47.31798" lon="-0.31116">
        <ele>87.3</ele>
        <time>2011-04-03T08:52:36.190Z</time>
      </trkpt>
      <trkpt lat="47.31795" lon="-0.31107">
        <ele>87.4</ele>
        <time>2011-04-03T08:52:37.498Z</time>
      </trkpt>
      <trkpt lat="47.31792" lon="-0.31099">
        <ele>87.5</ele>
        <time>2011-04-03T08:52:38.690Z</time>
      </trkpt>
      <trkpt lat="47.31789" lon="-0.3109">
        <ele>87.6</ele>
        <time>2011-04-03T08:52:39.998Z</time>
      </trkpt>
      <trkpt lat="47.31786" lon="-0.31082">
        <ele>87.7</ele>
        <time>2011-04-03T08:52:41.190Z</time>
      </trkpt>
      <trkpt lat="47.31783" lon="-0.31073">
        <ele>87.8</ele>
        <time>2011-04-03T08:52:42.498Z</time>
      </trkpt>
      <trkpt lat="47.3178" lon="-0.31065">
        <ele>87.9</ele>
        <time>2011-04-03T08:52:43.690Z</time>
      </trkpt>
      <trkpt lat="47.31777" lon="-0.31056">
        <ele>88</ele>
        <time>2011-04-03T08:52:44.998Z</time>
      </trkpt>
      <trkpt lat="47.31774" lon="-0.31048">
        <ele>88</ele>
        <time>2011-04-03T08:52:46.190Z</time>
      </trkpt>
      <trkpt lat="47.31771" lon="-0.31039">
        <ele>88.1</ele>
        <time>2011-04-03T08:52:47.498Z</time>
      </trkpt>
      <trkpt lat="47.31768" lon="-0.31031">
        <ele>88.3</ele>
        <time>2011-04-03T08:52:48.691Z</time>
      </trkpt>
      <trkpt lat="47.31765" lon="-0.31022">
        <ele>88.5</ele>
        <time>2011-04-03T08:52:50Z</time>
        <extensions>
          <type>
            <highway>track</highway>
            <surface>undefined</surface>
            </type>
        </extensions>
      </trkpt>
      <trkpt lat="47.31763" lon="-0.31016">
        <ele>88.5</ele>
        <time>2011-04-03T08:52:50.835Z</time>
      </trkpt>
      <trkpt lat="47.3176" lon="-0.3101">
        <ele>88.6</ele>
        <time>2011-04-03T08:52:51.767Z</time>
      </trkpt>
      <trkpt lat="47.31758" lon="-0.31004">
        <ele>88.7</ele>
        <time>2011-04-03T08:52:52.602Z</time>
      </trkpt>
      <trkpt lat="47.31755" lon="-0.30998">
        <ele>88.8</ele>
        <time>2011-04-03T08:52:53.534Z</time>
      </trkpt>
      <trkpt lat="47.31753" lon="-0.30992">
        <ele>88.9</ele>
        <time>2011-04-03T08:52:54.370Z</time>
      </trkpt>
      <trkpt lat="47.3175" lon="-0.30986">
        <ele>89</ele>
        <time>2011-04-03T08:52:55.302Z</time>
      </trkpt>
      <trkpt lat="47.31748" lon="-0.3098">
        <ele>89.1</ele>
        <time>2011-04-03T08:52:56.138Z</time>
      </trkpt>
      <trkpt lat="47.31746" lon="-0.30974">
        <ele>89.3</ele>
        <time>2011-04-03T08:52:56.974Z</time>
      </trkpt>
      <trkpt lat="47.31743" lon="-0.30968">
        <ele>89.5</ele>
        <time>2011-04-03T08:52:57.906Z</time>
      </trkpt>
      <trkpt lat="47.31741" lon="-0.30962">
        <ele>89.7</ele>
        <time>2011-04-03T08:52:58.742Z</time>
      </trkpt>
      <trkpt lat="47.31738" lon="-0.30956">
        <ele>89.8</ele>
        <time>2011-04-03T08:52:59.674Z</time>
      </trkpt>
      <trkpt lat="47.31736" lon="-0.3095">
        <ele>90</ele>
        <time>2011-04-03T08:53:00.510Z</time>
      </trkpt>
      <trkpt lat="47.31733" lon="-0.30944">
        <ele>90.2</ele>
        <time>2011-04-03T08:53:01.442Z</time>
      </trkpt>
      <trkpt lat="47.31731" lon="-0.30938">
        <ele>90.4</ele>
        <time>2011-04-03T08:53:02.278Z</time>
      </trkpt>
      <trkpt lat="47.31728" lon="-0.30933">
        <ele>90.7</ele>
        <time>2011-04-03T08:53:03.112Z</time>
      </trkpt>
      <trkpt lat="47.31726" lon="-0.30927">
        <ele>90.8</ele>
        <time>2011-04-03T08:53:03.948Z</time>
      </trkpt>
      <trkpt lat="47.31724" lon="-0.30921">
        <ele>90.9</ele>
        <time>2011-04-03T08:53:04.784Z</time>
      </trkpt>
      <trkpt lat="47.31721" lon="-0.30915">
        <ele>91</ele>
        <time>2011-04-03T08:53:05.716Z</time>
      </trkpt>
      <trkpt lat="47.31719" lon="-0.30909">
        <ele>91.1</ele>
        <time>2011-04-03T08:53:06.552Z</time>
      </trkpt>
      <trkpt lat="47.31716" lon="-0.30903">
        <ele>91.2</ele>
        <time>2011-04-03T08:53:07.484Z</time>
      </trkpt>
      <trkpt lat="47.31714" lon="-0.30897">
        <ele>91.3</ele>
        <time>2011-04-03T08:53:08.320Z</time>
      </trkpt>
      <trkpt lat="47.31711" lon="-0.30891">
        <ele>91.4</ele>
        <time>2011-04-03T08:53:09.252Z</time>
      </trkpt>
      <trkpt lat="47.31709" lon="-0.30885">
        <ele>91.4</ele>
        <time>2011-04-03T08:53:10.088Z</time>
      </trkpt>
      <trkpt lat="47.31707" lon="-0.30879">
        <ele>91.4</ele>
        <time>2011-04-03T08:53:10.924Z</time>
      </trkpt>
      <trkpt lat="47.31704" lon="-0.30873">
        <ele>91.3</ele>
        <time>2011-04-03T08:53:11.856Z</time>
      </trkpt>
      <trkpt lat="47.31702" lon="-0.30867">
        <ele>91.2</ele>
        <time>2011-04-03T08:53:12.692Z</time>
      </trkpt>
      <trkpt lat="47.31699" lon="-0.30861">
        <ele>91</ele>
        <time>2011-04-03T08:53:13.624Z</time>
      </trkpt>
      <trkpt lat="47.31697" lon="-0.30855">
        <ele>91</ele>
        <time>2011-04-03T08:53:14.460Z</time>
      </trkpt>
      <trkpt lat="47.31694" lon="-0.30849">
        <ele>91</ele>
        <time>2011-04-03T08:53:15.393Z</time>
      </trkpt>
      <trkpt lat="47.31692" lon="-0.30843">
        <ele>91.1</ele>
        <time>2011-04-03T08:53:16.229Z</time>
      </trkpt>
      <trkpt lat="47.31689" lon="-0.30837">
        <ele>91.2</ele>
        <time>2011-04-03T08:53:17.162Z</time>
      </trkpt>
      <trkpt lat="47.31687" lon="-0.30831">
        <ele>91.3</ele>
        <time>2011-04-03T08:53:18Z</time>
        <extensions>
          <type>
            <highway>track</highway>
            <surface>undefined</surface>
            </type>
        </extensions>
      </trkpt>
      <trkpt lat="47.31686" lon="-0.30819">
        <ele>91.3</ele>
        <time>2011-04-03T08:53:19.483Z</time>
      </trkpt>
      <trkpt lat="47.31684" lon="-0.30807">
        <ele>91.4</ele>
        <time>2011-04-03T08:53:21Z</time>
        <extensions>
          <type>
            <highway>track</highway>
            <surface>undefined</surface>
            </type>
        </extensions>
      </trkpt>
      <trkpt lat="47.31688" lon="-0.30799">
        <ele>91.2</ele>
        <time>2011-04-03T08:53:22.211Z</time>
      </trkpt>
      <trkpt lat="47.31691" lon="-0.30791">
        <ele>91.1</ele>
        <time>2011-04-03T08:53:23.324Z</time>
      </trkpt>
      <trkpt lat="47.31695" lon="-0.30783">
        <ele>91</ele>
        <time>2011-04-03T08:53:24.535Z</time>
      </trkpt>
      <trkpt lat="47.31699" lon="-0.30775">
        <ele>90.8</ele>
        <time>2011-04-03T08:53:25.746Z</time>
      </trkpt>
      <trkpt lat="47.31702" lon="-0.30767">
        <ele>90.7</ele>
        <time>2011-04-03T08:53:26.859Z</time>
      </trkpt>
      <trkpt lat="47.31706" lon="-0.30759">
        <ele>90.6</ele>
        <time>2011-04-03T08:53:28.070Z</time>
      </trkpt>
      <trkpt lat="47.3171" lon="-0.30751">
        <ele>90.4</ele>
        <time>2011-04-03T08:53:29.281Z</time>
      </trkpt>
      <trkpt lat="47.31714" lon="-0.30743">
        <ele>90.3</ele>
        <time>2011-04-03T08:53:30.492Z</time>
      </trkpt>
      <trkpt lat="47.31717" lon="-0.30734">
        <ele>90.2</ele>
        <time>2011-04-03T08:53:31.714Z</time>
      </trkpt>
      <trkpt lat="47.31721" lon="-0.30726">
        <ele>90</ele>
        <time>2011-04-03T08:53:32.925Z</time>
      </trkpt>
      <trkpt lat="47.31725" lon="-0.30718">
        <ele>90</ele>
        <time>2011-04-03T08:53:34.136Z</time>
      </trkpt>
      <trkpt lat="47.31728" lon="-0.3071">
        <ele>90</ele>
        <time>2011-04-03T08:53:35.250Z</time>
      </trkpt>
      <trkpt lat="47.31732" lon="-0.30702">
        <ele>90</ele>
        <time>2011-04-03T08:53:36.461Z</time>
      </trkpt>
      <trkpt lat="47.31736" lon="-0.30694">
        <ele>90</ele>
        <time>2011-04-03T08:53:37.673Z</time>
      </trkpt>
      <trkpt lat="47.31739" lon="-0.30686">
        <ele>90.1</ele>
        <time>2011-04-03T08:53:38.787Z</time>
      </trkpt>
      <trkpt lat="47.31743" lon="-0.30678">
        <ele>90.1</ele>
        <time>2011-04-03T08:53:40Z</time>
        <extensions>
          <type>
            <highway>track</highway>
            <surface>undefined</surface>
            </type>
        </extensions>
      </trkpt>
      <trkpt lat="47.31748" lon="-0.3067">
        <ele>90.1</ele>
        <time>2011-04-03T08:53:41.445Z</time>
      </trkpt>
      <trkpt lat="47.31752" lon="-0.30661">
        <ele>90.2</ele>
        <time>2011-04-03T08:53:42.874Z</time>
      </trkpt>
      <trkpt lat="47.31757" lon="-0.30653">
        <ele>90.4</ele>
        <time>2011-04-03T08:53:44.319Z</time>
      </trkpt>
      <trkpt lat="47.31761" lon="-0.30644">
        <ele>90.5</ele>
        <time>2011-04-03T08:53:45.748Z</time>
      </trkpt>
      <trkpt lat="47.31766" lon="-0.30636">
        <ele>90.4</ele>
        <time>2011-04-03T08:53:47.193Z</time>
      </trkpt>
      <trkpt lat="47.3177" lon="-0.30627">
        <ele>90.3</ele>
        <time>2011-04-03T08:53:48.622Z</time>
      </trkpt>
      <trkpt lat="47.31775" lon="-0.30619">
        <ele>90.1</ele>
        <time>2011-04-03T08:53:50.067Z</time>
      </trkpt>
      <trkpt lat="47.31779" lon="-0.3061">
        <ele>90</ele>
        <time>2011-04-03T08:53:51.496Z</time>
      </trkpt>
      <trkpt lat="47.31784" lon="-0.30602">
        <ele>90.3</ele>
        <time>2011-04-03T08:53:52.941Z</time>
      </trkpt>
      <trkpt lat="47.31788" lon="-0.30593">
        <ele>90.7</ele>
        <time>2011-04-03T08:53:54.371Z</time>
      </trkpt>
      <trkpt lat="47.31793" lon="-0.30585">
        <ele>91</ele>
        <time>2011-04-03T08:53:55.817Z</time>
      </trkpt>
      <trkpt lat="47.31797" lon="-0.30576">
        <ele>91</ele>
        <time>2011-04-03T08:53:57.247Z</time>
      </trkpt>
      <trkpt lat="47.31802" lon="-0.30568">
        <ele>91</ele>
        <time>2011-04-03T08:53:58.693Z</time>
      </trkpt>
      <trkpt lat="47.31806" lon="-0.30559">
        <ele>91</ele>
        <time>2011-04-03T08:54:00.123Z</time>
      </trkpt>
      <trkpt lat="47.31811" lon="-0.30551">
        <ele>91.2</ele>
        <time>2011-04-03T08:54:01.569Z</time>
      </trkpt>
      <trkpt lat="47.31815" lon="-0.30542">
        <ele>91.5</ele>
        <time>2011-04-03T08:54:03Z</time>
        <extensions>
          <type>
            <highway>track</highway>
            <surface>undefined</surface>
            </type>
        </extensions>
      </trkpt>
      <trkpt lat="47.31819" lon="-0.30533">
        <ele>91.8</ele>
        <time>2011-04-03T08:54:04.621Z</time>
      </trkpt>
      <trkpt lat="47.31823" lon="-0.30525">
        <ele>92</ele>
        <time>2011-04-03T08:54:06.118Z</time>
      </trkpt>
      <trkpt lat="47.31826" lon="-0.30516">
        <ele>92.1</ele>
        <time>2011-04-03T08:54:07.628Z</time>
      </trkpt>
      <trkpt lat="47.3183" lon="-0.30507">
        <ele>92.1</ele>
        <time>2011-04-03T08:54:09.249Z</time>
      </trkpt>
      <trkpt lat="47.31834" lon="-0.30498">
        <ele>92.1</ele>
        <time>2011-04-03T08:54:10.870Z</time>
      </trkpt>
      <trkpt lat="47.31838" lon="-0.3049">
        <ele>92.3</ele>
        <time>2011-04-03T08:54:12.367Z</time>
      </trkpt>
      <trkpt lat="47.31841" lon="-0.30481">
        <ele>92.5</ele>
        <time>2011-04-03T08:54:13.877Z</time>
      </trkpt>
      <trkpt lat="47.31845" lon="-0.30472">
        <ele>92.6</ele>
        <time>2011-04-03T08:54:15.498Z</time>
      </trkpt>
      <trkpt lat="47.31849" lon="-0.30463">
        <ele>92.6</ele>
        <time>2011-04-03T08:54:17.119Z</time>
      </trkpt>
      <trkpt lat="47.31853" lon="-0.30455">
        <ele>92.8</ele>
        <time>2011-04-03T08:54:18.616Z</time>
      </trkpt>
      <trkpt lat="47.31856" lon="-0.30446">
        <ele>93</ele>
        <time>2011-04-03T08:54:20.127Z</time>
      </trkpt>
      <trkpt lat="47.3186" lon="-0.30437">
        <ele>93.3</ele>
        <time>2011-04-03T08:54:21.748Z</time>
      </trkpt>
      <trkpt lat="47.31864" lon="-0.30428">
        <ele>93.5</ele>
        <time>2011-04-03T08:54:23.369Z</time>
      </trkpt>
      <trkpt lat="47.31868" lon="-0.3042">
        <ele>93.7</ele>
        <time>2011-04-03T08:54:24.866Z</time>
      </trkpt>
      <trkpt lat="47.31871" lon="-0.30411">
        <ele>93.7</ele>
        <time>2011-04-03T08:54:26.377Z</time>
      </trkpt>
      <trkpt lat="47.31875" lon="-0.30402">
        <ele>93.8</ele>
        <time>2011-04-03T08:54:28Z</time>
        <extensions>
          <type>
            <highway>track</highway>
            <surface>undefined</surface>
            </type>
        </extensions>
      </trkpt>
      <trkpt lat="47.3188" lon="-0.30396">
        <ele>93.8</ele>
        <time>2011-04-03T08:54:29.543Z</time>
      </trkpt>
      <trkpt lat="47.31886" lon="-0.30391">
        <ele>93.9</ele>
        <time>2011-04-03T08:54:31.193Z</time>
      </trkpt>
      <trkpt lat="47.31891" lon="-0.30385">
        <ele>93.9</ele>
        <time>2011-04-03T08:54:32.737Z</time>
      </trkpt>
      <trkpt lat="47.31896" lon="-0.30379">
        <ele>93.7</ele>
        <time>2011-04-03T08:54:34.281Z</time>
      </trkpt>
      <trkpt lat="47.31901" lon="-0.30374">
        <ele>93.6</ele>
        <time>2011-04-03T08:54:35.728Z</time>
      </trkpt>
      <trkpt lat="47.31907" lon="-0.30368">
        <ele>93.4</ele>
        <time>2011-04-03T08:54:37.464Z</time>
      </trkpt>
      <trkpt lat="47.31912" lon="-0.30362">
        <ele>93.2</ele>
        <time>2011-04-03T08:54:39.008Z</time>
      </trkpt>
      <trkpt lat="47.31917" lon="-0.30357">
        <ele>93</ele>
        <time>2011-04-03T08:54:40.455Z</time>
      </trkpt>
      <trkpt lat="47.31922" lon="-0.30351">
        <ele>93</ele>
        <time>2011-04-03T08:54:41.999Z</time>
      </trkpt>
      <trkpt lat="47.31928" lon="-0.30345">
        <ele>93</ele>
        <time>2011-04-03T08:54:43.735Z</time>
      </trkpt>
      <trkpt lat="47.31933" lon="-0.30339">
        <ele>93</ele>
        <time>2011-04-03T08:54:45.279Z</time>
      </trkpt>
      <trkpt lat="47.31938" lon="-0.30334">
        <ele>93</ele>
        <time>2011-04-03T08:54:46.726Z</time>
      </trkpt>
      <trkpt lat="47.31943" lon="-0.30328">
        <ele>93</ele>
        <time>2011-04-03T08:54:48.270Z</time>
      </trkpt>
      <trkpt lat="47.31949" lon="-0.30322">
        <ele>93</ele>
        <time>2011-04-03T08:54:50.007Z</time>
      </trkpt>
      <trkpt lat="47.31954" lon="-0.30317">
        <ele>93</ele>
        <time>2011-04-03T08:54:51.454Z</time>
      </trkpt>
      <trkpt lat="47.31959" lon="-0.30311">
        <ele>93</ele>
        <time>2011-04-03T08:54:53Z</time>
        <extensions>
          <type>
            <highway>track</highway>
            <surface>undefined</surface>
            </type>
        </extensions>
      </trkpt>
      <trkpt lat="47.31961" lon="-0.30302">
        <ele>92.9</ele>
        <time>2011-04-03T08:54:55.350Z</time>
      </trkpt>
      <trkpt lat="47.31962" lon="-0.30293">
        <ele>92.7</ele>
        <time>2011-04-03T08:54:57.612Z</time>
      </trkpt>
      <trkpt lat="47.31964" lon="-0.30285">
        <ele>92.5</ele>
        <time>2011-04-03T08:54:59.727Z</time>
      </trkpt>
      <trkpt lat="47.31966" lon="-0.30276">
        <ele>92.2</ele>
        <time>2011-04-03T08:55:02.077Z</time>
      </trkpt>
      <trkpt lat="47.31968" lon="-0.30267">
        <ele>92.2</ele>
        <time>2011-04-03T08:55:04.427Z</time>
      </trkpt>
      <trkpt lat="47.31969" lon="-0.30258">
        <ele>92.1</ele>
        <time>2011-04-03T08:55:06.689Z</time>
      </trkpt>
      <trkpt lat="47.31971" lon="-0.30249">
        <ele>92</ele>
        <time>2011-04-03T08:55:09.039Z</time>
      </trkpt>
      <trkpt lat="47.31973" lon="-0.30241">
        <ele>92</ele>
        <time>2011-04-03T08:55:11.154Z</time>
      </trkpt>
      <trkpt lat="47.31975" lon="-0.30232">
        <ele>92</ele>
        <time>2011-04-03T08:55:13.504Z</time>
      </trkpt>
      <trkpt lat="47.31976" lon="-0.30223">
        <ele>92</ele>
        <time>2011-04-03T08:55:15.767Z</time>
      </trkpt>
      <trkpt lat="47.31978" lon="-0.30214">
        <ele>91.9</ele>
        <time>2011-04-03T08:55:18.117Z</time>
      </trkpt>
      <trkpt lat="47.3198" lon="-0.30205">
        <ele>91.8</ele>
        <time>2011-04-03T08:55:20.467Z</time>
      </trkpt>
      <trkpt lat="47.31981" lon="-0.30196">
        <ele>91.7</ele>
        <time>2011-04-03T08:55:22.730Z</time>
      </trkpt>
      <trkpt lat="47.31983" lon="-0.30188">
        <ele>91.6</ele>
        <time>2011-04-03T08:55:24.845Z</time>
      </trkpt>
      <trkpt lat="47.31985" lon="-0.30179">
        <ele>91.5</ele>
        <time>2011-04-03T08:55:27.195Z</time>
      </trkpt>
      <trkpt lat="47.31987" lon="-0.3017">
        <ele>91.5</ele>
        <time>2011-04-03T08:55:29.545Z</time>
      </trkpt>
      <trkpt lat="47.31988" lon="-0.30161">
        <ele>91.4</ele>
        <time>2011-04-03T08:55:31.808Z</time>
      </trkpt>
      <trkpt lat="47.3199" lon="-0.30152">
        <ele>91.4</ele>
        <time>2011-04-03T08:55:34.158Z</time>
      </trkpt>
      <trkpt lat="47.31992" lon="-0.30144">
        <ele>91.3</ele>
        <time>2011-04-03T08:55:36.273Z</time>
      </trkpt>
      <trkpt lat="47.31993" lon="-0.30135">
        <ele>91.2</ele>
        <time>2011-04-03T08:55:38.536Z</time>
      </trkpt>
      <trkpt lat="47.31995" lon="-0.30126">
        <ele>91.2</ele>
        <time>2011-04-03T08:55:40.886Z</time>
      </trkpt>
      <trkpt lat="47.31997" lon="-0.30117">
        <ele>91.1</ele>
        <time>2011-04-03T08:55:43.236Z</time>
      </trkpt>
      <trkpt lat="47.31999" lon="-0.30108">
        <ele>91</ele>
        <time>2011-04-03T08:55:45.586Z</time>
      </trkpt>
      <trkpt lat="47.32" lon="-0.301">
        <ele>91</ele>
        <time>2011-04-03T08:55:47.604Z</time>
      </trkpt>
      <trkpt lat="47.32002" lon="-0.30091">
        <ele>91</ele>
        <time>2011-04-03T08:55:49.954Z</time>
      </trkpt>
      <trkpt lat="47.32004" lon="-0.30082">
        <ele>91</ele>
        <time>2011-04-03T08:55:52.304Z</time>
      </trkpt>
      <trkpt lat="47.32005" lon="-0.30073">
        <ele>91</ele>
        <time>2011-04-03T08:55:54.567Z</time>
      </trkpt>
      <trkpt lat="47.32007" lon="-0.30064">
        <ele>91</ele>
        <time>2011-04-03T08:55:56.917Z</time>
      </trkpt>
      <trkpt lat="47.32009" lon="-0.30055">
        <ele>91</ele>
        <time>2011-04-03T08:55:59.268Z</time>
      </trkpt>
      <trkpt lat="47.32011" lon="-0.30047">
        <ele>91</ele>
        <time>2011-04-03T08:56:01.384Z</time>
      </trkpt>
      <trkpt lat="47.32012" lon="-0.30038">
        <ele>91</ele>
        <time>2011-04-03T08:56:03.648Z</time>
      </trkpt>
      <trkpt lat="47.32014" lon="-0.30029">
        <ele>91</ele>
        <time>2011-04-03T08:56:06Z</time>
        <extensions>
          <type>
            <highway>track</highway>
            <surface>undefined</surface>
            </type>
        </extensions>
      </trkpt>
      <trkpt lat="47.32015" lon="-0.3002">
        <ele>91.2</ele>
        <time>2011-04-03T08:56:07.352Z</time>
      </trkpt>
      <trkpt lat="47.32017" lon="-0.3001">
        <ele>91.4</ele>
        <time>2011-04-03T08:56:08.898Z</time>
      </trkpt>
      <trkpt lat="47.32018" lon="-0.30001">
        <ele>91.6</ele>
        <time>2011-04-03T08:56:10.250Z</time>
      </trkpt>
      <trkpt lat="47.3202" lon="-0.29991">
        <ele>91.7</ele>
        <time>2011-04-03T08:56:11.796Z</time>
      </trkpt>
      <trkpt lat="47.32021" lon="-0.29982">
        <ele>91.8</ele>
        <time>2011-04-03T08:56:13.148Z</time>
      </trkpt>
      <trkpt lat="47.32023" lon="-0.29972">
        <ele>91.8</ele>
        <time>2011-04-03T08:56:14.694Z</time>
      </trkpt>
      <trkpt lat="47.32024" lon="-0.29963">
        <ele>91.6</ele>
        <time>2011-04-03T08:56:16.046Z</time>
      </trkpt>
      <trkpt lat="47.32026" lon="-0.29954">
        <ele>91.3</ele>
        <time>2011-04-03T08:56:17.450Z</time>
      </trkpt>
      <trkpt lat="47.32027" lon="-0.29944">
        <ele>91</ele>
        <time>2011-04-03T08:56:18.949Z</time>
      </trkpt>
      <trkpt lat="47.32028" lon="-0.29935">
        <ele>91</ele>
        <time>2011-04-03T08:56:20.301Z</time>
      </trkpt>
      <trkpt lat="47.3203" lon="-0.29925">
        <ele>91.1</ele>
        <time>2011-04-03T08:56:21.847Z</time>
      </trkpt>
      <trkpt lat="47.32031" lon="-0.29916">
        <ele>91.2</ele>
        <time>2011-04-03T08:56:23.199Z</time>
      </trkpt>
      <trkpt lat="47.32033" lon="-0.29906">
        <ele>91.4</ele>
        <time>2011-04-03T08:56:24.745Z</time>
      </trkpt>
      <trkpt lat="47.32034" lon="-0.29897">
        <ele>91.6</ele>
        <time>2011-04-03T08:56:26.097Z</time>
      </trkpt>
      <trkpt lat="47.32036" lon="-0.29887">
        <ele>91.7</ele>
        <time>2011-04-03T08:56:27.643Z</time>
      </trkpt>
      <trkpt lat="47.32037" lon="-0.29878">
        <ele>91.8</ele>
        <time>2011-04-03T08:56:28.995Z</time>
      </trkpt>
      <trkpt lat="47.32038" lon="-0.29869">
        <ele>91.9</ele>
        <time>2011-04-03T08:56:30.347Z</time>
      </trkpt>
      <trkpt lat="47.3204" lon="-0.29859">
        <ele>92</ele>
        <time>2011-04-03T08:56:31.893Z</time>
      </trkpt>
      <trkpt lat="47.32041" lon="-0.2985">
        <ele>92</ele>
        <time>2011-04-03T08:56:33.245Z</time>
      </trkpt>
      <trkpt lat="47.32043" lon="-0.2984">
        <ele>92</ele>
        <time>2011-04-03T08:56:34.791Z</time>
      </trkpt>
      <trkpt lat="47.32044" lon="-0.29831">
        <ele>92</ele>
        <time>2011-04-03T08:56:36.143Z</time>
      </trkpt>
      <trkpt lat="47.32046" lon="-0.29821">
        <ele>92</ele>
        <time>2011-04-03T08:56:37.689Z</time>
      </trkpt>
      <trkpt lat="47.32047" lon="-0.29812">
        <ele>92</ele>
        <time>2011-04-03T08:56:39.042Z</time>
      </trkpt>
      <trkpt lat="47.32049" lon="-0.29803">
        <ele>92</ele>
        <time>2011-04-03T08:56:40.447Z</time>
      </trkpt>
      <trkpt lat="47.3205" lon="-0.29793">
        <ele>92</ele>
        <time>2011-04-03T08:56:41.946Z</time>
      </trkpt>
      <trkpt lat="47.32051" lon="-0.29784">
        <ele>92</ele>
        <time>2011-04-03T08:56:43.299Z</time>
      </trkpt>
      <trkpt lat="47.32053" lon="-0.29774">
        <ele>91.9</ele>
        <time>2011-04-03T08:56:44.846Z</time>
      </trkpt>
      <trkpt lat="47.32054" lon="-0.29765">
        <ele>91.6</ele>
        <time>2011-04-03T08:56:46.199Z</time>
      </trkpt>
      <trkpt lat="47.32056" lon="-0.29755">
        <ele>91.2</ele>
        <time>2011-04-03T08:56:47.746Z</time>
      </trkpt>
      <trkpt lat="47.32057" lon="-0.29746">
        <ele>91</ele>
        <time>2011-04-03T08:56:49.099Z</time>
      </trkpt>
      <trkpt lat="47.32059" lon="-0.29736">
        <ele>91</ele>
        <time>2011-04-03T08:56:50.646Z</time>
      </trkpt>
      <trkpt lat="47.3206" lon="-0.29727">
        <ele>91</ele>
        <time>2011-04-03T08:56:52Z</time>
        <extensions>
          <type>
            <highway>track</highway>
            <surface>undefined</surface>
            </type>
        </extensions>
      </trkpt>
      <trkpt lat="47.32063" lon="-0.29715">
        <ele>91</ele>
        <time>2011-04-03T08:56:53.621Z</time>
      </trkpt>
      <trkpt lat="47.32067" lon="-0.29703">
        <ele>91</ele>
        <time>2011-04-03T08:56:55.316Z</time>
      </trkpt>
      <trkpt lat="47.3207" lon="-0.29691">
        <ele>91.1</ele>
        <time>2011-04-03T08:56:56.937Z</time>
      </trkpt>
      <trkpt lat="47.32073" lon="-0.2968">
        <ele>91.3</ele>
        <time>2011-04-03T08:56:58.440Z</time>
      </trkpt>
      <trkpt lat="47.32076" lon="-0.29668">
        <ele>91.7</ele>
        <time>2011-04-03T08:57:00.061Z</time>
      </trkpt>
      <trkpt lat="47.3208" lon="-0.29656">
        <ele>91.5</ele>
        <time>2011-04-03T08:57:01.756Z</time>
      </trkpt>
      <trkpt lat="47.32083" lon="-0.29644">
        <ele>91.2</ele>
        <time>2011-04-03T08:57:03.377Z</time>
      </trkpt>
      <trkpt lat="47.32086" lon="-0.29632">
        <ele>91</ele>
        <time>2011-04-03T08:57:04.998Z</time>
      </trkpt>
      <trkpt lat="47.32089" lon="-0.2962">
        <ele>91</ele>
        <time>2011-04-03T08:57:06.619Z</time>
      </trkpt>
      <trkpt lat="47.32093" lon="-0.29608">
        <ele>91.1</ele>
        <time>2011-04-03T08:57:08.314Z</time>
      </trkpt>
      <trkpt lat="47.32096" lon="-0.29596">
        <ele>91.3</ele>
        <time>2011-04-03T08:57:09.935Z</time>
      </trkpt>
      <trkpt lat="47.32099" lon="-0.29585">
        <ele>91.4</ele>
        <time>2011-04-03T08:57:11.438Z</time>
      </trkpt>
      <trkpt lat="47.32102" lon="-0.29573">
        <ele>91.7</ele>
        <time>2011-04-03T08:57:13.060Z</time>
      </trkpt>
      <trkpt lat="47.32106" lon="-0.29561">
        <ele>92</ele>
        <time>2011-04-03T08:57:14.755Z</time>
      </trkpt>
      <trkpt lat="47.32109" lon="-0.29549">
        <ele>92.1</ele>
        <time>2011-04-03T08:57:16.377Z</time>
      </trkpt>
      <trkpt lat="47.32112" lon="-0.29537">
        <ele>92</ele>
        <time>2011-04-03T08:57:18Z</time>
        <extensions>
          <type>
            <highway>track</highway>
            <surface>undefined</surface>
            </type>
        </extensions>
      </trkpt>
      <trkpt lat="47.32116" lon="-0.29526">
        <ele>91.8</ele>
        <time>2011-04-03T08:57:19.450Z</time>
      </trkpt>
      <trkpt lat="47.32119" lon="-0.29516">
        <ele>91.4</ele>
        <time>2011-04-03T08:57:20.721Z</time>
      </trkpt>
      <trkpt lat="47.32123" lon="-0.29505">
        <ele>91.1</ele>
        <time>2011-04-03T08:57:22.171Z</time>
      </trkpt>
      <trkpt lat="47.32126" lon="-0.29495">
        <ele>90.9</ele>
        <time>2011-04-03T08:57:23.442Z</time>
      </trkpt>
      <trkpt lat="47.3213" lon="-0.29484">
        <ele>90.6</ele>
        <time>2011-04-03T08:57:24.893Z</time>
      </trkpt>
      <trkpt lat="47.32133" lon="-0.29473">
        <ele>90.2</ele>
        <time>2011-04-03T08:57:26.271Z</time>
      </trkpt>
      <trkpt lat="47.32137" lon="-0.29463">
        <ele>90.1</ele>
        <time>2011-04-03T08:57:27.621Z</time>
      </trkpt>
      <trkpt lat="47.3214" lon="-0.29452">
        <ele>90</ele>
        <time>2011-04-03T08:57:29Z</time>
        <extensions>
          <type>
            <highway>track</highway>
            <surface>undefined</surface>
            </type>
        </extensions>
      </trkpt>
      <trkpt lat="47.32143" lon="-0.29446">
        <ele>90</ele>
        <time>2011-04-03T08:57:29.786Z</time>
      </trkpt>
      <trkpt lat="47.32146" lon="-0.2944">
        <ele>90</ele>
        <time>2011-04-03T08:57:30.572Z</time>
      </trkpt>
      <trkpt lat="47.32148" lon="-0.29435">
        <ele>89.9</ele>
        <time>2011-04-03T08:57:31.184Z</time>
      </trkpt>
      <trkpt lat="47.32151" lon="-0.29429">
        <ele>89.8</ele>
        <time>2011-04-03T08:57:31.970Z</time>
      </trkpt>
      <trkpt lat="47.32154" lon="-0.29423">
        <ele>89.6</ele>
        <time>2011-04-03T08:57:32.756Z</time>
      </trkpt>
      <trkpt lat="47.32157" lon="-0.29417">
        <ele>89.4</ele>
        <time>2011-04-03T08:57:33.542Z</time>
      </trkpt>
      <trkpt lat="47.32159" lon="-0.29411">
        <ele>89.2</ele>
        <time>2011-04-03T08:57:34.247Z</time>
      </trkpt>
      <trkpt lat="47.32162" lon="-0.29406">
        <ele>89.1</ele>
        <time>2011-04-03T08:57:34.951Z</time>
      </trkpt>
      <trkpt lat="47.32165" lon="-0.294">
        <ele>89</ele>
        <time>2011-04-03T08:57:35.737Z</time>
      </trkpt>
      <trkpt lat="47.32168" lon="-0.29394">
        <ele>89</ele>
        <time>2011-04-03T08:57:36.523Z</time>
      </trkpt>
      <trkpt lat="47.3217" lon="-0.29388">
        <ele>88.9</ele>
        <time>2011-04-03T08:57:37.228Z</time>
      </trkpt>
      <trkpt lat="47.32173" lon="-0.29382">
        <ele>88.8</ele>
        <time>2011-04-03T08:57:38.015Z</time>
      </trkpt>
      <trkpt lat="47.32176" lon="-0.29376">
        <ele>88.7</ele>
        <time>2011-04-03T08:57:38.802Z</time>
      </trkpt>
      <trkpt lat="47.32179" lon="-0.29371">
        <ele>88.6</ele>
        <time>2011-04-03T08:57:39.506Z</time>
      </trkpt>
      <trkpt lat="47.32181" lon="-0.29365">
        <ele>88.5</ele>
        <time>2011-04-03T08:57:40.212Z</time>
      </trkpt>
      <trkpt lat="47.32184" lon="-0.29359">
        <ele>88.3</ele>
        <time>2011-04-03T08:57:41Z</time>
        <extensions>
          <type>
            <highway>track</highway>
            <surface>undefined</surface>
            </type>
        </extensions>
      </trkpt>
      <trkpt lat="47.32189" lon="-0.29351">
        <ele>87.9</ele>
        <time>2011-04-03T08:57:41.999Z</time>
      </trkpt>
      <trkpt lat="47.32195" lon="-0.29344">
        <ele>87.4</ele>
        <time>2011-04-03T08:57:43.035Z</time>
      </trkpt>
      <trkpt lat="47.322" lon="-0.29336">
        <ele>86.7</ele>
        <time>2011-04-03T08:57:44.034Z</time>
      </trkpt>
      <trkpt lat="47.32205" lon="-0.29329">
        <ele>86.2</ele>
        <time>2011-04-03T08:57:44.968Z</time>
      </trkpt>
      <trkpt lat="47.3221" lon="-0.29321">
        <ele>85.9</ele>
        <time>2011-04-03T08:57:45.968Z</time>
      </trkpt>
      <trkpt lat="47.32216" lon="-0.29313">
        <ele>85.5</ele>
        <time>2011-04-03T08:57:47.064Z</time>
      </trkpt>
      <trkpt lat="47.32221" lon="-0.29306">
        <ele>85.1</ele>
        <time>2011-04-03T08:57:47.999Z</time>
      </trkpt>
      <trkpt lat="47.32226" lon="-0.29298">
        <ele>84.9</ele>
        <time>2011-04-03T08:57:49Z</time>
        <extensions>
          <type>
            <highway>track</highway>
            <surface>undefined</surface>
            </type>
        </extensions>
      </trkpt>
      <trkpt lat="47.32229" lon="-0.29292">
        <ele>84.8</ele>
        <time>2011-04-03T08:57:49.631Z</time>
      </trkpt>
      <trkpt lat="47.32232" lon="-0.29287">
        <ele>84.6</ele>
        <time>2011-04-03T08:57:50.196Z</time>
      </trkpt>
      <trkpt lat="47.32235" lon="-0.29281">
        <ele>84.5</ele>
        <time>2011-04-03T08:57:50.827Z</time>
      </trkpt>
      <trkpt lat="47.32239" lon="-0.29275">
        <ele>84.3</ele>
        <time>2011-04-03T08:57:51.539Z</time>
      </trkpt>
      <trkpt lat="47.32242" lon="-0.29269">
        <ele>84</ele>
        <time>2011-04-03T08:57:52.170Z</time>
      </trkpt>
      <trkpt lat="47.32245" lon="-0.29264">
        <ele>83.7</ele>
        <time>2011-04-03T08:57:52.735Z</time>
      </trkpt>
      <trkpt lat="47.32248" lon="-0.29258">
        <ele>83.4</ele>
        <time>2011-04-03T08:57:53.366Z</time>
      </trkpt>
      <trkpt lat="47.32251" lon="-0.29252">
        <ele>83.1</ele>
        <time>2011-04-03T08:57:53.997Z</time>
      </trkpt>
      <trkpt lat="47.32254" lon="-0.29246">
        <ele>83</ele>
        <time>2011-04-03T08:57:54.628Z</time>
      </trkpt>
      <trkpt lat="47.32257" lon="-0.29241">
        <ele>82.9</ele>
        <time>2011-04-03T08:57:55.193Z</time>
      </trkpt>
      <trkpt lat="47.3226" lon="-0.29235">
        <ele>82.8</ele>
        <time>2011-04-03T08:57:55.824Z</time>
      </trkpt>
      <trkpt lat="47.32264" lon="-0.29229">
        <ele>82.6</ele>
        <time>2011-04-03T08:57:56.537Z</time>
      </trkpt>
      <trkpt lat="47.32267" lon="-0.29223">
        <ele>82.4</ele>
        <time>2011-04-03T08:57:57.169Z</time>
      </trkpt>
      <trkpt lat="47.3227" lon="-0.29218">
        <ele>82.2</ele>
        <time>2011-04-03T08:57:57.735Z</time>
      </trkpt>
      <trkpt lat="47.32273" lon="-0.29212">
        <ele>82.1</ele>
        <time>2011-04-03T08:57:58.367Z</time>
      </trkpt>
      <trkpt lat="47.32276" lon="-0.29206">
        <ele>82</ele>
        <time>2011-04-03T08:57:59Z</time>
        <extensions>
          <type>
            <highway>track</highway>
            <surface>undefined</surface>
            </type>
        </extensions>
      </trkpt>
      <trkpt lat="47.32279" lon="-0.29198">
        <ele>82.1</ele>
        <time>2011-04-03T08:57:59.767Z</time>
      </trkpt>
      <trkpt lat="47.32282" lon="-0.29191">
        <ele>82.3</ele>
        <time>2011-04-03T08:58:00.462Z</time>
      </trkpt>
      <trkpt lat="47.32285" lon="-0.29183">
        <ele>82.4</ele>
        <time>2011-04-03T08:58:01.230Z</time>
      </trkpt>
      <trkpt lat="47.32289" lon="-0.29176">
        <ele>82.5</ele>
        <time>2011-04-03T08:58:01.999Z</time>
      </trkpt>
      <trkpt lat="47.32292" lon="-0.29168">
        <ele>82.5</ele>
        <time>2011-04-03T08:58:02.767Z</time>
      </trkpt>
      <trkpt lat="47.32295" lon="-0.2916">
        <ele>82.5</ele>
        <time>2011-04-03T08:58:03.535Z</time>
      </trkpt>
      <trkpt lat="47.32298" lon="-0.29153">
        <ele>82.6</ele>
        <time>2011-04-03T08:58:04.231Z</time>
      </trkpt>
      <trkpt lat="47.32301" lon="-0.29145">
        <ele>82.7</ele>
        <time>2011-04-03T08:58:05Z</time>
        <extensions>
          <type>
            <highway>track</highway>
            <surface>undefined</surface>
            </type>
        </extensions>
      </trkpt>
      <trkpt lat="47.32303" lon="-0.29137">
        <ele>82.7</ele>
        <time>2011-04-03T08:58:05.664Z</time>
      </trkpt>
      <trkpt lat="47.32306" lon="-0.29129">
        <ele>82.3</ele>
        <time>2011-04-03T08:58:06.376Z</time>
      </trkpt>
      <trkpt lat="47.32308" lon="-0.29121">
        <ele>81.9</ele>
        <time>2011-04-03T08:58:07.041Z</time>
      </trkpt>
      <trkpt lat="47.32311" lon="-0.29113">
        <ele>81.6</ele>
        <time>2011-04-03T08:58:07.754Z</time>
      </trkpt>
      <trkpt lat="47.32313" lon="-0.29105">
        <ele>81.3</ele>
        <time>2011-04-03T08:58:08.419Z</time>
      </trkpt>
      <trkpt lat="47.32315" lon="-0.29097">
        <ele>81</ele>
        <time>2011-04-03T08:58:09.084Z</time>
      </trkpt>
      <trkpt lat="47.32318" lon="-0.29089">
        <ele>80.7</ele>
        <time>2011-04-03T08:58:09.797Z</time>
      </trkpt>
      <trkpt lat="47.3232" lon="-0.29081">
        <ele>80.4</ele>
        <time>2011-04-03T08:58:10.462Z</time>
      </trkpt>
      <trkpt lat="47.32322" lon="-0.29072">
        <ele>80</ele>
        <time>2011-04-03T08:58:11.200Z</time>
      </trkpt>
      <trkpt lat="47.32325" lon="-0.29064">
        <ele>79.7</ele>
        <time>2011-04-03T08:58:11.913Z</time>
      </trkpt>
      <trkpt lat="47.32327" lon="-0.29056">
        <ele>79.4</ele>
        <time>2011-04-03T08:58:12.578Z</time>
      </trkpt>
      <trkpt lat="47.3233" lon="-0.29048">
        <ele>78.9</ele>
        <time>2011-04-03T08:58:13.291Z</time>
      </trkpt>
      <trkpt lat="47.32332" lon="-0.2904">
        <ele>78.2</ele>
        <time>2011-04-03T08:58:13.956Z</time>
      </trkpt>
      <trkpt lat="47.32334" lon="-0.29032">
        <ele>77.6</ele>
        <time>2011-04-03T08:58:14.621Z</time>
      </trkpt>
      <trkpt lat="47.32337" lon="-0.29024">
        <ele>77.3</ele>
        <time>2011-04-03T08:58:15.334Z</time>
      </trkpt>
      <trkpt lat="47.32339" lon="-0.29016">
        <ele>77.2</ele>
        <time>2011-04-03T08:58:16Z</time>
        <extensions>
          <type>
            <highway>track</highway>
            <surface>undefined</surface>
            </type>
        </extensions>
      </trkpt>
      <trkpt lat="47.3234" lon="-0.29009">
        <ele>76.8</ele>
        <time>2011-04-03T08:58:16.545Z</time>
      </trkpt>
      <trkpt lat="47.32341" lon="-0.29002">
        <ele>76.4</ele>
        <time>2011-04-03T08:58:17.090Z</time>
      </trkpt>
      <trkpt lat="47.32341" lon="-0.28994">
        <ele>76.2</ele>
        <time>2011-04-03T08:58:17.700Z</time>
      </trkpt>
      <trkpt lat="47.32342" lon="-0.28987">
        <ele>76</ele>
        <time>2011-04-03T08:58:18.246Z</time>
      </trkpt>
      <trkpt lat="47.32343" lon="-0.2898">
        <ele>75.8</ele>
        <time>2011-04-03T08:58:18.792Z</time>
      </trkpt>
      <trkpt lat="47.32344" lon="-0.28973">
        <ele>75.5</ele>
        <time>2011-04-03T08:58:19.338Z</time>
      </trkpt>
      <trkpt lat="47.32345" lon="-0.28965">
        <ele>75.4</ele>
        <time>2011-04-03T08:58:19.958Z</time>
      </trkpt>
      <trkpt lat="47.32346" lon="-0.28958">
        <ele>75.2</ele>
        <time>2011-04-03T08:58:20.504Z</time>
      </trkpt>
      <trkpt lat="47.32346" lon="-0.28951">
        <ele>75.1</ele>
        <time>2011-04-03T08:58:21.038Z</time>
      </trkpt>
      <trkpt lat="47.32347" lon="-0.28944">
        <ele>74.9</ele>
        <time>2011-04-03T08:58:21.584Z</time>
      </trkpt>
      <trkpt lat="47.32348" lon="-0.28936">
        <ele>74.6</ele>
        <time>2011-04-03T08:58:22.205Z</time>
      </trkpt>
      <trkpt lat="47.32349" lon="-0.28929">
        <ele>74.3</ele>
        <time>2011-04-03T08:58:22.751Z</time>
      </trkpt>
      <trkpt lat="47.3235" lon="-0.28922">
        <ele>74</ele>
        <time>2011-04-03T08:58:23.297Z</time>
      </trkpt>
      <trkpt lat="47.3235" lon="-0.28915">
        <ele>73.7</ele>
        <time>2011-04-03T08:58:23.831Z</time>
      </trkpt>
      <trkpt lat="47.32351" lon="-0.28907">
        <ele>73.4</ele>
        <time>2011-04-03T08:58:24.453Z</time>
      </trkpt>
      <trkpt lat="47.32352" lon="-0.289">
        <ele>73</ele>
        <time>2011-04-03T08:58:25Z</time>
        <extensions>
          <type>
            <highway>track</highway>
            <surface>undefined</surface>
            </type>
        </extensions>
      </trkpt>
      <trkpt lat="47.32353" lon="-0.28889">
        <ele>72.4</ele>
        <time>2011-04-03T08:58:25.868Z</time>
      </trkpt>
      <trkpt lat="47.32353" lon="-0.28878">
        <ele>72.3</ele>
        <time>2011-04-03T08:58:26.728Z</time>
      </trkpt>
      <trkpt lat="47.32354" lon="-0.28867">
        <ele>72.3</ele>
        <time>2011-04-03T08:58:27.596Z</time>
      </trkpt>
      <trkpt lat="47.32355" lon="-0.28856">
        <ele>72.1</ele>
        <time>2011-04-03T08:58:28.464Z</time>
      </trkpt>
      <trkpt lat="47.32355" lon="-0.28844">
        <ele>71.9</ele>
        <time>2011-04-03T08:58:29.402Z</time>
      </trkpt>
      <trkpt lat="47.32356" lon="-0.28833">
        <ele>71.6</ele>
        <time>2011-04-03T08:58:30.270Z</time>
      </trkpt>
      <trkpt lat="47.32356" lon="-0.28822">
        <ele>72.1</ele>
        <time>2011-04-03T08:58:31.131Z</time>
      </trkpt>
      <trkpt lat="47.32357" lon="-0.28811">
        <ele>72.5</ele>
        <time>2011-04-03T08:58:32Z</time>
        <extensions>
          <type>
            <highway>undefined</highway>
            <surface>undefined</surface>
            </type>
        </extensions>
      </trkpt>
      <trkpt lat="47.32357" lon="-0.288">
        <ele>72.5</ele>
        <time>2011-04-03T08:58:32.964Z</time>
      </trkpt>
      <trkpt lat="47.32356" lon="-0.28788">
        <ele>72.1</ele>
        <time>2011-04-03T08:58:34.023Z</time>
      </trkpt>
      <trkpt lat="47.32356" lon="-0.28777">
        <ele>71.8</ele>
        <time>2011-04-03T08:58:34.987Z</time>
      </trkpt>
      <trkpt lat="47.32356" lon="-0.28766">
        <ele>71.8</ele>
        <time>2011-04-03T08:58:35.951Z</time>
      </trkpt>
      <trkpt lat="47.32355" lon="-0.28754">
        <ele>71.8</ele>
        <time>2011-04-03T08:58:37.011Z</time>
      </trkpt>
      <trkpt lat="47.32355" lon="-0.28743">
        <ele>71.6</ele>
        <time>2011-04-03T08:58:37.975Z</time>
      </trkpt>
      <trkpt lat="47.32354" lon="-0.28731">
        <ele>71.3</ele>
        <time>2011-04-03T08:58:39.035Z</time>
      </trkpt>
      <trkpt lat="47.32354" lon="-0.2872">
        <ele>71</ele>
        <time>2011-04-03T08:58:40Z</time>
        <extensions>
          <type>
            <highway>undefined</highway>
            <surface>undefined</surface>
            </type>
        </extensions>
      </trkpt>
      <trkpt lat="47.32355" lon="-0.2871">
        <ele>71</ele>
        <time>2011-04-03T08:58:40.875Z</time>
      </trkpt>
      <trkpt lat="47.32356" lon="-0.287">
        <ele>71</ele>
        <time>2011-04-03T08:58:41.750Z</time>
      </trkpt>
      <trkpt lat="47.32357" lon="-0.2869">
        <ele>71</ele>
        <time>2011-04-03T08:58:42.625Z</time>
      </trkpt>
      <trkpt lat="47.32358" lon="-0.2868">
        <ele>70.9</ele>
        <time>2011-04-03T08:58:43.500Z</time>
      </trkpt>
      <trkpt lat="47.32359" lon="-0.2867">
        <ele>70.9</ele>
        <time>2011-04-03T08:58:44.375Z</time>
      </trkpt>
      <trkpt lat="47.3236" lon="-0.2866">
        <ele>70.7</ele>
        <time>2011-04-03T08:58:45.250Z</time>
      </trkpt>
      <trkpt lat="47.32361" lon="-0.2865">
        <ele>70.4</ele>
        <time>2011-04-03T08:58:46.125Z</time>
      </trkpt>
      <trkpt lat="47.32362" lon="-0.2864">
        <ele>70</ele>
        <time>2011-04-03T08:58:47Z</time>
        <extensions>
          <type>
            <highway>unclassified</highway>
            <surface>undefined</surface>
            </type>
        </extensions>
      </trkpt>
      <trkpt lat="47.32365" lon="-0.28628">
        <ele>69.4</ele>
        <time>2011-04-03T08:58:48.090Z</time>
      </trkpt>
      <trkpt lat="47.32368" lon="-0.28615">
        <ele>68.9</ele>
        <time>2011-04-03T08:58:49.260Z</time>
      </trkpt>
      <trkpt lat="47.32372" lon="-0.28603">
        <ele>68.4</ele>
        <time>2011-04-03T08:58:50.400Z</time>
      </trkpt>
      <trkpt lat="47.32375" lon="-0.28591">
        <ele>68.1</ele>
        <time>2011-04-03T08:58:51.490Z</time>
      </trkpt>
      <trkpt lat="47.32378" lon="-0.28578">
        <ele>67.8</ele>
        <time>2011-04-03T08:58:52.661Z</time>
      </trkpt>
      <trkpt lat="47.32381" lon="-0.28566">
        <ele>67.4</ele>
        <time>2011-04-03T08:58:53.751Z</time>
      </trkpt>
      <trkpt lat="47.32384" lon="-0.28554">
        <ele>67</ele>
        <time>2011-04-03T08:58:54.841Z</time>
      </trkpt>
      <trkpt lat="47.32388" lon="-0.28542">
        <ele>67</ele>
        <time>2011-04-03T08:58:55.981Z</time>
      </trkpt>
      <trkpt lat="47.32391" lon="-0.28529">
        <ele>66.9</ele>
        <time>2011-04-03T08:58:57.152Z</time>
      </trkpt>
      <trkpt lat="47.32394" lon="-0.28517">
        <ele>66.5</ele>
        <time>2011-04-03T08:58:58.243Z</time>
      </trkpt>
      <trkpt lat="47.32397" lon="-0.28505">
        <ele>66.1</ele>
        <time>2011-04-03T08:58:59.334Z</time>
      </trkpt>
      <trkpt lat="47.324" lon="-0.28492">
        <ele>65.8</ele>
        <time>2011-04-03T08:59:00.505Z</time>
      </trkpt>
      <trkpt lat="47.32403" lon="-0.2848">
        <ele>65.7</ele>
        <time>2011-04-03T08:59:01.596Z</time>
      </trkpt>
      <trkpt lat="47.32407" lon="-0.28468">
        <ele>65.5</ele>
        <time>2011-04-03T08:59:02.736Z</time>
      </trkpt>
      <trkpt lat="47.3241" lon="-0.28455">
        <ele>65.3</ele>
        <time>2011-04-03T08:59:03.908Z</time>
      </trkpt>
      <trkpt lat="47.32413" lon="-0.28443">
        <ele>65</ele>
        <time>2011-04-03T08:59:05Z</time>
        <extensions>
          <type>
            <highway>unclassified</highway>
            <surface>undefined</surface>
            </type>
        </extensions>
      </trkpt>
      <trkpt lat="47.32418" lon="-0.28442">
        <ele>65</ele>
        <time>2011-04-03T08:59:05.662Z</time>
      </trkpt>
      <trkpt lat="47.32423" lon="-0.2844">
        <ele>64.8</ele>
        <time>2011-04-03T08:59:06.341Z</time>
      </trkpt>
      <trkpt lat="47.32428" lon="-0.28439">
        <ele>64.6</ele>
        <time>2011-04-03T08:59:07.003Z</time>
      </trkpt>
      <trkpt lat="47.32433" lon="-0.28438">
        <ele>64.4</ele>
        <time>2011-04-03T08:59:07.665Z</time>
      </trkpt>
      <trkpt lat="47.32438" lon="-0.28436">
        <ele>64.2</ele>
        <time>2011-04-03T08:59:08.344Z</time>
      </trkpt>
      <trkpt lat="47.32442" lon="-0.28435">
        <ele>64.1</ele>
        <time>2011-04-03T08:59:08.876Z</time>
      </trkpt>
      <trkpt lat="47.32447" lon="-0.28434">
        <ele>63.9</ele>
        <time>2011-04-03T08:59:09.538Z</time>
      </trkpt>
      <trkpt lat="47.32452" lon="-0.28432">
        <ele>63.7</ele>
        <time>2011-04-03T08:59:10.217Z</time>
      </trkpt>
      <trkpt lat="47.32457" lon="-0.28431">
        <ele>63.5</ele>
        <time>2011-04-03T08:59:10.879Z</time>
      </trkpt>
      <trkpt lat="47.32462" lon="-0.2843">
        <ele>63.4</ele>
        <time>2011-04-03T08:59:11.541Z</time>
      </trkpt>
      <trkpt lat="47.32467" lon="-0.28428">
        <ele>63.2</ele>
        <time>2011-04-03T08:59:12.220Z</time>
      </trkpt>
      <trkpt lat="47.32472" lon="-0.28427">
        <ele>63</ele>
        <time>2011-04-03T08:59:12.882Z</time>
      </trkpt>
      <trkpt lat="47.32477" lon="-0.28426">
        <ele>62.7</ele>
        <time>2011-04-03T08:59:13.544Z</time>
      </trkpt>
      <trkpt lat="47.32482" lon="-0.28424">
        <ele>62.4</ele>
        <time>2011-04-03T08:59:14.223Z</time>
      </trkpt>
      <trkpt lat="47.32487" lon="-0.28423">
        <ele>62.1</ele>
        <time>2011-04-03T08:59:14.885Z</time>
      </trkpt>
      <trkpt lat="47.32492" lon="-0.28422">
        <ele>61.7</ele>
        <time>2011-04-03T08:59:15.547Z</time>
      </trkpt>
      <trkpt lat="47.32496" lon="-0.2842">
        <ele>61.4</ele>
        <time>2011-04-03T08:59:16.101Z</time>
      </trkpt>
      <trkpt lat="47.32501" lon="-0.28419">
        <ele>61.1</ele>
        <time>2011-04-03T08:59:16.763Z</time>
      </trkpt>
      <trkpt lat="47.32506" lon="-0.28418">
        <ele>61</ele>
        <time>2011-04-03T08:59:17.425Z</time>
      </trkpt>
      <trkpt lat="47.32511" lon="-0.28416">
        <ele>61</ele>
        <time>2011-04-03T08:59:18.105Z</time>
      </trkpt>
      <trkpt lat="47.32516" lon="-0.28415">
        <ele>61</ele>
        <time>2011-04-03T08:59:18.767Z</time>
      </trkpt>
      <trkpt lat="47.32521" lon="-0.28413">
        <ele>60.9</ele>
        <time>2011-04-03T08:59:19.447Z</time>
      </trkpt>
      <trkpt lat="47.32526" lon="-0.28412">
        <ele>60.8</ele>
        <time>2011-04-03T08:59:20.109Z</time>
      </trkpt>
      <trkpt lat="47.32531" lon="-0.28411">
        <ele>60.8</ele>
        <time>2011-04-03T08:59:20.771Z</time>
      </trkpt>
      <trkpt lat="47.32536" lon="-0.28409">
        <ele>60.8</ele>
        <time>2011-04-03T08:59:21.451Z</time>
      </trkpt>
      <trkpt lat="47.32541" lon="-0.28408">
        <ele>60.8</ele>
        <time>2011-04-03T08:59:22.113Z</time>
      </trkpt>
      <trkpt lat="47.32546" lon="-0.28407">
        <ele>60.9</ele>
        <time>2011-04-03T08:59:22.775Z</time>
      </trkpt>
      <trkpt lat="47.3255" lon="-0.28405">
        <ele>60.9</ele>
        <time>2011-04-03T08:59:23.330Z</time>
      </trkpt>
      <trkpt lat="47.32555" lon="-0.28404">
        <ele>61</ele>
        <time>2011-04-03T08:59:23.993Z</time>
      </trkpt>
      <trkpt lat="47.3256" lon="-0.28403">
        <ele>61.1</ele>
        <time>2011-04-03T08:59:24.656Z</time>
      </trkpt>
      <trkpt lat="47.32565" lon="-0.28401">
        <ele>61.2</ele>
        <time>2011-04-03T08:59:25.336Z</time>
      </trkpt>
      <trkpt lat="47.3257" lon="-0.284">
        <ele>61.2</ele>
        <time>2011-04-03T08:59:26Z</time>
        <extensions>
          <type>
            <highway>unclassified</highway>
            <surface>undefined</surface>
            </type>
        </extensions>
      </trkpt>
      <trkpt lat="47.32577" lon="-0.28397">
        <ele>61.2</ele>
        <time>2011-04-03T08:59:27.131Z</time>
      </trkpt>
      <trkpt lat="47.32584" lon="-0.28395">
        <ele>61.2</ele>
        <time>2011-04-03T08:59:28.237Z</time>
      </trkpt>
      <trkpt lat="47.32591" lon="-0.28392">
        <ele>61.4</ele>
        <time>2011-04-03T08:59:29.368Z</time>
      </trkpt>
      <trkpt lat="47.32598" lon="-0.28389">
        <ele>61.5</ele>
        <time>2011-04-03T08:59:30.499Z</time>
      </trkpt>
      <trkpt lat="47.32605" lon="-0.28386">
        <ele>61.8</ele>
        <time>2011-04-03T08:59:31.630Z</time>
      </trkpt>
      <trkpt lat="47.32612" lon="-0.28384">
        <ele>62.1</ele>
        <time>2011-04-03T08:59:32.736Z</time>
      </trkpt>
      <trkpt lat="47.32619" lon="-0.28381">
        <ele>62.5</ele>
        <time>2011-04-03T08:59:33.868Z</time>
      </trkpt>
      <trkpt lat="47.32626" lon="-0.28378">
        <ele>62.9</ele>
        <time>2011-04-03T08:59:35Z</time>
        <extensions>
          <type>
            <highway>unclassified</highway>
            <surface>undefined</surface>
            </type>
        </extensions>
      </trkpt>
      <trkpt lat="47.32631" lon="-0.28382">
        <ele>63.2</ele>
        <time>2011-04-03T08:59:36.117Z</time>
      </trkpt>
      <trkpt lat="47.32635" lon="-0.28385">
        <ele>63.6</ele>
        <time>2011-04-03T08:59:37Z</time>
        <extensions>
          <type>
            <highway>residential</highway>
            <surface>undefined</surface>
            </type>
        </extensions>
      </trkpt>
      <trkpt lat="47.32639" lon="-0.28392">
        <ele>63.8</ele>
        <time>2011-04-03T08:59:38.296Z</time>
      </trkpt>
      <trkpt lat="47.32642" lon="-0.28399">
        <ele>64</ele>
        <time>2011-04-03T08:59:39.468Z</time>
      </trkpt>
      <trkpt lat="47.32646" lon="-0.28406">
        <ele>64.4</ele>
        <time>2011-04-03T08:59:40.764Z</time>
      </trkpt>
      <trkpt lat="47.3265" lon="-0.28413">
        <ele>64.9</ele>
        <time>2011-04-03T08:59:42.060Z</time>
      </trkpt>
      <trkpt lat="47.32653" lon="-0.2842">
        <ele>65.6</ele>
        <time>2011-04-03T08:59:43.233Z</time>
      </trkpt>
      <trkpt lat="47.32657" lon="-0.28427">
        <ele>66.4</ele>
        <time>2011-04-03T08:59:44.529Z</time>
      </trkpt>
      <trkpt lat="47.3266" lon="-0.28434">
        <ele>67.1</ele>
        <time>2011-04-03T08:59:45.702Z</time>
      </trkpt>
      <trkpt lat="47.32664" lon="-0.28441">
        <ele>67.6</ele>
        <time>2011-04-03T08:59:47Z</time>
        <extensions>
          <type>
            <highway>residential</highway>
            <surface>undefined</surface>
            </type>
        </extensions>
      </trkpt>
      <trkpt lat="47.32671" lon="-0.28447">
        <ele>68.4</ele>
        <time>2011-04-03T08:59:49.160Z</time>
      </trkpt>
      <trkpt lat="47.32677" lon="-0.28452">
        <ele>69.1</ele>
        <time>2011-04-03T08:59:51Z</time>
        <extensions>
          <type>
            <highway>unclassified</highway>
            <surface>asphalt</surface>
            </type>
        </extensions>
      </trkpt>
      <trkpt lat="47.32685" lon="-0.28451">
        <ele>70</ele>
        <time>2011-04-03T08:59:53.939Z</time>
      </trkpt>
      <trkpt lat="47.32693" lon="-0.28449">
        <ele>70.9</ele>
        <time>2011-04-03T08:59:56.909Z</time>
      </trkpt>
      <trkpt lat="47.32701" lon="-0.28448">
        <ele>71.5</ele>
        <time>2011-04-03T08:59:59.848Z</time>
      </trkpt>
      <trkpt lat="47.3271" lon="-0.28446">
        <ele>72.1</ele>
        <time>2011-04-03T09:00:03.180Z</time>
      </trkpt>
      <trkpt lat="47.32718" lon="-0.28445">
        <ele>72.7</ele>
        <time>2011-04-03T09:00:06.119Z</time>
      </trkpt>
      <trkpt lat="47.32726" lon="-0.28443">
        <ele>73.7</ele>
        <time>2011-04-03T09:00:09.089Z</time>
      </trkpt>
      <trkpt lat="47.32734" lon="-0.28442">
        <ele>75</ele>
        <time>2011-04-03T09:00:12.028Z</time>
      </trkpt>
      <trkpt lat="47.32742" lon="-0.2844">
        <ele>76.2</ele>
        <time>2011-04-03T09:00:15Z</time>
        <extensions>
          <type>
            <highway>unclassified</highway>
            <surface>asphalt</surface>
            </type>
        </extensions>
      </trkpt>
      <trkpt lat="47.32748" lon="-0.28438">
        <ele>77.2</ele>
        <time>2011-04-03T09:00:16.868Z</time>
      </trkpt>
      <trkpt lat="47.32754" lon="-0.28436">
        <ele>78</ele>
        <time>2011-04-03T09:00:18.736Z</time>
      </trkpt>
      <trkpt lat="47.3276" lon="-0.28434">
        <ele>78.6</ele>
        <time>2011-04-03T09:00:20.604Z</time>
      </trkpt>
      <trkpt lat="47.32766" lon="-0.28432">
        <ele>79.1</ele>
        <time>2011-04-03T09:00:22.472Z</time>
      </trkpt>
      <trkpt lat="47.32772" lon="-0.28429">
        <ele>79.6</ele>
        <time>2011-04-03T09:00:24.395Z</time>
      </trkpt>
      <trkpt lat="47.32778" lon="-0.28427">
        <ele>80</ele>
        <time>2011-04-03T09:00:26.263Z</time>
      </trkpt>
      <trkpt lat="47.32784" lon="-0.28425">
        <ele>80.2</ele>
        <time>2011-04-03T09:00:28.131Z</time>
      </trkpt>
      <trkpt lat="47.3279" lon="-0.28423">
        <ele>80.4</ele>
        <time>2011-04-03T09:00:29.999Z</time>
      </trkpt>
      <trkpt lat="47.32796" lon="-0.28421">
        <ele>80.7</ele>
        <time>2011-04-03T09:00:31.867Z</time>
      </trkpt>
      <trkpt lat="47.32802" lon="-0.28419">
        <ele>80.9</ele>
        <time>2011-04-03T09:00:33.735Z</time>
      </trkpt>
      <trkpt lat="47.32808" lon="-0.28417">
        <ele>80.9</ele>
        <time>2011-04-03T09:00:35.603Z</time>
      </trkpt>
      <trkpt lat="47.32814" lon="-0.28415">
        <ele>80.7</ele>
        <time>2011-04-03T09:00:37.471Z</time>
      </trkpt>
      <trkpt lat="47.3282" lon="-0.28412">
        <ele>80.4</ele>
        <time>2011-04-03T09:00:39.395Z</time>
      </trkpt>
      <trkpt lat="47.32826" lon="-0.2841">
        <ele>80.1</ele>
        <time>2011-04-03T09:00:41.263Z</time>
      </trkpt>
      <trkpt lat="47.32832" lon="-0.28408">
        <ele>79.8</ele>
        <time>2011-04-03T09:00:43.131Z</time>
      </trkpt>
      <trkpt lat="47.32838" lon="-0.28406">
        <ele>79.4</ele>
        <time>2011-04-03T09:00:45Z</time>
        <extensions>
          <type>
            <highway>unclassified</highway>
            <surface>asphalt</surface>
            </type>
        </extensions>
      </trkpt>
      <trkpt lat="47.32843" lon="-0.28406">
        <ele>79.3</ele>
        <time>2011-04-03T09:00:45.821Z</time>
      </trkpt>
      <trkpt lat="47.32848" lon="-0.28406">
        <ele>79.1</ele>
        <time>2011-04-03T09:00:46.642Z</time>
      </trkpt>
      <trkpt lat="47.32853" lon="-0.28406">
        <ele>78.9</ele>
        <time>2011-04-03T09:00:47.463Z</time>
      </trkpt>
      <trkpt lat="47.32858" lon="-0.28407">
        <ele>78.8</ele>
        <time>2011-04-03T09:00:48.292Z</time>
      </trkpt>
      <trkpt lat="47.32863" lon="-0.28407">
        <ele>78.6</ele>
        <time>2011-04-03T09:00:49.114Z</time>
      </trkpt>
      <trkpt lat="47.32868" lon="-0.28407">
        <ele>78.3</ele>
        <time>2011-04-03T09:00:49.936Z</time>
      </trkpt>
      <trkpt lat="47.32873" lon="-0.28407">
        <ele>78.1</ele>
        <time>2011-04-03T09:00:50.758Z</time>
      </trkpt>
      <trkpt lat="47.32878" lon="-0.28407">
        <ele>77.9</ele>
        <time>2011-04-03T09:00:51.580Z</time>
      </trkpt>
      <trkpt lat="47.32882" lon="-0.28407">
        <ele>77.6</ele>
        <time>2011-04-03T09:00:52.237Z</time>
      </trkpt>
      <trkpt lat="47.32887" lon="-0.28407">
        <ele>77.4</ele>
        <time>2011-04-03T09:00:53.059Z</time>
      </trkpt>
      <trkpt lat="47.32892" lon="-0.28407">
        <ele>77.2</ele>
        <time>2011-04-03T09:00:53.881Z</time>
      </trkpt>
      <trkpt lat="47.32897" lon="-0.28408">
        <ele>77</ele>
        <time>2011-04-03T09:00:54.710Z</time>
      </trkpt>
      <trkpt lat="47.32902" lon="-0.28408">
        <ele>76.9</ele>
        <time>2011-04-03T09:00:55.532Z</time>
      </trkpt>
      <trkpt lat="47.32907" lon="-0.28408">
        <ele>76.7</ele>
        <time>2011-04-03T09:00:56.354Z</time>
      </trkpt>
      <trkpt lat="47.32912" lon="-0.28408">
        <ele>76.5</ele>
        <time>2011-04-03T09:00:57.177Z</time>
      </trkpt>
      <trkpt lat="47.32917" lon="-0.28408">
        <ele>76.3</ele>
        <time>2011-04-03T09:00:58Z</time>
        <extensions>
          <type>
            <highway>track</highway>
            <surface>undefined</surface>
            </type>
        </extensions>
      </trkpt>
      <trkpt lat="47.32923" lon="-0.28414">
        <ele>76.2</ele>
        <time>2011-04-03T09:00:59.429Z</time>
      </trkpt>
      <trkpt lat="47.32928" lon="-0.2842">
        <ele>75.8</ele>
        <time>2011-04-03T09:01:00.700Z</time>
      </trkpt>
      <trkpt lat="47.32934" lon="-0.28426">
        <ele>75.5</ele>
        <time>2011-04-03T09:01:02.129Z</time>
      </trkpt>
      <trkpt lat="47.3294" lon="-0.28432">
        <ele>75.4</ele>
        <time>2011-04-03T09:01:03.558Z</time>
      </trkpt>
      <trkpt lat="47.32945" lon="-0.28438">
        <ele>75.5</ele>
        <time>2011-04-03T09:01:04.829Z</time>
      </trkpt>
      <trkpt lat="47.32951" lon="-0.28444">
        <ele>75.5</ele>
        <time>2011-04-03T09:01:06.258Z</time>
      </trkpt>
      <trkpt lat="47.32957" lon="-0.2845">
        <ele>75.5</ele>
        <time>2011-04-03T09:01:07.687Z</time>
      </trkpt>
      <trkpt lat="47.32963" lon="-0.28456">
        <ele>75.6</ele>
        <time>2011-04-03T09:01:09.116Z</time>
      </trkpt>
      <trkpt lat="47.32968" lon="-0.28461">
        <ele>75.9</ele>
        <time>2011-04-03T09:01:10.307Z</time>
      </trkpt>
      <trkpt lat="47.32974" lon="-0.28467">
        <ele>76.3</ele>
        <time>2011-04-03T09:01:11.736Z</time>
      </trkpt>
      <trkpt lat="47.3298" lon="-0.28473">
        <ele>76.3</ele>
        <time>2011-04-03T09:01:13.166Z</time>
      </trkpt>
      <trkpt lat="47.32985" lon="-0.28479">
        <ele>76.1</ele>
        <time>2011-04-03T09:01:14.437Z</time>
      </trkpt>
      <trkpt lat="47.32991" lon="-0.28485">
        <ele>76.1</ele>
        <time>2011-04-03T09:01:15.867Z</time>
      </trkpt>
      <trkpt lat="47.32997" lon="-0.28491">
        <ele>76.2</ele>
        <time>2011-04-03T09:01:17.297Z</time>
      </trkpt>
      <trkpt lat="47.33002" lon="-0.28497">
        <ele>76.5</ele>
        <time>2011-04-03T09:01:18.569Z</time>
      </trkpt>
      <trkpt lat="47.33008" lon="-0.28503">
        <ele>76.2</ele>
        <time>2011-04-03T09:01:20Z</time>
        <extensions>
          <type>
            <highway>track</highway>
            <surface>undefined</surface>
            </type>
        </extensions>
      </trkpt>
      <trkpt lat="47.33013" lon="-0.28509">
        <ele>75.9</ele>
        <time>2011-04-03T09:01:21.427Z</time>
      </trkpt>
      <trkpt lat="47.33018" lon="-0.28515">
        <ele>75.6</ele>
        <time>2011-04-03T09:01:22.854Z</time>
      </trkpt>
      <trkpt lat="47.33022" lon="-0.28521">
        <ele>75.3</ele>
        <time>2011-04-03T09:01:24.117Z</time>
      </trkpt>
      <trkpt lat="47.33027" lon="-0.28527">
        <ele>75</ele>
        <time>2011-04-03T09:01:25.544Z</time>
      </trkpt>
      <trkpt lat="47.33032" lon="-0.28532">
        <ele>75</ele>
        <time>2011-04-03T09:01:26.881Z</time>
      </trkpt>
      <trkpt lat="47.33037" lon="-0.28538">
        <ele>74.9</ele>
        <time>2011-04-03T09:01:28.308Z</time>
      </trkpt>
      <trkpt lat="47.33041" lon="-0.28544">
        <ele>74.6</ele>
        <time>2011-04-03T09:01:29.571Z</time>
      </trkpt>
      <trkpt lat="47.33046" lon="-0.2855">
        <ele>74.2</ele>
        <time>2011-04-03T09:01:31Z</time>
        <extensions>
          <type>
            <highway>track</highway>
            <surface>undefined</surface>
            </type>
        </extensions>
      </trkpt>
      <trkpt lat="47.33051" lon="-0.28548">
        <ele>73.6</ele>
        <time>2011-04-03T09:01:32.071Z</time>
      </trkpt>
      <trkpt lat="47.33055" lon="-0.28545">
        <ele>73.1</ele>
        <time>2011-04-03T09:01:33Z</time>
        <extensions>
          <type>
            <highway>track</highway>
            <surface>grass</surface>
            </type>
        </extensions>
      </trkpt>
      <trkpt lat="47.33059" lon="-0.28539">
        <ele>72.5</ele>
        <time>2011-04-03T09:01:34.089Z</time>
      </trkpt>
      <trkpt lat="47.33064" lon="-0.28533">
        <ele>71.9</ele>
        <time>2011-04-03T09:01:35.320Z</time>
      </trkpt>
      <trkpt lat="47.33068" lon="-0.28527">
        <ele>71.2</ele>
        <time>2011-04-03T09:01:36.409Z</time>
      </trkpt>
      <trkpt lat="47.33072" lon="-0.28521">
        <ele>70.5</ele>
        <time>2011-04-03T09:01:37.498Z</time>
      </trkpt>
      <trkpt lat="47.33076" lon="-0.28515">
        <ele>69.9</ele>
        <time>2011-04-03T09:01:38.588Z</time>
      </trkpt>
      <trkpt lat="47.33081" lon="-0.28509">
        <ele>69.3</ele>
        <time>2011-04-03T09:01:39.819Z</time>
      </trkpt>
      <trkpt lat="47.33085" lon="-0.28503">
        <ele>68.8</ele>
        <time>2011-04-03T09:01:40.909Z</time>
      </trkpt>
      <trkpt lat="47.33089" lon="-0.28497">
        <ele>68.4</ele>
        <time>2011-04-03T09:01:42Z</time>
        <extensions>
          <type>
            <highway>track</highway>
            <surface>grass</surface>
            </type>
        </extensions>
      </trkpt>
      <trkpt lat="47.33093" lon="-0.28494">
        <ele>68</ele>
        <time>2011-04-03T09:01:42.962Z</time>
      </trkpt>
      <trkpt lat="47.33097" lon="-0.2849">
        <ele>67.7</ele>
        <time>2011-04-03T09:01:44Z</time>
        <extensions>
          <type>
            <highway>track</highway>
            <surface>grass</surface>
            </type>
        </extensions>
      </trkpt>
      <trkpt lat="47.33102" lon="-0.2849">
        <ele>67.3</ele>
        <time>2011-04-03T09:01:44.828Z</time>
      </trkpt>
      <trkpt lat="47.33106" lon="-0.28489">
        <ele>66.9</ele>
        <time>2011-04-03T09:01:45.499Z</time>
      </trkpt>
      <trkpt lat="47.33111" lon="-0.28489">
        <ele>66.5</ele>
        <time>2011-04-03T09:01:46.327Z</time>
      </trkpt>
      <trkpt lat="47.33115" lon="-0.28488">
        <ele>65.9</ele>
        <time>2011-04-03T09:01:47Z</time>
        <extensions>
          <type>
            <highway>track</highway>
            <surface>grass</surface>
            </type>
        </extensions>
      </trkpt>
      <trkpt lat="47.33121" lon="-0.28492">
        <ele>64.8</ele>
        <time>2011-04-03T09:01:47.982Z</time>
      </trkpt>
      <trkpt lat="47.33127" lon="-0.28496">
        <ele>63.8</ele>
        <time>2011-04-03T09:01:48.964Z</time>
      </trkpt>
      <trkpt lat="47.33133" lon="-0.285">
        <ele>62.8</ele>
        <time>2011-04-03T09:01:49.947Z</time>
      </trkpt>
      <trkpt lat="47.3314" lon="-0.28504">
        <ele>61.7</ele>
        <time>2011-04-03T09:01:51.067Z</time>
      </trkpt>
      <trkpt lat="47.33146" lon="-0.28508">
        <ele>60.6</ele>
        <time>2011-04-03T09:01:52.050Z</time>
      </trkpt>
      <trkpt lat="47.33152" lon="-0.28512">
        <ele>59.4</ele>
        <time>2011-04-03T09:01:53.033Z</time>
      </trkpt>
      <trkpt lat="47.33158" lon="-0.28516">
        <ele>58.4</ele>
        <time>2011-04-03T09:01:54.016Z</time>
      </trkpt>
      <trkpt lat="47.33164" lon="-0.2852">
        <ele>57.4</ele>
        <time>2011-04-03T09:01:55Z</time>
        <extensions>
          <type>
            <highway>residential</highway>
            <surface>asphalt</surface>
            </type>
        </extensions>
      </trkpt>
      <trkpt lat="47.33171" lon="-0.28523">
        <ele>56.7</ele>
        <time>2011-04-03T09:01:56.451Z</time>
      </trkpt>
      <trkpt lat="47.33179" lon="-0.28526">
        <ele>56.2</ele>
        <time>2011-04-03T09:01:58.095Z</time>
      </trkpt>
      <trkpt lat="47.33186" lon="-0.28529">
        <ele>55.6</ele>
        <time>2011-04-03T09:01:59.547Z</time>
      </trkpt>
      <trkpt lat="47.33193" lon="-0.28532">
        <ele>55.1</ele>
        <time>2011-04-03T09:02:01Z</time>
        <extensions>
          <type>
            <highway>unclassified</highway>
            <surface>asphalt</surface>
            </type>
        </extensions>
      </trkpt>
      <trkpt lat="47.33197" lon="-0.28541">
        <ele>55</ele>
        <time>2011-04-03T09:02:59Z</time>
        <extensions>
          <type>
            <highway>unclassified</highway>
            <surface>asphalt</surface>
            </type>
        </extensions>
      </trkpt>
      <trkpt lat="47.33196" lon="-0.28554">
        <ele>55</ele>
        <time>2011-04-03T09:03:01.314Z</time>
      </trkpt>
      <trkpt lat="47.33194" lon="-0.28566">
        <ele>55</ele>
        <time>2011-04-03T09:03:03.499Z</time>
      </trkpt>
      <trkpt lat="47.33193" lon="-0.28579">
        <ele>55.1</ele>
        <time>2011-04-03T09:03:05.813Z</time>
      </trkpt>
      <trkpt lat="47.33191" lon="-0.28591">
        <ele>55.2</ele>
        <time>2011-04-03T09:03:08Z</time>
        <extensions>
          <type>
            <highway>unclassified</highway>
            <surface>asphalt</surface>
            </type>
        </extensions>
      </trkpt>
      <trkpt lat="47.33191" lon="-0.28603">
        <ele>55.3</ele>
        <time>2011-04-03T09:03:09.871Z</time>
      </trkpt>
      <trkpt lat="47.33191" lon="-0.28615">
        <ele>55.3</ele>
        <time>2011-04-03T09:03:11.742Z</time>
      </trkpt>
      <trkpt lat="47.3319" lon="-0.28627">
        <ele>55.3</ele>
        <time>2011-04-03T09:03:13.627Z</time>
      </trkpt>
      <trkpt lat="47.3319" lon="-0.28639">
        <ele>55.3</ele>
        <time>2011-04-03T09:03:15.498Z</time>
      </trkpt>
      <trkpt lat="47.3319" lon="-0.28651">
        <ele>55.7</ele>
        <time>2011-04-03T09:03:17.369Z</time>
      </trkpt>
      <trkpt lat="47.3319" lon="-0.28663">
        <ele>56.1</ele>
        <time>2011-04-03T09:03:19.241Z</time>
      </trkpt>
      <trkpt lat="47.33189" lon="-0.28675">
        <ele>56.2</ele>
        <time>2011-04-03T09:03:21.127Z</time>
      </trkpt>
      <trkpt lat="47.33189" lon="-0.28687">
        <ele>56.2</ele>
        <time>2011-04-03T09:03:23Z</time>
        <extensions>
          <type>
            <highway>unclassified</highway>
            <surface>asphalt</surface>
            </type>
        </extensions>
      </trkpt>
      <trkpt lat="47.33187" lon="-0.28694">
        <ele>56.3</ele>
        <time>2011-04-03T09:03:24.039Z</time>
      </trkpt>
      <trkpt lat="47.33186" lon="-0.28701">
        <ele>56.3</ele>
        <time>2011-04-03T09:03:25.017Z</time>
      </trkpt>
      <trkpt lat="47.33184" lon="-0.28707">
        <ele>56.4</ele>
        <time>2011-04-03T09:03:25.931Z</time>
      </trkpt>
      <trkpt lat="47.33182" lon="-0.28714">
        <ele>56.4</ele>
        <time>2011-04-03T09:03:26.970Z</time>
      </trkpt>
      <trkpt lat="47.3318" lon="-0.28721">
        <ele>56.5</ele>
        <time>2011-04-03T09:03:28.009Z</time>
      </trkpt>
      <trkpt lat="47.33179" lon="-0.28728">
        <ele>56.5</ele>
        <time>2011-04-03T09:03:28.987Z</time>
      </trkpt>
      <trkpt lat="47.33177" lon="-0.28735">
        <ele>56.4</ele>
        <time>2011-04-03T09:03:30.026Z</time>
      </trkpt>
      <trkpt lat="47.33175" lon="-0.28742">
        <ele>56.2</ele>
        <time>2011-04-03T09:03:31.065Z</time>
      </trkpt>
      <trkpt lat="47.33173" lon="-0.28748">
        <ele>56</ele>
        <time>2011-04-03T09:03:31.979Z</time>
      </trkpt>
      <trkpt lat="47.33172" lon="-0.28755">
        <ele>56</ele>
        <time>2011-04-03T09:03:32.957Z</time>
      </trkpt>
      <trkpt lat="47.3317" lon="-0.28762">
        <ele>56</ele>
        <time>2011-04-03T09:03:33.996Z</time>
      </trkpt>
      <trkpt lat="47.33168" lon="-0.28769">
        <ele>56</ele>
        <time>2011-04-03T09:03:35.035Z</time>
      </trkpt>
      <trkpt lat="47.33166" lon="-0.28776">
        <ele>56</ele>
        <time>2011-04-03T09:03:36.074Z</time>
      </trkpt>
      <trkpt lat="47.33165" lon="-0.28782">
        <ele>56</ele>
        <time>2011-04-03T09:03:36.919Z</time>
      </trkpt>
      <trkpt lat="47.33163" lon="-0.28789">
        <ele>56.1</ele>
        <time>2011-04-03T09:03:37.959Z</time>
      </trkpt>
      <trkpt lat="47.33161" lon="-0.28796">
        <ele>56.1</ele>
        <time>2011-04-03T09:03:39Z</time>
        <extensions>
          <type>
            <highway>unclassified</highway>
            <surface>undefined</surface>
            </type>
        </extensions>
      </trkpt>
      <trkpt lat="47.33164" lon="-0.28807">
        <ele>56.1</ele>
        <time>2011-04-03T09:03:41Z</time>
        <extensions>
          <type>
            <highway>unclassified</highway>
            <surface>undefined</surface>
            </type>
        </extensions>
      </trkpt>
      <trkpt lat="47.33172" lon="-0.28812">
        <ele>56.4</ele>
        <time>2011-04-03T09:03:42.765Z</time>
      </trkpt>
      <trkpt lat="47.3318" lon="-0.28817">
        <ele>56.7</ele>
        <time>2011-04-03T09:03:44.531Z</time>
      </trkpt>
      <trkpt lat="47.33188" lon="-0.28822">
        <ele>56.9</ele>
        <time>2011-04-03T09:03:46.297Z</time>
      </trkpt>
      <trkpt lat="47.33196" lon="-0.28828">
        <ele>57</ele>
        <time>2011-04-03T09:03:48.121Z</time>
      </trkpt>
      <trkpt lat="47.33203" lon="-0.28833">
        <ele>57.3</ele>
        <time>2011-04-03T09:03:49.701Z</time>
      </trkpt>
      <trkpt lat="47.33211" lon="-0.28838">
        <ele>57.8</ele>
        <time>2011-04-03T09:03:51.467Z</time>
      </trkpt>
      <trkpt lat="47.33219" lon="-0.28843">
        <ele>58.2</ele>
        <time>2011-04-03T09:03:53.233Z</time>
      </trkpt>
      <trkpt lat="47.33227" lon="-0.28848">
        <ele>58.8</ele>
        <time>2011-04-03T09:03:55Z</time>
        <extensions>
          <type>
            <highway>unclassified</highway>
            <surface>undefined</surface>
            </type>
        </extensions>
      </trkpt>
      <trkpt lat="47.33235" lon="-0.28852">
        <ele>59.3</ele>
        <time>2011-04-03T09:03:56.946Z</time>
      </trkpt>
      <trkpt lat="47.33243" lon="-0.28855">
        <ele>59.7</ele>
        <time>2011-04-03T09:03:58.848Z</time>
      </trkpt>
      <trkpt lat="47.3325" lon="-0.28859">
        <ele>60</ele>
        <time>2011-04-03T09:04:00.577Z</time>
      </trkpt>
      <trkpt lat="47.33258" lon="-0.28863">
        <ele>60.6</ele>
        <time>2011-04-03T09:04:02.523Z</time>
      </trkpt>
      <trkpt lat="47.33266" lon="-0.28866">
        <ele>61.2</ele>
        <time>2011-04-03T09:04:04.425Z</time>
      </trkpt>
      <trkpt lat="47.33274" lon="-0.2887">
        <ele>61.7</ele>
        <time>2011-04-03T09:04:06.372Z</time>
      </trkpt>
      <trkpt lat="47.33281" lon="-0.28873">
        <ele>62.3</ele>
        <time>2011-04-03T09:04:08.052Z</time>
      </trkpt>
      <trkpt lat="47.33289" lon="-0.28877">
        <ele>63</ele>
        <time>2011-04-03T09:04:10Z</time>
        <extensions>
          <type>
            <highway>unclassified</highway>
            <surface>undefined</surface>
            </type>
        </extensions>
      </trkpt>
      <trkpt lat="47.33296" lon="-0.28871">
        <ele>63.5</ele>
        <time>2011-04-03T09:04:12.110Z</time>
      </trkpt>
      <trkpt lat="47.33302" lon="-0.28865">
        <ele>63.9</ele>
        <time>2011-04-03T09:04:14Z</time>
        <extensions>
          <type>
            <highway>unclassified</highway>
            <surface>asphalt</surface>
            </type>
        </extensions>
      </trkpt>
      <trkpt lat="47.33305" lon="-0.28856">
        <ele>64</ele>
        <time>2011-04-03T09:04:15.813Z</time>
      </trkpt>
      <trkpt lat="47.33308" lon="-0.28846">
        <ele>64.4</ele>
        <time>2011-04-03T09:04:17.790Z</time>
      </trkpt>
      <trkpt lat="47.33311" lon="-0.28837">
        <ele>64.8</ele>
        <time>2011-04-03T09:04:19.603Z</time>
      </trkpt>
      <trkpt lat="47.33314" lon="-0.28828">
        <ele>65.2</ele>
        <time>2011-04-03T09:04:21.416Z</time>
      </trkpt>
      <trkpt lat="47.33317" lon="-0.28818">
        <ele>65.4</ele>
        <time>2011-04-03T09:04:23.393Z</time>
      </trkpt>
      <trkpt lat="47.3332" lon="-0.28809">
        <ele>65.6</ele>
        <time>2011-04-03T09:04:25.207Z</time>
      </trkpt>
      <trkpt lat="47.33323" lon="-0.28799">
        <ele>65.9</ele>
        <time>2011-04-03T09:04:27.185Z</time>
      </trkpt>
      <trkpt lat="47.33326" lon="-0.2879">
        <ele>66.2</ele>
        <time>2011-04-03T09:04:29Z</time>
        <extensions>
          <type>
            <highway>unclassified</highway>
            <surface>asphalt</surface>
            </type>
        </extensions>
      </trkpt>
      <trkpt lat="47.33331" lon="-0.28783">
        <ele>66.7</ele>
        <time>2011-04-03T09:04:30.769Z</time>
      </trkpt>
      <trkpt lat="47.33335" lon="-0.28775">
        <ele>67.1</ele>
        <time>2011-04-03T09:04:32.499Z</time>
      </trkpt>
      <trkpt lat="47.3334" lon="-0.28768">
        <ele>67.1</ele>
        <time>2011-04-03T09:04:34.269Z</time>
      </trkpt>
      <trkpt lat="47.33344" lon="-0.2876">
        <ele>67.1</ele>
        <time>2011-04-03T09:04:36Z</time>
        <extensions>
          <type>
            <highway>unclassified</highway>
            <surface>asphalt</surface>
            </type>
        </extensions>
      </trkpt>
      <trkpt lat="47.33349" lon="-0.2876">
        <ele>67.2</ele>
        <time>2011-04-03T09:04:37.656Z</time>
      </trkpt>
      <trkpt lat="47.33353" lon="-0.28759">
        <ele>67.2</ele>
        <time>2011-04-03T09:04:38.999Z</time>
      </trkpt>
      <trkpt lat="47.33358" lon="-0.28759">
        <ele>67.3</ele>
        <time>2011-04-03T09:04:40.655Z</time>
      </trkpt>
      <trkpt lat="47.33362" lon="-0.28758">
        <ele>67.3</ele>
        <time>2011-04-03T09:04:42Z</time>
        <extensions>
          <type>
            <highway>unclassified</highway>
            <surface>asphalt</surface>
            </type>
        </extensions>
      </trkpt>
      <trkpt lat="47.33366" lon="-0.28755">
        <ele>67</ele>
        <time>2011-04-03T09:04:42.929Z</time>
      </trkpt>
      <trkpt lat="47.3337" lon="-0.28752">
        <ele>66.7</ele>
        <time>2011-04-03T09:04:43.858Z</time>
      </trkpt>
      <trkpt lat="47.33375" lon="-0.28749">
        <ele>66.5</ele>
        <time>2011-04-03T09:04:44.975Z</time>
      </trkpt>
      <trkpt lat="47.33379" lon="-0.28746">
        <ele>66.3</ele>
        <time>2011-04-03T09:04:45.904Z</time>
      </trkpt>
      <trkpt lat="47.33383" lon="-0.28743">
        <ele>66.2</ele>
        <time>2011-04-03T09:04:46.833Z</time>
      </trkpt>
      <trkpt lat="47.33387" lon="-0.2874">
        <ele>66</ele>
        <time>2011-04-03T09:04:47.762Z</time>
      </trkpt>
      <trkpt lat="47.33392" lon="-0.28737">
        <ele>65.9</ele>
        <time>2011-04-03T09:04:48.879Z</time>
      </trkpt>
      <trkpt lat="47.33396" lon="-0.28734">
        <ele>65.6</ele>
        <time>2011-04-03T09:04:49.808Z</time>
      </trkpt>
      <trkpt lat="47.334" lon="-0.28731">
        <ele>65.3</ele>
        <time>2011-04-03T09:04:50.737Z</time>
      </trkpt>
      <trkpt lat="47.33404" lon="-0.28728">
        <ele>65</ele>
        <time>2011-04-03T09:04:51.666Z</time>
      </trkpt>
      <trkpt lat="47.33408" lon="-0.28725">
        <ele>64.7</ele>
        <time>2011-04-03T09:04:52.595Z</time>
      </trkpt>
      <trkpt lat="47.33413" lon="-0.28722">
        <ele>64.3</ele>
        <time>2011-04-03T09:04:53.712Z</time>
      </trkpt>
      <trkpt lat="47.33417" lon="-0.28719">
        <ele>64</ele>
        <time>2011-04-03T09:04:54.641Z</time>
      </trkpt>
      <trkpt lat="47.33421" lon="-0.28716">
        <ele>63.8</ele>
        <time>2011-04-03T09:04:55.570Z</time>
      </trkpt>
      <trkpt lat="47.33425" lon="-0.28714">
        <ele>63.7</ele>
        <time>2011-04-03T09:04:56.444Z</time>
      </trkpt>
      <trkpt lat="47.3343" lon="-0.28711">
        <ele>63.5</ele>
        <time>2011-04-03T09:04:57.562Z</time>
      </trkpt>
      <trkpt lat="47.33434" lon="-0.28708">
        <ele>63.4</ele>
        <time>2011-04-03T09:04:58.491Z</time>
      </trkpt>
      <trkpt lat="47.33438" lon="-0.28705">
        <ele>63.2</ele>
        <time>2011-04-03T09:04:59.420Z</time>
      </trkpt>
      <trkpt lat="47.33442" lon="-0.28702">
        <ele>63.1</ele>
        <time>2011-04-03T09:05:00.349Z</time>
      </trkpt>
      <trkpt lat="47.33446" lon="-0.28699">
        <ele>63</ele>
        <time>2011-04-03T09:05:01.278Z</time>
      </trkpt>
      <trkpt lat="47.33451" lon="-0.28696">
        <ele>63</ele>
        <time>2011-04-03T09:05:02.396Z</time>
      </trkpt>
      <trkpt lat="47.33455" lon="-0.28693">
        <ele>63</ele>
        <time>2011-04-03T09:05:03.325Z</time>
      </trkpt>
      <trkpt lat="47.33459" lon="-0.2869">
        <ele>63</ele>
        <time>2011-04-03T09:05:04.254Z</time>
      </trkpt>
      <trkpt lat="47.33463" lon="-0.28687">
        <ele>63.1</ele>
        <time>2011-04-03T09:05:05.183Z</time>
      </trkpt>
      <trkpt lat="47.33468" lon="-0.28684">
        <ele>63.3</ele>
        <time>2011-04-03T09:05:06.301Z</time>
      </trkpt>
      <trkpt lat="47.33472" lon="-0.28681">
        <ele>63.5</ele>
        <time>2011-04-03T09:05:07.231Z</time>
      </trkpt>
      <trkpt lat="47.33476" lon="-0.28678">
        <ele>64.1</ele>
        <time>2011-04-03T09:05:08.161Z</time>
      </trkpt>
      <trkpt lat="47.3348" lon="-0.28675">
        <ele>64.8</ele>
        <time>2011-04-03T09:05:09.091Z</time>
      </trkpt>
      <trkpt lat="47.33484" lon="-0.28672">
        <ele>65.5</ele>
        <time>2011-04-03T09:05:10.021Z</time>
      </trkpt>
      <trkpt lat="47.33489" lon="-0.28669">
        <ele>66.2</ele>
        <time>2011-04-03T09:05:11.139Z</time>
      </trkpt>
      <trkpt lat="47.33493" lon="-0.28666">
        <ele>67</ele>
        <time>2011-04-03T09:05:12.069Z</time>
      </trkpt>
      <trkpt lat="47.33497" lon="-0.28663">
        <ele>67.8</ele>
        <time>2011-04-03T09:05:13Z</time>
        <extensions>
          <type>
            <highway>unclassified</highway>
            <surface>asphalt</surface>
            </type>
        </extensions>
      </trkpt>
      <trkpt lat="47.33497" lon="-0.28653">
        <ele>68.6</ele>
        <time>2011-04-03T09:05:16.693Z</time>
      </trkpt>
      <trkpt lat="47.33498" lon="-0.28643">
        <ele>69.4</ele>
        <time>2011-04-03T09:05:20.426Z</time>
      </trkpt>
      <trkpt lat="47.33498" lon="-0.28633">
        <ele>70.3</ele>
        <time>2011-04-03T09:05:24.120Z</time>
      </trkpt>
      <trkpt lat="47.33498" lon="-0.28623">
        <ele>71.4</ele>
        <time>2011-04-03T09:05:27.814Z</time>
      </trkpt>
      <trkpt lat="47.33498" lon="-0.28612">
        <ele>72.6</ele>
        <time>2011-04-03T09:05:31.877Z</time>
      </trkpt>
      <trkpt lat="47.33499" lon="-0.28602">
        <ele>73.4</ele>
        <time>2011-04-03T09:05:35.611Z</time>
      </trkpt>
      <trkpt lat="47.33499" lon="-0.28592">
        <ele>74.1</ele>
        <time>2011-04-03T09:05:39.305Z</time>
      </trkpt>
      <trkpt lat="47.33499" lon="-0.28582">
        <ele>75</ele>
        <time>2011-04-03T09:05:43Z</time>
        <extensions>
          <type>
            <highway>unclassified</highway>
            <surface>asphalt</surface>
            </type>
        </extensions>
      </trkpt>
      <trkpt lat="47.33503" lon="-0.28574">
        <ele>76.5</ele>
        <time>2011-04-03T09:05:47.240Z</time>
      </trkpt>
      <trkpt lat="47.33507" lon="-0.28566">
        <ele>77.8</ele>
        <time>2011-04-03T09:05:51.480Z</time>
      </trkpt>
      <trkpt lat="47.3351" lon="-0.28557">
        <ele>79</ele>
        <time>2011-04-03T09:05:55.758Z</time>
      </trkpt>
      <trkpt lat="47.33514" lon="-0.28549">
        <ele>80</ele>
        <time>2011-04-03T09:06:00Z</time>
        <extensions>
          <type>
            <highway>unclassified</highway>
            <surface>fine_gravel</surface>
            </type>
        </extensions>
      </trkpt>
      <trkpt lat="47.3352" lon="-0.28545">
        <ele>80.7</ele>
        <time>2011-04-03T09:06:01.979Z</time>
      </trkpt>
      <trkpt lat="47.33526" lon="-0.28541">
        <ele>81.4</ele>
        <time>2011-04-03T09:06:03.958Z</time>
      </trkpt>
      <trkpt lat="47.33532" lon="-0.28538">
        <ele>81.8</ele>
        <time>2011-04-03T09:06:05.862Z</time>
      </trkpt>
      <trkpt lat="47.33539" lon="-0.28534">
        <ele>82.2</ele>
        <time>2011-04-03T09:06:08.118Z</time>
      </trkpt>
      <trkpt lat="47.33545" lon="-0.2853">
        <ele>82.5</ele>
        <time>2011-04-03T09:06:10.097Z</time>
      </trkpt>
      <trkpt lat="47.33551" lon="-0.28526">
        <ele>82.8</ele>
        <time>2011-04-03T09:06:12.076Z</time>
      </trkpt>
      <trkpt lat="47.33557" lon="-0.28522">
        <ele>83</ele>
        <time>2011-04-03T09:06:14.055Z</time>
      </trkpt>
      <trkpt lat="47.33563" lon="-0.28519">
        <ele>83</ele>
        <time>2011-04-03T09:06:15.959Z</time>
      </trkpt>
      <trkpt lat="47.33569" lon="-0.28515">
        <ele>83</ele>
        <time>2011-04-03T09:06:17.938Z</time>
      </trkpt>
      <trkpt lat="47.33575" lon="-0.28511">
        <ele>83</ele>
        <time>2011-04-03T09:06:19.917Z</time>
      </trkpt>
      <trkpt lat="47.33581" lon="-0.28507">
        <ele>83</ele>
        <time>2011-04-03T09:06:21.897Z</time>
      </trkpt>
      <trkpt lat="47.33588" lon="-0.28503">
        <ele>83</ele>
        <time>2011-04-03T09:06:24.154Z</time>
      </trkpt>
      <trkpt lat="47.33594" lon="-0.28499">
        <ele>83</ele>
        <time>2011-04-03T09:06:26.134Z</time>
      </trkpt>
      <trkpt lat="47.336" lon="-0.28496">
        <ele>83</ele>
        <time>2011-04-03T09:06:28.039Z</time>
      </trkpt>
      <trkpt lat="47.33606" lon="-0.28492">
        <ele>83</ele>
        <time>2011-04-03T09:06:30.019Z</time>
      </trkpt>
      <trkpt lat="47.33612" lon="-0.28488">
        <ele>83</ele>
        <time>2011-04-03T09:06:32Z</time>
        <extensions>
          <type>
            <highway>unclassified</highway>
            <surface>fine_gravel</surface>
            </type>
        </extensions>
      </trkpt>
      <trkpt lat="47.33617" lon="-0.28486">
        <ele>83</ele>
        <time>2011-04-03T09:06:33.203Z</time>
      </trkpt>
      <trkpt lat="47.33623" lon="-0.28485">
        <ele>83</ele>
        <time>2011-04-03T09:06:34.605Z</time>
      </trkpt>
      <trkpt lat="47.33628" lon="-0.28483">
        <ele>83</ele>
        <time>2011-04-03T09:06:35.808Z</time>
      </trkpt>
      <trkpt lat="47.33633" lon="-0.28481">
        <ele>83</ele>
        <time>2011-04-03T09:06:37.011Z</time>
      </trkpt>
      <trkpt lat="47.33638" lon="-0.2848">
        <ele>83</ele>
        <time>2011-04-03T09:06:38.182Z</time>
      </trkpt>
      <trkpt lat="47.33644" lon="-0.28478">
        <ele>83</ele>
        <time>2011-04-03T09:06:39.610Z</time>
      </trkpt>
      <trkpt lat="47.33649" lon="-0.28476">
        <ele>83.1</ele>
        <time>2011-04-03T09:06:40.813Z</time>
      </trkpt>
      <trkpt lat="47.33654" lon="-0.28475">
        <ele>83</ele>
        <time>2011-04-03T09:06:41.985Z</time>
      </trkpt>
      <trkpt lat="47.33659" lon="-0.28473">
        <ele>83</ele>
        <time>2011-04-03T09:06:43.188Z</time>
      </trkpt>
      <trkpt lat="47.33665" lon="-0.28471">
        <ele>83</ele>
        <time>2011-04-03T09:06:44.616Z</time>
      </trkpt>
      <trkpt lat="47.3367" lon="-0.28469">
        <ele>83</ele>
        <time>2011-04-03T09:06:45.819Z</time>
      </trkpt>
      <trkpt lat="47.33675" lon="-0.28468">
        <ele>83</ele>
        <time>2011-04-03T09:06:46.991Z</time>
      </trkpt>
      <trkpt lat="47.3368" lon="-0.28466">
        <ele>83</ele>
        <time>2011-04-03T09:06:48.194Z</time>
      </trkpt>
      <trkpt lat="47.33686" lon="-0.28464">
        <ele>83</ele>
        <time>2011-04-03T09:06:49.623Z</time>
      </trkpt>
      <trkpt lat="47.33691" lon="-0.28463">
        <ele>83</ele>
        <time>2011-04-03T09:06:50.795Z</time>
      </trkpt>
      <trkpt lat="47.33696" lon="-0.28461">
        <ele>83</ele>
        <time>2011-04-03T09:06:52Z</time>
        <extensions>
          <type>
            <highway>track</highway>
            <surface>undefined</surface>
            </type>
        </extensions>
      </trkpt>
      <trkpt lat="47.337" lon="-0.28453">
        <ele>83</ele>
        <time>2011-04-03T09:06:53.211Z</time>
      </trkpt>
      <trkpt lat="47.33703" lon="-0.28446">
        <ele>83</ele>
        <time>2011-04-03T09:06:54.220Z</time>
      </trkpt>
      <trkpt lat="47.33707" lon="-0.28438">
        <ele>82.8</ele>
        <time>2011-04-03T09:06:55.431Z</time>
      </trkpt>
      <trkpt lat="47.3371" lon="-0.28431">
        <ele>82.5</ele>
        <time>2011-04-03T09:06:56.440Z</time>
      </trkpt>
      <trkpt lat="47.33714" lon="-0.28423">
        <ele>82.2</ele>
        <time>2011-04-03T09:06:57.652Z</time>
      </trkpt>
      <trkpt lat="47.33717" lon="-0.28415">
        <ele>82</ele>
        <time>2011-04-03T09:06:58.766Z</time>
      </trkpt>
      <trkpt lat="47.33721" lon="-0.28408">
        <ele>82</ele>
        <time>2011-04-03T09:06:59.882Z</time>
      </trkpt>
      <trkpt lat="47.33724" lon="-0.284">
        <ele>82</ele>
        <time>2011-04-03T09:07:00.996Z</time>
      </trkpt>
      <trkpt lat="47.33728" lon="-0.28392">
        <ele>82</ele>
        <time>2011-04-03T09:07:02.208Z</time>
      </trkpt>
      <trkpt lat="47.33731" lon="-0.28385">
        <ele>82</ele>
        <time>2011-04-03T09:07:03.218Z</time>
      </trkpt>
      <trkpt lat="47.33735" lon="-0.28377">
        <ele>82</ele>
        <time>2011-04-03T09:07:04.430Z</time>
      </trkpt>
      <trkpt lat="47.33738" lon="-0.2837">
        <ele>82</ele>
        <time>2011-04-03T09:07:05.440Z</time>
      </trkpt>
      <trkpt lat="47.33742" lon="-0.28362">
        <ele>82</ele>
        <time>2011-04-03T09:07:06.652Z</time>
      </trkpt>
      <trkpt lat="47.33745" lon="-0.28354">
        <ele>82</ele>
        <time>2011-04-03T09:07:07.767Z</time>
      </trkpt>
      <trkpt lat="47.33749" lon="-0.28347">
        <ele>82</ele>
        <time>2011-04-03T09:07:08.884Z</time>
      </trkpt>
      <trkpt lat="47.33752" lon="-0.28339">
        <ele>82</ele>
        <time>2011-04-03T09:07:10Z</time>
        <extensions>
          <type>
            <highway>track</highway>
            <surface>undefined</surface>
            </type>
        </extensions>
      </trkpt>
      <trkpt lat="47.33753" lon="-0.28332">
        <ele>82</ele>
        <time>2011-04-03T09:07:10.910Z</time>
      </trkpt>
      <trkpt lat="47.33754" lon="-0.28326">
        <ele>82</ele>
        <time>2011-04-03T09:07:11.696Z</time>
      </trkpt>
      <trkpt lat="47.33754" lon="-0.28319">
        <ele>82</ele>
        <time>2011-04-03T09:07:12.587Z</time>
      </trkpt>
      <trkpt lat="47.33755" lon="-0.28312">
        <ele>82</ele>
        <time>2011-04-03T09:07:13.498Z</time>
      </trkpt>
      <trkpt lat="47.33756" lon="-0.28305">
        <ele>82</ele>
        <time>2011-04-03T09:07:14.409Z</time>
      </trkpt>
      <trkpt lat="47.33757" lon="-0.28299">
        <ele>81.8</ele>
        <time>2011-04-03T09:07:15.196Z</time>
      </trkpt>
      <trkpt lat="47.33757" lon="-0.28292">
        <ele>81.6</ele>
        <time>2011-04-03T09:07:16.088Z</time>
      </trkpt>
      <trkpt lat="47.33758" lon="-0.28285">
        <ele>81.5</ele>
        <time>2011-04-03T09:07:17Z</time>
        <extensions>
          <type>
            <highway>track</highway>
            <surface>undefined</surface>
            </type>
        </extensions>
      </trkpt>
      <trkpt lat="47.33757" lon="-0.28274">
        <ele>81.3</ele>
        <time>2011-04-03T09:07:18.534Z</time>
      </trkpt>
      <trkpt lat="47.33756" lon="-0.28264">
        <ele>81.2</ele>
        <time>2011-04-03T09:07:19.931Z</time>
      </trkpt>
      <trkpt lat="47.33755" lon="-0.28253">
        <ele>81.2</ele>
        <time>2011-04-03T09:07:21.465Z</time>
      </trkpt>
      <trkpt lat="47.33754" lon="-0.28242">
        <ele>81.1</ele>
        <time>2011-04-03T09:07:22.999Z</time>
      </trkpt>
      <trkpt lat="47.33753" lon="-0.28231">
        <ele>81.1</ele>
        <time>2011-04-03T09:07:24.533Z</time>
      </trkpt>
      <trkpt lat="47.33752" lon="-0.28221">
        <ele>81.1</ele>
        <time>2011-04-03T09:07:25.930Z</time>
      </trkpt>
      <trkpt lat="47.33751" lon="-0.2821">
        <ele>81</ele>
        <time>2011-04-03T09:07:27.464Z</time>
      </trkpt>
      <trkpt lat="47.3375" lon="-0.28199">
        <ele>81</ele>
        <time>2011-04-03T09:07:29Z</time>
        <extensions>
          <type>
            <highway>track</highway>
            <surface>undefined</surface>
            </type>
        </extensions>
      </trkpt>
      <trkpt lat="47.33754" lon="-0.28194">
        <ele>81.2</ele>
        <time>2011-04-03T09:07:30.415Z</time>
      </trkpt>
      <trkpt lat="47.33759" lon="-0.28189">
        <ele>81.3</ele>
        <time>2011-04-03T09:07:32.045Z</time>
      </trkpt>
      <trkpt lat="47.33763" lon="-0.28183">
        <ele>81.5</ele>
        <time>2011-04-03T09:07:33.584Z</time>
      </trkpt>
      <trkpt lat="47.33767" lon="-0.28178">
        <ele>81.6</ele>
        <time>2011-04-03T09:07:35Z</time>
        <extensions>
          <type>
            <highway>track</highway>
            <surface>undefined</surface>
            </type>
        </extensions>
      </trkpt>
      <trkpt lat="47.33774" lon="-0.28172">
        <ele>81.9</ele>
        <time>2011-04-03T09:07:36.533Z</time>
      </trkpt>
      <trkpt lat="47.33781" lon="-0.28166">
        <ele>82</ele>
        <time>2011-04-03T09:07:38.066Z</time>
      </trkpt>
      <trkpt lat="47.33787" lon="-0.2816">
        <ele>82</ele>
        <time>2011-04-03T09:07:39.439Z</time>
      </trkpt>
      <trkpt lat="47.33794" lon="-0.28154">
        <ele>82</ele>
        <time>2011-04-03T09:07:40.973Z</time>
      </trkpt>
      <trkpt lat="47.33801" lon="-0.28148">
        <ele>82</ele>
        <time>2011-04-03T09:07:42.507Z</time>
      </trkpt>
      <trkpt lat="47.33808" lon="-0.28142">
        <ele>82</ele>
        <time>2011-04-03T09:07:44.041Z</time>
      </trkpt>
      <trkpt lat="47.33815" lon="-0.28136">
        <ele>82</ele>
        <time>2011-04-03T09:07:45.575Z</time>
      </trkpt>
      <trkpt lat="47.33822" lon="-0.28131">
        <ele>82</ele>
        <time>2011-04-03T09:07:47.048Z</time>
      </trkpt>
      <trkpt lat="47.33828" lon="-0.28125">
        <ele>82</ele>
        <time>2011-04-03T09:07:48.421Z</time>
      </trkpt>
      <trkpt lat="47.33835" lon="-0.28119">
        <ele>82</ele>
        <time>2011-04-03T09:07:49.955Z</time>
      </trkpt>
      <trkpt lat="47.33842" lon="-0.28113">
        <ele>82</ele>
        <time>2011-04-03T09:07:51.489Z</time>
      </trkpt>
      <trkpt lat="47.33849" lon="-0.28107">
        <ele>81.9</ele>
        <time>2011-04-03T09:07:53.023Z</time>
      </trkpt>
      <trkpt lat="47.33856" lon="-0.28101">
        <ele>81.9</ele>
        <time>2011-04-03T09:07:54.557Z</time>
      </trkpt>
      <trkpt lat="47.33862" lon="-0.28095">
        <ele>82</ele>
        <time>2011-04-03T09:07:55.930Z</time>
      </trkpt>
      <trkpt lat="47.33869" lon="-0.28089">
        <ele>82</ele>
        <time>2011-04-03T09:07:57.465Z</time>
      </trkpt>
      <trkpt lat="47.33876" lon="-0.28083">
        <ele>82</ele>
        <time>2011-04-03T09:07:59Z</time>
        <extensions>
          <type>
            <highway>track</highway>
            <surface>undefined</surface>
            </type>
        </extensions>
      </trkpt>
      <trkpt lat="47.33882" lon="-0.28081">
        <ele>82</ele>
        <time>2011-04-03T09:08:00.127Z</time>
      </trkpt>
      <trkpt lat="47.33887" lon="-0.28079">
        <ele>82</ele>
        <time>2011-04-03T09:08:01.076Z</time>
      </trkpt>
      <trkpt lat="47.33893" lon="-0.28077">
        <ele>82</ele>
        <time>2011-04-03T09:08:02.203Z</time>
      </trkpt>
      <trkpt lat="47.33899" lon="-0.28075">
        <ele>82</ele>
        <time>2011-04-03T09:08:03.330Z</time>
      </trkpt>
      <trkpt lat="47.33904" lon="-0.28073">
        <ele>82</ele>
        <time>2011-04-03T09:08:04.279Z</time>
      </trkpt>
      <trkpt lat="47.3391" lon="-0.28071">
        <ele>82</ele>
        <time>2011-04-03T09:08:05.406Z</time>
      </trkpt>
      <trkpt lat="47.33915" lon="-0.28069">
        <ele>82</ele>
        <time>2011-04-03T09:08:06.355Z</time>
      </trkpt>
      <trkpt lat="47.33921" lon="-0.28067">
        <ele>81.9</ele>
        <time>2011-04-03T09:08:07.482Z</time>
      </trkpt>
      <trkpt lat="47.33927" lon="-0.28064">
        <ele>81.8</ele>
        <time>2011-04-03T09:08:08.642Z</time>
      </trkpt>
      <trkpt lat="47.33932" lon="-0.28062">
        <ele>81.6</ele>
        <time>2011-04-03T09:08:09.591Z</time>
      </trkpt>
      <trkpt lat="47.33938" lon="-0.2806">
        <ele>81.4</ele>
        <time>2011-04-03T09:08:10.718Z</time>
      </trkpt>
      <trkpt lat="47.33944" lon="-0.28058">
        <ele>81.1</ele>
        <time>2011-04-03T09:08:11.845Z</time>
      </trkpt>
      <trkpt lat="47.33949" lon="-0.28056">
        <ele>81</ele>
        <time>2011-04-03T09:08:12.794Z</time>
      </trkpt>
      <trkpt lat="47.33955" lon="-0.28054">
        <ele>81</ele>
        <time>2011-04-03T09:08:13.922Z</time>
      </trkpt>
      <trkpt lat="47.3396" lon="-0.28052">
        <ele>81</ele>
        <time>2011-04-03T09:08:14.871Z</time>
      </trkpt>
      <trkpt lat="47.33966" lon="-0.2805">
        <ele>81</ele>
        <time>2011-04-03T09:08:16Z</time>
        <extensions>
          <type>
            <highway>track</highway>
            <surface>undefined</surface>
            </type>
        </extensions>
      </trkpt>
      <trkpt lat="47.33971" lon="-0.28046">
        <ele>81</ele>
        <time>2011-04-03T09:08:17.030Z</time>
      </trkpt>
      <trkpt lat="47.33976" lon="-0.28042">
        <ele>80.9</ele>
        <time>2011-04-03T09:08:18.060Z</time>
      </trkpt>
      <trkpt lat="47.3398" lon="-0.28038">
        <ele>80.7</ele>
        <time>2011-04-03T09:08:18.935Z</time>
      </trkpt>
      <trkpt lat="47.33985" lon="-0.28034">
        <ele>80.5</ele>
        <time>2011-04-03T09:08:19.966Z</time>
      </trkpt>
      <trkpt lat="47.3399" lon="-0.28029">
        <ele>80.4</ele>
        <time>2011-04-03T09:08:21.061Z</time>
      </trkpt>
      <trkpt lat="47.33995" lon="-0.28025">
        <ele>80.2</ele>
        <time>2011-04-03T09:08:22.092Z</time>
      </trkpt>
      <trkpt lat="47.33999" lon="-0.28021">
        <ele>80</ele>
        <time>2011-04-03T09:08:22.968Z</time>
      </trkpt>
      <trkpt lat="47.34004" lon="-0.28017">
        <ele>79.9</ele>
        <time>2011-04-03T09:08:24Z</time>
        <extensions>
          <type>
            <highway>track</highway>
            <surface>undefined</surface>
            </type>
        </extensions>
      </trkpt>
      <trkpt lat="47.34008" lon="-0.28014">
        <ele>79.7</ele>
        <time>2011-04-03T09:08:24.710Z</time>
      </trkpt>
      <trkpt lat="47.34013" lon="-0.28012">
        <ele>79.5</ele>
        <time>2011-04-03T09:08:25.530Z</time>
      </trkpt>
      <trkpt lat="47.34017" lon="-0.28009">
        <ele>79.4</ele>
        <time>2011-04-03T09:08:26.240Z</time>
      </trkpt>
      <trkpt lat="47.34021" lon="-0.28006">
        <ele>79.2</ele>
        <time>2011-04-03T09:08:26.950Z</time>
      </trkpt>
      <trkpt lat="47.34026" lon="-0.28003">
        <ele>79.1</ele>
        <time>2011-04-03T09:08:27.804Z</time>
      </trkpt>
      <trkpt lat="47.3403" lon="-0.28001">
        <ele>78.9</ele>
        <time>2011-04-03T09:08:28.472Z</time>
      </trkpt>
      <trkpt lat="47.34034" lon="-0.27998">
        <ele>78.8</ele>
        <time>2011-04-03T09:08:29.182Z</time>
      </trkpt>
      <trkpt lat="47.34039" lon="-0.27995">
        <ele>78.6</ele>
        <time>2011-04-03T09:08:30.036Z</time>
      </trkpt>
      <trkpt lat="47.34043" lon="-0.27992">
        <ele>78.4</ele>
        <time>2011-04-03T09:08:30.746Z</time>
      </trkpt>
      <trkpt lat="47.34047" lon="-0.2799">
        <ele>78.3</ele>
        <time>2011-04-03T09:08:31.414Z</time>
      </trkpt>
      <trkpt lat="47.34052" lon="-0.27987">
        <ele>78.1</ele>
        <time>2011-04-03T09:08:32.268Z</time>
      </trkpt>
      <trkpt lat="47.34056" lon="-0.27984">
        <ele>78</ele>
        <time>2011-04-03T09:08:32.978Z</time>
      </trkpt>
      <trkpt lat="47.34061" lon="-0.27981">
        <ele>78</ele>
        <time>2011-04-03T09:08:33.832Z</time>
      </trkpt>
      <trkpt lat="47.34065" lon="-0.27979">
        <ele>78</ele>
        <time>2011-04-03T09:08:34.500Z</time>
      </trkpt>
      <trkpt lat="47.34069" lon="-0.27976">
        <ele>78</ele>
        <time>2011-04-03T09:08:35.210Z</time>
      </trkpt>
      <trkpt lat="47.34074" lon="-0.27973">
        <ele>78</ele>
        <time>2011-04-03T09:08:36.065Z</time>
      </trkpt>
      <trkpt lat="47.34078" lon="-0.2797">
        <ele>77.9</ele>
        <time>2011-04-03T09:08:36.775Z</time>
      </trkpt>
      <trkpt lat="47.34082" lon="-0.27968">
        <ele>77.8</ele>
        <time>2011-04-03T09:08:37.444Z</time>
      </trkpt>
      <trkpt lat="47.34087" lon="-0.27965">
        <ele>77.6</ele>
        <time>2011-04-03T09:08:38.299Z</time>
      </trkpt>
      <trkpt lat="47.34091" lon="-0.27962">
        <ele>77.5</ele>
        <time>2011-04-03T09:08:39.009Z</time>
      </trkpt>
      <trkpt lat="47.34095" lon="-0.27959">
        <ele>77.3</ele>
        <time>2011-04-03T09:08:39.719Z</time>
      </trkpt>
      <trkpt lat="47.341" lon="-0.27957">
        <ele>77.2</ele>
        <time>2011-04-03T09:08:40.539Z</time>
      </trkpt>
      <trkpt lat="47.34104" lon="-0.27954">
        <ele>77.1</ele>
        <time>2011-04-03T09:08:41.250Z</time>
      </trkpt>
      <trkpt lat="47.34108" lon="-0.27951">
        <ele>77</ele>
        <time>2011-04-03T09:08:41.961Z</time>
      </trkpt>
      <trkpt lat="47.34113" lon="-0.27948">
        <ele>77</ele>
        <time>2011-04-03T09:08:42.816Z</time>
      </trkpt>
      <trkpt lat="47.34117" lon="-0.27946">
        <ele>77</ele>
        <time>2011-04-03T09:08:43.485Z</time>
      </trkpt>
      <trkpt lat="47.34121" lon="-0.27943">
        <ele>76.9</ele>
        <time>2011-04-03T09:08:44.196Z</time>
      </trkpt>
      <trkpt lat="47.34126" lon="-0.2794">
        <ele>76.8</ele>
        <time>2011-04-03T09:08:45.051Z</time>
      </trkpt>
      <trkpt lat="47.3413" lon="-0.27937">
        <ele>76.7</ele>
        <time>2011-04-03T09:08:45.762Z</time>
      </trkpt>
      <trkpt lat="47.34134" lon="-0.27935">
        <ele>76.6</ele>
        <time>2011-04-03T09:08:46.431Z</time>
      </trkpt>
      <trkpt lat="47.34139" lon="-0.27932">
        <ele>76.5</ele>
        <time>2011-04-03T09:08:47.287Z</time>
      </trkpt>
      <trkpt lat="47.34143" lon="-0.27929">
        <ele>76.4</ele>
        <time>2011-04-03T09:08:48Z</time>
        <extensions>
          <type>
            <highway>track</highway>
            <surface>undefined</surface>
            </type>
        </extensions>
      </trkpt>
      <trkpt lat="47.3415" lon="-0.27924">
        <ele>76.3</ele>
        <time>2011-04-03T09:08:49.706Z</time>
      </trkpt>
      <trkpt lat="47.34157" lon="-0.27919">
        <ele>76.1</ele>
        <time>2011-04-03T09:08:51.412Z</time>
      </trkpt>
      <trkpt lat="47.34164" lon="-0.27915">
        <ele>76</ele>
        <time>2011-04-03T09:08:53.059Z</time>
      </trkpt>
      <trkpt lat="47.34171" lon="-0.2791">
        <ele>76.2</ele>
        <time>2011-04-03T09:08:54.765Z</time>
      </trkpt>
      <trkpt lat="47.34178" lon="-0.27905">
        <ele>76.4</ele>
        <time>2011-04-03T09:08:56.471Z</time>
      </trkpt>
      <trkpt lat="47.34185" lon="-0.279">
        <ele>76.7</ele>
        <time>2011-04-03T09:08:58.177Z</time>
      </trkpt>
      <trkpt lat="47.34192" lon="-0.27896">
        <ele>76.9</ele>
        <time>2011-04-03T09:08:59.824Z</time>
      </trkpt>
      <trkpt lat="47.34199" lon="-0.27891">
        <ele>77</ele>
        <time>2011-04-03T09:09:01.530Z</time>
      </trkpt>
      <trkpt lat="47.34206" lon="-0.27886">
        <ele>76.9</ele>
        <time>2011-04-03T09:09:03.236Z</time>
      </trkpt>
      <trkpt lat="47.34213" lon="-0.27881">
        <ele>76.9</ele>
        <time>2011-04-03T09:09:04.942Z</time>
      </trkpt>
      <trkpt lat="47.3422" lon="-0.27876">
        <ele>77</ele>
        <time>2011-04-03T09:09:06.648Z</time>
      </trkpt>
      <trkpt lat="47.34227" lon="-0.27872">
        <ele>77.2</ele>
        <time>2011-04-03T09:09:08.295Z</time>
      </trkpt>
      <trkpt lat="47.34234" lon="-0.27867">
        <ele>77.4</ele>
        <time>2011-04-03T09:09:10.001Z</time>
      </trkpt>
      <trkpt lat="47.34241" lon="-0.27862">
        <ele>77.7</ele>
        <time>2011-04-03T09:09:11.707Z</time>
      </trkpt>
      <trkpt lat="47.34248" lon="-0.27857">
        <ele>77.8</ele>
        <time>2011-04-03T09:09:13.413Z</time>
      </trkpt>
      <trkpt lat="47.34255" lon="-0.27853">
        <ele>77.7</ele>
        <time>2011-04-03T09:09:15.060Z</time>
      </trkpt>
      <trkpt lat="47.34262" lon="-0.27848">
        <ele>77.7</ele>
        <time>2011-04-03T09:09:16.767Z</time>
      </trkpt>
      <trkpt lat="47.34268" lon="-0.27843">
        <ele>77.8</ele>
        <time>2011-04-03T09:09:18.279Z</time>
      </trkpt>
      <trkpt lat="47.34275" lon="-0.27838">
        <ele>77.9</ele>
        <time>2011-04-03T09:09:19.986Z</time>
      </trkpt>
      <trkpt lat="47.34282" lon="-0.27833">
        <ele>78.2</ele>
        <time>2011-04-03T09:09:21.693Z</time>
      </trkpt>
      <trkpt lat="47.34289" lon="-0.27829">
        <ele>78.4</ele>
        <time>2011-04-03T09:09:23.340Z</time>
      </trkpt>
      <trkpt lat="47.34296" lon="-0.27824">
        <ele>78.7</ele>
        <time>2011-04-03T09:09:25.047Z</time>
      </trkpt>
      <trkpt lat="47.34303" lon="-0.27819">
        <ele>78.9</ele>
        <time>2011-04-03T09:09:26.754Z</time>
      </trkpt>
      <trkpt lat="47.3431" lon="-0.27814">
        <ele>79.2</ele>
        <time>2011-04-03T09:09:28.461Z</time>
      </trkpt>
      <trkpt lat="47.34317" lon="-0.2781">
        <ele>79.4</ele>
        <time>2011-04-03T09:09:30.108Z</time>
      </trkpt>
      <trkpt lat="47.34324" lon="-0.27805">
        <ele>79.7</ele>
        <time>2011-04-03T09:09:31.815Z</time>
      </trkpt>
      <trkpt lat="47.34331" lon="-0.278">
        <ele>79.9</ele>
        <time>2011-04-03T09:09:33.522Z</time>
      </trkpt>
      <trkpt lat="47.34338" lon="-0.27795">
        <ele>80.1</ele>
        <time>2011-04-03T09:09:35.229Z</time>
      </trkpt>
      <trkpt lat="47.34345" lon="-0.2779">
        <ele>80.2</ele>
        <time>2011-04-03T09:09:36.936Z</time>
      </trkpt>
      <trkpt lat="47.34352" lon="-0.27786">
        <ele>80.5</ele>
        <time>2011-04-03T09:09:38.584Z</time>
      </trkpt>
      <trkpt lat="47.34359" lon="-0.27781">
        <ele>80.8</ele>
        <time>2011-04-03T09:09:40.292Z</time>
      </trkpt>
      <trkpt lat="47.34366" lon="-0.27776">
        <ele>80.8</ele>
        <time>2011-04-03T09:09:42Z</time>
        <extensions>
          <type>
            <highway>unclassified</highway>
            <surface>undefined</surface>
            </type>
        </extensions>
      </trkpt>
      <trkpt lat="47.34373" lon="-0.27772">
        <ele>80.5</ele>
        <time>2011-04-03T09:09:43.499Z</time>
      </trkpt>
      <trkpt lat="47.3438" lon="-0.27769">
        <ele>80.2</ele>
        <time>2011-04-03T09:09:44.954Z</time>
      </trkpt>
      <trkpt lat="47.34386" lon="-0.27765">
        <ele>80.1</ele>
        <time>2011-04-03T09:09:46.268Z</time>
      </trkpt>
      <trkpt lat="47.34393" lon="-0.27761">
        <ele>79.9</ele>
        <time>2011-04-03T09:09:47.767Z</time>
      </trkpt>
      <trkpt lat="47.344" lon="-0.27758">
        <ele>79.9</ele>
        <time>2011-04-03T09:09:49.222Z</time>
      </trkpt>
      <trkpt lat="47.34407" lon="-0.27754">
        <ele>79.9</ele>
        <time>2011-04-03T09:09:50.721Z</time>
      </trkpt>
      <trkpt lat="47.34413" lon="-0.2775">
        <ele>80</ele>
        <time>2011-04-03T09:09:52.035Z</time>
      </trkpt>
      <trkpt lat="47.3442" lon="-0.27747">
        <ele>79.9</ele>
        <time>2011-04-03T09:09:53.490Z</time>
      </trkpt>
      <trkpt lat="47.34427" lon="-0.27743">
        <ele>79.6</ele>
        <time>2011-04-03T09:09:54.989Z</time>
      </trkpt>
      <trkpt lat="47.34434" lon="-0.27739">
        <ele>79.4</ele>
        <time>2011-04-03T09:09:56.488Z</time>
      </trkpt>
      <trkpt lat="47.3444" lon="-0.27736">
        <ele>79.1</ele>
        <time>2011-04-03T09:09:57.753Z</time>
      </trkpt>
      <trkpt lat="47.34447" lon="-0.27732">
        <ele>79</ele>
        <time>2011-04-03T09:09:59.252Z</time>
      </trkpt>
      <trkpt lat="47.34454" lon="-0.27729">
        <ele>79</ele>
        <time>2011-04-03T09:10:00.707Z</time>
      </trkpt>
      <trkpt lat="47.34461" lon="-0.27725">
        <ele>79</ele>
        <time>2011-04-03T09:10:02.206Z</time>
      </trkpt>
      <trkpt lat="47.34467" lon="-0.27721">
        <ele>79</ele>
        <time>2011-04-03T09:10:03.521Z</time>
      </trkpt>
      <trkpt lat="47.34474" lon="-0.27718">
        <ele>79</ele>
        <time>2011-04-03T09:10:04.976Z</time>
      </trkpt>
      <trkpt lat="47.34481" lon="-0.27714">
        <ele>79</ele>
        <time>2011-04-03T09:10:06.475Z</time>
      </trkpt>
      <trkpt lat="47.34488" lon="-0.2771">
        <ele>79</ele>
        <time>2011-04-03T09:10:07.974Z</time>
      </trkpt>
      <trkpt lat="47.34494" lon="-0.27707">
        <ele>79</ele>
        <time>2011-04-03T09:10:09.239Z</time>
      </trkpt>
      <trkpt lat="47.34501" lon="-0.27703">
        <ele>79</ele>
        <time>2011-04-03T09:10:10.738Z</time>
      </trkpt>
      <trkpt lat="47.34508" lon="-0.27699">
        <ele>79.2</ele>
        <time>2011-04-03T09:10:12.237Z</time>
      </trkpt>
      <trkpt lat="47.34515" lon="-0.27696">
        <ele>79.5</ele>
        <time>2011-04-03T09:10:13.693Z</time>
      </trkpt>
      <trkpt lat="47.34521" lon="-0.27692">
        <ele>79.8</ele>
        <time>2011-04-03T09:10:15.008Z</time>
      </trkpt>
      <trkpt lat="47.34528" lon="-0.27688">
        <ele>80</ele>
        <time>2011-04-03T09:10:16.507Z</time>
      </trkpt>
      <trkpt lat="47.34535" lon="-0.27685">
        <ele>80</ele>
        <time>2011-04-03T09:10:17.963Z</time>
      </trkpt>
      <trkpt lat="47.34542" lon="-0.27681">
        <ele>80</ele>
        <time>2011-04-03T09:10:19.462Z</time>
      </trkpt>
      <trkpt lat="47.34548" lon="-0.27677">
        <ele>80</ele>
        <time>2011-04-03T09:10:20.777Z</time>
      </trkpt>
      <trkpt lat="47.34555" lon="-0.27674">
        <ele>80</ele>
        <time>2011-04-03T09:10:22.233Z</time>
      </trkpt>
      <trkpt lat="47.34562" lon="-0.2767">
        <ele>80.5</ele>
        <time>2011-04-03T09:10:23.733Z</time>
      </trkpt>
      <trkpt lat="47.34569" lon="-0.27666">
        <ele>80.9</ele>
        <time>2011-04-03T09:10:25.233Z</time>
      </trkpt>
      <trkpt lat="47.34575" lon="-0.27663">
        <ele>81.3</ele>
        <time>2011-04-03T09:10:26.499Z</time>
      </trkpt>
      <trkpt lat="47.34582" lon="-0.27659">
        <ele>81.6</ele>
        <time>2011-04-03T09:10:28Z</time>
        <extensions>
          <type>
            <highway>unclassified</highway>
            <surface>undefined</surface>
            </type>
        </extensions>
      </trkpt>
      <trkpt lat="47.34587" lon="-0.27655">
        <ele>81.6</ele>
        <time>2011-04-03T09:10:29.222Z</time>
      </trkpt>
      <trkpt lat="47.34593" lon="-0.27651">
        <ele>81.4</ele>
        <time>2011-04-03T09:10:30.637Z</time>
      </trkpt>
      <trkpt lat="47.34598" lon="-0.27646">
        <ele>81.3</ele>
        <time>2011-04-03T09:10:31.935Z</time>
      </trkpt>
      <trkpt lat="47.34604" lon="-0.27642">
        <ele>81.1</ele>
        <time>2011-04-03T09:10:33.350Z</time>
      </trkpt>
      <trkpt lat="47.34609" lon="-0.27638">
        <ele>81</ele>
        <time>2011-04-03T09:10:34.572Z</time>
      </trkpt>
      <trkpt lat="47.34614" lon="-0.27634">
        <ele>81</ele>
        <time>2011-04-03T09:10:35.794Z</time>
      </trkpt>
      <trkpt lat="47.3462" lon="-0.27629">
        <ele>81</ele>
        <time>2011-04-03T09:10:37.275Z</time>
      </trkpt>
      <trkpt lat="47.34625" lon="-0.27625">
        <ele>81</ele>
        <time>2011-04-03T09:10:38.497Z</time>
      </trkpt>
      <trkpt lat="47.3463" lon="-0.27621">
        <ele>81</ele>
        <time>2011-04-03T09:10:39.719Z</time>
      </trkpt>
      <trkpt lat="47.34636" lon="-0.27617">
        <ele>81</ele>
        <time>2011-04-03T09:10:41.134Z</time>
      </trkpt>
      <trkpt lat="47.34641" lon="-0.27612">
        <ele>81</ele>
        <time>2011-04-03T09:10:42.432Z</time>
      </trkpt>
      <trkpt lat="47.34647" lon="-0.27608">
        <ele>81</ele>
        <time>2011-04-03T09:10:43.848Z</time>
      </trkpt>
      <trkpt lat="47.34652" lon="-0.27604">
        <ele>81</ele>
        <time>2011-04-03T09:10:45.071Z</time>
      </trkpt>
      <trkpt lat="47.34657" lon="-0.276">
        <ele>81</ele>
        <time>2011-04-03T09:10:46.294Z</time>
      </trkpt>
      <trkpt lat="47.34663" lon="-0.27595">
        <ele>81</ele>
        <time>2011-04-03T09:10:47.776Z</time>
      </trkpt>
      <trkpt lat="47.34668" lon="-0.27591">
        <ele>81</ele>
        <time>2011-04-03T09:10:49Z</time>
        <extensions>
          <type>
            <highway>track</highway>
            <surface>undefined</surface>
            </type>
        </extensions>
      </trkpt>
      <trkpt lat="47.34666" lon="-0.27585">
        <ele>81</ele>
        <time>2011-04-03T09:10:49.980Z</time>
      </trkpt>
      <trkpt lat="47.34663" lon="-0.27578">
        <ele>80.8</ele>
        <time>2011-04-03T09:10:51.194Z</time>
      </trkpt>
      <trkpt lat="47.34661" lon="-0.27572">
        <ele>80.7</ele>
        <time>2011-04-03T09:10:52.174Z</time>
      </trkpt>
      <trkpt lat="47.34658" lon="-0.27566">
        <ele>80.6</ele>
        <time>2011-04-03T09:10:53.267Z</time>
      </trkpt>
      <trkpt lat="47.34656" lon="-0.2756">
        <ele>80.5</ele>
        <time>2011-04-03T09:10:54.247Z</time>
      </trkpt>
      <trkpt lat="47.34654" lon="-0.27553">
        <ele>80.4</ele>
        <time>2011-04-03T09:10:55.361Z</time>
      </trkpt>
      <trkpt lat="47.34651" lon="-0.27547">
        <ele>80.4</ele>
        <time>2011-04-03T09:10:56.454Z</time>
      </trkpt>
      <trkpt lat="47.34649" lon="-0.27541">
        <ele>80.3</ele>
        <time>2011-04-03T09:10:57.434Z</time>
      </trkpt>
      <trkpt lat="47.34646" lon="-0.27535">
        <ele>80.2</ele>
        <time>2011-04-03T09:10:58.527Z</time>
      </trkpt>
      <trkpt lat="47.34644" lon="-0.27528">
        <ele>80</ele>
        <time>2011-04-03T09:10:59.641Z</time>
      </trkpt>
      <trkpt lat="47.34642" lon="-0.27522">
        <ele>80</ele>
        <time>2011-04-03T09:11:00.621Z</time>
      </trkpt>
      <trkpt lat="47.34639" lon="-0.27516">
        <ele>80</ele>
        <time>2011-04-03T09:11:01.714Z</time>
      </trkpt>
      <trkpt lat="47.34637" lon="-0.27509">
        <ele>80</ele>
        <time>2011-04-03T09:11:02.828Z</time>
      </trkpt>
      <trkpt lat="47.34634" lon="-0.27503">
        <ele>80</ele>
        <time>2011-04-03T09:11:03.921Z</time>
      </trkpt>
      <trkpt lat="47.34632" lon="-0.27497">
        <ele>80</ele>
        <time>2011-04-03T09:11:04.901Z</time>
      </trkpt>
      <trkpt lat="47.3463" lon="-0.27491">
        <ele>80</ele>
        <time>2011-04-03T09:11:05.882Z</time>
      </trkpt>
      <trkpt lat="47.34627" lon="-0.27484">
        <ele>80</ele>
        <time>2011-04-03T09:11:07.097Z</time>
      </trkpt>
      <trkpt lat="47.34625" lon="-0.27478">
        <ele>80</ele>
        <time>2011-04-03T09:11:08.078Z</time>
      </trkpt>
      <trkpt lat="47.34622" lon="-0.27472">
        <ele>80</ele>
        <time>2011-04-03T09:11:09.172Z</time>
      </trkpt>
      <trkpt lat="47.3462" lon="-0.27465">
        <ele>79.8</ele>
        <time>2011-04-03T09:11:10.286Z</time>
      </trkpt>
      <trkpt lat="47.34618" lon="-0.27459">
        <ele>79.5</ele>
        <time>2011-04-03T09:11:11.267Z</time>
      </trkpt>
      <trkpt lat="47.34615" lon="-0.27453">
        <ele>79.3</ele>
        <time>2011-04-03T09:11:12.361Z</time>
      </trkpt>
      <trkpt lat="47.34613" lon="-0.27447">
        <ele>79.1</ele>
        <time>2011-04-03T09:11:13.342Z</time>
      </trkpt>
      <trkpt lat="47.3461" lon="-0.2744">
        <ele>79</ele>
        <time>2011-04-03T09:11:14.557Z</time>
      </trkpt>
      <trkpt lat="47.34608" lon="-0.27434">
        <ele>79.1</ele>
        <time>2011-04-03T09:11:15.538Z</time>
      </trkpt>
      <trkpt lat="47.34605" lon="-0.27428">
        <ele>79.2</ele>
        <time>2011-04-03T09:11:16.632Z</time>
      </trkpt>
      <trkpt lat="47.34603" lon="-0.27421">
        <ele>79.3</ele>
        <time>2011-04-03T09:11:17.746Z</time>
      </trkpt>
      <trkpt lat="47.34601" lon="-0.27415">
        <ele>79.4</ele>
        <time>2011-04-03T09:11:18.727Z</time>
      </trkpt>
      <trkpt lat="47.34598" lon="-0.27409">
        <ele>79.5</ele>
        <time>2011-04-03T09:11:19.821Z</time>
      </trkpt>
      <trkpt lat="47.34596" lon="-0.27403">
        <ele>79.6</ele>
        <time>2011-04-03T09:11:20.802Z</time>
      </trkpt>
      <trkpt lat="47.34593" lon="-0.27396">
        <ele>79.6</ele>
        <time>2011-04-03T09:11:22.018Z</time>
      </trkpt>
      <trkpt lat="47.34591" lon="-0.2739">
        <ele>79.7</ele>
        <time>2011-04-03T09:11:23Z</time>
        <extensions>
          <type>
            <highway>track</highway>
            <surface>undefined</surface>
            </type>
        </extensions>
      </trkpt>
      <trkpt lat="47.34589" lon="-0.27383">
        <ele>79.6</ele>
        <time>2011-04-03T09:11:23.983Z</time>
      </trkpt>
      <trkpt lat="47.34586" lon="-0.27375">
        <ele>79.4</ele>
        <time>2011-04-03T09:11:25.167Z</time>
      </trkpt>
      <trkpt lat="47.34584" lon="-0.27368">
        <ele>79.2</ele>
        <time>2011-04-03T09:11:26.150Z</time>
      </trkpt>
      <trkpt lat="47.34582" lon="-0.2736">
        <ele>79.1</ele>
        <time>2011-04-03T09:11:27.254Z</time>
      </trkpt>
      <trkpt lat="47.34579" lon="-0.27353">
        <ele>79.1</ele>
        <time>2011-04-03T09:11:28.326Z</time>
      </trkpt>
      <trkpt lat="47.34577" lon="-0.27345">
        <ele>79.1</ele>
        <time>2011-04-03T09:11:29.430Z</time>
      </trkpt>
      <trkpt lat="47.34575" lon="-0.27338">
        <ele>79.1</ele>
        <time>2011-04-03T09:11:30.413Z</time>
      </trkpt>
      <trkpt lat="47.34573" lon="-0.27331">
        <ele>79</ele>
        <time>2011-04-03T09:11:31.397Z</time>
      </trkpt>
      <trkpt lat="47.3457" lon="-0.27323">
        <ele>79</ele>
        <time>2011-04-03T09:11:32.581Z</time>
      </trkpt>
      <trkpt lat="47.34568" lon="-0.27316">
        <ele>79</ele>
        <time>2011-04-03T09:11:33.565Z</time>
      </trkpt>
      <trkpt lat="47.34566" lon="-0.27308">
        <ele>79</ele>
        <time>2011-04-03T09:11:34.669Z</time>
      </trkpt>
      <trkpt lat="47.34563" lon="-0.27301">
        <ele>79</ele>
        <time>2011-04-03T09:11:35.742Z</time>
      </trkpt>
      <trkpt lat="47.34561" lon="-0.27293">
        <ele>79</ele>
        <time>2011-04-03T09:11:36.846Z</time>
      </trkpt>
      <trkpt lat="47.34559" lon="-0.27286">
        <ele>79</ele>
        <time>2011-04-03T09:11:37.830Z</time>
      </trkpt>
      <trkpt lat="47.34556" lon="-0.27278">
        <ele>79</ele>
        <time>2011-04-03T09:11:39.015Z</time>
      </trkpt>
      <trkpt lat="47.34554" lon="-0.27271">
        <ele>79</ele>
        <time>2011-04-03T09:11:40Z</time>
        <extensions>
          <type>
            <highway>track</highway>
            <surface>undefined</surface>
            </type>
        </extensions>
      </trkpt>
      <trkpt lat="47.34553" lon="-0.27262">
        <ele>79</ele>
        <time>2011-04-03T09:11:41.150Z</time>
      </trkpt>
      <trkpt lat="47.34552" lon="-0.27254">
        <ele>79</ele>
        <time>2011-04-03T09:11:42.176Z</time>
      </trkpt>
      <trkpt lat="47.34551" lon="-0.27245">
        <ele>79</ele>
        <time>2011-04-03T09:11:43.326Z</time>
      </trkpt>
      <trkpt lat="47.3455" lon="-0.27236">
        <ele>79</ele>
        <time>2011-04-03T09:11:44.476Z</time>
      </trkpt>
      <trkpt lat="47.34548" lon="-0.27227">
        <ele>79</ele>
        <time>2011-04-03T09:11:45.671Z</time>
      </trkpt>
      <trkpt lat="47.34547" lon="-0.27219">
        <ele>79</ele>
        <time>2011-04-03T09:11:46.697Z</time>
      </trkpt>
      <trkpt lat="47.34546" lon="-0.2721">
        <ele>79</ele>
        <time>2011-04-03T09:11:47.848Z</time>
      </trkpt>
      <trkpt lat="47.34545" lon="-0.27201">
        <ele>79</ele>
        <time>2011-04-03T09:11:49Z</time>
        <extensions>
          <type>
            <highway>track</highway>
            <surface>undefined</surface>
            </type>
        </extensions>
      </trkpt>
      <trkpt lat="47.34546" lon="-0.27193">
        <ele>79</ele>
        <time>2011-04-03T09:11:50.033Z</time>
      </trkpt>
      <trkpt lat="47.34547" lon="-0.27185">
        <ele>79</ele>
        <time>2011-04-03T09:11:51.066Z</time>
      </trkpt>
      <trkpt lat="47.34548" lon="-0.27176">
        <ele>79</ele>
        <time>2011-04-03T09:11:52.224Z</time>
      </trkpt>
      <trkpt lat="47.34549" lon="-0.27168">
        <ele>79</ele>
        <time>2011-04-03T09:11:53.257Z</time>
      </trkpt>
      <trkpt lat="47.34549" lon="-0.2716">
        <ele>79</ele>
        <time>2011-04-03T09:11:54.273Z</time>
      </trkpt>
      <trkpt lat="47.3455" lon="-0.27152">
        <ele>79</ele>
        <time>2011-04-03T09:11:55.306Z</time>
      </trkpt>
      <trkpt lat="47.34551" lon="-0.27143">
        <ele>79</ele>
        <time>2011-04-03T09:11:56.464Z</time>
      </trkpt>
      <trkpt lat="47.34552" lon="-0.27135">
        <ele>79</ele>
        <time>2011-04-03T09:11:57.497Z</time>
      </trkpt>
      <trkpt lat="47.34553" lon="-0.27127">
        <ele>79</ele>
        <time>2011-04-03T09:11:58.530Z</time>
      </trkpt>
      <trkpt lat="47.34554" lon="-0.27119">
        <ele>79</ele>
        <time>2011-04-03T09:11:59.563Z</time>
      </trkpt>
      <trkpt lat="47.34555" lon="-0.2711">
        <ele>79</ele>
        <time>2011-04-03T09:12:00.722Z</time>
      </trkpt>
      <trkpt lat="47.34556" lon="-0.27102">
        <ele>79</ele>
        <time>2011-04-03T09:12:01.755Z</time>
      </trkpt>
      <trkpt lat="47.34556" lon="-0.27094">
        <ele>79</ele>
        <time>2011-04-03T09:12:02.772Z</time>
      </trkpt>
      <trkpt lat="47.34557" lon="-0.27086">
        <ele>79</ele>
        <time>2011-04-03T09:12:03.806Z</time>
      </trkpt>
      <trkpt lat="47.34558" lon="-0.27077">
        <ele>79</ele>
        <time>2011-04-03T09:12:04.965Z</time>
      </trkpt>
      <trkpt lat="47.34559" lon="-0.27069">
        <ele>79</ele>
        <time>2011-04-03T09:12:06Z</time>
        <extensions>
          <type>
            <highway>track</highway>
            <surface>undefined</surface>
            </type>
        </extensions>
      </trkpt>
      <trkpt lat="47.34559" lon="-0.27061">
        <ele>79</ele>
        <time>2011-04-03T09:12:07.027Z</time>
      </trkpt>
      <trkpt lat="47.34559" lon="-0.27054">
        <ele>79</ele>
        <time>2011-04-03T09:12:07.926Z</time>
      </trkpt>
      <trkpt lat="47.34558" lon="-0.27046">
        <ele>79</ele>
        <time>2011-04-03T09:12:08.971Z</time>
      </trkpt>
      <trkpt lat="47.34558" lon="-0.27038">
        <ele>79</ele>
        <time>2011-04-03T09:12:10Z</time>
        <extensions>
          <type>
            <highway>track</highway>
            <surface>undefined</surface>
            </type>
        </extensions>
      </trkpt>
      <trkpt lat="47.34555" lon="-0.2703">
        <ele>79</ele>
        <time>2011-04-03T09:12:11.147Z</time>
      </trkpt>
      <trkpt lat="47.34552" lon="-0.27021">
        <ele>78.8</ele>
        <time>2011-04-03T09:12:12.406Z</time>
      </trkpt>
      <trkpt lat="47.34549" lon="-0.27013">
        <ele>78.6</ele>
        <time>2011-04-03T09:12:13.553Z</time>
      </trkpt>
      <trkpt lat="47.34546" lon="-0.27005">
        <ele>78.4</ele>
        <time>2011-04-03T09:12:14.701Z</time>
      </trkpt>
      <trkpt lat="47.34543" lon="-0.26996">
        <ele>78.4</ele>
        <time>2011-04-03T09:12:15.960Z</time>
      </trkpt>
      <trkpt lat="47.3454" lon="-0.26988">
        <ele>78.6</ele>
        <time>2011-04-03T09:12:17.108Z</time>
      </trkpt>
      <trkpt lat="47.34537" lon="-0.26979">
        <ele>78.7</ele>
        <time>2011-04-03T09:12:18.367Z</time>
      </trkpt>
      <trkpt lat="47.34534" lon="-0.26971">
        <ele>78.8</ele>
        <time>2011-04-03T09:12:19.515Z</time>
      </trkpt>
      <trkpt lat="47.34531" lon="-0.26963">
        <ele>78.9</ele>
        <time>2011-04-03T09:12:20.663Z</time>
      </trkpt>
      <trkpt lat="47.34528" lon="-0.26954">
        <ele>79</ele>
        <time>2011-04-03T09:12:21.922Z</time>
      </trkpt>
      <trkpt lat="47.34525" lon="-0.26946">
        <ele>79</ele>
        <time>2011-04-03T09:12:23.070Z</time>
      </trkpt>
      <trkpt lat="47.34522" lon="-0.26938">
        <ele>78.7</ele>
        <time>2011-04-03T09:12:24.218Z</time>
      </trkpt>
      <trkpt lat="47.34519" lon="-0.26929">
        <ele>78.4</ele>
        <time>2011-04-03T09:12:25.477Z</time>
      </trkpt>
      <trkpt lat="47.34516" lon="-0.26921">
        <ele>78.1</ele>
        <time>2011-04-03T09:12:26.625Z</time>
      </trkpt>
      <trkpt lat="47.34514" lon="-0.26912">
        <ele>78</ele>
        <time>2011-04-03T09:12:27.814Z</time>
      </trkpt>
      <trkpt lat="47.34511" lon="-0.26904">
        <ele>78</ele>
        <time>2011-04-03T09:12:28.962Z</time>
      </trkpt>
      <trkpt lat="47.34508" lon="-0.26896">
        <ele>78</ele>
        <time>2011-04-03T09:12:30.110Z</time>
      </trkpt>
      <trkpt lat="47.34505" lon="-0.26887">
        <ele>78</ele>
        <time>2011-04-03T09:12:31.369Z</time>
      </trkpt>
      <trkpt lat="47.34502" lon="-0.26879">
        <ele>78</ele>
        <time>2011-04-03T09:12:32.517Z</time>
      </trkpt>
      <trkpt lat="47.34499" lon="-0.26871">
        <ele>78.1</ele>
        <time>2011-04-03T09:12:33.665Z</time>
      </trkpt>
      <trkpt lat="47.34496" lon="-0.26862">
        <ele>78.2</ele>
        <time>2011-04-03T09:12:34.924Z</time>
      </trkpt>
      <trkpt lat="47.34493" lon="-0.26854">
        <ele>78.3</ele>
        <time>2011-04-03T09:12:36.072Z</time>
      </trkpt>
      <trkpt lat="47.3449" lon="-0.26845">
        <ele>78.4</ele>
        <time>2011-04-03T09:12:37.331Z</time>
      </trkpt>
      <trkpt lat="47.34487" lon="-0.26837">
        <ele>78.5</ele>
        <time>2011-04-03T09:12:38.479Z</time>
      </trkpt>
      <trkpt lat="47.34484" lon="-0.26829">
        <ele>78.7</ele>
        <time>2011-04-03T09:12:39.627Z</time>
      </trkpt>
      <trkpt lat="47.34481" lon="-0.2682">
        <ele>78.8</ele>
        <time>2011-04-03T09:12:40.886Z</time>
      </trkpt>
      <trkpt lat="47.34478" lon="-0.26812">
        <ele>79</ele>
        <time>2011-04-03T09:12:42.034Z</time>
      </trkpt>
      <trkpt lat="47.34475" lon="-0.26804">
        <ele>79</ele>
        <time>2011-04-03T09:12:43.182Z</time>
      </trkpt>
      <trkpt lat="47.34472" lon="-0.26795">
        <ele>79</ele>
        <time>2011-04-03T09:12:44.442Z</time>
      </trkpt>
      <trkpt lat="47.34469" lon="-0.26787">
        <ele>79</ele>
        <time>2011-04-03T09:12:45.590Z</time>
      </trkpt>
      <trkpt lat="47.34466" lon="-0.26778">
        <ele>79</ele>
        <time>2011-04-03T09:12:46.850Z</time>
      </trkpt>
      <trkpt lat="47.34463" lon="-0.2677">
        <ele>78.8</ele>
        <time>2011-04-03T09:12:48Z</time>
        <extensions>
          <type>
            <highway>track</highway>
            <surface>undefined</surface>
            </type>
        </extensions>
      </trkpt>
      <trkpt lat="47.34461" lon="-0.26762">
        <ele>78.7</ele>
        <time>2011-04-03T09:12:49.082Z</time>
      </trkpt>
      <trkpt lat="47.34459" lon="-0.26755">
        <ele>78.6</ele>
        <time>2011-04-03T09:12:50.046Z</time>
      </trkpt>
      <trkpt lat="47.34457" lon="-0.26747">
        <ele>78.6</ele>
        <time>2011-04-03T09:12:51.128Z</time>
      </trkpt>
      <trkpt lat="47.34455" lon="-0.26739">
        <ele>78.6</ele>
        <time>2011-04-03T09:12:52.210Z</time>
      </trkpt>
      <trkpt lat="47.34452" lon="-0.26731">
        <ele>78.7</ele>
        <time>2011-04-03T09:12:53.370Z</time>
      </trkpt>
      <trkpt lat="47.3445" lon="-0.26724">
        <ele>78.8</ele>
        <time>2011-04-03T09:12:54.334Z</time>
      </trkpt>
      <trkpt lat="47.34448" lon="-0.26716">
        <ele>78.9</ele>
        <time>2011-04-03T09:12:55.416Z</time>
      </trkpt>
      <trkpt lat="47.34446" lon="-0.26708">
        <ele>78.9</ele>
        <time>2011-04-03T09:12:56.498Z</time>
      </trkpt>
      <trkpt lat="47.34444" lon="-0.267">
        <ele>79</ele>
        <time>2011-04-03T09:12:57.580Z</time>
      </trkpt>
      <trkpt lat="47.34442" lon="-0.26693">
        <ele>78.9</ele>
        <time>2011-04-03T09:12:58.544Z</time>
      </trkpt>
      <trkpt lat="47.3444" lon="-0.26685">
        <ele>78.7</ele>
        <time>2011-04-03T09:12:59.626Z</time>
      </trkpt>
      <trkpt lat="47.34438" lon="-0.26677">
        <ele>78.5</ele>
        <time>2011-04-03T09:13:00.708Z</time>
      </trkpt>
      <trkpt lat="47.34435" lon="-0.26669">
        <ele>78.4</ele>
        <time>2011-04-03T09:13:01.869Z</time>
      </trkpt>
      <trkpt lat="47.34433" lon="-0.26662">
        <ele>78.4</ele>
        <time>2011-04-03T09:13:02.833Z</time>
      </trkpt>
      <trkpt lat="47.34431" lon="-0.26654">
        <ele>78.5</ele>
        <time>2011-04-03T09:13:03.916Z</time>
      </trkpt>
      <trkpt lat="47.34429" lon="-0.26646">
        <ele>78.6</ele>
        <time>2011-04-03T09:13:05Z</time>
        <extensions>
          <type>
            <highway>track</highway>
            <surface>undefined</surface>
            </type>
        </extensions>
      </trkpt>
      <trkpt lat="47.34427" lon="-0.26634">
        <ele>78.6</ele>
        <time>2011-04-03T09:13:06.606Z</time>
      </trkpt>
      <trkpt lat="47.34426" lon="-0.26622">
        <ele>78.7</ele>
        <time>2011-04-03T09:13:08.177Z</time>
      </trkpt>
      <trkpt lat="47.34424" lon="-0.26609">
        <ele>78.7</ele>
        <time>2011-04-03T09:13:09.909Z</time>
      </trkpt>
      <trkpt lat="47.34423" lon="-0.26597">
        <ele>78.8</ele>
        <time>2011-04-03T09:13:11.480Z</time>
      </trkpt>
      <trkpt lat="47.34421" lon="-0.26585">
        <ele>78.8</ele>
        <time>2011-04-03T09:13:13.086Z</time>
      </trkpt>
      <trkpt lat="47.34419" lon="-0.26573">
        <ele>78.9</ele>
        <time>2011-04-03T09:13:14.692Z</time>
      </trkpt>
      <trkpt lat="47.34418" lon="-0.2656">
        <ele>79</ele>
        <time>2011-04-03T09:13:16.393Z</time>
      </trkpt>
      <trkpt lat="47.34416" lon="-0.26548">
        <ele>79</ele>
        <time>2011-04-03T09:13:18Z</time>
        <extensions>
          <type>
            <highway>track</highway>
            <surface>undefined</surface>
            </type>
        </extensions>
      </trkpt>
      <trkpt lat="47.34412" lon="-0.26538">
        <ele>79</ele>
        <time>2011-04-03T09:13:19.660Z</time>
      </trkpt>
      <trkpt lat="47.34407" lon="-0.26528">
        <ele>79</ele>
        <time>2011-04-03T09:13:21.437Z</time>
      </trkpt>
      <trkpt lat="47.34403" lon="-0.26517">
        <ele>79</ele>
        <time>2011-04-03T09:13:23.222Z</time>
      </trkpt>
      <trkpt lat="47.34398" lon="-0.26507">
        <ele>79</ele>
        <time>2011-04-03T09:13:25Z</time>
        <extensions>
          <type>
            <highway>track</highway>
            <surface>undefined</surface>
            </type>
        </extensions>
      </trkpt>
      <trkpt lat="47.34401" lon="-0.265">
        <ele>79</ele>
        <time>2011-04-03T09:13:26.500Z</time>
      </trkpt>
      <trkpt lat="47.34404" lon="-0.26493">
        <ele>79</ele>
        <time>2011-04-03T09:13:28Z</time>
        <extensions>
          <type>
            <highway>track</highway>
            <surface>dirt</surface>
            </type>
        </extensions>
      </trkpt>
      <trkpt lat="47.34409" lon="-0.26488">
        <ele>79</ele>
        <time>2011-04-03T09:13:29.236Z</time>
      </trkpt>
      <trkpt lat="47.34413" lon="-0.26484">
        <ele>79</ele>
        <time>2011-04-03T09:13:30.225Z</time>
      </trkpt>
      <trkpt lat="47.34418" lon="-0.26479">
        <ele>79</ele>
        <time>2011-04-03T09:13:31.461Z</time>
      </trkpt>
      <trkpt lat="47.34422" lon="-0.26475">
        <ele>79</ele>
        <time>2011-04-03T09:13:32.450Z</time>
      </trkpt>
      <trkpt lat="47.34427" lon="-0.2647">
        <ele>79</ele>
        <time>2011-04-03T09:13:33.687Z</time>
      </trkpt>
      <trkpt lat="47.34431" lon="-0.26465">
        <ele>78.9</ele>
        <time>2011-04-03T09:13:34.760Z</time>
      </trkpt>
      <trkpt lat="47.34436" lon="-0.26461">
        <ele>78.7</ele>
        <time>2011-04-03T09:13:35.925Z</time>
      </trkpt>
      <trkpt lat="47.3444" lon="-0.26456">
        <ele>78.5</ele>
        <time>2011-04-03T09:13:37Z</time>
        <extensions>
          <type>
            <highway>track</highway>
            <surface>dirt</surface>
            </type>
        </extensions>
      </trkpt>
      <trkpt lat="47.34444" lon="-0.26451">
        <ele>78.3</ele>
        <time>2011-04-03T09:13:38.310Z</time>
      </trkpt>
      <trkpt lat="47.34447" lon="-0.26446">
        <ele>77.9</ele>
        <time>2011-04-03T09:13:39.441Z</time>
      </trkpt>
      <trkpt lat="47.34451" lon="-0.2644">
        <ele>77.6</ele>
        <time>2011-04-03T09:13:40.867Z</time>
      </trkpt>
      <trkpt lat="47.34454" lon="-0.26435">
        <ele>77.3</ele>
        <time>2011-04-03T09:13:42Z</time>
        <extensions>
          <type>
            <highway>track</highway>
            <surface>dirt</surface>
            </type>
        </extensions>
      </trkpt>
      <trkpt lat="47.34454" lon="-0.26428">
        <ele>77</ele>
        <time>2011-04-03T09:13:43.400Z</time>
      </trkpt>
      <trkpt lat="47.34454" lon="-0.2642">
        <ele>76.8</ele>
        <time>2011-04-03T09:13:45Z</time>
        <extensions>
          <type>
            <highway>track</highway>
            <surface>dirt</surface>
            </type>
        </extensions>
      </trkpt>
      <trkpt lat="47.34451" lon="-0.26411">
        <ele>76.4</ele>
        <time>2011-04-03T09:13:46.466Z</time>
      </trkpt>
      <trkpt lat="47.34448" lon="-0.26402">
        <ele>75.8</ele>
        <time>2011-04-03T09:13:47.933Z</time>
      </trkpt>
      <trkpt lat="47.34445" lon="-0.26392">
        <ele>75.2</ele>
        <time>2011-04-03T09:13:49.532Z</time>
      </trkpt>
      <trkpt lat="47.34442" lon="-0.26383">
        <ele>74.9</ele>
        <time>2011-04-03T09:13:51Z</time>
        <extensions>
          <type>
            <highway>track</highway>
            <surface>dirt</surface>
            </type>
        </extensions>
      </trkpt>
      <trkpt lat="47.34437" lon="-0.26375">
        <ele>74.7</ele>
        <time>2011-04-03T09:13:52.374Z</time>
      </trkpt>
      <trkpt lat="47.34432" lon="-0.26368">
        <ele>74.4</ele>
        <time>2011-04-03T09:13:53.658Z</time>
      </trkpt>
      <trkpt lat="47.34426" lon="-0.2636">
        <ele>73.9</ele>
        <time>2011-04-03T09:13:55.165Z</time>
      </trkpt>
      <trkpt lat="47.34421" lon="-0.26353">
        <ele>73.4</ele>
        <time>2011-04-03T09:13:56.449Z</time>
      </trkpt>
      <trkpt lat="47.34416" lon="-0.26345">
        <ele>72.9</ele>
        <time>2011-04-03T09:13:57.823Z</time>
      </trkpt>
      <trkpt lat="47.34411" lon="-0.26337">
        <ele>72.5</ele>
        <time>2011-04-03T09:13:59.198Z</time>
      </trkpt>
      <trkpt lat="47.34405" lon="-0.2633">
        <ele>72.2</ele>
        <time>2011-04-03T09:14:00.624Z</time>
      </trkpt>
      <trkpt lat="47.344" lon="-0.26322">
        <ele>72</ele>
        <time>2011-04-03T09:14:02Z</time>
        <extensions>
          <type>
            <highway>track</highway>
            <surface>dirt</surface>
            </type>
        </extensions>
      </trkpt>
      <trkpt lat="47.34393" lon="-0.26316">
        <ele>72.2</ele>
        <time>2011-04-03T09:14:03.965Z</time>
      </trkpt>
      <trkpt lat="47.34386" lon="-0.26311">
        <ele>72.2</ele>
        <time>2011-04-03T09:14:05.853Z</time>
      </trkpt>
      <trkpt lat="47.34378" lon="-0.26305">
        <ele>71.9</ele>
        <time>2011-04-03T09:14:08.033Z</time>
      </trkpt>
      <trkpt lat="47.34371" lon="-0.26299">
        <ele>71.5</ele>
        <time>2011-04-03T09:14:10Z</time>
        <extensions>
          <type>
            <highway>track</highway>
            <surface>dirt</surface>
            </type>
        </extensions>
      </trkpt>
      <trkpt lat="47.34366" lon="-0.26294">
        <ele>71.1</ele>
        <time>2011-04-03T09:14:11.091Z</time>
      </trkpt>
      <trkpt lat="47.3436" lon="-0.26288">
        <ele>70.7</ele>
        <time>2011-04-03T09:14:12.401Z</time>
      </trkpt>
      <trkpt lat="47.34355" lon="-0.26283">
        <ele>70.2</ele>
        <time>2011-04-03T09:14:13.493Z</time>
      </trkpt>
      <trkpt lat="47.34349" lon="-0.26277">
        <ele>69.5</ele>
        <time>2011-04-03T09:14:14.803Z</time>
      </trkpt>
      <trkpt lat="47.34344" lon="-0.26272">
        <ele>68.9</ele>
        <time>2011-04-03T09:14:15.895Z</time>
      </trkpt>
      <trkpt lat="47.34338" lon="-0.26266">
        <ele>68.4</ele>
        <time>2011-04-03T09:14:17.205Z</time>
      </trkpt>
      <trkpt lat="47.34333" lon="-0.26261">
        <ele>67.8</ele>
        <time>2011-04-03T09:14:18.297Z</time>
      </trkpt>
      <trkpt lat="47.34328" lon="-0.26256">
        <ele>67.4</ele>
        <time>2011-04-03T09:14:19.389Z</time>
      </trkpt>
      <trkpt lat="47.34322" lon="-0.2625">
        <ele>67</ele>
        <time>2011-04-03T09:14:20.699Z</time>
      </trkpt>
      <trkpt lat="47.34317" lon="-0.26245">
        <ele>66.6</ele>
        <time>2011-04-03T09:14:21.791Z</time>
      </trkpt>
      <trkpt lat="47.34311" lon="-0.26239">
        <ele>66.2</ele>
        <time>2011-04-03T09:14:23.101Z</time>
      </trkpt>
      <trkpt lat="47.34306" lon="-0.26234">
        <ele>65.8</ele>
        <time>2011-04-03T09:14:24.193Z</time>
      </trkpt>
      <trkpt lat="47.343" lon="-0.26228">
        <ele>65.6</ele>
        <time>2011-04-03T09:14:25.503Z</time>
      </trkpt>
      <trkpt lat="47.34295" lon="-0.26223">
        <ele>65.4</ele>
        <time>2011-04-03T09:14:26.595Z</time>
      </trkpt>
      <trkpt lat="47.34289" lon="-0.26217">
        <ele>65.1</ele>
        <time>2011-04-03T09:14:27.906Z</time>
      </trkpt>
      <trkpt lat="47.34284" lon="-0.26212">
        <ele>64.8</ele>
        <time>2011-04-03T09:14:29Z</time>
        <extensions>
          <type>
            <highway>track</highway>
            <surface>dirt</surface>
            </type>
        </extensions>
      </trkpt>
      <trkpt lat="47.34278" lon="-0.26203">
        <ele>63.9</ele>
        <time>2011-04-03T09:14:30.012Z</time>
      </trkpt>
      <trkpt lat="47.34271" lon="-0.26193">
        <ele>63.2</ele>
        <time>2011-04-03T09:14:31.165Z</time>
      </trkpt>
      <trkpt lat="47.34265" lon="-0.26184">
        <ele>62.7</ele>
        <time>2011-04-03T09:14:32.177Z</time>
      </trkpt>
      <trkpt lat="47.34259" lon="-0.26175">
        <ele>62</ele>
        <time>2011-04-03T09:14:33.189Z</time>
      </trkpt>
      <trkpt lat="47.34252" lon="-0.26165">
        <ele>61</ele>
        <time>2011-04-03T09:14:34.342Z</time>
      </trkpt>
      <trkpt lat="47.34246" lon="-0.26156">
        <ele>60.7</ele>
        <time>2011-04-03T09:14:35.354Z</time>
      </trkpt>
      <trkpt lat="47.34239" lon="-0.26147">
        <ele>60.4</ele>
        <time>2011-04-03T09:14:36.453Z</time>
      </trkpt>
      <trkpt lat="47.34233" lon="-0.26138">
        <ele>60</ele>
        <time>2011-04-03T09:14:37.465Z</time>
      </trkpt>
      <trkpt lat="47.34227" lon="-0.26128">
        <ele>59.6</ele>
        <time>2011-04-03T09:14:38.536Z</time>
      </trkpt>
      <trkpt lat="47.3422" lon="-0.26119">
        <ele>59.4</ele>
        <time>2011-04-03T09:14:39.635Z</time>
      </trkpt>
      <trkpt lat="47.34214" lon="-0.2611">
        <ele>59.2</ele>
        <time>2011-04-03T09:14:40.648Z</time>
      </trkpt>
      <trkpt lat="47.34208" lon="-0.261">
        <ele>58.8</ele>
        <time>2011-04-03T09:14:41.719Z</time>
      </trkpt>
      <trkpt lat="47.34201" lon="-0.26091">
        <ele>58.3</ele>
        <time>2011-04-03T09:14:42.818Z</time>
      </trkpt>
      <trkpt lat="47.34195" lon="-0.26082">
        <ele>57.9</ele>
        <time>2011-04-03T09:14:43.831Z</time>
      </trkpt>
      <trkpt lat="47.34188" lon="-0.26072">
        <ele>57.5</ele>
        <time>2011-04-03T09:14:44.985Z</time>
      </trkpt>
      <trkpt lat="47.34182" lon="-0.26063">
        <ele>57.3</ele>
        <time>2011-04-03T09:14:46Z</time>
        <extensions>
          <type>
            <highway>track</highway>
            <surface>dirt</surface>
            </type>
        </extensions>
      </trkpt>
      <trkpt lat="47.34175" lon="-0.26055">
        <ele>57.3</ele>
        <time>2011-04-03T09:14:47.109Z</time>
      </trkpt>
      <trkpt lat="47.34168" lon="-0.26046">
        <ele>57.2</ele>
        <time>2011-04-03T09:14:48.272Z</time>
      </trkpt>
      <trkpt lat="47.34161" lon="-0.26038">
        <ele>56.8</ele>
        <time>2011-04-03T09:14:49.381Z</time>
      </trkpt>
      <trkpt lat="47.34155" lon="-0.26029">
        <ele>56.5</ele>
        <time>2011-04-03T09:14:50.453Z</time>
      </trkpt>
      <trkpt lat="47.34148" lon="-0.26021">
        <ele>56.2</ele>
        <time>2011-04-03T09:14:51.562Z</time>
      </trkpt>
      <trkpt lat="47.34141" lon="-0.26012">
        <ele>55.8</ele>
        <time>2011-04-03T09:14:52.725Z</time>
      </trkpt>
      <trkpt lat="47.34134" lon="-0.26004">
        <ele>55.6</ele>
        <time>2011-04-03T09:14:53.835Z</time>
      </trkpt>
      <trkpt lat="47.34127" lon="-0.25995">
        <ele>55.6</ele>
        <time>2011-04-03T09:14:55Z</time>
        <extensions>
          <type>
            <highway>track</highway>
            <surface>dirt</surface>
            </type>
        </extensions>
      </trkpt>
      <trkpt lat="47.34123" lon="-0.25988">
        <ele>55.5</ele>
        <time>2011-04-03T09:14:55.922Z</time>
      </trkpt>
      <trkpt lat="47.34119" lon="-0.25981">
        <ele>55.3</ele>
        <time>2011-04-03T09:14:56.845Z</time>
      </trkpt>
      <trkpt lat="47.34114" lon="-0.25974">
        <ele>55</ele>
        <time>2011-04-03T09:14:57.870Z</time>
      </trkpt>
      <trkpt lat="47.3411" lon="-0.25967">
        <ele>54.9</ele>
        <time>2011-04-03T09:14:58.793Z</time>
      </trkpt>
      <trkpt lat="47.34106" lon="-0.2596">
        <ele>55</ele>
        <time>2011-04-03T09:14:59.716Z</time>
      </trkpt>
      <trkpt lat="47.34102" lon="-0.25953">
        <ele>55.2</ele>
        <time>2011-04-03T09:15:00.639Z</time>
      </trkpt>
      <trkpt lat="47.34098" lon="-0.25946">
        <ele>55.5</ele>
        <time>2011-04-03T09:15:01.562Z</time>
      </trkpt>
      <trkpt lat="47.34094" lon="-0.2594">
        <ele>55.7</ele>
        <time>2011-04-03T09:15:02.410Z</time>
      </trkpt>
      <trkpt lat="47.34089" lon="-0.25933">
        <ele>55.7</ele>
        <time>2011-04-03T09:15:03.435Z</time>
      </trkpt>
      <trkpt lat="47.34085" lon="-0.25926">
        <ele>55.5</ele>
        <time>2011-04-03T09:15:04.358Z</time>
      </trkpt>
      <trkpt lat="47.34081" lon="-0.25919">
        <ele>55.4</ele>
        <time>2011-04-03T09:15:05.281Z</time>
      </trkpt>
      <trkpt lat="47.34077" lon="-0.25912">
        <ele>55.7</ele>
        <time>2011-04-03T09:15:06.204Z</time>
      </trkpt>
      <trkpt lat="47.34073" lon="-0.25905">
        <ele>56</ele>
        <time>2011-04-03T09:15:07.127Z</time>
      </trkpt>
      <trkpt lat="47.34068" lon="-0.25898">
        <ele>56.2</ele>
        <time>2011-04-03T09:15:08.152Z</time>
      </trkpt>
      <trkpt lat="47.34064" lon="-0.25891">
        <ele>56.4</ele>
        <time>2011-04-03T09:15:09.075Z</time>
      </trkpt>
      <trkpt lat="47.3406" lon="-0.25884">
        <ele>56.5</ele>
        <time>2011-04-03T09:15:10Z</time>
        <extensions>
          <type>
            <highway>track</highway>
            <surface>dirt</surface>
            </type>
        </extensions>
      </trkpt>
      <trkpt lat="47.34057" lon="-0.25875">
        <ele>56.4</ele>
        <time>2011-04-03T09:15:11.052Z</time>
      </trkpt>
      <trkpt lat="47.34055" lon="-0.25867">
        <ele>56.3</ele>
        <time>2011-04-03T09:15:11.946Z</time>
      </trkpt>
      <trkpt lat="47.34052" lon="-0.25858">
        <ele>56.1</ele>
        <time>2011-04-03T09:15:12.998Z</time>
      </trkpt>
      <trkpt lat="47.3405" lon="-0.25849">
        <ele>56</ele>
        <time>2011-04-03T09:15:13.991Z</time>
      </trkpt>
      <trkpt lat="47.34047" lon="-0.25841">
        <ele>55.9</ele>
        <time>2011-04-03T09:15:14.950Z</time>
      </trkpt>
      <trkpt lat="47.34044" lon="-0.25832">
        <ele>55.8</ele>
        <time>2011-04-03T09:15:16.002Z</time>
      </trkpt>
      <trkpt lat="47.34042" lon="-0.25823">
        <ele>55.6</ele>
        <time>2011-04-03T09:15:16.995Z</time>
      </trkpt>
      <trkpt lat="47.34039" lon="-0.25815">
        <ele>55.5</ele>
        <time>2011-04-03T09:15:17.954Z</time>
      </trkpt>
      <trkpt lat="47.34036" lon="-0.25806">
        <ele>55.4</ele>
        <time>2011-04-03T09:15:19.006Z</time>
      </trkpt>
      <trkpt lat="47.34034" lon="-0.25797">
        <ele>55</ele>
        <time>2011-04-03T09:15:19.999Z</time>
      </trkpt>
      <trkpt lat="47.34031" lon="-0.25788">
        <ele>54.6</ele>
        <time>2011-04-03T09:15:21.051Z</time>
      </trkpt>
      <trkpt lat="47.34029" lon="-0.2578">
        <ele>54.1</ele>
        <time>2011-04-03T09:15:21.946Z</time>
      </trkpt>
      <trkpt lat="47.34026" lon="-0.25771">
        <ele>53.6</ele>
        <time>2011-04-03T09:15:22.998Z</time>
      </trkpt>
      <trkpt lat="47.34023" lon="-0.25762">
        <ele>53.1</ele>
        <time>2011-04-03T09:15:24.051Z</time>
      </trkpt>
      <trkpt lat="47.34021" lon="-0.25754">
        <ele>52.7</ele>
        <time>2011-04-03T09:15:24.946Z</time>
      </trkpt>
      <trkpt lat="47.34018" lon="-0.25745">
        <ele>52.6</ele>
        <time>2011-04-03T09:15:26Z</time>
        <extensions>
          <type>
            <highway>track</highway>
            <surface>dirt</surface>
            </type>
        </extensions>
      </trkpt>
      <trkpt lat="47.34015" lon="-0.25739">
        <ele>52.6</ele>
        <time>2011-04-03T09:15:26.645Z</time>
      </trkpt>
      <trkpt lat="47.34012" lon="-0.25734">
        <ele>52.5</ele>
        <time>2011-04-03T09:15:27.222Z</time>
      </trkpt>
      <trkpt lat="47.34009" lon="-0.25728">
        <ele>52.3</ele>
        <time>2011-04-03T09:15:27.867Z</time>
      </trkpt>
      <trkpt lat="47.34006" lon="-0.25723">
        <ele>52</ele>
        <time>2011-04-03T09:15:28.444Z</time>
      </trkpt>
      <trkpt lat="47.34003" lon="-0.25717">
        <ele>51.6</ele>
        <time>2011-04-03T09:15:29.089Z</time>
      </trkpt>
      <trkpt lat="47.34" lon="-0.25711">
        <ele>51.2</ele>
        <time>2011-04-03T09:15:29.734Z</time>
      </trkpt>
      <trkpt lat="47.33997" lon="-0.25706">
        <ele>50.9</ele>
        <time>2011-04-03T09:15:30.311Z</time>
      </trkpt>
      <trkpt lat="47.33994" lon="-0.257">
        <ele>50.6</ele>
        <time>2011-04-03T09:15:30.956Z</time>
      </trkpt>
      <trkpt lat="47.3399" lon="-0.25694">
        <ele>50.3</ele>
        <time>2011-04-03T09:15:31.684Z</time>
      </trkpt>
      <trkpt lat="47.33987" lon="-0.25689">
        <ele>50.3</ele>
        <time>2011-04-03T09:15:32.262Z</time>
      </trkpt>
      <trkpt lat="47.33984" lon="-0.25683">
        <ele>50.1</ele>
        <time>2011-04-03T09:15:32.907Z</time>
      </trkpt>
      <trkpt lat="47.33981" lon="-0.25678">
        <ele>49.9</ele>
        <time>2011-04-03T09:15:33.485Z</time>
      </trkpt>
      <trkpt lat="47.33978" lon="-0.25672">
        <ele>49.5</ele>
        <time>2011-04-03T09:15:34.130Z</time>
      </trkpt>
      <trkpt lat="47.33975" lon="-0.25666">
        <ele>49.1</ele>
        <time>2011-04-03T09:15:34.775Z</time>
      </trkpt>
      <trkpt lat="47.33972" lon="-0.25661">
        <ele>48.8</ele>
        <time>2011-04-03T09:15:35.353Z</time>
      </trkpt>
      <trkpt lat="47.33969" lon="-0.25655">
        <ele>48.7</ele>
        <time>2011-04-03T09:15:36Z</time>
        <extensions>
          <type>
            <highway>track</highway>
            <surface>dirt</surface>
            </type>
        </extensions>
      </trkpt>
      <trkpt lat="47.33964" lon="-0.25648">
        <ele>48.6</ele>
        <time>2011-04-03T09:15:36.867Z</time>
      </trkpt>
      <trkpt lat="47.33959" lon="-0.25641">
        <ele>48.5</ele>
        <time>2011-04-03T09:15:37.734Z</time>
      </trkpt>
      <trkpt lat="47.33954" lon="-0.25634">
        <ele>48.4</ele>
        <time>2011-04-03T09:15:38.601Z</time>
      </trkpt>
      <trkpt lat="47.33949" lon="-0.25627">
        <ele>48.1</ele>
        <time>2011-04-03T09:15:39.468Z</time>
      </trkpt>
      <trkpt lat="47.33944" lon="-0.25619">
        <ele>47.6</ele>
        <time>2011-04-03T09:15:40.396Z</time>
      </trkpt>
      <trkpt lat="47.33939" lon="-0.25612">
        <ele>47.1</ele>
        <time>2011-04-03T09:15:41.263Z</time>
      </trkpt>
      <trkpt lat="47.33934" lon="-0.25605">
        <ele>46.8</ele>
        <time>2011-04-03T09:15:42.131Z</time>
      </trkpt>
      <trkpt lat="47.33929" lon="-0.25598">
        <ele>46.5</ele>
        <time>2011-04-03T09:15:43Z</time>
        <extensions>
          <type>
            <highway>track</highway>
            <surface>dirt</surface>
            </type>
        </extensions>
      </trkpt>
      <trkpt lat="47.33925" lon="-0.25595">
        <ele>46.2</ele>
        <time>2011-04-03T09:15:43.644Z</time>
      </trkpt>
      <trkpt lat="47.33921" lon="-0.25591">
        <ele>45.8</ele>
        <time>2011-04-03T09:15:44.337Z</time>
      </trkpt>
      <trkpt lat="47.33917" lon="-0.25588">
        <ele>45.4</ele>
        <time>2011-04-03T09:15:44.981Z</time>
      </trkpt>
      <trkpt lat="47.33913" lon="-0.25585">
        <ele>45.2</ele>
        <time>2011-04-03T09:15:45.625Z</time>
      </trkpt>
      <trkpt lat="47.33909" lon="-0.25581">
        <ele>45.2</ele>
        <time>2011-04-03T09:15:46.318Z</time>
      </trkpt>
      <trkpt lat="47.33905" lon="-0.25578">
        <ele>45.3</ele>
        <time>2011-04-03T09:15:46.962Z</time>
      </trkpt>
      <trkpt lat="47.33901" lon="-0.25575">
        <ele>45.2</ele>
        <time>2011-04-03T09:15:47.606Z</time>
      </trkpt>
      <trkpt lat="47.33897" lon="-0.25572">
        <ele>45.1</ele>
        <time>2011-04-03T09:15:48.250Z</time>
      </trkpt>
      <trkpt lat="47.33893" lon="-0.25568">
        <ele>44.9</ele>
        <time>2011-04-03T09:15:48.943Z</time>
      </trkpt>
      <trkpt lat="47.33889" lon="-0.25565">
        <ele>44.7</ele>
        <time>2011-04-03T09:15:49.587Z</time>
      </trkpt>
      <trkpt lat="47.33885" lon="-0.25562">
        <ele>44.5</ele>
        <time>2011-04-03T09:15:50.231Z</time>
      </trkpt>
      <trkpt lat="47.33881" lon="-0.25558">
        <ele>44.4</ele>
        <time>2011-04-03T09:15:50.925Z</time>
      </trkpt>
      <trkpt lat="47.33877" lon="-0.25555">
        <ele>44.4</ele>
        <time>2011-04-03T09:15:51.569Z</time>
      </trkpt>
      <trkpt lat="47.33873" lon="-0.25552">
        <ele>44.5</ele>
        <time>2011-04-03T09:15:52.213Z</time>
      </trkpt>
      <trkpt lat="47.3387" lon="-0.25548">
        <ele>44.6</ele>
        <time>2011-04-03T09:15:52.793Z</time>
      </trkpt>
      <trkpt lat="47.33866" lon="-0.25545">
        <ele>44.6</ele>
        <time>2011-04-03T09:15:53.437Z</time>
      </trkpt>
      <trkpt lat="47.33862" lon="-0.25542">
        <ele>44.5</ele>
        <time>2011-04-03T09:15:54.081Z</time>
      </trkpt>
      <trkpt lat="47.33858" lon="-0.25538">
        <ele>44.3</ele>
        <time>2011-04-03T09:15:54.775Z</time>
      </trkpt>
      <trkpt lat="47.33854" lon="-0.25535">
        <ele>44.2</ele>
        <time>2011-04-03T09:15:55.419Z</time>
      </trkpt>
      <trkpt lat="47.3385" lon="-0.25532">
        <ele>44.1</ele>
        <time>2011-04-03T09:15:56.063Z</time>
      </trkpt>
      <trkpt lat="47.33846" lon="-0.25528">
        <ele>44</ele>
        <time>2011-04-03T09:15:56.757Z</time>
      </trkpt>
      <trkpt lat="47.33842" lon="-0.25525">
        <ele>44</ele>
        <time>2011-04-03T09:15:57.401Z</time>
      </trkpt>
      <trkpt lat="47.33838" lon="-0.25522">
        <ele>44</ele>
        <time>2011-04-03T09:15:58.046Z</time>
      </trkpt>
      <trkpt lat="47.33834" lon="-0.25519">
        <ele>44</ele>
        <time>2011-04-03T09:15:58.691Z</time>
      </trkpt>
      <trkpt lat="47.3383" lon="-0.25515">
        <ele>43.9</ele>
        <time>2011-04-03T09:15:59.385Z</time>
      </trkpt>
      <trkpt lat="47.33826" lon="-0.25512">
        <ele>43.7</ele>
        <time>2011-04-03T09:16:00.030Z</time>
      </trkpt>
      <trkpt lat="47.33822" lon="-0.25509">
        <ele>43.6</ele>
        <time>2011-04-03T09:16:00.675Z</time>
      </trkpt>
      <trkpt lat="47.33818" lon="-0.25505">
        <ele>43.4</ele>
        <time>2011-04-03T09:16:01.369Z</time>
      </trkpt>
      <trkpt lat="47.33814" lon="-0.25502">
        <ele>43.3</ele>
        <time>2011-04-03T09:16:02.014Z</time>
      </trkpt>
      <trkpt lat="47.3381" lon="-0.25499">
        <ele>43.1</ele>
        <time>2011-04-03T09:16:02.659Z</time>
      </trkpt>
      <trkpt lat="47.33806" lon="-0.25495">
        <ele>43</ele>
        <time>2011-04-03T09:16:03.354Z</time>
      </trkpt>
      <trkpt lat="47.33802" lon="-0.25492">
        <ele>43</ele>
        <time>2011-04-03T09:16:04Z</time>
        <extensions>
          <type>
            <highway>track</highway>
            <surface>dirt</surface>
            </type>
        </extensions>
      </trkpt>
      <trkpt lat="47.33796" lon="-0.25486">
        <ele>43</ele>
        <time>2011-04-03T09:16:05.267Z</time>
      </trkpt>
      <trkpt lat="47.3379" lon="-0.2548">
        <ele>43</ele>
        <time>2011-04-03T09:16:06.534Z</time>
      </trkpt>
      <trkpt lat="47.33784" lon="-0.25474">
        <ele>43</ele>
        <time>2011-04-03T09:16:07.801Z</time>
      </trkpt>
      <trkpt lat="47.33779" lon="-0.25468">
        <ele>43</ele>
        <time>2011-04-03T09:16:08.928Z</time>
      </trkpt>
      <trkpt lat="47.33773" lon="-0.25462">
        <ele>42.8</ele>
        <time>2011-04-03T09:16:10.195Z</time>
      </trkpt>
      <trkpt lat="47.33767" lon="-0.25456">
        <ele>42.6</ele>
        <time>2011-04-03T09:16:11.463Z</time>
      </trkpt>
      <trkpt lat="47.33761" lon="-0.2545">
        <ele>42.4</ele>
        <time>2011-04-03T09:16:12.731Z</time>
      </trkpt>
      <trkpt lat="47.33755" lon="-0.25444">
        <ele>42.2</ele>
        <time>2011-04-03T09:16:14Z</time>
        <extensions>
          <type>
            <highway>track</highway>
            <surface>dirt</surface>
            </type>
        </extensions>
      </trkpt>
      <trkpt lat="47.33752" lon="-0.25433">
        <ele>42.1</ele>
        <time>2011-04-03T09:16:15.443Z</time>
      </trkpt>
      <trkpt lat="47.33749" lon="-0.25421">
        <ele>42</ele>
        <time>2011-04-03T09:16:17Z</time>
        <extensions>
          <type>
            <highway>unclassified</highway>
            <surface>asphalt</surface>
            </type>
        </extensions>
      </trkpt>
      <trkpt lat="47.33749" lon="-0.25412">
        <ele>41.9</ele>
        <time>2011-04-03T09:16:18.073Z</time>
      </trkpt>
      <trkpt lat="47.33748" lon="-0.25402">
        <ele>41.9</ele>
        <time>2011-04-03T09:16:19.278Z</time>
      </trkpt>
      <trkpt lat="47.33748" lon="-0.25393">
        <ele>41.9</ele>
        <time>2011-04-03T09:16:20.351Z</time>
      </trkpt>
      <trkpt lat="47.33747" lon="-0.25384">
        <ele>41.9</ele>
        <time>2011-04-03T09:16:21.438Z</time>
      </trkpt>
      <trkpt lat="47.33747" lon="-0.25374">
        <ele>41.8</ele>
        <time>2011-04-03T09:16:22.630Z</time>
      </trkpt>
      <trkpt lat="47.33746" lon="-0.25365">
        <ele>41.7</ele>
        <time>2011-04-03T09:16:23.718Z</time>
      </trkpt>
      <trkpt lat="47.33746" lon="-0.25355">
        <ele>41.7</ele>
        <time>2011-04-03T09:16:24.911Z</time>
      </trkpt>
      <trkpt lat="47.33745" lon="-0.25346">
        <ele>41.7</ele>
        <time>2011-04-03T09:16:26Z</time>
        <extensions>
          <type>
            <highway>unclassified</highway>
            <surface>asphalt</surface>
            </type>
        </extensions>
      </trkpt>
      <trkpt lat="47.33746" lon="-0.25335">
        <ele>41.8</ele>
        <time>2011-04-03T09:17:30.291Z</time>
      </trkpt>
      <trkpt lat="47.33746" lon="-0.25323">
        <ele>41.9</ele>
        <time>2011-04-03T09:18:39.804Z</time>
      </trkpt>
      <trkpt lat="47.33747" lon="-0.25312">
        <ele>41.9</ele>
        <time>2011-04-03T09:19:44.096Z</time>
      </trkpt>
      <trkpt lat="47.33748" lon="-0.25301">
        <ele>41.9</ele>
        <time>2011-04-03T09:20:48.387Z</time>
      </trkpt>
      <trkpt lat="47.33748" lon="-0.25289">
        <ele>41.9</ele>
        <time>2011-04-03T09:21:57.901Z</time>
      </trkpt>
      <trkpt lat="47.33749" lon="-0.25278">
        <ele>42</ele>
        <time>2011-04-03T09:23:02.193Z</time>
      </trkpt>
      <trkpt lat="47.33749" lon="-0.25266">
        <ele>42.4</ele>
        <time>2011-04-03T09:24:11.707Z</time>
      </trkpt>
      <trkpt lat="47.3375" lon="-0.25255">
        <ele>42.8</ele>
        <time>2011-04-03T09:25:16Z</time>
        <extensions>
          <type>
            <highway>unclassified</highway>
            <surface>asphalt</surface>
            </type>
        </extensions>
      </trkpt>
      <trkpt lat="47.33747" lon="-0.25245">
        <ele>43.2</ele>
        <time>2011-04-03T09:25:18.968Z</time>
      </trkpt>
      <trkpt lat="47.33744" lon="-0.25235">
        <ele>43.6</ele>
        <time>2011-04-03T09:25:21.936Z</time>
      </trkpt>
      <trkpt lat="47.33741" lon="-0.25225">
        <ele>43.9</ele>
        <time>2011-04-03T09:25:24.904Z</time>
      </trkpt>
      <trkpt lat="47.33738" lon="-0.25215">
        <ele>44.1</ele>
        <time>2011-04-03T09:25:27.873Z</time>
      </trkpt>
      <trkpt lat="47.33735" lon="-0.25204">
        <ele>44.3</ele>
        <time>2011-04-03T09:25:31.092Z</time>
      </trkpt>
      <trkpt lat="47.33732" lon="-0.25194">
        <ele>44.4</ele>
        <time>2011-04-03T09:25:34.061Z</time>
      </trkpt>
      <trkpt lat="47.33729" lon="-0.25184">
        <ele>44.3</ele>
        <time>2011-04-03T09:25:37.030Z</time>
      </trkpt>
      <trkpt lat="47.33726" lon="-0.25174">
        <ele>44.3</ele>
        <time>2011-04-03T09:25:40Z</time>
        <extensions>
          <type>
            <highway>unclassified</highway>
            <surface>asphalt</surface>
            </type>
        </extensions>
      </trkpt>
      <trkpt lat="47.33722" lon="-0.2517">
        <ele>43.9</ele>
        <time>2011-04-03T09:25:41.018Z</time>
      </trkpt>
      <trkpt lat="47.33718" lon="-0.25167">
        <ele>43.8</ele>
        <time>2011-04-03T09:25:41.963Z</time>
      </trkpt>
      <trkpt lat="47.33714" lon="-0.25163">
        <ele>43.7</ele>
        <time>2011-04-03T09:25:42.981Z</time>
      </trkpt>
      <trkpt lat="47.3371" lon="-0.25159">
        <ele>43.6</ele>
        <time>2011-04-03T09:25:43.999Z</time>
      </trkpt>
      <trkpt lat="47.33706" lon="-0.25155">
        <ele>43.4</ele>
        <time>2011-04-03T09:25:45.017Z</time>
      </trkpt>
      <trkpt lat="47.33702" lon="-0.25152">
        <ele>43.3</ele>
        <time>2011-04-03T09:25:45.962Z</time>
      </trkpt>
      <trkpt lat="47.33698" lon="-0.25148">
        <ele>43.1</ele>
        <time>2011-04-03T09:25:46.981Z</time>
      </trkpt>
      <trkpt lat="47.33694" lon="-0.25144">
        <ele>43</ele>
        <time>2011-04-03T09:25:48Z</time>
        <extensions>
          <type>
            <highway>unclassified</highway>
            <surface>asphalt</surface>
            </type>
        </extensions>
      </trkpt>
      <trkpt lat="47.33691" lon="-0.25138">
        <ele>42.9</ele>
        <time>2011-04-03T09:25:48.973Z</time>
      </trkpt>
      <trkpt lat="47.33688" lon="-0.25132">
        <ele>43.4</ele>
        <time>2011-04-03T09:25:49.946Z</time>
      </trkpt>
      <trkpt lat="47.33685" lon="-0.25125">
        <ele>43.6</ele>
        <time>2011-04-03T09:25:51.026Z</time>
      </trkpt>
      <trkpt lat="47.33682" lon="-0.25119">
        <ele>43.7</ele>
        <time>2011-04-03T09:25:52Z</time>
        <extensions>
          <type>
            <highway>unclassified</highway>
            <surface>asphalt</surface>
            </type>
        </extensions>
      </trkpt>
      <trkpt lat="47.33682" lon="-0.25109">
        <ele>44.3</ele>
        <time>2011-04-03T09:25:53.278Z</time>
      </trkpt>
      <trkpt lat="47.33682" lon="-0.251">
        <ele>44.2</ele>
        <time>2011-04-03T09:25:54.428Z</time>
      </trkpt>
      <trkpt lat="47.33681" lon="-0.2509">
        <ele>44.2</ele>
        <time>2011-04-03T09:25:55.720Z</time>
      </trkpt>
      <trkpt lat="47.33681" lon="-0.2508">
        <ele>44</ele>
        <time>2011-04-03T09:25:56.998Z</time>
      </trkpt>
      <trkpt lat="47.33681" lon="-0.2507">
        <ele>43.8</ele>
        <time>2011-04-03T09:25:58.277Z</time>
      </trkpt>
      <trkpt lat="47.33681" lon="-0.25061">
        <ele>43.6</ele>
        <time>2011-04-03T09:25:59.428Z</time>
      </trkpt>
      <trkpt lat="47.3368" lon="-0.25051">
        <ele>43.4</ele>
        <time>2011-04-03T09:26:00.720Z</time>
      </trkpt>
      <trkpt lat="47.3368" lon="-0.25041">
        <ele>43.4</ele>
        <time>2011-04-03T09:26:02Z</time>
        <extensions>
          <type>
            <highway>unclassified</highway>
            <surface>asphalt</surface>
            </type>
        </extensions>
      </trkpt>
      <trkpt lat="47.33678" lon="-0.25029">
        <ele>42.7</ele>
        <time>2011-04-03T09:26:03.351Z</time>
      </trkpt>
      <trkpt lat="47.33675" lon="-0.25017">
        <ele>42.3</ele>
        <time>2011-04-03T09:26:04.749Z</time>
      </trkpt>
      <trkpt lat="47.33673" lon="-0.25005">
        <ele>41.9</ele>
        <time>2011-04-03T09:26:06.100Z</time>
      </trkpt>
      <trkpt lat="47.3367" lon="-0.24993">
        <ele>41.6</ele>
        <time>2011-04-03T09:26:07.498Z</time>
      </trkpt>
      <trkpt lat="47.33668" lon="-0.24981">
        <ele>41.1</ele>
        <time>2011-04-03T09:26:08.849Z</time>
      </trkpt>
      <trkpt lat="47.33665" lon="-0.24969">
        <ele>40.8</ele>
        <time>2011-04-03T09:26:10.248Z</time>
      </trkpt>
      <trkpt lat="47.33663" lon="-0.24957">
        <ele>40.5</ele>
        <time>2011-04-03T09:26:11.600Z</time>
      </trkpt>
      <trkpt lat="47.3366" lon="-0.24945">
        <ele>40.3</ele>
        <time>2011-04-03T09:26:13Z</time>
        <extensions>
          <type>
            <highway>unclassified</highway>
            <surface>asphalt</surface>
            </type>
        </extensions>
      </trkpt>
      <trkpt lat="47.33659" lon="-0.24936">
        <ele>39.9</ele>
        <time>2011-04-03T09:26:13.952Z</time>
      </trkpt>
      <trkpt lat="47.33659" lon="-0.24926">
        <ele>39.5</ele>
        <time>2011-04-03T09:26:14.996Z</time>
      </trkpt>
      <trkpt lat="47.33658" lon="-0.24917">
        <ele>39.1</ele>
        <time>2011-04-03T09:26:15.949Z</time>
      </trkpt>
      <trkpt lat="47.33658" lon="-0.24907">
        <ele>39.5</ele>
        <time>2011-04-03T09:26:16.993Z</time>
      </trkpt>
      <trkpt lat="47.33657" lon="-0.24898">
        <ele>39.8</ele>
        <time>2011-04-03T09:26:17.946Z</time>
      </trkpt>
      <trkpt lat="47.33656" lon="-0.24888">
        <ele>40.1</ele>
        <time>2011-04-03T09:26:19.002Z</time>
      </trkpt>
      <trkpt lat="47.33656" lon="-0.24879">
        <ele>40</ele>
        <time>2011-04-03T09:26:19.943Z</time>
      </trkpt>
      <trkpt lat="47.33655" lon="-0.24869">
        <ele>39.9</ele>
        <time>2011-04-03T09:26:21Z</time>
        <extensions>
          <type>
            <highway>unclassified</highway>
            <surface>asphalt</surface>
            </type>
        </extensions>
      </trkpt>
      <trkpt lat="47.33654" lon="-0.24862">
        <ele>39.7</ele>
        <time>2011-04-03T09:26:21.813Z</time>
      </trkpt>
      <trkpt lat="47.33653" lon="-0.24855">
        <ele>39.4</ele>
        <time>2011-04-03T09:26:22.626Z</time>
      </trkpt>
      <trkpt lat="47.33652" lon="-0.24848">
        <ele>39.1</ele>
        <time>2011-04-03T09:26:23.439Z</time>
      </trkpt>
      <trkpt lat="47.33651" lon="-0.24841">
        <ele>38.8</ele>
        <time>2011-04-03T09:26:24.252Z</time>
      </trkpt>
      <trkpt lat="47.33649" lon="-0.24834">
        <ele>38.5</ele>
        <time>2011-04-03T09:26:25.115Z</time>
      </trkpt>
      <trkpt lat="47.33648" lon="-0.24827">
        <ele>38.6</ele>
        <time>2011-04-03T09:26:25.928Z</time>
      </trkpt>
      <trkpt lat="47.33647" lon="-0.2482">
        <ele>38.8</ele>
        <time>2011-04-03T09:26:26.741Z</time>
      </trkpt>
      <trkpt lat="47.33646" lon="-0.24814">
        <ele>38.9</ele>
        <time>2011-04-03T09:26:27.443Z</time>
      </trkpt>
      <trkpt lat="47.33645" lon="-0.24807">
        <ele>39</ele>
        <time>2011-04-03T09:26:28.256Z</time>
      </trkpt>
      <trkpt lat="47.33644" lon="-0.248">
        <ele>39</ele>
        <time>2011-04-03T09:26:29.069Z</time>
      </trkpt>
      <trkpt lat="47.33643" lon="-0.24793">
        <ele>38.9</ele>
        <time>2011-04-03T09:26:29.882Z</time>
      </trkpt>
      <trkpt lat="47.33642" lon="-0.24786">
        <ele>39</ele>
        <time>2011-04-03T09:26:30.695Z</time>
      </trkpt>
      <trkpt lat="47.3364" lon="-0.24779">
        <ele>39.1</ele>
        <time>2011-04-03T09:26:31.559Z</time>
      </trkpt>
      <trkpt lat="47.33639" lon="-0.24772">
        <ele>39.2</ele>
        <time>2011-04-03T09:26:32.372Z</time>
      </trkpt>
      <trkpt lat="47.33638" lon="-0.24765">
        <ele>39.4</ele>
        <time>2011-04-03T09:26:33.186Z</time>
      </trkpt>
      <trkpt lat="47.33637" lon="-0.24758">
        <ele>39.5</ele>
        <time>2011-04-03T09:26:34Z</time>
        <extensions>
          <type>
            <highway>unclassified</highway>
            <surface>asphalt</surface>
            </type>
        </extensions>
      </trkpt>
      <trkpt lat="47.33635" lon="-0.2475">
        <ele>39.4</ele>
        <time>2011-04-03T09:26:34.986Z</time>
      </trkpt>
      <trkpt lat="47.33632" lon="-0.24742">
        <ele>38.9</ele>
        <time>2011-04-03T09:26:36.044Z</time>
      </trkpt>
      <trkpt lat="47.3363" lon="-0.24734">
        <ele>38.5</ele>
        <time>2011-04-03T09:26:37.030Z</time>
      </trkpt>
      <trkpt lat="47.33628" lon="-0.24727">
        <ele>38.2</ele>
        <time>2011-04-03T09:26:37.909Z</time>
      </trkpt>
      <trkpt lat="47.33625" lon="-0.24719">
        <ele>38.1</ele>
        <time>2011-04-03T09:26:38.967Z</time>
      </trkpt>
      <trkpt lat="47.33623" lon="-0.24711">
        <ele>38.2</ele>
        <time>2011-04-03T09:26:39.954Z</time>
      </trkpt>
      <trkpt lat="47.3362" lon="-0.24703">
        <ele>38.1</ele>
        <time>2011-04-03T09:26:41.012Z</time>
      </trkpt>
      <trkpt lat="47.33618" lon="-0.24695">
        <ele>38</ele>
        <time>2011-04-03T09:26:42Z</time>
        <extensions>
          <type>
            <highway>unclassified</highway>
            <surface>asphalt</surface>
            </type>
        </extensions>
      </trkpt>
      <trkpt lat="47.33614" lon="-0.24691">
        <ele>37.7</ele>
        <time>2011-04-03T09:26:42.959Z</time>
      </trkpt>
      <trkpt lat="47.3361" lon="-0.24686">
        <ele>37.2</ele>
        <time>2011-04-03T09:26:44Z</time>
        <extensions>
          <type>
            <highway>unclassified</highway>
            <surface>asphalt</surface>
            </type>
        </extensions>
      </trkpt>
      <trkpt lat="47.33606" lon="-0.24688">
        <ele>36.7</ele>
        <time>2011-04-03T09:26:45.366Z</time>
      </trkpt>
      <trkpt lat="47.33601" lon="-0.24689">
        <ele>36.2</ele>
        <time>2011-04-03T09:26:47Z</time>
        <extensions>
          <type>
            <highway>secondary</highway>
            <surface>asphalt</surface>
            </type>
        </extensions>
      </trkpt>
      <trkpt lat="47.336" lon="-0.24696">
        <ele>35.8</ele>
        <time>2011-04-03T09:26:47.965Z</time>
      </trkpt>
      <trkpt lat="47.33598" lon="-0.24702">
        <ele>35.9</ele>
        <time>2011-04-03T09:26:48.867Z</time>
      </trkpt>
      <trkpt lat="47.33597" lon="-0.24709">
        <ele>36</ele>
        <time>2011-04-03T09:26:49.832Z</time>
      </trkpt>
      <trkpt lat="47.33595" lon="-0.24715">
        <ele>36.1</ele>
        <time>2011-04-03T09:26:50.734Z</time>
      </trkpt>
      <trkpt lat="47.33594" lon="-0.24722">
        <ele>36.4</ele>
        <time>2011-04-03T09:26:51.699Z</time>
      </trkpt>
      <trkpt lat="47.33592" lon="-0.24728">
        <ele>36.3</ele>
        <time>2011-04-03T09:26:52.601Z</time>
      </trkpt>
      <trkpt lat="47.33591" lon="-0.24735">
        <ele>36.1</ele>
        <time>2011-04-03T09:26:53.566Z</time>
      </trkpt>
      <trkpt lat="47.3359" lon="-0.24742">
        <ele>36.1</ele>
        <time>2011-04-03T09:26:54.531Z</time>
      </trkpt>
      <trkpt lat="47.33588" lon="-0.24748">
        <ele>36</ele>
        <time>2011-04-03T09:26:55.433Z</time>
      </trkpt>
      <trkpt lat="47.33587" lon="-0.24755">
        <ele>36</ele>
        <time>2011-04-03T09:26:56.398Z</time>
      </trkpt>
      <trkpt lat="47.33585" lon="-0.24761">
        <ele>36</ele>
        <time>2011-04-03T09:26:57.300Z</time>
      </trkpt>
      <trkpt lat="47.33584" lon="-0.24768">
        <ele>36</ele>
        <time>2011-04-03T09:26:58.265Z</time>
      </trkpt>
      <trkpt lat="47.33582" lon="-0.24774">
        <ele>36</ele>
        <time>2011-04-03T09:26:59.167Z</time>
      </trkpt>
      <trkpt lat="47.33581" lon="-0.24781">
        <ele>36</ele>
        <time>2011-04-03T09:27:00.132Z</time>
      </trkpt>
      <trkpt lat="47.33579" lon="-0.24787">
        <ele>35.8</ele>
        <time>2011-04-03T09:27:01.034Z</time>
      </trkpt>
      <trkpt lat="47.33578" lon="-0.24794">
        <ele>35.7</ele>
        <time>2011-04-03T09:27:02Z</time>
        <extensions>
          <type>
            <highway>secondary</highway>
            <surface>asphalt</surface>
            </type>
        </extensions>
      </trkpt>
      <trkpt lat="47.33576" lon="-0.24803">
        <ele>35.6</ele>
        <time>2011-04-03T09:27:03.493Z</time>
      </trkpt>
      <trkpt lat="47.33573" lon="-0.24812">
        <ele>35.7</ele>
        <time>2011-04-03T09:27:05.074Z</time>
      </trkpt>
      <trkpt lat="47.33571" lon="-0.2482">
        <ele>35.7</ele>
        <time>2011-04-03T09:27:06.418Z</time>
      </trkpt>
      <trkpt lat="47.33568" lon="-0.24829">
        <ele>35.6</ele>
        <time>2011-04-03T09:27:08Z</time>
        <extensions>
          <type>
            <highway>secondary</highway>
            <surface>asphalt</surface>
            </type>
        </extensions>
      </trkpt>
      <trkpt lat="47.33565" lon="-0.24836">
        <ele>35.7</ele>
        <time>2011-04-03T09:27:12Z</time>
        <extensions>
          <type>
            <highway>secondary</highway>
            <surface>asphalt</surface>
            </type>
        </extensions>
      </trkpt>
      <trkpt lat="47.3356" lon="-0.24836">
        <ele>35.9</ele>
        <time>2011-04-03T09:27:14Z</time>
        <extensions>
          <type>
            <highway>unclassified</highway>
            <surface>undefined</surface>
            </type>
        </extensions>
      </trkpt>
      <trkpt lat="47.33556" lon="-0.24832">
        <ele>36.1</ele>
        <time>2011-04-03T09:27:15.315Z</time>
      </trkpt>
      <trkpt lat="47.33552" lon="-0.24827">
        <ele>36.4</ele>
        <time>2011-04-03T09:27:16.742Z</time>
      </trkpt>
      <trkpt lat="47.33548" lon="-0.24823">
        <ele>36.7</ele>
        <time>2011-04-03T09:27:18.057Z</time>
      </trkpt>
      <trkpt lat="47.33543" lon="-0.24818">
        <ele>37</ele>
        <time>2011-04-03T09:27:19.701Z</time>
      </trkpt>
      <trkpt lat="47.33539" lon="-0.24814">
        <ele>37.3</ele>
        <time>2011-04-03T09:27:21.016Z</time>
      </trkpt>
      <trkpt lat="47.33535" lon="-0.24809">
        <ele>37.6</ele>
        <time>2011-04-03T09:27:22.443Z</time>
      </trkpt>
      <trkpt lat="47.33531" lon="-0.24805">
        <ele>37.9</ele>
        <time>2011-04-03T09:27:23.758Z</time>
      </trkpt>
      <trkpt lat="47.33527" lon="-0.248">
        <ele>38</ele>
        <time>2011-04-03T09:27:25.185Z</time>
      </trkpt>
      <trkpt lat="47.33523" lon="-0.24796">
        <ele>38.3</ele>
        <time>2011-04-03T09:27:26.500Z</time>
      </trkpt>
      <trkpt lat="47.33518" lon="-0.24791">
        <ele>38.7</ele>
        <time>2011-04-03T09:27:28.144Z</time>
      </trkpt>
      <trkpt lat="47.33514" lon="-0.24787">
        <ele>39.2</ele>
        <time>2011-04-03T09:27:29.459Z</time>
      </trkpt>
      <trkpt lat="47.3351" lon="-0.24782">
        <ele>39.7</ele>
        <time>2011-04-03T09:27:30.886Z</time>
      </trkpt>
      <trkpt lat="47.33506" lon="-0.24778">
        <ele>40.3</ele>
        <time>2011-04-03T09:27:32.201Z</time>
      </trkpt>
      <trkpt lat="47.33502" lon="-0.24773">
        <ele>40.3</ele>
        <time>2011-04-03T09:27:33.628Z</time>
      </trkpt>
      <trkpt lat="47.33498" lon="-0.24769">
        <ele>40.1</ele>
        <time>2011-04-03T09:27:34.943Z</time>
      </trkpt>
      <trkpt lat="47.33494" lon="-0.24764">
        <ele>40.1</ele>
        <time>2011-04-03T09:27:36.370Z</time>
      </trkpt>
      <trkpt lat="47.33489" lon="-0.2476">
        <ele>40.3</ele>
        <time>2011-04-03T09:27:37.918Z</time>
      </trkpt>
      <trkpt lat="47.33485" lon="-0.24755">
        <ele>40.7</ele>
        <time>2011-04-03T09:27:39.345Z</time>
      </trkpt>
      <trkpt lat="47.33481" lon="-0.24751">
        <ele>41.4</ele>
        <time>2011-04-03T09:27:40.660Z</time>
      </trkpt>
      <trkpt lat="47.33477" lon="-0.24746">
        <ele>41.9</ele>
        <time>2011-04-03T09:27:42.087Z</time>
      </trkpt>
      <trkpt lat="47.33473" lon="-0.24742">
        <ele>42.3</ele>
        <time>2011-04-03T09:27:43.403Z</time>
      </trkpt>
      <trkpt lat="47.33469" lon="-0.24737">
        <ele>42.3</ele>
        <time>2011-04-03T09:27:44.830Z</time>
      </trkpt>
      <trkpt lat="47.33464" lon="-0.24733">
        <ele>42.4</ele>
        <time>2011-04-03T09:27:46.379Z</time>
      </trkpt>
      <trkpt lat="47.3346" lon="-0.24728">
        <ele>42.8</ele>
        <time>2011-04-03T09:27:47.806Z</time>
      </trkpt>
      <trkpt lat="47.33456" lon="-0.24724">
        <ele>43.3</ele>
        <time>2011-04-03T09:27:49.122Z</time>
      </trkpt>
      <trkpt lat="47.33452" lon="-0.24719">
        <ele>44</ele>
        <time>2011-04-03T09:27:50.550Z</time>
      </trkpt>
      <trkpt lat="47.33448" lon="-0.24715">
        <ele>44.9</ele>
        <time>2011-04-03T09:27:51.866Z</time>
      </trkpt>
      <trkpt lat="47.33444" lon="-0.2471">
        <ele>45.8</ele>
        <time>2011-04-03T09:27:53.294Z</time>
      </trkpt>
      <trkpt lat="47.3344" lon="-0.24706">
        <ele>46</ele>
        <time>2011-04-03T09:27:54.610Z</time>
      </trkpt>
      <trkpt lat="47.33435" lon="-0.24701">
        <ele>46.2</ele>
        <time>2011-04-03T09:27:56.255Z</time>
      </trkpt>
      <trkpt lat="47.33431" lon="-0.24697">
        <ele>46.4</ele>
        <time>2011-04-03T09:27:57.571Z</time>
      </trkpt>
      <trkpt lat="47.33427" lon="-0.24692">
        <ele>46.6</ele>
        <time>2011-04-03T09:27:59Z</time>
        <extensions>
          <type>
            <highway>unclassified</highway>
            <surface>undefined</surface>
            </type>
        </extensions>
      </trkpt>
      <trkpt lat="47.33424" lon="-0.24685">
        <ele>47.2</ele>
        <time>2011-04-03T09:28:00.698Z</time>
      </trkpt>
      <trkpt lat="47.3342" lon="-0.24679">
        <ele>47.8</ele>
        <time>2011-04-03T09:28:02.423Z</time>
      </trkpt>
      <trkpt lat="47.33417" lon="-0.24672">
        <ele>48.4</ele>
        <time>2011-04-03T09:28:04.121Z</time>
      </trkpt>
      <trkpt lat="47.33413" lon="-0.24665">
        <ele>48.9</ele>
        <time>2011-04-03T09:28:06Z</time>
        <extensions>
          <type>
            <highway>unclassified</highway>
            <surface>undefined</surface>
            </type>
        </extensions>
      </trkpt>
      <trkpt lat="47.33414" lon="-0.24653">
        <ele>49.8</ele>
        <time>2011-04-03T09:28:08.557Z</time>
      </trkpt>
      <trkpt lat="47.33415" lon="-0.24642">
        <ele>50.7</ele>
        <time>2011-04-03T09:28:10.904Z</time>
      </trkpt>
      <trkpt lat="47.33415" lon="-0.2463">
        <ele>51.6</ele>
        <time>2011-04-03T09:28:13.442Z</time>
      </trkpt>
      <trkpt lat="47.33416" lon="-0.24618">
        <ele>52.5</ele>
        <time>2011-04-03T09:28:15.999Z</time>
      </trkpt>
      <trkpt lat="47.33417" lon="-0.24606">
        <ele>53</ele>
        <time>2011-04-03T09:28:18.556Z</time>
      </trkpt>
      <trkpt lat="47.33418" lon="-0.24595">
        <ele>52.9</ele>
        <time>2011-04-03T09:28:20.903Z</time>
      </trkpt>
      <trkpt lat="47.33418" lon="-0.24583">
        <ele>52.8</ele>
        <time>2011-04-03T09:28:23.441Z</time>
      </trkpt>
      <trkpt lat="47.33419" lon="-0.24571">
        <ele>52.8</ele>
        <time>2011-04-03T09:28:26Z</time>
        <extensions>
          <type>
            <highway>unclassified</highway>
            <surface>undefined</surface>
            </type>
        </extensions>
      </trkpt>
      <trkpt lat="47.33414" lon="-0.24562">
        <ele>53.1</ele>
        <time>2011-04-03T09:28:28.328Z</time>
      </trkpt>
      <trkpt lat="47.33408" lon="-0.24552">
        <ele>53.3</ele>
        <time>2011-04-03T09:28:31Z</time>
        <extensions>
          <type>
            <highway>unclassified</highway>
            <surface>undefined</surface>
            </type>
        </extensions>
      </trkpt>
      <trkpt lat="47.33404" lon="-0.24548">
        <ele>53.5</ele>
        <time>2011-04-03T09:28:32.272Z</time>
      </trkpt>
      <trkpt lat="47.334" lon="-0.24545">
        <ele>53.6</ele>
        <time>2011-04-03T09:28:33.453Z</time>
      </trkpt>
      <trkpt lat="47.33396" lon="-0.24541">
        <ele>53.7</ele>
        <time>2011-04-03T09:28:34.725Z</time>
      </trkpt>
      <trkpt lat="47.33392" lon="-0.24537">
        <ele>53.9</ele>
        <time>2011-04-03T09:28:35.998Z</time>
      </trkpt>
      <trkpt lat="47.33388" lon="-0.24533">
        <ele>54</ele>
        <time>2011-04-03T09:28:37.271Z</time>
      </trkpt>
      <trkpt lat="47.33384" lon="-0.2453">
        <ele>53.8</ele>
        <time>2011-04-03T09:28:38.453Z</time>
      </trkpt>
      <trkpt lat="47.3338" lon="-0.24526">
        <ele>53.7</ele>
        <time>2011-04-03T09:28:39.726Z</time>
      </trkpt>
      <trkpt lat="47.33376" lon="-0.24522">
        <ele>53.6</ele>
        <time>2011-04-03T09:28:41Z</time>
        <extensions>
          <type>
            <highway>unclassified</highway>
            <surface>undefined</surface>
            </type>
        </extensions>
      </trkpt>
      <trkpt lat="47.33371" lon="-0.24514">
        <ele>53.7</ele>
        <time>2011-04-03T09:28:42.561Z</time>
      </trkpt>
      <trkpt lat="47.33367" lon="-0.24507">
        <ele>53.8</ele>
        <time>2011-04-03T09:28:43.875Z</time>
      </trkpt>
      <trkpt lat="47.33362" lon="-0.24499">
        <ele>54</ele>
        <time>2011-04-03T09:28:45.437Z</time>
      </trkpt>
      <trkpt lat="47.33357" lon="-0.24491">
        <ele>53.5</ele>
        <time>2011-04-03T09:28:47Z</time>
        <extensions>
          <type>
            <highway>unclassified</highway>
            <surface>undefined</surface>
            </type>
        </extensions>
      </trkpt>
      <trkpt lat="47.33354" lon="-0.24486">
        <ele>53.1</ele>
        <time>2011-04-03T09:28:47.942Z</time>
      </trkpt>
      <trkpt lat="47.33351" lon="-0.24481">
        <ele>52.8</ele>
        <time>2011-04-03T09:28:48.884Z</time>
      </trkpt>
      <trkpt lat="47.33348" lon="-0.24476">
        <ele>52.5</ele>
        <time>2011-04-03T09:28:49.826Z</time>
      </trkpt>
      <trkpt lat="47.33345" lon="-0.2447">
        <ele>52.4</ele>
        <time>2011-04-03T09:28:50.878Z</time>
      </trkpt>
      <trkpt lat="47.33342" lon="-0.24465">
        <ele>52.4</ele>
        <time>2011-04-03T09:28:51.820Z</time>
      </trkpt>
      <trkpt lat="47.33339" lon="-0.2446">
        <ele>52.6</ele>
        <time>2011-04-03T09:28:52.762Z</time>
      </trkpt>
      <trkpt lat="47.33336" lon="-0.24455">
        <ele>53</ele>
        <time>2011-04-03T09:28:53.704Z</time>
      </trkpt>
      <trkpt lat="47.33333" lon="-0.2445">
        <ele>53.4</ele>
        <time>2011-04-03T09:28:54.646Z</time>
      </trkpt>
      <trkpt lat="47.33329" lon="-0.24445">
        <ele>53.7</ele>
        <time>2011-04-03T09:28:55.737Z</time>
      </trkpt>
      <trkpt lat="47.33326" lon="-0.24439">
        <ele>53.7</ele>
        <time>2011-04-03T09:28:56.789Z</time>
      </trkpt>
      <trkpt lat="47.33323" lon="-0.24434">
        <ele>53.8</ele>
        <time>2011-04-03T09:28:57.731Z</time>
      </trkpt>
      <trkpt lat="47.3332" lon="-0.24429">
        <ele>53.9</ele>
        <time>2011-04-03T09:28:58.673Z</time>
      </trkpt>
      <trkpt lat="47.33317" lon="-0.24424">
        <ele>54</ele>
        <time>2011-04-03T09:28:59.615Z</time>
      </trkpt>
      <trkpt lat="47.33314" lon="-0.24419">
        <ele>54.2</ele>
        <time>2011-04-03T09:29:00.557Z</time>
      </trkpt>
      <trkpt lat="47.33311" lon="-0.24414">
        <ele>54.4</ele>
        <time>2011-04-03T09:29:01.499Z</time>
      </trkpt>
      <trkpt lat="47.33308" lon="-0.24409">
        <ele>54.7</ele>
        <time>2011-04-03T09:29:02.441Z</time>
      </trkpt>
      <trkpt lat="47.33305" lon="-0.24403">
        <ele>54.9</ele>
        <time>2011-04-03T09:29:03.493Z</time>
      </trkpt>
      <trkpt lat="47.33302" lon="-0.24398">
        <ele>55.1</ele>
        <time>2011-04-03T09:29:04.435Z</time>
      </trkpt>
      <trkpt lat="47.33299" lon="-0.24393">
        <ele>55.3</ele>
        <time>2011-04-03T09:29:05.377Z</time>
      </trkpt>
      <trkpt lat="47.33296" lon="-0.24388">
        <ele>55.4</ele>
        <time>2011-04-03T09:29:06.319Z</time>
      </trkpt>
      <trkpt lat="47.33293" lon="-0.24383">
        <ele>55.6</ele>
        <time>2011-04-03T09:29:07.261Z</time>
      </trkpt>
      <trkpt lat="47.3329" lon="-0.24378">
        <ele>55.9</ele>
        <time>2011-04-03T09:29:08.203Z</time>
      </trkpt>
      <trkpt lat="47.33287" lon="-0.24372">
        <ele>56.2</ele>
        <time>2011-04-03T09:29:09.255Z</time>
      </trkpt>
      <trkpt lat="47.33284" lon="-0.24367">
        <ele>56.6</ele>
        <time>2011-04-03T09:29:10.197Z</time>
      </trkpt>
      <trkpt lat="47.3328" lon="-0.24362">
        <ele>57</ele>
        <time>2011-04-03T09:29:11.289Z</time>
      </trkpt>
      <trkpt lat="47.33277" lon="-0.24357">
        <ele>57.3</ele>
        <time>2011-04-03T09:29:12.232Z</time>
      </trkpt>
      <trkpt lat="47.33274" lon="-0.24352">
        <ele>57.7</ele>
        <time>2011-04-03T09:29:13.175Z</time>
      </trkpt>
      <trkpt lat="47.33271" lon="-0.24347">
        <ele>58.2</ele>
        <time>2011-04-03T09:29:14.118Z</time>
      </trkpt>
      <trkpt lat="47.33268" lon="-0.24342">
        <ele>58.7</ele>
        <time>2011-04-03T09:29:15.061Z</time>
      </trkpt>
      <trkpt lat="47.33265" lon="-0.24336">
        <ele>59.2</ele>
        <time>2011-04-03T09:29:16.113Z</time>
      </trkpt>
      <trkpt lat="47.33262" lon="-0.24331">
        <ele>59.7</ele>
        <time>2011-04-03T09:29:17.056Z</time>
      </trkpt>
      <trkpt lat="47.33259" lon="-0.24326">
        <ele>60</ele>
        <time>2011-04-03T09:29:18Z</time>
        <extensions>
          <type>
            <highway>unclassified</highway>
            <surface>undefined</surface>
            </type>
        </extensions>
      </trkpt>
      <trkpt lat="47.33255" lon="-0.24317">
        <ele>60.5</ele>
        <time>2011-04-03T09:29:20.338Z</time>
      </trkpt>
      <trkpt lat="47.3325" lon="-0.24307">
        <ele>60.9</ele>
        <time>2011-04-03T09:29:23.037Z</time>
      </trkpt>
      <trkpt lat="47.33246" lon="-0.24298">
        <ele>61.2</ele>
        <time>2011-04-03T09:29:25.375Z</time>
      </trkpt>
      <trkpt lat="47.33242" lon="-0.24288">
        <ele>61.4</ele>
        <time>2011-04-03T09:29:27.897Z</time>
      </trkpt>
      <trkpt lat="47.33237" lon="-0.24279">
        <ele>61.5</ele>
        <time>2011-04-03T09:29:30.425Z</time>
      </trkpt>
      <trkpt lat="47.33233" lon="-0.24269">
        <ele>61.7</ele>
        <time>2011-04-03T09:29:32.948Z</time>
      </trkpt>
      <trkpt lat="47.33228" lon="-0.2426">
        <ele>61.9</ele>
        <time>2011-04-03T09:29:35.476Z</time>
      </trkpt>
      <trkpt lat="47.33224" lon="-0.2425">
        <ele>62.1</ele>
        <time>2011-04-03T09:29:38Z</time>
        <extensions>
          <type>
            <highway>unclassified</highway>
            <surface>undefined</surface>
            </type>
        </extensions>
      </trkpt>
      <trkpt lat="47.33219" lon="-0.24252">
        <ele>61.8</ele>
        <time>2011-04-03T09:29:40.500Z</time>
      </trkpt>
      <trkpt lat="47.33214" lon="-0.24254">
        <ele>61.5</ele>
        <time>2011-04-03T09:29:43Z</time>
        <extensions>
          <type>
            <highway>track</highway>
            <surface>undefined</surface>
            </type>
        </extensions>
      </trkpt>
      <trkpt lat="47.3321" lon="-0.24251">
        <ele>61.5</ele>
        <time>2011-04-03T09:29:44.173Z</time>
      </trkpt>
      <trkpt lat="47.33205" lon="-0.24249">
        <ele>61.4</ele>
        <time>2011-04-03T09:29:45.527Z</time>
      </trkpt>
      <trkpt lat="47.33201" lon="-0.24246">
        <ele>61.4</ele>
        <time>2011-04-03T09:29:46.700Z</time>
      </trkpt>
      <trkpt lat="47.33196" lon="-0.24243">
        <ele>61.3</ele>
        <time>2011-04-03T09:29:48.111Z</time>
      </trkpt>
      <trkpt lat="47.33192" lon="-0.24241">
        <ele>61.3</ele>
        <time>2011-04-03T09:29:49.215Z</time>
      </trkpt>
      <trkpt lat="47.33188" lon="-0.24238">
        <ele>61.3</ele>
        <time>2011-04-03T09:29:50.388Z</time>
      </trkpt>
      <trkpt lat="47.33183" lon="-0.24235">
        <ele>61.3</ele>
        <time>2011-04-03T09:29:51.799Z</time>
      </trkpt>
      <trkpt lat="47.33179" lon="-0.24233">
        <ele>61.4</ele>
        <time>2011-04-03T09:29:52.903Z</time>
      </trkpt>
      <trkpt lat="47.33174" lon="-0.2423">
        <ele>61.5</ele>
        <time>2011-04-03T09:29:54.314Z</time>
      </trkpt>
      <trkpt lat="47.3317" lon="-0.24227">
        <ele>61.7</ele>
        <time>2011-04-03T09:29:55.487Z</time>
      </trkpt>
      <trkpt lat="47.33166" lon="-0.24224">
        <ele>61.9</ele>
        <time>2011-04-03T09:29:56.660Z</time>
      </trkpt>
      <trkpt lat="47.33161" lon="-0.24222">
        <ele>62.2</ele>
        <time>2011-04-03T09:29:58.014Z</time>
      </trkpt>
      <trkpt lat="47.33157" lon="-0.24219">
        <ele>62.5</ele>
        <time>2011-04-03T09:29:59.187Z</time>
      </trkpt>
      <trkpt lat="47.33152" lon="-0.24216">
        <ele>62.7</ele>
        <time>2011-04-03T09:30:00.598Z</time>
      </trkpt>
      <trkpt lat="47.33148" lon="-0.24214">
        <ele>62.9</ele>
        <time>2011-04-03T09:30:01.702Z</time>
      </trkpt>
      <trkpt lat="47.33144" lon="-0.24211">
        <ele>63</ele>
        <time>2011-04-03T09:30:02.875Z</time>
      </trkpt>
      <trkpt lat="47.33139" lon="-0.24208">
        <ele>63</ele>
        <time>2011-04-03T09:30:04.286Z</time>
      </trkpt>
      <trkpt lat="47.33135" lon="-0.24206">
        <ele>63</ele>
        <time>2011-04-03T09:30:05.390Z</time>
      </trkpt>
      <trkpt lat="47.3313" lon="-0.24203">
        <ele>63</ele>
        <time>2011-04-03T09:30:06.801Z</time>
      </trkpt>
      <trkpt lat="47.33126" lon="-0.242">
        <ele>63</ele>
        <time>2011-04-03T09:30:07.974Z</time>
      </trkpt>
      <trkpt lat="47.33122" lon="-0.24198">
        <ele>63</ele>
        <time>2011-04-03T09:30:09.078Z</time>
      </trkpt>
      <trkpt lat="47.33117" lon="-0.24195">
        <ele>63</ele>
        <time>2011-04-03T09:30:10.490Z</time>
      </trkpt>
      <trkpt lat="47.33113" lon="-0.24192">
        <ele>63</ele>
        <time>2011-04-03T09:30:11.663Z</time>
      </trkpt>
      <trkpt lat="47.33108" lon="-0.2419">
        <ele>62.9</ele>
        <time>2011-04-03T09:30:13.018Z</time>
      </trkpt>
      <trkpt lat="47.33104" lon="-0.24187">
        <ele>62.8</ele>
        <time>2011-04-03T09:30:14.192Z</time>
      </trkpt>
      <trkpt lat="47.33099" lon="-0.24184">
        <ele>62.7</ele>
        <time>2011-04-03T09:30:15.604Z</time>
      </trkpt>
      <trkpt lat="47.33095" lon="-0.24181">
        <ele>62.7</ele>
        <time>2011-04-03T09:30:16.778Z</time>
      </trkpt>
      <trkpt lat="47.33091" lon="-0.24179">
        <ele>62.7</ele>
        <time>2011-04-03T09:30:17.883Z</time>
      </trkpt>
      <trkpt lat="47.33086" lon="-0.24176">
        <ele>62.7</ele>
        <time>2011-04-03T09:30:19.295Z</time>
      </trkpt>
      <trkpt lat="47.33082" lon="-0.24173">
        <ele>62.7</ele>
        <time>2011-04-03T09:30:20.469Z</time>
      </trkpt>
      <trkpt lat="47.33077" lon="-0.24171">
        <ele>62.6</ele>
        <time>2011-04-03T09:30:21.825Z</time>
      </trkpt>
      <trkpt lat="47.33073" lon="-0.24168">
        <ele>62.6</ele>
        <time>2011-04-03T09:30:23Z</time>
        <extensions>
          <type>
            <highway>track</highway>
            <surface>undefined</surface>
            </type>
        </extensions>
      </trkpt>
      <trkpt lat="47.33065" lon="-0.24162">
        <ele>62.5</ele>
        <time>2011-04-03T09:30:25.050Z</time>
      </trkpt>
      <trkpt lat="47.33058" lon="-0.24156">
        <ele>62.4</ele>
        <time>2011-04-03T09:30:26.899Z</time>
      </trkpt>
      <trkpt lat="47.3305" lon="-0.2415">
        <ele>62.8</ele>
        <time>2011-04-03T09:30:28.949Z</time>
      </trkpt>
      <trkpt lat="47.33042" lon="-0.24144">
        <ele>63.3</ele>
        <time>2011-04-03T09:30:31Z</time>
        <extensions>
          <type>
            <highway>track</highway>
            <surface>undefined</surface>
            </type>
        </extensions>
      </trkpt>
      <trkpt lat="47.33035" lon="-0.24138">
        <ele>63.8</ele>
        <time>2011-04-03T09:30:33.120Z</time>
      </trkpt>
      <trkpt lat="47.33029" lon="-0.24132">
        <ele>64.2</ele>
        <time>2011-04-03T09:30:35.018Z</time>
      </trkpt>
      <trkpt lat="47.33022" lon="-0.24125">
        <ele>64.5</ele>
        <time>2011-04-03T09:30:37.233Z</time>
      </trkpt>
      <trkpt lat="47.33016" lon="-0.24119">
        <ele>64.7</ele>
        <time>2011-04-03T09:30:39.131Z</time>
      </trkpt>
      <trkpt lat="47.33009" lon="-0.24113">
        <ele>64.9</ele>
        <time>2011-04-03T09:30:41.252Z</time>
      </trkpt>
      <trkpt lat="47.33002" lon="-0.24107">
        <ele>65.2</ele>
        <time>2011-04-03T09:30:43.373Z</time>
      </trkpt>
      <trkpt lat="47.32996" lon="-0.241">
        <ele>65.6</ele>
        <time>2011-04-03T09:30:45.377Z</time>
      </trkpt>
      <trkpt lat="47.32989" lon="-0.24094">
        <ele>66</ele>
        <time>2011-04-03T09:30:47.498Z</time>
      </trkpt>
      <trkpt lat="47.32982" lon="-0.24088">
        <ele>66.5</ele>
        <time>2011-04-03T09:30:49.619Z</time>
      </trkpt>
      <trkpt lat="47.32976" lon="-0.24082">
        <ele>66.9</ele>
        <time>2011-04-03T09:30:51.518Z</time>
      </trkpt>
      <trkpt lat="47.32969" lon="-0.24075">
        <ele>67.2</ele>
        <time>2011-04-03T09:30:53.733Z</time>
      </trkpt>
      <trkpt lat="47.32963" lon="-0.24069">
        <ele>67.3</ele>
        <time>2011-04-03T09:30:55.632Z</time>
      </trkpt>
      <trkpt lat="47.32956" lon="-0.24063">
        <ele>67.6</ele>
        <time>2011-04-03T09:30:57.753Z</time>
      </trkpt>
      <trkpt lat="47.32949" lon="-0.24057">
        <ele>67.9</ele>
        <time>2011-04-03T09:30:59.874Z</time>
      </trkpt>
      <trkpt lat="47.32943" lon="-0.2405">
        <ele>68.1</ele>
        <time>2011-04-03T09:31:01.878Z</time>
      </trkpt>
      <trkpt lat="47.32936" lon="-0.24044">
        <ele>68.1</ele>
        <time>2011-04-03T09:31:04Z</time>
        <extensions>
          <type>
            <highway>track</highway>
            <surface>undefined</surface>
            </type>
        </extensions>
      </trkpt>
      <trkpt lat="47.32931" lon="-0.24041">
        <ele>68</ele>
        <time>2011-04-03T09:31:05.625Z</time>
      </trkpt>
      <trkpt lat="47.32926" lon="-0.24038">
        <ele>68.1</ele>
        <time>2011-04-03T09:31:07.250Z</time>
      </trkpt>
      <trkpt lat="47.3292" lon="-0.24035">
        <ele>68.2</ele>
        <time>2011-04-03T09:31:09.157Z</time>
      </trkpt>
      <trkpt lat="47.32915" lon="-0.24033">
        <ele>68.5</ele>
        <time>2011-04-03T09:31:10.716Z</time>
      </trkpt>
      <trkpt lat="47.3291" lon="-0.2403">
        <ele>68.8</ele>
        <time>2011-04-03T09:31:12.341Z</time>
      </trkpt>
      <trkpt lat="47.32905" lon="-0.24027">
        <ele>69.1</ele>
        <time>2011-04-03T09:31:13.966Z</time>
      </trkpt>
      <trkpt lat="47.32899" lon="-0.24024">
        <ele>69.5</ele>
        <time>2011-04-03T09:31:15.873Z</time>
      </trkpt>
      <trkpt lat="47.32894" lon="-0.24021">
        <ele>69.9</ele>
        <time>2011-04-03T09:31:17.498Z</time>
      </trkpt>
      <trkpt lat="47.32889" lon="-0.24018">
        <ele>70.4</ele>
        <time>2011-04-03T09:31:19.123Z</time>
      </trkpt>
      <trkpt lat="47.32884" lon="-0.24015">
        <ele>70.8</ele>
        <time>2011-04-03T09:31:20.748Z</time>
      </trkpt>
      <trkpt lat="47.32878" lon="-0.24012">
        <ele>71.2</ele>
        <time>2011-04-03T09:31:22.655Z</time>
      </trkpt>
      <trkpt lat="47.32873" lon="-0.2401">
        <ele>71.5</ele>
        <time>2011-04-03T09:31:24.215Z</time>
      </trkpt>
      <trkpt lat="47.32868" lon="-0.24007">
        <ele>71.6</ele>
        <time>2011-04-03T09:31:25.840Z</time>
      </trkpt>
      <trkpt lat="47.32863" lon="-0.24004">
        <ele>71.8</ele>
        <time>2011-04-03T09:31:27.465Z</time>
      </trkpt>
      <trkpt lat="47.32857" lon="-0.24001">
        <ele>71.9</ele>
        <time>2011-04-03T09:31:29.373Z</time>
      </trkpt>
      <trkpt lat="47.32852" lon="-0.23998">
        <ele>72.1</ele>
        <time>2011-04-03T09:31:31Z</time>
        <extensions>
          <type>
            <highway>track</highway>
            <surface>undefined</surface>
            </type>
        </extensions>
      </trkpt>
      <trkpt lat="47.32844" lon="-0.23993">
        <ele>72.3</ele>
        <time>2011-04-03T09:31:33.752Z</time>
      </trkpt>
      <trkpt lat="47.32836" lon="-0.23987">
        <ele>72.5</ele>
        <time>2011-04-03T09:31:36.594Z</time>
      </trkpt>
      <trkpt lat="47.32828" lon="-0.23982">
        <ele>73.1</ele>
        <time>2011-04-03T09:31:39.346Z</time>
      </trkpt>
      <trkpt lat="47.32821" lon="-0.23977">
        <ele>73.8</ele>
        <time>2011-04-03T09:31:41.809Z</time>
      </trkpt>
      <trkpt lat="47.32813" lon="-0.23971">
        <ele>74.6</ele>
        <time>2011-04-03T09:31:44.652Z</time>
      </trkpt>
      <trkpt lat="47.32805" lon="-0.23966">
        <ele>75.5</ele>
        <time>2011-04-03T09:31:47.404Z</time>
      </trkpt>
      <trkpt lat="47.32797" lon="-0.2396">
        <ele>76.2</ele>
        <time>2011-04-03T09:31:50.247Z</time>
      </trkpt>
      <trkpt lat="47.32789" lon="-0.23955">
        <ele>76.8</ele>
        <time>2011-04-03T09:31:53Z</time>
        <extensions>
          <type>
            <highway>track</highway>
            <surface>undefined</surface>
            </type>
        </extensions>
      </trkpt>
      <trkpt lat="47.32784" lon="-0.23954">
        <ele>77.1</ele>
        <time>2011-04-03T09:31:54.659Z</time>
      </trkpt>
      <trkpt lat="47.32779" lon="-0.23953">
        <ele>77.4</ele>
        <time>2011-04-03T09:31:56.318Z</time>
      </trkpt>
      <trkpt lat="47.32773" lon="-0.23951">
        <ele>77.6</ele>
        <time>2011-04-03T09:31:58.340Z</time>
      </trkpt>
      <trkpt lat="47.32768" lon="-0.2395">
        <ele>77.7</ele>
        <time>2011-04-03T09:32:00Z</time>
        <extensions>
          <type>
            <highway>track</highway>
            <surface>undefined</surface>
            </type>
        </extensions>
      </trkpt>
      <trkpt lat="47.32761" lon="-0.23944">
        <ele>78</ele>
        <time>2011-04-03T09:32:03Z</time>
        <extensions>
          <type>
            <highway>track</highway>
            <surface>undefined</surface>
            </type>
        </extensions>
      </trkpt>
      <trkpt lat="47.32756" lon="-0.23945">
        <ele>78</ele>
        <time>2011-04-03T09:32:06.013Z</time>
      </trkpt>
      <trkpt lat="47.32751" lon="-0.23945">
        <ele>78</ele>
        <time>2011-04-03T09:32:09Z</time>
        <extensions>
          <type>
            <highway>unclassified</highway>
            <surface>undefined</surface>
            </type>
        </extensions>
      </trkpt>
      <trkpt lat="47.32747" lon="-0.23941">
        <ele>78</ele>
        <time>2011-04-03T09:32:10.685Z</time>
      </trkpt>
      <trkpt lat="47.32743" lon="-0.23936">
        <ele>78.1</ele>
        <time>2011-04-03T09:32:12.513Z</time>
      </trkpt>
      <trkpt lat="47.3274" lon="-0.23932">
        <ele>78.1</ele>
        <time>2011-04-03T09:32:13.923Z</time>
      </trkpt>
      <trkpt lat="47.32736" lon="-0.23928">
        <ele>78.1</ele>
        <time>2011-04-03T09:32:15.608Z</time>
      </trkpt>
      <trkpt lat="47.32732" lon="-0.23923">
        <ele>78.1</ele>
        <time>2011-04-03T09:32:17.436Z</time>
      </trkpt>
      <trkpt lat="47.32728" lon="-0.23919">
        <ele>78.1</ele>
        <time>2011-04-03T09:32:19.121Z</time>
      </trkpt>
      <trkpt lat="47.32724" lon="-0.23914">
        <ele>78.1</ele>
        <time>2011-04-03T09:32:20.949Z</time>
      </trkpt>
      <trkpt lat="47.32721" lon="-0.2391">
        <ele>78</ele>
        <time>2011-04-03T09:32:22.359Z</time>
      </trkpt>
      <trkpt lat="47.32717" lon="-0.23906">
        <ele>78</ele>
        <time>2011-04-03T09:32:24.044Z</time>
      </trkpt>
      <trkpt lat="47.32713" lon="-0.23901">
        <ele>78</ele>
        <time>2011-04-03T09:32:25.873Z</time>
      </trkpt>
      <trkpt lat="47.32709" lon="-0.23897">
        <ele>78</ele>
        <time>2011-04-03T09:32:27.558Z</time>
      </trkpt>
      <trkpt lat="47.32705" lon="-0.23893">
        <ele>78</ele>
        <time>2011-04-03T09:32:29.244Z</time>
      </trkpt>
      <trkpt lat="47.32701" lon="-0.23888">
        <ele>78</ele>
        <time>2011-04-03T09:32:31.073Z</time>
      </trkpt>
      <trkpt lat="47.32698" lon="-0.23884">
        <ele>78</ele>
        <time>2011-04-03T09:32:32.484Z</time>
      </trkpt>
      <trkpt lat="47.32694" lon="-0.23879">
        <ele>78</ele>
        <time>2011-04-03T09:32:34.313Z</time>
      </trkpt>
      <trkpt lat="47.3269" lon="-0.23875">
        <ele>78</ele>
        <time>2011-04-03T09:32:36Z</time>
        <extensions>
          <type>
            <highway>unclassified</highway>
            <surface>undefined</surface>
            </type>
        </extensions>
      </trkpt>
      <trkpt lat="47.32686" lon="-0.23864">
        <ele>78</ele>
        <time>2011-04-03T09:32:38.896Z</time>
      </trkpt>
      <trkpt lat="47.32682" lon="-0.23852">
        <ele>78</ele>
        <time>2011-04-03T09:32:42Z</time>
        <extensions>
          <type>
            <highway>service</highway>
            <surface>undefined</surface>
            </type>
        </extensions>
      </trkpt>
      <trkpt lat="47.32677" lon="-0.23845">
        <ele>78</ele>
        <time>2011-04-03T09:32:43.948Z</time>
      </trkpt>
      <trkpt lat="47.32671" lon="-0.23838">
        <ele>78</ele>
        <time>2011-04-03T09:32:46.109Z</time>
      </trkpt>
      <trkpt lat="47.32666" lon="-0.23831">
        <ele>78</ele>
        <time>2011-04-03T09:32:48.057Z</time>
      </trkpt>
      <trkpt lat="47.32661" lon="-0.23825">
        <ele>78.1</ele>
        <time>2011-04-03T09:32:49.878Z</time>
      </trkpt>
      <trkpt lat="47.32655" lon="-0.23818">
        <ele>78.2</ele>
        <time>2011-04-03T09:32:52.040Z</time>
      </trkpt>
      <trkpt lat="47.3265" lon="-0.23811">
        <ele>78.1</ele>
        <time>2011-04-03T09:32:53.988Z</time>
      </trkpt>
      <trkpt lat="47.32645" lon="-0.23804">
        <ele>78</ele>
        <time>2011-04-03T09:32:55.936Z</time>
      </trkpt>
      <trkpt lat="47.3264" lon="-0.23797">
        <ele>78</ele>
        <time>2011-04-03T09:32:57.884Z</time>
      </trkpt>
      <trkpt lat="47.32634" lon="-0.2379">
        <ele>78.1</ele>
        <time>2011-04-03T09:33:00.046Z</time>
      </trkpt>
      <trkpt lat="47.32629" lon="-0.23783">
        <ele>78.1</ele>
        <time>2011-04-03T09:33:01.994Z</time>
      </trkpt>
      <trkpt lat="47.32624" lon="-0.23776">
        <ele>78</ele>
        <time>2011-04-03T09:33:03.942Z</time>
      </trkpt>
      <trkpt lat="47.32618" lon="-0.2377">
        <ele>78</ele>
        <time>2011-04-03T09:33:05.991Z</time>
      </trkpt>
      <trkpt lat="47.32613" lon="-0.23763">
        <ele>78</ele>
        <time>2011-04-03T09:33:07.939Z</time>
      </trkpt>
      <trkpt lat="47.32608" lon="-0.23756">
        <ele>78</ele>
        <time>2011-04-03T09:33:09.888Z</time>
      </trkpt>
      <trkpt lat="47.32602" lon="-0.23749">
        <ele>78</ele>
        <time>2011-04-03T09:33:12.050Z</time>
      </trkpt>
      <trkpt lat="47.32597" lon="-0.23742">
        <ele>78</ele>
        <time>2011-04-03T09:33:14Z</time>
        <extensions>
          <type>
            <highway>service</highway>
            <surface>undefined</surface>
            </type>
        </extensions>
      </trkpt>
      <trkpt lat="47.32594" lon="-0.23737">
        <ele>78</ele>
        <time>2011-04-03T09:33:14.797Z</time>
      </trkpt>
      <trkpt lat="47.32591" lon="-0.23731">
        <ele>78</ele>
        <time>2011-04-03T09:33:15.686Z</time>
      </trkpt>
      <trkpt lat="47.32587" lon="-0.23726">
        <ele>78</ele>
        <time>2011-04-03T09:33:16.609Z</time>
      </trkpt>
      <trkpt lat="47.32584" lon="-0.2372">
        <ele>78</ele>
        <time>2011-04-03T09:33:17.498Z</time>
      </trkpt>
      <trkpt lat="47.32581" lon="-0.23715">
        <ele>78</ele>
        <time>2011-04-03T09:33:18.295Z</time>
      </trkpt>
      <trkpt lat="47.32578" lon="-0.23709">
        <ele>77.9</ele>
        <time>2011-04-03T09:33:19.185Z</time>
      </trkpt>
      <trkpt lat="47.32574" lon="-0.23704">
        <ele>77.8</ele>
        <time>2011-04-03T09:33:20.108Z</time>
      </trkpt>
      <trkpt lat="47.32571" lon="-0.23698">
        <ele>77.6</ele>
        <time>2011-04-03T09:33:20.998Z</time>
      </trkpt>
      <trkpt lat="47.32568" lon="-0.23693">
        <ele>77.4</ele>
        <time>2011-04-03T09:33:21.795Z</time>
      </trkpt>
      <trkpt lat="47.32565" lon="-0.23687">
        <ele>77.2</ele>
        <time>2011-04-03T09:33:22.685Z</time>
      </trkpt>
      <trkpt lat="47.32561" lon="-0.23682">
        <ele>77.1</ele>
        <time>2011-04-03T09:33:23.608Z</time>
      </trkpt>
      <trkpt lat="47.32558" lon="-0.23676">
        <ele>77</ele>
        <time>2011-04-03T09:33:24.498Z</time>
      </trkpt>
      <trkpt lat="47.32555" lon="-0.23671">
        <ele>77</ele>
        <time>2011-04-03T09:33:25.295Z</time>
      </trkpt>
      <trkpt lat="47.32552" lon="-0.23665">
        <ele>76.8</ele>
        <time>2011-04-03T09:33:26.185Z</time>
      </trkpt>
      <trkpt lat="47.32548" lon="-0.2366">
        <ele>76.5</ele>
        <time>2011-04-03T09:33:27.109Z</time>
      </trkpt>
      <trkpt lat="47.32545" lon="-0.23654">
        <ele>76.3</ele>
        <time>2011-04-03T09:33:28Z</time>
        <extensions>
          <type>
            <highway>service</highway>
            <surface>undefined</surface>
            </type>
        </extensions>
      </trkpt>
      <trkpt lat="47.32539" lon="-0.2365">
        <ele>76.2</ele>
        <time>2011-04-03T09:33:29.038Z</time>
      </trkpt>
      <trkpt lat="47.32533" lon="-0.23647">
        <ele>76</ele>
        <time>2011-04-03T09:33:30.036Z</time>
      </trkpt>
      <trkpt lat="47.32526" lon="-0.23643">
        <ele>75.9</ele>
        <time>2011-04-03T09:33:31.219Z</time>
      </trkpt>
      <trkpt lat="47.3252" lon="-0.23639">
        <ele>75.7</ele>
        <time>2011-04-03T09:33:32.257Z</time>
      </trkpt>
      <trkpt lat="47.32514" lon="-0.23636">
        <ele>75.4</ele>
        <time>2011-04-03T09:33:33.255Z</time>
      </trkpt>
      <trkpt lat="47.32508" lon="-0.23632">
        <ele>75.2</ele>
        <time>2011-04-03T09:33:34.293Z</time>
      </trkpt>
      <trkpt lat="47.32501" lon="-0.23628">
        <ele>75</ele>
        <time>2011-04-03T09:33:35.476Z</time>
      </trkpt>
      <trkpt lat="47.32495" lon="-0.23625">
        <ele>75</ele>
        <time>2011-04-03T09:33:36.475Z</time>
      </trkpt>
      <trkpt lat="47.32489" lon="-0.23621">
        <ele>75</ele>
        <time>2011-04-03T09:33:37.513Z</time>
      </trkpt>
      <trkpt lat="47.32483" lon="-0.23617">
        <ele>75</ele>
        <time>2011-04-03T09:33:38.551Z</time>
      </trkpt>
      <trkpt lat="47.32476" lon="-0.23613">
        <ele>75</ele>
        <time>2011-04-03T09:33:39.735Z</time>
      </trkpt>
      <trkpt lat="47.3247" lon="-0.2361">
        <ele>74.9</ele>
        <time>2011-04-03T09:33:40.734Z</time>
      </trkpt>
      <trkpt lat="47.32464" lon="-0.23606">
        <ele>74.8</ele>
        <time>2011-04-03T09:33:41.772Z</time>
      </trkpt>
      <trkpt lat="47.32458" lon="-0.23602">
        <ele>74.7</ele>
        <time>2011-04-03T09:33:42.810Z</time>
      </trkpt>
      <trkpt lat="47.32451" lon="-0.23599">
        <ele>74.6</ele>
        <time>2011-04-03T09:33:43.960Z</time>
      </trkpt>
      <trkpt lat="47.32445" lon="-0.23595">
        <ele>74.4</ele>
        <time>2011-04-03T09:33:45Z</time>
        <extensions>
          <type>
            <highway>service</highway>
            <surface>undefined</surface>
            </type>
        </extensions>
      </trkpt>
      <trkpt lat="47.32441" lon="-0.23587">
        <ele>74.1</ele>
        <time>2011-04-03T09:33:45.969Z</time>
      </trkpt>
      <trkpt lat="47.32437" lon="-0.23578">
        <ele>73.8</ele>
        <time>2011-04-03T09:33:47.019Z</time>
      </trkpt>
      <trkpt lat="47.32433" lon="-0.2357">
        <ele>73.5</ele>
        <time>2011-04-03T09:33:47.989Z</time>
      </trkpt>
      <trkpt lat="47.32429" lon="-0.23562">
        <ele>73.2</ele>
        <time>2011-04-03T09:33:48.959Z</time>
      </trkpt>
      <trkpt lat="47.32425" lon="-0.23553">
        <ele>72.9</ele>
        <time>2011-04-03T09:33:50.009Z</time>
      </trkpt>
      <trkpt lat="47.32421" lon="-0.23545">
        <ele>72.6</ele>
        <time>2011-04-03T09:33:50.979Z</time>
      </trkpt>
      <trkpt lat="47.32417" lon="-0.23536">
        <ele>72.3</ele>
        <time>2011-04-03T09:33:52.029Z</time>
      </trkpt>
      <trkpt lat="47.32413" lon="-0.23528">
        <ele>72</ele>
        <time>2011-04-03T09:33:52.999Z</time>
      </trkpt>
      <trkpt lat="47.32409" lon="-0.2352">
        <ele>71.7</ele>
        <time>2011-04-03T09:33:53.969Z</time>
      </trkpt>
      <trkpt lat="47.32405" lon="-0.23511">
        <ele>71.4</ele>
        <time>2011-04-03T09:33:55.019Z</time>
      </trkpt>
      <trkpt lat="47.32401" lon="-0.23503">
        <ele>71.1</ele>
        <time>2011-04-03T09:33:55.989Z</time>
      </trkpt>
      <trkpt lat="47.32397" lon="-0.23495">
        <ele>71</ele>
        <time>2011-04-03T09:33:56.959Z</time>
      </trkpt>
      <trkpt lat="47.32393" lon="-0.23486">
        <ele>71</ele>
        <time>2011-04-03T09:33:58.009Z</time>
      </trkpt>
      <trkpt lat="47.32389" lon="-0.23478">
        <ele>71</ele>
        <time>2011-04-03T09:33:58.979Z</time>
      </trkpt>
      <trkpt lat="47.32385" lon="-0.23469">
        <ele>71</ele>
        <time>2011-04-03T09:34:00.029Z</time>
      </trkpt>
      <trkpt lat="47.32381" lon="-0.23461">
        <ele>70.9</ele>
        <time>2011-04-03T09:34:01Z</time>
        <extensions>
          <type>
            <highway>service</highway>
            <surface>undefined</surface>
            </type>
        </extensions>
      </trkpt>
      <trkpt lat="47.32375" lon="-0.23456">
        <ele>70.9</ele>
        <time>2011-04-03T09:34:01.989Z</time>
      </trkpt>
      <trkpt lat="47.32369" lon="-0.23451">
        <ele>71</ele>
        <time>2011-04-03T09:34:02.978Z</time>
      </trkpt>
      <trkpt lat="47.32363" lon="-0.23446">
        <ele>71</ele>
        <time>2011-04-03T09:34:03.967Z</time>
      </trkpt>
      <trkpt lat="47.32357" lon="-0.23441">
        <ele>70.8</ele>
        <time>2011-04-03T09:34:04.956Z</time>
      </trkpt>
      <trkpt lat="47.32351" lon="-0.23436">
        <ele>70.6</ele>
        <time>2011-04-03T09:34:05.945Z</time>
      </trkpt>
      <trkpt lat="47.32345" lon="-0.23431">
        <ele>70.2</ele>
        <time>2011-04-03T09:34:06.934Z</time>
      </trkpt>
      <trkpt lat="47.32339" lon="-0.23426">
        <ele>69.8</ele>
        <time>2011-04-03T09:34:07.923Z</time>
      </trkpt>
      <trkpt lat="47.32333" lon="-0.23421">
        <ele>69.3</ele>
        <time>2011-04-03T09:34:08.912Z</time>
      </trkpt>
      <trkpt lat="47.32326" lon="-0.23415">
        <ele>69</ele>
        <time>2011-04-03T09:34:10.074Z</time>
      </trkpt>
      <trkpt lat="47.3232" lon="-0.2341">
        <ele>69</ele>
        <time>2011-04-03T09:34:11.063Z</time>
      </trkpt>
      <trkpt lat="47.32314" lon="-0.23405">
        <ele>68.8</ele>
        <time>2011-04-03T09:34:12.052Z</time>
      </trkpt>
      <trkpt lat="47.32308" lon="-0.234">
        <ele>68.5</ele>
        <time>2011-04-03T09:34:13.041Z</time>
      </trkpt>
      <trkpt lat="47.32302" lon="-0.23395">
        <ele>68.2</ele>
        <time>2011-04-03T09:34:14.030Z</time>
      </trkpt>
      <trkpt lat="47.32296" lon="-0.2339">
        <ele>68</ele>
        <time>2011-04-03T09:34:15.019Z</time>
      </trkpt>
      <trkpt lat="47.3229" lon="-0.23385">
        <ele>68</ele>
        <time>2011-04-03T09:34:16.009Z</time>
      </trkpt>
      <trkpt lat="47.32284" lon="-0.2338">
        <ele>68</ele>
        <time>2011-04-03T09:34:17Z</time>
        <extensions>
          <type>
            <highway>service</highway>
            <surface>undefined</surface>
            </type>
        </extensions>
      </trkpt>
      <trkpt lat="47.3228" lon="-0.23373">
        <ele>68</ele>
        <time>2011-04-03T09:34:18.002Z</time>
      </trkpt>
      <trkpt lat="47.32277" lon="-0.23366">
        <ele>68</ele>
        <time>2011-04-03T09:34:18.908Z</time>
      </trkpt>
      <trkpt lat="47.32273" lon="-0.23358">
        <ele>67.7</ele>
        <time>2011-04-03T09:34:19.997Z</time>
      </trkpt>
      <trkpt lat="47.32269" lon="-0.23351">
        <ele>67.4</ele>
        <time>2011-04-03T09:34:21Z</time>
        <extensions>
          <type>
            <highway>service</highway>
            <surface>undefined</surface>
            </type>
        </extensions>
      </trkpt>
      <trkpt lat="47.32267" lon="-0.2334">
        <ele>67.1</ele>
        <time>2011-04-03T09:34:22.438Z</time>
      </trkpt>
      <trkpt lat="47.32265" lon="-0.23328">
        <ele>67</ele>
        <time>2011-04-03T09:34:24Z</time>
        <extensions>
          <type>
            <highway>service</highway>
            <surface>undefined</surface>
            </type>
        </extensions>
      </trkpt>
      <trkpt lat="47.32267" lon="-0.23316">
        <ele>67</ele>
        <time>2011-04-03T09:34:25.562Z</time>
      </trkpt>
      <trkpt lat="47.32269" lon="-0.23305">
        <ele>67</ele>
        <time>2011-04-03T09:34:27.001Z</time>
      </trkpt>
      <trkpt lat="47.32271" lon="-0.23293">
        <ele>67</ele>
        <time>2011-04-03T09:34:28.562Z</time>
      </trkpt>
      <trkpt lat="47.32273" lon="-0.23281">
        <ele>67</ele>
        <time>2011-04-03T09:34:30.122Z</time>
      </trkpt>
      <trkpt lat="47.32275" lon="-0.2327">
        <ele>67</ele>
        <time>2011-04-03T09:34:31.559Z</time>
      </trkpt>
      <trkpt lat="47.32277" lon="-0.23258">
        <ele>67</ele>
        <time>2011-04-03T09:34:33.118Z</time>
      </trkpt>
      <trkpt lat="47.32279" lon="-0.23246">
        <ele>67</ele>
        <time>2011-04-03T09:34:34.676Z</time>
      </trkpt>
      <trkpt lat="47.32281" lon="-0.23235">
        <ele>67</ele>
        <time>2011-04-03T09:34:36.111Z</time>
      </trkpt>
      <trkpt lat="47.32283" lon="-0.23223">
        <ele>67</ele>
        <time>2011-04-03T09:34:37.668Z</time>
      </trkpt>
      <trkpt lat="47.32285" lon="-0.23211">
        <ele>66.7</ele>
        <time>2011-04-03T09:34:39.224Z</time>
      </trkpt>
      <trkpt lat="47.32287" lon="-0.23199">
        <ele>66.5</ele>
        <time>2011-04-03T09:34:40.779Z</time>
      </trkpt>
      <trkpt lat="47.32289" lon="-0.23188">
        <ele>66.4</ele>
        <time>2011-04-03T09:34:42.212Z</time>
      </trkpt>
      <trkpt lat="47.32291" lon="-0.23176">
        <ele>66.5</ele>
        <time>2011-04-03T09:34:43.766Z</time>
      </trkpt>
      <trkpt lat="47.32293" lon="-0.23164">
        <ele>66.5</ele>
        <time>2011-04-03T09:34:45.319Z</time>
      </trkpt>
      <trkpt lat="47.32295" lon="-0.23153">
        <ele>66.5</ele>
        <time>2011-04-03T09:34:46.750Z</time>
      </trkpt>
      <trkpt lat="47.32297" lon="-0.23141">
        <ele>66.3</ele>
        <time>2011-04-03T09:34:48.302Z</time>
        <extensions>
          <type>
            <highway>service</highway>
            <surface>undefined</surface>
            </type>
        </extensions>
      </trkpt>
      <trkpt lat="47.32302" lon="-0.2313">
        <ele>66.1</ele>
        <time>2011-04-03T09:34:49.965Z</time>
      </trkpt>
      <trkpt lat="47.32306" lon="-0.23118">
        <ele>66</ele>
        <time>2011-04-03T09:34:51.644Z</time>
      </trkpt>
      <trkpt lat="47.32311" lon="-0.23107">
        <ele>66.3</ele>
        <time>2011-04-03T09:34:53.306Z</time>
      </trkpt>
      <trkpt lat="47.32315" lon="-0.23096">
        <ele>66.5</ele>
        <time>2011-04-03T09:34:54.872Z</time>
      </trkpt>
      <trkpt lat="47.3232" lon="-0.23084">
        <ele>66.5</ele>
        <time>2011-04-03T09:34:56.639Z</time>
      </trkpt>
      <trkpt lat="47.32324" lon="-0.23073">
        <ele>66.3</ele>
        <time>2011-04-03T09:34:58.204Z</time>
      </trkpt>
      <trkpt lat="47.32329" lon="-0.23061">
        <ele>66.2</ele>
        <time>2011-04-03T09:34:59.969Z</time>
      </trkpt>
      <trkpt lat="47.32333" lon="-0.2305">
        <ele>66</ele>
        <time>2011-04-03T09:35:01.533Z</time>
        <extensions>
          <type>
            <highway>service</highway>
            <surface>undefined</surface>
            </type>
        </extensions>
      </trkpt>
      <trkpt lat="47.32337" lon="-0.23044">
        <ele>66.1</ele>
        <time>2011-04-03T09:35:02.587Z</time>
      </trkpt>
      <trkpt lat="47.32341" lon="-0.23037">
        <ele>66.1</ele>
        <time>2011-04-03T09:35:03.733Z</time>
      </trkpt>
      <trkpt lat="47.32345" lon="-0.23031">
        <ele>66</ele>
        <time>2011-04-03T09:35:04.786Z</time>
      </trkpt>
      <trkpt lat="47.32349" lon="-0.23024">
        <ele>66</ele>
        <time>2011-04-03T09:35:05.931Z</time>
      </trkpt>
      <trkpt lat="47.32352" lon="-0.23018">
        <ele>65.9</ele>
        <time>2011-04-03T09:35:06.863Z</time>
      </trkpt>
      <trkpt lat="47.32356" lon="-0.23011">
        <ele>65.6</ele>
        <time>2011-04-03T09:35:08.007Z</time>
      </trkpt>
      <trkpt lat="47.3236" lon="-0.23005">
        <ele>65.2</ele>
        <time>2011-04-03T09:35:09.058Z</time>
      </trkpt>
      <trkpt lat="47.32364" lon="-0.22998">
        <ele>65.2</ele>
        <time>2011-04-03T09:35:10.201Z</time>
      </trkpt>
      <trkpt lat="47.32368" lon="-0.22992">
        <ele>65.6</ele>
        <time>2011-04-03T09:35:11.251Z</time>
      </trkpt>
      <trkpt lat="47.32372" lon="-0.22985">
        <ele>65.8</ele>
        <time>2011-04-03T09:35:12.393Z</time>
      </trkpt>
      <trkpt lat="47.32376" lon="-0.22979">
        <ele>65.9</ele>
        <time>2011-04-03T09:35:13.442Z</time>
      </trkpt>
      <trkpt lat="47.3238" lon="-0.22972">
        <ele>65.7</ele>
        <time>2011-04-03T09:35:14.583Z</time>
      </trkpt>
      <trkpt lat="47.32383" lon="-0.22966">
        <ele>65.2</ele>
        <time>2011-04-03T09:35:15.512Z</time>
      </trkpt>
      <trkpt lat="47.32387" lon="-0.22959">
        <ele>64.7</ele>
        <time>2011-04-03T09:35:16.652Z</time>
      </trkpt>
      <trkpt lat="47.32391" lon="-0.22953">
        <ele>64.3</ele>
        <time>2011-04-03T09:35:17.699Z</time>
      </trkpt>
      <trkpt lat="47.32395" lon="-0.22946">
        <ele>64.1</ele>
        <time>2011-04-03T09:35:18.838Z</time>
        <extensions>
          <type>
            <highway>track</highway>
            <surface>undefined</surface>
            </type>
        </extensions>
      </trkpt>
      <trkpt lat="47.32395" lon="-0.22935">
        <ele>64.3</ele>
        <time>2011-04-03T09:35:20.206Z</time>
      </trkpt>
      <trkpt lat="47.32395" lon="-0.22923">
        <ele>64.6</ele>
        <time>2011-04-03T09:35:21.698Z</time>
      </trkpt>
      <trkpt lat="47.32395" lon="-0.22912">
        <ele>65</ele>
        <time>2011-04-03T09:35:23.065Z</time>
      </trkpt>
      <trkpt lat="47.32395" lon="-0.229">
        <ele>65.4</ele>
        <time>2011-04-03T09:35:24.556Z</time>
        <extensions>
          <type>
            <highway>track</highway>
            <surface>undefined</surface>
            </type>
        </extensions>
      </trkpt>
      <trkpt lat="47.32395" lon="-0.229">
        <ele>65.4</ele>
        <time>2011-04-03T09:35:24.556Z</time>
        <extensions>
          <type>
            <highway>track</highway>
            <surface>undefined</surface>
            </type>
        </extensions>
      </trkpt>
    </trkseg>
  </trk>
</gpx>